<?xml version="1.0" encoding="UTF-8" standalone="no" ?>
<gpx xmlns="http://www.topografix.com/GPX/1/1" xmlns:xsi="http://www.w3.org/2001/XMLSchema-instance" xsi:schemaLocation="http://www.topografix.com/GPX/1/1 http://www.topografix.com/GPX/1/1/gpx.xsd" version="1.1" creator="VisuGPX - https://www.visugpx.com">
  <metadata>
    <name>Lac de vassiviere J1</name>
  </metadata>
  <trk>
    <name><![CDATA[Trace 1783413083000]]></name>
    <trkseg>
      <trkpt lat="45.80917" lon="1.89725">
        <ele>702.7</ele>
        <time>2026-07-07T08:31:23.000Z</time>
      </trkpt>
      <trkpt lat="45.80917" lon="1.89725">
        <ele>700.9</ele>
        <time>2026-07-07T08:31:24.000Z</time>
      </trkpt>
      <trkpt lat="45.80917" lon="1.89723">
        <ele>700.9</ele>
        <time>2026-07-07T08:31:25.000Z</time>
      </trkpt>
      <trkpt lat="45.80917" lon="1.89722">
        <ele>701</ele>
        <time>2026-07-07T08:31:26.000Z</time>
      </trkpt>
      <trkpt lat="45.80917" lon="1.89723">
        <ele>700.6</ele>
        <time>2026-07-07T08:31:27.000Z</time>
      </trkpt>
      <trkpt lat="45.80917" lon="1.89723">
        <ele>700.8</ele>
        <time>2026-07-07T08:31:28.000Z</time>
      </trkpt>
      <trkpt lat="45.80917" lon="1.89723">
        <ele>700.6</ele>
        <time>2026-07-07T08:31:29.000Z</time>
      </trkpt>
      <trkpt lat="45.80916" lon="1.89723">
        <ele>701.1</ele>
        <time>2026-07-07T08:31:30.000Z</time>
      </trkpt>
      <trkpt lat="45.80917" lon="1.89723">
        <ele>700.9</ele>
        <time>2026-07-07T08:31:31.000Z</time>
      </trkpt>
      <trkpt lat="45.80917" lon="1.89722">
        <ele>700.9</ele>
        <time>2026-07-07T08:31:32.000Z</time>
      </trkpt>
      <trkpt lat="45.80917" lon="1.89722">
        <ele>701</ele>
        <time>2026-07-07T08:31:33.000Z</time>
      </trkpt>
      <trkpt lat="45.80918" lon="1.89722">
        <ele>700.8</ele>
        <time>2026-07-07T08:31:34.000Z</time>
      </trkpt>
      <trkpt lat="45.80918" lon="1.89721">
        <ele>700.7</ele>
        <time>2026-07-07T08:31:35.000Z</time>
      </trkpt>
      <trkpt lat="45.80918" lon="1.89721">
        <ele>700.8</ele>
        <time>2026-07-07T08:31:36.000Z</time>
      </trkpt>
      <trkpt lat="45.80918" lon="1.89721">
        <ele>700.8</ele>
        <time>2026-07-07T08:31:37.000Z</time>
      </trkpt>
      <trkpt lat="45.80918" lon="1.89721">
        <ele>700.8</ele>
        <time>2026-07-07T08:31:38.000Z</time>
      </trkpt>
      <trkpt lat="45.80918" lon="1.89721">
        <ele>700.8</ele>
        <time>2026-07-07T08:31:39.000Z</time>
      </trkpt>
      <trkpt lat="45.80918" lon="1.89721">
        <ele>700.5</ele>
        <time>2026-07-07T08:31:40.000Z</time>
      </trkpt>
      <trkpt lat="45.80918" lon="1.8972">
        <ele>700.9</ele>
        <time>2026-07-07T08:31:41.000Z</time>
      </trkpt>
      <trkpt lat="45.80918" lon="1.8972">
        <ele>700.5</ele>
        <time>2026-07-07T08:31:42.000Z</time>
      </trkpt>
      <trkpt lat="45.80918" lon="1.89719">
        <ele>700.4</ele>
        <time>2026-07-07T08:31:43.000Z</time>
      </trkpt>
      <trkpt lat="45.80917" lon="1.89717">
        <ele>700.4</ele>
        <time>2026-07-07T08:31:44.000Z</time>
      </trkpt>
      <trkpt lat="45.80917" lon="1.89717">
        <ele>700.8</ele>
        <time>2026-07-07T08:31:45.000Z</time>
      </trkpt>
      <trkpt lat="45.80917" lon="1.89717">
        <ele>700.5</ele>
        <time>2026-07-07T08:31:46.000Z</time>
      </trkpt>
      <trkpt lat="45.80917" lon="1.89717">
        <ele>700.4</ele>
        <time>2026-07-07T08:31:47.000Z</time>
      </trkpt>
      <trkpt lat="45.80918" lon="1.89716">
        <ele>699.9</ele>
        <time>2026-07-07T08:31:48.000Z</time>
      </trkpt>
      <trkpt lat="45.80918" lon="1.89716">
        <ele>699.6</ele>
        <time>2026-07-07T08:31:49.000Z</time>
      </trkpt>
      <trkpt lat="45.80918" lon="1.89716">
        <ele>699.4</ele>
        <time>2026-07-07T08:31:50.000Z</time>
      </trkpt>
      <trkpt lat="45.80919" lon="1.89715">
        <ele>699.3</ele>
        <time>2026-07-07T08:31:51.000Z</time>
      </trkpt>
      <trkpt lat="45.80919" lon="1.89715">
        <ele>699.2</ele>
        <time>2026-07-07T08:31:52.000Z</time>
      </trkpt>
      <trkpt lat="45.80918" lon="1.89715">
        <ele>699.2</ele>
        <time>2026-07-07T08:31:53.000Z</time>
      </trkpt>
      <trkpt lat="45.80918" lon="1.89714">
        <ele>699.3</ele>
        <time>2026-07-07T08:31:54.000Z</time>
      </trkpt>
      <trkpt lat="45.80918" lon="1.89713">
        <ele>699.5</ele>
        <time>2026-07-07T08:31:55.000Z</time>
      </trkpt>
      <trkpt lat="45.80919" lon="1.8971">
        <ele>699.3</ele>
        <time>2026-07-07T08:31:56.000Z</time>
      </trkpt>
      <trkpt lat="45.80919" lon="1.89708">
        <ele>699.2</ele>
        <time>2026-07-07T08:31:57.000Z</time>
      </trkpt>
      <trkpt lat="45.80919" lon="1.89706">
        <ele>698.8</ele>
        <time>2026-07-07T08:31:58.000Z</time>
      </trkpt>
      <trkpt lat="45.8092" lon="1.89704">
        <ele>698.9</ele>
        <time>2026-07-07T08:31:59.000Z</time>
      </trkpt>
      <trkpt lat="45.8092" lon="1.89703">
        <ele>699.5</ele>
        <time>2026-07-07T08:32:00.000Z</time>
      </trkpt>
      <trkpt lat="45.8092" lon="1.89701">
        <ele>698.6</ele>
        <time>2026-07-07T08:32:01.000Z</time>
      </trkpt>
      <trkpt lat="45.80921" lon="1.89699">
        <ele>698.7</ele>
        <time>2026-07-07T08:32:02.000Z</time>
      </trkpt>
      <trkpt lat="45.80922" lon="1.89699">
        <ele>698.5</ele>
        <time>2026-07-07T08:32:03.000Z</time>
      </trkpt>
      <trkpt lat="45.80923" lon="1.89699">
        <ele>698.3</ele>
        <time>2026-07-07T08:32:04.000Z</time>
      </trkpt>
      <trkpt lat="45.80922" lon="1.897">
        <ele>698.2</ele>
        <time>2026-07-07T08:32:05.000Z</time>
      </trkpt>
      <trkpt lat="45.80921" lon="1.89701">
        <ele>698.2</ele>
        <time>2026-07-07T08:32:06.000Z</time>
      </trkpt>
      <trkpt lat="45.80921" lon="1.89701">
        <ele>698.2</ele>
        <time>2026-07-07T08:32:07.000Z</time>
      </trkpt>
      <trkpt lat="45.80921" lon="1.89701">
        <ele>698.2</ele>
        <time>2026-07-07T08:32:08.000Z</time>
      </trkpt>
      <trkpt lat="45.80921" lon="1.897">
        <ele>697.2</ele>
        <time>2026-07-07T08:32:09.000Z</time>
      </trkpt>
      <trkpt lat="45.80922" lon="1.89699">
        <ele>697.3</ele>
        <time>2026-07-07T08:32:10.000Z</time>
      </trkpt>
      <trkpt lat="45.80922" lon="1.89697">
        <ele>697.2</ele>
        <time>2026-07-07T08:32:11.000Z</time>
      </trkpt>
      <trkpt lat="45.80923" lon="1.89695">
        <ele>698.6</ele>
        <time>2026-07-07T08:32:12.000Z</time>
      </trkpt>
      <trkpt lat="45.80924" lon="1.89693">
        <ele>699.6</ele>
        <time>2026-07-07T08:32:13.000Z</time>
      </trkpt>
      <trkpt lat="45.80923" lon="1.89691">
        <ele>699.5</ele>
        <time>2026-07-07T08:32:14.000Z</time>
      </trkpt>
      <trkpt lat="45.80922" lon="1.89689">
        <ele>699.8</ele>
        <time>2026-07-07T08:32:15.000Z</time>
      </trkpt>
      <trkpt lat="45.80922" lon="1.89688">
        <ele>699.8</ele>
        <time>2026-07-07T08:32:16.000Z</time>
      </trkpt>
      <trkpt lat="45.80921" lon="1.89688">
        <ele>699.6</ele>
        <time>2026-07-07T08:32:17.000Z</time>
      </trkpt>
      <trkpt lat="45.8092" lon="1.89687">
        <ele>699.8</ele>
        <time>2026-07-07T08:32:18.000Z</time>
      </trkpt>
      <trkpt lat="45.80919" lon="1.89687">
        <ele>699.8</ele>
        <time>2026-07-07T08:32:19.000Z</time>
      </trkpt>
      <trkpt lat="45.80918" lon="1.89687">
        <ele>699.6</ele>
        <time>2026-07-07T08:32:20.000Z</time>
      </trkpt>
      <trkpt lat="45.80917" lon="1.89687">
        <ele>699.6</ele>
        <time>2026-07-07T08:32:21.000Z</time>
      </trkpt>
      <trkpt lat="45.80915" lon="1.89686">
        <ele>699.8</ele>
        <time>2026-07-07T08:32:22.000Z</time>
      </trkpt>
      <trkpt lat="45.80914" lon="1.89686">
        <ele>699.5</ele>
        <time>2026-07-07T08:32:23.000Z</time>
      </trkpt>
      <trkpt lat="45.80913" lon="1.89686">
        <ele>698.7</ele>
        <time>2026-07-07T08:32:24.000Z</time>
      </trkpt>
      <trkpt lat="45.80912" lon="1.89686">
        <ele>698.5</ele>
        <time>2026-07-07T08:32:25.000Z</time>
      </trkpt>
      <trkpt lat="45.80911" lon="1.89686">
        <ele>698.8</ele>
        <time>2026-07-07T08:32:26.000Z</time>
      </trkpt>
      <trkpt lat="45.8091" lon="1.89685">
        <ele>698.6</ele>
        <time>2026-07-07T08:32:27.000Z</time>
      </trkpt>
      <trkpt lat="45.80909" lon="1.89685">
        <ele>698.5</ele>
        <time>2026-07-07T08:32:28.000Z</time>
      </trkpt>
      <trkpt lat="45.80908" lon="1.89685">
        <ele>698.2</ele>
        <time>2026-07-07T08:32:29.000Z</time>
      </trkpt>
      <trkpt lat="45.80907" lon="1.89685">
        <ele>698.2</ele>
        <time>2026-07-07T08:32:30.000Z</time>
      </trkpt>
      <trkpt lat="45.80906" lon="1.89686">
        <ele>698.2</ele>
        <time>2026-07-07T08:32:31.000Z</time>
      </trkpt>
      <trkpt lat="45.80906" lon="1.89686">
        <ele>698.3</ele>
        <time>2026-07-07T08:32:32.000Z</time>
      </trkpt>
      <trkpt lat="45.80905" lon="1.89687">
        <ele>697.8</ele>
        <time>2026-07-07T08:32:33.000Z</time>
      </trkpt>
      <trkpt lat="45.80906" lon="1.89687">
        <ele>697.8</ele>
        <time>2026-07-07T08:32:34.000Z</time>
      </trkpt>
      <trkpt lat="45.80906" lon="1.89688">
        <ele>697.7</ele>
        <time>2026-07-07T08:32:35.000Z</time>
      </trkpt>
      <trkpt lat="45.80906" lon="1.89688">
        <ele>697.7</ele>
        <time>2026-07-07T08:32:36.000Z</time>
      </trkpt>
      <trkpt lat="45.80906" lon="1.89689">
        <ele>698</ele>
        <time>2026-07-07T08:32:37.000Z</time>
      </trkpt>
      <trkpt lat="45.80906" lon="1.8969">
        <ele>697.6</ele>
        <time>2026-07-07T08:32:38.000Z</time>
      </trkpt>
      <trkpt lat="45.80906" lon="1.8969">
        <ele>697.6</ele>
        <time>2026-07-07T08:32:39.000Z</time>
      </trkpt>
      <trkpt lat="45.80906" lon="1.8969">
        <ele>697.6</ele>
        <time>2026-07-07T08:32:40.000Z</time>
      </trkpt>
      <trkpt lat="45.80906" lon="1.8969">
        <ele>697.5</ele>
        <time>2026-07-07T08:32:41.000Z</time>
      </trkpt>
      <trkpt lat="45.80906" lon="1.89689">
        <ele>697.2</ele>
        <time>2026-07-07T08:32:42.000Z</time>
      </trkpt>
      <trkpt lat="45.80906" lon="1.8969">
        <ele>697.3</ele>
        <time>2026-07-07T08:32:43.000Z</time>
      </trkpt>
      <trkpt lat="45.80906" lon="1.8969">
        <ele>697.5</ele>
        <time>2026-07-07T08:32:44.000Z</time>
      </trkpt>
      <trkpt lat="45.80906" lon="1.8969">
        <ele>697.6</ele>
        <time>2026-07-07T08:32:45.000Z</time>
      </trkpt>
      <trkpt lat="45.80906" lon="1.89691">
        <ele>697.6</ele>
        <time>2026-07-07T08:32:46.000Z</time>
      </trkpt>
      <trkpt lat="45.80906" lon="1.89691">
        <ele>697.6</ele>
        <time>2026-07-07T08:32:47.000Z</time>
      </trkpt>
      <trkpt lat="45.80905" lon="1.8969">
        <ele>697.7</ele>
        <time>2026-07-07T08:32:48.000Z</time>
      </trkpt>
      <trkpt lat="45.80905" lon="1.8969">
        <ele>697.7</ele>
        <time>2026-07-07T08:32:49.000Z</time>
      </trkpt>
      <trkpt lat="45.80905" lon="1.8969">
        <ele>697.8</ele>
        <time>2026-07-07T08:32:50.000Z</time>
      </trkpt>
      <trkpt lat="45.80904" lon="1.89692">
        <ele>698</ele>
        <time>2026-07-07T08:32:51.000Z</time>
      </trkpt>
      <trkpt lat="45.80904" lon="1.89691">
        <ele>698.1</ele>
        <time>2026-07-07T08:32:52.000Z</time>
      </trkpt>
      <trkpt lat="45.80903" lon="1.89692">
        <ele>698.5</ele>
        <time>2026-07-07T08:32:53.000Z</time>
      </trkpt>
      <trkpt lat="45.80904" lon="1.89692">
        <ele>698.6</ele>
        <time>2026-07-07T08:32:54.000Z</time>
      </trkpt>
      <trkpt lat="45.80904" lon="1.89697">
        <ele>698.4</ele>
        <time>2026-07-07T08:32:55.000Z</time>
      </trkpt>
      <trkpt lat="45.80904" lon="1.89698">
        <ele>698.4</ele>
        <time>2026-07-07T08:32:56.000Z</time>
      </trkpt>
      <trkpt lat="45.80904" lon="1.89698">
        <ele>698.4</ele>
        <time>2026-07-07T08:32:57.000Z</time>
      </trkpt>
      <trkpt lat="45.80904" lon="1.89698">
        <ele>698.4</ele>
        <time>2026-07-07T08:32:58.000Z</time>
      </trkpt>
      <trkpt lat="45.80904" lon="1.89698">
        <ele>698.9</ele>
        <time>2026-07-07T08:32:59.000Z</time>
      </trkpt>
      <trkpt lat="45.80904" lon="1.89698">
        <ele>698.9</ele>
        <time>2026-07-07T08:33:00.000Z</time>
      </trkpt>
      <trkpt lat="45.80904" lon="1.89698">
        <ele>698.9</ele>
        <time>2026-07-07T08:33:01.000Z</time>
      </trkpt>
      <trkpt lat="45.80904" lon="1.89698">
        <ele>698.9</ele>
        <time>2026-07-07T08:33:02.000Z</time>
      </trkpt>
      <trkpt lat="45.80904" lon="1.89698">
        <ele>698.9</ele>
        <time>2026-07-07T08:33:03.000Z</time>
      </trkpt>
      <trkpt lat="45.80904" lon="1.89698">
        <ele>698.9</ele>
        <time>2026-07-07T08:33:04.000Z</time>
      </trkpt>
      <trkpt lat="45.80904" lon="1.89698">
        <ele>698.9</ele>
        <time>2026-07-07T08:33:05.000Z</time>
      </trkpt>
      <trkpt lat="45.80904" lon="1.89697">
        <ele>698.8</ele>
        <time>2026-07-07T08:33:06.000Z</time>
      </trkpt>
      <trkpt lat="45.80904" lon="1.89697">
        <ele>698.9</ele>
        <time>2026-07-07T08:33:07.000Z</time>
      </trkpt>
      <trkpt lat="45.80904" lon="1.89697">
        <ele>699</ele>
        <time>2026-07-07T08:33:08.000Z</time>
      </trkpt>
      <trkpt lat="45.80904" lon="1.89696">
        <ele>698.8</ele>
        <time>2026-07-07T08:33:09.000Z</time>
      </trkpt>
      <trkpt lat="45.80904" lon="1.89696">
        <ele>698.9</ele>
        <time>2026-07-07T08:33:10.000Z</time>
      </trkpt>
      <trkpt lat="45.80905" lon="1.89695">
        <ele>698.7</ele>
        <time>2026-07-07T08:33:11.000Z</time>
      </trkpt>
      <trkpt lat="45.80906" lon="1.89695">
        <ele>699</ele>
        <time>2026-07-07T08:33:12.000Z</time>
      </trkpt>
      <trkpt lat="45.80906" lon="1.89694">
        <ele>698.7</ele>
        <time>2026-07-07T08:33:13.000Z</time>
      </trkpt>
      <trkpt lat="45.80906" lon="1.89694">
        <ele>698.9</ele>
        <time>2026-07-07T08:33:14.000Z</time>
      </trkpt>
      <trkpt lat="45.80906" lon="1.89693">
        <ele>698.7</ele>
        <time>2026-07-07T08:33:15.000Z</time>
      </trkpt>
      <trkpt lat="45.80906" lon="1.89692">
        <ele>698.6</ele>
        <time>2026-07-07T08:33:16.000Z</time>
      </trkpt>
      <trkpt lat="45.80907" lon="1.8969">
        <ele>698.5</ele>
        <time>2026-07-07T08:33:17.000Z</time>
      </trkpt>
      <trkpt lat="45.80907" lon="1.89687">
        <ele>697.8</ele>
        <time>2026-07-07T08:33:18.000Z</time>
      </trkpt>
      <trkpt lat="45.80907" lon="1.89685">
        <ele>697.5</ele>
        <time>2026-07-07T08:33:19.000Z</time>
      </trkpt>
      <trkpt lat="45.80907" lon="1.89683">
        <ele>697.2</ele>
        <time>2026-07-07T08:33:20.000Z</time>
      </trkpt>
      <trkpt lat="45.80907" lon="1.89683">
        <ele>696.7</ele>
        <time>2026-07-07T08:33:21.000Z</time>
      </trkpt>
      <trkpt lat="45.80907" lon="1.89685">
        <ele>696.6</ele>
        <time>2026-07-07T08:33:22.000Z</time>
      </trkpt>
      <trkpt lat="45.80908" lon="1.89688">
        <ele>696.8</ele>
        <time>2026-07-07T08:33:23.000Z</time>
      </trkpt>
      <trkpt lat="45.80909" lon="1.8969">
        <ele>697.2</ele>
        <time>2026-07-07T08:33:24.000Z</time>
      </trkpt>
      <trkpt lat="45.80911" lon="1.89691">
        <ele>696.6</ele>
        <time>2026-07-07T08:33:25.000Z</time>
      </trkpt>
      <trkpt lat="45.80912" lon="1.89691">
        <ele>696.4</ele>
        <time>2026-07-07T08:33:26.000Z</time>
      </trkpt>
      <trkpt lat="45.80914" lon="1.89691">
        <ele>696.6</ele>
        <time>2026-07-07T08:33:27.000Z</time>
      </trkpt>
      <trkpt lat="45.80915" lon="1.89691">
        <ele>696.6</ele>
        <time>2026-07-07T08:33:28.000Z</time>
      </trkpt>
      <trkpt lat="45.80916" lon="1.8969">
        <ele>696.8</ele>
        <time>2026-07-07T08:33:29.000Z</time>
      </trkpt>
      <trkpt lat="45.80917" lon="1.8969">
        <ele>697.3</ele>
        <time>2026-07-07T08:33:30.000Z</time>
      </trkpt>
      <trkpt lat="45.80918" lon="1.89691">
        <ele>697.8</ele>
        <time>2026-07-07T08:33:31.000Z</time>
      </trkpt>
      <trkpt lat="45.80919" lon="1.89692">
        <ele>697.5</ele>
        <time>2026-07-07T08:33:32.000Z</time>
      </trkpt>
      <trkpt lat="45.8092" lon="1.89694">
        <ele>698.1</ele>
        <time>2026-07-07T08:33:33.000Z</time>
      </trkpt>
      <trkpt lat="45.8092" lon="1.89696">
        <ele>697.7</ele>
        <time>2026-07-07T08:33:34.000Z</time>
      </trkpt>
      <trkpt lat="45.8092" lon="1.89698">
        <ele>697.3</ele>
        <time>2026-07-07T08:33:35.000Z</time>
      </trkpt>
      <trkpt lat="45.8092" lon="1.897">
        <ele>697.3</ele>
        <time>2026-07-07T08:33:36.000Z</time>
      </trkpt>
      <trkpt lat="45.8092" lon="1.89702">
        <ele>697.6</ele>
        <time>2026-07-07T08:33:37.000Z</time>
      </trkpt>
      <trkpt lat="45.8092" lon="1.89704">
        <ele>697.6</ele>
        <time>2026-07-07T08:33:38.000Z</time>
      </trkpt>
      <trkpt lat="45.80919" lon="1.89706">
        <ele>697.8</ele>
        <time>2026-07-07T08:33:39.000Z</time>
      </trkpt>
      <trkpt lat="45.80918" lon="1.89709">
        <ele>697.2</ele>
        <time>2026-07-07T08:33:40.000Z</time>
      </trkpt>
      <trkpt lat="45.80919" lon="1.89713">
        <ele>696.2</ele>
        <time>2026-07-07T08:33:41.000Z</time>
      </trkpt>
      <trkpt lat="45.80919" lon="1.89716">
        <ele>696.5</ele>
        <time>2026-07-07T08:33:42.000Z</time>
      </trkpt>
      <trkpt lat="45.8092" lon="1.89718">
        <ele>696.1</ele>
        <time>2026-07-07T08:33:43.000Z</time>
      </trkpt>
      <trkpt lat="45.8092" lon="1.89719">
        <ele>696.5</ele>
        <time>2026-07-07T08:33:44.000Z</time>
      </trkpt>
      <trkpt lat="45.80921" lon="1.89721">
        <ele>696.9</ele>
        <time>2026-07-07T08:33:45.000Z</time>
      </trkpt>
      <trkpt lat="45.80921" lon="1.89724">
        <ele>698</ele>
        <time>2026-07-07T08:33:46.000Z</time>
      </trkpt>
      <trkpt lat="45.80921" lon="1.89726">
        <ele>698.3</ele>
        <time>2026-07-07T08:33:47.000Z</time>
      </trkpt>
      <trkpt lat="45.80922" lon="1.89728">
        <ele>698.4</ele>
        <time>2026-07-07T08:33:48.000Z</time>
      </trkpt>
      <trkpt lat="45.80922" lon="1.89731">
        <ele>699.2</ele>
        <time>2026-07-07T08:33:49.000Z</time>
      </trkpt>
      <trkpt lat="45.80923" lon="1.89733">
        <ele>699</ele>
        <time>2026-07-07T08:33:50.000Z</time>
      </trkpt>
      <trkpt lat="45.80924" lon="1.89735">
        <ele>699.1</ele>
        <time>2026-07-07T08:33:51.000Z</time>
      </trkpt>
      <trkpt lat="45.80924" lon="1.89737">
        <ele>699.1</ele>
        <time>2026-07-07T08:33:52.000Z</time>
      </trkpt>
      <trkpt lat="45.80925" lon="1.89739">
        <ele>699.4</ele>
        <time>2026-07-07T08:33:53.000Z</time>
      </trkpt>
      <trkpt lat="45.80925" lon="1.8974">
        <ele>699.4</ele>
        <time>2026-07-07T08:33:54.000Z</time>
      </trkpt>
      <trkpt lat="45.80926" lon="1.8974">
        <ele>699.1</ele>
        <time>2026-07-07T08:33:55.000Z</time>
      </trkpt>
      <trkpt lat="45.80927" lon="1.89742">
        <ele>699.4</ele>
        <time>2026-07-07T08:33:56.000Z</time>
      </trkpt>
      <trkpt lat="45.80927" lon="1.89744">
        <ele>699.7</ele>
        <time>2026-07-07T08:33:57.000Z</time>
      </trkpt>
      <trkpt lat="45.80928" lon="1.89746">
        <ele>699.7</ele>
        <time>2026-07-07T08:33:58.000Z</time>
      </trkpt>
      <trkpt lat="45.80929" lon="1.89748">
        <ele>699.9</ele>
        <time>2026-07-07T08:33:59.000Z</time>
      </trkpt>
      <trkpt lat="45.8093" lon="1.8975">
        <ele>699.9</ele>
        <time>2026-07-07T08:34:00.000Z</time>
      </trkpt>
      <trkpt lat="45.80931" lon="1.89751">
        <ele>700.8</ele>
        <time>2026-07-07T08:34:01.000Z</time>
      </trkpt>
      <trkpt lat="45.80931" lon="1.89754">
        <ele>701.3</ele>
        <time>2026-07-07T08:34:02.000Z</time>
      </trkpt>
      <trkpt lat="45.80931" lon="1.89756">
        <ele>701.3</ele>
        <time>2026-07-07T08:34:03.000Z</time>
      </trkpt>
      <trkpt lat="45.80932" lon="1.89758">
        <ele>702.1</ele>
        <time>2026-07-07T08:34:04.000Z</time>
      </trkpt>
      <trkpt lat="45.80932" lon="1.8976">
        <ele>703</ele>
        <time>2026-07-07T08:34:05.000Z</time>
      </trkpt>
      <trkpt lat="45.80932" lon="1.89762">
        <ele>703.6</ele>
        <time>2026-07-07T08:34:06.000Z</time>
      </trkpt>
      <trkpt lat="45.80933" lon="1.89763">
        <ele>703.3</ele>
        <time>2026-07-07T08:34:07.000Z</time>
      </trkpt>
      <trkpt lat="45.80934" lon="1.89764">
        <ele>701.6</ele>
        <time>2026-07-07T08:34:08.000Z</time>
      </trkpt>
      <trkpt lat="45.80936" lon="1.89765">
        <ele>700.3</ele>
        <time>2026-07-07T08:34:09.000Z</time>
      </trkpt>
      <trkpt lat="45.80936" lon="1.89767">
        <ele>702.1</ele>
        <time>2026-07-07T08:34:10.000Z</time>
      </trkpt>
      <trkpt lat="45.80936" lon="1.8977">
        <ele>702.3</ele>
        <time>2026-07-07T08:34:11.000Z</time>
      </trkpt>
      <trkpt lat="45.80935" lon="1.89772">
        <ele>702.6</ele>
        <time>2026-07-07T08:34:12.000Z</time>
      </trkpt>
      <trkpt lat="45.80936" lon="1.89774">
        <ele>702.6</ele>
        <time>2026-07-07T08:34:13.000Z</time>
      </trkpt>
      <trkpt lat="45.80936" lon="1.89776">
        <ele>702</ele>
        <time>2026-07-07T08:34:14.000Z</time>
      </trkpt>
      <trkpt lat="45.80936" lon="1.89778">
        <ele>701.7</ele>
        <time>2026-07-07T08:34:15.000Z</time>
      </trkpt>
      <trkpt lat="45.80937" lon="1.8978">
        <ele>702.3</ele>
        <time>2026-07-07T08:34:16.000Z</time>
      </trkpt>
      <trkpt lat="45.80937" lon="1.89782">
        <ele>703.5</ele>
        <time>2026-07-07T08:34:17.000Z</time>
      </trkpt>
      <trkpt lat="45.80938" lon="1.89784">
        <ele>703.2</ele>
        <time>2026-07-07T08:34:18.000Z</time>
      </trkpt>
      <trkpt lat="45.80938" lon="1.89787">
        <ele>702.4</ele>
        <time>2026-07-07T08:34:19.000Z</time>
      </trkpt>
      <trkpt lat="45.80939" lon="1.89789">
        <ele>702.7</ele>
        <time>2026-07-07T08:34:20.000Z</time>
      </trkpt>
      <trkpt lat="45.80939" lon="1.89792">
        <ele>703.6</ele>
        <time>2026-07-07T08:34:21.000Z</time>
      </trkpt>
      <trkpt lat="45.8094" lon="1.89794">
        <ele>703.4</ele>
        <time>2026-07-07T08:34:22.000Z</time>
      </trkpt>
      <trkpt lat="45.8094" lon="1.89797">
        <ele>703.9</ele>
        <time>2026-07-07T08:34:23.000Z</time>
      </trkpt>
      <trkpt lat="45.8094" lon="1.898">
        <ele>704.3</ele>
        <time>2026-07-07T08:34:24.000Z</time>
      </trkpt>
      <trkpt lat="45.80941" lon="1.89802">
        <ele>704.7</ele>
        <time>2026-07-07T08:34:25.000Z</time>
      </trkpt>
      <trkpt lat="45.80942" lon="1.89805">
        <ele>704.1</ele>
        <time>2026-07-07T08:34:26.000Z</time>
      </trkpt>
      <trkpt lat="45.80943" lon="1.89808">
        <ele>704.1</ele>
        <time>2026-07-07T08:34:27.000Z</time>
      </trkpt>
      <trkpt lat="45.80944" lon="1.8981">
        <ele>704.1</ele>
        <time>2026-07-07T08:34:28.000Z</time>
      </trkpt>
      <trkpt lat="45.80945" lon="1.89813">
        <ele>703.7</ele>
        <time>2026-07-07T08:34:29.000Z</time>
      </trkpt>
      <trkpt lat="45.80946" lon="1.89815">
        <ele>703.6</ele>
        <time>2026-07-07T08:34:30.000Z</time>
      </trkpt>
      <trkpt lat="45.80947" lon="1.89818">
        <ele>703.5</ele>
        <time>2026-07-07T08:34:31.000Z</time>
      </trkpt>
      <trkpt lat="45.80947" lon="1.8982">
        <ele>703.3</ele>
        <time>2026-07-07T08:34:32.000Z</time>
      </trkpt>
      <trkpt lat="45.80948" lon="1.89822">
        <ele>703.3</ele>
        <time>2026-07-07T08:34:33.000Z</time>
      </trkpt>
      <trkpt lat="45.80948" lon="1.89825">
        <ele>703</ele>
        <time>2026-07-07T08:34:34.000Z</time>
      </trkpt>
      <trkpt lat="45.80949" lon="1.89827">
        <ele>703.1</ele>
        <time>2026-07-07T08:34:35.000Z</time>
      </trkpt>
      <trkpt lat="45.8095" lon="1.8983">
        <ele>703.5</ele>
        <time>2026-07-07T08:34:36.000Z</time>
      </trkpt>
      <trkpt lat="45.80951" lon="1.89832">
        <ele>703.4</ele>
        <time>2026-07-07T08:34:37.000Z</time>
      </trkpt>
      <trkpt lat="45.80951" lon="1.89834">
        <ele>704</ele>
        <time>2026-07-07T08:34:38.000Z</time>
      </trkpt>
      <trkpt lat="45.80952" lon="1.89836">
        <ele>703.8</ele>
        <time>2026-07-07T08:34:39.000Z</time>
      </trkpt>
      <trkpt lat="45.80952" lon="1.89839">
        <ele>703.8</ele>
        <time>2026-07-07T08:34:40.000Z</time>
      </trkpt>
      <trkpt lat="45.80952" lon="1.89841">
        <ele>703.6</ele>
        <time>2026-07-07T08:34:41.000Z</time>
      </trkpt>
      <trkpt lat="45.80953" lon="1.89843">
        <ele>703.6</ele>
        <time>2026-07-07T08:34:42.000Z</time>
      </trkpt>
      <trkpt lat="45.80953" lon="1.89845">
        <ele>703.9</ele>
        <time>2026-07-07T08:34:43.000Z</time>
      </trkpt>
      <trkpt lat="45.80954" lon="1.89847">
        <ele>704.2</ele>
        <time>2026-07-07T08:34:44.000Z</time>
      </trkpt>
      <trkpt lat="45.80954" lon="1.89849">
        <ele>704.6</ele>
        <time>2026-07-07T08:34:45.000Z</time>
      </trkpt>
      <trkpt lat="45.80955" lon="1.89851">
        <ele>703.8</ele>
        <time>2026-07-07T08:34:46.000Z</time>
      </trkpt>
      <trkpt lat="45.80955" lon="1.89853">
        <ele>703.9</ele>
        <time>2026-07-07T08:34:47.000Z</time>
      </trkpt>
      <trkpt lat="45.80956" lon="1.89854">
        <ele>704.1</ele>
        <time>2026-07-07T08:34:48.000Z</time>
      </trkpt>
      <trkpt lat="45.80956" lon="1.89856">
        <ele>704.3</ele>
        <time>2026-07-07T08:34:49.000Z</time>
      </trkpt>
      <trkpt lat="45.80957" lon="1.89858">
        <ele>704.6</ele>
        <time>2026-07-07T08:34:50.000Z</time>
      </trkpt>
      <trkpt lat="45.80957" lon="1.8986">
        <ele>704.6</ele>
        <time>2026-07-07T08:34:51.000Z</time>
      </trkpt>
      <trkpt lat="45.80958" lon="1.89862">
        <ele>704.5</ele>
        <time>2026-07-07T08:34:52.000Z</time>
      </trkpt>
      <trkpt lat="45.80958" lon="1.89864">
        <ele>704.3</ele>
        <time>2026-07-07T08:34:53.000Z</time>
      </trkpt>
      <trkpt lat="45.80959" lon="1.89866">
        <ele>704.2</ele>
        <time>2026-07-07T08:34:54.000Z</time>
      </trkpt>
      <trkpt lat="45.8096" lon="1.89868">
        <ele>704.2</ele>
        <time>2026-07-07T08:34:55.000Z</time>
      </trkpt>
      <trkpt lat="45.80961" lon="1.89869">
        <ele>704.3</ele>
        <time>2026-07-07T08:34:56.000Z</time>
      </trkpt>
      <trkpt lat="45.80962" lon="1.89871">
        <ele>704.4</ele>
        <time>2026-07-07T08:34:57.000Z</time>
      </trkpt>
      <trkpt lat="45.80963" lon="1.89873">
        <ele>704.3</ele>
        <time>2026-07-07T08:34:58.000Z</time>
      </trkpt>
      <trkpt lat="45.80964" lon="1.89875">
        <ele>704</ele>
        <time>2026-07-07T08:34:59.000Z</time>
      </trkpt>
      <trkpt lat="45.80966" lon="1.89876">
        <ele>704</ele>
        <time>2026-07-07T08:35:00.000Z</time>
      </trkpt>
      <trkpt lat="45.80967" lon="1.89878">
        <ele>703.8</ele>
        <time>2026-07-07T08:35:01.000Z</time>
      </trkpt>
      <trkpt lat="45.80968" lon="1.89879">
        <ele>704.4</ele>
        <time>2026-07-07T08:35:02.000Z</time>
      </trkpt>
      <trkpt lat="45.80968" lon="1.89881">
        <ele>704.1</ele>
        <time>2026-07-07T08:35:03.000Z</time>
      </trkpt>
      <trkpt lat="45.80968" lon="1.89881">
        <ele>703.5</ele>
        <time>2026-07-07T08:35:04.000Z</time>
      </trkpt>
      <trkpt lat="45.80969" lon="1.89883">
        <ele>703.8</ele>
        <time>2026-07-07T08:35:05.000Z</time>
      </trkpt>
      <trkpt lat="45.80969" lon="1.89884">
        <ele>703.5</ele>
        <time>2026-07-07T08:35:06.000Z</time>
      </trkpt>
      <trkpt lat="45.8097" lon="1.89885">
        <ele>703.4</ele>
        <time>2026-07-07T08:35:07.000Z</time>
      </trkpt>
      <trkpt lat="45.80971" lon="1.89886">
        <ele>703.6</ele>
        <time>2026-07-07T08:35:08.000Z</time>
      </trkpt>
      <trkpt lat="45.80972" lon="1.89887">
        <ele>703.4</ele>
        <time>2026-07-07T08:35:09.000Z</time>
      </trkpt>
      <trkpt lat="45.80973" lon="1.89888">
        <ele>703.8</ele>
        <time>2026-07-07T08:35:10.000Z</time>
      </trkpt>
      <trkpt lat="45.80973" lon="1.89889">
        <ele>703.9</ele>
        <time>2026-07-07T08:35:11.000Z</time>
      </trkpt>
      <trkpt lat="45.80975" lon="1.8989">
        <ele>703.9</ele>
        <time>2026-07-07T08:35:12.000Z</time>
      </trkpt>
      <trkpt lat="45.80976" lon="1.8989">
        <ele>703.8</ele>
        <time>2026-07-07T08:35:13.000Z</time>
      </trkpt>
      <trkpt lat="45.80977" lon="1.8989">
        <ele>703.9</ele>
        <time>2026-07-07T08:35:14.000Z</time>
      </trkpt>
      <trkpt lat="45.80979" lon="1.8989">
        <ele>704.2</ele>
        <time>2026-07-07T08:35:15.000Z</time>
      </trkpt>
      <trkpt lat="45.8098" lon="1.89891">
        <ele>704.1</ele>
        <time>2026-07-07T08:35:16.000Z</time>
      </trkpt>
      <trkpt lat="45.80981" lon="1.89891">
        <ele>703.9</ele>
        <time>2026-07-07T08:35:17.000Z</time>
      </trkpt>
      <trkpt lat="45.80983" lon="1.89891">
        <ele>703.5</ele>
        <time>2026-07-07T08:35:18.000Z</time>
      </trkpt>
      <trkpt lat="45.80984" lon="1.8989">
        <ele>703.4</ele>
        <time>2026-07-07T08:35:19.000Z</time>
      </trkpt>
      <trkpt lat="45.80986" lon="1.89889">
        <ele>703.4</ele>
        <time>2026-07-07T08:35:20.000Z</time>
      </trkpt>
      <trkpt lat="45.80987" lon="1.89889">
        <ele>703.3</ele>
        <time>2026-07-07T08:35:21.000Z</time>
      </trkpt>
      <trkpt lat="45.80989" lon="1.89888">
        <ele>703.4</ele>
        <time>2026-07-07T08:35:22.000Z</time>
      </trkpt>
      <trkpt lat="45.80991" lon="1.89888">
        <ele>703.2</ele>
        <time>2026-07-07T08:35:23.000Z</time>
      </trkpt>
      <trkpt lat="45.80992" lon="1.89887">
        <ele>703.1</ele>
        <time>2026-07-07T08:35:24.000Z</time>
      </trkpt>
      <trkpt lat="45.80994" lon="1.89887">
        <ele>703.2</ele>
        <time>2026-07-07T08:35:25.000Z</time>
      </trkpt>
      <trkpt lat="45.80995" lon="1.89886">
        <ele>703.2</ele>
        <time>2026-07-07T08:35:26.000Z</time>
      </trkpt>
      <trkpt lat="45.80996" lon="1.89885">
        <ele>703.1</ele>
        <time>2026-07-07T08:35:27.000Z</time>
      </trkpt>
      <trkpt lat="45.80998" lon="1.89885">
        <ele>703.3</ele>
        <time>2026-07-07T08:35:28.000Z</time>
      </trkpt>
      <trkpt lat="45.81" lon="1.89884">
        <ele>703.1</ele>
        <time>2026-07-07T08:35:29.000Z</time>
      </trkpt>
      <trkpt lat="45.81001" lon="1.89884">
        <ele>703.1</ele>
        <time>2026-07-07T08:35:30.000Z</time>
      </trkpt>
      <trkpt lat="45.81003" lon="1.89883">
        <ele>703.5</ele>
        <time>2026-07-07T08:35:31.000Z</time>
      </trkpt>
      <trkpt lat="45.81005" lon="1.89882">
        <ele>703.4</ele>
        <time>2026-07-07T08:35:32.000Z</time>
      </trkpt>
      <trkpt lat="45.81006" lon="1.89882">
        <ele>703.3</ele>
        <time>2026-07-07T08:35:33.000Z</time>
      </trkpt>
      <trkpt lat="45.81008" lon="1.89881">
        <ele>703.2</ele>
        <time>2026-07-07T08:35:34.000Z</time>
      </trkpt>
      <trkpt lat="45.8101" lon="1.8988">
        <ele>702.7</ele>
        <time>2026-07-07T08:35:35.000Z</time>
      </trkpt>
      <trkpt lat="45.81012" lon="1.89879">
        <ele>702.5</ele>
        <time>2026-07-07T08:35:36.000Z</time>
      </trkpt>
      <trkpt lat="45.81014" lon="1.89878">
        <ele>702.2</ele>
        <time>2026-07-07T08:35:37.000Z</time>
      </trkpt>
      <trkpt lat="45.81016" lon="1.89877">
        <ele>702.2</ele>
        <time>2026-07-07T08:35:38.000Z</time>
      </trkpt>
      <trkpt lat="45.81017" lon="1.89876">
        <ele>701.9</ele>
        <time>2026-07-07T08:35:39.000Z</time>
      </trkpt>
      <trkpt lat="45.81019" lon="1.89876">
        <ele>702.1</ele>
        <time>2026-07-07T08:35:40.000Z</time>
      </trkpt>
      <trkpt lat="45.81021" lon="1.89875">
        <ele>702</ele>
        <time>2026-07-07T08:35:41.000Z</time>
      </trkpt>
      <trkpt lat="45.81022" lon="1.89875">
        <ele>702.2</ele>
        <time>2026-07-07T08:35:42.000Z</time>
      </trkpt>
      <trkpt lat="45.81024" lon="1.89874">
        <ele>701.7</ele>
        <time>2026-07-07T08:35:43.000Z</time>
      </trkpt>
      <trkpt lat="45.81025" lon="1.89873">
        <ele>701.3</ele>
        <time>2026-07-07T08:35:44.000Z</time>
      </trkpt>
      <trkpt lat="45.81026" lon="1.89873">
        <ele>701.6</ele>
        <time>2026-07-07T08:35:45.000Z</time>
      </trkpt>
      <trkpt lat="45.81028" lon="1.89873">
        <ele>701.9</ele>
        <time>2026-07-07T08:35:46.000Z</time>
      </trkpt>
      <trkpt lat="45.81029" lon="1.89873">
        <ele>701.5</ele>
        <time>2026-07-07T08:35:47.000Z</time>
      </trkpt>
      <trkpt lat="45.8103" lon="1.89872">
        <ele>701.2</ele>
        <time>2026-07-07T08:35:48.000Z</time>
      </trkpt>
      <trkpt lat="45.81032" lon="1.89871">
        <ele>701</ele>
        <time>2026-07-07T08:35:49.000Z</time>
      </trkpt>
      <trkpt lat="45.81033" lon="1.89871">
        <ele>701.5</ele>
        <time>2026-07-07T08:35:50.000Z</time>
      </trkpt>
      <trkpt lat="45.81035" lon="1.89871">
        <ele>702.7</ele>
        <time>2026-07-07T08:35:51.000Z</time>
      </trkpt>
      <trkpt lat="45.81036" lon="1.89871">
        <ele>702.8</ele>
        <time>2026-07-07T08:35:52.000Z</time>
      </trkpt>
      <trkpt lat="45.81038" lon="1.89871">
        <ele>702.5</ele>
        <time>2026-07-07T08:35:53.000Z</time>
      </trkpt>
      <trkpt lat="45.81039" lon="1.89871">
        <ele>702.5</ele>
        <time>2026-07-07T08:35:54.000Z</time>
      </trkpt>
      <trkpt lat="45.81041" lon="1.89871">
        <ele>702.9</ele>
        <time>2026-07-07T08:35:55.000Z</time>
      </trkpt>
      <trkpt lat="45.81042" lon="1.89871">
        <ele>703.7</ele>
        <time>2026-07-07T08:35:56.000Z</time>
      </trkpt>
      <trkpt lat="45.81043" lon="1.8987">
        <ele>704.7</ele>
        <time>2026-07-07T08:35:57.000Z</time>
      </trkpt>
      <trkpt lat="45.81044" lon="1.89868">
        <ele>704.7</ele>
        <time>2026-07-07T08:35:58.000Z</time>
      </trkpt>
      <trkpt lat="45.81045" lon="1.89868">
        <ele>704.2</ele>
        <time>2026-07-07T08:35:59.000Z</time>
      </trkpt>
      <trkpt lat="45.81046" lon="1.89867">
        <ele>704.1</ele>
        <time>2026-07-07T08:36:00.000Z</time>
      </trkpt>
      <trkpt lat="45.81048" lon="1.89866">
        <ele>703.6</ele>
        <time>2026-07-07T08:36:01.000Z</time>
      </trkpt>
      <trkpt lat="45.81049" lon="1.89866">
        <ele>703.7</ele>
        <time>2026-07-07T08:36:02.000Z</time>
      </trkpt>
      <trkpt lat="45.8105" lon="1.89865">
        <ele>703.5</ele>
        <time>2026-07-07T08:36:03.000Z</time>
      </trkpt>
      <trkpt lat="45.81052" lon="1.89865">
        <ele>703.6</ele>
        <time>2026-07-07T08:36:04.000Z</time>
      </trkpt>
      <trkpt lat="45.81053" lon="1.89864">
        <ele>703.2</ele>
        <time>2026-07-07T08:36:05.000Z</time>
      </trkpt>
      <trkpt lat="45.81055" lon="1.89864">
        <ele>702.9</ele>
        <time>2026-07-07T08:36:06.000Z</time>
      </trkpt>
      <trkpt lat="45.81056" lon="1.89863">
        <ele>703.1</ele>
        <time>2026-07-07T08:36:07.000Z</time>
      </trkpt>
      <trkpt lat="45.81057" lon="1.89863">
        <ele>702.2</ele>
        <time>2026-07-07T08:36:08.000Z</time>
      </trkpt>
      <trkpt lat="45.81059" lon="1.89863">
        <ele>702.3</ele>
        <time>2026-07-07T08:36:09.000Z</time>
      </trkpt>
      <trkpt lat="45.8106" lon="1.89863">
        <ele>702.7</ele>
        <time>2026-07-07T08:36:10.000Z</time>
      </trkpt>
      <trkpt lat="45.81061" lon="1.89862">
        <ele>703.4</ele>
        <time>2026-07-07T08:36:11.000Z</time>
      </trkpt>
      <trkpt lat="45.81062" lon="1.89861">
        <ele>703.3</ele>
        <time>2026-07-07T08:36:12.000Z</time>
      </trkpt>
      <trkpt lat="45.81064" lon="1.8986">
        <ele>703.4</ele>
        <time>2026-07-07T08:36:13.000Z</time>
      </trkpt>
      <trkpt lat="45.81065" lon="1.89859">
        <ele>703.5</ele>
        <time>2026-07-07T08:36:14.000Z</time>
      </trkpt>
      <trkpt lat="45.81067" lon="1.89859">
        <ele>703.2</ele>
        <time>2026-07-07T08:36:15.000Z</time>
      </trkpt>
      <trkpt lat="45.81069" lon="1.89858">
        <ele>703.1</ele>
        <time>2026-07-07T08:36:16.000Z</time>
      </trkpt>
      <trkpt lat="45.81071" lon="1.89858">
        <ele>703</ele>
        <time>2026-07-07T08:36:17.000Z</time>
      </trkpt>
      <trkpt lat="45.81073" lon="1.89858">
        <ele>704.3</ele>
        <time>2026-07-07T08:36:18.000Z</time>
      </trkpt>
      <trkpt lat="45.81075" lon="1.89857">
        <ele>704</ele>
        <time>2026-07-07T08:36:19.000Z</time>
      </trkpt>
      <trkpt lat="45.81077" lon="1.89857">
        <ele>703.5</ele>
        <time>2026-07-07T08:36:20.000Z</time>
      </trkpt>
      <trkpt lat="45.81079" lon="1.89858">
        <ele>703.2</ele>
        <time>2026-07-07T08:36:21.000Z</time>
      </trkpt>
      <trkpt lat="45.81082" lon="1.89858">
        <ele>703.3</ele>
        <time>2026-07-07T08:36:22.000Z</time>
      </trkpt>
      <trkpt lat="45.81084" lon="1.89859">
        <ele>703.5</ele>
        <time>2026-07-07T08:36:23.000Z</time>
      </trkpt>
      <trkpt lat="45.81087" lon="1.8986">
        <ele>703.4</ele>
        <time>2026-07-07T08:36:24.000Z</time>
      </trkpt>
      <trkpt lat="45.81089" lon="1.89862">
        <ele>703</ele>
        <time>2026-07-07T08:36:25.000Z</time>
      </trkpt>
      <trkpt lat="45.81091" lon="1.89864">
        <ele>702</ele>
        <time>2026-07-07T08:36:26.000Z</time>
      </trkpt>
      <trkpt lat="45.81092" lon="1.89868">
        <ele>701.6</ele>
        <time>2026-07-07T08:36:27.000Z</time>
      </trkpt>
      <trkpt lat="45.81093" lon="1.89871">
        <ele>701.3</ele>
        <time>2026-07-07T08:36:28.000Z</time>
      </trkpt>
      <trkpt lat="45.81094" lon="1.89873">
        <ele>700.7</ele>
        <time>2026-07-07T08:36:29.000Z</time>
      </trkpt>
      <trkpt lat="45.81095" lon="1.89876">
        <ele>700.5</ele>
        <time>2026-07-07T08:36:30.000Z</time>
      </trkpt>
      <trkpt lat="45.81096" lon="1.89879">
        <ele>700.5</ele>
        <time>2026-07-07T08:36:31.000Z</time>
      </trkpt>
      <trkpt lat="45.81097" lon="1.89882">
        <ele>700</ele>
        <time>2026-07-07T08:36:32.000Z</time>
      </trkpt>
      <trkpt lat="45.81097" lon="1.89885">
        <ele>700</ele>
        <time>2026-07-07T08:36:33.000Z</time>
      </trkpt>
      <trkpt lat="45.81097" lon="1.89888">
        <ele>700.5</ele>
        <time>2026-07-07T08:36:34.000Z</time>
      </trkpt>
      <trkpt lat="45.81098" lon="1.89892">
        <ele>699</ele>
        <time>2026-07-07T08:36:35.000Z</time>
      </trkpt>
      <trkpt lat="45.81098" lon="1.89896">
        <ele>698.4</ele>
        <time>2026-07-07T08:36:36.000Z</time>
      </trkpt>
      <trkpt lat="45.81098" lon="1.899">
        <ele>697.9</ele>
        <time>2026-07-07T08:36:37.000Z</time>
      </trkpt>
      <trkpt lat="45.81097" lon="1.89905">
        <ele>698.3</ele>
        <time>2026-07-07T08:36:38.000Z</time>
      </trkpt>
      <trkpt lat="45.81097" lon="1.89909">
        <ele>698.5</ele>
        <time>2026-07-07T08:36:39.000Z</time>
      </trkpt>
      <trkpt lat="45.81096" lon="1.89914">
        <ele>698.6</ele>
        <time>2026-07-07T08:36:40.000Z</time>
      </trkpt>
      <trkpt lat="45.81096" lon="1.89918">
        <ele>699.2</ele>
        <time>2026-07-07T08:36:41.000Z</time>
      </trkpt>
      <trkpt lat="45.81095" lon="1.89923">
        <ele>698.8</ele>
        <time>2026-07-07T08:36:42.000Z</time>
      </trkpt>
      <trkpt lat="45.81095" lon="1.89927">
        <ele>698</ele>
        <time>2026-07-07T08:36:43.000Z</time>
      </trkpt>
      <trkpt lat="45.81095" lon="1.89932">
        <ele>697.9</ele>
        <time>2026-07-07T08:36:44.000Z</time>
      </trkpt>
      <trkpt lat="45.81093" lon="1.89935">
        <ele>697.9</ele>
        <time>2026-07-07T08:36:45.000Z</time>
      </trkpt>
      <trkpt lat="45.81092" lon="1.8994">
        <ele>697.3</ele>
        <time>2026-07-07T08:36:46.000Z</time>
      </trkpt>
      <trkpt lat="45.81091" lon="1.89944">
        <ele>697.1</ele>
        <time>2026-07-07T08:36:47.000Z</time>
      </trkpt>
      <trkpt lat="45.8109" lon="1.89948">
        <ele>697.5</ele>
        <time>2026-07-07T08:36:48.000Z</time>
      </trkpt>
      <trkpt lat="45.81088" lon="1.89953">
        <ele>697.6</ele>
        <time>2026-07-07T08:36:49.000Z</time>
      </trkpt>
      <trkpt lat="45.81087" lon="1.89957">
        <ele>697.2</ele>
        <time>2026-07-07T08:36:50.000Z</time>
      </trkpt>
      <trkpt lat="45.81086" lon="1.89961">
        <ele>696.8</ele>
        <time>2026-07-07T08:36:51.000Z</time>
      </trkpt>
      <trkpt lat="45.81085" lon="1.89964">
        <ele>696.2</ele>
        <time>2026-07-07T08:36:52.000Z</time>
      </trkpt>
      <trkpt lat="45.81085" lon="1.89967">
        <ele>696.4</ele>
        <time>2026-07-07T08:36:53.000Z</time>
      </trkpt>
      <trkpt lat="45.81084" lon="1.89971">
        <ele>696.9</ele>
        <time>2026-07-07T08:36:54.000Z</time>
      </trkpt>
      <trkpt lat="45.81084" lon="1.89974">
        <ele>697.5</ele>
        <time>2026-07-07T08:36:55.000Z</time>
      </trkpt>
      <trkpt lat="45.81084" lon="1.89977">
        <ele>698</ele>
        <time>2026-07-07T08:36:56.000Z</time>
      </trkpt>
      <trkpt lat="45.81083" lon="1.8998">
        <ele>698.6</ele>
        <time>2026-07-07T08:36:57.000Z</time>
      </trkpt>
      <trkpt lat="45.81083" lon="1.89983">
        <ele>698.4</ele>
        <time>2026-07-07T08:36:58.000Z</time>
      </trkpt>
      <trkpt lat="45.81083" lon="1.89986">
        <ele>698.7</ele>
        <time>2026-07-07T08:36:59.000Z</time>
      </trkpt>
      <trkpt lat="45.81083" lon="1.89989">
        <ele>699</ele>
        <time>2026-07-07T08:37:00.000Z</time>
      </trkpt>
      <trkpt lat="45.81084" lon="1.89992">
        <ele>699</ele>
        <time>2026-07-07T08:37:01.000Z</time>
      </trkpt>
      <trkpt lat="45.81084" lon="1.89994">
        <ele>699.2</ele>
        <time>2026-07-07T08:37:02.000Z</time>
      </trkpt>
      <trkpt lat="45.81085" lon="1.89998">
        <ele>699.7</ele>
        <time>2026-07-07T08:37:03.000Z</time>
      </trkpt>
      <trkpt lat="45.81086" lon="1.9">
        <ele>700</ele>
        <time>2026-07-07T08:37:04.000Z</time>
      </trkpt>
      <trkpt lat="45.81086" lon="1.90003">
        <ele>700.3</ele>
        <time>2026-07-07T08:37:05.000Z</time>
      </trkpt>
      <trkpt lat="45.81087" lon="1.90006">
        <ele>700.8</ele>
        <time>2026-07-07T08:37:06.000Z</time>
      </trkpt>
      <trkpt lat="45.81088" lon="1.90009">
        <ele>701.4</ele>
        <time>2026-07-07T08:37:07.000Z</time>
      </trkpt>
      <trkpt lat="45.81089" lon="1.90012">
        <ele>702</ele>
        <time>2026-07-07T08:37:08.000Z</time>
      </trkpt>
      <trkpt lat="45.8109" lon="1.90014">
        <ele>702.3</ele>
        <time>2026-07-07T08:37:09.000Z</time>
      </trkpt>
      <trkpt lat="45.8109" lon="1.90016">
        <ele>702.6</ele>
        <time>2026-07-07T08:37:10.000Z</time>
      </trkpt>
      <trkpt lat="45.81092" lon="1.90018">
        <ele>702.8</ele>
        <time>2026-07-07T08:37:11.000Z</time>
      </trkpt>
      <trkpt lat="45.81093" lon="1.90019">
        <ele>703</ele>
        <time>2026-07-07T08:37:12.000Z</time>
      </trkpt>
      <trkpt lat="45.81093" lon="1.90021">
        <ele>703.2</ele>
        <time>2026-07-07T08:37:13.000Z</time>
      </trkpt>
      <trkpt lat="45.81094" lon="1.90023">
        <ele>703.3</ele>
        <time>2026-07-07T08:37:14.000Z</time>
      </trkpt>
      <trkpt lat="45.81095" lon="1.90024">
        <ele>703.1</ele>
        <time>2026-07-07T08:37:15.000Z</time>
      </trkpt>
      <trkpt lat="45.81096" lon="1.90026">
        <ele>702.8</ele>
        <time>2026-07-07T08:37:16.000Z</time>
      </trkpt>
      <trkpt lat="45.81097" lon="1.90028">
        <ele>702.8</ele>
        <time>2026-07-07T08:37:17.000Z</time>
      </trkpt>
      <trkpt lat="45.81097" lon="1.9003">
        <ele>702.9</ele>
        <time>2026-07-07T08:37:18.000Z</time>
      </trkpt>
      <trkpt lat="45.81097" lon="1.90032">
        <ele>702.5</ele>
        <time>2026-07-07T08:37:19.000Z</time>
      </trkpt>
      <trkpt lat="45.81097" lon="1.90035">
        <ele>702.3</ele>
        <time>2026-07-07T08:37:20.000Z</time>
      </trkpt>
      <trkpt lat="45.81097" lon="1.90037">
        <ele>702.5</ele>
        <time>2026-07-07T08:37:21.000Z</time>
      </trkpt>
      <trkpt lat="45.81097" lon="1.9004">
        <ele>702.2</ele>
        <time>2026-07-07T08:37:22.000Z</time>
      </trkpt>
      <trkpt lat="45.81097" lon="1.90041">
        <ele>702.1</ele>
        <time>2026-07-07T08:37:23.000Z</time>
      </trkpt>
      <trkpt lat="45.81097" lon="1.90043">
        <ele>701.6</ele>
        <time>2026-07-07T08:37:24.000Z</time>
      </trkpt>
      <trkpt lat="45.81097" lon="1.90045">
        <ele>701.8</ele>
        <time>2026-07-07T08:37:25.000Z</time>
      </trkpt>
      <trkpt lat="45.81097" lon="1.90048">
        <ele>701.3</ele>
        <time>2026-07-07T08:37:26.000Z</time>
      </trkpt>
      <trkpt lat="45.81097" lon="1.9005">
        <ele>701</ele>
        <time>2026-07-07T08:37:27.000Z</time>
      </trkpt>
      <trkpt lat="45.81097" lon="1.90052">
        <ele>701</ele>
        <time>2026-07-07T08:37:28.000Z</time>
      </trkpt>
      <trkpt lat="45.81097" lon="1.90055">
        <ele>700.9</ele>
        <time>2026-07-07T08:37:29.000Z</time>
      </trkpt>
      <trkpt lat="45.81097" lon="1.90057">
        <ele>701</ele>
        <time>2026-07-07T08:37:30.000Z</time>
      </trkpt>
      <trkpt lat="45.81097" lon="1.9006">
        <ele>701.3</ele>
        <time>2026-07-07T08:37:31.000Z</time>
      </trkpt>
      <trkpt lat="45.81097" lon="1.90062">
        <ele>701.2</ele>
        <time>2026-07-07T08:37:32.000Z</time>
      </trkpt>
      <trkpt lat="45.81097" lon="1.90065">
        <ele>701.2</ele>
        <time>2026-07-07T08:37:33.000Z</time>
      </trkpt>
      <trkpt lat="45.81098" lon="1.90067">
        <ele>701.2</ele>
        <time>2026-07-07T08:37:34.000Z</time>
      </trkpt>
      <trkpt lat="45.81098" lon="1.90069">
        <ele>701.2</ele>
        <time>2026-07-07T08:37:35.000Z</time>
      </trkpt>
      <trkpt lat="45.81098" lon="1.90072">
        <ele>701</ele>
        <time>2026-07-07T08:37:36.000Z</time>
      </trkpt>
      <trkpt lat="45.81099" lon="1.90074">
        <ele>700.8</ele>
        <time>2026-07-07T08:37:37.000Z</time>
      </trkpt>
      <trkpt lat="45.81099" lon="1.90076">
        <ele>700.6</ele>
        <time>2026-07-07T08:37:38.000Z</time>
      </trkpt>
      <trkpt lat="45.81099" lon="1.90079">
        <ele>699.8</ele>
        <time>2026-07-07T08:37:39.000Z</time>
      </trkpt>
      <trkpt lat="45.811" lon="1.9008">
        <ele>699.4</ele>
        <time>2026-07-07T08:37:40.000Z</time>
      </trkpt>
      <trkpt lat="45.81101" lon="1.90082">
        <ele>699.4</ele>
        <time>2026-07-07T08:37:41.000Z</time>
      </trkpt>
      <trkpt lat="45.81102" lon="1.90084">
        <ele>699.2</ele>
        <time>2026-07-07T08:37:42.000Z</time>
      </trkpt>
      <trkpt lat="45.81102" lon="1.90087">
        <ele>699.7</ele>
        <time>2026-07-07T08:37:43.000Z</time>
      </trkpt>
      <trkpt lat="45.81103" lon="1.9009">
        <ele>699.6</ele>
        <time>2026-07-07T08:37:44.000Z</time>
      </trkpt>
      <trkpt lat="45.81104" lon="1.90093">
        <ele>699.2</ele>
        <time>2026-07-07T08:37:45.000Z</time>
      </trkpt>
      <trkpt lat="45.81105" lon="1.90095">
        <ele>698.8</ele>
        <time>2026-07-07T08:37:46.000Z</time>
      </trkpt>
      <trkpt lat="45.81105" lon="1.90097">
        <ele>698.6</ele>
        <time>2026-07-07T08:37:47.000Z</time>
      </trkpt>
      <trkpt lat="45.81106" lon="1.90099">
        <ele>698.7</ele>
        <time>2026-07-07T08:37:48.000Z</time>
      </trkpt>
      <trkpt lat="45.81107" lon="1.90101">
        <ele>698.8</ele>
        <time>2026-07-07T08:37:49.000Z</time>
      </trkpt>
      <trkpt lat="45.81108" lon="1.90103">
        <ele>698.7</ele>
        <time>2026-07-07T08:37:50.000Z</time>
      </trkpt>
      <trkpt lat="45.8111" lon="1.90104">
        <ele>698.8</ele>
        <time>2026-07-07T08:37:51.000Z</time>
      </trkpt>
      <trkpt lat="45.81111" lon="1.90105">
        <ele>698.9</ele>
        <time>2026-07-07T08:37:52.000Z</time>
      </trkpt>
      <trkpt lat="45.81111" lon="1.90107">
        <ele>698.9</ele>
        <time>2026-07-07T08:37:53.000Z</time>
      </trkpt>
      <trkpt lat="45.81111" lon="1.9011">
        <ele>699</ele>
        <time>2026-07-07T08:37:54.000Z</time>
      </trkpt>
      <trkpt lat="45.81111" lon="1.90112">
        <ele>698.8</ele>
        <time>2026-07-07T08:37:55.000Z</time>
      </trkpt>
      <trkpt lat="45.81111" lon="1.90111">
        <ele>698.6</ele>
        <time>2026-07-07T08:37:56.000Z</time>
      </trkpt>
      <trkpt lat="45.81111" lon="1.90111">
        <ele>698.6</ele>
        <time>2026-07-07T08:37:57.000Z</time>
      </trkpt>
      <trkpt lat="45.8111" lon="1.90113">
        <ele>698.7</ele>
        <time>2026-07-07T08:37:58.000Z</time>
      </trkpt>
      <trkpt lat="45.8111" lon="1.90115">
        <ele>698.6</ele>
        <time>2026-07-07T08:37:59.000Z</time>
      </trkpt>
      <trkpt lat="45.8111" lon="1.90116">
        <ele>700.8</ele>
        <time>2026-07-07T08:38:00.000Z</time>
      </trkpt>
      <trkpt lat="45.8111" lon="1.90116">
        <ele>700.5</ele>
        <time>2026-07-07T08:38:01.000Z</time>
      </trkpt>
      <trkpt lat="45.8111" lon="1.90115">
        <ele>700.6</ele>
        <time>2026-07-07T08:38:02.000Z</time>
      </trkpt>
      <trkpt lat="45.8111" lon="1.90116">
        <ele>700.7</ele>
        <time>2026-07-07T08:38:03.000Z</time>
      </trkpt>
      <trkpt lat="45.81111" lon="1.90117">
        <ele>700.9</ele>
        <time>2026-07-07T08:38:04.000Z</time>
      </trkpt>
      <trkpt lat="45.81111" lon="1.90119">
        <ele>701.1</ele>
        <time>2026-07-07T08:38:05.000Z</time>
      </trkpt>
      <trkpt lat="45.81111" lon="1.90121">
        <ele>701.1</ele>
        <time>2026-07-07T08:38:06.000Z</time>
      </trkpt>
      <trkpt lat="45.81112" lon="1.90123">
        <ele>701.3</ele>
        <time>2026-07-07T08:38:07.000Z</time>
      </trkpt>
      <trkpt lat="45.81113" lon="1.90124">
        <ele>701.7</ele>
        <time>2026-07-07T08:38:08.000Z</time>
      </trkpt>
      <trkpt lat="45.81114" lon="1.90125">
        <ele>701.5</ele>
        <time>2026-07-07T08:38:09.000Z</time>
      </trkpt>
      <trkpt lat="45.81115" lon="1.90125">
        <ele>701.8</ele>
        <time>2026-07-07T08:38:10.000Z</time>
      </trkpt>
      <trkpt lat="45.81116" lon="1.90126">
        <ele>702.1</ele>
        <time>2026-07-07T08:38:11.000Z</time>
      </trkpt>
      <trkpt lat="45.81117" lon="1.90127">
        <ele>701.4</ele>
        <time>2026-07-07T08:38:12.000Z</time>
      </trkpt>
      <trkpt lat="45.81118" lon="1.90129">
        <ele>701.1</ele>
        <time>2026-07-07T08:38:13.000Z</time>
      </trkpt>
      <trkpt lat="45.81119" lon="1.9013">
        <ele>701.1</ele>
        <time>2026-07-07T08:38:14.000Z</time>
      </trkpt>
      <trkpt lat="45.8112" lon="1.90132">
        <ele>701</ele>
        <time>2026-07-07T08:38:15.000Z</time>
      </trkpt>
      <trkpt lat="45.81121" lon="1.90134">
        <ele>701.4</ele>
        <time>2026-07-07T08:38:16.000Z</time>
      </trkpt>
      <trkpt lat="45.81122" lon="1.90136">
        <ele>701</ele>
        <time>2026-07-07T08:38:17.000Z</time>
      </trkpt>
      <trkpt lat="45.81123" lon="1.90137">
        <ele>701.3</ele>
        <time>2026-07-07T08:38:18.000Z</time>
      </trkpt>
      <trkpt lat="45.81124" lon="1.90139">
        <ele>701.1</ele>
        <time>2026-07-07T08:38:19.000Z</time>
      </trkpt>
      <trkpt lat="45.81125" lon="1.9014">
        <ele>701.3</ele>
        <time>2026-07-07T08:38:20.000Z</time>
      </trkpt>
      <trkpt lat="45.81126" lon="1.90142">
        <ele>701.3</ele>
        <time>2026-07-07T08:38:21.000Z</time>
      </trkpt>
      <trkpt lat="45.81127" lon="1.90143">
        <ele>701</ele>
        <time>2026-07-07T08:38:22.000Z</time>
      </trkpt>
      <trkpt lat="45.81128" lon="1.90144">
        <ele>700.6</ele>
        <time>2026-07-07T08:38:23.000Z</time>
      </trkpt>
      <trkpt lat="45.81129" lon="1.90146">
        <ele>701.2</ele>
        <time>2026-07-07T08:38:24.000Z</time>
      </trkpt>
      <trkpt lat="45.81129" lon="1.90148">
        <ele>700.6</ele>
        <time>2026-07-07T08:38:25.000Z</time>
      </trkpt>
      <trkpt lat="45.8113" lon="1.90149">
        <ele>701</ele>
        <time>2026-07-07T08:38:26.000Z</time>
      </trkpt>
      <trkpt lat="45.8113" lon="1.90151">
        <ele>700.7</ele>
        <time>2026-07-07T08:38:27.000Z</time>
      </trkpt>
      <trkpt lat="45.81131" lon="1.90153">
        <ele>700.8</ele>
        <time>2026-07-07T08:38:28.000Z</time>
      </trkpt>
      <trkpt lat="45.81132" lon="1.90155">
        <ele>700.8</ele>
        <time>2026-07-07T08:38:29.000Z</time>
      </trkpt>
      <trkpt lat="45.81133" lon="1.90156">
        <ele>700.7</ele>
        <time>2026-07-07T08:38:30.000Z</time>
      </trkpt>
      <trkpt lat="45.81133" lon="1.90158">
        <ele>700.4</ele>
        <time>2026-07-07T08:38:31.000Z</time>
      </trkpt>
      <trkpt lat="45.81134" lon="1.9016">
        <ele>700.3</ele>
        <time>2026-07-07T08:38:32.000Z</time>
      </trkpt>
      <trkpt lat="45.81135" lon="1.90162">
        <ele>700.1</ele>
        <time>2026-07-07T08:38:33.000Z</time>
      </trkpt>
      <trkpt lat="45.81136" lon="1.90164">
        <ele>700</ele>
        <time>2026-07-07T08:38:34.000Z</time>
      </trkpt>
      <trkpt lat="45.81136" lon="1.90166">
        <ele>699.7</ele>
        <time>2026-07-07T08:38:35.000Z</time>
      </trkpt>
      <trkpt lat="45.81137" lon="1.90168">
        <ele>699.4</ele>
        <time>2026-07-07T08:38:36.000Z</time>
      </trkpt>
      <trkpt lat="45.81137" lon="1.9017">
        <ele>699.3</ele>
        <time>2026-07-07T08:38:37.000Z</time>
      </trkpt>
      <trkpt lat="45.81138" lon="1.90172">
        <ele>699.1</ele>
        <time>2026-07-07T08:38:38.000Z</time>
      </trkpt>
      <trkpt lat="45.81138" lon="1.90174">
        <ele>698.9</ele>
        <time>2026-07-07T08:38:39.000Z</time>
      </trkpt>
      <trkpt lat="45.81139" lon="1.90176">
        <ele>698.6</ele>
        <time>2026-07-07T08:38:40.000Z</time>
      </trkpt>
      <trkpt lat="45.8114" lon="1.90178">
        <ele>698.7</ele>
        <time>2026-07-07T08:38:41.000Z</time>
      </trkpt>
      <trkpt lat="45.81141" lon="1.9018">
        <ele>698.7</ele>
        <time>2026-07-07T08:38:42.000Z</time>
      </trkpt>
      <trkpt lat="45.81141" lon="1.90182">
        <ele>698.9</ele>
        <time>2026-07-07T08:38:43.000Z</time>
      </trkpt>
      <trkpt lat="45.81141" lon="1.90184">
        <ele>699.3</ele>
        <time>2026-07-07T08:38:44.000Z</time>
      </trkpt>
      <trkpt lat="45.8114" lon="1.90186">
        <ele>699.4</ele>
        <time>2026-07-07T08:38:45.000Z</time>
      </trkpt>
      <trkpt lat="45.8114" lon="1.90188">
        <ele>699.5</ele>
        <time>2026-07-07T08:38:46.000Z</time>
      </trkpt>
      <trkpt lat="45.81139" lon="1.90191">
        <ele>699.5</ele>
        <time>2026-07-07T08:38:47.000Z</time>
      </trkpt>
      <trkpt lat="45.81138" lon="1.90193">
        <ele>699.4</ele>
        <time>2026-07-07T08:38:48.000Z</time>
      </trkpt>
      <trkpt lat="45.81137" lon="1.90194">
        <ele>699.4</ele>
        <time>2026-07-07T08:38:49.000Z</time>
      </trkpt>
      <trkpt lat="45.81136" lon="1.90196">
        <ele>699.4</ele>
        <time>2026-07-07T08:38:50.000Z</time>
      </trkpt>
      <trkpt lat="45.81134" lon="1.90199">
        <ele>699.6</ele>
        <time>2026-07-07T08:38:51.000Z</time>
      </trkpt>
      <trkpt lat="45.81133" lon="1.90201">
        <ele>699.6</ele>
        <time>2026-07-07T08:38:52.000Z</time>
      </trkpt>
      <trkpt lat="45.81133" lon="1.90203">
        <ele>699.5</ele>
        <time>2026-07-07T08:38:53.000Z</time>
      </trkpt>
      <trkpt lat="45.81132" lon="1.90205">
        <ele>699.3</ele>
        <time>2026-07-07T08:38:54.000Z</time>
      </trkpt>
      <trkpt lat="45.81131" lon="1.90207">
        <ele>699.4</ele>
        <time>2026-07-07T08:38:55.000Z</time>
      </trkpt>
      <trkpt lat="45.8113" lon="1.90209">
        <ele>699.4</ele>
        <time>2026-07-07T08:38:56.000Z</time>
      </trkpt>
      <trkpt lat="45.8113" lon="1.90211">
        <ele>699.3</ele>
        <time>2026-07-07T08:38:57.000Z</time>
      </trkpt>
      <trkpt lat="45.81129" lon="1.90213">
        <ele>699.5</ele>
        <time>2026-07-07T08:38:58.000Z</time>
      </trkpt>
      <trkpt lat="45.81129" lon="1.90215">
        <ele>699.5</ele>
        <time>2026-07-07T08:38:59.000Z</time>
      </trkpt>
      <trkpt lat="45.81128" lon="1.90217">
        <ele>699.6</ele>
        <time>2026-07-07T08:39:00.000Z</time>
      </trkpt>
      <trkpt lat="45.81128" lon="1.90219">
        <ele>699.4</ele>
        <time>2026-07-07T08:39:01.000Z</time>
      </trkpt>
      <trkpt lat="45.81128" lon="1.90221">
        <ele>699.7</ele>
        <time>2026-07-07T08:39:02.000Z</time>
      </trkpt>
      <trkpt lat="45.81127" lon="1.90223">
        <ele>699.6</ele>
        <time>2026-07-07T08:39:03.000Z</time>
      </trkpt>
      <trkpt lat="45.81127" lon="1.90225">
        <ele>699.4</ele>
        <time>2026-07-07T08:39:04.000Z</time>
      </trkpt>
      <trkpt lat="45.81127" lon="1.90227">
        <ele>699.6</ele>
        <time>2026-07-07T08:39:05.000Z</time>
      </trkpt>
      <trkpt lat="45.81128" lon="1.90229">
        <ele>698.9</ele>
        <time>2026-07-07T08:39:06.000Z</time>
      </trkpt>
      <trkpt lat="45.81126" lon="1.90231">
        <ele>699.3</ele>
        <time>2026-07-07T08:39:07.000Z</time>
      </trkpt>
      <trkpt lat="45.81126" lon="1.90233">
        <ele>699.3</ele>
        <time>2026-07-07T08:39:08.000Z</time>
      </trkpt>
      <trkpt lat="45.81126" lon="1.90235">
        <ele>699.2</ele>
        <time>2026-07-07T08:39:09.000Z</time>
      </trkpt>
      <trkpt lat="45.81126" lon="1.90238">
        <ele>699.5</ele>
        <time>2026-07-07T08:39:10.000Z</time>
      </trkpt>
      <trkpt lat="45.81126" lon="1.9024">
        <ele>699.7</ele>
        <time>2026-07-07T08:39:11.000Z</time>
      </trkpt>
      <trkpt lat="45.81127" lon="1.90242">
        <ele>700</ele>
        <time>2026-07-07T08:39:12.000Z</time>
      </trkpt>
      <trkpt lat="45.81128" lon="1.90244">
        <ele>699.9</ele>
        <time>2026-07-07T08:39:13.000Z</time>
      </trkpt>
      <trkpt lat="45.81129" lon="1.90246">
        <ele>700.2</ele>
        <time>2026-07-07T08:39:14.000Z</time>
      </trkpt>
      <trkpt lat="45.8113" lon="1.90247">
        <ele>700.3</ele>
        <time>2026-07-07T08:39:15.000Z</time>
      </trkpt>
      <trkpt lat="45.81131" lon="1.90249">
        <ele>700.5</ele>
        <time>2026-07-07T08:39:16.000Z</time>
      </trkpt>
      <trkpt lat="45.81132" lon="1.9025">
        <ele>700.5</ele>
        <time>2026-07-07T08:39:17.000Z</time>
      </trkpt>
      <trkpt lat="45.81134" lon="1.90252">
        <ele>700.7</ele>
        <time>2026-07-07T08:39:18.000Z</time>
      </trkpt>
      <trkpt lat="45.81135" lon="1.90253">
        <ele>701.1</ele>
        <time>2026-07-07T08:39:19.000Z</time>
      </trkpt>
      <trkpt lat="45.81136" lon="1.90254">
        <ele>701.6</ele>
        <time>2026-07-07T08:39:20.000Z</time>
      </trkpt>
      <trkpt lat="45.81137" lon="1.90256">
        <ele>701.7</ele>
        <time>2026-07-07T08:39:21.000Z</time>
      </trkpt>
      <trkpt lat="45.81138" lon="1.90257">
        <ele>701.5</ele>
        <time>2026-07-07T08:39:22.000Z</time>
      </trkpt>
      <trkpt lat="45.8114" lon="1.90258">
        <ele>701.7</ele>
        <time>2026-07-07T08:39:23.000Z</time>
      </trkpt>
      <trkpt lat="45.81141" lon="1.9026">
        <ele>701.8</ele>
        <time>2026-07-07T08:39:24.000Z</time>
      </trkpt>
      <trkpt lat="45.81142" lon="1.90262">
        <ele>701.9</ele>
        <time>2026-07-07T08:39:25.000Z</time>
      </trkpt>
      <trkpt lat="45.81143" lon="1.90263">
        <ele>701.8</ele>
        <time>2026-07-07T08:39:26.000Z</time>
      </trkpt>
      <trkpt lat="45.81144" lon="1.90265">
        <ele>701.6</ele>
        <time>2026-07-07T08:39:27.000Z</time>
      </trkpt>
      <trkpt lat="45.81145" lon="1.90267">
        <ele>701.7</ele>
        <time>2026-07-07T08:39:28.000Z</time>
      </trkpt>
      <trkpt lat="45.81147" lon="1.90268">
        <ele>701.3</ele>
        <time>2026-07-07T08:39:29.000Z</time>
      </trkpt>
      <trkpt lat="45.81148" lon="1.90269">
        <ele>701.1</ele>
        <time>2026-07-07T08:39:30.000Z</time>
      </trkpt>
      <trkpt lat="45.81149" lon="1.90271">
        <ele>701.5</ele>
        <time>2026-07-07T08:39:31.000Z</time>
      </trkpt>
      <trkpt lat="45.81151" lon="1.90273">
        <ele>701.6</ele>
        <time>2026-07-07T08:39:32.000Z</time>
      </trkpt>
      <trkpt lat="45.81152" lon="1.90275">
        <ele>702</ele>
        <time>2026-07-07T08:39:33.000Z</time>
      </trkpt>
      <trkpt lat="45.81153" lon="1.90276">
        <ele>701.6</ele>
        <time>2026-07-07T08:39:34.000Z</time>
      </trkpt>
      <trkpt lat="45.81154" lon="1.90277">
        <ele>701</ele>
        <time>2026-07-07T08:39:35.000Z</time>
      </trkpt>
      <trkpt lat="45.81155" lon="1.90278">
        <ele>701.2</ele>
        <time>2026-07-07T08:39:36.000Z</time>
      </trkpt>
      <trkpt lat="45.81156" lon="1.90279">
        <ele>700.9</ele>
        <time>2026-07-07T08:39:37.000Z</time>
      </trkpt>
      <trkpt lat="45.81157" lon="1.90281">
        <ele>701</ele>
        <time>2026-07-07T08:39:38.000Z</time>
      </trkpt>
      <trkpt lat="45.81159" lon="1.90282">
        <ele>701.4</ele>
        <time>2026-07-07T08:39:39.000Z</time>
      </trkpt>
      <trkpt lat="45.81161" lon="1.90283">
        <ele>701.1</ele>
        <time>2026-07-07T08:39:40.000Z</time>
      </trkpt>
      <trkpt lat="45.81162" lon="1.90283">
        <ele>701.3</ele>
        <time>2026-07-07T08:39:41.000Z</time>
      </trkpt>
      <trkpt lat="45.81164" lon="1.90284">
        <ele>701.8</ele>
        <time>2026-07-07T08:39:42.000Z</time>
      </trkpt>
      <trkpt lat="45.81166" lon="1.90285">
        <ele>702.3</ele>
        <time>2026-07-07T08:39:43.000Z</time>
      </trkpt>
      <trkpt lat="45.81167" lon="1.90286">
        <ele>702.2</ele>
        <time>2026-07-07T08:39:44.000Z</time>
      </trkpt>
      <trkpt lat="45.81169" lon="1.90286">
        <ele>701.9</ele>
        <time>2026-07-07T08:39:45.000Z</time>
      </trkpt>
      <trkpt lat="45.81171" lon="1.90286">
        <ele>702.1</ele>
        <time>2026-07-07T08:39:46.000Z</time>
      </trkpt>
      <trkpt lat="45.81173" lon="1.90286">
        <ele>701.8</ele>
        <time>2026-07-07T08:39:47.000Z</time>
      </trkpt>
      <trkpt lat="45.81174" lon="1.90286">
        <ele>701.6</ele>
        <time>2026-07-07T08:39:48.000Z</time>
      </trkpt>
      <trkpt lat="45.81176" lon="1.90285">
        <ele>701.6</ele>
        <time>2026-07-07T08:39:49.000Z</time>
      </trkpt>
      <trkpt lat="45.81177" lon="1.90285">
        <ele>701.8</ele>
        <time>2026-07-07T08:39:50.000Z</time>
      </trkpt>
      <trkpt lat="45.81179" lon="1.90285">
        <ele>701.8</ele>
        <time>2026-07-07T08:39:51.000Z</time>
      </trkpt>
      <trkpt lat="45.81181" lon="1.90285">
        <ele>702</ele>
        <time>2026-07-07T08:39:52.000Z</time>
      </trkpt>
      <trkpt lat="45.81182" lon="1.90286">
        <ele>702</ele>
        <time>2026-07-07T08:39:53.000Z</time>
      </trkpt>
      <trkpt lat="45.81184" lon="1.90286">
        <ele>702.2</ele>
        <time>2026-07-07T08:39:54.000Z</time>
      </trkpt>
      <trkpt lat="45.81186" lon="1.90287">
        <ele>702.4</ele>
        <time>2026-07-07T08:39:55.000Z</time>
      </trkpt>
      <trkpt lat="45.81188" lon="1.90288">
        <ele>702.9</ele>
        <time>2026-07-07T08:39:56.000Z</time>
      </trkpt>
      <trkpt lat="45.8119" lon="1.90288">
        <ele>703.4</ele>
        <time>2026-07-07T08:39:57.000Z</time>
      </trkpt>
      <trkpt lat="45.81192" lon="1.90289">
        <ele>703.8</ele>
        <time>2026-07-07T08:39:58.000Z</time>
      </trkpt>
      <trkpt lat="45.81194" lon="1.9029">
        <ele>705.1</ele>
        <time>2026-07-07T08:39:59.000Z</time>
      </trkpt>
      <trkpt lat="45.81196" lon="1.90291">
        <ele>705.4</ele>
        <time>2026-07-07T08:40:00.000Z</time>
      </trkpt>
      <trkpt lat="45.81197" lon="1.90292">
        <ele>704.9</ele>
        <time>2026-07-07T08:40:01.000Z</time>
      </trkpt>
      <trkpt lat="45.81199" lon="1.90292">
        <ele>705.1</ele>
        <time>2026-07-07T08:40:02.000Z</time>
      </trkpt>
      <trkpt lat="45.812" lon="1.90292">
        <ele>704.9</ele>
        <time>2026-07-07T08:40:03.000Z</time>
      </trkpt>
      <trkpt lat="45.81202" lon="1.90293">
        <ele>704.7</ele>
        <time>2026-07-07T08:40:04.000Z</time>
      </trkpt>
      <trkpt lat="45.81203" lon="1.90293">
        <ele>704.5</ele>
        <time>2026-07-07T08:40:05.000Z</time>
      </trkpt>
      <trkpt lat="45.81205" lon="1.90293">
        <ele>704.1</ele>
        <time>2026-07-07T08:40:06.000Z</time>
      </trkpt>
      <trkpt lat="45.81206" lon="1.90294">
        <ele>704.1</ele>
        <time>2026-07-07T08:40:07.000Z</time>
      </trkpt>
      <trkpt lat="45.81207" lon="1.90294">
        <ele>704.1</ele>
        <time>2026-07-07T08:40:08.000Z</time>
      </trkpt>
      <trkpt lat="45.81209" lon="1.90295">
        <ele>703.9</ele>
        <time>2026-07-07T08:40:09.000Z</time>
      </trkpt>
      <trkpt lat="45.8121" lon="1.90295">
        <ele>703.9</ele>
        <time>2026-07-07T08:40:10.000Z</time>
      </trkpt>
      <trkpt lat="45.81212" lon="1.90296">
        <ele>703.8</ele>
        <time>2026-07-07T08:40:11.000Z</time>
      </trkpt>
      <trkpt lat="45.81213" lon="1.90296">
        <ele>703.2</ele>
        <time>2026-07-07T08:40:12.000Z</time>
      </trkpt>
      <trkpt lat="45.81215" lon="1.90297">
        <ele>702.5</ele>
        <time>2026-07-07T08:40:13.000Z</time>
      </trkpt>
      <trkpt lat="45.81216" lon="1.90297">
        <ele>702.6</ele>
        <time>2026-07-07T08:40:14.000Z</time>
      </trkpt>
      <trkpt lat="45.81218" lon="1.90298">
        <ele>703.1</ele>
        <time>2026-07-07T08:40:15.000Z</time>
      </trkpt>
      <trkpt lat="45.81219" lon="1.90299">
        <ele>702.8</ele>
        <time>2026-07-07T08:40:16.000Z</time>
      </trkpt>
      <trkpt lat="45.81221" lon="1.90299">
        <ele>702.9</ele>
        <time>2026-07-07T08:40:17.000Z</time>
      </trkpt>
      <trkpt lat="45.81223" lon="1.903">
        <ele>703</ele>
        <time>2026-07-07T08:40:18.000Z</time>
      </trkpt>
      <trkpt lat="45.81224" lon="1.903">
        <ele>702.6</ele>
        <time>2026-07-07T08:40:19.000Z</time>
      </trkpt>
      <trkpt lat="45.81226" lon="1.903">
        <ele>701.9</ele>
        <time>2026-07-07T08:40:20.000Z</time>
      </trkpt>
      <trkpt lat="45.81228" lon="1.903">
        <ele>701.8</ele>
        <time>2026-07-07T08:40:21.000Z</time>
      </trkpt>
      <trkpt lat="45.81229" lon="1.90299">
        <ele>701.3</ele>
        <time>2026-07-07T08:40:22.000Z</time>
      </trkpt>
      <trkpt lat="45.81231" lon="1.90298">
        <ele>701.4</ele>
        <time>2026-07-07T08:40:23.000Z</time>
      </trkpt>
      <trkpt lat="45.81232" lon="1.90298">
        <ele>701.3</ele>
        <time>2026-07-07T08:40:24.000Z</time>
      </trkpt>
      <trkpt lat="45.81234" lon="1.90297">
        <ele>701.1</ele>
        <time>2026-07-07T08:40:25.000Z</time>
      </trkpt>
      <trkpt lat="45.81236" lon="1.90296">
        <ele>700.7</ele>
        <time>2026-07-07T08:40:26.000Z</time>
      </trkpt>
      <trkpt lat="45.81238" lon="1.90296">
        <ele>700.1</ele>
        <time>2026-07-07T08:40:27.000Z</time>
      </trkpt>
      <trkpt lat="45.8124" lon="1.90296">
        <ele>700.5</ele>
        <time>2026-07-07T08:40:28.000Z</time>
      </trkpt>
      <trkpt lat="45.81242" lon="1.90296">
        <ele>700.9</ele>
        <time>2026-07-07T08:40:29.000Z</time>
      </trkpt>
      <trkpt lat="45.81243" lon="1.90296">
        <ele>699.9</ele>
        <time>2026-07-07T08:40:30.000Z</time>
      </trkpt>
      <trkpt lat="45.81245" lon="1.90295">
        <ele>699.7</ele>
        <time>2026-07-07T08:40:31.000Z</time>
      </trkpt>
      <trkpt lat="45.81246" lon="1.90295">
        <ele>698.4</ele>
        <time>2026-07-07T08:40:32.000Z</time>
      </trkpt>
      <trkpt lat="45.81248" lon="1.90294">
        <ele>698.3</ele>
        <time>2026-07-07T08:40:33.000Z</time>
      </trkpt>
      <trkpt lat="45.81249" lon="1.90293">
        <ele>698</ele>
        <time>2026-07-07T08:40:34.000Z</time>
      </trkpt>
      <trkpt lat="45.8125" lon="1.90289">
        <ele>698.3</ele>
        <time>2026-07-07T08:40:35.000Z</time>
      </trkpt>
      <trkpt lat="45.8125" lon="1.90286">
        <ele>697.2</ele>
        <time>2026-07-07T08:40:36.000Z</time>
      </trkpt>
      <trkpt lat="45.81251" lon="1.90285">
        <ele>697.4</ele>
        <time>2026-07-07T08:40:37.000Z</time>
      </trkpt>
      <trkpt lat="45.81254" lon="1.90285">
        <ele>698.1</ele>
        <time>2026-07-07T08:40:38.000Z</time>
      </trkpt>
      <trkpt lat="45.81255" lon="1.90285">
        <ele>698</ele>
        <time>2026-07-07T08:40:39.000Z</time>
      </trkpt>
      <trkpt lat="45.81257" lon="1.90286">
        <ele>697.7</ele>
        <time>2026-07-07T08:40:40.000Z</time>
      </trkpt>
      <trkpt lat="45.81259" lon="1.90286">
        <ele>698.3</ele>
        <time>2026-07-07T08:40:41.000Z</time>
      </trkpt>
      <trkpt lat="45.8126" lon="1.90285">
        <ele>698.3</ele>
        <time>2026-07-07T08:40:42.000Z</time>
      </trkpt>
      <trkpt lat="45.81262" lon="1.90284">
        <ele>698.7</ele>
        <time>2026-07-07T08:40:43.000Z</time>
      </trkpt>
      <trkpt lat="45.81264" lon="1.90283">
        <ele>698.6</ele>
        <time>2026-07-07T08:40:44.000Z</time>
      </trkpt>
      <trkpt lat="45.81267" lon="1.90283">
        <ele>698.6</ele>
        <time>2026-07-07T08:40:45.000Z</time>
      </trkpt>
      <trkpt lat="45.81269" lon="1.90284">
        <ele>697.9</ele>
        <time>2026-07-07T08:40:46.000Z</time>
      </trkpt>
      <trkpt lat="45.81271" lon="1.90284">
        <ele>697.9</ele>
        <time>2026-07-07T08:40:47.000Z</time>
      </trkpt>
      <trkpt lat="45.81272" lon="1.90285">
        <ele>698.1</ele>
        <time>2026-07-07T08:40:48.000Z</time>
      </trkpt>
      <trkpt lat="45.81274" lon="1.90284">
        <ele>699.1</ele>
        <time>2026-07-07T08:40:49.000Z</time>
      </trkpt>
      <trkpt lat="45.81275" lon="1.90285">
        <ele>699.6</ele>
        <time>2026-07-07T08:40:50.000Z</time>
      </trkpt>
      <trkpt lat="45.81277" lon="1.90286">
        <ele>700.2</ele>
        <time>2026-07-07T08:40:51.000Z</time>
      </trkpt>
      <trkpt lat="45.81279" lon="1.90286">
        <ele>700.5</ele>
        <time>2026-07-07T08:40:52.000Z</time>
      </trkpt>
      <trkpt lat="45.8128" lon="1.90286">
        <ele>700.1</ele>
        <time>2026-07-07T08:40:53.000Z</time>
      </trkpt>
      <trkpt lat="45.81282" lon="1.90286">
        <ele>700.9</ele>
        <time>2026-07-07T08:40:54.000Z</time>
      </trkpt>
      <trkpt lat="45.81284" lon="1.90286">
        <ele>700.8</ele>
        <time>2026-07-07T08:40:55.000Z</time>
      </trkpt>
      <trkpt lat="45.81286" lon="1.90287">
        <ele>701</ele>
        <time>2026-07-07T08:40:56.000Z</time>
      </trkpt>
      <trkpt lat="45.81288" lon="1.90287">
        <ele>700.4</ele>
        <time>2026-07-07T08:40:57.000Z</time>
      </trkpt>
      <trkpt lat="45.81289" lon="1.90287">
        <ele>700.3</ele>
        <time>2026-07-07T08:40:58.000Z</time>
      </trkpt>
      <trkpt lat="45.8129" lon="1.90288">
        <ele>699.6</ele>
        <time>2026-07-07T08:40:59.000Z</time>
      </trkpt>
      <trkpt lat="45.81292" lon="1.90288">
        <ele>699.9</ele>
        <time>2026-07-07T08:41:00.000Z</time>
      </trkpt>
      <trkpt lat="45.81293" lon="1.90287">
        <ele>700.3</ele>
        <time>2026-07-07T08:41:01.000Z</time>
      </trkpt>
      <trkpt lat="45.81295" lon="1.90287">
        <ele>699.9</ele>
        <time>2026-07-07T08:41:02.000Z</time>
      </trkpt>
      <trkpt lat="45.81297" lon="1.90287">
        <ele>699.9</ele>
        <time>2026-07-07T08:41:03.000Z</time>
      </trkpt>
      <trkpt lat="45.81299" lon="1.90287">
        <ele>700</ele>
        <time>2026-07-07T08:41:04.000Z</time>
      </trkpt>
      <trkpt lat="45.81302" lon="1.90286">
        <ele>701.4</ele>
        <time>2026-07-07T08:41:05.000Z</time>
      </trkpt>
      <trkpt lat="45.81303" lon="1.90286">
        <ele>702.2</ele>
        <time>2026-07-07T08:41:06.000Z</time>
      </trkpt>
      <trkpt lat="45.81305" lon="1.90286">
        <ele>701.9</ele>
        <time>2026-07-07T08:41:07.000Z</time>
      </trkpt>
      <trkpt lat="45.81307" lon="1.90285">
        <ele>702.3</ele>
        <time>2026-07-07T08:41:08.000Z</time>
      </trkpt>
      <trkpt lat="45.81309" lon="1.90284">
        <ele>702.9</ele>
        <time>2026-07-07T08:41:09.000Z</time>
      </trkpt>
      <trkpt lat="45.81311" lon="1.90283">
        <ele>703.2</ele>
        <time>2026-07-07T08:41:10.000Z</time>
      </trkpt>
      <trkpt lat="45.81312" lon="1.90283">
        <ele>703.8</ele>
        <time>2026-07-07T08:41:11.000Z</time>
      </trkpt>
      <trkpt lat="45.81314" lon="1.90282">
        <ele>703.3</ele>
        <time>2026-07-07T08:41:12.000Z</time>
      </trkpt>
      <trkpt lat="45.81315" lon="1.90281">
        <ele>703</ele>
        <time>2026-07-07T08:41:13.000Z</time>
      </trkpt>
      <trkpt lat="45.81316" lon="1.9028">
        <ele>702.3</ele>
        <time>2026-07-07T08:41:14.000Z</time>
      </trkpt>
      <trkpt lat="45.81317" lon="1.90279">
        <ele>702.5</ele>
        <time>2026-07-07T08:41:15.000Z</time>
      </trkpt>
      <trkpt lat="45.81319" lon="1.90279">
        <ele>702.6</ele>
        <time>2026-07-07T08:41:16.000Z</time>
      </trkpt>
      <trkpt lat="45.8132" lon="1.90278">
        <ele>702.7</ele>
        <time>2026-07-07T08:41:17.000Z</time>
      </trkpt>
      <trkpt lat="45.81322" lon="1.90278">
        <ele>702.6</ele>
        <time>2026-07-07T08:41:18.000Z</time>
      </trkpt>
      <trkpt lat="45.81323" lon="1.90277">
        <ele>702.7</ele>
        <time>2026-07-07T08:41:19.000Z</time>
      </trkpt>
      <trkpt lat="45.81325" lon="1.90276">
        <ele>702.3</ele>
        <time>2026-07-07T08:41:20.000Z</time>
      </trkpt>
      <trkpt lat="45.81326" lon="1.90275">
        <ele>702.2</ele>
        <time>2026-07-07T08:41:21.000Z</time>
      </trkpt>
      <trkpt lat="45.81327" lon="1.90274">
        <ele>702.1</ele>
        <time>2026-07-07T08:41:22.000Z</time>
      </trkpt>
      <trkpt lat="45.81329" lon="1.90273">
        <ele>701.8</ele>
        <time>2026-07-07T08:41:23.000Z</time>
      </trkpt>
      <trkpt lat="45.8133" lon="1.90272">
        <ele>701.9</ele>
        <time>2026-07-07T08:41:24.000Z</time>
      </trkpt>
      <trkpt lat="45.81331" lon="1.90271">
        <ele>701.7</ele>
        <time>2026-07-07T08:41:25.000Z</time>
      </trkpt>
      <trkpt lat="45.81333" lon="1.9027">
        <ele>701.8</ele>
        <time>2026-07-07T08:41:26.000Z</time>
      </trkpt>
      <trkpt lat="45.81335" lon="1.9027">
        <ele>701</ele>
        <time>2026-07-07T08:41:27.000Z</time>
      </trkpt>
      <trkpt lat="45.81336" lon="1.90271">
        <ele>701.4</ele>
        <time>2026-07-07T08:41:28.000Z</time>
      </trkpt>
      <trkpt lat="45.81338" lon="1.9027">
        <ele>701.1</ele>
        <time>2026-07-07T08:41:29.000Z</time>
      </trkpt>
      <trkpt lat="45.81339" lon="1.90269">
        <ele>701.1</ele>
        <time>2026-07-07T08:41:30.000Z</time>
      </trkpt>
      <trkpt lat="45.8134" lon="1.90269">
        <ele>700.1</ele>
        <time>2026-07-07T08:41:31.000Z</time>
      </trkpt>
      <trkpt lat="45.81342" lon="1.9027">
        <ele>699.4</ele>
        <time>2026-07-07T08:41:32.000Z</time>
      </trkpt>
      <trkpt lat="45.81342" lon="1.90271">
        <ele>699.3</ele>
        <time>2026-07-07T08:41:33.000Z</time>
      </trkpt>
      <trkpt lat="45.81343" lon="1.90273">
        <ele>698.7</ele>
        <time>2026-07-07T08:41:34.000Z</time>
      </trkpt>
      <trkpt lat="45.81344" lon="1.90275">
        <ele>698.1</ele>
        <time>2026-07-07T08:41:35.000Z</time>
      </trkpt>
      <trkpt lat="45.81344" lon="1.90277">
        <ele>697.4</ele>
        <time>2026-07-07T08:41:36.000Z</time>
      </trkpt>
      <trkpt lat="45.81345" lon="1.9028">
        <ele>696.6</ele>
        <time>2026-07-07T08:41:37.000Z</time>
      </trkpt>
      <trkpt lat="45.81346" lon="1.90282">
        <ele>695.5</ele>
        <time>2026-07-07T08:41:38.000Z</time>
      </trkpt>
      <trkpt lat="45.81347" lon="1.90284">
        <ele>696.3</ele>
        <time>2026-07-07T08:41:39.000Z</time>
      </trkpt>
      <trkpt lat="45.81348" lon="1.90286">
        <ele>696.2</ele>
        <time>2026-07-07T08:41:40.000Z</time>
      </trkpt>
      <trkpt lat="45.81349" lon="1.90288">
        <ele>696.8</ele>
        <time>2026-07-07T08:41:41.000Z</time>
      </trkpt>
      <trkpt lat="45.8135" lon="1.9029">
        <ele>697</ele>
        <time>2026-07-07T08:41:42.000Z</time>
      </trkpt>
      <trkpt lat="45.81351" lon="1.90291">
        <ele>697.7</ele>
        <time>2026-07-07T08:41:43.000Z</time>
      </trkpt>
      <trkpt lat="45.81352" lon="1.90292">
        <ele>698.2</ele>
        <time>2026-07-07T08:41:44.000Z</time>
      </trkpt>
      <trkpt lat="45.81354" lon="1.90293">
        <ele>698.3</ele>
        <time>2026-07-07T08:41:45.000Z</time>
      </trkpt>
      <trkpt lat="45.81355" lon="1.90294">
        <ele>698.9</ele>
        <time>2026-07-07T08:41:46.000Z</time>
      </trkpt>
      <trkpt lat="45.81357" lon="1.90294">
        <ele>698.7</ele>
        <time>2026-07-07T08:41:47.000Z</time>
      </trkpt>
      <trkpt lat="45.81359" lon="1.90294">
        <ele>698.7</ele>
        <time>2026-07-07T08:41:48.000Z</time>
      </trkpt>
      <trkpt lat="45.81361" lon="1.90294">
        <ele>698.8</ele>
        <time>2026-07-07T08:41:49.000Z</time>
      </trkpt>
      <trkpt lat="45.81362" lon="1.90294">
        <ele>699</ele>
        <time>2026-07-07T08:41:50.000Z</time>
      </trkpt>
      <trkpt lat="45.81363" lon="1.90294">
        <ele>699.4</ele>
        <time>2026-07-07T08:41:51.000Z</time>
      </trkpt>
      <trkpt lat="45.81365" lon="1.90294">
        <ele>699.6</ele>
        <time>2026-07-07T08:41:52.000Z</time>
      </trkpt>
      <trkpt lat="45.81367" lon="1.90294">
        <ele>699.7</ele>
        <time>2026-07-07T08:41:53.000Z</time>
      </trkpt>
      <trkpt lat="45.81368" lon="1.90294">
        <ele>700</ele>
        <time>2026-07-07T08:41:54.000Z</time>
      </trkpt>
      <trkpt lat="45.81369" lon="1.90294">
        <ele>700.4</ele>
        <time>2026-07-07T08:41:55.000Z</time>
      </trkpt>
      <trkpt lat="45.81371" lon="1.90293">
        <ele>700.3</ele>
        <time>2026-07-07T08:41:56.000Z</time>
      </trkpt>
      <trkpt lat="45.81372" lon="1.90293">
        <ele>700.5</ele>
        <time>2026-07-07T08:41:57.000Z</time>
      </trkpt>
      <trkpt lat="45.81374" lon="1.90293">
        <ele>700.6</ele>
        <time>2026-07-07T08:41:58.000Z</time>
      </trkpt>
      <trkpt lat="45.81375" lon="1.90292">
        <ele>700.5</ele>
        <time>2026-07-07T08:41:59.000Z</time>
      </trkpt>
      <trkpt lat="45.81377" lon="1.90292">
        <ele>700.3</ele>
        <time>2026-07-07T08:42:00.000Z</time>
      </trkpt>
      <trkpt lat="45.81378" lon="1.90292">
        <ele>700.2</ele>
        <time>2026-07-07T08:42:01.000Z</time>
      </trkpt>
      <trkpt lat="45.8138" lon="1.90292">
        <ele>700.3</ele>
        <time>2026-07-07T08:42:02.000Z</time>
      </trkpt>
      <trkpt lat="45.81381" lon="1.90291">
        <ele>700.7</ele>
        <time>2026-07-07T08:42:03.000Z</time>
      </trkpt>
      <trkpt lat="45.81383" lon="1.90291">
        <ele>700.6</ele>
        <time>2026-07-07T08:42:04.000Z</time>
      </trkpt>
      <trkpt lat="45.81383" lon="1.90288">
        <ele>700.5</ele>
        <time>2026-07-07T08:42:05.000Z</time>
      </trkpt>
      <trkpt lat="45.81386" lon="1.9029">
        <ele>700.4</ele>
        <time>2026-07-07T08:42:06.000Z</time>
      </trkpt>
      <trkpt lat="45.81388" lon="1.90291">
        <ele>700.5</ele>
        <time>2026-07-07T08:42:07.000Z</time>
      </trkpt>
      <trkpt lat="45.81389" lon="1.9029">
        <ele>700.6</ele>
        <time>2026-07-07T08:42:08.000Z</time>
      </trkpt>
      <trkpt lat="45.81391" lon="1.9029">
        <ele>700.5</ele>
        <time>2026-07-07T08:42:09.000Z</time>
      </trkpt>
      <trkpt lat="45.81393" lon="1.9029">
        <ele>700.5</ele>
        <time>2026-07-07T08:42:10.000Z</time>
      </trkpt>
      <trkpt lat="45.81394" lon="1.9029">
        <ele>700.5</ele>
        <time>2026-07-07T08:42:11.000Z</time>
      </trkpt>
      <trkpt lat="45.81396" lon="1.9029">
        <ele>700.5</ele>
        <time>2026-07-07T08:42:12.000Z</time>
      </trkpt>
      <trkpt lat="45.81398" lon="1.9029">
        <ele>700.4</ele>
        <time>2026-07-07T08:42:13.000Z</time>
      </trkpt>
      <trkpt lat="45.81399" lon="1.90289">
        <ele>700.5</ele>
        <time>2026-07-07T08:42:14.000Z</time>
      </trkpt>
      <trkpt lat="45.81401" lon="1.90289">
        <ele>700.5</ele>
        <time>2026-07-07T08:42:15.000Z</time>
      </trkpt>
      <trkpt lat="45.81403" lon="1.90289">
        <ele>700.5</ele>
        <time>2026-07-07T08:42:16.000Z</time>
      </trkpt>
      <trkpt lat="45.81404" lon="1.90289">
        <ele>700.4</ele>
        <time>2026-07-07T08:42:17.000Z</time>
      </trkpt>
      <trkpt lat="45.81406" lon="1.90288">
        <ele>700.4</ele>
        <time>2026-07-07T08:42:18.000Z</time>
      </trkpt>
      <trkpt lat="45.81407" lon="1.90288">
        <ele>700.3</ele>
        <time>2026-07-07T08:42:19.000Z</time>
      </trkpt>
      <trkpt lat="45.81409" lon="1.90288">
        <ele>700.1</ele>
        <time>2026-07-07T08:42:20.000Z</time>
      </trkpt>
      <trkpt lat="45.81411" lon="1.90288">
        <ele>700.1</ele>
        <time>2026-07-07T08:42:21.000Z</time>
      </trkpt>
      <trkpt lat="45.81412" lon="1.90288">
        <ele>700.1</ele>
        <time>2026-07-07T08:42:22.000Z</time>
      </trkpt>
      <trkpt lat="45.81413" lon="1.90287">
        <ele>700.2</ele>
        <time>2026-07-07T08:42:23.000Z</time>
      </trkpt>
      <trkpt lat="45.81415" lon="1.90287">
        <ele>700.2</ele>
        <time>2026-07-07T08:42:24.000Z</time>
      </trkpt>
      <trkpt lat="45.81417" lon="1.90286">
        <ele>700.2</ele>
        <time>2026-07-07T08:42:25.000Z</time>
      </trkpt>
      <trkpt lat="45.81418" lon="1.90286">
        <ele>700.2</ele>
        <time>2026-07-07T08:42:26.000Z</time>
      </trkpt>
      <trkpt lat="45.8142" lon="1.90286">
        <ele>700.2</ele>
        <time>2026-07-07T08:42:27.000Z</time>
      </trkpt>
      <trkpt lat="45.81422" lon="1.90286">
        <ele>700.3</ele>
        <time>2026-07-07T08:42:28.000Z</time>
      </trkpt>
      <trkpt lat="45.81423" lon="1.90286">
        <ele>700.5</ele>
        <time>2026-07-07T08:42:29.000Z</time>
      </trkpt>
      <trkpt lat="45.81425" lon="1.90286">
        <ele>700.3</ele>
        <time>2026-07-07T08:42:30.000Z</time>
      </trkpt>
      <trkpt lat="45.81427" lon="1.90282">
        <ele>700.5</ele>
        <time>2026-07-07T08:42:31.000Z</time>
      </trkpt>
      <trkpt lat="45.81429" lon="1.90285">
        <ele>700.3</ele>
        <time>2026-07-07T08:42:32.000Z</time>
      </trkpt>
      <trkpt lat="45.8143" lon="1.90286">
        <ele>700.5</ele>
        <time>2026-07-07T08:42:33.000Z</time>
      </trkpt>
      <trkpt lat="45.81432" lon="1.90286">
        <ele>700.5</ele>
        <time>2026-07-07T08:42:34.000Z</time>
      </trkpt>
      <trkpt lat="45.81434" lon="1.90287">
        <ele>700.6</ele>
        <time>2026-07-07T08:42:35.000Z</time>
      </trkpt>
      <trkpt lat="45.81435" lon="1.90288">
        <ele>700.6</ele>
        <time>2026-07-07T08:42:36.000Z</time>
      </trkpt>
      <trkpt lat="45.81437" lon="1.90288">
        <ele>700.7</ele>
        <time>2026-07-07T08:42:37.000Z</time>
      </trkpt>
      <trkpt lat="45.81438" lon="1.90289">
        <ele>700.7</ele>
        <time>2026-07-07T08:42:38.000Z</time>
      </trkpt>
      <trkpt lat="45.8144" lon="1.9029">
        <ele>700.6</ele>
        <time>2026-07-07T08:42:39.000Z</time>
      </trkpt>
      <trkpt lat="45.81441" lon="1.90291">
        <ele>700.7</ele>
        <time>2026-07-07T08:42:40.000Z</time>
      </trkpt>
      <trkpt lat="45.81443" lon="1.90292">
        <ele>700.6</ele>
        <time>2026-07-07T08:42:41.000Z</time>
      </trkpt>
      <trkpt lat="45.81444" lon="1.90293">
        <ele>700.8</ele>
        <time>2026-07-07T08:42:42.000Z</time>
      </trkpt>
      <trkpt lat="45.81446" lon="1.90294">
        <ele>700.7</ele>
        <time>2026-07-07T08:42:43.000Z</time>
      </trkpt>
      <trkpt lat="45.81447" lon="1.90295">
        <ele>700.5</ele>
        <time>2026-07-07T08:42:44.000Z</time>
      </trkpt>
      <trkpt lat="45.81448" lon="1.90296">
        <ele>700.3</ele>
        <time>2026-07-07T08:42:45.000Z</time>
      </trkpt>
      <trkpt lat="45.8145" lon="1.90297">
        <ele>700.2</ele>
        <time>2026-07-07T08:42:46.000Z</time>
      </trkpt>
      <trkpt lat="45.81451" lon="1.90298">
        <ele>699.6</ele>
        <time>2026-07-07T08:42:47.000Z</time>
      </trkpt>
      <trkpt lat="45.81453" lon="1.90299">
        <ele>699.5</ele>
        <time>2026-07-07T08:42:48.000Z</time>
      </trkpt>
      <trkpt lat="45.81454" lon="1.903">
        <ele>699.5</ele>
        <time>2026-07-07T08:42:49.000Z</time>
      </trkpt>
      <trkpt lat="45.81455" lon="1.90301">
        <ele>699.3</ele>
        <time>2026-07-07T08:42:50.000Z</time>
      </trkpt>
      <trkpt lat="45.81457" lon="1.90302">
        <ele>698.9</ele>
        <time>2026-07-07T08:42:51.000Z</time>
      </trkpt>
      <trkpt lat="45.81458" lon="1.90303">
        <ele>698.8</ele>
        <time>2026-07-07T08:42:52.000Z</time>
      </trkpt>
      <trkpt lat="45.81459" lon="1.90304">
        <ele>698.6</ele>
        <time>2026-07-07T08:42:53.000Z</time>
      </trkpt>
      <trkpt lat="45.81461" lon="1.90306">
        <ele>698.6</ele>
        <time>2026-07-07T08:42:54.000Z</time>
      </trkpt>
      <trkpt lat="45.81462" lon="1.90307">
        <ele>698.5</ele>
        <time>2026-07-07T08:42:55.000Z</time>
      </trkpt>
      <trkpt lat="45.81463" lon="1.90308">
        <ele>698.4</ele>
        <time>2026-07-07T08:42:56.000Z</time>
      </trkpt>
      <trkpt lat="45.81465" lon="1.90309">
        <ele>698.5</ele>
        <time>2026-07-07T08:42:57.000Z</time>
      </trkpt>
      <trkpt lat="45.81466" lon="1.9031">
        <ele>698.5</ele>
        <time>2026-07-07T08:42:58.000Z</time>
      </trkpt>
      <trkpt lat="45.81467" lon="1.90311">
        <ele>698.6</ele>
        <time>2026-07-07T08:42:59.000Z</time>
      </trkpt>
      <trkpt lat="45.81469" lon="1.90312">
        <ele>698.8</ele>
        <time>2026-07-07T08:43:00.000Z</time>
      </trkpt>
      <trkpt lat="45.8147" lon="1.90313">
        <ele>698.7</ele>
        <time>2026-07-07T08:43:01.000Z</time>
      </trkpt>
      <trkpt lat="45.81472" lon="1.90315">
        <ele>698.7</ele>
        <time>2026-07-07T08:43:02.000Z</time>
      </trkpt>
      <trkpt lat="45.81473" lon="1.90316">
        <ele>698.8</ele>
        <time>2026-07-07T08:43:03.000Z</time>
      </trkpt>
      <trkpt lat="45.81475" lon="1.90317">
        <ele>698.8</ele>
        <time>2026-07-07T08:43:04.000Z</time>
      </trkpt>
      <trkpt lat="45.81476" lon="1.90318">
        <ele>698.6</ele>
        <time>2026-07-07T08:43:05.000Z</time>
      </trkpt>
      <trkpt lat="45.81477" lon="1.90319">
        <ele>698.8</ele>
        <time>2026-07-07T08:43:06.000Z</time>
      </trkpt>
      <trkpt lat="45.81479" lon="1.90321">
        <ele>698.7</ele>
        <time>2026-07-07T08:43:07.000Z</time>
      </trkpt>
      <trkpt lat="45.8148" lon="1.90322">
        <ele>698.7</ele>
        <time>2026-07-07T08:43:08.000Z</time>
      </trkpt>
      <trkpt lat="45.81482" lon="1.90323">
        <ele>698.8</ele>
        <time>2026-07-07T08:43:09.000Z</time>
      </trkpt>
      <trkpt lat="45.81483" lon="1.90325">
        <ele>698.8</ele>
        <time>2026-07-07T08:43:10.000Z</time>
      </trkpt>
      <trkpt lat="45.81484" lon="1.90326">
        <ele>698.8</ele>
        <time>2026-07-07T08:43:11.000Z</time>
      </trkpt>
      <trkpt lat="45.81485" lon="1.90327">
        <ele>698.7</ele>
        <time>2026-07-07T08:43:12.000Z</time>
      </trkpt>
      <trkpt lat="45.81487" lon="1.90328">
        <ele>698.9</ele>
        <time>2026-07-07T08:43:13.000Z</time>
      </trkpt>
      <trkpt lat="45.81488" lon="1.9033">
        <ele>698.9</ele>
        <time>2026-07-07T08:43:14.000Z</time>
      </trkpt>
      <trkpt lat="45.81489" lon="1.90331">
        <ele>698.8</ele>
        <time>2026-07-07T08:43:15.000Z</time>
      </trkpt>
      <trkpt lat="45.81491" lon="1.90333">
        <ele>699</ele>
        <time>2026-07-07T08:43:16.000Z</time>
      </trkpt>
      <trkpt lat="45.81492" lon="1.90334">
        <ele>699</ele>
        <time>2026-07-07T08:43:17.000Z</time>
      </trkpt>
      <trkpt lat="45.81493" lon="1.90335">
        <ele>699.2</ele>
        <time>2026-07-07T08:43:18.000Z</time>
      </trkpt>
      <trkpt lat="45.81495" lon="1.90336">
        <ele>699.2</ele>
        <time>2026-07-07T08:43:19.000Z</time>
      </trkpt>
      <trkpt lat="45.81496" lon="1.90338">
        <ele>699.2</ele>
        <time>2026-07-07T08:43:20.000Z</time>
      </trkpt>
      <trkpt lat="45.81497" lon="1.9034">
        <ele>699.4</ele>
        <time>2026-07-07T08:43:21.000Z</time>
      </trkpt>
      <trkpt lat="45.81498" lon="1.90342">
        <ele>699.5</ele>
        <time>2026-07-07T08:43:22.000Z</time>
      </trkpt>
      <trkpt lat="45.81499" lon="1.90344">
        <ele>699.6</ele>
        <time>2026-07-07T08:43:23.000Z</time>
      </trkpt>
      <trkpt lat="45.815" lon="1.90347">
        <ele>699.7</ele>
        <time>2026-07-07T08:43:24.000Z</time>
      </trkpt>
      <trkpt lat="45.815" lon="1.90349">
        <ele>699.8</ele>
        <time>2026-07-07T08:43:25.000Z</time>
      </trkpt>
      <trkpt lat="45.81501" lon="1.90351">
        <ele>699.6</ele>
        <time>2026-07-07T08:43:26.000Z</time>
      </trkpt>
      <trkpt lat="45.81502" lon="1.90353">
        <ele>699.3</ele>
        <time>2026-07-07T08:43:27.000Z</time>
      </trkpt>
      <trkpt lat="45.81502" lon="1.90356">
        <ele>699.1</ele>
        <time>2026-07-07T08:43:28.000Z</time>
      </trkpt>
      <trkpt lat="45.81503" lon="1.90358">
        <ele>699.2</ele>
        <time>2026-07-07T08:43:29.000Z</time>
      </trkpt>
      <trkpt lat="45.81503" lon="1.90361">
        <ele>699.2</ele>
        <time>2026-07-07T08:43:30.000Z</time>
      </trkpt>
      <trkpt lat="45.81503" lon="1.90363">
        <ele>698.9</ele>
        <time>2026-07-07T08:43:31.000Z</time>
      </trkpt>
      <trkpt lat="45.81504" lon="1.90365">
        <ele>699</ele>
        <time>2026-07-07T08:43:32.000Z</time>
      </trkpt>
      <trkpt lat="45.81504" lon="1.90368">
        <ele>698.8</ele>
        <time>2026-07-07T08:43:33.000Z</time>
      </trkpt>
      <trkpt lat="45.81504" lon="1.90371">
        <ele>699.1</ele>
        <time>2026-07-07T08:43:34.000Z</time>
      </trkpt>
      <trkpt lat="45.81505" lon="1.90374">
        <ele>699.3</ele>
        <time>2026-07-07T08:43:35.000Z</time>
      </trkpt>
      <trkpt lat="45.81505" lon="1.90377">
        <ele>698.6</ele>
        <time>2026-07-07T08:43:36.000Z</time>
      </trkpt>
      <trkpt lat="45.81506" lon="1.90379">
        <ele>698.8</ele>
        <time>2026-07-07T08:43:37.000Z</time>
      </trkpt>
      <trkpt lat="45.81506" lon="1.90382">
        <ele>698.9</ele>
        <time>2026-07-07T08:43:38.000Z</time>
      </trkpt>
      <trkpt lat="45.81506" lon="1.90385">
        <ele>698.4</ele>
        <time>2026-07-07T08:43:39.000Z</time>
      </trkpt>
      <trkpt lat="45.81506" lon="1.90388">
        <ele>698.7</ele>
        <time>2026-07-07T08:43:40.000Z</time>
      </trkpt>
      <trkpt lat="45.81507" lon="1.9039">
        <ele>698.7</ele>
        <time>2026-07-07T08:43:41.000Z</time>
      </trkpt>
      <trkpt lat="45.81507" lon="1.90393">
        <ele>699.1</ele>
        <time>2026-07-07T08:43:42.000Z</time>
      </trkpt>
      <trkpt lat="45.81507" lon="1.90395">
        <ele>699.2</ele>
        <time>2026-07-07T08:43:43.000Z</time>
      </trkpt>
      <trkpt lat="45.81507" lon="1.90397">
        <ele>699.3</ele>
        <time>2026-07-07T08:43:44.000Z</time>
      </trkpt>
      <trkpt lat="45.81508" lon="1.904">
        <ele>699.3</ele>
        <time>2026-07-07T08:43:45.000Z</time>
      </trkpt>
      <trkpt lat="45.81508" lon="1.90402">
        <ele>699.5</ele>
        <time>2026-07-07T08:43:46.000Z</time>
      </trkpt>
      <trkpt lat="45.81508" lon="1.90405">
        <ele>699.3</ele>
        <time>2026-07-07T08:43:47.000Z</time>
      </trkpt>
      <trkpt lat="45.81508" lon="1.90407">
        <ele>699.3</ele>
        <time>2026-07-07T08:43:48.000Z</time>
      </trkpt>
      <trkpt lat="45.81509" lon="1.90409">
        <ele>699.1</ele>
        <time>2026-07-07T08:43:49.000Z</time>
      </trkpt>
      <trkpt lat="45.81509" lon="1.90411">
        <ele>699.5</ele>
        <time>2026-07-07T08:43:50.000Z</time>
      </trkpt>
      <trkpt lat="45.81509" lon="1.90414">
        <ele>699.9</ele>
        <time>2026-07-07T08:43:51.000Z</time>
      </trkpt>
      <trkpt lat="45.81509" lon="1.90416">
        <ele>700.4</ele>
        <time>2026-07-07T08:43:52.000Z</time>
      </trkpt>
      <trkpt lat="45.81509" lon="1.90418">
        <ele>700.5</ele>
        <time>2026-07-07T08:43:53.000Z</time>
      </trkpt>
      <trkpt lat="45.81509" lon="1.90421">
        <ele>700.6</ele>
        <time>2026-07-07T08:43:54.000Z</time>
      </trkpt>
      <trkpt lat="45.8151" lon="1.90423">
        <ele>700.6</ele>
        <time>2026-07-07T08:43:55.000Z</time>
      </trkpt>
      <trkpt lat="45.8151" lon="1.90425">
        <ele>701</ele>
        <time>2026-07-07T08:43:56.000Z</time>
      </trkpt>
      <trkpt lat="45.8151" lon="1.90427">
        <ele>701.4</ele>
        <time>2026-07-07T08:43:57.000Z</time>
      </trkpt>
      <trkpt lat="45.81511" lon="1.90429">
        <ele>701.4</ele>
        <time>2026-07-07T08:43:58.000Z</time>
      </trkpt>
      <trkpt lat="45.81511" lon="1.90431">
        <ele>701.6</ele>
        <time>2026-07-07T08:43:59.000Z</time>
      </trkpt>
      <trkpt lat="45.81512" lon="1.90434">
        <ele>702</ele>
        <time>2026-07-07T08:44:00.000Z</time>
      </trkpt>
      <trkpt lat="45.81512" lon="1.90436">
        <ele>701.8</ele>
        <time>2026-07-07T08:44:01.000Z</time>
      </trkpt>
      <trkpt lat="45.81512" lon="1.90437">
        <ele>701.6</ele>
        <time>2026-07-07T08:44:02.000Z</time>
      </trkpt>
      <trkpt lat="45.81512" lon="1.9044">
        <ele>702.1</ele>
        <time>2026-07-07T08:44:03.000Z</time>
      </trkpt>
      <trkpt lat="45.81512" lon="1.90442">
        <ele>702</ele>
        <time>2026-07-07T08:44:04.000Z</time>
      </trkpt>
      <trkpt lat="45.81512" lon="1.90444">
        <ele>701.9</ele>
        <time>2026-07-07T08:44:05.000Z</time>
      </trkpt>
      <trkpt lat="45.81513" lon="1.90446">
        <ele>702.4</ele>
        <time>2026-07-07T08:44:06.000Z</time>
      </trkpt>
      <trkpt lat="45.81513" lon="1.90448">
        <ele>702.5</ele>
        <time>2026-07-07T08:44:07.000Z</time>
      </trkpt>
      <trkpt lat="45.81513" lon="1.9045">
        <ele>701.7</ele>
        <time>2026-07-07T08:44:08.000Z</time>
      </trkpt>
      <trkpt lat="45.81514" lon="1.90452">
        <ele>701.4</ele>
        <time>2026-07-07T08:44:09.000Z</time>
      </trkpt>
      <trkpt lat="45.81515" lon="1.90454">
        <ele>701.1</ele>
        <time>2026-07-07T08:44:10.000Z</time>
      </trkpt>
      <trkpt lat="45.81515" lon="1.90456">
        <ele>701.2</ele>
        <time>2026-07-07T08:44:11.000Z</time>
      </trkpt>
      <trkpt lat="45.81515" lon="1.90458">
        <ele>700.5</ele>
        <time>2026-07-07T08:44:12.000Z</time>
      </trkpt>
      <trkpt lat="45.81516" lon="1.9046">
        <ele>700.4</ele>
        <time>2026-07-07T08:44:13.000Z</time>
      </trkpt>
      <trkpt lat="45.81516" lon="1.90462">
        <ele>700.8</ele>
        <time>2026-07-07T08:44:14.000Z</time>
      </trkpt>
      <trkpt lat="45.81516" lon="1.90464">
        <ele>701.3</ele>
        <time>2026-07-07T08:44:15.000Z</time>
      </trkpt>
      <trkpt lat="45.81517" lon="1.90466">
        <ele>701.6</ele>
        <time>2026-07-07T08:44:16.000Z</time>
      </trkpt>
      <trkpt lat="45.81517" lon="1.90469">
        <ele>702.1</ele>
        <time>2026-07-07T08:44:17.000Z</time>
      </trkpt>
      <trkpt lat="45.81517" lon="1.90471">
        <ele>702.5</ele>
        <time>2026-07-07T08:44:18.000Z</time>
      </trkpt>
      <trkpt lat="45.81518" lon="1.90473">
        <ele>702.8</ele>
        <time>2026-07-07T08:44:19.000Z</time>
      </trkpt>
      <trkpt lat="45.81519" lon="1.90476">
        <ele>702.2</ele>
        <time>2026-07-07T08:44:20.000Z</time>
      </trkpt>
      <trkpt lat="45.81519" lon="1.90479">
        <ele>701.8</ele>
        <time>2026-07-07T08:44:21.000Z</time>
      </trkpt>
      <trkpt lat="45.81519" lon="1.90481">
        <ele>702.1</ele>
        <time>2026-07-07T08:44:22.000Z</time>
      </trkpt>
      <trkpt lat="45.81519" lon="1.90483">
        <ele>702</ele>
        <time>2026-07-07T08:44:23.000Z</time>
      </trkpt>
      <trkpt lat="45.8152" lon="1.90485">
        <ele>702.4</ele>
        <time>2026-07-07T08:44:24.000Z</time>
      </trkpt>
      <trkpt lat="45.8152" lon="1.90487">
        <ele>702.8</ele>
        <time>2026-07-07T08:44:25.000Z</time>
      </trkpt>
      <trkpt lat="45.81521" lon="1.90489">
        <ele>703.2</ele>
        <time>2026-07-07T08:44:26.000Z</time>
      </trkpt>
      <trkpt lat="45.81522" lon="1.90491">
        <ele>701.7</ele>
        <time>2026-07-07T08:44:27.000Z</time>
      </trkpt>
      <trkpt lat="45.81523" lon="1.90493">
        <ele>702</ele>
        <time>2026-07-07T08:44:28.000Z</time>
      </trkpt>
      <trkpt lat="45.81523" lon="1.90495">
        <ele>701.9</ele>
        <time>2026-07-07T08:44:29.000Z</time>
      </trkpt>
      <trkpt lat="45.81524" lon="1.90497">
        <ele>702.4</ele>
        <time>2026-07-07T08:44:30.000Z</time>
      </trkpt>
      <trkpt lat="45.81524" lon="1.90499">
        <ele>702.1</ele>
        <time>2026-07-07T08:44:31.000Z</time>
      </trkpt>
      <trkpt lat="45.81525" lon="1.90501">
        <ele>702.1</ele>
        <time>2026-07-07T08:44:32.000Z</time>
      </trkpt>
      <trkpt lat="45.81526" lon="1.90503">
        <ele>702.5</ele>
        <time>2026-07-07T08:44:33.000Z</time>
      </trkpt>
      <trkpt lat="45.81526" lon="1.90506">
        <ele>702.9</ele>
        <time>2026-07-07T08:44:34.000Z</time>
      </trkpt>
      <trkpt lat="45.81526" lon="1.90508">
        <ele>702.9</ele>
        <time>2026-07-07T08:44:35.000Z</time>
      </trkpt>
      <trkpt lat="45.81527" lon="1.9051">
        <ele>702.2</ele>
        <time>2026-07-07T08:44:36.000Z</time>
      </trkpt>
      <trkpt lat="45.81527" lon="1.90513">
        <ele>702.7</ele>
        <time>2026-07-07T08:44:37.000Z</time>
      </trkpt>
      <trkpt lat="45.81527" lon="1.90515">
        <ele>702.5</ele>
        <time>2026-07-07T08:44:38.000Z</time>
      </trkpt>
      <trkpt lat="45.81527" lon="1.90517">
        <ele>702.6</ele>
        <time>2026-07-07T08:44:39.000Z</time>
      </trkpt>
      <trkpt lat="45.81527" lon="1.90519">
        <ele>703.4</ele>
        <time>2026-07-07T08:44:40.000Z</time>
      </trkpt>
      <trkpt lat="45.81527" lon="1.90521">
        <ele>704.1</ele>
        <time>2026-07-07T08:44:41.000Z</time>
      </trkpt>
      <trkpt lat="45.81527" lon="1.90521">
        <ele>703.9</ele>
        <time>2026-07-07T08:44:42.000Z</time>
      </trkpt>
      <trkpt lat="45.81528" lon="1.90523">
        <ele>703.9</ele>
        <time>2026-07-07T08:44:43.000Z</time>
      </trkpt>
      <trkpt lat="45.81528" lon="1.90523">
        <ele>703.9</ele>
        <time>2026-07-07T08:44:44.000Z</time>
      </trkpt>
      <trkpt lat="45.81528" lon="1.90524">
        <ele>703.4</ele>
        <time>2026-07-07T08:44:45.000Z</time>
      </trkpt>
      <trkpt lat="45.8153" lon="1.90525">
        <ele>703.6</ele>
        <time>2026-07-07T08:44:46.000Z</time>
      </trkpt>
      <trkpt lat="45.81531" lon="1.90526">
        <ele>703.6</ele>
        <time>2026-07-07T08:44:47.000Z</time>
      </trkpt>
      <trkpt lat="45.81532" lon="1.90527">
        <ele>703.2</ele>
        <time>2026-07-07T08:44:48.000Z</time>
      </trkpt>
      <trkpt lat="45.81533" lon="1.90529">
        <ele>703.4</ele>
        <time>2026-07-07T08:44:49.000Z</time>
      </trkpt>
      <trkpt lat="45.81534" lon="1.9053">
        <ele>703.5</ele>
        <time>2026-07-07T08:44:50.000Z</time>
      </trkpt>
      <trkpt lat="45.81535" lon="1.90531">
        <ele>702.9</ele>
        <time>2026-07-07T08:44:51.000Z</time>
      </trkpt>
      <trkpt lat="45.81537" lon="1.90532">
        <ele>701.9</ele>
        <time>2026-07-07T08:44:52.000Z</time>
      </trkpt>
      <trkpt lat="45.81538" lon="1.90533">
        <ele>701.4</ele>
        <time>2026-07-07T08:44:53.000Z</time>
      </trkpt>
      <trkpt lat="45.81539" lon="1.90535">
        <ele>702.1</ele>
        <time>2026-07-07T08:44:54.000Z</time>
      </trkpt>
      <trkpt lat="45.81539" lon="1.90537">
        <ele>702.8</ele>
        <time>2026-07-07T08:44:55.000Z</time>
      </trkpt>
      <trkpt lat="45.8154" lon="1.90539">
        <ele>703.4</ele>
        <time>2026-07-07T08:44:56.000Z</time>
      </trkpt>
      <trkpt lat="45.81541" lon="1.9054">
        <ele>703.9</ele>
        <time>2026-07-07T08:44:57.000Z</time>
      </trkpt>
      <trkpt lat="45.81542" lon="1.9054">
        <ele>703.7</ele>
        <time>2026-07-07T08:44:58.000Z</time>
      </trkpt>
      <trkpt lat="45.81543" lon="1.90541">
        <ele>703.7</ele>
        <time>2026-07-07T08:44:59.000Z</time>
      </trkpt>
      <trkpt lat="45.81545" lon="1.90542">
        <ele>703.9</ele>
        <time>2026-07-07T08:45:00.000Z</time>
      </trkpt>
      <trkpt lat="45.81546" lon="1.90544">
        <ele>704.5</ele>
        <time>2026-07-07T08:45:01.000Z</time>
      </trkpt>
      <trkpt lat="45.81547" lon="1.90545">
        <ele>705</ele>
        <time>2026-07-07T08:45:02.000Z</time>
      </trkpt>
      <trkpt lat="45.81547" lon="1.90547">
        <ele>705.2</ele>
        <time>2026-07-07T08:45:03.000Z</time>
      </trkpt>
      <trkpt lat="45.81548" lon="1.90548">
        <ele>705.6</ele>
        <time>2026-07-07T08:45:04.000Z</time>
      </trkpt>
      <trkpt lat="45.81549" lon="1.9055">
        <ele>705.6</ele>
        <time>2026-07-07T08:45:05.000Z</time>
      </trkpt>
      <trkpt lat="45.81549" lon="1.90552">
        <ele>705.6</ele>
        <time>2026-07-07T08:45:06.000Z</time>
      </trkpt>
      <trkpt lat="45.81549" lon="1.90554">
        <ele>706.1</ele>
        <time>2026-07-07T08:45:07.000Z</time>
      </trkpt>
      <trkpt lat="45.81549" lon="1.90556">
        <ele>706.3</ele>
        <time>2026-07-07T08:45:08.000Z</time>
      </trkpt>
      <trkpt lat="45.81549" lon="1.90558">
        <ele>706.2</ele>
        <time>2026-07-07T08:45:09.000Z</time>
      </trkpt>
      <trkpt lat="45.81549" lon="1.9056">
        <ele>706.4</ele>
        <time>2026-07-07T08:45:10.000Z</time>
      </trkpt>
      <trkpt lat="45.81549" lon="1.90562">
        <ele>706.1</ele>
        <time>2026-07-07T08:45:11.000Z</time>
      </trkpt>
      <trkpt lat="45.81548" lon="1.90564">
        <ele>705.7</ele>
        <time>2026-07-07T08:45:12.000Z</time>
      </trkpt>
      <trkpt lat="45.81548" lon="1.90566">
        <ele>705.7</ele>
        <time>2026-07-07T08:45:13.000Z</time>
      </trkpt>
      <trkpt lat="45.81547" lon="1.90568">
        <ele>705.7</ele>
        <time>2026-07-07T08:45:14.000Z</time>
      </trkpt>
      <trkpt lat="45.81546" lon="1.9057">
        <ele>705.7</ele>
        <time>2026-07-07T08:45:15.000Z</time>
      </trkpt>
      <trkpt lat="45.81545" lon="1.90572">
        <ele>705.7</ele>
        <time>2026-07-07T08:45:16.000Z</time>
      </trkpt>
      <trkpt lat="45.81544" lon="1.90574">
        <ele>705.5</ele>
        <time>2026-07-07T08:45:17.000Z</time>
      </trkpt>
      <trkpt lat="45.81544" lon="1.90575">
        <ele>705.6</ele>
        <time>2026-07-07T08:45:18.000Z</time>
      </trkpt>
      <trkpt lat="45.81542" lon="1.90577">
        <ele>705.3</ele>
        <time>2026-07-07T08:45:19.000Z</time>
      </trkpt>
      <trkpt lat="45.81541" lon="1.90579">
        <ele>705.2</ele>
        <time>2026-07-07T08:45:20.000Z</time>
      </trkpt>
      <trkpt lat="45.81541" lon="1.90581">
        <ele>705.1</ele>
        <time>2026-07-07T08:45:21.000Z</time>
      </trkpt>
      <trkpt lat="45.8154" lon="1.90583">
        <ele>705.2</ele>
        <time>2026-07-07T08:45:22.000Z</time>
      </trkpt>
      <trkpt lat="45.8154" lon="1.90585">
        <ele>705.2</ele>
        <time>2026-07-07T08:45:23.000Z</time>
      </trkpt>
      <trkpt lat="45.8154" lon="1.90588">
        <ele>705.1</ele>
        <time>2026-07-07T08:45:24.000Z</time>
      </trkpt>
      <trkpt lat="45.81541" lon="1.90591">
        <ele>705.3</ele>
        <time>2026-07-07T08:45:25.000Z</time>
      </trkpt>
      <trkpt lat="45.81541" lon="1.90594">
        <ele>706.7</ele>
        <time>2026-07-07T08:45:26.000Z</time>
      </trkpt>
      <trkpt lat="45.81542" lon="1.90597">
        <ele>706.9</ele>
        <time>2026-07-07T08:45:27.000Z</time>
      </trkpt>
      <trkpt lat="45.81542" lon="1.90598">
        <ele>706.6</ele>
        <time>2026-07-07T08:45:28.000Z</time>
      </trkpt>
      <trkpt lat="45.8154" lon="1.906">
        <ele>706.2</ele>
        <time>2026-07-07T08:45:29.000Z</time>
      </trkpt>
      <trkpt lat="45.8154" lon="1.90602">
        <ele>705.8</ele>
        <time>2026-07-07T08:45:30.000Z</time>
      </trkpt>
      <trkpt lat="45.81541" lon="1.90603">
        <ele>704.6</ele>
        <time>2026-07-07T08:45:31.000Z</time>
      </trkpt>
      <trkpt lat="45.81541" lon="1.90605">
        <ele>704.8</ele>
        <time>2026-07-07T08:45:32.000Z</time>
      </trkpt>
      <trkpt lat="45.81541" lon="1.90607">
        <ele>704.7</ele>
        <time>2026-07-07T08:45:33.000Z</time>
      </trkpt>
      <trkpt lat="45.81541" lon="1.90609">
        <ele>705.1</ele>
        <time>2026-07-07T08:45:34.000Z</time>
      </trkpt>
      <trkpt lat="45.81541" lon="1.90612">
        <ele>705</ele>
        <time>2026-07-07T08:45:35.000Z</time>
      </trkpt>
      <trkpt lat="45.81541" lon="1.90614">
        <ele>704.9</ele>
        <time>2026-07-07T08:45:36.000Z</time>
      </trkpt>
      <trkpt lat="45.81542" lon="1.90616">
        <ele>704.8</ele>
        <time>2026-07-07T08:45:37.000Z</time>
      </trkpt>
      <trkpt lat="45.81542" lon="1.90618">
        <ele>704.8</ele>
        <time>2026-07-07T08:45:38.000Z</time>
      </trkpt>
      <trkpt lat="45.81542" lon="1.90621">
        <ele>704.6</ele>
        <time>2026-07-07T08:45:39.000Z</time>
      </trkpt>
      <trkpt lat="45.81542" lon="1.90623">
        <ele>704.5</ele>
        <time>2026-07-07T08:45:40.000Z</time>
      </trkpt>
      <trkpt lat="45.81542" lon="1.90625">
        <ele>704.3</ele>
        <time>2026-07-07T08:45:41.000Z</time>
      </trkpt>
      <trkpt lat="45.81542" lon="1.90628">
        <ele>704.3</ele>
        <time>2026-07-07T08:45:42.000Z</time>
      </trkpt>
      <trkpt lat="45.81542" lon="1.9063">
        <ele>704.1</ele>
        <time>2026-07-07T08:45:43.000Z</time>
      </trkpt>
      <trkpt lat="45.81542" lon="1.90632">
        <ele>703.7</ele>
        <time>2026-07-07T08:45:44.000Z</time>
      </trkpt>
      <trkpt lat="45.81542" lon="1.90634">
        <ele>703.7</ele>
        <time>2026-07-07T08:45:45.000Z</time>
      </trkpt>
      <trkpt lat="45.81542" lon="1.90637">
        <ele>703.6</ele>
        <time>2026-07-07T08:45:46.000Z</time>
      </trkpt>
      <trkpt lat="45.81542" lon="1.90639">
        <ele>703.5</ele>
        <time>2026-07-07T08:45:47.000Z</time>
      </trkpt>
      <trkpt lat="45.81542" lon="1.90642">
        <ele>703.6</ele>
        <time>2026-07-07T08:45:48.000Z</time>
      </trkpt>
      <trkpt lat="45.81543" lon="1.90644">
        <ele>703.4</ele>
        <time>2026-07-07T08:45:49.000Z</time>
      </trkpt>
      <trkpt lat="45.81543" lon="1.90647">
        <ele>703.2</ele>
        <time>2026-07-07T08:45:50.000Z</time>
      </trkpt>
      <trkpt lat="45.81545" lon="1.90648">
        <ele>702.4</ele>
        <time>2026-07-07T08:45:51.000Z</time>
      </trkpt>
      <trkpt lat="45.81544" lon="1.90652">
        <ele>702.8</ele>
        <time>2026-07-07T08:45:52.000Z</time>
      </trkpt>
      <trkpt lat="45.81545" lon="1.90654">
        <ele>702.9</ele>
        <time>2026-07-07T08:45:53.000Z</time>
      </trkpt>
      <trkpt lat="45.81545" lon="1.90656">
        <ele>702.7</ele>
        <time>2026-07-07T08:45:54.000Z</time>
      </trkpt>
      <trkpt lat="45.81545" lon="1.90658">
        <ele>702.5</ele>
        <time>2026-07-07T08:45:55.000Z</time>
      </trkpt>
      <trkpt lat="45.81545" lon="1.9066">
        <ele>702.2</ele>
        <time>2026-07-07T08:45:56.000Z</time>
      </trkpt>
      <trkpt lat="45.81546" lon="1.90662">
        <ele>702.3</ele>
        <time>2026-07-07T08:45:57.000Z</time>
      </trkpt>
      <trkpt lat="45.81546" lon="1.90665">
        <ele>702.6</ele>
        <time>2026-07-07T08:45:58.000Z</time>
      </trkpt>
      <trkpt lat="45.81546" lon="1.90667">
        <ele>702.6</ele>
        <time>2026-07-07T08:45:59.000Z</time>
      </trkpt>
      <trkpt lat="45.81547" lon="1.90669">
        <ele>702.4</ele>
        <time>2026-07-07T08:46:00.000Z</time>
      </trkpt>
      <trkpt lat="45.81548" lon="1.90671">
        <ele>702.5</ele>
        <time>2026-07-07T08:46:01.000Z</time>
      </trkpt>
      <trkpt lat="45.81549" lon="1.90673">
        <ele>702.4</ele>
        <time>2026-07-07T08:46:02.000Z</time>
      </trkpt>
      <trkpt lat="45.81549" lon="1.90675">
        <ele>702.3</ele>
        <time>2026-07-07T08:46:03.000Z</time>
      </trkpt>
      <trkpt lat="45.8155" lon="1.90678">
        <ele>702.4</ele>
        <time>2026-07-07T08:46:04.000Z</time>
      </trkpt>
      <trkpt lat="45.8155" lon="1.9068">
        <ele>702.8</ele>
        <time>2026-07-07T08:46:05.000Z</time>
      </trkpt>
      <trkpt lat="45.81551" lon="1.90682">
        <ele>702.2</ele>
        <time>2026-07-07T08:46:06.000Z</time>
      </trkpt>
      <trkpt lat="45.81551" lon="1.90684">
        <ele>701.8</ele>
        <time>2026-07-07T08:46:07.000Z</time>
      </trkpt>
      <trkpt lat="45.81552" lon="1.90687">
        <ele>701.9</ele>
        <time>2026-07-07T08:46:08.000Z</time>
      </trkpt>
      <trkpt lat="45.81552" lon="1.90689">
        <ele>702.2</ele>
        <time>2026-07-07T08:46:09.000Z</time>
      </trkpt>
      <trkpt lat="45.81553" lon="1.90692">
        <ele>702.3</ele>
        <time>2026-07-07T08:46:10.000Z</time>
      </trkpt>
      <trkpt lat="45.81553" lon="1.90694">
        <ele>702.2</ele>
        <time>2026-07-07T08:46:11.000Z</time>
      </trkpt>
      <trkpt lat="45.81553" lon="1.90696">
        <ele>702.3</ele>
        <time>2026-07-07T08:46:12.000Z</time>
      </trkpt>
      <trkpt lat="45.81554" lon="1.90699">
        <ele>702.4</ele>
        <time>2026-07-07T08:46:13.000Z</time>
      </trkpt>
      <trkpt lat="45.81554" lon="1.90701">
        <ele>702.5</ele>
        <time>2026-07-07T08:46:14.000Z</time>
      </trkpt>
      <trkpt lat="45.81554" lon="1.90703">
        <ele>702.4</ele>
        <time>2026-07-07T08:46:15.000Z</time>
      </trkpt>
      <trkpt lat="45.81554" lon="1.90705">
        <ele>702.3</ele>
        <time>2026-07-07T08:46:16.000Z</time>
      </trkpt>
      <trkpt lat="45.81556" lon="1.90707">
        <ele>702.4</ele>
        <time>2026-07-07T08:46:17.000Z</time>
      </trkpt>
      <trkpt lat="45.81556" lon="1.90709">
        <ele>702.7</ele>
        <time>2026-07-07T08:46:18.000Z</time>
      </trkpt>
      <trkpt lat="45.81555" lon="1.9071">
        <ele>702.5</ele>
        <time>2026-07-07T08:46:19.000Z</time>
      </trkpt>
      <trkpt lat="45.81555" lon="1.9071">
        <ele>702.3</ele>
        <time>2026-07-07T08:46:20.000Z</time>
      </trkpt>
      <trkpt lat="45.81554" lon="1.90712">
        <ele>702</ele>
        <time>2026-07-07T08:46:21.000Z</time>
      </trkpt>
      <trkpt lat="45.81552" lon="1.90713">
        <ele>701.8</ele>
        <time>2026-07-07T08:46:22.000Z</time>
      </trkpt>
      <trkpt lat="45.81551" lon="1.90714">
        <ele>701.5</ele>
        <time>2026-07-07T08:46:23.000Z</time>
      </trkpt>
      <trkpt lat="45.81549" lon="1.90715">
        <ele>701.5</ele>
        <time>2026-07-07T08:46:24.000Z</time>
      </trkpt>
      <trkpt lat="45.81547" lon="1.90716">
        <ele>700.6</ele>
        <time>2026-07-07T08:46:25.000Z</time>
      </trkpt>
      <trkpt lat="45.81546" lon="1.90717">
        <ele>700.5</ele>
        <time>2026-07-07T08:46:26.000Z</time>
      </trkpt>
      <trkpt lat="45.81544" lon="1.90718">
        <ele>700.3</ele>
        <time>2026-07-07T08:46:27.000Z</time>
      </trkpt>
      <trkpt lat="45.81543" lon="1.90718">
        <ele>700</ele>
        <time>2026-07-07T08:46:28.000Z</time>
      </trkpt>
      <trkpt lat="45.81541" lon="1.90719">
        <ele>699.8</ele>
        <time>2026-07-07T08:46:29.000Z</time>
      </trkpt>
      <trkpt lat="45.81539" lon="1.9072">
        <ele>699.8</ele>
        <time>2026-07-07T08:46:30.000Z</time>
      </trkpt>
      <trkpt lat="45.81538" lon="1.90721">
        <ele>699.6</ele>
        <time>2026-07-07T08:46:31.000Z</time>
      </trkpt>
      <trkpt lat="45.81536" lon="1.90722">
        <ele>699.4</ele>
        <time>2026-07-07T08:46:32.000Z</time>
      </trkpt>
      <trkpt lat="45.81535" lon="1.90723">
        <ele>699.4</ele>
        <time>2026-07-07T08:46:33.000Z</time>
      </trkpt>
      <trkpt lat="45.81533" lon="1.90723">
        <ele>699.3</ele>
        <time>2026-07-07T08:46:34.000Z</time>
      </trkpt>
      <trkpt lat="45.81532" lon="1.90724">
        <ele>699.1</ele>
        <time>2026-07-07T08:46:35.000Z</time>
      </trkpt>
      <trkpt lat="45.8153" lon="1.90725">
        <ele>699.1</ele>
        <time>2026-07-07T08:46:36.000Z</time>
      </trkpt>
      <trkpt lat="45.81529" lon="1.90726">
        <ele>699.1</ele>
        <time>2026-07-07T08:46:37.000Z</time>
      </trkpt>
      <trkpt lat="45.81527" lon="1.90727">
        <ele>699.2</ele>
        <time>2026-07-07T08:46:38.000Z</time>
      </trkpt>
      <trkpt lat="45.81525" lon="1.90727">
        <ele>699.3</ele>
        <time>2026-07-07T08:46:39.000Z</time>
      </trkpt>
      <trkpt lat="45.81523" lon="1.90728">
        <ele>699.5</ele>
        <time>2026-07-07T08:46:40.000Z</time>
      </trkpt>
      <trkpt lat="45.81521" lon="1.90728">
        <ele>699.2</ele>
        <time>2026-07-07T08:46:41.000Z</time>
      </trkpt>
      <trkpt lat="45.8152" lon="1.90727">
        <ele>699.1</ele>
        <time>2026-07-07T08:46:42.000Z</time>
      </trkpt>
      <trkpt lat="45.81518" lon="1.90727">
        <ele>698.8</ele>
        <time>2026-07-07T08:46:43.000Z</time>
      </trkpt>
      <trkpt lat="45.81517" lon="1.90727">
        <ele>698.6</ele>
        <time>2026-07-07T08:46:44.000Z</time>
      </trkpt>
      <trkpt lat="45.81516" lon="1.90727">
        <ele>697.5</ele>
        <time>2026-07-07T08:46:45.000Z</time>
      </trkpt>
      <trkpt lat="45.81514" lon="1.90727">
        <ele>697.3</ele>
        <time>2026-07-07T08:46:46.000Z</time>
      </trkpt>
      <trkpt lat="45.81513" lon="1.90727">
        <ele>697</ele>
        <time>2026-07-07T08:46:47.000Z</time>
      </trkpt>
      <trkpt lat="45.81512" lon="1.90726">
        <ele>697.3</ele>
        <time>2026-07-07T08:46:48.000Z</time>
      </trkpt>
      <trkpt lat="45.81511" lon="1.90726">
        <ele>697.5</ele>
        <time>2026-07-07T08:46:49.000Z</time>
      </trkpt>
      <trkpt lat="45.8151" lon="1.90726">
        <ele>697.3</ele>
        <time>2026-07-07T08:46:50.000Z</time>
      </trkpt>
      <trkpt lat="45.81509" lon="1.90726">
        <ele>696.8</ele>
        <time>2026-07-07T08:46:51.000Z</time>
      </trkpt>
      <trkpt lat="45.81506" lon="1.90724">
        <ele>697.9</ele>
        <time>2026-07-07T08:46:52.000Z</time>
      </trkpt>
      <trkpt lat="45.81505" lon="1.90723">
        <ele>698.3</ele>
        <time>2026-07-07T08:46:53.000Z</time>
      </trkpt>
      <trkpt lat="45.81503" lon="1.90722">
        <ele>698.1</ele>
        <time>2026-07-07T08:46:54.000Z</time>
      </trkpt>
      <trkpt lat="45.81501" lon="1.90721">
        <ele>698</ele>
        <time>2026-07-07T08:46:55.000Z</time>
      </trkpt>
      <trkpt lat="45.815" lon="1.9072">
        <ele>698.1</ele>
        <time>2026-07-07T08:46:56.000Z</time>
      </trkpt>
      <trkpt lat="45.81498" lon="1.90719">
        <ele>698.4</ele>
        <time>2026-07-07T08:46:57.000Z</time>
      </trkpt>
      <trkpt lat="45.81497" lon="1.90718">
        <ele>698.9</ele>
        <time>2026-07-07T08:46:58.000Z</time>
      </trkpt>
      <trkpt lat="45.81495" lon="1.90716">
        <ele>698.1</ele>
        <time>2026-07-07T08:46:59.000Z</time>
      </trkpt>
      <trkpt lat="45.81494" lon="1.90715">
        <ele>698.5</ele>
        <time>2026-07-07T08:47:00.000Z</time>
      </trkpt>
      <trkpt lat="45.81492" lon="1.90714">
        <ele>698.8</ele>
        <time>2026-07-07T08:47:01.000Z</time>
      </trkpt>
      <trkpt lat="45.81491" lon="1.90714">
        <ele>698.4</ele>
        <time>2026-07-07T08:47:02.000Z</time>
      </trkpt>
      <trkpt lat="45.8149" lon="1.90713">
        <ele>698.5</ele>
        <time>2026-07-07T08:47:03.000Z</time>
      </trkpt>
      <trkpt lat="45.81488" lon="1.90712">
        <ele>698.8</ele>
        <time>2026-07-07T08:47:04.000Z</time>
      </trkpt>
      <trkpt lat="45.81486" lon="1.90711">
        <ele>698.4</ele>
        <time>2026-07-07T08:47:05.000Z</time>
      </trkpt>
      <trkpt lat="45.81484" lon="1.90711">
        <ele>697.6</ele>
        <time>2026-07-07T08:47:06.000Z</time>
      </trkpt>
      <trkpt lat="45.81483" lon="1.9071">
        <ele>697.8</ele>
        <time>2026-07-07T08:47:07.000Z</time>
      </trkpt>
      <trkpt lat="45.81481" lon="1.90709">
        <ele>698.2</ele>
        <time>2026-07-07T08:47:08.000Z</time>
      </trkpt>
      <trkpt lat="45.81479" lon="1.90709">
        <ele>699.1</ele>
        <time>2026-07-07T08:47:09.000Z</time>
      </trkpt>
      <trkpt lat="45.81477" lon="1.90709">
        <ele>699.7</ele>
        <time>2026-07-07T08:47:10.000Z</time>
      </trkpt>
      <trkpt lat="45.81476" lon="1.90709">
        <ele>700.1</ele>
        <time>2026-07-07T08:47:11.000Z</time>
      </trkpt>
      <trkpt lat="45.81474" lon="1.90708">
        <ele>699.7</ele>
        <time>2026-07-07T08:47:12.000Z</time>
      </trkpt>
      <trkpt lat="45.81472" lon="1.90708">
        <ele>700.7</ele>
        <time>2026-07-07T08:47:13.000Z</time>
      </trkpt>
      <trkpt lat="45.8147" lon="1.90707">
        <ele>700.8</ele>
        <time>2026-07-07T08:47:14.000Z</time>
      </trkpt>
      <trkpt lat="45.81469" lon="1.90706">
        <ele>700.9</ele>
        <time>2026-07-07T08:47:15.000Z</time>
      </trkpt>
      <trkpt lat="45.81467" lon="1.90706">
        <ele>700.2</ele>
        <time>2026-07-07T08:47:16.000Z</time>
      </trkpt>
      <trkpt lat="45.81465" lon="1.90705">
        <ele>700.2</ele>
        <time>2026-07-07T08:47:17.000Z</time>
      </trkpt>
      <trkpt lat="45.81464" lon="1.90705">
        <ele>700.3</ele>
        <time>2026-07-07T08:47:18.000Z</time>
      </trkpt>
      <trkpt lat="45.81462" lon="1.90704">
        <ele>700.7</ele>
        <time>2026-07-07T08:47:19.000Z</time>
      </trkpt>
      <trkpt lat="45.8146" lon="1.90704">
        <ele>701.8</ele>
        <time>2026-07-07T08:47:20.000Z</time>
      </trkpt>
      <trkpt lat="45.81459" lon="1.90704">
        <ele>702.4</ele>
        <time>2026-07-07T08:47:21.000Z</time>
      </trkpt>
      <trkpt lat="45.81457" lon="1.90703">
        <ele>702.8</ele>
        <time>2026-07-07T08:47:22.000Z</time>
      </trkpt>
      <trkpt lat="45.81456" lon="1.90703">
        <ele>703.5</ele>
        <time>2026-07-07T08:47:23.000Z</time>
      </trkpt>
      <trkpt lat="45.81454" lon="1.90703">
        <ele>703.3</ele>
        <time>2026-07-07T08:47:24.000Z</time>
      </trkpt>
      <trkpt lat="45.81452" lon="1.90702">
        <ele>703.7</ele>
        <time>2026-07-07T08:47:25.000Z</time>
      </trkpt>
      <trkpt lat="45.8145" lon="1.90702">
        <ele>703.5</ele>
        <time>2026-07-07T08:47:26.000Z</time>
      </trkpt>
      <trkpt lat="45.81449" lon="1.90702">
        <ele>702.9</ele>
        <time>2026-07-07T08:47:27.000Z</time>
      </trkpt>
      <trkpt lat="45.81446" lon="1.90703">
        <ele>702.9</ele>
        <time>2026-07-07T08:47:28.000Z</time>
      </trkpt>
      <trkpt lat="45.81443" lon="1.90701">
        <ele>703.1</ele>
        <time>2026-07-07T08:47:29.000Z</time>
      </trkpt>
      <trkpt lat="45.8144" lon="1.907">
        <ele>703.3</ele>
        <time>2026-07-07T08:47:30.000Z</time>
      </trkpt>
      <trkpt lat="45.81437" lon="1.907">
        <ele>703.6</ele>
        <time>2026-07-07T08:47:31.000Z</time>
      </trkpt>
      <trkpt lat="45.81434" lon="1.907">
        <ele>704.3</ele>
        <time>2026-07-07T08:47:32.000Z</time>
      </trkpt>
      <trkpt lat="45.81432" lon="1.90701">
        <ele>703.3</ele>
        <time>2026-07-07T08:47:33.000Z</time>
      </trkpt>
      <trkpt lat="45.81429" lon="1.907">
        <ele>703.5</ele>
        <time>2026-07-07T08:47:34.000Z</time>
      </trkpt>
      <trkpt lat="45.81426" lon="1.90699">
        <ele>703.6</ele>
        <time>2026-07-07T08:47:35.000Z</time>
      </trkpt>
      <trkpt lat="45.81424" lon="1.90697">
        <ele>703.6</ele>
        <time>2026-07-07T08:47:36.000Z</time>
      </trkpt>
      <trkpt lat="45.81422" lon="1.90696">
        <ele>702.9</ele>
        <time>2026-07-07T08:47:37.000Z</time>
      </trkpt>
      <trkpt lat="45.81421" lon="1.90694">
        <ele>702.7</ele>
        <time>2026-07-07T08:47:38.000Z</time>
      </trkpt>
      <trkpt lat="45.81419" lon="1.90692">
        <ele>702.7</ele>
        <time>2026-07-07T08:47:39.000Z</time>
      </trkpt>
      <trkpt lat="45.81417" lon="1.9069">
        <ele>702.4</ele>
        <time>2026-07-07T08:47:40.000Z</time>
      </trkpt>
      <trkpt lat="45.81415" lon="1.90687">
        <ele>702.1</ele>
        <time>2026-07-07T08:47:41.000Z</time>
      </trkpt>
      <trkpt lat="45.81413" lon="1.90685">
        <ele>702.7</ele>
        <time>2026-07-07T08:47:42.000Z</time>
      </trkpt>
      <trkpt lat="45.81411" lon="1.90683">
        <ele>702.5</ele>
        <time>2026-07-07T08:47:43.000Z</time>
      </trkpt>
      <trkpt lat="45.81408" lon="1.9068">
        <ele>702.1</ele>
        <time>2026-07-07T08:47:44.000Z</time>
      </trkpt>
      <trkpt lat="45.81404" lon="1.90677">
        <ele>701.4</ele>
        <time>2026-07-07T08:47:45.000Z</time>
      </trkpt>
      <trkpt lat="45.81401" lon="1.90675">
        <ele>701.5</ele>
        <time>2026-07-07T08:47:46.000Z</time>
      </trkpt>
      <trkpt lat="45.81399" lon="1.90671">
        <ele>701.5</ele>
        <time>2026-07-07T08:47:47.000Z</time>
      </trkpt>
      <trkpt lat="45.81397" lon="1.90668">
        <ele>702.5</ele>
        <time>2026-07-07T08:47:48.000Z</time>
      </trkpt>
      <trkpt lat="45.81395" lon="1.90663">
        <ele>703.2</ele>
        <time>2026-07-07T08:47:49.000Z</time>
      </trkpt>
      <trkpt lat="45.81392" lon="1.9066">
        <ele>703.5</ele>
        <time>2026-07-07T08:47:50.000Z</time>
      </trkpt>
      <trkpt lat="45.8139" lon="1.90656">
        <ele>704</ele>
        <time>2026-07-07T08:47:51.000Z</time>
      </trkpt>
      <trkpt lat="45.81388" lon="1.90653">
        <ele>704.6</ele>
        <time>2026-07-07T08:47:52.000Z</time>
      </trkpt>
      <trkpt lat="45.81385" lon="1.9065">
        <ele>705.2</ele>
        <time>2026-07-07T08:47:53.000Z</time>
      </trkpt>
      <trkpt lat="45.81383" lon="1.90648">
        <ele>704.6</ele>
        <time>2026-07-07T08:47:54.000Z</time>
      </trkpt>
      <trkpt lat="45.8138" lon="1.90646">
        <ele>703.7</ele>
        <time>2026-07-07T08:47:55.000Z</time>
      </trkpt>
      <trkpt lat="45.81377" lon="1.90644">
        <ele>702.6</ele>
        <time>2026-07-07T08:47:56.000Z</time>
      </trkpt>
      <trkpt lat="45.81374" lon="1.90643">
        <ele>701.7</ele>
        <time>2026-07-07T08:47:57.000Z</time>
      </trkpt>
      <trkpt lat="45.81371" lon="1.90643">
        <ele>700.6</ele>
        <time>2026-07-07T08:47:58.000Z</time>
      </trkpt>
      <trkpt lat="45.81369" lon="1.90641">
        <ele>701.2</ele>
        <time>2026-07-07T08:47:59.000Z</time>
      </trkpt>
      <trkpt lat="45.81367" lon="1.9064">
        <ele>699.8</ele>
        <time>2026-07-07T08:48:00.000Z</time>
      </trkpt>
      <trkpt lat="45.81368" lon="1.90642">
        <ele>698.8</ele>
        <time>2026-07-07T08:48:01.000Z</time>
      </trkpt>
      <trkpt lat="45.81367" lon="1.90641">
        <ele>699.8</ele>
        <time>2026-07-07T08:48:02.000Z</time>
      </trkpt>
      <trkpt lat="45.81367" lon="1.90642">
        <ele>699.3</ele>
        <time>2026-07-07T08:48:03.000Z</time>
      </trkpt>
      <trkpt lat="45.81365" lon="1.9064">
        <ele>699.9</ele>
        <time>2026-07-07T08:48:04.000Z</time>
      </trkpt>
      <trkpt lat="45.81365" lon="1.9064">
        <ele>700.1</ele>
        <time>2026-07-07T08:48:05.000Z</time>
      </trkpt>
      <trkpt lat="45.81365" lon="1.90641">
        <ele>699.5</ele>
        <time>2026-07-07T08:48:06.000Z</time>
      </trkpt>
      <trkpt lat="45.81363" lon="1.9064">
        <ele>699.4</ele>
        <time>2026-07-07T08:48:07.000Z</time>
      </trkpt>
      <trkpt lat="45.81362" lon="1.9064">
        <ele>699.8</ele>
        <time>2026-07-07T08:48:08.000Z</time>
      </trkpt>
      <trkpt lat="45.81363" lon="1.90641">
        <ele>699.8</ele>
        <time>2026-07-07T08:48:09.000Z</time>
      </trkpt>
      <trkpt lat="45.81363" lon="1.90642">
        <ele>700.2</ele>
        <time>2026-07-07T08:48:10.000Z</time>
      </trkpt>
      <trkpt lat="45.81364" lon="1.90642">
        <ele>700.2</ele>
        <time>2026-07-07T08:48:11.000Z</time>
      </trkpt>
      <trkpt lat="45.81364" lon="1.90643">
        <ele>700.2</ele>
        <time>2026-07-07T08:48:12.000Z</time>
      </trkpt>
      <trkpt lat="45.81365" lon="1.90644">
        <ele>701</ele>
        <time>2026-07-07T08:48:13.000Z</time>
      </trkpt>
      <trkpt lat="45.81366" lon="1.90645">
        <ele>700.6</ele>
        <time>2026-07-07T08:48:14.000Z</time>
      </trkpt>
      <trkpt lat="45.81367" lon="1.90645">
        <ele>700.2</ele>
        <time>2026-07-07T08:48:15.000Z</time>
      </trkpt>
      <trkpt lat="45.81369" lon="1.90636">
        <ele>700.5</ele>
        <time>2026-07-07T08:48:16.000Z</time>
      </trkpt>
      <trkpt lat="45.8137" lon="1.90632">
        <ele>700.8</ele>
        <time>2026-07-07T08:48:17.000Z</time>
      </trkpt>
      <trkpt lat="45.81368" lon="1.90635">
        <ele>701.1</ele>
        <time>2026-07-07T08:48:18.000Z</time>
      </trkpt>
      <trkpt lat="45.81367" lon="1.90635">
        <ele>701.1</ele>
        <time>2026-07-07T08:48:19.000Z</time>
      </trkpt>
      <trkpt lat="45.81367" lon="1.90636">
        <ele>701</ele>
        <time>2026-07-07T08:48:20.000Z</time>
      </trkpt>
      <trkpt lat="45.81368" lon="1.90637">
        <ele>701</ele>
        <time>2026-07-07T08:48:21.000Z</time>
      </trkpt>
      <trkpt lat="45.81369" lon="1.90638">
        <ele>701.7</ele>
        <time>2026-07-07T08:48:22.000Z</time>
      </trkpt>
      <trkpt lat="45.8137" lon="1.90638">
        <ele>702.2</ele>
        <time>2026-07-07T08:48:23.000Z</time>
      </trkpt>
      <trkpt lat="45.81372" lon="1.90639">
        <ele>701.8</ele>
        <time>2026-07-07T08:48:24.000Z</time>
      </trkpt>
      <trkpt lat="45.81373" lon="1.90641">
        <ele>701.5</ele>
        <time>2026-07-07T08:48:25.000Z</time>
      </trkpt>
      <trkpt lat="45.81375" lon="1.90642">
        <ele>701.1</ele>
        <time>2026-07-07T08:48:26.000Z</time>
      </trkpt>
      <trkpt lat="45.81378" lon="1.90645">
        <ele>701.1</ele>
        <time>2026-07-07T08:48:27.000Z</time>
      </trkpt>
      <trkpt lat="45.8138" lon="1.90649">
        <ele>700.9</ele>
        <time>2026-07-07T08:48:28.000Z</time>
      </trkpt>
      <trkpt lat="45.81383" lon="1.90652">
        <ele>701.1</ele>
        <time>2026-07-07T08:48:29.000Z</time>
      </trkpt>
      <trkpt lat="45.81385" lon="1.90655">
        <ele>701</ele>
        <time>2026-07-07T08:48:30.000Z</time>
      </trkpt>
      <trkpt lat="45.81387" lon="1.90657">
        <ele>701.1</ele>
        <time>2026-07-07T08:48:31.000Z</time>
      </trkpt>
      <trkpt lat="45.81389" lon="1.90659">
        <ele>701.1</ele>
        <time>2026-07-07T08:48:32.000Z</time>
      </trkpt>
      <trkpt lat="45.8139" lon="1.90661">
        <ele>700.9</ele>
        <time>2026-07-07T08:48:33.000Z</time>
      </trkpt>
      <trkpt lat="45.81392" lon="1.90663">
        <ele>701.1</ele>
        <time>2026-07-07T08:48:34.000Z</time>
      </trkpt>
      <trkpt lat="45.81393" lon="1.90664">
        <ele>701.2</ele>
        <time>2026-07-07T08:48:35.000Z</time>
      </trkpt>
      <trkpt lat="45.81394" lon="1.90665">
        <ele>701</ele>
        <time>2026-07-07T08:48:36.000Z</time>
      </trkpt>
      <trkpt lat="45.81396" lon="1.90667">
        <ele>700.9</ele>
        <time>2026-07-07T08:48:37.000Z</time>
      </trkpt>
      <trkpt lat="45.81397" lon="1.90669">
        <ele>701.2</ele>
        <time>2026-07-07T08:48:38.000Z</time>
      </trkpt>
      <trkpt lat="45.81398" lon="1.9067">
        <ele>700.4</ele>
        <time>2026-07-07T08:48:39.000Z</time>
      </trkpt>
      <trkpt lat="45.81399" lon="1.90672">
        <ele>700</ele>
        <time>2026-07-07T08:48:40.000Z</time>
      </trkpt>
      <trkpt lat="45.81401" lon="1.90673">
        <ele>699.5</ele>
        <time>2026-07-07T08:48:41.000Z</time>
      </trkpt>
      <trkpt lat="45.81402" lon="1.90675">
        <ele>698.9</ele>
        <time>2026-07-07T08:48:42.000Z</time>
      </trkpt>
      <trkpt lat="45.81403" lon="1.90677">
        <ele>699.2</ele>
        <time>2026-07-07T08:48:43.000Z</time>
      </trkpt>
      <trkpt lat="45.81404" lon="1.90678">
        <ele>698.2</ele>
        <time>2026-07-07T08:48:44.000Z</time>
      </trkpt>
      <trkpt lat="45.81406" lon="1.9068">
        <ele>698.1</ele>
        <time>2026-07-07T08:48:45.000Z</time>
      </trkpt>
      <trkpt lat="45.81407" lon="1.90682">
        <ele>698.1</ele>
        <time>2026-07-07T08:48:46.000Z</time>
      </trkpt>
      <trkpt lat="45.81408" lon="1.90685">
        <ele>698.5</ele>
        <time>2026-07-07T08:48:47.000Z</time>
      </trkpt>
      <trkpt lat="45.81408" lon="1.90687">
        <ele>700.6</ele>
        <time>2026-07-07T08:48:48.000Z</time>
      </trkpt>
      <trkpt lat="45.81407" lon="1.90689">
        <ele>701</ele>
        <time>2026-07-07T08:48:49.000Z</time>
      </trkpt>
      <trkpt lat="45.81406" lon="1.9069">
        <ele>701.5</ele>
        <time>2026-07-07T08:48:50.000Z</time>
      </trkpt>
      <trkpt lat="45.81405" lon="1.90691">
        <ele>702.5</ele>
        <time>2026-07-07T08:48:51.000Z</time>
      </trkpt>
      <trkpt lat="45.81404" lon="1.90692">
        <ele>702.8</ele>
        <time>2026-07-07T08:48:52.000Z</time>
      </trkpt>
      <trkpt lat="45.81403" lon="1.90693">
        <ele>702.4</ele>
        <time>2026-07-07T08:48:53.000Z</time>
      </trkpt>
      <trkpt lat="45.81401" lon="1.90693">
        <ele>703.2</ele>
        <time>2026-07-07T08:48:54.000Z</time>
      </trkpt>
      <trkpt lat="45.814" lon="1.90694">
        <ele>703.2</ele>
        <time>2026-07-07T08:48:55.000Z</time>
      </trkpt>
      <trkpt lat="45.81399" lon="1.90694">
        <ele>703.3</ele>
        <time>2026-07-07T08:48:56.000Z</time>
      </trkpt>
      <trkpt lat="45.81397" lon="1.90694">
        <ele>703</ele>
        <time>2026-07-07T08:48:57.000Z</time>
      </trkpt>
      <trkpt lat="45.81396" lon="1.90695">
        <ele>703.2</ele>
        <time>2026-07-07T08:48:58.000Z</time>
      </trkpt>
      <trkpt lat="45.81394" lon="1.90696">
        <ele>703.9</ele>
        <time>2026-07-07T08:48:59.000Z</time>
      </trkpt>
      <trkpt lat="45.81393" lon="1.90697">
        <ele>704.9</ele>
        <time>2026-07-07T08:49:00.000Z</time>
      </trkpt>
      <trkpt lat="45.81391" lon="1.90699">
        <ele>704.9</ele>
        <time>2026-07-07T08:49:01.000Z</time>
      </trkpt>
      <trkpt lat="45.8139" lon="1.90701">
        <ele>705</ele>
        <time>2026-07-07T08:49:02.000Z</time>
      </trkpt>
      <trkpt lat="45.81389" lon="1.90702">
        <ele>704.5</ele>
        <time>2026-07-07T08:49:03.000Z</time>
      </trkpt>
      <trkpt lat="45.81389" lon="1.90704">
        <ele>704.4</ele>
        <time>2026-07-07T08:49:04.000Z</time>
      </trkpt>
      <trkpt lat="45.81388" lon="1.90706">
        <ele>704.1</ele>
        <time>2026-07-07T08:49:05.000Z</time>
      </trkpt>
      <trkpt lat="45.81388" lon="1.90708">
        <ele>703.8</ele>
        <time>2026-07-07T08:49:06.000Z</time>
      </trkpt>
      <trkpt lat="45.81388" lon="1.9071">
        <ele>703.4</ele>
        <time>2026-07-07T08:49:07.000Z</time>
      </trkpt>
      <trkpt lat="45.81387" lon="1.90712">
        <ele>702.8</ele>
        <time>2026-07-07T08:49:08.000Z</time>
      </trkpt>
      <trkpt lat="45.81386" lon="1.90713">
        <ele>703.8</ele>
        <time>2026-07-07T08:49:09.000Z</time>
      </trkpt>
      <trkpt lat="45.81385" lon="1.90714">
        <ele>703.6</ele>
        <time>2026-07-07T08:49:10.000Z</time>
      </trkpt>
      <trkpt lat="45.81384" lon="1.90715">
        <ele>703.6</ele>
        <time>2026-07-07T08:49:11.000Z</time>
      </trkpt>
      <trkpt lat="45.81383" lon="1.90715">
        <ele>704</ele>
        <time>2026-07-07T08:49:12.000Z</time>
      </trkpt>
      <trkpt lat="45.81381" lon="1.90715">
        <ele>704.9</ele>
        <time>2026-07-07T08:49:13.000Z</time>
      </trkpt>
      <trkpt lat="45.81381" lon="1.90718">
        <ele>705.1</ele>
        <time>2026-07-07T08:49:14.000Z</time>
      </trkpt>
      <trkpt lat="45.8138" lon="1.90719">
        <ele>705.5</ele>
        <time>2026-07-07T08:49:15.000Z</time>
      </trkpt>
      <trkpt lat="45.8138" lon="1.90721">
        <ele>705.9</ele>
        <time>2026-07-07T08:49:16.000Z</time>
      </trkpt>
      <trkpt lat="45.8138" lon="1.90723">
        <ele>705.9</ele>
        <time>2026-07-07T08:49:17.000Z</time>
      </trkpt>
      <trkpt lat="45.81381" lon="1.90724">
        <ele>706.1</ele>
        <time>2026-07-07T08:49:18.000Z</time>
      </trkpt>
      <trkpt lat="45.81381" lon="1.90725">
        <ele>706.1</ele>
        <time>2026-07-07T08:49:19.000Z</time>
      </trkpt>
      <trkpt lat="45.81381" lon="1.90727">
        <ele>706.3</ele>
        <time>2026-07-07T08:49:20.000Z</time>
      </trkpt>
      <trkpt lat="45.81382" lon="1.90729">
        <ele>706</ele>
        <time>2026-07-07T08:49:21.000Z</time>
      </trkpt>
      <trkpt lat="45.81382" lon="1.9073">
        <ele>706.1</ele>
        <time>2026-07-07T08:49:22.000Z</time>
      </trkpt>
      <trkpt lat="45.81383" lon="1.90731">
        <ele>706.2</ele>
        <time>2026-07-07T08:49:23.000Z</time>
      </trkpt>
      <trkpt lat="45.81383" lon="1.90733">
        <ele>706.2</ele>
        <time>2026-07-07T08:49:24.000Z</time>
      </trkpt>
      <trkpt lat="45.81384" lon="1.90734">
        <ele>706.5</ele>
        <time>2026-07-07T08:49:25.000Z</time>
      </trkpt>
      <trkpt lat="45.81385" lon="1.90735">
        <ele>706.7</ele>
        <time>2026-07-07T08:49:26.000Z</time>
      </trkpt>
      <trkpt lat="45.81385" lon="1.90737">
        <ele>706.8</ele>
        <time>2026-07-07T08:49:27.000Z</time>
      </trkpt>
      <trkpt lat="45.81385" lon="1.90738">
        <ele>706.9</ele>
        <time>2026-07-07T08:49:28.000Z</time>
      </trkpt>
      <trkpt lat="45.81386" lon="1.90739">
        <ele>706.4</ele>
        <time>2026-07-07T08:49:29.000Z</time>
      </trkpt>
      <trkpt lat="45.81386" lon="1.9074">
        <ele>704.5</ele>
        <time>2026-07-07T08:49:30.000Z</time>
      </trkpt>
      <trkpt lat="45.81386" lon="1.9074">
        <ele>704.6</ele>
        <time>2026-07-07T08:49:31.000Z</time>
      </trkpt>
      <trkpt lat="45.81386" lon="1.9074">
        <ele>704.6</ele>
        <time>2026-07-07T08:49:32.000Z</time>
      </trkpt>
      <trkpt lat="45.81386" lon="1.9074">
        <ele>704.6</ele>
        <time>2026-07-07T08:49:33.000Z</time>
      </trkpt>
      <trkpt lat="45.81386" lon="1.9074">
        <ele>704.6</ele>
        <time>2026-07-07T08:49:34.000Z</time>
      </trkpt>
      <trkpt lat="45.81386" lon="1.9074">
        <ele>704.6</ele>
        <time>2026-07-07T08:49:35.000Z</time>
      </trkpt>
      <trkpt lat="45.81386" lon="1.9074">
        <ele>704.6</ele>
        <time>2026-07-07T08:49:36.000Z</time>
      </trkpt>
      <trkpt lat="45.81387" lon="1.90741">
        <ele>704.7</ele>
        <time>2026-07-07T08:49:37.000Z</time>
      </trkpt>
      <trkpt lat="45.81388" lon="1.90742">
        <ele>704.5</ele>
        <time>2026-07-07T08:49:38.000Z</time>
      </trkpt>
      <trkpt lat="45.81389" lon="1.90743">
        <ele>704.9</ele>
        <time>2026-07-07T08:49:39.000Z</time>
      </trkpt>
      <trkpt lat="45.8139" lon="1.90744">
        <ele>704.9</ele>
        <time>2026-07-07T08:49:40.000Z</time>
      </trkpt>
      <trkpt lat="45.81391" lon="1.90746">
        <ele>705.2</ele>
        <time>2026-07-07T08:49:41.000Z</time>
      </trkpt>
      <trkpt lat="45.81392" lon="1.90747">
        <ele>705.2</ele>
        <time>2026-07-07T08:49:42.000Z</time>
      </trkpt>
      <trkpt lat="45.81392" lon="1.90748">
        <ele>705</ele>
        <time>2026-07-07T08:49:43.000Z</time>
      </trkpt>
      <trkpt lat="45.81393" lon="1.90749">
        <ele>704.5</ele>
        <time>2026-07-07T08:49:44.000Z</time>
      </trkpt>
      <trkpt lat="45.81394" lon="1.9075">
        <ele>703.8</ele>
        <time>2026-07-07T08:49:45.000Z</time>
      </trkpt>
      <trkpt lat="45.81395" lon="1.90751">
        <ele>703.4</ele>
        <time>2026-07-07T08:49:46.000Z</time>
      </trkpt>
      <trkpt lat="45.81396" lon="1.90752">
        <ele>703.1</ele>
        <time>2026-07-07T08:49:47.000Z</time>
      </trkpt>
      <trkpt lat="45.81397" lon="1.90754">
        <ele>702.9</ele>
        <time>2026-07-07T08:49:48.000Z</time>
      </trkpt>
      <trkpt lat="45.81397" lon="1.90756">
        <ele>703.2</ele>
        <time>2026-07-07T08:49:49.000Z</time>
      </trkpt>
      <trkpt lat="45.81398" lon="1.90757">
        <ele>702.9</ele>
        <time>2026-07-07T08:49:50.000Z</time>
      </trkpt>
      <trkpt lat="45.81399" lon="1.90759">
        <ele>702.6</ele>
        <time>2026-07-07T08:49:51.000Z</time>
      </trkpt>
      <trkpt lat="45.814" lon="1.9076">
        <ele>701.9</ele>
        <time>2026-07-07T08:49:52.000Z</time>
      </trkpt>
      <trkpt lat="45.81401" lon="1.90762">
        <ele>702.2</ele>
        <time>2026-07-07T08:49:53.000Z</time>
      </trkpt>
      <trkpt lat="45.81402" lon="1.90763">
        <ele>701.6</ele>
        <time>2026-07-07T08:49:54.000Z</time>
      </trkpt>
      <trkpt lat="45.81404" lon="1.90763">
        <ele>701.1</ele>
        <time>2026-07-07T08:49:55.000Z</time>
      </trkpt>
      <trkpt lat="45.81405" lon="1.90764">
        <ele>701.3</ele>
        <time>2026-07-07T08:49:56.000Z</time>
      </trkpt>
      <trkpt lat="45.81406" lon="1.90765">
        <ele>701.2</ele>
        <time>2026-07-07T08:49:57.000Z</time>
      </trkpt>
      <trkpt lat="45.81408" lon="1.90767">
        <ele>702</ele>
        <time>2026-07-07T08:49:58.000Z</time>
      </trkpt>
      <trkpt lat="45.81409" lon="1.90768">
        <ele>701.7</ele>
        <time>2026-07-07T08:49:59.000Z</time>
      </trkpt>
      <trkpt lat="45.8141" lon="1.9077">
        <ele>703</ele>
        <time>2026-07-07T08:50:00.000Z</time>
      </trkpt>
      <trkpt lat="45.81411" lon="1.90772">
        <ele>703.8</ele>
        <time>2026-07-07T08:50:01.000Z</time>
      </trkpt>
      <trkpt lat="45.81412" lon="1.90774">
        <ele>703.2</ele>
        <time>2026-07-07T08:50:02.000Z</time>
      </trkpt>
      <trkpt lat="45.81414" lon="1.90775">
        <ele>702.8</ele>
        <time>2026-07-07T08:50:03.000Z</time>
      </trkpt>
      <trkpt lat="45.81415" lon="1.90776">
        <ele>703.3</ele>
        <time>2026-07-07T08:50:04.000Z</time>
      </trkpt>
      <trkpt lat="45.81416" lon="1.90778">
        <ele>703.6</ele>
        <time>2026-07-07T08:50:05.000Z</time>
      </trkpt>
      <trkpt lat="45.81417" lon="1.9078">
        <ele>704.1</ele>
        <time>2026-07-07T08:50:06.000Z</time>
      </trkpt>
      <trkpt lat="45.81418" lon="1.90782">
        <ele>704.4</ele>
        <time>2026-07-07T08:50:07.000Z</time>
      </trkpt>
      <trkpt lat="45.81419" lon="1.90783">
        <ele>704.9</ele>
        <time>2026-07-07T08:50:08.000Z</time>
      </trkpt>
      <trkpt lat="45.8142" lon="1.90784">
        <ele>704.6</ele>
        <time>2026-07-07T08:50:09.000Z</time>
      </trkpt>
      <trkpt lat="45.81421" lon="1.90785">
        <ele>704.4</ele>
        <time>2026-07-07T08:50:10.000Z</time>
      </trkpt>
      <trkpt lat="45.81423" lon="1.90787">
        <ele>704</ele>
        <time>2026-07-07T08:50:11.000Z</time>
      </trkpt>
      <trkpt lat="45.81424" lon="1.90787">
        <ele>703.6</ele>
        <time>2026-07-07T08:50:12.000Z</time>
      </trkpt>
      <trkpt lat="45.81425" lon="1.90789">
        <ele>703.7</ele>
        <time>2026-07-07T08:50:13.000Z</time>
      </trkpt>
      <trkpt lat="45.81426" lon="1.9079">
        <ele>704.6</ele>
        <time>2026-07-07T08:50:14.000Z</time>
      </trkpt>
      <trkpt lat="45.81427" lon="1.90792">
        <ele>705.2</ele>
        <time>2026-07-07T08:50:15.000Z</time>
      </trkpt>
      <trkpt lat="45.81428" lon="1.90793">
        <ele>705</ele>
        <time>2026-07-07T08:50:16.000Z</time>
      </trkpt>
      <trkpt lat="45.81429" lon="1.90795">
        <ele>705.3</ele>
        <time>2026-07-07T08:50:17.000Z</time>
      </trkpt>
      <trkpt lat="45.8143" lon="1.90796">
        <ele>705.4</ele>
        <time>2026-07-07T08:50:18.000Z</time>
      </trkpt>
      <trkpt lat="45.81431" lon="1.90797">
        <ele>705.9</ele>
        <time>2026-07-07T08:50:19.000Z</time>
      </trkpt>
      <trkpt lat="45.81433" lon="1.90798">
        <ele>706.4</ele>
        <time>2026-07-07T08:50:20.000Z</time>
      </trkpt>
      <trkpt lat="45.81434" lon="1.90798">
        <ele>705.3</ele>
        <time>2026-07-07T08:50:21.000Z</time>
      </trkpt>
      <trkpt lat="45.81436" lon="1.90798">
        <ele>705.3</ele>
        <time>2026-07-07T08:50:22.000Z</time>
      </trkpt>
      <trkpt lat="45.81437" lon="1.90797">
        <ele>705.7</ele>
        <time>2026-07-07T08:50:23.000Z</time>
      </trkpt>
      <trkpt lat="45.81439" lon="1.90796">
        <ele>707</ele>
        <time>2026-07-07T08:50:24.000Z</time>
      </trkpt>
      <trkpt lat="45.81439" lon="1.90796">
        <ele>706.9</ele>
        <time>2026-07-07T08:50:25.000Z</time>
      </trkpt>
      <trkpt lat="45.81442" lon="1.90798">
        <ele>707.2</ele>
        <time>2026-07-07T08:50:26.000Z</time>
      </trkpt>
      <trkpt lat="45.81443" lon="1.908">
        <ele>707.1</ele>
        <time>2026-07-07T08:50:27.000Z</time>
      </trkpt>
      <trkpt lat="45.81442" lon="1.908">
        <ele>707.2</ele>
        <time>2026-07-07T08:50:28.000Z</time>
      </trkpt>
      <trkpt lat="45.81442" lon="1.908">
        <ele>707.2</ele>
        <time>2026-07-07T08:50:29.000Z</time>
      </trkpt>
      <trkpt lat="45.81442" lon="1.90801">
        <ele>707.5</ele>
        <time>2026-07-07T08:50:30.000Z</time>
      </trkpt>
      <trkpt lat="45.81443" lon="1.90803">
        <ele>707.5</ele>
        <time>2026-07-07T08:50:31.000Z</time>
      </trkpt>
      <trkpt lat="45.81443" lon="1.90803">
        <ele>707.2</ele>
        <time>2026-07-07T08:50:32.000Z</time>
      </trkpt>
      <trkpt lat="45.81443" lon="1.90803">
        <ele>706.9</ele>
        <time>2026-07-07T08:50:33.000Z</time>
      </trkpt>
      <trkpt lat="45.81442" lon="1.90803">
        <ele>706.9</ele>
        <time>2026-07-07T08:50:34.000Z</time>
      </trkpt>
      <trkpt lat="45.81442" lon="1.90803">
        <ele>706.3</ele>
        <time>2026-07-07T08:50:35.000Z</time>
      </trkpt>
      <trkpt lat="45.81442" lon="1.90803">
        <ele>705.8</ele>
        <time>2026-07-07T08:50:36.000Z</time>
      </trkpt>
      <trkpt lat="45.81442" lon="1.90803">
        <ele>705.9</ele>
        <time>2026-07-07T08:50:37.000Z</time>
      </trkpt>
      <trkpt lat="45.81442" lon="1.90803">
        <ele>705.9</ele>
        <time>2026-07-07T08:50:38.000Z</time>
      </trkpt>
      <trkpt lat="45.81442" lon="1.90803">
        <ele>705.9</ele>
        <time>2026-07-07T08:50:39.000Z</time>
      </trkpt>
      <trkpt lat="45.81442" lon="1.90803">
        <ele>705.9</ele>
        <time>2026-07-07T08:50:40.000Z</time>
      </trkpt>
      <trkpt lat="45.81443" lon="1.90805">
        <ele>705.5</ele>
        <time>2026-07-07T08:50:41.000Z</time>
      </trkpt>
      <trkpt lat="45.81443" lon="1.90807">
        <ele>705.5</ele>
        <time>2026-07-07T08:50:42.000Z</time>
      </trkpt>
      <trkpt lat="45.81441" lon="1.9081">
        <ele>704.8</ele>
        <time>2026-07-07T08:50:43.000Z</time>
      </trkpt>
      <trkpt lat="45.81439" lon="1.90812">
        <ele>704.9</ele>
        <time>2026-07-07T08:50:44.000Z</time>
      </trkpt>
      <trkpt lat="45.81439" lon="1.90814">
        <ele>704.3</ele>
        <time>2026-07-07T08:50:45.000Z</time>
      </trkpt>
      <trkpt lat="45.81439" lon="1.90814">
        <ele>705</ele>
        <time>2026-07-07T08:50:46.000Z</time>
      </trkpt>
      <trkpt lat="45.81439" lon="1.90813">
        <ele>704.9</ele>
        <time>2026-07-07T08:50:47.000Z</time>
      </trkpt>
      <trkpt lat="45.81439" lon="1.90813">
        <ele>704.5</ele>
        <time>2026-07-07T08:50:48.000Z</time>
      </trkpt>
      <trkpt lat="45.81439" lon="1.90814">
        <ele>704.5</ele>
        <time>2026-07-07T08:50:49.000Z</time>
      </trkpt>
      <trkpt lat="45.81439" lon="1.90815">
        <ele>704.1</ele>
        <time>2026-07-07T08:50:50.000Z</time>
      </trkpt>
      <trkpt lat="45.8144" lon="1.90816">
        <ele>703.7</ele>
        <time>2026-07-07T08:50:51.000Z</time>
      </trkpt>
      <trkpt lat="45.8144" lon="1.90817">
        <ele>703.3</ele>
        <time>2026-07-07T08:50:52.000Z</time>
      </trkpt>
      <trkpt lat="45.81439" lon="1.90817">
        <ele>705.6</ele>
        <time>2026-07-07T08:50:53.000Z</time>
      </trkpt>
      <trkpt lat="45.81439" lon="1.90817">
        <ele>705.9</ele>
        <time>2026-07-07T08:50:54.000Z</time>
      </trkpt>
      <trkpt lat="45.81439" lon="1.90817">
        <ele>705.8</ele>
        <time>2026-07-07T08:50:55.000Z</time>
      </trkpt>
      <trkpt lat="45.81439" lon="1.90818">
        <ele>705.9</ele>
        <time>2026-07-07T08:50:56.000Z</time>
      </trkpt>
      <trkpt lat="45.8144" lon="1.90818">
        <ele>706.1</ele>
        <time>2026-07-07T08:50:57.000Z</time>
      </trkpt>
      <trkpt lat="45.8144" lon="1.90818">
        <ele>705.8</ele>
        <time>2026-07-07T08:50:58.000Z</time>
      </trkpt>
      <trkpt lat="45.81441" lon="1.90818">
        <ele>705.1</ele>
        <time>2026-07-07T08:50:59.000Z</time>
      </trkpt>
      <trkpt lat="45.81442" lon="1.90817">
        <ele>705.1</ele>
        <time>2026-07-07T08:51:00.000Z</time>
      </trkpt>
      <trkpt lat="45.81442" lon="1.90817">
        <ele>704.9</ele>
        <time>2026-07-07T08:51:01.000Z</time>
      </trkpt>
      <trkpt lat="45.81442" lon="1.90816">
        <ele>704.4</ele>
        <time>2026-07-07T08:51:02.000Z</time>
      </trkpt>
      <trkpt lat="45.81442" lon="1.90816">
        <ele>704.4</ele>
        <time>2026-07-07T08:51:03.000Z</time>
      </trkpt>
      <trkpt lat="45.81442" lon="1.90816">
        <ele>704.4</ele>
        <time>2026-07-07T08:51:04.000Z</time>
      </trkpt>
      <trkpt lat="45.81442" lon="1.90816">
        <ele>704.4</ele>
        <time>2026-07-07T08:51:05.000Z</time>
      </trkpt>
      <trkpt lat="45.81442" lon="1.90816">
        <ele>704.4</ele>
        <time>2026-07-07T08:51:06.000Z</time>
      </trkpt>
      <trkpt lat="45.81442" lon="1.90815">
        <ele>704.1</ele>
        <time>2026-07-07T08:51:07.000Z</time>
      </trkpt>
      <trkpt lat="45.81442" lon="1.90815">
        <ele>704.1</ele>
        <time>2026-07-07T08:51:08.000Z</time>
      </trkpt>
      <trkpt lat="45.81442" lon="1.90815">
        <ele>703.9</ele>
        <time>2026-07-07T08:51:09.000Z</time>
      </trkpt>
      <trkpt lat="45.81442" lon="1.90815">
        <ele>703.9</ele>
        <time>2026-07-07T08:51:10.000Z</time>
      </trkpt>
      <trkpt lat="45.81441" lon="1.90815">
        <ele>704.2</ele>
        <time>2026-07-07T08:51:11.000Z</time>
      </trkpt>
      <trkpt lat="45.81442" lon="1.90815">
        <ele>704.2</ele>
        <time>2026-07-07T08:51:12.000Z</time>
      </trkpt>
      <trkpt lat="45.81442" lon="1.90815">
        <ele>704.8</ele>
        <time>2026-07-07T08:51:13.000Z</time>
      </trkpt>
      <trkpt lat="45.81442" lon="1.90815">
        <ele>704.8</ele>
        <time>2026-07-07T08:51:14.000Z</time>
      </trkpt>
      <trkpt lat="45.81442" lon="1.90815">
        <ele>704.7</ele>
        <time>2026-07-07T08:51:15.000Z</time>
      </trkpt>
      <trkpt lat="45.81442" lon="1.90814">
        <ele>704.8</ele>
        <time>2026-07-07T08:51:16.000Z</time>
      </trkpt>
      <trkpt lat="45.81442" lon="1.90814">
        <ele>705.1</ele>
        <time>2026-07-07T08:51:17.000Z</time>
      </trkpt>
      <trkpt lat="45.81442" lon="1.90814">
        <ele>705.6</ele>
        <time>2026-07-07T08:51:18.000Z</time>
      </trkpt>
      <trkpt lat="45.81442" lon="1.90814">
        <ele>705.7</ele>
        <time>2026-07-07T08:51:19.000Z</time>
      </trkpt>
      <trkpt lat="45.81441" lon="1.90813">
        <ele>706.2</ele>
        <time>2026-07-07T08:51:20.000Z</time>
      </trkpt>
      <trkpt lat="45.81441" lon="1.90813">
        <ele>705.9</ele>
        <time>2026-07-07T08:51:21.000Z</time>
      </trkpt>
      <trkpt lat="45.81441" lon="1.90812">
        <ele>706.7</ele>
        <time>2026-07-07T08:51:22.000Z</time>
      </trkpt>
      <trkpt lat="45.8144" lon="1.90812">
        <ele>706.7</ele>
        <time>2026-07-07T08:51:23.000Z</time>
      </trkpt>
      <trkpt lat="45.8144" lon="1.90812">
        <ele>706.7</ele>
        <time>2026-07-07T08:51:24.000Z</time>
      </trkpt>
      <trkpt lat="45.8144" lon="1.90812">
        <ele>706.7</ele>
        <time>2026-07-07T08:51:25.000Z</time>
      </trkpt>
      <trkpt lat="45.8144" lon="1.90812">
        <ele>707.4</ele>
        <time>2026-07-07T08:51:26.000Z</time>
      </trkpt>
      <trkpt lat="45.8144" lon="1.90812">
        <ele>707.2</ele>
        <time>2026-07-07T08:51:27.000Z</time>
      </trkpt>
      <trkpt lat="45.8144" lon="1.90813">
        <ele>708.4</ele>
        <time>2026-07-07T08:51:28.000Z</time>
      </trkpt>
      <trkpt lat="45.8144" lon="1.90813">
        <ele>709.6</ele>
        <time>2026-07-07T08:51:29.000Z</time>
      </trkpt>
      <trkpt lat="45.81439" lon="1.90813">
        <ele>710.5</ele>
        <time>2026-07-07T08:51:30.000Z</time>
      </trkpt>
      <trkpt lat="45.81439" lon="1.90813">
        <ele>710.6</ele>
        <time>2026-07-07T08:51:31.000Z</time>
      </trkpt>
      <trkpt lat="45.81439" lon="1.90813">
        <ele>710.6</ele>
        <time>2026-07-07T08:51:32.000Z</time>
      </trkpt>
      <trkpt lat="45.81439" lon="1.90813">
        <ele>710.6</ele>
        <time>2026-07-07T08:51:33.000Z</time>
      </trkpt>
      <trkpt lat="45.81439" lon="1.90813">
        <ele>710.6</ele>
        <time>2026-07-07T08:51:34.000Z</time>
      </trkpt>
      <trkpt lat="45.81439" lon="1.90813">
        <ele>710.7</ele>
        <time>2026-07-07T08:51:35.000Z</time>
      </trkpt>
      <trkpt lat="45.81439" lon="1.90813">
        <ele>710.7</ele>
        <time>2026-07-07T08:51:36.000Z</time>
      </trkpt>
      <trkpt lat="45.81439" lon="1.90813">
        <ele>710.7</ele>
        <time>2026-07-07T08:51:37.000Z</time>
      </trkpt>
      <trkpt lat="45.81439" lon="1.90813">
        <ele>710.7</ele>
        <time>2026-07-07T08:51:38.000Z</time>
      </trkpt>
      <trkpt lat="45.81439" lon="1.90813">
        <ele>710.7</ele>
        <time>2026-07-07T08:51:39.000Z</time>
      </trkpt>
      <trkpt lat="45.81439" lon="1.90813">
        <ele>710.7</ele>
        <time>2026-07-07T08:51:40.000Z</time>
      </trkpt>
      <trkpt lat="45.81439" lon="1.90813">
        <ele>710.6</ele>
        <time>2026-07-07T08:51:41.000Z</time>
      </trkpt>
      <trkpt lat="45.81439" lon="1.90813">
        <ele>709.9</ele>
        <time>2026-07-07T08:51:42.000Z</time>
      </trkpt>
      <trkpt lat="45.81439" lon="1.90813">
        <ele>709.9</ele>
        <time>2026-07-07T08:51:43.000Z</time>
      </trkpt>
      <trkpt lat="45.81439" lon="1.90813">
        <ele>709.9</ele>
        <time>2026-07-07T08:51:44.000Z</time>
      </trkpt>
      <trkpt lat="45.81439" lon="1.90813">
        <ele>709.9</ele>
        <time>2026-07-07T08:51:45.000Z</time>
      </trkpt>
      <trkpt lat="45.81439" lon="1.90813">
        <ele>710.5</ele>
        <time>2026-07-07T08:51:46.000Z</time>
      </trkpt>
      <trkpt lat="45.81439" lon="1.90813">
        <ele>710.8</ele>
        <time>2026-07-07T08:51:47.000Z</time>
      </trkpt>
      <trkpt lat="45.81439" lon="1.90814">
        <ele>710.5</ele>
        <time>2026-07-07T08:51:48.000Z</time>
      </trkpt>
      <trkpt lat="45.81439" lon="1.90814">
        <ele>710.5</ele>
        <time>2026-07-07T08:51:49.000Z</time>
      </trkpt>
      <trkpt lat="45.81439" lon="1.90814">
        <ele>710.5</ele>
        <time>2026-07-07T08:51:50.000Z</time>
      </trkpt>
      <trkpt lat="45.81439" lon="1.90814">
        <ele>710.5</ele>
        <time>2026-07-07T08:51:51.000Z</time>
      </trkpt>
      <trkpt lat="45.81439" lon="1.90814">
        <ele>710.5</ele>
        <time>2026-07-07T08:51:52.000Z</time>
      </trkpt>
      <trkpt lat="45.81439" lon="1.90814">
        <ele>710.5</ele>
        <time>2026-07-07T08:51:53.000Z</time>
      </trkpt>
      <trkpt lat="45.81438" lon="1.90815">
        <ele>710.4</ele>
        <time>2026-07-07T08:51:54.000Z</time>
      </trkpt>
      <trkpt lat="45.81436" lon="1.90815">
        <ele>710.2</ele>
        <time>2026-07-07T08:51:55.000Z</time>
      </trkpt>
      <trkpt lat="45.81434" lon="1.90816">
        <ele>711.6</ele>
        <time>2026-07-07T08:51:56.000Z</time>
      </trkpt>
      <trkpt lat="45.81433" lon="1.90819">
        <ele>712.2</ele>
        <time>2026-07-07T08:51:57.000Z</time>
      </trkpt>
      <trkpt lat="45.81432" lon="1.9082">
        <ele>713.5</ele>
        <time>2026-07-07T08:51:58.000Z</time>
      </trkpt>
      <trkpt lat="45.81431" lon="1.9082">
        <ele>714.4</ele>
        <time>2026-07-07T08:51:59.000Z</time>
      </trkpt>
      <trkpt lat="45.81431" lon="1.90819">
        <ele>714.3</ele>
        <time>2026-07-07T08:52:00.000Z</time>
      </trkpt>
      <trkpt lat="45.81431" lon="1.90819">
        <ele>714.3</ele>
        <time>2026-07-07T08:52:01.000Z</time>
      </trkpt>
      <trkpt lat="45.81431" lon="1.90818">
        <ele>714.3</ele>
        <time>2026-07-07T08:52:02.000Z</time>
      </trkpt>
      <trkpt lat="45.81431" lon="1.90818">
        <ele>714.5</ele>
        <time>2026-07-07T08:52:03.000Z</time>
      </trkpt>
      <trkpt lat="45.81431" lon="1.90817">
        <ele>713.7</ele>
        <time>2026-07-07T08:52:04.000Z</time>
      </trkpt>
      <trkpt lat="45.81431" lon="1.90817">
        <ele>713.5</ele>
        <time>2026-07-07T08:52:05.000Z</time>
      </trkpt>
      <trkpt lat="45.81431" lon="1.90817">
        <ele>713.5</ele>
        <time>2026-07-07T08:52:06.000Z</time>
      </trkpt>
      <trkpt lat="45.81431" lon="1.90817">
        <ele>713.5</ele>
        <time>2026-07-07T08:52:07.000Z</time>
      </trkpt>
      <trkpt lat="45.81431" lon="1.90817">
        <ele>713.5</ele>
        <time>2026-07-07T08:52:08.000Z</time>
      </trkpt>
      <trkpt lat="45.81431" lon="1.90817">
        <ele>713.5</ele>
        <time>2026-07-07T08:52:09.000Z</time>
      </trkpt>
      <trkpt lat="45.81431" lon="1.90817">
        <ele>713.5</ele>
        <time>2026-07-07T08:52:10.000Z</time>
      </trkpt>
      <trkpt lat="45.81431" lon="1.90817">
        <ele>713.5</ele>
        <time>2026-07-07T08:52:11.000Z</time>
      </trkpt>
      <trkpt lat="45.81431" lon="1.90817">
        <ele>713.5</ele>
        <time>2026-07-07T08:52:12.000Z</time>
      </trkpt>
      <trkpt lat="45.81431" lon="1.90817">
        <ele>713.5</ele>
        <time>2026-07-07T08:52:13.000Z</time>
      </trkpt>
      <trkpt lat="45.81431" lon="1.90817">
        <ele>713.5</ele>
        <time>2026-07-07T08:52:14.000Z</time>
      </trkpt>
      <trkpt lat="45.81431" lon="1.90817">
        <ele>713.5</ele>
        <time>2026-07-07T08:52:15.000Z</time>
      </trkpt>
      <trkpt lat="45.81431" lon="1.90817">
        <ele>713.5</ele>
        <time>2026-07-07T08:52:16.000Z</time>
      </trkpt>
      <trkpt lat="45.81431" lon="1.90817">
        <ele>713.7</ele>
        <time>2026-07-07T08:52:17.000Z</time>
      </trkpt>
      <trkpt lat="45.81431" lon="1.90816">
        <ele>712.8</ele>
        <time>2026-07-07T08:52:18.000Z</time>
      </trkpt>
      <trkpt lat="45.81431" lon="1.90814">
        <ele>712.2</ele>
        <time>2026-07-07T08:52:19.000Z</time>
      </trkpt>
      <trkpt lat="45.81431" lon="1.90813">
        <ele>712.5</ele>
        <time>2026-07-07T08:52:20.000Z</time>
      </trkpt>
      <trkpt lat="45.81431" lon="1.90811">
        <ele>711.7</ele>
        <time>2026-07-07T08:52:21.000Z</time>
      </trkpt>
      <trkpt lat="45.81431" lon="1.9081">
        <ele>710.4</ele>
        <time>2026-07-07T08:52:22.000Z</time>
      </trkpt>
      <trkpt lat="45.81431" lon="1.90809">
        <ele>710.4</ele>
        <time>2026-07-07T08:52:23.000Z</time>
      </trkpt>
      <trkpt lat="45.81431" lon="1.90809">
        <ele>710.4</ele>
        <time>2026-07-07T08:52:24.000Z</time>
      </trkpt>
      <trkpt lat="45.81431" lon="1.90808">
        <ele>710</ele>
        <time>2026-07-07T08:52:25.000Z</time>
      </trkpt>
      <trkpt lat="45.81431" lon="1.90808">
        <ele>709.3</ele>
        <time>2026-07-07T08:52:26.000Z</time>
      </trkpt>
      <trkpt lat="45.8143" lon="1.90806">
        <ele>708.9</ele>
        <time>2026-07-07T08:52:27.000Z</time>
      </trkpt>
      <trkpt lat="45.81428" lon="1.90805">
        <ele>708.6</ele>
        <time>2026-07-07T08:52:28.000Z</time>
      </trkpt>
      <trkpt lat="45.81427" lon="1.90803">
        <ele>708.1</ele>
        <time>2026-07-07T08:52:29.000Z</time>
      </trkpt>
      <trkpt lat="45.81426" lon="1.90802">
        <ele>708.2</ele>
        <time>2026-07-07T08:52:30.000Z</time>
      </trkpt>
      <trkpt lat="45.81425" lon="1.90801">
        <ele>708</ele>
        <time>2026-07-07T08:52:31.000Z</time>
      </trkpt>
      <trkpt lat="45.81424" lon="1.908">
        <ele>707.5</ele>
        <time>2026-07-07T08:52:32.000Z</time>
      </trkpt>
      <trkpt lat="45.81422" lon="1.90802">
        <ele>707.2</ele>
        <time>2026-07-07T08:52:33.000Z</time>
      </trkpt>
      <trkpt lat="45.81421" lon="1.90802">
        <ele>707.3</ele>
        <time>2026-07-07T08:52:34.000Z</time>
      </trkpt>
      <trkpt lat="45.81419" lon="1.90801">
        <ele>706.7</ele>
        <time>2026-07-07T08:52:35.000Z</time>
      </trkpt>
      <trkpt lat="45.81418" lon="1.908">
        <ele>706.9</ele>
        <time>2026-07-07T08:52:36.000Z</time>
      </trkpt>
      <trkpt lat="45.81416" lon="1.90798">
        <ele>707</ele>
        <time>2026-07-07T08:52:37.000Z</time>
      </trkpt>
      <trkpt lat="45.81415" lon="1.90797">
        <ele>706.8</ele>
        <time>2026-07-07T08:52:38.000Z</time>
      </trkpt>
      <trkpt lat="45.81413" lon="1.90797">
        <ele>706.9</ele>
        <time>2026-07-07T08:52:39.000Z</time>
      </trkpt>
      <trkpt lat="45.81411" lon="1.90796">
        <ele>707</ele>
        <time>2026-07-07T08:52:40.000Z</time>
      </trkpt>
      <trkpt lat="45.8141" lon="1.90794">
        <ele>707.2</ele>
        <time>2026-07-07T08:52:41.000Z</time>
      </trkpt>
      <trkpt lat="45.81409" lon="1.90792">
        <ele>707.1</ele>
        <time>2026-07-07T08:52:42.000Z</time>
      </trkpt>
      <trkpt lat="45.81408" lon="1.9079">
        <ele>706.9</ele>
        <time>2026-07-07T08:52:43.000Z</time>
      </trkpt>
      <trkpt lat="45.81407" lon="1.90788">
        <ele>707.2</ele>
        <time>2026-07-07T08:52:44.000Z</time>
      </trkpt>
      <trkpt lat="45.81406" lon="1.90786">
        <ele>706.9</ele>
        <time>2026-07-07T08:52:45.000Z</time>
      </trkpt>
      <trkpt lat="45.81406" lon="1.90784">
        <ele>706.2</ele>
        <time>2026-07-07T08:52:46.000Z</time>
      </trkpt>
      <trkpt lat="45.81404" lon="1.90783">
        <ele>706.2</ele>
        <time>2026-07-07T08:52:47.000Z</time>
      </trkpt>
      <trkpt lat="45.81402" lon="1.90782">
        <ele>706.2</ele>
        <time>2026-07-07T08:52:48.000Z</time>
      </trkpt>
      <trkpt lat="45.81401" lon="1.9078">
        <ele>706.5</ele>
        <time>2026-07-07T08:52:49.000Z</time>
      </trkpt>
      <trkpt lat="45.81399" lon="1.90778">
        <ele>706.9</ele>
        <time>2026-07-07T08:52:50.000Z</time>
      </trkpt>
      <trkpt lat="45.81398" lon="1.90776">
        <ele>707.1</ele>
        <time>2026-07-07T08:52:51.000Z</time>
      </trkpt>
      <trkpt lat="45.81397" lon="1.90774">
        <ele>706.9</ele>
        <time>2026-07-07T08:52:52.000Z</time>
      </trkpt>
      <trkpt lat="45.81396" lon="1.90772">
        <ele>707.8</ele>
        <time>2026-07-07T08:52:53.000Z</time>
      </trkpt>
      <trkpt lat="45.81395" lon="1.9077">
        <ele>707.7</ele>
        <time>2026-07-07T08:52:54.000Z</time>
      </trkpt>
      <trkpt lat="45.81394" lon="1.90769">
        <ele>707.6</ele>
        <time>2026-07-07T08:52:55.000Z</time>
      </trkpt>
      <trkpt lat="45.81393" lon="1.90767">
        <ele>707</ele>
        <time>2026-07-07T08:52:56.000Z</time>
      </trkpt>
      <trkpt lat="45.81392" lon="1.90765">
        <ele>706.8</ele>
        <time>2026-07-07T08:52:57.000Z</time>
      </trkpt>
      <trkpt lat="45.81391" lon="1.90763">
        <ele>706.8</ele>
        <time>2026-07-07T08:52:58.000Z</time>
      </trkpt>
      <trkpt lat="45.8139" lon="1.90762">
        <ele>706.5</ele>
        <time>2026-07-07T08:52:59.000Z</time>
      </trkpt>
      <trkpt lat="45.81389" lon="1.9076">
        <ele>706.8</ele>
        <time>2026-07-07T08:53:00.000Z</time>
      </trkpt>
      <trkpt lat="45.81388" lon="1.90758">
        <ele>707</ele>
        <time>2026-07-07T08:53:01.000Z</time>
      </trkpt>
      <trkpt lat="45.81387" lon="1.90757">
        <ele>706.3</ele>
        <time>2026-07-07T08:53:02.000Z</time>
      </trkpt>
      <trkpt lat="45.81386" lon="1.90756">
        <ele>706.6</ele>
        <time>2026-07-07T08:53:03.000Z</time>
      </trkpt>
      <trkpt lat="45.81385" lon="1.90755">
        <ele>706.1</ele>
        <time>2026-07-07T08:53:04.000Z</time>
      </trkpt>
      <trkpt lat="45.81384" lon="1.90755">
        <ele>705.9</ele>
        <time>2026-07-07T08:53:05.000Z</time>
      </trkpt>
      <trkpt lat="45.81382" lon="1.90755">
        <ele>706.4</ele>
        <time>2026-07-07T08:53:06.000Z</time>
      </trkpt>
      <trkpt lat="45.81381" lon="1.90756">
        <ele>706.7</ele>
        <time>2026-07-07T08:53:07.000Z</time>
      </trkpt>
      <trkpt lat="45.8138" lon="1.90756">
        <ele>706.5</ele>
        <time>2026-07-07T08:53:08.000Z</time>
      </trkpt>
      <trkpt lat="45.81379" lon="1.90758">
        <ele>706.6</ele>
        <time>2026-07-07T08:53:09.000Z</time>
      </trkpt>
      <trkpt lat="45.81378" lon="1.90759">
        <ele>706.9</ele>
        <time>2026-07-07T08:53:10.000Z</time>
      </trkpt>
      <trkpt lat="45.81377" lon="1.90761">
        <ele>707.4</ele>
        <time>2026-07-07T08:53:11.000Z</time>
      </trkpt>
      <trkpt lat="45.81376" lon="1.90762">
        <ele>707.6</ele>
        <time>2026-07-07T08:53:12.000Z</time>
      </trkpt>
      <trkpt lat="45.81375" lon="1.90763">
        <ele>707.7</ele>
        <time>2026-07-07T08:53:13.000Z</time>
      </trkpt>
      <trkpt lat="45.81375" lon="1.90764">
        <ele>708.1</ele>
        <time>2026-07-07T08:53:14.000Z</time>
      </trkpt>
      <trkpt lat="45.81374" lon="1.90766">
        <ele>709</ele>
        <time>2026-07-07T08:53:15.000Z</time>
      </trkpt>
      <trkpt lat="45.81374" lon="1.90767">
        <ele>709</ele>
        <time>2026-07-07T08:53:16.000Z</time>
      </trkpt>
      <trkpt lat="45.81373" lon="1.90769">
        <ele>708.7</ele>
        <time>2026-07-07T08:53:17.000Z</time>
      </trkpt>
      <trkpt lat="45.81373" lon="1.9077">
        <ele>708.2</ele>
        <time>2026-07-07T08:53:18.000Z</time>
      </trkpt>
      <trkpt lat="45.81372" lon="1.90772">
        <ele>708</ele>
        <time>2026-07-07T08:53:19.000Z</time>
      </trkpt>
      <trkpt lat="45.81372" lon="1.90771">
        <ele>707.5</ele>
        <time>2026-07-07T08:53:20.000Z</time>
      </trkpt>
      <trkpt lat="45.81372" lon="1.90773">
        <ele>707.5</ele>
        <time>2026-07-07T08:53:21.000Z</time>
      </trkpt>
      <trkpt lat="45.81372" lon="1.90772">
        <ele>707.4</ele>
        <time>2026-07-07T08:53:22.000Z</time>
      </trkpt>
      <trkpt lat="45.81372" lon="1.90771">
        <ele>707.4</ele>
        <time>2026-07-07T08:53:23.000Z</time>
      </trkpt>
      <trkpt lat="45.81372" lon="1.90771">
        <ele>707.4</ele>
        <time>2026-07-07T08:53:24.000Z</time>
      </trkpt>
      <trkpt lat="45.81372" lon="1.90771">
        <ele>707.5</ele>
        <time>2026-07-07T08:53:25.000Z</time>
      </trkpt>
      <trkpt lat="45.81372" lon="1.90771">
        <ele>707.4</ele>
        <time>2026-07-07T08:53:26.000Z</time>
      </trkpt>
      <trkpt lat="45.81372" lon="1.90771">
        <ele>707.4</ele>
        <time>2026-07-07T08:53:27.000Z</time>
      </trkpt>
      <trkpt lat="45.81372" lon="1.90771">
        <ele>707.4</ele>
        <time>2026-07-07T08:53:28.000Z</time>
      </trkpt>
      <trkpt lat="45.81372" lon="1.90771">
        <ele>707.4</ele>
        <time>2026-07-07T08:53:29.000Z</time>
      </trkpt>
      <trkpt lat="45.81372" lon="1.90771">
        <ele>707.4</ele>
        <time>2026-07-07T08:53:30.000Z</time>
      </trkpt>
      <trkpt lat="45.81372" lon="1.90771">
        <ele>707.4</ele>
        <time>2026-07-07T08:53:31.000Z</time>
      </trkpt>
      <trkpt lat="45.81372" lon="1.90771">
        <ele>707.4</ele>
        <time>2026-07-07T08:53:32.000Z</time>
      </trkpt>
      <trkpt lat="45.81372" lon="1.90771">
        <ele>707.4</ele>
        <time>2026-07-07T08:53:33.000Z</time>
      </trkpt>
      <trkpt lat="45.81372" lon="1.90771">
        <ele>707.4</ele>
        <time>2026-07-07T08:53:34.000Z</time>
      </trkpt>
      <trkpt lat="45.81372" lon="1.90771">
        <ele>708.1</ele>
        <time>2026-07-07T08:53:35.000Z</time>
      </trkpt>
      <trkpt lat="45.81373" lon="1.90772">
        <ele>708.5</ele>
        <time>2026-07-07T08:53:36.000Z</time>
      </trkpt>
      <trkpt lat="45.81373" lon="1.90773">
        <ele>708.8</ele>
        <time>2026-07-07T08:53:37.000Z</time>
      </trkpt>
      <trkpt lat="45.81374" lon="1.90774">
        <ele>709.1</ele>
        <time>2026-07-07T08:53:38.000Z</time>
      </trkpt>
      <trkpt lat="45.81374" lon="1.90775">
        <ele>708.4</ele>
        <time>2026-07-07T08:53:39.000Z</time>
      </trkpt>
      <trkpt lat="45.81375" lon="1.90776">
        <ele>708.4</ele>
        <time>2026-07-07T08:53:40.000Z</time>
      </trkpt>
      <trkpt lat="45.81374" lon="1.90777">
        <ele>708.5</ele>
        <time>2026-07-07T08:53:41.000Z</time>
      </trkpt>
      <trkpt lat="45.81374" lon="1.90777">
        <ele>708.9</ele>
        <time>2026-07-07T08:53:42.000Z</time>
      </trkpt>
      <trkpt lat="45.81373" lon="1.90778">
        <ele>709.6</ele>
        <time>2026-07-07T08:53:43.000Z</time>
      </trkpt>
      <trkpt lat="45.81371" lon="1.90778">
        <ele>710</ele>
        <time>2026-07-07T08:53:44.000Z</time>
      </trkpt>
      <trkpt lat="45.8137" lon="1.90778">
        <ele>710.1</ele>
        <time>2026-07-07T08:53:45.000Z</time>
      </trkpt>
      <trkpt lat="45.81369" lon="1.90779">
        <ele>710.4</ele>
        <time>2026-07-07T08:53:46.000Z</time>
      </trkpt>
      <trkpt lat="45.81368" lon="1.90779">
        <ele>710.5</ele>
        <time>2026-07-07T08:53:47.000Z</time>
      </trkpt>
      <trkpt lat="45.81367" lon="1.9078">
        <ele>710.9</ele>
        <time>2026-07-07T08:53:48.000Z</time>
      </trkpt>
      <trkpt lat="45.81366" lon="1.90781">
        <ele>711.2</ele>
        <time>2026-07-07T08:53:49.000Z</time>
      </trkpt>
      <trkpt lat="45.81366" lon="1.90782">
        <ele>711.4</ele>
        <time>2026-07-07T08:53:50.000Z</time>
      </trkpt>
      <trkpt lat="45.81366" lon="1.90783">
        <ele>711.2</ele>
        <time>2026-07-07T08:53:51.000Z</time>
      </trkpt>
      <trkpt lat="45.81367" lon="1.90783">
        <ele>711.2</ele>
        <time>2026-07-07T08:53:52.000Z</time>
      </trkpt>
      <trkpt lat="45.81367" lon="1.90783">
        <ele>711.3</ele>
        <time>2026-07-07T08:53:53.000Z</time>
      </trkpt>
      <trkpt lat="45.81367" lon="1.90783">
        <ele>710.8</ele>
        <time>2026-07-07T08:53:54.000Z</time>
      </trkpt>
      <trkpt lat="45.81367" lon="1.90783">
        <ele>710.8</ele>
        <time>2026-07-07T08:53:55.000Z</time>
      </trkpt>
      <trkpt lat="45.81367" lon="1.90783">
        <ele>710.8</ele>
        <time>2026-07-07T08:53:56.000Z</time>
      </trkpt>
      <trkpt lat="45.81367" lon="1.90783">
        <ele>710.7</ele>
        <time>2026-07-07T08:53:57.000Z</time>
      </trkpt>
      <trkpt lat="45.81367" lon="1.90782">
        <ele>710.1</ele>
        <time>2026-07-07T08:53:58.000Z</time>
      </trkpt>
      <trkpt lat="45.81367" lon="1.90782">
        <ele>709.9</ele>
        <time>2026-07-07T08:53:59.000Z</time>
      </trkpt>
      <trkpt lat="45.81367" lon="1.90781">
        <ele>709.9</ele>
        <time>2026-07-07T08:54:00.000Z</time>
      </trkpt>
      <trkpt lat="45.81367" lon="1.90781">
        <ele>709.6</ele>
        <time>2026-07-07T08:54:01.000Z</time>
      </trkpt>
      <trkpt lat="45.81367" lon="1.90781">
        <ele>709.6</ele>
        <time>2026-07-07T08:54:02.000Z</time>
      </trkpt>
      <trkpt lat="45.81367" lon="1.90781">
        <ele>709.6</ele>
        <time>2026-07-07T08:54:03.000Z</time>
      </trkpt>
      <trkpt lat="45.81367" lon="1.90781">
        <ele>709.6</ele>
        <time>2026-07-07T08:54:04.000Z</time>
      </trkpt>
      <trkpt lat="45.81367" lon="1.90781">
        <ele>709.6</ele>
        <time>2026-07-07T08:54:05.000Z</time>
      </trkpt>
      <trkpt lat="45.81367" lon="1.90781">
        <ele>709.6</ele>
        <time>2026-07-07T08:54:06.000Z</time>
      </trkpt>
      <trkpt lat="45.81367" lon="1.90781">
        <ele>709.6</ele>
        <time>2026-07-07T08:54:07.000Z</time>
      </trkpt>
      <trkpt lat="45.81367" lon="1.90781">
        <ele>709.6</ele>
        <time>2026-07-07T08:54:08.000Z</time>
      </trkpt>
      <trkpt lat="45.81367" lon="1.90781">
        <ele>709.6</ele>
        <time>2026-07-07T08:54:09.000Z</time>
      </trkpt>
      <trkpt lat="45.81367" lon="1.90781">
        <ele>709.6</ele>
        <time>2026-07-07T08:54:10.000Z</time>
      </trkpt>
      <trkpt lat="45.81367" lon="1.90781">
        <ele>709.6</ele>
        <time>2026-07-07T08:54:11.000Z</time>
      </trkpt>
      <trkpt lat="45.81367" lon="1.90781">
        <ele>709.6</ele>
        <time>2026-07-07T08:54:12.000Z</time>
      </trkpt>
      <trkpt lat="45.81367" lon="1.90781">
        <ele>709.6</ele>
        <time>2026-07-07T08:54:13.000Z</time>
      </trkpt>
      <trkpt lat="45.81367" lon="1.90781">
        <ele>709.6</ele>
        <time>2026-07-07T08:54:14.000Z</time>
      </trkpt>
      <trkpt lat="45.81367" lon="1.90781">
        <ele>709.6</ele>
        <time>2026-07-07T08:54:15.000Z</time>
      </trkpt>
      <trkpt lat="45.81367" lon="1.90781">
        <ele>709.6</ele>
        <time>2026-07-07T08:54:16.000Z</time>
      </trkpt>
      <trkpt lat="45.81367" lon="1.90781">
        <ele>709.6</ele>
        <time>2026-07-07T08:54:17.000Z</time>
      </trkpt>
      <trkpt lat="45.81367" lon="1.90781">
        <ele>709.6</ele>
        <time>2026-07-07T08:54:18.000Z</time>
      </trkpt>
      <trkpt lat="45.81367" lon="1.90781">
        <ele>709.7</ele>
        <time>2026-07-07T08:54:19.000Z</time>
      </trkpt>
      <trkpt lat="45.81367" lon="1.90781">
        <ele>709.7</ele>
        <time>2026-07-07T08:54:20.000Z</time>
      </trkpt>
      <trkpt lat="45.81367" lon="1.90781">
        <ele>709.7</ele>
        <time>2026-07-07T08:54:21.000Z</time>
      </trkpt>
      <trkpt lat="45.81367" lon="1.90781">
        <ele>709.8</ele>
        <time>2026-07-07T08:54:22.000Z</time>
      </trkpt>
      <trkpt lat="45.81367" lon="1.90781">
        <ele>709.8</ele>
        <time>2026-07-07T08:54:23.000Z</time>
      </trkpt>
      <trkpt lat="45.81367" lon="1.90781">
        <ele>709.8</ele>
        <time>2026-07-07T08:54:24.000Z</time>
      </trkpt>
      <trkpt lat="45.81367" lon="1.90781">
        <ele>709.8</ele>
        <time>2026-07-07T08:54:25.000Z</time>
      </trkpt>
      <trkpt lat="45.81367" lon="1.90781">
        <ele>709.8</ele>
        <time>2026-07-07T08:54:26.000Z</time>
      </trkpt>
      <trkpt lat="45.81367" lon="1.90781">
        <ele>709.8</ele>
        <time>2026-07-07T08:54:27.000Z</time>
      </trkpt>
      <trkpt lat="45.81366" lon="1.9078">
        <ele>709.7</ele>
        <time>2026-07-07T08:54:28.000Z</time>
      </trkpt>
      <trkpt lat="45.81366" lon="1.9078">
        <ele>709.8</ele>
        <time>2026-07-07T08:54:29.000Z</time>
      </trkpt>
      <trkpt lat="45.81366" lon="1.9078">
        <ele>709.6</ele>
        <time>2026-07-07T08:54:30.000Z</time>
      </trkpt>
      <trkpt lat="45.81366" lon="1.9078">
        <ele>709.6</ele>
        <time>2026-07-07T08:54:31.000Z</time>
      </trkpt>
      <trkpt lat="45.81366" lon="1.9078">
        <ele>709.6</ele>
        <time>2026-07-07T08:54:32.000Z</time>
      </trkpt>
      <trkpt lat="45.81366" lon="1.9078">
        <ele>709.6</ele>
        <time>2026-07-07T08:54:33.000Z</time>
      </trkpt>
      <trkpt lat="45.81366" lon="1.9078">
        <ele>709.5</ele>
        <time>2026-07-07T08:54:34.000Z</time>
      </trkpt>
      <trkpt lat="45.81366" lon="1.9078">
        <ele>709.4</ele>
        <time>2026-07-07T08:54:35.000Z</time>
      </trkpt>
      <trkpt lat="45.81365" lon="1.9078">
        <ele>709.6</ele>
        <time>2026-07-07T08:54:36.000Z</time>
      </trkpt>
      <trkpt lat="45.81365" lon="1.9078">
        <ele>709.5</ele>
        <time>2026-07-07T08:54:37.000Z</time>
      </trkpt>
      <trkpt lat="45.81365" lon="1.9078">
        <ele>709.5</ele>
        <time>2026-07-07T08:54:38.000Z</time>
      </trkpt>
      <trkpt lat="45.81365" lon="1.9078">
        <ele>709.5</ele>
        <time>2026-07-07T08:54:39.000Z</time>
      </trkpt>
      <trkpt lat="45.81365" lon="1.9078">
        <ele>709.5</ele>
        <time>2026-07-07T08:54:40.000Z</time>
      </trkpt>
      <trkpt lat="45.81365" lon="1.9078">
        <ele>709.5</ele>
        <time>2026-07-07T08:54:41.000Z</time>
      </trkpt>
      <trkpt lat="45.81365" lon="1.9078">
        <ele>709.5</ele>
        <time>2026-07-07T08:54:42.000Z</time>
      </trkpt>
      <trkpt lat="45.81365" lon="1.9078">
        <ele>709.5</ele>
        <time>2026-07-07T08:54:43.000Z</time>
      </trkpt>
      <trkpt lat="45.81365" lon="1.9078">
        <ele>709.5</ele>
        <time>2026-07-07T08:54:44.000Z</time>
      </trkpt>
      <trkpt lat="45.81365" lon="1.9078">
        <ele>709.5</ele>
        <time>2026-07-07T08:54:45.000Z</time>
      </trkpt>
      <trkpt lat="45.81365" lon="1.9078">
        <ele>709.6</ele>
        <time>2026-07-07T08:54:46.000Z</time>
      </trkpt>
      <trkpt lat="45.81365" lon="1.9078">
        <ele>709.4</ele>
        <time>2026-07-07T08:54:47.000Z</time>
      </trkpt>
      <trkpt lat="45.81364" lon="1.90781">
        <ele>709.5</ele>
        <time>2026-07-07T08:54:48.000Z</time>
      </trkpt>
      <trkpt lat="45.81364" lon="1.90781">
        <ele>709.5</ele>
        <time>2026-07-07T08:54:49.000Z</time>
      </trkpt>
      <trkpt lat="45.81364" lon="1.90781">
        <ele>709.5</ele>
        <time>2026-07-07T08:54:50.000Z</time>
      </trkpt>
      <trkpt lat="45.81364" lon="1.90781">
        <ele>709.5</ele>
        <time>2026-07-07T08:54:51.000Z</time>
      </trkpt>
      <trkpt lat="45.81364" lon="1.90781">
        <ele>709.5</ele>
        <time>2026-07-07T08:54:52.000Z</time>
      </trkpt>
      <trkpt lat="45.81364" lon="1.90781">
        <ele>709.5</ele>
        <time>2026-07-07T08:54:53.000Z</time>
      </trkpt>
      <trkpt lat="45.81364" lon="1.90781">
        <ele>709.5</ele>
        <time>2026-07-07T08:54:54.000Z</time>
      </trkpt>
      <trkpt lat="45.81364" lon="1.90781">
        <ele>709.5</ele>
        <time>2026-07-07T08:54:55.000Z</time>
      </trkpt>
      <trkpt lat="45.81364" lon="1.90781">
        <ele>709.5</ele>
        <time>2026-07-07T08:54:56.000Z</time>
      </trkpt>
      <trkpt lat="45.81364" lon="1.90781">
        <ele>709.5</ele>
        <time>2026-07-07T08:54:57.000Z</time>
      </trkpt>
      <trkpt lat="45.81364" lon="1.90781">
        <ele>709.5</ele>
        <time>2026-07-07T08:54:58.000Z</time>
      </trkpt>
      <trkpt lat="45.81364" lon="1.90781">
        <ele>709.5</ele>
        <time>2026-07-07T08:54:59.000Z</time>
      </trkpt>
      <trkpt lat="45.81364" lon="1.90781">
        <ele>709.5</ele>
        <time>2026-07-07T08:55:00.000Z</time>
      </trkpt>
      <trkpt lat="45.81364" lon="1.90781">
        <ele>709.5</ele>
        <time>2026-07-07T08:55:01.000Z</time>
      </trkpt>
      <trkpt lat="45.81364" lon="1.90781">
        <ele>709.5</ele>
        <time>2026-07-07T08:55:02.000Z</time>
      </trkpt>
      <trkpt lat="45.81364" lon="1.90781">
        <ele>709.5</ele>
        <time>2026-07-07T08:55:03.000Z</time>
      </trkpt>
      <trkpt lat="45.81364" lon="1.90781">
        <ele>709.6</ele>
        <time>2026-07-07T08:55:04.000Z</time>
      </trkpt>
      <trkpt lat="45.81364" lon="1.90781">
        <ele>709.7</ele>
        <time>2026-07-07T08:55:05.000Z</time>
      </trkpt>
      <trkpt lat="45.81364" lon="1.90781">
        <ele>709.7</ele>
        <time>2026-07-07T08:55:06.000Z</time>
      </trkpt>
      <trkpt lat="45.81364" lon="1.90781">
        <ele>709.7</ele>
        <time>2026-07-07T08:55:07.000Z</time>
      </trkpt>
      <trkpt lat="45.81364" lon="1.90781">
        <ele>709.7</ele>
        <time>2026-07-07T08:55:08.000Z</time>
      </trkpt>
      <trkpt lat="45.81364" lon="1.90781">
        <ele>709.7</ele>
        <time>2026-07-07T08:55:09.000Z</time>
      </trkpt>
      <trkpt lat="45.81364" lon="1.90781">
        <ele>709.6</ele>
        <time>2026-07-07T08:55:10.000Z</time>
      </trkpt>
      <trkpt lat="45.81364" lon="1.90781">
        <ele>709.6</ele>
        <time>2026-07-07T08:55:11.000Z</time>
      </trkpt>
      <trkpt lat="45.81364" lon="1.90781">
        <ele>709.7</ele>
        <time>2026-07-07T08:55:12.000Z</time>
      </trkpt>
      <trkpt lat="45.81364" lon="1.90781">
        <ele>709.7</ele>
        <time>2026-07-07T08:55:13.000Z</time>
      </trkpt>
      <trkpt lat="45.81364" lon="1.90781">
        <ele>709.7</ele>
        <time>2026-07-07T08:55:14.000Z</time>
      </trkpt>
      <trkpt lat="45.81364" lon="1.90781">
        <ele>709.7</ele>
        <time>2026-07-07T08:55:15.000Z</time>
      </trkpt>
      <trkpt lat="45.81364" lon="1.90781">
        <ele>709.6</ele>
        <time>2026-07-07T08:55:16.000Z</time>
      </trkpt>
      <trkpt lat="45.81364" lon="1.90781">
        <ele>709.7</ele>
        <time>2026-07-07T08:55:17.000Z</time>
      </trkpt>
      <trkpt lat="45.81364" lon="1.90781">
        <ele>709.7</ele>
        <time>2026-07-07T08:55:18.000Z</time>
      </trkpt>
      <trkpt lat="45.81364" lon="1.90781">
        <ele>709.7</ele>
        <time>2026-07-07T08:55:19.000Z</time>
      </trkpt>
      <trkpt lat="45.81364" lon="1.90781">
        <ele>709.7</ele>
        <time>2026-07-07T08:55:20.000Z</time>
      </trkpt>
      <trkpt lat="45.81364" lon="1.90781">
        <ele>709.7</ele>
        <time>2026-07-07T08:55:21.000Z</time>
      </trkpt>
      <trkpt lat="45.81364" lon="1.90781">
        <ele>709.5</ele>
        <time>2026-07-07T08:55:22.000Z</time>
      </trkpt>
      <trkpt lat="45.81364" lon="1.90782">
        <ele>709.2</ele>
        <time>2026-07-07T08:55:23.000Z</time>
      </trkpt>
      <trkpt lat="45.81364" lon="1.90782">
        <ele>709.2</ele>
        <time>2026-07-07T08:55:24.000Z</time>
      </trkpt>
      <trkpt lat="45.81364" lon="1.90782">
        <ele>709.2</ele>
        <time>2026-07-07T08:55:25.000Z</time>
      </trkpt>
      <trkpt lat="45.81364" lon="1.90782">
        <ele>709.2</ele>
        <time>2026-07-07T08:55:26.000Z</time>
      </trkpt>
      <trkpt lat="45.81364" lon="1.90782">
        <ele>708.8</ele>
        <time>2026-07-07T08:55:27.000Z</time>
      </trkpt>
      <trkpt lat="45.81365" lon="1.90782">
        <ele>708</ele>
        <time>2026-07-07T08:55:28.000Z</time>
      </trkpt>
      <trkpt lat="45.81364" lon="1.90783">
        <ele>707.8</ele>
        <time>2026-07-07T08:55:29.000Z</time>
      </trkpt>
      <trkpt lat="45.81364" lon="1.90783">
        <ele>707.8</ele>
        <time>2026-07-07T08:55:30.000Z</time>
      </trkpt>
      <trkpt lat="45.81364" lon="1.90783">
        <ele>707.8</ele>
        <time>2026-07-07T08:55:31.000Z</time>
      </trkpt>
      <trkpt lat="45.81364" lon="1.90783">
        <ele>707.7</ele>
        <time>2026-07-07T08:55:32.000Z</time>
      </trkpt>
      <trkpt lat="45.81364" lon="1.90783">
        <ele>708.4</ele>
        <time>2026-07-07T08:55:33.000Z</time>
      </trkpt>
      <trkpt lat="45.81363" lon="1.90783">
        <ele>708.9</ele>
        <time>2026-07-07T08:55:34.000Z</time>
      </trkpt>
      <trkpt lat="45.81363" lon="1.90783">
        <ele>708.9</ele>
        <time>2026-07-07T08:55:35.000Z</time>
      </trkpt>
      <trkpt lat="45.81363" lon="1.90784">
        <ele>708.9</ele>
        <time>2026-07-07T08:55:36.000Z</time>
      </trkpt>
      <trkpt lat="45.81363" lon="1.90784">
        <ele>708.9</ele>
        <time>2026-07-07T08:55:37.000Z</time>
      </trkpt>
      <trkpt lat="45.81363" lon="1.90784">
        <ele>708.7</ele>
        <time>2026-07-07T08:55:38.000Z</time>
      </trkpt>
      <trkpt lat="45.81363" lon="1.90784">
        <ele>708.7</ele>
        <time>2026-07-07T08:55:39.000Z</time>
      </trkpt>
      <trkpt lat="45.81363" lon="1.90784">
        <ele>708.7</ele>
        <time>2026-07-07T08:55:40.000Z</time>
      </trkpt>
      <trkpt lat="45.81363" lon="1.90784">
        <ele>708.7</ele>
        <time>2026-07-07T08:55:41.000Z</time>
      </trkpt>
      <trkpt lat="45.81363" lon="1.90784">
        <ele>708.7</ele>
        <time>2026-07-07T08:55:42.000Z</time>
      </trkpt>
      <trkpt lat="45.81363" lon="1.90784">
        <ele>708.7</ele>
        <time>2026-07-07T08:55:43.000Z</time>
      </trkpt>
      <trkpt lat="45.81363" lon="1.90784">
        <ele>708.7</ele>
        <time>2026-07-07T08:55:44.000Z</time>
      </trkpt>
      <trkpt lat="45.81363" lon="1.90784">
        <ele>708.7</ele>
        <time>2026-07-07T08:55:45.000Z</time>
      </trkpt>
      <trkpt lat="45.81363" lon="1.90784">
        <ele>708.7</ele>
        <time>2026-07-07T08:55:46.000Z</time>
      </trkpt>
      <trkpt lat="45.81363" lon="1.90784">
        <ele>708.7</ele>
        <time>2026-07-07T08:55:47.000Z</time>
      </trkpt>
      <trkpt lat="45.81363" lon="1.90784">
        <ele>708.7</ele>
        <time>2026-07-07T08:55:48.000Z</time>
      </trkpt>
      <trkpt lat="45.81363" lon="1.90784">
        <ele>708.6</ele>
        <time>2026-07-07T08:55:49.000Z</time>
      </trkpt>
      <trkpt lat="45.81363" lon="1.90784">
        <ele>708.6</ele>
        <time>2026-07-07T08:55:50.000Z</time>
      </trkpt>
      <trkpt lat="45.81363" lon="1.90784">
        <ele>708.6</ele>
        <time>2026-07-07T08:55:51.000Z</time>
      </trkpt>
      <trkpt lat="45.81363" lon="1.90784">
        <ele>708.6</ele>
        <time>2026-07-07T08:55:52.000Z</time>
      </trkpt>
      <trkpt lat="45.81364" lon="1.90784">
        <ele>709</ele>
        <time>2026-07-07T08:55:53.000Z</time>
      </trkpt>
      <trkpt lat="45.81363" lon="1.90784">
        <ele>708.9</ele>
        <time>2026-07-07T08:55:54.000Z</time>
      </trkpt>
      <trkpt lat="45.81364" lon="1.90784">
        <ele>708.9</ele>
        <time>2026-07-07T08:55:55.000Z</time>
      </trkpt>
      <trkpt lat="45.81364" lon="1.90784">
        <ele>708.9</ele>
        <time>2026-07-07T08:55:56.000Z</time>
      </trkpt>
      <trkpt lat="45.81364" lon="1.90784">
        <ele>708.9</ele>
        <time>2026-07-07T08:55:57.000Z</time>
      </trkpt>
      <trkpt lat="45.81364" lon="1.90784">
        <ele>708.9</ele>
        <time>2026-07-07T08:55:58.000Z</time>
      </trkpt>
      <trkpt lat="45.81364" lon="1.90784">
        <ele>708.9</ele>
        <time>2026-07-07T08:55:59.000Z</time>
      </trkpt>
      <trkpt lat="45.81364" lon="1.90784">
        <ele>708.9</ele>
        <time>2026-07-07T08:56:00.000Z</time>
      </trkpt>
      <trkpt lat="45.81364" lon="1.90784">
        <ele>708.9</ele>
        <time>2026-07-07T08:56:01.000Z</time>
      </trkpt>
      <trkpt lat="45.81364" lon="1.90784">
        <ele>708.9</ele>
        <time>2026-07-07T08:56:02.000Z</time>
      </trkpt>
      <trkpt lat="45.81364" lon="1.90784">
        <ele>708.9</ele>
        <time>2026-07-07T08:56:03.000Z</time>
      </trkpt>
      <trkpt lat="45.81364" lon="1.90784">
        <ele>708.8</ele>
        <time>2026-07-07T08:56:04.000Z</time>
      </trkpt>
      <trkpt lat="45.81364" lon="1.90784">
        <ele>709.2</ele>
        <time>2026-07-07T08:56:05.000Z</time>
      </trkpt>
      <trkpt lat="45.81364" lon="1.90784">
        <ele>709.2</ele>
        <time>2026-07-07T08:56:06.000Z</time>
      </trkpt>
      <trkpt lat="45.81364" lon="1.90784">
        <ele>709.2</ele>
        <time>2026-07-07T08:56:07.000Z</time>
      </trkpt>
      <trkpt lat="45.81364" lon="1.90784">
        <ele>709.2</ele>
        <time>2026-07-07T08:56:08.000Z</time>
      </trkpt>
      <trkpt lat="45.81364" lon="1.90784">
        <ele>709.2</ele>
        <time>2026-07-07T08:56:09.000Z</time>
      </trkpt>
      <trkpt lat="45.81364" lon="1.90784">
        <ele>708.8</ele>
        <time>2026-07-07T08:56:10.000Z</time>
      </trkpt>
      <trkpt lat="45.81364" lon="1.90784">
        <ele>708.8</ele>
        <time>2026-07-07T08:56:11.000Z</time>
      </trkpt>
      <trkpt lat="45.81364" lon="1.90784">
        <ele>708.9</ele>
        <time>2026-07-07T08:56:12.000Z</time>
      </trkpt>
      <trkpt lat="45.81364" lon="1.90784">
        <ele>708.9</ele>
        <time>2026-07-07T08:56:13.000Z</time>
      </trkpt>
      <trkpt lat="45.81364" lon="1.90784">
        <ele>708.4</ele>
        <time>2026-07-07T08:56:14.000Z</time>
      </trkpt>
      <trkpt lat="45.81364" lon="1.90784">
        <ele>708.8</ele>
        <time>2026-07-07T08:56:15.000Z</time>
      </trkpt>
      <trkpt lat="45.81365" lon="1.90784">
        <ele>708.8</ele>
        <time>2026-07-07T08:56:16.000Z</time>
      </trkpt>
      <trkpt lat="45.81365" lon="1.90784">
        <ele>708.8</ele>
        <time>2026-07-07T08:56:17.000Z</time>
      </trkpt>
      <trkpt lat="45.81365" lon="1.90784">
        <ele>708.8</ele>
        <time>2026-07-07T08:56:18.000Z</time>
      </trkpt>
      <trkpt lat="45.81365" lon="1.90783">
        <ele>708.5</ele>
        <time>2026-07-07T08:56:19.000Z</time>
      </trkpt>
      <trkpt lat="45.81365" lon="1.90783">
        <ele>708.5</ele>
        <time>2026-07-07T08:56:20.000Z</time>
      </trkpt>
      <trkpt lat="45.81365" lon="1.90783">
        <ele>708.5</ele>
        <time>2026-07-07T08:56:21.000Z</time>
      </trkpt>
      <trkpt lat="45.81365" lon="1.90784">
        <ele>708.2</ele>
        <time>2026-07-07T08:56:22.000Z</time>
      </trkpt>
      <trkpt lat="45.81365" lon="1.90784">
        <ele>708.1</ele>
        <time>2026-07-07T08:56:23.000Z</time>
      </trkpt>
      <trkpt lat="45.81365" lon="1.90784">
        <ele>708.1</ele>
        <time>2026-07-07T08:56:24.000Z</time>
      </trkpt>
      <trkpt lat="45.81365" lon="1.90784">
        <ele>708.1</ele>
        <time>2026-07-07T08:56:25.000Z</time>
      </trkpt>
      <trkpt lat="45.81365" lon="1.90784">
        <ele>708.1</ele>
        <time>2026-07-07T08:56:26.000Z</time>
      </trkpt>
      <trkpt lat="45.81365" lon="1.90784">
        <ele>708.1</ele>
        <time>2026-07-07T08:56:27.000Z</time>
      </trkpt>
      <trkpt lat="45.81366" lon="1.90784">
        <ele>708.2</ele>
        <time>2026-07-07T08:56:28.000Z</time>
      </trkpt>
      <trkpt lat="45.81366" lon="1.90783">
        <ele>708.2</ele>
        <time>2026-07-07T08:56:29.000Z</time>
      </trkpt>
      <trkpt lat="45.81366" lon="1.90783">
        <ele>708</ele>
        <time>2026-07-07T08:56:30.000Z</time>
      </trkpt>
      <trkpt lat="45.81366" lon="1.90784">
        <ele>708</ele>
        <time>2026-07-07T08:56:31.000Z</time>
      </trkpt>
      <trkpt lat="45.81366" lon="1.90784">
        <ele>708</ele>
        <time>2026-07-07T08:56:32.000Z</time>
      </trkpt>
      <trkpt lat="45.81366" lon="1.90784">
        <ele>708</ele>
        <time>2026-07-07T08:56:33.000Z</time>
      </trkpt>
      <trkpt lat="45.81365" lon="1.90784">
        <ele>708.1</ele>
        <time>2026-07-07T08:56:34.000Z</time>
      </trkpt>
      <trkpt lat="45.81365" lon="1.90784">
        <ele>708.1</ele>
        <time>2026-07-07T08:56:35.000Z</time>
      </trkpt>
      <trkpt lat="45.81365" lon="1.90784">
        <ele>708.1</ele>
        <time>2026-07-07T08:56:36.000Z</time>
      </trkpt>
      <trkpt lat="45.81365" lon="1.90784">
        <ele>708</ele>
        <time>2026-07-07T08:56:37.000Z</time>
      </trkpt>
      <trkpt lat="45.81365" lon="1.90784">
        <ele>708</ele>
        <time>2026-07-07T08:56:38.000Z</time>
      </trkpt>
      <trkpt lat="45.81366" lon="1.90784">
        <ele>708.3</ele>
        <time>2026-07-07T08:56:39.000Z</time>
      </trkpt>
      <trkpt lat="45.81366" lon="1.90783">
        <ele>708.2</ele>
        <time>2026-07-07T08:56:40.000Z</time>
      </trkpt>
      <trkpt lat="45.81366" lon="1.90783">
        <ele>709.2</ele>
        <time>2026-07-07T08:56:41.000Z</time>
      </trkpt>
      <trkpt lat="45.81367" lon="1.90783">
        <ele>709.9</ele>
        <time>2026-07-07T08:56:42.000Z</time>
      </trkpt>
      <trkpt lat="45.81368" lon="1.90783">
        <ele>710</ele>
        <time>2026-07-07T08:56:43.000Z</time>
      </trkpt>
      <trkpt lat="45.81368" lon="1.90783">
        <ele>709.5</ele>
        <time>2026-07-07T08:56:44.000Z</time>
      </trkpt>
      <trkpt lat="45.81369" lon="1.90783">
        <ele>709</ele>
        <time>2026-07-07T08:56:45.000Z</time>
      </trkpt>
      <trkpt lat="45.81369" lon="1.90782">
        <ele>708.8</ele>
        <time>2026-07-07T08:56:46.000Z</time>
      </trkpt>
      <trkpt lat="45.81369" lon="1.90781">
        <ele>708.5</ele>
        <time>2026-07-07T08:56:47.000Z</time>
      </trkpt>
      <trkpt lat="45.81368" lon="1.9078">
        <ele>708.6</ele>
        <time>2026-07-07T08:56:48.000Z</time>
      </trkpt>
      <trkpt lat="45.81367" lon="1.90781">
        <ele>708.6</ele>
        <time>2026-07-07T08:56:49.000Z</time>
      </trkpt>
      <trkpt lat="45.81367" lon="1.90781">
        <ele>708.7</ele>
        <time>2026-07-07T08:56:50.000Z</time>
      </trkpt>
      <trkpt lat="45.81365" lon="1.9078">
        <ele>708.9</ele>
        <time>2026-07-07T08:56:51.000Z</time>
      </trkpt>
      <trkpt lat="45.81364" lon="1.9078">
        <ele>709.7</ele>
        <time>2026-07-07T08:56:52.000Z</time>
      </trkpt>
      <trkpt lat="45.81362" lon="1.9078">
        <ele>709.8</ele>
        <time>2026-07-07T08:56:53.000Z</time>
      </trkpt>
      <trkpt lat="45.8136" lon="1.9078">
        <ele>709.2</ele>
        <time>2026-07-07T08:56:54.000Z</time>
      </trkpt>
      <trkpt lat="45.81358" lon="1.9078">
        <ele>709.7</ele>
        <time>2026-07-07T08:56:55.000Z</time>
      </trkpt>
      <trkpt lat="45.81357" lon="1.90779">
        <ele>709.6</ele>
        <time>2026-07-07T08:56:56.000Z</time>
      </trkpt>
      <trkpt lat="45.81355" lon="1.90779">
        <ele>710.3</ele>
        <time>2026-07-07T08:56:57.000Z</time>
      </trkpt>
      <trkpt lat="45.81353" lon="1.90778">
        <ele>711</ele>
        <time>2026-07-07T08:56:58.000Z</time>
      </trkpt>
      <trkpt lat="45.81352" lon="1.90777">
        <ele>711</ele>
        <time>2026-07-07T08:56:59.000Z</time>
      </trkpt>
      <trkpt lat="45.8135" lon="1.90775">
        <ele>711.3</ele>
        <time>2026-07-07T08:57:00.000Z</time>
      </trkpt>
      <trkpt lat="45.81349" lon="1.90774">
        <ele>713.6</ele>
        <time>2026-07-07T08:57:01.000Z</time>
      </trkpt>
      <trkpt lat="45.81347" lon="1.90773">
        <ele>713.1</ele>
        <time>2026-07-07T08:57:02.000Z</time>
      </trkpt>
      <trkpt lat="45.81345" lon="1.90772">
        <ele>712.8</ele>
        <time>2026-07-07T08:57:03.000Z</time>
      </trkpt>
      <trkpt lat="45.81344" lon="1.90772">
        <ele>713.6</ele>
        <time>2026-07-07T08:57:04.000Z</time>
      </trkpt>
      <trkpt lat="45.81342" lon="1.90773">
        <ele>713.5</ele>
        <time>2026-07-07T08:57:05.000Z</time>
      </trkpt>
      <trkpt lat="45.81341" lon="1.90773">
        <ele>713.4</ele>
        <time>2026-07-07T08:57:06.000Z</time>
      </trkpt>
      <trkpt lat="45.81339" lon="1.90773">
        <ele>713.1</ele>
        <time>2026-07-07T08:57:07.000Z</time>
      </trkpt>
      <trkpt lat="45.81338" lon="1.90773">
        <ele>712.7</ele>
        <time>2026-07-07T08:57:08.000Z</time>
      </trkpt>
      <trkpt lat="45.81336" lon="1.90773">
        <ele>712.1</ele>
        <time>2026-07-07T08:57:09.000Z</time>
      </trkpt>
      <trkpt lat="45.81335" lon="1.90773">
        <ele>712.2</ele>
        <time>2026-07-07T08:57:10.000Z</time>
      </trkpt>
      <trkpt lat="45.81333" lon="1.90773">
        <ele>712.4</ele>
        <time>2026-07-07T08:57:11.000Z</time>
      </trkpt>
      <trkpt lat="45.81332" lon="1.90773">
        <ele>712.3</ele>
        <time>2026-07-07T08:57:12.000Z</time>
      </trkpt>
      <trkpt lat="45.8133" lon="1.90773">
        <ele>712.5</ele>
        <time>2026-07-07T08:57:13.000Z</time>
      </trkpt>
      <trkpt lat="45.81328" lon="1.90772">
        <ele>712.9</ele>
        <time>2026-07-07T08:57:14.000Z</time>
      </trkpt>
      <trkpt lat="45.81327" lon="1.90772">
        <ele>713.2</ele>
        <time>2026-07-07T08:57:15.000Z</time>
      </trkpt>
      <trkpt lat="45.81325" lon="1.90772">
        <ele>712.9</ele>
        <time>2026-07-07T08:57:16.000Z</time>
      </trkpt>
      <trkpt lat="45.81324" lon="1.90772">
        <ele>712.5</ele>
        <time>2026-07-07T08:57:17.000Z</time>
      </trkpt>
      <trkpt lat="45.81323" lon="1.90771">
        <ele>712.4</ele>
        <time>2026-07-07T08:57:18.000Z</time>
      </trkpt>
      <trkpt lat="45.81322" lon="1.90771">
        <ele>711.9</ele>
        <time>2026-07-07T08:57:19.000Z</time>
      </trkpt>
      <trkpt lat="45.81321" lon="1.90771">
        <ele>712.1</ele>
        <time>2026-07-07T08:57:20.000Z</time>
      </trkpt>
      <trkpt lat="45.81319" lon="1.9077">
        <ele>712.7</ele>
        <time>2026-07-07T08:57:21.000Z</time>
      </trkpt>
      <trkpt lat="45.81318" lon="1.9077">
        <ele>712.9</ele>
        <time>2026-07-07T08:57:22.000Z</time>
      </trkpt>
      <trkpt lat="45.81316" lon="1.90769">
        <ele>713.1</ele>
        <time>2026-07-07T08:57:23.000Z</time>
      </trkpt>
      <trkpt lat="45.81314" lon="1.90769">
        <ele>713.6</ele>
        <time>2026-07-07T08:57:24.000Z</time>
      </trkpt>
      <trkpt lat="45.81313" lon="1.9077">
        <ele>713.8</ele>
        <time>2026-07-07T08:57:25.000Z</time>
      </trkpt>
      <trkpt lat="45.81312" lon="1.9077">
        <ele>714.2</ele>
        <time>2026-07-07T08:57:26.000Z</time>
      </trkpt>
      <trkpt lat="45.8131" lon="1.90769">
        <ele>714.1</ele>
        <time>2026-07-07T08:57:27.000Z</time>
      </trkpt>
      <trkpt lat="45.81309" lon="1.90769">
        <ele>715</ele>
        <time>2026-07-07T08:57:28.000Z</time>
      </trkpt>
      <trkpt lat="45.81307" lon="1.90769">
        <ele>715.9</ele>
        <time>2026-07-07T08:57:29.000Z</time>
      </trkpt>
      <trkpt lat="45.81305" lon="1.90769">
        <ele>716.7</ele>
        <time>2026-07-07T08:57:30.000Z</time>
      </trkpt>
      <trkpt lat="45.81304" lon="1.90769">
        <ele>716.8</ele>
        <time>2026-07-07T08:57:31.000Z</time>
      </trkpt>
      <trkpt lat="45.81302" lon="1.90768">
        <ele>717.2</ele>
        <time>2026-07-07T08:57:32.000Z</time>
      </trkpt>
      <trkpt lat="45.81301" lon="1.90768">
        <ele>717.7</ele>
        <time>2026-07-07T08:57:33.000Z</time>
      </trkpt>
      <trkpt lat="45.813" lon="1.90768">
        <ele>717.5</ele>
        <time>2026-07-07T08:57:34.000Z</time>
      </trkpt>
      <trkpt lat="45.81298" lon="1.90768">
        <ele>717.9</ele>
        <time>2026-07-07T08:57:35.000Z</time>
      </trkpt>
      <trkpt lat="45.81297" lon="1.90768">
        <ele>718.2</ele>
        <time>2026-07-07T08:57:36.000Z</time>
      </trkpt>
      <trkpt lat="45.81295" lon="1.90767">
        <ele>718.7</ele>
        <time>2026-07-07T08:57:37.000Z</time>
      </trkpt>
      <trkpt lat="45.81294" lon="1.90767">
        <ele>719.3</ele>
        <time>2026-07-07T08:57:38.000Z</time>
      </trkpt>
      <trkpt lat="45.81293" lon="1.90767">
        <ele>719.7</ele>
        <time>2026-07-07T08:57:39.000Z</time>
      </trkpt>
      <trkpt lat="45.81291" lon="1.90766">
        <ele>720</ele>
        <time>2026-07-07T08:57:40.000Z</time>
      </trkpt>
      <trkpt lat="45.8129" lon="1.90766">
        <ele>720.2</ele>
        <time>2026-07-07T08:57:41.000Z</time>
      </trkpt>
      <trkpt lat="45.81289" lon="1.90766">
        <ele>720.3</ele>
        <time>2026-07-07T08:57:42.000Z</time>
      </trkpt>
      <trkpt lat="45.81288" lon="1.90766">
        <ele>720.6</ele>
        <time>2026-07-07T08:57:43.000Z</time>
      </trkpt>
      <trkpt lat="45.81286" lon="1.90765">
        <ele>720.8</ele>
        <time>2026-07-07T08:57:44.000Z</time>
      </trkpt>
      <trkpt lat="45.81285" lon="1.90765">
        <ele>721.2</ele>
        <time>2026-07-07T08:57:45.000Z</time>
      </trkpt>
      <trkpt lat="45.81283" lon="1.90765">
        <ele>721.5</ele>
        <time>2026-07-07T08:57:46.000Z</time>
      </trkpt>
      <trkpt lat="45.81282" lon="1.90764">
        <ele>721.5</ele>
        <time>2026-07-07T08:57:47.000Z</time>
      </trkpt>
      <trkpt lat="45.81281" lon="1.90764">
        <ele>721.7</ele>
        <time>2026-07-07T08:57:48.000Z</time>
      </trkpt>
      <trkpt lat="45.81279" lon="1.90763">
        <ele>721.8</ele>
        <time>2026-07-07T08:57:49.000Z</time>
      </trkpt>
      <trkpt lat="45.81278" lon="1.90763">
        <ele>722.1</ele>
        <time>2026-07-07T08:57:50.000Z</time>
      </trkpt>
      <trkpt lat="45.81277" lon="1.90762">
        <ele>722</ele>
        <time>2026-07-07T08:57:51.000Z</time>
      </trkpt>
      <trkpt lat="45.81275" lon="1.90762">
        <ele>722.1</ele>
        <time>2026-07-07T08:57:52.000Z</time>
      </trkpt>
      <trkpt lat="45.81274" lon="1.90761">
        <ele>722.1</ele>
        <time>2026-07-07T08:57:53.000Z</time>
      </trkpt>
      <trkpt lat="45.81273" lon="1.9076">
        <ele>722.2</ele>
        <time>2026-07-07T08:57:54.000Z</time>
      </trkpt>
      <trkpt lat="45.81271" lon="1.90759">
        <ele>722.4</ele>
        <time>2026-07-07T08:57:55.000Z</time>
      </trkpt>
      <trkpt lat="45.8127" lon="1.90758">
        <ele>722.4</ele>
        <time>2026-07-07T08:57:56.000Z</time>
      </trkpt>
      <trkpt lat="45.81269" lon="1.90758">
        <ele>722.6</ele>
        <time>2026-07-07T08:57:57.000Z</time>
      </trkpt>
      <trkpt lat="45.81267" lon="1.90757">
        <ele>723</ele>
        <time>2026-07-07T08:57:58.000Z</time>
      </trkpt>
      <trkpt lat="45.81266" lon="1.90756">
        <ele>723</ele>
        <time>2026-07-07T08:57:59.000Z</time>
      </trkpt>
      <trkpt lat="45.81264" lon="1.90756">
        <ele>723.2</ele>
        <time>2026-07-07T08:58:00.000Z</time>
      </trkpt>
      <trkpt lat="45.81263" lon="1.90756">
        <ele>723.5</ele>
        <time>2026-07-07T08:58:01.000Z</time>
      </trkpt>
      <trkpt lat="45.81262" lon="1.90755">
        <ele>723.6</ele>
        <time>2026-07-07T08:58:02.000Z</time>
      </trkpt>
      <trkpt lat="45.8126" lon="1.90754">
        <ele>723.3</ele>
        <time>2026-07-07T08:58:03.000Z</time>
      </trkpt>
      <trkpt lat="45.81259" lon="1.90753">
        <ele>723.4</ele>
        <time>2026-07-07T08:58:04.000Z</time>
      </trkpt>
      <trkpt lat="45.81258" lon="1.90753">
        <ele>723.3</ele>
        <time>2026-07-07T08:58:05.000Z</time>
      </trkpt>
      <trkpt lat="45.81256" lon="1.90752">
        <ele>723.5</ele>
        <time>2026-07-07T08:58:06.000Z</time>
      </trkpt>
      <trkpt lat="45.81255" lon="1.90752">
        <ele>723.6</ele>
        <time>2026-07-07T08:58:07.000Z</time>
      </trkpt>
      <trkpt lat="45.81253" lon="1.90751">
        <ele>723.4</ele>
        <time>2026-07-07T08:58:08.000Z</time>
      </trkpt>
      <trkpt lat="45.81252" lon="1.90751">
        <ele>723.5</ele>
        <time>2026-07-07T08:58:09.000Z</time>
      </trkpt>
      <trkpt lat="45.8125" lon="1.9075">
        <ele>724.1</ele>
        <time>2026-07-07T08:58:10.000Z</time>
      </trkpt>
      <trkpt lat="45.81249" lon="1.90749">
        <ele>724.7</ele>
        <time>2026-07-07T08:58:11.000Z</time>
      </trkpt>
      <trkpt lat="45.81248" lon="1.90749">
        <ele>724.8</ele>
        <time>2026-07-07T08:58:12.000Z</time>
      </trkpt>
      <trkpt lat="45.81246" lon="1.90749">
        <ele>725</ele>
        <time>2026-07-07T08:58:13.000Z</time>
      </trkpt>
      <trkpt lat="45.81245" lon="1.90748">
        <ele>725.2</ele>
        <time>2026-07-07T08:58:14.000Z</time>
      </trkpt>
      <trkpt lat="45.81244" lon="1.90748">
        <ele>725.4</ele>
        <time>2026-07-07T08:58:15.000Z</time>
      </trkpt>
      <trkpt lat="45.81242" lon="1.90747">
        <ele>725.3</ele>
        <time>2026-07-07T08:58:16.000Z</time>
      </trkpt>
      <trkpt lat="45.8124" lon="1.90746">
        <ele>725.5</ele>
        <time>2026-07-07T08:58:17.000Z</time>
      </trkpt>
      <trkpt lat="45.81239" lon="1.90745">
        <ele>726.2</ele>
        <time>2026-07-07T08:58:18.000Z</time>
      </trkpt>
      <trkpt lat="45.81237" lon="1.90745">
        <ele>726.5</ele>
        <time>2026-07-07T08:58:19.000Z</time>
      </trkpt>
      <trkpt lat="45.81236" lon="1.90745">
        <ele>726.7</ele>
        <time>2026-07-07T08:58:20.000Z</time>
      </trkpt>
      <trkpt lat="45.81235" lon="1.90744">
        <ele>727</ele>
        <time>2026-07-07T08:58:21.000Z</time>
      </trkpt>
      <trkpt lat="45.81233" lon="1.90743">
        <ele>727.3</ele>
        <time>2026-07-07T08:58:22.000Z</time>
      </trkpt>
      <trkpt lat="45.81232" lon="1.90743">
        <ele>727.4</ele>
        <time>2026-07-07T08:58:23.000Z</time>
      </trkpt>
      <trkpt lat="45.81231" lon="1.90743">
        <ele>727.6</ele>
        <time>2026-07-07T08:58:24.000Z</time>
      </trkpt>
      <trkpt lat="45.8123" lon="1.90743">
        <ele>728.1</ele>
        <time>2026-07-07T08:58:25.000Z</time>
      </trkpt>
      <trkpt lat="45.81228" lon="1.90744">
        <ele>728.1</ele>
        <time>2026-07-07T08:58:26.000Z</time>
      </trkpt>
      <trkpt lat="45.81227" lon="1.90744">
        <ele>728.4</ele>
        <time>2026-07-07T08:58:27.000Z</time>
      </trkpt>
      <trkpt lat="45.81226" lon="1.90744">
        <ele>728.5</ele>
        <time>2026-07-07T08:58:28.000Z</time>
      </trkpt>
      <trkpt lat="45.81224" lon="1.90744">
        <ele>728.3</ele>
        <time>2026-07-07T08:58:29.000Z</time>
      </trkpt>
      <trkpt lat="45.81223" lon="1.90745">
        <ele>728.2</ele>
        <time>2026-07-07T08:58:30.000Z</time>
      </trkpt>
      <trkpt lat="45.81222" lon="1.90744">
        <ele>728.2</ele>
        <time>2026-07-07T08:58:31.000Z</time>
      </trkpt>
      <trkpt lat="45.81221" lon="1.90744">
        <ele>728.2</ele>
        <time>2026-07-07T08:58:32.000Z</time>
      </trkpt>
      <trkpt lat="45.8122" lon="1.90744">
        <ele>728.1</ele>
        <time>2026-07-07T08:58:33.000Z</time>
      </trkpt>
      <trkpt lat="45.81218" lon="1.90745">
        <ele>728.2</ele>
        <time>2026-07-07T08:58:34.000Z</time>
      </trkpt>
      <trkpt lat="45.81217" lon="1.90745">
        <ele>728.1</ele>
        <time>2026-07-07T08:58:35.000Z</time>
      </trkpt>
      <trkpt lat="45.81216" lon="1.90745">
        <ele>728.5</ele>
        <time>2026-07-07T08:58:36.000Z</time>
      </trkpt>
      <trkpt lat="45.81214" lon="1.90745">
        <ele>728.6</ele>
        <time>2026-07-07T08:58:37.000Z</time>
      </trkpt>
      <trkpt lat="45.81213" lon="1.90744">
        <ele>729</ele>
        <time>2026-07-07T08:58:38.000Z</time>
      </trkpt>
      <trkpt lat="45.81212" lon="1.90744">
        <ele>729.1</ele>
        <time>2026-07-07T08:58:39.000Z</time>
      </trkpt>
      <trkpt lat="45.8121" lon="1.90744">
        <ele>729.3</ele>
        <time>2026-07-07T08:58:40.000Z</time>
      </trkpt>
      <trkpt lat="45.81209" lon="1.90744">
        <ele>729.6</ele>
        <time>2026-07-07T08:58:41.000Z</time>
      </trkpt>
      <trkpt lat="45.81208" lon="1.90744">
        <ele>730</ele>
        <time>2026-07-07T08:58:42.000Z</time>
      </trkpt>
      <trkpt lat="45.81206" lon="1.90744">
        <ele>730</ele>
        <time>2026-07-07T08:58:43.000Z</time>
      </trkpt>
      <trkpt lat="45.81205" lon="1.90745">
        <ele>730.1</ele>
        <time>2026-07-07T08:58:44.000Z</time>
      </trkpt>
      <trkpt lat="45.81204" lon="1.90745">
        <ele>730.6</ele>
        <time>2026-07-07T08:58:45.000Z</time>
      </trkpt>
      <trkpt lat="45.81203" lon="1.90745">
        <ele>730.7</ele>
        <time>2026-07-07T08:58:46.000Z</time>
      </trkpt>
      <trkpt lat="45.81201" lon="1.90745">
        <ele>730.8</ele>
        <time>2026-07-07T08:58:47.000Z</time>
      </trkpt>
      <trkpt lat="45.812" lon="1.90745">
        <ele>731.1</ele>
        <time>2026-07-07T08:58:48.000Z</time>
      </trkpt>
      <trkpt lat="45.81198" lon="1.90745">
        <ele>731.2</ele>
        <time>2026-07-07T08:58:49.000Z</time>
      </trkpt>
      <trkpt lat="45.81197" lon="1.90746">
        <ele>731.3</ele>
        <time>2026-07-07T08:58:50.000Z</time>
      </trkpt>
      <trkpt lat="45.81196" lon="1.90747">
        <ele>731.7</ele>
        <time>2026-07-07T08:58:51.000Z</time>
      </trkpt>
      <trkpt lat="45.81194" lon="1.90747">
        <ele>731.9</ele>
        <time>2026-07-07T08:58:52.000Z</time>
      </trkpt>
      <trkpt lat="45.81193" lon="1.90747">
        <ele>731.6</ele>
        <time>2026-07-07T08:58:53.000Z</time>
      </trkpt>
      <trkpt lat="45.81192" lon="1.90748">
        <ele>732.1</ele>
        <time>2026-07-07T08:58:54.000Z</time>
      </trkpt>
      <trkpt lat="45.8119" lon="1.90748">
        <ele>732.3</ele>
        <time>2026-07-07T08:58:55.000Z</time>
      </trkpt>
      <trkpt lat="45.81189" lon="1.90748">
        <ele>732.2</ele>
        <time>2026-07-07T08:58:56.000Z</time>
      </trkpt>
      <trkpt lat="45.81187" lon="1.90748">
        <ele>732.4</ele>
        <time>2026-07-07T08:58:57.000Z</time>
      </trkpt>
      <trkpt lat="45.81186" lon="1.90749">
        <ele>732.6</ele>
        <time>2026-07-07T08:58:58.000Z</time>
      </trkpt>
      <trkpt lat="45.81185" lon="1.90749">
        <ele>733</ele>
        <time>2026-07-07T08:58:59.000Z</time>
      </trkpt>
      <trkpt lat="45.81183" lon="1.90749">
        <ele>732.9</ele>
        <time>2026-07-07T08:59:00.000Z</time>
      </trkpt>
      <trkpt lat="45.81182" lon="1.90749">
        <ele>733.2</ele>
        <time>2026-07-07T08:59:01.000Z</time>
      </trkpt>
      <trkpt lat="45.8118" lon="1.90749">
        <ele>733.3</ele>
        <time>2026-07-07T08:59:02.000Z</time>
      </trkpt>
      <trkpt lat="45.81179" lon="1.90749">
        <ele>733.6</ele>
        <time>2026-07-07T08:59:03.000Z</time>
      </trkpt>
      <trkpt lat="45.81178" lon="1.90749">
        <ele>734</ele>
        <time>2026-07-07T08:59:04.000Z</time>
      </trkpt>
      <trkpt lat="45.81176" lon="1.9075">
        <ele>734.3</ele>
        <time>2026-07-07T08:59:05.000Z</time>
      </trkpt>
      <trkpt lat="45.81175" lon="1.9075">
        <ele>734.1</ele>
        <time>2026-07-07T08:59:06.000Z</time>
      </trkpt>
      <trkpt lat="45.81173" lon="1.9075">
        <ele>734.2</ele>
        <time>2026-07-07T08:59:07.000Z</time>
      </trkpt>
      <trkpt lat="45.81172" lon="1.9075">
        <ele>734.4</ele>
        <time>2026-07-07T08:59:08.000Z</time>
      </trkpt>
      <trkpt lat="45.8117" lon="1.9075">
        <ele>734.8</ele>
        <time>2026-07-07T08:59:09.000Z</time>
      </trkpt>
      <trkpt lat="45.81169" lon="1.9075">
        <ele>735.1</ele>
        <time>2026-07-07T08:59:10.000Z</time>
      </trkpt>
      <trkpt lat="45.81167" lon="1.90751">
        <ele>735.4</ele>
        <time>2026-07-07T08:59:11.000Z</time>
      </trkpt>
      <trkpt lat="45.81166" lon="1.90751">
        <ele>735.4</ele>
        <time>2026-07-07T08:59:12.000Z</time>
      </trkpt>
      <trkpt lat="45.81164" lon="1.90752">
        <ele>735.6</ele>
        <time>2026-07-07T08:59:13.000Z</time>
      </trkpt>
      <trkpt lat="45.81163" lon="1.90753">
        <ele>736.1</ele>
        <time>2026-07-07T08:59:14.000Z</time>
      </trkpt>
      <trkpt lat="45.81162" lon="1.90753">
        <ele>736</ele>
        <time>2026-07-07T08:59:15.000Z</time>
      </trkpt>
      <trkpt lat="45.8116" lon="1.90754">
        <ele>736</ele>
        <time>2026-07-07T08:59:16.000Z</time>
      </trkpt>
      <trkpt lat="45.81159" lon="1.90755">
        <ele>736.3</ele>
        <time>2026-07-07T08:59:17.000Z</time>
      </trkpt>
      <trkpt lat="45.81157" lon="1.90756">
        <ele>736.5</ele>
        <time>2026-07-07T08:59:18.000Z</time>
      </trkpt>
      <trkpt lat="45.81155" lon="1.90756">
        <ele>736.7</ele>
        <time>2026-07-07T08:59:19.000Z</time>
      </trkpt>
      <trkpt lat="45.81154" lon="1.90757">
        <ele>736.8</ele>
        <time>2026-07-07T08:59:20.000Z</time>
      </trkpt>
      <trkpt lat="45.81153" lon="1.90758">
        <ele>736.9</ele>
        <time>2026-07-07T08:59:21.000Z</time>
      </trkpt>
      <trkpt lat="45.81151" lon="1.90759">
        <ele>737</ele>
        <time>2026-07-07T08:59:22.000Z</time>
      </trkpt>
      <trkpt lat="45.8115" lon="1.90759">
        <ele>737.2</ele>
        <time>2026-07-07T08:59:23.000Z</time>
      </trkpt>
      <trkpt lat="45.81148" lon="1.9076">
        <ele>737.3</ele>
        <time>2026-07-07T08:59:24.000Z</time>
      </trkpt>
      <trkpt lat="45.81147" lon="1.90758">
        <ele>737.6</ele>
        <time>2026-07-07T08:59:25.000Z</time>
      </trkpt>
      <trkpt lat="45.81146" lon="1.90761">
        <ele>737.9</ele>
        <time>2026-07-07T08:59:26.000Z</time>
      </trkpt>
      <trkpt lat="45.81145" lon="1.90762">
        <ele>738</ele>
        <time>2026-07-07T08:59:27.000Z</time>
      </trkpt>
      <trkpt lat="45.81143" lon="1.90763">
        <ele>738.4</ele>
        <time>2026-07-07T08:59:28.000Z</time>
      </trkpt>
      <trkpt lat="45.81142" lon="1.90763">
        <ele>738.8</ele>
        <time>2026-07-07T08:59:29.000Z</time>
      </trkpt>
      <trkpt lat="45.8114" lon="1.90764">
        <ele>739.2</ele>
        <time>2026-07-07T08:59:30.000Z</time>
      </trkpt>
      <trkpt lat="45.81139" lon="1.90765">
        <ele>739.2</ele>
        <time>2026-07-07T08:59:31.000Z</time>
      </trkpt>
      <trkpt lat="45.81137" lon="1.90765">
        <ele>739.6</ele>
        <time>2026-07-07T08:59:32.000Z</time>
      </trkpt>
      <trkpt lat="45.81136" lon="1.90766">
        <ele>739.7</ele>
        <time>2026-07-07T08:59:33.000Z</time>
      </trkpt>
      <trkpt lat="45.81134" lon="1.90766">
        <ele>739.7</ele>
        <time>2026-07-07T08:59:34.000Z</time>
      </trkpt>
      <trkpt lat="45.81133" lon="1.90767">
        <ele>740</ele>
        <time>2026-07-07T08:59:35.000Z</time>
      </trkpt>
      <trkpt lat="45.81132" lon="1.90768">
        <ele>740.2</ele>
        <time>2026-07-07T08:59:36.000Z</time>
      </trkpt>
      <trkpt lat="45.8113" lon="1.90769">
        <ele>740.4</ele>
        <time>2026-07-07T08:59:37.000Z</time>
      </trkpt>
      <trkpt lat="45.81129" lon="1.90769">
        <ele>740.5</ele>
        <time>2026-07-07T08:59:38.000Z</time>
      </trkpt>
      <trkpt lat="45.81128" lon="1.9077">
        <ele>740.8</ele>
        <time>2026-07-07T08:59:39.000Z</time>
      </trkpt>
      <trkpt lat="45.81126" lon="1.90771">
        <ele>740.9</ele>
        <time>2026-07-07T08:59:40.000Z</time>
      </trkpt>
      <trkpt lat="45.81125" lon="1.90772">
        <ele>741.1</ele>
        <time>2026-07-07T08:59:41.000Z</time>
      </trkpt>
      <trkpt lat="45.81123" lon="1.90773">
        <ele>741.3</ele>
        <time>2026-07-07T08:59:42.000Z</time>
      </trkpt>
      <trkpt lat="45.81122" lon="1.90774">
        <ele>741.6</ele>
        <time>2026-07-07T08:59:43.000Z</time>
      </trkpt>
      <trkpt lat="45.81121" lon="1.90775">
        <ele>741.8</ele>
        <time>2026-07-07T08:59:44.000Z</time>
      </trkpt>
      <trkpt lat="45.8112" lon="1.90776">
        <ele>741.8</ele>
        <time>2026-07-07T08:59:45.000Z</time>
      </trkpt>
      <trkpt lat="45.81119" lon="1.90777">
        <ele>742.3</ele>
        <time>2026-07-07T08:59:46.000Z</time>
      </trkpt>
      <trkpt lat="45.81118" lon="1.90778">
        <ele>742.6</ele>
        <time>2026-07-07T08:59:47.000Z</time>
      </trkpt>
      <trkpt lat="45.81117" lon="1.9078">
        <ele>742.5</ele>
        <time>2026-07-07T08:59:48.000Z</time>
      </trkpt>
      <trkpt lat="45.81116" lon="1.90781">
        <ele>742.8</ele>
        <time>2026-07-07T08:59:49.000Z</time>
      </trkpt>
      <trkpt lat="45.81115" lon="1.90783">
        <ele>742.9</ele>
        <time>2026-07-07T08:59:50.000Z</time>
      </trkpt>
      <trkpt lat="45.81114" lon="1.90784">
        <ele>743.1</ele>
        <time>2026-07-07T08:59:51.000Z</time>
      </trkpt>
      <trkpt lat="45.81113" lon="1.90785">
        <ele>743.5</ele>
        <time>2026-07-07T08:59:52.000Z</time>
      </trkpt>
      <trkpt lat="45.81112" lon="1.90786">
        <ele>743.7</ele>
        <time>2026-07-07T08:59:53.000Z</time>
      </trkpt>
      <trkpt lat="45.81111" lon="1.90787">
        <ele>743.8</ele>
        <time>2026-07-07T08:59:54.000Z</time>
      </trkpt>
      <trkpt lat="45.81111" lon="1.90788">
        <ele>744</ele>
        <time>2026-07-07T08:59:55.000Z</time>
      </trkpt>
      <trkpt lat="45.81111" lon="1.90788">
        <ele>744.1</ele>
        <time>2026-07-07T08:59:56.000Z</time>
      </trkpt>
      <trkpt lat="45.81111" lon="1.90788">
        <ele>744.1</ele>
        <time>2026-07-07T08:59:57.000Z</time>
      </trkpt>
      <trkpt lat="45.81111" lon="1.90788">
        <ele>744.1</ele>
        <time>2026-07-07T08:59:58.000Z</time>
      </trkpt>
      <trkpt lat="45.81111" lon="1.90788">
        <ele>744</ele>
        <time>2026-07-07T08:59:59.000Z</time>
      </trkpt>
      <trkpt lat="45.8111" lon="1.90789">
        <ele>744.4</ele>
        <time>2026-07-07T09:00:00.000Z</time>
      </trkpt>
      <trkpt lat="45.81108" lon="1.9079">
        <ele>744.1</ele>
        <time>2026-07-07T09:00:01.000Z</time>
      </trkpt>
      <trkpt lat="45.81107" lon="1.90791">
        <ele>744.6</ele>
        <time>2026-07-07T09:00:02.000Z</time>
      </trkpt>
      <trkpt lat="45.81106" lon="1.90792">
        <ele>744.8</ele>
        <time>2026-07-07T09:00:03.000Z</time>
      </trkpt>
      <trkpt lat="45.81105" lon="1.90794">
        <ele>745</ele>
        <time>2026-07-07T09:00:04.000Z</time>
      </trkpt>
      <trkpt lat="45.81104" lon="1.90795">
        <ele>745</ele>
        <time>2026-07-07T09:00:05.000Z</time>
      </trkpt>
      <trkpt lat="45.81102" lon="1.90796">
        <ele>745.1</ele>
        <time>2026-07-07T09:00:06.000Z</time>
      </trkpt>
      <trkpt lat="45.81101" lon="1.90798">
        <ele>745.3</ele>
        <time>2026-07-07T09:00:07.000Z</time>
      </trkpt>
      <trkpt lat="45.811" lon="1.90799">
        <ele>745.7</ele>
        <time>2026-07-07T09:00:08.000Z</time>
      </trkpt>
      <trkpt lat="45.81099" lon="1.908">
        <ele>745.9</ele>
        <time>2026-07-07T09:00:09.000Z</time>
      </trkpt>
      <trkpt lat="45.81097" lon="1.90802">
        <ele>746.2</ele>
        <time>2026-07-07T09:00:10.000Z</time>
      </trkpt>
      <trkpt lat="45.81096" lon="1.90803">
        <ele>746.3</ele>
        <time>2026-07-07T09:00:11.000Z</time>
      </trkpt>
      <trkpt lat="45.81095" lon="1.90804">
        <ele>746.5</ele>
        <time>2026-07-07T09:00:12.000Z</time>
      </trkpt>
      <trkpt lat="45.81094" lon="1.90805">
        <ele>746.6</ele>
        <time>2026-07-07T09:00:13.000Z</time>
      </trkpt>
      <trkpt lat="45.81092" lon="1.90807">
        <ele>746.8</ele>
        <time>2026-07-07T09:00:14.000Z</time>
      </trkpt>
      <trkpt lat="45.81091" lon="1.90808">
        <ele>747</ele>
        <time>2026-07-07T09:00:15.000Z</time>
      </trkpt>
      <trkpt lat="45.8109" lon="1.90809">
        <ele>747.2</ele>
        <time>2026-07-07T09:00:16.000Z</time>
      </trkpt>
      <trkpt lat="45.81089" lon="1.9081">
        <ele>747.7</ele>
        <time>2026-07-07T09:00:17.000Z</time>
      </trkpt>
      <trkpt lat="45.81088" lon="1.9081">
        <ele>747.8</ele>
        <time>2026-07-07T09:00:18.000Z</time>
      </trkpt>
      <trkpt lat="45.81086" lon="1.90811">
        <ele>747.8</ele>
        <time>2026-07-07T09:00:19.000Z</time>
      </trkpt>
      <trkpt lat="45.81085" lon="1.90811">
        <ele>748.1</ele>
        <time>2026-07-07T09:00:20.000Z</time>
      </trkpt>
      <trkpt lat="45.81084" lon="1.90811">
        <ele>748.2</ele>
        <time>2026-07-07T09:00:21.000Z</time>
      </trkpt>
      <trkpt lat="45.81083" lon="1.90813">
        <ele>748.4</ele>
        <time>2026-07-07T09:00:22.000Z</time>
      </trkpt>
      <trkpt lat="45.81083" lon="1.90815">
        <ele>748.7</ele>
        <time>2026-07-07T09:00:23.000Z</time>
      </trkpt>
      <trkpt lat="45.81086" lon="1.90817">
        <ele>748.5</ele>
        <time>2026-07-07T09:00:24.000Z</time>
      </trkpt>
      <trkpt lat="45.81087" lon="1.90818">
        <ele>748.3</ele>
        <time>2026-07-07T09:00:25.000Z</time>
      </trkpt>
      <trkpt lat="45.81085" lon="1.90818">
        <ele>748.5</ele>
        <time>2026-07-07T09:00:26.000Z</time>
      </trkpt>
      <trkpt lat="45.81084" lon="1.90819">
        <ele>748.5</ele>
        <time>2026-07-07T09:00:27.000Z</time>
      </trkpt>
      <trkpt lat="45.81084" lon="1.90819">
        <ele>748.5</ele>
        <time>2026-07-07T09:00:28.000Z</time>
      </trkpt>
      <trkpt lat="45.81084" lon="1.90818">
        <ele>748.1</ele>
        <time>2026-07-07T09:00:29.000Z</time>
      </trkpt>
      <trkpt lat="45.81083" lon="1.90818">
        <ele>748</ele>
        <time>2026-07-07T09:00:30.000Z</time>
      </trkpt>
      <trkpt lat="45.81082" lon="1.90817">
        <ele>748</ele>
        <time>2026-07-07T09:00:31.000Z</time>
      </trkpt>
      <trkpt lat="45.81081" lon="1.90816">
        <ele>747.7</ele>
        <time>2026-07-07T09:00:32.000Z</time>
      </trkpt>
      <trkpt lat="45.8108" lon="1.90814">
        <ele>747.7</ele>
        <time>2026-07-07T09:00:33.000Z</time>
      </trkpt>
      <trkpt lat="45.81079" lon="1.90813">
        <ele>747.7</ele>
        <time>2026-07-07T09:00:34.000Z</time>
      </trkpt>
      <trkpt lat="45.81077" lon="1.90812">
        <ele>747.6</ele>
        <time>2026-07-07T09:00:35.000Z</time>
      </trkpt>
      <trkpt lat="45.81076" lon="1.9081">
        <ele>747.7</ele>
        <time>2026-07-07T09:00:36.000Z</time>
      </trkpt>
      <trkpt lat="45.81075" lon="1.90809">
        <ele>747.9</ele>
        <time>2026-07-07T09:00:37.000Z</time>
      </trkpt>
      <trkpt lat="45.81074" lon="1.90808">
        <ele>748.2</ele>
        <time>2026-07-07T09:00:38.000Z</time>
      </trkpt>
      <trkpt lat="45.81072" lon="1.90807">
        <ele>748.1</ele>
        <time>2026-07-07T09:00:39.000Z</time>
      </trkpt>
      <trkpt lat="45.81071" lon="1.90806">
        <ele>748.1</ele>
        <time>2026-07-07T09:00:40.000Z</time>
      </trkpt>
      <trkpt lat="45.8107" lon="1.90806">
        <ele>748.1</ele>
        <time>2026-07-07T09:00:41.000Z</time>
      </trkpt>
      <trkpt lat="45.81068" lon="1.90805">
        <ele>748.1</ele>
        <time>2026-07-07T09:00:42.000Z</time>
      </trkpt>
      <trkpt lat="45.81067" lon="1.90804">
        <ele>748.7</ele>
        <time>2026-07-07T09:00:43.000Z</time>
      </trkpt>
      <trkpt lat="45.81066" lon="1.90803">
        <ele>749</ele>
        <time>2026-07-07T09:00:44.000Z</time>
      </trkpt>
      <trkpt lat="45.81064" lon="1.90802">
        <ele>749.2</ele>
        <time>2026-07-07T09:00:45.000Z</time>
      </trkpt>
      <trkpt lat="45.81062" lon="1.90802">
        <ele>749.4</ele>
        <time>2026-07-07T09:00:46.000Z</time>
      </trkpt>
      <trkpt lat="45.81061" lon="1.90801">
        <ele>749.6</ele>
        <time>2026-07-07T09:00:47.000Z</time>
      </trkpt>
      <trkpt lat="45.8106" lon="1.90801">
        <ele>749.8</ele>
        <time>2026-07-07T09:00:48.000Z</time>
      </trkpt>
      <trkpt lat="45.81058" lon="1.90801">
        <ele>749.9</ele>
        <time>2026-07-07T09:00:49.000Z</time>
      </trkpt>
      <trkpt lat="45.81057" lon="1.90801">
        <ele>749.6</ele>
        <time>2026-07-07T09:00:50.000Z</time>
      </trkpt>
      <trkpt lat="45.81055" lon="1.908">
        <ele>749.9</ele>
        <time>2026-07-07T09:00:51.000Z</time>
      </trkpt>
      <trkpt lat="45.81054" lon="1.908">
        <ele>749.9</ele>
        <time>2026-07-07T09:00:52.000Z</time>
      </trkpt>
      <trkpt lat="45.81053" lon="1.90799">
        <ele>749.9</ele>
        <time>2026-07-07T09:00:53.000Z</time>
      </trkpt>
      <trkpt lat="45.81051" lon="1.90799">
        <ele>749.9</ele>
        <time>2026-07-07T09:00:54.000Z</time>
      </trkpt>
      <trkpt lat="45.8105" lon="1.90798">
        <ele>749.9</ele>
        <time>2026-07-07T09:00:55.000Z</time>
      </trkpt>
      <trkpt lat="45.81049" lon="1.90798">
        <ele>750</ele>
        <time>2026-07-07T09:00:56.000Z</time>
      </trkpt>
      <trkpt lat="45.81047" lon="1.90798">
        <ele>750.2</ele>
        <time>2026-07-07T09:00:57.000Z</time>
      </trkpt>
      <trkpt lat="45.81046" lon="1.90797">
        <ele>750.3</ele>
        <time>2026-07-07T09:00:58.000Z</time>
      </trkpt>
      <trkpt lat="45.81045" lon="1.90797">
        <ele>750.7</ele>
        <time>2026-07-07T09:00:59.000Z</time>
      </trkpt>
      <trkpt lat="45.81043" lon="1.90797">
        <ele>750.8</ele>
        <time>2026-07-07T09:01:00.000Z</time>
      </trkpt>
      <trkpt lat="45.81042" lon="1.90797">
        <ele>751</ele>
        <time>2026-07-07T09:01:01.000Z</time>
      </trkpt>
      <trkpt lat="45.8104" lon="1.90797">
        <ele>751.4</ele>
        <time>2026-07-07T09:01:02.000Z</time>
      </trkpt>
      <trkpt lat="45.81039" lon="1.90796">
        <ele>751.5</ele>
        <time>2026-07-07T09:01:03.000Z</time>
      </trkpt>
      <trkpt lat="45.81037" lon="1.90796">
        <ele>752</ele>
        <time>2026-07-07T09:01:04.000Z</time>
      </trkpt>
      <trkpt lat="45.81036" lon="1.90797">
        <ele>752</ele>
        <time>2026-07-07T09:01:05.000Z</time>
      </trkpt>
      <trkpt lat="45.81035" lon="1.90797">
        <ele>752.3</ele>
        <time>2026-07-07T09:01:06.000Z</time>
      </trkpt>
      <trkpt lat="45.81034" lon="1.90797">
        <ele>752.3</ele>
        <time>2026-07-07T09:01:07.000Z</time>
      </trkpt>
      <trkpt lat="45.81032" lon="1.90797">
        <ele>752.5</ele>
        <time>2026-07-07T09:01:08.000Z</time>
      </trkpt>
      <trkpt lat="45.81031" lon="1.90797">
        <ele>752.5</ele>
        <time>2026-07-07T09:01:09.000Z</time>
      </trkpt>
      <trkpt lat="45.8103" lon="1.90798">
        <ele>752.6</ele>
        <time>2026-07-07T09:01:10.000Z</time>
      </trkpt>
      <trkpt lat="45.81028" lon="1.90798">
        <ele>752.9</ele>
        <time>2026-07-07T09:01:11.000Z</time>
      </trkpt>
      <trkpt lat="45.81027" lon="1.90798">
        <ele>753.2</ele>
        <time>2026-07-07T09:01:12.000Z</time>
      </trkpt>
      <trkpt lat="45.81026" lon="1.90798">
        <ele>753.6</ele>
        <time>2026-07-07T09:01:13.000Z</time>
      </trkpt>
      <trkpt lat="45.81025" lon="1.90798">
        <ele>753.7</ele>
        <time>2026-07-07T09:01:14.000Z</time>
      </trkpt>
      <trkpt lat="45.81023" lon="1.90798">
        <ele>754</ele>
        <time>2026-07-07T09:01:15.000Z</time>
      </trkpt>
      <trkpt lat="45.81022" lon="1.90798">
        <ele>753.7</ele>
        <time>2026-07-07T09:01:16.000Z</time>
      </trkpt>
      <trkpt lat="45.81021" lon="1.90798">
        <ele>753.7</ele>
        <time>2026-07-07T09:01:17.000Z</time>
      </trkpt>
      <trkpt lat="45.81019" lon="1.90798">
        <ele>753.9</ele>
        <time>2026-07-07T09:01:18.000Z</time>
      </trkpt>
      <trkpt lat="45.81018" lon="1.90797">
        <ele>754</ele>
        <time>2026-07-07T09:01:19.000Z</time>
      </trkpt>
      <trkpt lat="45.81017" lon="1.90797">
        <ele>754.1</ele>
        <time>2026-07-07T09:01:20.000Z</time>
      </trkpt>
      <trkpt lat="45.81015" lon="1.90797">
        <ele>754.1</ele>
        <time>2026-07-07T09:01:21.000Z</time>
      </trkpt>
      <trkpt lat="45.81014" lon="1.90796">
        <ele>754</ele>
        <time>2026-07-07T09:01:22.000Z</time>
      </trkpt>
      <trkpt lat="45.81013" lon="1.90796">
        <ele>754.2</ele>
        <time>2026-07-07T09:01:23.000Z</time>
      </trkpt>
      <trkpt lat="45.81011" lon="1.90795">
        <ele>754.4</ele>
        <time>2026-07-07T09:01:24.000Z</time>
      </trkpt>
      <trkpt lat="45.8101" lon="1.90795">
        <ele>754.5</ele>
        <time>2026-07-07T09:01:25.000Z</time>
      </trkpt>
      <trkpt lat="45.81009" lon="1.90794">
        <ele>754.5</ele>
        <time>2026-07-07T09:01:26.000Z</time>
      </trkpt>
      <trkpt lat="45.81008" lon="1.90794">
        <ele>754.5</ele>
        <time>2026-07-07T09:01:27.000Z</time>
      </trkpt>
      <trkpt lat="45.81006" lon="1.90794">
        <ele>754.5</ele>
        <time>2026-07-07T09:01:28.000Z</time>
      </trkpt>
      <trkpt lat="45.81005" lon="1.90793">
        <ele>754.4</ele>
        <time>2026-07-07T09:01:29.000Z</time>
      </trkpt>
      <trkpt lat="45.81003" lon="1.90793">
        <ele>754.4</ele>
        <time>2026-07-07T09:01:30.000Z</time>
      </trkpt>
      <trkpt lat="45.81002" lon="1.90793">
        <ele>754.3</ele>
        <time>2026-07-07T09:01:31.000Z</time>
      </trkpt>
      <trkpt lat="45.81" lon="1.90792">
        <ele>754.5</ele>
        <time>2026-07-07T09:01:32.000Z</time>
      </trkpt>
      <trkpt lat="45.80999" lon="1.90792">
        <ele>754.7</ele>
        <time>2026-07-07T09:01:33.000Z</time>
      </trkpt>
      <trkpt lat="45.80997" lon="1.90792">
        <ele>754.9</ele>
        <time>2026-07-07T09:01:34.000Z</time>
      </trkpt>
      <trkpt lat="45.80996" lon="1.90794">
        <ele>754.8</ele>
        <time>2026-07-07T09:01:35.000Z</time>
      </trkpt>
      <trkpt lat="45.80994" lon="1.90792">
        <ele>755.1</ele>
        <time>2026-07-07T09:01:36.000Z</time>
      </trkpt>
      <trkpt lat="45.80992" lon="1.90792">
        <ele>755</ele>
        <time>2026-07-07T09:01:37.000Z</time>
      </trkpt>
      <trkpt lat="45.80991" lon="1.90792">
        <ele>755.1</ele>
        <time>2026-07-07T09:01:38.000Z</time>
      </trkpt>
      <trkpt lat="45.80989" lon="1.90792">
        <ele>755.3</ele>
        <time>2026-07-07T09:01:39.000Z</time>
      </trkpt>
      <trkpt lat="45.80988" lon="1.90792">
        <ele>755.3</ele>
        <time>2026-07-07T09:01:40.000Z</time>
      </trkpt>
      <trkpt lat="45.80987" lon="1.90792">
        <ele>755.5</ele>
        <time>2026-07-07T09:01:41.000Z</time>
      </trkpt>
      <trkpt lat="45.80985" lon="1.90793">
        <ele>755.6</ele>
        <time>2026-07-07T09:01:42.000Z</time>
      </trkpt>
      <trkpt lat="45.80984" lon="1.90793">
        <ele>755.8</ele>
        <time>2026-07-07T09:01:43.000Z</time>
      </trkpt>
      <trkpt lat="45.80983" lon="1.90793">
        <ele>756</ele>
        <time>2026-07-07T09:01:44.000Z</time>
      </trkpt>
      <trkpt lat="45.80981" lon="1.90794">
        <ele>756.1</ele>
        <time>2026-07-07T09:01:45.000Z</time>
      </trkpt>
      <trkpt lat="45.8098" lon="1.90794">
        <ele>756.3</ele>
        <time>2026-07-07T09:01:46.000Z</time>
      </trkpt>
      <trkpt lat="45.80978" lon="1.90794">
        <ele>756.3</ele>
        <time>2026-07-07T09:01:47.000Z</time>
      </trkpt>
      <trkpt lat="45.80977" lon="1.90794">
        <ele>756.3</ele>
        <time>2026-07-07T09:01:48.000Z</time>
      </trkpt>
      <trkpt lat="45.80975" lon="1.90794">
        <ele>756.5</ele>
        <time>2026-07-07T09:01:49.000Z</time>
      </trkpt>
      <trkpt lat="45.80974" lon="1.90794">
        <ele>756.6</ele>
        <time>2026-07-07T09:01:50.000Z</time>
      </trkpt>
      <trkpt lat="45.80973" lon="1.90794">
        <ele>756.8</ele>
        <time>2026-07-07T09:01:51.000Z</time>
      </trkpt>
      <trkpt lat="45.80971" lon="1.90795">
        <ele>756.9</ele>
        <time>2026-07-07T09:01:52.000Z</time>
      </trkpt>
      <trkpt lat="45.8097" lon="1.90794">
        <ele>757</ele>
        <time>2026-07-07T09:01:53.000Z</time>
      </trkpt>
      <trkpt lat="45.80968" lon="1.90795">
        <ele>757.2</ele>
        <time>2026-07-07T09:01:54.000Z</time>
      </trkpt>
      <trkpt lat="45.80967" lon="1.90795">
        <ele>757.5</ele>
        <time>2026-07-07T09:01:55.000Z</time>
      </trkpt>
      <trkpt lat="45.80965" lon="1.90795">
        <ele>757.5</ele>
        <time>2026-07-07T09:01:56.000Z</time>
      </trkpt>
      <trkpt lat="45.80964" lon="1.90795">
        <ele>757.5</ele>
        <time>2026-07-07T09:01:57.000Z</time>
      </trkpt>
      <trkpt lat="45.80962" lon="1.90796">
        <ele>757.5</ele>
        <time>2026-07-07T09:01:58.000Z</time>
      </trkpt>
      <trkpt lat="45.80961" lon="1.90796">
        <ele>757.6</ele>
        <time>2026-07-07T09:01:59.000Z</time>
      </trkpt>
      <trkpt lat="45.8096" lon="1.90797">
        <ele>757.8</ele>
        <time>2026-07-07T09:02:00.000Z</time>
      </trkpt>
      <trkpt lat="45.80958" lon="1.90797">
        <ele>757.8</ele>
        <time>2026-07-07T09:02:01.000Z</time>
      </trkpt>
      <trkpt lat="45.80957" lon="1.90798">
        <ele>758</ele>
        <time>2026-07-07T09:02:02.000Z</time>
      </trkpt>
      <trkpt lat="45.80956" lon="1.90798">
        <ele>757.9</ele>
        <time>2026-07-07T09:02:03.000Z</time>
      </trkpt>
      <trkpt lat="45.80954" lon="1.90798">
        <ele>758.3</ele>
        <time>2026-07-07T09:02:04.000Z</time>
      </trkpt>
      <trkpt lat="45.80953" lon="1.90798">
        <ele>758.6</ele>
        <time>2026-07-07T09:02:05.000Z</time>
      </trkpt>
      <trkpt lat="45.80951" lon="1.90798">
        <ele>758.7</ele>
        <time>2026-07-07T09:02:06.000Z</time>
      </trkpt>
      <trkpt lat="45.8095" lon="1.90798">
        <ele>758.8</ele>
        <time>2026-07-07T09:02:07.000Z</time>
      </trkpt>
      <trkpt lat="45.80948" lon="1.90798">
        <ele>759</ele>
        <time>2026-07-07T09:02:08.000Z</time>
      </trkpt>
      <trkpt lat="45.80947" lon="1.90799">
        <ele>758.8</ele>
        <time>2026-07-07T09:02:09.000Z</time>
      </trkpt>
      <trkpt lat="45.80945" lon="1.90799">
        <ele>758.8</ele>
        <time>2026-07-07T09:02:10.000Z</time>
      </trkpt>
      <trkpt lat="45.80944" lon="1.90798">
        <ele>758.8</ele>
        <time>2026-07-07T09:02:11.000Z</time>
      </trkpt>
      <trkpt lat="45.80943" lon="1.90798">
        <ele>758.8</ele>
        <time>2026-07-07T09:02:12.000Z</time>
      </trkpt>
      <trkpt lat="45.80941" lon="1.90797">
        <ele>758.9</ele>
        <time>2026-07-07T09:02:13.000Z</time>
      </trkpt>
      <trkpt lat="45.8094" lon="1.90796">
        <ele>759</ele>
        <time>2026-07-07T09:02:14.000Z</time>
      </trkpt>
      <trkpt lat="45.80938" lon="1.90796">
        <ele>759.1</ele>
        <time>2026-07-07T09:02:15.000Z</time>
      </trkpt>
      <trkpt lat="45.80937" lon="1.90795">
        <ele>759.1</ele>
        <time>2026-07-07T09:02:16.000Z</time>
      </trkpt>
      <trkpt lat="45.80935" lon="1.90795">
        <ele>759.2</ele>
        <time>2026-07-07T09:02:17.000Z</time>
      </trkpt>
      <trkpt lat="45.80934" lon="1.90795">
        <ele>759.4</ele>
        <time>2026-07-07T09:02:18.000Z</time>
      </trkpt>
      <trkpt lat="45.80932" lon="1.90794">
        <ele>759.5</ele>
        <time>2026-07-07T09:02:19.000Z</time>
      </trkpt>
      <trkpt lat="45.80931" lon="1.90794">
        <ele>759.7</ele>
        <time>2026-07-07T09:02:20.000Z</time>
      </trkpt>
      <trkpt lat="45.80929" lon="1.90794">
        <ele>759.5</ele>
        <time>2026-07-07T09:02:21.000Z</time>
      </trkpt>
      <trkpt lat="45.80928" lon="1.90794">
        <ele>759.5</ele>
        <time>2026-07-07T09:02:22.000Z</time>
      </trkpt>
      <trkpt lat="45.80926" lon="1.90794">
        <ele>759.6</ele>
        <time>2026-07-07T09:02:23.000Z</time>
      </trkpt>
      <trkpt lat="45.80925" lon="1.90794">
        <ele>759.5</ele>
        <time>2026-07-07T09:02:24.000Z</time>
      </trkpt>
      <trkpt lat="45.80924" lon="1.90794">
        <ele>759.3</ele>
        <time>2026-07-07T09:02:25.000Z</time>
      </trkpt>
      <trkpt lat="45.80922" lon="1.90794">
        <ele>759.2</ele>
        <time>2026-07-07T09:02:26.000Z</time>
      </trkpt>
      <trkpt lat="45.80921" lon="1.90794">
        <ele>759.3</ele>
        <time>2026-07-07T09:02:27.000Z</time>
      </trkpt>
      <trkpt lat="45.80919" lon="1.90794">
        <ele>759.1</ele>
        <time>2026-07-07T09:02:28.000Z</time>
      </trkpt>
      <trkpt lat="45.80918" lon="1.90794">
        <ele>759.1</ele>
        <time>2026-07-07T09:02:29.000Z</time>
      </trkpt>
      <trkpt lat="45.80917" lon="1.90794">
        <ele>759.2</ele>
        <time>2026-07-07T09:02:30.000Z</time>
      </trkpt>
      <trkpt lat="45.80915" lon="1.90794">
        <ele>759.4</ele>
        <time>2026-07-07T09:02:31.000Z</time>
      </trkpt>
      <trkpt lat="45.80914" lon="1.90794">
        <ele>759.5</ele>
        <time>2026-07-07T09:02:32.000Z</time>
      </trkpt>
      <trkpt lat="45.80912" lon="1.90794">
        <ele>759.7</ele>
        <time>2026-07-07T09:02:33.000Z</time>
      </trkpt>
      <trkpt lat="45.80911" lon="1.90794">
        <ele>759.5</ele>
        <time>2026-07-07T09:02:34.000Z</time>
      </trkpt>
      <trkpt lat="45.80909" lon="1.90794">
        <ele>759.3</ele>
        <time>2026-07-07T09:02:35.000Z</time>
      </trkpt>
      <trkpt lat="45.80908" lon="1.90793">
        <ele>759.3</ele>
        <time>2026-07-07T09:02:36.000Z</time>
      </trkpt>
      <trkpt lat="45.80906" lon="1.90793">
        <ele>759.3</ele>
        <time>2026-07-07T09:02:37.000Z</time>
      </trkpt>
      <trkpt lat="45.80905" lon="1.90793">
        <ele>759.6</ele>
        <time>2026-07-07T09:02:38.000Z</time>
      </trkpt>
      <trkpt lat="45.80903" lon="1.90794">
        <ele>759.7</ele>
        <time>2026-07-07T09:02:39.000Z</time>
      </trkpt>
      <trkpt lat="45.80902" lon="1.90794">
        <ele>759.7</ele>
        <time>2026-07-07T09:02:40.000Z</time>
      </trkpt>
      <trkpt lat="45.809" lon="1.90794">
        <ele>759.6</ele>
        <time>2026-07-07T09:02:41.000Z</time>
      </trkpt>
      <trkpt lat="45.80899" lon="1.90794">
        <ele>759.6</ele>
        <time>2026-07-07T09:02:42.000Z</time>
      </trkpt>
      <trkpt lat="45.80897" lon="1.90794">
        <ele>759.4</ele>
        <time>2026-07-07T09:02:43.000Z</time>
      </trkpt>
      <trkpt lat="45.80896" lon="1.90793">
        <ele>759.6</ele>
        <time>2026-07-07T09:02:44.000Z</time>
      </trkpt>
      <trkpt lat="45.80894" lon="1.90793">
        <ele>759.4</ele>
        <time>2026-07-07T09:02:45.000Z</time>
      </trkpt>
      <trkpt lat="45.80893" lon="1.90793">
        <ele>759.3</ele>
        <time>2026-07-07T09:02:46.000Z</time>
      </trkpt>
      <trkpt lat="45.80891" lon="1.90793">
        <ele>759.3</ele>
        <time>2026-07-07T09:02:47.000Z</time>
      </trkpt>
      <trkpt lat="45.8089" lon="1.90793">
        <ele>759.3</ele>
        <time>2026-07-07T09:02:48.000Z</time>
      </trkpt>
      <trkpt lat="45.8089" lon="1.90793">
        <ele>759.2</ele>
        <time>2026-07-07T09:02:49.000Z</time>
      </trkpt>
      <trkpt lat="45.8089" lon="1.90793">
        <ele>759.2</ele>
        <time>2026-07-07T09:02:50.000Z</time>
      </trkpt>
      <trkpt lat="45.8089" lon="1.90792">
        <ele>759</ele>
        <time>2026-07-07T09:02:51.000Z</time>
      </trkpt>
      <trkpt lat="45.8089" lon="1.90792">
        <ele>758.8</ele>
        <time>2026-07-07T09:02:52.000Z</time>
      </trkpt>
      <trkpt lat="45.8089" lon="1.90792">
        <ele>758.8</ele>
        <time>2026-07-07T09:02:53.000Z</time>
      </trkpt>
      <trkpt lat="45.80889" lon="1.90792">
        <ele>759</ele>
        <time>2026-07-07T09:02:54.000Z</time>
      </trkpt>
      <trkpt lat="45.80889" lon="1.90793">
        <ele>758.8</ele>
        <time>2026-07-07T09:02:55.000Z</time>
      </trkpt>
      <trkpt lat="45.80889" lon="1.90794">
        <ele>759.1</ele>
        <time>2026-07-07T09:02:56.000Z</time>
      </trkpt>
      <trkpt lat="45.80888" lon="1.90793">
        <ele>759.1</ele>
        <time>2026-07-07T09:02:57.000Z</time>
      </trkpt>
      <trkpt lat="45.80888" lon="1.90793">
        <ele>759.1</ele>
        <time>2026-07-07T09:02:58.000Z</time>
      </trkpt>
      <trkpt lat="45.80888" lon="1.90793">
        <ele>759</ele>
        <time>2026-07-07T09:02:59.000Z</time>
      </trkpt>
      <trkpt lat="45.80888" lon="1.90793">
        <ele>759</ele>
        <time>2026-07-07T09:03:00.000Z</time>
      </trkpt>
      <trkpt lat="45.80888" lon="1.90793">
        <ele>759</ele>
        <time>2026-07-07T09:03:01.000Z</time>
      </trkpt>
      <trkpt lat="45.80888" lon="1.90793">
        <ele>759</ele>
        <time>2026-07-07T09:03:02.000Z</time>
      </trkpt>
      <trkpt lat="45.80888" lon="1.90793">
        <ele>759</ele>
        <time>2026-07-07T09:03:03.000Z</time>
      </trkpt>
      <trkpt lat="45.80888" lon="1.90793">
        <ele>759</ele>
        <time>2026-07-07T09:03:04.000Z</time>
      </trkpt>
      <trkpt lat="45.80888" lon="1.90792">
        <ele>758.9</ele>
        <time>2026-07-07T09:03:05.000Z</time>
      </trkpt>
      <trkpt lat="45.80888" lon="1.90792">
        <ele>758.9</ele>
        <time>2026-07-07T09:03:06.000Z</time>
      </trkpt>
      <trkpt lat="45.80888" lon="1.90792">
        <ele>758.9</ele>
        <time>2026-07-07T09:03:07.000Z</time>
      </trkpt>
      <trkpt lat="45.80888" lon="1.90792">
        <ele>758.9</ele>
        <time>2026-07-07T09:03:08.000Z</time>
      </trkpt>
      <trkpt lat="45.80888" lon="1.90792">
        <ele>758.9</ele>
        <time>2026-07-07T09:03:09.000Z</time>
      </trkpt>
      <trkpt lat="45.80888" lon="1.90792">
        <ele>758.9</ele>
        <time>2026-07-07T09:03:10.000Z</time>
      </trkpt>
      <trkpt lat="45.80888" lon="1.90792">
        <ele>758.9</ele>
        <time>2026-07-07T09:03:11.000Z</time>
      </trkpt>
      <trkpt lat="45.80888" lon="1.90792">
        <ele>758.9</ele>
        <time>2026-07-07T09:03:12.000Z</time>
      </trkpt>
      <trkpt lat="45.80888" lon="1.90792">
        <ele>758.9</ele>
        <time>2026-07-07T09:03:13.000Z</time>
      </trkpt>
      <trkpt lat="45.80889" lon="1.90793">
        <ele>758.8</ele>
        <time>2026-07-07T09:03:14.000Z</time>
      </trkpt>
      <trkpt lat="45.80889" lon="1.90794">
        <ele>758.5</ele>
        <time>2026-07-07T09:03:15.000Z</time>
      </trkpt>
      <trkpt lat="45.80889" lon="1.90794">
        <ele>758.5</ele>
        <time>2026-07-07T09:03:16.000Z</time>
      </trkpt>
      <trkpt lat="45.80889" lon="1.90794">
        <ele>758.9</ele>
        <time>2026-07-07T09:03:17.000Z</time>
      </trkpt>
      <trkpt lat="45.80888" lon="1.90793">
        <ele>758.9</ele>
        <time>2026-07-07T09:03:18.000Z</time>
      </trkpt>
      <trkpt lat="45.80888" lon="1.90793">
        <ele>758.7</ele>
        <time>2026-07-07T09:03:19.000Z</time>
      </trkpt>
      <trkpt lat="45.80888" lon="1.90792">
        <ele>758.4</ele>
        <time>2026-07-07T09:03:20.000Z</time>
      </trkpt>
      <trkpt lat="45.80887" lon="1.9079">
        <ele>758.6</ele>
        <time>2026-07-07T09:03:21.000Z</time>
      </trkpt>
      <trkpt lat="45.80887" lon="1.90789">
        <ele>758.4</ele>
        <time>2026-07-07T09:03:22.000Z</time>
      </trkpt>
      <trkpt lat="45.80886" lon="1.90789">
        <ele>758.5</ele>
        <time>2026-07-07T09:03:23.000Z</time>
      </trkpt>
      <trkpt lat="45.80886" lon="1.90789">
        <ele>758.2</ele>
        <time>2026-07-07T09:03:24.000Z</time>
      </trkpt>
      <trkpt lat="45.80884" lon="1.90788">
        <ele>757.9</ele>
        <time>2026-07-07T09:03:25.000Z</time>
      </trkpt>
      <trkpt lat="45.80883" lon="1.90787">
        <ele>757.8</ele>
        <time>2026-07-07T09:03:26.000Z</time>
      </trkpt>
      <trkpt lat="45.80881" lon="1.90787">
        <ele>757.4</ele>
        <time>2026-07-07T09:03:27.000Z</time>
      </trkpt>
      <trkpt lat="45.8088" lon="1.90786">
        <ele>757.1</ele>
        <time>2026-07-07T09:03:28.000Z</time>
      </trkpt>
      <trkpt lat="45.80878" lon="1.90786">
        <ele>757.3</ele>
        <time>2026-07-07T09:03:29.000Z</time>
      </trkpt>
      <trkpt lat="45.80877" lon="1.90786">
        <ele>757</ele>
        <time>2026-07-07T09:03:30.000Z</time>
      </trkpt>
      <trkpt lat="45.80875" lon="1.90786">
        <ele>756.8</ele>
        <time>2026-07-07T09:03:31.000Z</time>
      </trkpt>
      <trkpt lat="45.80874" lon="1.90786">
        <ele>756.7</ele>
        <time>2026-07-07T09:03:32.000Z</time>
      </trkpt>
      <trkpt lat="45.80873" lon="1.90785">
        <ele>756.8</ele>
        <time>2026-07-07T09:03:33.000Z</time>
      </trkpt>
      <trkpt lat="45.80871" lon="1.90785">
        <ele>757</ele>
        <time>2026-07-07T09:03:34.000Z</time>
      </trkpt>
      <trkpt lat="45.8087" lon="1.90784">
        <ele>757.2</ele>
        <time>2026-07-07T09:03:35.000Z</time>
      </trkpt>
      <trkpt lat="45.80869" lon="1.90783">
        <ele>756.8</ele>
        <time>2026-07-07T09:03:36.000Z</time>
      </trkpt>
      <trkpt lat="45.80868" lon="1.90782">
        <ele>756.6</ele>
        <time>2026-07-07T09:03:37.000Z</time>
      </trkpt>
      <trkpt lat="45.80868" lon="1.9078">
        <ele>756.4</ele>
        <time>2026-07-07T09:03:38.000Z</time>
      </trkpt>
      <trkpt lat="45.80867" lon="1.9078">
        <ele>756.3</ele>
        <time>2026-07-07T09:03:39.000Z</time>
      </trkpt>
      <trkpt lat="45.80866" lon="1.90779">
        <ele>756.7</ele>
        <time>2026-07-07T09:03:40.000Z</time>
      </trkpt>
      <trkpt lat="45.80865" lon="1.9078">
        <ele>757</ele>
        <time>2026-07-07T09:03:41.000Z</time>
      </trkpt>
      <trkpt lat="45.80864" lon="1.90782">
        <ele>757.5</ele>
        <time>2026-07-07T09:03:42.000Z</time>
      </trkpt>
      <trkpt lat="45.80864" lon="1.90784">
        <ele>757.6</ele>
        <time>2026-07-07T09:03:43.000Z</time>
      </trkpt>
      <trkpt lat="45.80863" lon="1.90785">
        <ele>758.2</ele>
        <time>2026-07-07T09:03:44.000Z</time>
      </trkpt>
      <trkpt lat="45.80863" lon="1.90787">
        <ele>758.2</ele>
        <time>2026-07-07T09:03:45.000Z</time>
      </trkpt>
      <trkpt lat="45.80862" lon="1.90788">
        <ele>758.8</ele>
        <time>2026-07-07T09:03:46.000Z</time>
      </trkpt>
      <trkpt lat="45.80861" lon="1.90788">
        <ele>759.6</ele>
        <time>2026-07-07T09:03:47.000Z</time>
      </trkpt>
      <trkpt lat="45.8086" lon="1.90789">
        <ele>760</ele>
        <time>2026-07-07T09:03:48.000Z</time>
      </trkpt>
      <trkpt lat="45.80859" lon="1.90787">
        <ele>758.6</ele>
        <time>2026-07-07T09:03:49.000Z</time>
      </trkpt>
      <trkpt lat="45.80859" lon="1.90787">
        <ele>758</ele>
        <time>2026-07-07T09:03:50.000Z</time>
      </trkpt>
      <trkpt lat="45.80859" lon="1.90786">
        <ele>757.7</ele>
        <time>2026-07-07T09:03:51.000Z</time>
      </trkpt>
      <trkpt lat="45.80859" lon="1.90785">
        <ele>757.6</ele>
        <time>2026-07-07T09:03:52.000Z</time>
      </trkpt>
      <trkpt lat="45.80859" lon="1.90783">
        <ele>757.6</ele>
        <time>2026-07-07T09:03:53.000Z</time>
      </trkpt>
      <trkpt lat="45.80859" lon="1.90782">
        <ele>757.9</ele>
        <time>2026-07-07T09:03:54.000Z</time>
      </trkpt>
      <trkpt lat="45.80859" lon="1.90781">
        <ele>758</ele>
        <time>2026-07-07T09:03:55.000Z</time>
      </trkpt>
      <trkpt lat="45.80859" lon="1.9078">
        <ele>758.3</ele>
        <time>2026-07-07T09:03:56.000Z</time>
      </trkpt>
      <trkpt lat="45.80859" lon="1.90779">
        <ele>758.3</ele>
        <time>2026-07-07T09:03:57.000Z</time>
      </trkpt>
      <trkpt lat="45.80859" lon="1.90778">
        <ele>757.9</ele>
        <time>2026-07-07T09:03:58.000Z</time>
      </trkpt>
      <trkpt lat="45.80859" lon="1.90777">
        <ele>757.6</ele>
        <time>2026-07-07T09:03:59.000Z</time>
      </trkpt>
      <trkpt lat="45.80858" lon="1.90776">
        <ele>758.1</ele>
        <time>2026-07-07T09:04:00.000Z</time>
      </trkpt>
      <trkpt lat="45.80858" lon="1.90777">
        <ele>758.6</ele>
        <time>2026-07-07T09:04:01.000Z</time>
      </trkpt>
      <trkpt lat="45.80858" lon="1.90778">
        <ele>758.2</ele>
        <time>2026-07-07T09:04:02.000Z</time>
      </trkpt>
      <trkpt lat="45.80858" lon="1.90779">
        <ele>758.5</ele>
        <time>2026-07-07T09:04:03.000Z</time>
      </trkpt>
      <trkpt lat="45.80858" lon="1.90779">
        <ele>759.3</ele>
        <time>2026-07-07T09:04:04.000Z</time>
      </trkpt>
      <trkpt lat="45.80859" lon="1.90779">
        <ele>759</ele>
        <time>2026-07-07T09:04:05.000Z</time>
      </trkpt>
      <trkpt lat="45.80859" lon="1.90779">
        <ele>758.8</ele>
        <time>2026-07-07T09:04:06.000Z</time>
      </trkpt>
      <trkpt lat="45.80859" lon="1.90776">
        <ele>759</ele>
        <time>2026-07-07T09:04:07.000Z</time>
      </trkpt>
      <trkpt lat="45.80858" lon="1.90775">
        <ele>758.9</ele>
        <time>2026-07-07T09:04:08.000Z</time>
      </trkpt>
      <trkpt lat="45.80858" lon="1.90775">
        <ele>758.9</ele>
        <time>2026-07-07T09:04:09.000Z</time>
      </trkpt>
      <trkpt lat="45.80858" lon="1.90775">
        <ele>758.9</ele>
        <time>2026-07-07T09:04:10.000Z</time>
      </trkpt>
      <trkpt lat="45.80858" lon="1.90775">
        <ele>758.9</ele>
        <time>2026-07-07T09:04:11.000Z</time>
      </trkpt>
      <trkpt lat="45.80858" lon="1.90775">
        <ele>758.9</ele>
        <time>2026-07-07T09:04:12.000Z</time>
      </trkpt>
      <trkpt lat="45.80858" lon="1.90775">
        <ele>759.1</ele>
        <time>2026-07-07T09:04:13.000Z</time>
      </trkpt>
      <trkpt lat="45.80858" lon="1.90775">
        <ele>759</ele>
        <time>2026-07-07T09:04:14.000Z</time>
      </trkpt>
      <trkpt lat="45.80858" lon="1.90775">
        <ele>759.2</ele>
        <time>2026-07-07T09:04:15.000Z</time>
      </trkpt>
      <trkpt lat="45.80858" lon="1.90775">
        <ele>759.1</ele>
        <time>2026-07-07T09:04:16.000Z</time>
      </trkpt>
      <trkpt lat="45.80858" lon="1.90775">
        <ele>759.2</ele>
        <time>2026-07-07T09:04:17.000Z</time>
      </trkpt>
      <trkpt lat="45.80859" lon="1.90775">
        <ele>758.8</ele>
        <time>2026-07-07T09:04:18.000Z</time>
      </trkpt>
      <trkpt lat="45.80859" lon="1.90774">
        <ele>758.7</ele>
        <time>2026-07-07T09:04:19.000Z</time>
      </trkpt>
      <trkpt lat="45.80859" lon="1.90774">
        <ele>758.3</ele>
        <time>2026-07-07T09:04:20.000Z</time>
      </trkpt>
      <trkpt lat="45.8086" lon="1.90774">
        <ele>757.8</ele>
        <time>2026-07-07T09:04:21.000Z</time>
      </trkpt>
      <trkpt lat="45.8086" lon="1.90773">
        <ele>757.7</ele>
        <time>2026-07-07T09:04:22.000Z</time>
      </trkpt>
      <trkpt lat="45.80861" lon="1.90772">
        <ele>757.4</ele>
        <time>2026-07-07T09:04:23.000Z</time>
      </trkpt>
      <trkpt lat="45.80861" lon="1.90771">
        <ele>757.4</ele>
        <time>2026-07-07T09:04:24.000Z</time>
      </trkpt>
      <trkpt lat="45.80861" lon="1.90771">
        <ele>757.2</ele>
        <time>2026-07-07T09:04:25.000Z</time>
      </trkpt>
      <trkpt lat="45.80861" lon="1.9077">
        <ele>757.2</ele>
        <time>2026-07-07T09:04:26.000Z</time>
      </trkpt>
      <trkpt lat="45.80861" lon="1.9077">
        <ele>757</ele>
        <time>2026-07-07T09:04:27.000Z</time>
      </trkpt>
      <trkpt lat="45.80859" lon="1.9077">
        <ele>756.7</ele>
        <time>2026-07-07T09:04:28.000Z</time>
      </trkpt>
      <trkpt lat="45.8086" lon="1.90768">
        <ele>757.7</ele>
        <time>2026-07-07T09:04:29.000Z</time>
      </trkpt>
      <trkpt lat="45.80861" lon="1.90767">
        <ele>757</ele>
        <time>2026-07-07T09:04:30.000Z</time>
      </trkpt>
      <trkpt lat="45.80862" lon="1.90767">
        <ele>756.5</ele>
        <time>2026-07-07T09:04:31.000Z</time>
      </trkpt>
      <trkpt lat="45.80863" lon="1.90766">
        <ele>756.3</ele>
        <time>2026-07-07T09:04:32.000Z</time>
      </trkpt>
      <trkpt lat="45.80863" lon="1.90766">
        <ele>755.9</ele>
        <time>2026-07-07T09:04:33.000Z</time>
      </trkpt>
      <trkpt lat="45.80863" lon="1.90767">
        <ele>755.5</ele>
        <time>2026-07-07T09:04:34.000Z</time>
      </trkpt>
      <trkpt lat="45.80862" lon="1.90769">
        <ele>755.4</ele>
        <time>2026-07-07T09:04:35.000Z</time>
      </trkpt>
      <trkpt lat="45.80862" lon="1.90769">
        <ele>755.9</ele>
        <time>2026-07-07T09:04:36.000Z</time>
      </trkpt>
      <trkpt lat="45.80862" lon="1.9077">
        <ele>755.7</ele>
        <time>2026-07-07T09:04:37.000Z</time>
      </trkpt>
      <trkpt lat="45.80863" lon="1.9077">
        <ele>754.3</ele>
        <time>2026-07-07T09:04:38.000Z</time>
      </trkpt>
      <trkpt lat="45.80863" lon="1.9077">
        <ele>754.1</ele>
        <time>2026-07-07T09:04:39.000Z</time>
      </trkpt>
      <trkpt lat="45.80863" lon="1.90771">
        <ele>753.9</ele>
        <time>2026-07-07T09:04:40.000Z</time>
      </trkpt>
      <trkpt lat="45.80864" lon="1.90771">
        <ele>753.5</ele>
        <time>2026-07-07T09:04:41.000Z</time>
      </trkpt>
      <trkpt lat="45.80864" lon="1.90771">
        <ele>753.6</ele>
        <time>2026-07-07T09:04:42.000Z</time>
      </trkpt>
      <trkpt lat="45.80865" lon="1.90771">
        <ele>753.5</ele>
        <time>2026-07-07T09:04:43.000Z</time>
      </trkpt>
      <trkpt lat="45.80865" lon="1.90771">
        <ele>753.4</ele>
        <time>2026-07-07T09:04:44.000Z</time>
      </trkpt>
      <trkpt lat="45.80865" lon="1.9077">
        <ele>753</ele>
        <time>2026-07-07T09:04:45.000Z</time>
      </trkpt>
      <trkpt lat="45.80865" lon="1.9077">
        <ele>753</ele>
        <time>2026-07-07T09:04:46.000Z</time>
      </trkpt>
      <trkpt lat="45.80866" lon="1.9077">
        <ele>752.8</ele>
        <time>2026-07-07T09:04:47.000Z</time>
      </trkpt>
      <trkpt lat="45.80866" lon="1.9077">
        <ele>752.5</ele>
        <time>2026-07-07T09:04:48.000Z</time>
      </trkpt>
      <trkpt lat="45.80866" lon="1.9077">
        <ele>752.5</ele>
        <time>2026-07-07T09:04:49.000Z</time>
      </trkpt>
      <trkpt lat="45.80865" lon="1.9077">
        <ele>752.5</ele>
        <time>2026-07-07T09:04:50.000Z</time>
      </trkpt>
      <trkpt lat="45.80865" lon="1.90771">
        <ele>752.8</ele>
        <time>2026-07-07T09:04:51.000Z</time>
      </trkpt>
      <trkpt lat="45.80864" lon="1.90772">
        <ele>752.8</ele>
        <time>2026-07-07T09:04:52.000Z</time>
      </trkpt>
      <trkpt lat="45.80864" lon="1.90772">
        <ele>752.9</ele>
        <time>2026-07-07T09:04:53.000Z</time>
      </trkpt>
      <trkpt lat="45.80864" lon="1.90772">
        <ele>753</ele>
        <time>2026-07-07T09:04:54.000Z</time>
      </trkpt>
      <trkpt lat="45.80864" lon="1.90772">
        <ele>753.4</ele>
        <time>2026-07-07T09:04:55.000Z</time>
      </trkpt>
      <trkpt lat="45.80864" lon="1.90772">
        <ele>753.6</ele>
        <time>2026-07-07T09:04:56.000Z</time>
      </trkpt>
      <trkpt lat="45.80864" lon="1.90772">
        <ele>753.6</ele>
        <time>2026-07-07T09:04:57.000Z</time>
      </trkpt>
      <trkpt lat="45.80864" lon="1.90772">
        <ele>753.6</ele>
        <time>2026-07-07T09:04:58.000Z</time>
      </trkpt>
      <trkpt lat="45.80864" lon="1.90772">
        <ele>753.7</ele>
        <time>2026-07-07T09:04:59.000Z</time>
      </trkpt>
      <trkpt lat="45.80866" lon="1.90771">
        <ele>753.3</ele>
        <time>2026-07-07T09:05:00.000Z</time>
      </trkpt>
      <trkpt lat="45.80867" lon="1.90771">
        <ele>753.7</ele>
        <time>2026-07-07T09:05:01.000Z</time>
      </trkpt>
      <trkpt lat="45.80868" lon="1.90771">
        <ele>753.1</ele>
        <time>2026-07-07T09:05:02.000Z</time>
      </trkpt>
      <trkpt lat="45.80868" lon="1.90771">
        <ele>753.8</ele>
        <time>2026-07-07T09:05:03.000Z</time>
      </trkpt>
      <trkpt lat="45.80869" lon="1.90771">
        <ele>754.3</ele>
        <time>2026-07-07T09:05:04.000Z</time>
      </trkpt>
      <trkpt lat="45.80869" lon="1.90771">
        <ele>754.2</ele>
        <time>2026-07-07T09:05:05.000Z</time>
      </trkpt>
      <trkpt lat="45.80868" lon="1.90769">
        <ele>755.3</ele>
        <time>2026-07-07T09:05:06.000Z</time>
      </trkpt>
      <trkpt lat="45.80868" lon="1.90768">
        <ele>754.7</ele>
        <time>2026-07-07T09:05:07.000Z</time>
      </trkpt>
      <trkpt lat="45.80868" lon="1.90766">
        <ele>754.7</ele>
        <time>2026-07-07T09:05:08.000Z</time>
      </trkpt>
      <trkpt lat="45.80867" lon="1.90766">
        <ele>754.7</ele>
        <time>2026-07-07T09:05:09.000Z</time>
      </trkpt>
      <trkpt lat="45.80867" lon="1.90766">
        <ele>754.7</ele>
        <time>2026-07-07T09:05:10.000Z</time>
      </trkpt>
      <trkpt lat="45.80867" lon="1.90767">
        <ele>754.6</ele>
        <time>2026-07-07T09:05:11.000Z</time>
      </trkpt>
      <trkpt lat="45.80867" lon="1.90767">
        <ele>755.3</ele>
        <time>2026-07-07T09:05:12.000Z</time>
      </trkpt>
      <trkpt lat="45.80867" lon="1.90768">
        <ele>755.3</ele>
        <time>2026-07-07T09:05:13.000Z</time>
      </trkpt>
      <trkpt lat="45.80866" lon="1.90769">
        <ele>755.6</ele>
        <time>2026-07-07T09:05:14.000Z</time>
      </trkpt>
      <trkpt lat="45.80865" lon="1.90769">
        <ele>755.6</ele>
        <time>2026-07-07T09:05:15.000Z</time>
      </trkpt>
      <trkpt lat="45.80865" lon="1.90769">
        <ele>755.6</ele>
        <time>2026-07-07T09:05:16.000Z</time>
      </trkpt>
      <trkpt lat="45.80865" lon="1.90769">
        <ele>755.6</ele>
        <time>2026-07-07T09:05:17.000Z</time>
      </trkpt>
      <trkpt lat="45.80865" lon="1.90769">
        <ele>755.4</ele>
        <time>2026-07-07T09:05:18.000Z</time>
      </trkpt>
      <trkpt lat="45.80864" lon="1.9077">
        <ele>755.4</ele>
        <time>2026-07-07T09:05:19.000Z</time>
      </trkpt>
      <trkpt lat="45.80864" lon="1.9077">
        <ele>756</ele>
        <time>2026-07-07T09:05:20.000Z</time>
      </trkpt>
      <trkpt lat="45.80864" lon="1.9077">
        <ele>755.8</ele>
        <time>2026-07-07T09:05:21.000Z</time>
      </trkpt>
      <trkpt lat="45.80864" lon="1.9077">
        <ele>755.6</ele>
        <time>2026-07-07T09:05:22.000Z</time>
      </trkpt>
      <trkpt lat="45.80864" lon="1.9077">
        <ele>755.6</ele>
        <time>2026-07-07T09:05:23.000Z</time>
      </trkpt>
      <trkpt lat="45.80863" lon="1.9077">
        <ele>755.6</ele>
        <time>2026-07-07T09:05:24.000Z</time>
      </trkpt>
      <trkpt lat="45.80863" lon="1.90771">
        <ele>755.6</ele>
        <time>2026-07-07T09:05:25.000Z</time>
      </trkpt>
      <trkpt lat="45.80863" lon="1.90771">
        <ele>755.6</ele>
        <time>2026-07-07T09:05:26.000Z</time>
      </trkpt>
      <trkpt lat="45.80863" lon="1.90771">
        <ele>755.6</ele>
        <time>2026-07-07T09:05:27.000Z</time>
      </trkpt>
      <trkpt lat="45.80863" lon="1.90771">
        <ele>755.7</ele>
        <time>2026-07-07T09:05:28.000Z</time>
      </trkpt>
      <trkpt lat="45.80863" lon="1.90772">
        <ele>756.2</ele>
        <time>2026-07-07T09:05:29.000Z</time>
      </trkpt>
      <trkpt lat="45.80862" lon="1.90773">
        <ele>756.3</ele>
        <time>2026-07-07T09:05:30.000Z</time>
      </trkpt>
      <trkpt lat="45.80862" lon="1.90773">
        <ele>756.2</ele>
        <time>2026-07-07T09:05:31.000Z</time>
      </trkpt>
      <trkpt lat="45.8086" lon="1.90773">
        <ele>755.9</ele>
        <time>2026-07-07T09:05:32.000Z</time>
      </trkpt>
      <trkpt lat="45.80859" lon="1.90774">
        <ele>756</ele>
        <time>2026-07-07T09:05:33.000Z</time>
      </trkpt>
      <trkpt lat="45.80859" lon="1.90775">
        <ele>756.6</ele>
        <time>2026-07-07T09:05:34.000Z</time>
      </trkpt>
      <trkpt lat="45.80857" lon="1.90776">
        <ele>756.6</ele>
        <time>2026-07-07T09:05:35.000Z</time>
      </trkpt>
      <trkpt lat="45.80857" lon="1.90776">
        <ele>756.9</ele>
        <time>2026-07-07T09:05:36.000Z</time>
      </trkpt>
      <trkpt lat="45.80857" lon="1.90777">
        <ele>756.6</ele>
        <time>2026-07-07T09:05:37.000Z</time>
      </trkpt>
      <trkpt lat="45.80856" lon="1.90778">
        <ele>756.8</ele>
        <time>2026-07-07T09:05:38.000Z</time>
      </trkpt>
      <trkpt lat="45.80855" lon="1.90778">
        <ele>756.9</ele>
        <time>2026-07-07T09:05:39.000Z</time>
      </trkpt>
      <trkpt lat="45.80855" lon="1.90779">
        <ele>756.9</ele>
        <time>2026-07-07T09:05:40.000Z</time>
      </trkpt>
      <trkpt lat="45.80853" lon="1.90779">
        <ele>757.2</ele>
        <time>2026-07-07T09:05:41.000Z</time>
      </trkpt>
      <trkpt lat="45.80852" lon="1.9078">
        <ele>757</ele>
        <time>2026-07-07T09:05:42.000Z</time>
      </trkpt>
      <trkpt lat="45.80851" lon="1.9078">
        <ele>757.1</ele>
        <time>2026-07-07T09:05:43.000Z</time>
      </trkpt>
      <trkpt lat="45.8085" lon="1.90781">
        <ele>756.8</ele>
        <time>2026-07-07T09:05:44.000Z</time>
      </trkpt>
      <trkpt lat="45.80849" lon="1.90782">
        <ele>757.6</ele>
        <time>2026-07-07T09:05:45.000Z</time>
      </trkpt>
      <trkpt lat="45.80848" lon="1.90783">
        <ele>757.4</ele>
        <time>2026-07-07T09:05:46.000Z</time>
      </trkpt>
      <trkpt lat="45.80847" lon="1.90783">
        <ele>757.5</ele>
        <time>2026-07-07T09:05:47.000Z</time>
      </trkpt>
      <trkpt lat="45.80846" lon="1.90784">
        <ele>757.2</ele>
        <time>2026-07-07T09:05:48.000Z</time>
      </trkpt>
      <trkpt lat="45.80844" lon="1.90783">
        <ele>757.2</ele>
        <time>2026-07-07T09:05:49.000Z</time>
      </trkpt>
      <trkpt lat="45.80843" lon="1.90784">
        <ele>757.3</ele>
        <time>2026-07-07T09:05:50.000Z</time>
      </trkpt>
      <trkpt lat="45.80842" lon="1.90784">
        <ele>756.9</ele>
        <time>2026-07-07T09:05:51.000Z</time>
      </trkpt>
      <trkpt lat="45.80841" lon="1.90785">
        <ele>756.9</ele>
        <time>2026-07-07T09:05:52.000Z</time>
      </trkpt>
      <trkpt lat="45.80838" lon="1.90784">
        <ele>757.9</ele>
        <time>2026-07-07T09:05:53.000Z</time>
      </trkpt>
      <trkpt lat="45.80839" lon="1.90783">
        <ele>759.2</ele>
        <time>2026-07-07T09:05:54.000Z</time>
      </trkpt>
      <trkpt lat="45.80839" lon="1.90783">
        <ele>758.6</ele>
        <time>2026-07-07T09:05:55.000Z</time>
      </trkpt>
      <trkpt lat="45.80838" lon="1.90784">
        <ele>758.4</ele>
        <time>2026-07-07T09:05:56.000Z</time>
      </trkpt>
      <trkpt lat="45.80837" lon="1.90784">
        <ele>758.1</ele>
        <time>2026-07-07T09:05:57.000Z</time>
      </trkpt>
      <trkpt lat="45.80836" lon="1.90784">
        <ele>758</ele>
        <time>2026-07-07T09:05:58.000Z</time>
      </trkpt>
      <trkpt lat="45.80834" lon="1.90784">
        <ele>757.7</ele>
        <time>2026-07-07T09:05:59.000Z</time>
      </trkpt>
      <trkpt lat="45.80833" lon="1.90784">
        <ele>757.9</ele>
        <time>2026-07-07T09:06:00.000Z</time>
      </trkpt>
      <trkpt lat="45.80832" lon="1.90785">
        <ele>759.2</ele>
        <time>2026-07-07T09:06:01.000Z</time>
      </trkpt>
      <trkpt lat="45.80831" lon="1.90785">
        <ele>759.1</ele>
        <time>2026-07-07T09:06:02.000Z</time>
      </trkpt>
      <trkpt lat="45.8083" lon="1.90786">
        <ele>759.3</ele>
        <time>2026-07-07T09:06:03.000Z</time>
      </trkpt>
      <trkpt lat="45.80829" lon="1.90786">
        <ele>759.9</ele>
        <time>2026-07-07T09:06:04.000Z</time>
      </trkpt>
      <trkpt lat="45.80828" lon="1.90786">
        <ele>760.6</ele>
        <time>2026-07-07T09:06:05.000Z</time>
      </trkpt>
      <trkpt lat="45.80827" lon="1.90786">
        <ele>760.8</ele>
        <time>2026-07-07T09:06:06.000Z</time>
      </trkpt>
      <trkpt lat="45.80825" lon="1.90786">
        <ele>760.4</ele>
        <time>2026-07-07T09:06:07.000Z</time>
      </trkpt>
      <trkpt lat="45.80824" lon="1.90786">
        <ele>759.8</ele>
        <time>2026-07-07T09:06:08.000Z</time>
      </trkpt>
      <trkpt lat="45.80823" lon="1.90786">
        <ele>759.7</ele>
        <time>2026-07-07T09:06:09.000Z</time>
      </trkpt>
      <trkpt lat="45.80822" lon="1.90787">
        <ele>759.9</ele>
        <time>2026-07-07T09:06:10.000Z</time>
      </trkpt>
      <trkpt lat="45.80821" lon="1.90787">
        <ele>759.4</ele>
        <time>2026-07-07T09:06:11.000Z</time>
      </trkpt>
      <trkpt lat="45.8082" lon="1.90788">
        <ele>759.4</ele>
        <time>2026-07-07T09:06:12.000Z</time>
      </trkpt>
      <trkpt lat="45.80819" lon="1.90788">
        <ele>759.6</ele>
        <time>2026-07-07T09:06:13.000Z</time>
      </trkpt>
      <trkpt lat="45.80818" lon="1.90789">
        <ele>760.1</ele>
        <time>2026-07-07T09:06:14.000Z</time>
      </trkpt>
      <trkpt lat="45.80818" lon="1.9079">
        <ele>760.3</ele>
        <time>2026-07-07T09:06:15.000Z</time>
      </trkpt>
      <trkpt lat="45.80817" lon="1.9079">
        <ele>760.4</ele>
        <time>2026-07-07T09:06:16.000Z</time>
      </trkpt>
      <trkpt lat="45.80816" lon="1.90791">
        <ele>760.2</ele>
        <time>2026-07-07T09:06:17.000Z</time>
      </trkpt>
      <trkpt lat="45.80815" lon="1.90792">
        <ele>760.5</ele>
        <time>2026-07-07T09:06:18.000Z</time>
      </trkpt>
      <trkpt lat="45.80815" lon="1.90793">
        <ele>760.5</ele>
        <time>2026-07-07T09:06:19.000Z</time>
      </trkpt>
      <trkpt lat="45.80814" lon="1.90794">
        <ele>758.7</ele>
        <time>2026-07-07T09:06:20.000Z</time>
      </trkpt>
      <trkpt lat="45.80814" lon="1.90794">
        <ele>759.1</ele>
        <time>2026-07-07T09:06:21.000Z</time>
      </trkpt>
      <trkpt lat="45.80814" lon="1.90794">
        <ele>757.1</ele>
        <time>2026-07-07T09:06:22.000Z</time>
      </trkpt>
      <trkpt lat="45.80813" lon="1.90794">
        <ele>758.4</ele>
        <time>2026-07-07T09:06:23.000Z</time>
      </trkpt>
      <trkpt lat="45.80813" lon="1.90794">
        <ele>758.3</ele>
        <time>2026-07-07T09:06:24.000Z</time>
      </trkpt>
      <trkpt lat="45.80814" lon="1.90793">
        <ele>758.4</ele>
        <time>2026-07-07T09:06:25.000Z</time>
      </trkpt>
      <trkpt lat="45.80814" lon="1.90793">
        <ele>758.4</ele>
        <time>2026-07-07T09:06:26.000Z</time>
      </trkpt>
      <trkpt lat="45.80814" lon="1.90793">
        <ele>758.5</ele>
        <time>2026-07-07T09:06:27.000Z</time>
      </trkpt>
      <trkpt lat="45.80814" lon="1.90793">
        <ele>758.5</ele>
        <time>2026-07-07T09:06:28.000Z</time>
      </trkpt>
      <trkpt lat="45.80813" lon="1.90793">
        <ele>758.1</ele>
        <time>2026-07-07T09:06:29.000Z</time>
      </trkpt>
      <trkpt lat="45.80813" lon="1.90793">
        <ele>758.1</ele>
        <time>2026-07-07T09:06:30.000Z</time>
      </trkpt>
      <trkpt lat="45.80813" lon="1.90793">
        <ele>758.1</ele>
        <time>2026-07-07T09:06:31.000Z</time>
      </trkpt>
      <trkpt lat="45.80813" lon="1.90793">
        <ele>757.8</ele>
        <time>2026-07-07T09:06:32.000Z</time>
      </trkpt>
      <trkpt lat="45.80813" lon="1.90793">
        <ele>757.5</ele>
        <time>2026-07-07T09:06:33.000Z</time>
      </trkpt>
      <trkpt lat="45.80813" lon="1.90793">
        <ele>757.1</ele>
        <time>2026-07-07T09:06:34.000Z</time>
      </trkpt>
      <trkpt lat="45.80812" lon="1.90793">
        <ele>757.5</ele>
        <time>2026-07-07T09:06:35.000Z</time>
      </trkpt>
      <trkpt lat="45.80812" lon="1.90793">
        <ele>757.6</ele>
        <time>2026-07-07T09:06:36.000Z</time>
      </trkpt>
      <trkpt lat="45.80812" lon="1.90793">
        <ele>757.6</ele>
        <time>2026-07-07T09:06:37.000Z</time>
      </trkpt>
      <trkpt lat="45.80812" lon="1.90793">
        <ele>757.1</ele>
        <time>2026-07-07T09:06:38.000Z</time>
      </trkpt>
      <trkpt lat="45.80812" lon="1.90792">
        <ele>757.1</ele>
        <time>2026-07-07T09:06:39.000Z</time>
      </trkpt>
      <trkpt lat="45.80812" lon="1.90793">
        <ele>756.6</ele>
        <time>2026-07-07T09:06:40.000Z</time>
      </trkpt>
      <trkpt lat="45.80812" lon="1.90793">
        <ele>756.6</ele>
        <time>2026-07-07T09:06:41.000Z</time>
      </trkpt>
      <trkpt lat="45.80813" lon="1.90793">
        <ele>757</ele>
        <time>2026-07-07T09:06:42.000Z</time>
      </trkpt>
      <trkpt lat="45.80813" lon="1.90794">
        <ele>757.3</ele>
        <time>2026-07-07T09:06:43.000Z</time>
      </trkpt>
      <trkpt lat="45.80813" lon="1.90794">
        <ele>757.2</ele>
        <time>2026-07-07T09:06:44.000Z</time>
      </trkpt>
      <trkpt lat="45.80813" lon="1.90794">
        <ele>757.2</ele>
        <time>2026-07-07T09:06:45.000Z</time>
      </trkpt>
      <trkpt lat="45.80813" lon="1.90794">
        <ele>757.2</ele>
        <time>2026-07-07T09:06:46.000Z</time>
      </trkpt>
      <trkpt lat="45.80813" lon="1.90794">
        <ele>757.2</ele>
        <time>2026-07-07T09:06:47.000Z</time>
      </trkpt>
      <trkpt lat="45.80813" lon="1.90794">
        <ele>757.2</ele>
        <time>2026-07-07T09:06:48.000Z</time>
      </trkpt>
      <trkpt lat="45.80813" lon="1.90794">
        <ele>757.2</ele>
        <time>2026-07-07T09:06:49.000Z</time>
      </trkpt>
      <trkpt lat="45.80813" lon="1.90794">
        <ele>757.2</ele>
        <time>2026-07-07T09:06:50.000Z</time>
      </trkpt>
      <trkpt lat="45.80813" lon="1.90794">
        <ele>757.2</ele>
        <time>2026-07-07T09:06:51.000Z</time>
      </trkpt>
      <trkpt lat="45.80813" lon="1.90794">
        <ele>757.2</ele>
        <time>2026-07-07T09:06:52.000Z</time>
      </trkpt>
      <trkpt lat="45.80813" lon="1.90794">
        <ele>757.2</ele>
        <time>2026-07-07T09:06:53.000Z</time>
      </trkpt>
      <trkpt lat="45.80813" lon="1.90794">
        <ele>756.5</ele>
        <time>2026-07-07T09:06:54.000Z</time>
      </trkpt>
      <trkpt lat="45.80813" lon="1.90794">
        <ele>756.5</ele>
        <time>2026-07-07T09:06:55.000Z</time>
      </trkpt>
      <trkpt lat="45.80813" lon="1.90794">
        <ele>756.5</ele>
        <time>2026-07-07T09:06:56.000Z</time>
      </trkpt>
      <trkpt lat="45.80813" lon="1.90793">
        <ele>756.4</ele>
        <time>2026-07-07T09:06:57.000Z</time>
      </trkpt>
      <trkpt lat="45.80812" lon="1.90793">
        <ele>756.5</ele>
        <time>2026-07-07T09:06:58.000Z</time>
      </trkpt>
      <trkpt lat="45.80811" lon="1.90794">
        <ele>756.8</ele>
        <time>2026-07-07T09:06:59.000Z</time>
      </trkpt>
      <trkpt lat="45.80811" lon="1.90795">
        <ele>756.6</ele>
        <time>2026-07-07T09:07:00.000Z</time>
      </trkpt>
      <trkpt lat="45.8081" lon="1.90796">
        <ele>756.6</ele>
        <time>2026-07-07T09:07:01.000Z</time>
      </trkpt>
      <trkpt lat="45.8081" lon="1.90796">
        <ele>757.1</ele>
        <time>2026-07-07T09:07:02.000Z</time>
      </trkpt>
      <trkpt lat="45.8081" lon="1.90797">
        <ele>757.1</ele>
        <time>2026-07-07T09:07:03.000Z</time>
      </trkpt>
      <trkpt lat="45.8081" lon="1.90797">
        <ele>757.1</ele>
        <time>2026-07-07T09:07:04.000Z</time>
      </trkpt>
      <trkpt lat="45.8081" lon="1.90798">
        <ele>756.5</ele>
        <time>2026-07-07T09:07:05.000Z</time>
      </trkpt>
      <trkpt lat="45.8081" lon="1.90798">
        <ele>756.2</ele>
        <time>2026-07-07T09:07:06.000Z</time>
      </trkpt>
      <trkpt lat="45.8081" lon="1.90798">
        <ele>756.1</ele>
        <time>2026-07-07T09:07:07.000Z</time>
      </trkpt>
      <trkpt lat="45.80811" lon="1.90798">
        <ele>755.9</ele>
        <time>2026-07-07T09:07:08.000Z</time>
      </trkpt>
      <trkpt lat="45.80811" lon="1.90798">
        <ele>755.8</ele>
        <time>2026-07-07T09:07:09.000Z</time>
      </trkpt>
      <trkpt lat="45.8081" lon="1.90797">
        <ele>755.8</ele>
        <time>2026-07-07T09:07:10.000Z</time>
      </trkpt>
      <trkpt lat="45.80811" lon="1.90796">
        <ele>755.8</ele>
        <time>2026-07-07T09:07:11.000Z</time>
      </trkpt>
      <trkpt lat="45.80811" lon="1.90796">
        <ele>755</ele>
        <time>2026-07-07T09:07:12.000Z</time>
      </trkpt>
      <trkpt lat="45.80812" lon="1.90796">
        <ele>755</ele>
        <time>2026-07-07T09:07:13.000Z</time>
      </trkpt>
      <trkpt lat="45.80812" lon="1.90795">
        <ele>754</ele>
        <time>2026-07-07T09:07:14.000Z</time>
      </trkpt>
      <trkpt lat="45.80814" lon="1.90793">
        <ele>754.4</ele>
        <time>2026-07-07T09:07:15.000Z</time>
      </trkpt>
      <trkpt lat="45.80815" lon="1.90791">
        <ele>754</ele>
        <time>2026-07-07T09:07:16.000Z</time>
      </trkpt>
      <trkpt lat="45.80817" lon="1.90789">
        <ele>754.1</ele>
        <time>2026-07-07T09:07:17.000Z</time>
      </trkpt>
      <trkpt lat="45.80818" lon="1.90788">
        <ele>755.5</ele>
        <time>2026-07-07T09:07:18.000Z</time>
      </trkpt>
      <trkpt lat="45.8082" lon="1.90787">
        <ele>755.6</ele>
        <time>2026-07-07T09:07:19.000Z</time>
      </trkpt>
      <trkpt lat="45.80821" lon="1.90786">
        <ele>755.6</ele>
        <time>2026-07-07T09:07:20.000Z</time>
      </trkpt>
      <trkpt lat="45.80823" lon="1.90786">
        <ele>756.3</ele>
        <time>2026-07-07T09:07:21.000Z</time>
      </trkpt>
      <trkpt lat="45.80825" lon="1.90786">
        <ele>756.6</ele>
        <time>2026-07-07T09:07:22.000Z</time>
      </trkpt>
      <trkpt lat="45.80827" lon="1.90785">
        <ele>756.4</ele>
        <time>2026-07-07T09:07:23.000Z</time>
      </trkpt>
      <trkpt lat="45.8083" lon="1.90785">
        <ele>756.9</ele>
        <time>2026-07-07T09:07:24.000Z</time>
      </trkpt>
      <trkpt lat="45.80833" lon="1.90784">
        <ele>755.9</ele>
        <time>2026-07-07T09:07:25.000Z</time>
      </trkpt>
      <trkpt lat="45.80835" lon="1.90785">
        <ele>755.1</ele>
        <time>2026-07-07T09:07:26.000Z</time>
      </trkpt>
      <trkpt lat="45.80837" lon="1.90785">
        <ele>755</ele>
        <time>2026-07-07T09:07:27.000Z</time>
      </trkpt>
      <trkpt lat="45.80837" lon="1.90785">
        <ele>755.4</ele>
        <time>2026-07-07T09:07:28.000Z</time>
      </trkpt>
      <trkpt lat="45.80838" lon="1.90784">
        <ele>755.7</ele>
        <time>2026-07-07T09:07:29.000Z</time>
      </trkpt>
      <trkpt lat="45.80839" lon="1.90783">
        <ele>755.6</ele>
        <time>2026-07-07T09:07:30.000Z</time>
      </trkpt>
      <trkpt lat="45.80841" lon="1.90783">
        <ele>755.6</ele>
        <time>2026-07-07T09:07:31.000Z</time>
      </trkpt>
      <trkpt lat="45.80842" lon="1.90783">
        <ele>755.4</ele>
        <time>2026-07-07T09:07:32.000Z</time>
      </trkpt>
      <trkpt lat="45.80844" lon="1.90782">
        <ele>755.1</ele>
        <time>2026-07-07T09:07:33.000Z</time>
      </trkpt>
      <trkpt lat="45.80845" lon="1.90782">
        <ele>755</ele>
        <time>2026-07-07T09:07:34.000Z</time>
      </trkpt>
      <trkpt lat="45.80846" lon="1.90782">
        <ele>755.2</ele>
        <time>2026-07-07T09:07:35.000Z</time>
      </trkpt>
      <trkpt lat="45.80848" lon="1.90782">
        <ele>755.4</ele>
        <time>2026-07-07T09:07:36.000Z</time>
      </trkpt>
      <trkpt lat="45.80849" lon="1.90781">
        <ele>755</ele>
        <time>2026-07-07T09:07:37.000Z</time>
      </trkpt>
      <trkpt lat="45.8085" lon="1.9078">
        <ele>755</ele>
        <time>2026-07-07T09:07:38.000Z</time>
      </trkpt>
      <trkpt lat="45.80851" lon="1.9078">
        <ele>754.9</ele>
        <time>2026-07-07T09:07:39.000Z</time>
      </trkpt>
      <trkpt lat="45.80852" lon="1.9078">
        <ele>755.2</ele>
        <time>2026-07-07T09:07:40.000Z</time>
      </trkpt>
      <trkpt lat="45.80854" lon="1.9078">
        <ele>755.5</ele>
        <time>2026-07-07T09:07:41.000Z</time>
      </trkpt>
      <trkpt lat="45.80855" lon="1.9078">
        <ele>755.5</ele>
        <time>2026-07-07T09:07:42.000Z</time>
      </trkpt>
      <trkpt lat="45.80856" lon="1.9078">
        <ele>755.5</ele>
        <time>2026-07-07T09:07:43.000Z</time>
      </trkpt>
      <trkpt lat="45.80857" lon="1.9078">
        <ele>755.5</ele>
        <time>2026-07-07T09:07:44.000Z</time>
      </trkpt>
      <trkpt lat="45.80858" lon="1.90778">
        <ele>755.1</ele>
        <time>2026-07-07T09:07:45.000Z</time>
      </trkpt>
      <trkpt lat="45.80859" lon="1.90777">
        <ele>754.8</ele>
        <time>2026-07-07T09:07:46.000Z</time>
      </trkpt>
      <trkpt lat="45.8086" lon="1.90776">
        <ele>754.5</ele>
        <time>2026-07-07T09:07:47.000Z</time>
      </trkpt>
      <trkpt lat="45.80862" lon="1.90775">
        <ele>754.6</ele>
        <time>2026-07-07T09:07:48.000Z</time>
      </trkpt>
      <trkpt lat="45.80863" lon="1.90775">
        <ele>754.7</ele>
        <time>2026-07-07T09:07:49.000Z</time>
      </trkpt>
      <trkpt lat="45.80864" lon="1.90775">
        <ele>754.8</ele>
        <time>2026-07-07T09:07:50.000Z</time>
      </trkpt>
      <trkpt lat="45.80865" lon="1.90773">
        <ele>754.5</ele>
        <time>2026-07-07T09:07:51.000Z</time>
      </trkpt>
      <trkpt lat="45.80867" lon="1.90772">
        <ele>754.4</ele>
        <time>2026-07-07T09:07:52.000Z</time>
      </trkpt>
      <trkpt lat="45.80867" lon="1.9077">
        <ele>754.1</ele>
        <time>2026-07-07T09:07:53.000Z</time>
      </trkpt>
      <trkpt lat="45.80868" lon="1.90768">
        <ele>753.6</ele>
        <time>2026-07-07T09:07:54.000Z</time>
      </trkpt>
      <trkpt lat="45.80868" lon="1.90766">
        <ele>753.6</ele>
        <time>2026-07-07T09:07:55.000Z</time>
      </trkpt>
      <trkpt lat="45.80869" lon="1.90764">
        <ele>753.5</ele>
        <time>2026-07-07T09:07:56.000Z</time>
      </trkpt>
      <trkpt lat="45.8087" lon="1.90762">
        <ele>754.3</ele>
        <time>2026-07-07T09:07:57.000Z</time>
      </trkpt>
      <trkpt lat="45.80871" lon="1.90762">
        <ele>753</ele>
        <time>2026-07-07T09:07:58.000Z</time>
      </trkpt>
      <trkpt lat="45.80873" lon="1.90762">
        <ele>752.7</ele>
        <time>2026-07-07T09:07:59.000Z</time>
      </trkpt>
      <trkpt lat="45.80875" lon="1.90761">
        <ele>752.1</ele>
        <time>2026-07-07T09:08:00.000Z</time>
      </trkpt>
      <trkpt lat="45.80876" lon="1.90761">
        <ele>751.7</ele>
        <time>2026-07-07T09:08:01.000Z</time>
      </trkpt>
      <trkpt lat="45.80878" lon="1.90762">
        <ele>751.8</ele>
        <time>2026-07-07T09:08:02.000Z</time>
      </trkpt>
      <trkpt lat="45.8088" lon="1.90762">
        <ele>751.8</ele>
        <time>2026-07-07T09:08:03.000Z</time>
      </trkpt>
      <trkpt lat="45.80883" lon="1.90762">
        <ele>751.2</ele>
        <time>2026-07-07T09:08:04.000Z</time>
      </trkpt>
      <trkpt lat="45.80884" lon="1.90759">
        <ele>750.7</ele>
        <time>2026-07-07T09:08:05.000Z</time>
      </trkpt>
      <trkpt lat="45.80885" lon="1.90757">
        <ele>750.1</ele>
        <time>2026-07-07T09:08:06.000Z</time>
      </trkpt>
      <trkpt lat="45.80886" lon="1.90755">
        <ele>750.2</ele>
        <time>2026-07-07T09:08:07.000Z</time>
      </trkpt>
      <trkpt lat="45.80886" lon="1.90753">
        <ele>750.1</ele>
        <time>2026-07-07T09:08:08.000Z</time>
      </trkpt>
      <trkpt lat="45.80887" lon="1.90751">
        <ele>749.9</ele>
        <time>2026-07-07T09:08:09.000Z</time>
      </trkpt>
      <trkpt lat="45.80888" lon="1.9075">
        <ele>749.6</ele>
        <time>2026-07-07T09:08:10.000Z</time>
      </trkpt>
      <trkpt lat="45.80889" lon="1.90748">
        <ele>749.4</ele>
        <time>2026-07-07T09:08:11.000Z</time>
      </trkpt>
      <trkpt lat="45.8089" lon="1.90746">
        <ele>749.4</ele>
        <time>2026-07-07T09:08:12.000Z</time>
      </trkpt>
      <trkpt lat="45.80891" lon="1.90745">
        <ele>749.2</ele>
        <time>2026-07-07T09:08:13.000Z</time>
      </trkpt>
      <trkpt lat="45.80892" lon="1.90743">
        <ele>749.3</ele>
        <time>2026-07-07T09:08:14.000Z</time>
      </trkpt>
      <trkpt lat="45.80893" lon="1.90742">
        <ele>749.3</ele>
        <time>2026-07-07T09:08:15.000Z</time>
      </trkpt>
      <trkpt lat="45.80894" lon="1.9074">
        <ele>749.3</ele>
        <time>2026-07-07T09:08:16.000Z</time>
      </trkpt>
      <trkpt lat="45.80895" lon="1.90739">
        <ele>749.2</ele>
        <time>2026-07-07T09:08:17.000Z</time>
      </trkpt>
      <trkpt lat="45.80897" lon="1.90738">
        <ele>748.9</ele>
        <time>2026-07-07T09:08:18.000Z</time>
      </trkpt>
      <trkpt lat="45.80898" lon="1.90736">
        <ele>748.5</ele>
        <time>2026-07-07T09:08:19.000Z</time>
      </trkpt>
      <trkpt lat="45.80899" lon="1.90735">
        <ele>748.1</ele>
        <time>2026-07-07T09:08:20.000Z</time>
      </trkpt>
      <trkpt lat="45.809" lon="1.90734">
        <ele>748</ele>
        <time>2026-07-07T09:08:21.000Z</time>
      </trkpt>
      <trkpt lat="45.80901" lon="1.90733">
        <ele>747.5</ele>
        <time>2026-07-07T09:08:22.000Z</time>
      </trkpt>
      <trkpt lat="45.80903" lon="1.90732">
        <ele>747.3</ele>
        <time>2026-07-07T09:08:23.000Z</time>
      </trkpt>
      <trkpt lat="45.80904" lon="1.90732">
        <ele>747.4</ele>
        <time>2026-07-07T09:08:24.000Z</time>
      </trkpt>
      <trkpt lat="45.80905" lon="1.90731">
        <ele>747.4</ele>
        <time>2026-07-07T09:08:25.000Z</time>
      </trkpt>
      <trkpt lat="45.80905" lon="1.9073">
        <ele>747.5</ele>
        <time>2026-07-07T09:08:26.000Z</time>
      </trkpt>
      <trkpt lat="45.80906" lon="1.90729">
        <ele>747.6</ele>
        <time>2026-07-07T09:08:27.000Z</time>
      </trkpt>
      <trkpt lat="45.80907" lon="1.90728">
        <ele>747.3</ele>
        <time>2026-07-07T09:08:28.000Z</time>
      </trkpt>
      <trkpt lat="45.80908" lon="1.90727">
        <ele>746.8</ele>
        <time>2026-07-07T09:08:29.000Z</time>
      </trkpt>
      <trkpt lat="45.80909" lon="1.90726">
        <ele>746.8</ele>
        <time>2026-07-07T09:08:30.000Z</time>
      </trkpt>
      <trkpt lat="45.8091" lon="1.90724">
        <ele>746.5</ele>
        <time>2026-07-07T09:08:31.000Z</time>
      </trkpt>
      <trkpt lat="45.80911" lon="1.90723">
        <ele>746.1</ele>
        <time>2026-07-07T09:08:32.000Z</time>
      </trkpt>
      <trkpt lat="45.80913" lon="1.90722">
        <ele>746.2</ele>
        <time>2026-07-07T09:08:33.000Z</time>
      </trkpt>
      <trkpt lat="45.80914" lon="1.90721">
        <ele>746</ele>
        <time>2026-07-07T09:08:34.000Z</time>
      </trkpt>
      <trkpt lat="45.80915" lon="1.90721">
        <ele>746.6</ele>
        <time>2026-07-07T09:08:35.000Z</time>
      </trkpt>
      <trkpt lat="45.80915" lon="1.90721">
        <ele>747</ele>
        <time>2026-07-07T09:08:36.000Z</time>
      </trkpt>
      <trkpt lat="45.80916" lon="1.90721">
        <ele>747.4</ele>
        <time>2026-07-07T09:08:37.000Z</time>
      </trkpt>
      <trkpt lat="45.80916" lon="1.90721">
        <ele>747.4</ele>
        <time>2026-07-07T09:08:38.000Z</time>
      </trkpt>
      <trkpt lat="45.80916" lon="1.90721">
        <ele>747.4</ele>
        <time>2026-07-07T09:08:39.000Z</time>
      </trkpt>
      <trkpt lat="45.80916" lon="1.90721">
        <ele>747.4</ele>
        <time>2026-07-07T09:08:40.000Z</time>
      </trkpt>
      <trkpt lat="45.80916" lon="1.90721">
        <ele>747.4</ele>
        <time>2026-07-07T09:08:41.000Z</time>
      </trkpt>
      <trkpt lat="45.80916" lon="1.90721">
        <ele>747.4</ele>
        <time>2026-07-07T09:08:42.000Z</time>
      </trkpt>
      <trkpt lat="45.80916" lon="1.90721">
        <ele>747.4</ele>
        <time>2026-07-07T09:08:43.000Z</time>
      </trkpt>
      <trkpt lat="45.80916" lon="1.90721">
        <ele>747.4</ele>
        <time>2026-07-07T09:08:44.000Z</time>
      </trkpt>
      <trkpt lat="45.80916" lon="1.90721">
        <ele>747.4</ele>
        <time>2026-07-07T09:08:45.000Z</time>
      </trkpt>
      <trkpt lat="45.80916" lon="1.90721">
        <ele>747.4</ele>
        <time>2026-07-07T09:08:46.000Z</time>
      </trkpt>
      <trkpt lat="45.80916" lon="1.90721">
        <ele>747.4</ele>
        <time>2026-07-07T09:08:47.000Z</time>
      </trkpt>
      <trkpt lat="45.80916" lon="1.90721">
        <ele>747.4</ele>
        <time>2026-07-07T09:08:48.000Z</time>
      </trkpt>
      <trkpt lat="45.80916" lon="1.90721">
        <ele>747.4</ele>
        <time>2026-07-07T09:08:49.000Z</time>
      </trkpt>
      <trkpt lat="45.80916" lon="1.90721">
        <ele>747.4</ele>
        <time>2026-07-07T09:08:50.000Z</time>
      </trkpt>
      <trkpt lat="45.80916" lon="1.90721">
        <ele>747.4</ele>
        <time>2026-07-07T09:08:51.000Z</time>
      </trkpt>
      <trkpt lat="45.80916" lon="1.90721">
        <ele>747.4</ele>
        <time>2026-07-07T09:08:52.000Z</time>
      </trkpt>
      <trkpt lat="45.80916" lon="1.90721">
        <ele>747.4</ele>
        <time>2026-07-07T09:08:53.000Z</time>
      </trkpt>
      <trkpt lat="45.80916" lon="1.90721">
        <ele>747.4</ele>
        <time>2026-07-07T09:08:54.000Z</time>
      </trkpt>
      <trkpt lat="45.80916" lon="1.90721">
        <ele>747.5</ele>
        <time>2026-07-07T09:08:55.000Z</time>
      </trkpt>
      <trkpt lat="45.80916" lon="1.9072">
        <ele>747.1</ele>
        <time>2026-07-07T09:08:56.000Z</time>
      </trkpt>
      <trkpt lat="45.80918" lon="1.90718">
        <ele>746.7</ele>
        <time>2026-07-07T09:08:57.000Z</time>
      </trkpt>
      <trkpt lat="45.80918" lon="1.90716">
        <ele>746.1</ele>
        <time>2026-07-07T09:08:58.000Z</time>
      </trkpt>
      <trkpt lat="45.8092" lon="1.90714">
        <ele>745.8</ele>
        <time>2026-07-07T09:08:59.000Z</time>
      </trkpt>
      <trkpt lat="45.80921" lon="1.90713">
        <ele>745.2</ele>
        <time>2026-07-07T09:09:00.000Z</time>
      </trkpt>
      <trkpt lat="45.80922" lon="1.90711">
        <ele>744.9</ele>
        <time>2026-07-07T09:09:01.000Z</time>
      </trkpt>
      <trkpt lat="45.80923" lon="1.9071">
        <ele>744.6</ele>
        <time>2026-07-07T09:09:02.000Z</time>
      </trkpt>
      <trkpt lat="45.80924" lon="1.90709">
        <ele>744.3</ele>
        <time>2026-07-07T09:09:03.000Z</time>
      </trkpt>
      <trkpt lat="45.80926" lon="1.90708">
        <ele>743.8</ele>
        <time>2026-07-07T09:09:04.000Z</time>
      </trkpt>
      <trkpt lat="45.80927" lon="1.90707">
        <ele>743.5</ele>
        <time>2026-07-07T09:09:05.000Z</time>
      </trkpt>
      <trkpt lat="45.80928" lon="1.90706">
        <ele>743.6</ele>
        <time>2026-07-07T09:09:06.000Z</time>
      </trkpt>
      <trkpt lat="45.80929" lon="1.90705">
        <ele>743.6</ele>
        <time>2026-07-07T09:09:07.000Z</time>
      </trkpt>
      <trkpt lat="45.8093" lon="1.90705">
        <ele>743.6</ele>
        <time>2026-07-07T09:09:08.000Z</time>
      </trkpt>
      <trkpt lat="45.80929" lon="1.90704">
        <ele>743.5</ele>
        <time>2026-07-07T09:09:09.000Z</time>
      </trkpt>
      <trkpt lat="45.8093" lon="1.90702">
        <ele>743.6</ele>
        <time>2026-07-07T09:09:10.000Z</time>
      </trkpt>
      <trkpt lat="45.80929" lon="1.90703">
        <ele>743.7</ele>
        <time>2026-07-07T09:09:11.000Z</time>
      </trkpt>
      <trkpt lat="45.80928" lon="1.90704">
        <ele>743.7</ele>
        <time>2026-07-07T09:09:12.000Z</time>
      </trkpt>
      <trkpt lat="45.80926" lon="1.90705">
        <ele>743.6</ele>
        <time>2026-07-07T09:09:13.000Z</time>
      </trkpt>
      <trkpt lat="45.80924" lon="1.90707">
        <ele>743.8</ele>
        <time>2026-07-07T09:09:14.000Z</time>
      </trkpt>
      <trkpt lat="45.80923" lon="1.90708">
        <ele>743.7</ele>
        <time>2026-07-07T09:09:15.000Z</time>
      </trkpt>
      <trkpt lat="45.80921" lon="1.9071">
        <ele>744.2</ele>
        <time>2026-07-07T09:09:16.000Z</time>
      </trkpt>
      <trkpt lat="45.8092" lon="1.90711">
        <ele>744.3</ele>
        <time>2026-07-07T09:09:17.000Z</time>
      </trkpt>
      <trkpt lat="45.80918" lon="1.90712">
        <ele>744.7</ele>
        <time>2026-07-07T09:09:18.000Z</time>
      </trkpt>
      <trkpt lat="45.80917" lon="1.90713">
        <ele>745.1</ele>
        <time>2026-07-07T09:09:19.000Z</time>
      </trkpt>
      <trkpt lat="45.80916" lon="1.90715">
        <ele>745.3</ele>
        <time>2026-07-07T09:09:20.000Z</time>
      </trkpt>
      <trkpt lat="45.80915" lon="1.90717">
        <ele>745.6</ele>
        <time>2026-07-07T09:09:21.000Z</time>
      </trkpt>
      <trkpt lat="45.80914" lon="1.90718">
        <ele>745.9</ele>
        <time>2026-07-07T09:09:22.000Z</time>
      </trkpt>
      <trkpt lat="45.80913" lon="1.9072">
        <ele>746</ele>
        <time>2026-07-07T09:09:23.000Z</time>
      </trkpt>
      <trkpt lat="45.80912" lon="1.90721">
        <ele>746.2</ele>
        <time>2026-07-07T09:09:24.000Z</time>
      </trkpt>
      <trkpt lat="45.80911" lon="1.90722">
        <ele>746.3</ele>
        <time>2026-07-07T09:09:25.000Z</time>
      </trkpt>
      <trkpt lat="45.8091" lon="1.90723">
        <ele>746.1</ele>
        <time>2026-07-07T09:09:26.000Z</time>
      </trkpt>
      <trkpt lat="45.80909" lon="1.90724">
        <ele>746.2</ele>
        <time>2026-07-07T09:09:27.000Z</time>
      </trkpt>
      <trkpt lat="45.80908" lon="1.90726">
        <ele>746.5</ele>
        <time>2026-07-07T09:09:28.000Z</time>
      </trkpt>
      <trkpt lat="45.80906" lon="1.90728">
        <ele>746.7</ele>
        <time>2026-07-07T09:09:29.000Z</time>
      </trkpt>
      <trkpt lat="45.80905" lon="1.90729">
        <ele>747.1</ele>
        <time>2026-07-07T09:09:30.000Z</time>
      </trkpt>
      <trkpt lat="45.80904" lon="1.90731">
        <ele>747.3</ele>
        <time>2026-07-07T09:09:31.000Z</time>
      </trkpt>
      <trkpt lat="45.80903" lon="1.90733">
        <ele>747.4</ele>
        <time>2026-07-07T09:09:32.000Z</time>
      </trkpt>
      <trkpt lat="45.80901" lon="1.90734">
        <ele>747.4</ele>
        <time>2026-07-07T09:09:33.000Z</time>
      </trkpt>
      <trkpt lat="45.809" lon="1.90735">
        <ele>747.5</ele>
        <time>2026-07-07T09:09:34.000Z</time>
      </trkpt>
      <trkpt lat="45.80899" lon="1.90736">
        <ele>747.8</ele>
        <time>2026-07-07T09:09:35.000Z</time>
      </trkpt>
      <trkpt lat="45.80897" lon="1.90737">
        <ele>747.9</ele>
        <time>2026-07-07T09:09:36.000Z</time>
      </trkpt>
      <trkpt lat="45.80896" lon="1.90738">
        <ele>748.3</ele>
        <time>2026-07-07T09:09:37.000Z</time>
      </trkpt>
      <trkpt lat="45.80895" lon="1.9074">
        <ele>748.5</ele>
        <time>2026-07-07T09:09:38.000Z</time>
      </trkpt>
      <trkpt lat="45.80894" lon="1.90741">
        <ele>748.6</ele>
        <time>2026-07-07T09:09:39.000Z</time>
      </trkpt>
      <trkpt lat="45.80892" lon="1.90742">
        <ele>748.7</ele>
        <time>2026-07-07T09:09:40.000Z</time>
      </trkpt>
      <trkpt lat="45.80891" lon="1.90743">
        <ele>748.9</ele>
        <time>2026-07-07T09:09:41.000Z</time>
      </trkpt>
      <trkpt lat="45.8089" lon="1.90744">
        <ele>749.1</ele>
        <time>2026-07-07T09:09:42.000Z</time>
      </trkpt>
      <trkpt lat="45.80889" lon="1.90745">
        <ele>749.5</ele>
        <time>2026-07-07T09:09:43.000Z</time>
      </trkpt>
      <trkpt lat="45.80888" lon="1.90746">
        <ele>749.8</ele>
        <time>2026-07-07T09:09:44.000Z</time>
      </trkpt>
      <trkpt lat="45.80886" lon="1.90745">
        <ele>750.1</ele>
        <time>2026-07-07T09:09:45.000Z</time>
      </trkpt>
      <trkpt lat="45.80885" lon="1.90745">
        <ele>750.4</ele>
        <time>2026-07-07T09:09:46.000Z</time>
      </trkpt>
      <trkpt lat="45.80886" lon="1.90745">
        <ele>750.4</ele>
        <time>2026-07-07T09:09:47.000Z</time>
      </trkpt>
      <trkpt lat="45.80886" lon="1.90745">
        <ele>750.4</ele>
        <time>2026-07-07T09:09:48.000Z</time>
      </trkpt>
      <trkpt lat="45.80886" lon="1.90745">
        <ele>750.4</ele>
        <time>2026-07-07T09:09:49.000Z</time>
      </trkpt>
      <trkpt lat="45.80886" lon="1.90745">
        <ele>750.4</ele>
        <time>2026-07-07T09:09:50.000Z</time>
      </trkpt>
      <trkpt lat="45.80885" lon="1.90745">
        <ele>750.4</ele>
        <time>2026-07-07T09:09:51.000Z</time>
      </trkpt>
      <trkpt lat="45.80885" lon="1.90746">
        <ele>750.5</ele>
        <time>2026-07-07T09:09:52.000Z</time>
      </trkpt>
      <trkpt lat="45.80885" lon="1.90745">
        <ele>750.6</ele>
        <time>2026-07-07T09:09:53.000Z</time>
      </trkpt>
      <trkpt lat="45.80885" lon="1.90745">
        <ele>751</ele>
        <time>2026-07-07T09:09:54.000Z</time>
      </trkpt>
      <trkpt lat="45.80885" lon="1.90746">
        <ele>750.9</ele>
        <time>2026-07-07T09:09:55.000Z</time>
      </trkpt>
      <trkpt lat="45.80885" lon="1.90747">
        <ele>751.1</ele>
        <time>2026-07-07T09:09:56.000Z</time>
      </trkpt>
      <trkpt lat="45.80885" lon="1.90748">
        <ele>751.4</ele>
        <time>2026-07-07T09:09:57.000Z</time>
      </trkpt>
      <trkpt lat="45.80885" lon="1.90749">
        <ele>751.1</ele>
        <time>2026-07-07T09:09:58.000Z</time>
      </trkpt>
      <trkpt lat="45.80884" lon="1.9075">
        <ele>751.3</ele>
        <time>2026-07-07T09:09:59.000Z</time>
      </trkpt>
      <trkpt lat="45.80883" lon="1.90752">
        <ele>751.4</ele>
        <time>2026-07-07T09:10:00.000Z</time>
      </trkpt>
      <trkpt lat="45.80882" lon="1.90753">
        <ele>751.5</ele>
        <time>2026-07-07T09:10:01.000Z</time>
      </trkpt>
      <trkpt lat="45.80881" lon="1.90754">
        <ele>751.6</ele>
        <time>2026-07-07T09:10:02.000Z</time>
      </trkpt>
      <trkpt lat="45.80883" lon="1.90755">
        <ele>753</ele>
        <time>2026-07-07T09:10:03.000Z</time>
      </trkpt>
      <trkpt lat="45.80885" lon="1.90754">
        <ele>753.3</ele>
        <time>2026-07-07T09:10:04.000Z</time>
      </trkpt>
      <trkpt lat="45.80886" lon="1.90752">
        <ele>753.3</ele>
        <time>2026-07-07T09:10:05.000Z</time>
      </trkpt>
      <trkpt lat="45.80886" lon="1.90752">
        <ele>753.3</ele>
        <time>2026-07-07T09:10:06.000Z</time>
      </trkpt>
      <trkpt lat="45.80885" lon="1.90752">
        <ele>753.2</ele>
        <time>2026-07-07T09:10:07.000Z</time>
      </trkpt>
      <trkpt lat="45.80887" lon="1.90753">
        <ele>753.7</ele>
        <time>2026-07-07T09:10:08.000Z</time>
      </trkpt>
      <trkpt lat="45.80887" lon="1.90753">
        <ele>753.6</ele>
        <time>2026-07-07T09:10:09.000Z</time>
      </trkpt>
      <trkpt lat="45.80886" lon="1.90753">
        <ele>753.4</ele>
        <time>2026-07-07T09:10:10.000Z</time>
      </trkpt>
      <trkpt lat="45.80886" lon="1.90754">
        <ele>753.4</ele>
        <time>2026-07-07T09:10:11.000Z</time>
      </trkpt>
      <trkpt lat="45.80885" lon="1.90754">
        <ele>752.9</ele>
        <time>2026-07-07T09:10:12.000Z</time>
      </trkpt>
      <trkpt lat="45.80885" lon="1.90754">
        <ele>752.9</ele>
        <time>2026-07-07T09:10:13.000Z</time>
      </trkpt>
      <trkpt lat="45.80884" lon="1.90754">
        <ele>753.1</ele>
        <time>2026-07-07T09:10:14.000Z</time>
      </trkpt>
      <trkpt lat="45.80884" lon="1.90754">
        <ele>753.1</ele>
        <time>2026-07-07T09:10:15.000Z</time>
      </trkpt>
      <trkpt lat="45.80884" lon="1.90755">
        <ele>753.1</ele>
        <time>2026-07-07T09:10:16.000Z</time>
      </trkpt>
      <trkpt lat="45.80883" lon="1.90755">
        <ele>753.1</ele>
        <time>2026-07-07T09:10:17.000Z</time>
      </trkpt>
      <trkpt lat="45.80883" lon="1.90755">
        <ele>753.4</ele>
        <time>2026-07-07T09:10:18.000Z</time>
      </trkpt>
      <trkpt lat="45.80883" lon="1.90756">
        <ele>753.8</ele>
        <time>2026-07-07T09:10:19.000Z</time>
      </trkpt>
      <trkpt lat="45.80882" lon="1.90756">
        <ele>753.8</ele>
        <time>2026-07-07T09:10:20.000Z</time>
      </trkpt>
      <trkpt lat="45.80882" lon="1.90756">
        <ele>753.8</ele>
        <time>2026-07-07T09:10:21.000Z</time>
      </trkpt>
      <trkpt lat="45.80882" lon="1.90756">
        <ele>753.7</ele>
        <time>2026-07-07T09:10:22.000Z</time>
      </trkpt>
      <trkpt lat="45.80882" lon="1.90756">
        <ele>753.7</ele>
        <time>2026-07-07T09:10:23.000Z</time>
      </trkpt>
      <trkpt lat="45.80882" lon="1.90756">
        <ele>753.8</ele>
        <time>2026-07-07T09:10:24.000Z</time>
      </trkpt>
      <trkpt lat="45.80881" lon="1.90756">
        <ele>754</ele>
        <time>2026-07-07T09:10:25.000Z</time>
      </trkpt>
      <trkpt lat="45.80881" lon="1.90757">
        <ele>754.1</ele>
        <time>2026-07-07T09:10:26.000Z</time>
      </trkpt>
      <trkpt lat="45.8088" lon="1.90757">
        <ele>754</ele>
        <time>2026-07-07T09:10:27.000Z</time>
      </trkpt>
      <trkpt lat="45.80879" lon="1.90758">
        <ele>753.9</ele>
        <time>2026-07-07T09:10:28.000Z</time>
      </trkpt>
      <trkpt lat="45.80879" lon="1.90758">
        <ele>753.4</ele>
        <time>2026-07-07T09:10:29.000Z</time>
      </trkpt>
      <trkpt lat="45.80879" lon="1.90758">
        <ele>752.8</ele>
        <time>2026-07-07T09:10:30.000Z</time>
      </trkpt>
      <trkpt lat="45.80879" lon="1.90758">
        <ele>753.1</ele>
        <time>2026-07-07T09:10:31.000Z</time>
      </trkpt>
      <trkpt lat="45.80878" lon="1.90759">
        <ele>753</ele>
        <time>2026-07-07T09:10:32.000Z</time>
      </trkpt>
      <trkpt lat="45.80878" lon="1.90759">
        <ele>753</ele>
        <time>2026-07-07T09:10:33.000Z</time>
      </trkpt>
      <trkpt lat="45.80878" lon="1.90759">
        <ele>753</ele>
        <time>2026-07-07T09:10:34.000Z</time>
      </trkpt>
      <trkpt lat="45.80878" lon="1.90759">
        <ele>753</ele>
        <time>2026-07-07T09:10:35.000Z</time>
      </trkpt>
      <trkpt lat="45.80878" lon="1.9076">
        <ele>753.1</ele>
        <time>2026-07-07T09:10:36.000Z</time>
      </trkpt>
      <trkpt lat="45.80878" lon="1.9076">
        <ele>753.1</ele>
        <time>2026-07-07T09:10:37.000Z</time>
      </trkpt>
      <trkpt lat="45.80878" lon="1.9076">
        <ele>753.1</ele>
        <time>2026-07-07T09:10:38.000Z</time>
      </trkpt>
      <trkpt lat="45.80878" lon="1.9076">
        <ele>753.1</ele>
        <time>2026-07-07T09:10:39.000Z</time>
      </trkpt>
      <trkpt lat="45.80878" lon="1.9076">
        <ele>753.1</ele>
        <time>2026-07-07T09:10:40.000Z</time>
      </trkpt>
      <trkpt lat="45.80878" lon="1.9076">
        <ele>753.1</ele>
        <time>2026-07-07T09:10:41.000Z</time>
      </trkpt>
      <trkpt lat="45.80878" lon="1.90759">
        <ele>753.1</ele>
        <time>2026-07-07T09:10:42.000Z</time>
      </trkpt>
      <trkpt lat="45.80878" lon="1.90759">
        <ele>753.1</ele>
        <time>2026-07-07T09:10:43.000Z</time>
      </trkpt>
      <trkpt lat="45.80878" lon="1.90759">
        <ele>753.1</ele>
        <time>2026-07-07T09:10:44.000Z</time>
      </trkpt>
      <trkpt lat="45.80878" lon="1.90759">
        <ele>753.1</ele>
        <time>2026-07-07T09:10:45.000Z</time>
      </trkpt>
      <trkpt lat="45.80878" lon="1.90759">
        <ele>753.1</ele>
        <time>2026-07-07T09:10:46.000Z</time>
      </trkpt>
      <trkpt lat="45.80878" lon="1.90759">
        <ele>753.2</ele>
        <time>2026-07-07T09:10:47.000Z</time>
      </trkpt>
      <trkpt lat="45.80878" lon="1.90759">
        <ele>753.5</ele>
        <time>2026-07-07T09:10:48.000Z</time>
      </trkpt>
      <trkpt lat="45.80878" lon="1.90759">
        <ele>753.5</ele>
        <time>2026-07-07T09:10:49.000Z</time>
      </trkpt>
      <trkpt lat="45.80878" lon="1.90759">
        <ele>753.5</ele>
        <time>2026-07-07T09:10:50.000Z</time>
      </trkpt>
      <trkpt lat="45.80878" lon="1.9076">
        <ele>753.1</ele>
        <time>2026-07-07T09:10:51.000Z</time>
      </trkpt>
      <trkpt lat="45.80878" lon="1.9076">
        <ele>752</ele>
        <time>2026-07-07T09:10:52.000Z</time>
      </trkpt>
      <trkpt lat="45.80878" lon="1.9076">
        <ele>752</ele>
        <time>2026-07-07T09:10:53.000Z</time>
      </trkpt>
      <trkpt lat="45.80877" lon="1.90761">
        <ele>751.6</ele>
        <time>2026-07-07T09:10:54.000Z</time>
      </trkpt>
      <trkpt lat="45.80877" lon="1.90761">
        <ele>751</ele>
        <time>2026-07-07T09:10:55.000Z</time>
      </trkpt>
      <trkpt lat="45.80877" lon="1.90761">
        <ele>750.9</ele>
        <time>2026-07-07T09:10:56.000Z</time>
      </trkpt>
      <trkpt lat="45.80877" lon="1.90761">
        <ele>750.9</ele>
        <time>2026-07-07T09:10:57.000Z</time>
      </trkpt>
      <trkpt lat="45.80875" lon="1.9076">
        <ele>752</ele>
        <time>2026-07-07T09:10:58.000Z</time>
      </trkpt>
      <trkpt lat="45.80874" lon="1.90758">
        <ele>751.7</ele>
        <time>2026-07-07T09:10:59.000Z</time>
      </trkpt>
      <trkpt lat="45.80873" lon="1.90758">
        <ele>751.9</ele>
        <time>2026-07-07T09:11:00.000Z</time>
      </trkpt>
      <trkpt lat="45.80873" lon="1.90758">
        <ele>752.2</ele>
        <time>2026-07-07T09:11:01.000Z</time>
      </trkpt>
      <trkpt lat="45.80873" lon="1.90757">
        <ele>752</ele>
        <time>2026-07-07T09:11:02.000Z</time>
      </trkpt>
      <trkpt lat="45.80873" lon="1.90758">
        <ele>752.2</ele>
        <time>2026-07-07T09:11:03.000Z</time>
      </trkpt>
      <trkpt lat="45.80873" lon="1.90758">
        <ele>752.1</ele>
        <time>2026-07-07T09:11:04.000Z</time>
      </trkpt>
      <trkpt lat="45.80873" lon="1.90758">
        <ele>752.1</ele>
        <time>2026-07-07T09:11:05.000Z</time>
      </trkpt>
      <trkpt lat="45.80873" lon="1.90758">
        <ele>752.1</ele>
        <time>2026-07-07T09:11:06.000Z</time>
      </trkpt>
      <trkpt lat="45.80873" lon="1.90758">
        <ele>752.1</ele>
        <time>2026-07-07T09:11:07.000Z</time>
      </trkpt>
      <trkpt lat="45.80873" lon="1.90758">
        <ele>752.1</ele>
        <time>2026-07-07T09:11:08.000Z</time>
      </trkpt>
      <trkpt lat="45.80873" lon="1.90758">
        <ele>752.1</ele>
        <time>2026-07-07T09:11:09.000Z</time>
      </trkpt>
      <trkpt lat="45.80873" lon="1.90758">
        <ele>752.1</ele>
        <time>2026-07-07T09:11:10.000Z</time>
      </trkpt>
      <trkpt lat="45.80873" lon="1.90758">
        <ele>752.1</ele>
        <time>2026-07-07T09:11:11.000Z</time>
      </trkpt>
      <trkpt lat="45.80873" lon="1.90758">
        <ele>752.1</ele>
        <time>2026-07-07T09:11:12.000Z</time>
      </trkpt>
      <trkpt lat="45.80873" lon="1.90758">
        <ele>751.7</ele>
        <time>2026-07-07T09:11:13.000Z</time>
      </trkpt>
      <trkpt lat="45.80874" lon="1.90758">
        <ele>751.9</ele>
        <time>2026-07-07T09:11:14.000Z</time>
      </trkpt>
      <trkpt lat="45.80874" lon="1.90759">
        <ele>751.9</ele>
        <time>2026-07-07T09:11:15.000Z</time>
      </trkpt>
      <trkpt lat="45.80874" lon="1.90759">
        <ele>751.9</ele>
        <time>2026-07-07T09:11:16.000Z</time>
      </trkpt>
      <trkpt lat="45.80874" lon="1.90759">
        <ele>751.9</ele>
        <time>2026-07-07T09:11:17.000Z</time>
      </trkpt>
      <trkpt lat="45.80874" lon="1.90759">
        <ele>751.9</ele>
        <time>2026-07-07T09:11:18.000Z</time>
      </trkpt>
      <trkpt lat="45.80874" lon="1.90759">
        <ele>751.9</ele>
        <time>2026-07-07T09:11:19.000Z</time>
      </trkpt>
      <trkpt lat="45.80874" lon="1.90759">
        <ele>751.9</ele>
        <time>2026-07-07T09:11:20.000Z</time>
      </trkpt>
      <trkpt lat="45.80873" lon="1.90759">
        <ele>751.6</ele>
        <time>2026-07-07T09:11:21.000Z</time>
      </trkpt>
      <trkpt lat="45.80872" lon="1.90759">
        <ele>751.6</ele>
        <time>2026-07-07T09:11:22.000Z</time>
      </trkpt>
      <trkpt lat="45.80871" lon="1.90759">
        <ele>751.2</ele>
        <time>2026-07-07T09:11:23.000Z</time>
      </trkpt>
      <trkpt lat="45.80871" lon="1.90759">
        <ele>751.2</ele>
        <time>2026-07-07T09:11:24.000Z</time>
      </trkpt>
      <trkpt lat="45.80871" lon="1.90759">
        <ele>751</ele>
        <time>2026-07-07T09:11:25.000Z</time>
      </trkpt>
      <trkpt lat="45.80871" lon="1.90759">
        <ele>750.7</ele>
        <time>2026-07-07T09:11:26.000Z</time>
      </trkpt>
      <trkpt lat="45.8087" lon="1.9076">
        <ele>750.4</ele>
        <time>2026-07-07T09:11:27.000Z</time>
      </trkpt>
      <trkpt lat="45.8087" lon="1.9076">
        <ele>750.2</ele>
        <time>2026-07-07T09:11:28.000Z</time>
      </trkpt>
      <trkpt lat="45.80869" lon="1.9076">
        <ele>750.1</ele>
        <time>2026-07-07T09:11:29.000Z</time>
      </trkpt>
      <trkpt lat="45.80869" lon="1.9076">
        <ele>750.2</ele>
        <time>2026-07-07T09:11:30.000Z</time>
      </trkpt>
      <trkpt lat="45.80868" lon="1.9076">
        <ele>750.4</ele>
        <time>2026-07-07T09:11:31.000Z</time>
      </trkpt>
      <trkpt lat="45.80868" lon="1.9076">
        <ele>750.3</ele>
        <time>2026-07-07T09:11:32.000Z</time>
      </trkpt>
      <trkpt lat="45.80868" lon="1.9076">
        <ele>750.3</ele>
        <time>2026-07-07T09:11:33.000Z</time>
      </trkpt>
      <trkpt lat="45.80868" lon="1.9076">
        <ele>750.3</ele>
        <time>2026-07-07T09:11:34.000Z</time>
      </trkpt>
      <trkpt lat="45.80867" lon="1.9076">
        <ele>750.2</ele>
        <time>2026-07-07T09:11:35.000Z</time>
      </trkpt>
      <trkpt lat="45.80866" lon="1.90759">
        <ele>750.2</ele>
        <time>2026-07-07T09:11:36.000Z</time>
      </trkpt>
      <trkpt lat="45.80865" lon="1.9076">
        <ele>750.3</ele>
        <time>2026-07-07T09:11:37.000Z</time>
      </trkpt>
      <trkpt lat="45.80865" lon="1.9076">
        <ele>750.2</ele>
        <time>2026-07-07T09:11:38.000Z</time>
      </trkpt>
      <trkpt lat="45.80865" lon="1.9076">
        <ele>750.2</ele>
        <time>2026-07-07T09:11:39.000Z</time>
      </trkpt>
      <trkpt lat="45.80865" lon="1.9076">
        <ele>750.3</ele>
        <time>2026-07-07T09:11:40.000Z</time>
      </trkpt>
      <trkpt lat="45.80864" lon="1.90761">
        <ele>750.5</ele>
        <time>2026-07-07T09:11:41.000Z</time>
      </trkpt>
      <trkpt lat="45.80864" lon="1.90762">
        <ele>750.6</ele>
        <time>2026-07-07T09:11:42.000Z</time>
      </trkpt>
      <trkpt lat="45.80863" lon="1.90763">
        <ele>750.7</ele>
        <time>2026-07-07T09:11:43.000Z</time>
      </trkpt>
      <trkpt lat="45.80863" lon="1.90763">
        <ele>750.9</ele>
        <time>2026-07-07T09:11:44.000Z</time>
      </trkpt>
      <trkpt lat="45.80862" lon="1.90764">
        <ele>750.7</ele>
        <time>2026-07-07T09:11:45.000Z</time>
      </trkpt>
      <trkpt lat="45.80862" lon="1.90764">
        <ele>750.8</ele>
        <time>2026-07-07T09:11:46.000Z</time>
      </trkpt>
      <trkpt lat="45.80861" lon="1.90764">
        <ele>750.7</ele>
        <time>2026-07-07T09:11:47.000Z</time>
      </trkpt>
      <trkpt lat="45.8086" lon="1.90764">
        <ele>750.8</ele>
        <time>2026-07-07T09:11:48.000Z</time>
      </trkpt>
      <trkpt lat="45.8086" lon="1.90764">
        <ele>750.6</ele>
        <time>2026-07-07T09:11:49.000Z</time>
      </trkpt>
      <trkpt lat="45.8086" lon="1.90764">
        <ele>750.5</ele>
        <time>2026-07-07T09:11:50.000Z</time>
      </trkpt>
      <trkpt lat="45.80861" lon="1.90764">
        <ele>750.5</ele>
        <time>2026-07-07T09:11:51.000Z</time>
      </trkpt>
      <trkpt lat="45.80861" lon="1.90764">
        <ele>750.5</ele>
        <time>2026-07-07T09:11:52.000Z</time>
      </trkpt>
      <trkpt lat="45.80861" lon="1.90764">
        <ele>750.5</ele>
        <time>2026-07-07T09:11:53.000Z</time>
      </trkpt>
      <trkpt lat="45.80861" lon="1.90764">
        <ele>750.5</ele>
        <time>2026-07-07T09:11:54.000Z</time>
      </trkpt>
      <trkpt lat="45.80861" lon="1.90764">
        <ele>750.5</ele>
        <time>2026-07-07T09:11:55.000Z</time>
      </trkpt>
      <trkpt lat="45.8086" lon="1.90764">
        <ele>750.5</ele>
        <time>2026-07-07T09:11:56.000Z</time>
      </trkpt>
      <trkpt lat="45.8086" lon="1.90764">
        <ele>750.5</ele>
        <time>2026-07-07T09:11:57.000Z</time>
      </trkpt>
      <trkpt lat="45.8086" lon="1.90764">
        <ele>750.5</ele>
        <time>2026-07-07T09:11:58.000Z</time>
      </trkpt>
      <trkpt lat="45.8086" lon="1.90764">
        <ele>750.5</ele>
        <time>2026-07-07T09:11:59.000Z</time>
      </trkpt>
      <trkpt lat="45.8086" lon="1.90764">
        <ele>750.5</ele>
        <time>2026-07-07T09:12:00.000Z</time>
      </trkpt>
      <trkpt lat="45.8086" lon="1.90764">
        <ele>750.5</ele>
        <time>2026-07-07T09:12:01.000Z</time>
      </trkpt>
      <trkpt lat="45.8086" lon="1.90764">
        <ele>750.5</ele>
        <time>2026-07-07T09:12:02.000Z</time>
      </trkpt>
      <trkpt lat="45.8086" lon="1.90764">
        <ele>750.5</ele>
        <time>2026-07-07T09:12:03.000Z</time>
      </trkpt>
      <trkpt lat="45.8086" lon="1.90764">
        <ele>750.5</ele>
        <time>2026-07-07T09:12:04.000Z</time>
      </trkpt>
      <trkpt lat="45.8086" lon="1.90764">
        <ele>750.5</ele>
        <time>2026-07-07T09:12:05.000Z</time>
      </trkpt>
      <trkpt lat="45.8086" lon="1.90763">
        <ele>750.5</ele>
        <time>2026-07-07T09:12:06.000Z</time>
      </trkpt>
      <trkpt lat="45.8086" lon="1.90763">
        <ele>750.6</ele>
        <time>2026-07-07T09:12:07.000Z</time>
      </trkpt>
      <trkpt lat="45.80861" lon="1.90763">
        <ele>750.8</ele>
        <time>2026-07-07T09:12:08.000Z</time>
      </trkpt>
      <trkpt lat="45.80861" lon="1.90763">
        <ele>750.7</ele>
        <time>2026-07-07T09:12:09.000Z</time>
      </trkpt>
      <trkpt lat="45.80861" lon="1.90763">
        <ele>750.7</ele>
        <time>2026-07-07T09:12:10.000Z</time>
      </trkpt>
      <trkpt lat="45.80861" lon="1.90763">
        <ele>750.7</ele>
        <time>2026-07-07T09:12:11.000Z</time>
      </trkpt>
      <trkpt lat="45.80861" lon="1.90763">
        <ele>750.7</ele>
        <time>2026-07-07T09:12:12.000Z</time>
      </trkpt>
      <trkpt lat="45.80861" lon="1.90763">
        <ele>750.7</ele>
        <time>2026-07-07T09:12:13.000Z</time>
      </trkpt>
      <trkpt lat="45.80861" lon="1.90763">
        <ele>750.8</ele>
        <time>2026-07-07T09:12:14.000Z</time>
      </trkpt>
      <trkpt lat="45.80861" lon="1.90763">
        <ele>750.8</ele>
        <time>2026-07-07T09:12:15.000Z</time>
      </trkpt>
      <trkpt lat="45.8086" lon="1.90763">
        <ele>750.8</ele>
        <time>2026-07-07T09:12:16.000Z</time>
      </trkpt>
      <trkpt lat="45.8086" lon="1.90763">
        <ele>750.8</ele>
        <time>2026-07-07T09:12:17.000Z</time>
      </trkpt>
      <trkpt lat="45.8086" lon="1.90763">
        <ele>750.8</ele>
        <time>2026-07-07T09:12:18.000Z</time>
      </trkpt>
      <trkpt lat="45.8086" lon="1.90763">
        <ele>750.8</ele>
        <time>2026-07-07T09:12:19.000Z</time>
      </trkpt>
      <trkpt lat="45.8086" lon="1.90763">
        <ele>750.8</ele>
        <time>2026-07-07T09:12:20.000Z</time>
      </trkpt>
      <trkpt lat="45.8086" lon="1.90763">
        <ele>750.8</ele>
        <time>2026-07-07T09:12:21.000Z</time>
      </trkpt>
      <trkpt lat="45.8086" lon="1.90763">
        <ele>750.8</ele>
        <time>2026-07-07T09:12:22.000Z</time>
      </trkpt>
      <trkpt lat="45.80861" lon="1.90764">
        <ele>750.8</ele>
        <time>2026-07-07T09:12:23.000Z</time>
      </trkpt>
      <trkpt lat="45.80861" lon="1.90764">
        <ele>750.9</ele>
        <time>2026-07-07T09:12:24.000Z</time>
      </trkpt>
      <trkpt lat="45.80861" lon="1.90764">
        <ele>750.9</ele>
        <time>2026-07-07T09:12:25.000Z</time>
      </trkpt>
      <trkpt lat="45.80861" lon="1.90764">
        <ele>750.9</ele>
        <time>2026-07-07T09:12:26.000Z</time>
      </trkpt>
      <trkpt lat="45.80861" lon="1.90764">
        <ele>750.9</ele>
        <time>2026-07-07T09:12:27.000Z</time>
      </trkpt>
      <trkpt lat="45.80861" lon="1.90764">
        <ele>750.9</ele>
        <time>2026-07-07T09:12:28.000Z</time>
      </trkpt>
      <trkpt lat="45.80861" lon="1.90764">
        <ele>750.9</ele>
        <time>2026-07-07T09:12:29.000Z</time>
      </trkpt>
      <trkpt lat="45.80861" lon="1.90764">
        <ele>750.9</ele>
        <time>2026-07-07T09:12:30.000Z</time>
      </trkpt>
      <trkpt lat="45.8086" lon="1.90763">
        <ele>751</ele>
        <time>2026-07-07T09:12:31.000Z</time>
      </trkpt>
      <trkpt lat="45.80861" lon="1.90763">
        <ele>751.2</ele>
        <time>2026-07-07T09:12:32.000Z</time>
      </trkpt>
      <trkpt lat="45.80861" lon="1.90763">
        <ele>751.1</ele>
        <time>2026-07-07T09:12:33.000Z</time>
      </trkpt>
      <trkpt lat="45.80861" lon="1.90763">
        <ele>751.1</ele>
        <time>2026-07-07T09:12:34.000Z</time>
      </trkpt>
      <trkpt lat="45.80861" lon="1.90763">
        <ele>751.1</ele>
        <time>2026-07-07T09:12:35.000Z</time>
      </trkpt>
      <trkpt lat="45.80861" lon="1.90763">
        <ele>751.2</ele>
        <time>2026-07-07T09:12:36.000Z</time>
      </trkpt>
      <trkpt lat="45.80862" lon="1.90762">
        <ele>751.2</ele>
        <time>2026-07-07T09:12:37.000Z</time>
      </trkpt>
      <trkpt lat="45.80862" lon="1.90762">
        <ele>751.2</ele>
        <time>2026-07-07T09:12:38.000Z</time>
      </trkpt>
      <trkpt lat="45.80862" lon="1.90762">
        <ele>751.2</ele>
        <time>2026-07-07T09:12:39.000Z</time>
      </trkpt>
      <trkpt lat="45.80862" lon="1.90762">
        <ele>751.2</ele>
        <time>2026-07-07T09:12:40.000Z</time>
      </trkpt>
      <trkpt lat="45.80862" lon="1.90762">
        <ele>751.2</ele>
        <time>2026-07-07T09:12:41.000Z</time>
      </trkpt>
      <trkpt lat="45.80862" lon="1.90762">
        <ele>751.1</ele>
        <time>2026-07-07T09:12:42.000Z</time>
      </trkpt>
      <trkpt lat="45.80862" lon="1.90762">
        <ele>751</ele>
        <time>2026-07-07T09:12:43.000Z</time>
      </trkpt>
      <trkpt lat="45.80862" lon="1.90762">
        <ele>751</ele>
        <time>2026-07-07T09:12:44.000Z</time>
      </trkpt>
      <trkpt lat="45.80862" lon="1.90762">
        <ele>751</ele>
        <time>2026-07-07T09:12:45.000Z</time>
      </trkpt>
      <trkpt lat="45.80862" lon="1.90762">
        <ele>751</ele>
        <time>2026-07-07T09:12:46.000Z</time>
      </trkpt>
      <trkpt lat="45.80862" lon="1.90762">
        <ele>751</ele>
        <time>2026-07-07T09:12:47.000Z</time>
      </trkpt>
      <trkpt lat="45.80862" lon="1.90762">
        <ele>751</ele>
        <time>2026-07-07T09:12:48.000Z</time>
      </trkpt>
      <trkpt lat="45.80862" lon="1.90762">
        <ele>751</ele>
        <time>2026-07-07T09:12:49.000Z</time>
      </trkpt>
      <trkpt lat="45.80862" lon="1.90762">
        <ele>751</ele>
        <time>2026-07-07T09:12:50.000Z</time>
      </trkpt>
      <trkpt lat="45.80862" lon="1.90762">
        <ele>751</ele>
        <time>2026-07-07T09:12:51.000Z</time>
      </trkpt>
      <trkpt lat="45.80862" lon="1.90762">
        <ele>751</ele>
        <time>2026-07-07T09:12:52.000Z</time>
      </trkpt>
      <trkpt lat="45.80862" lon="1.90762">
        <ele>751</ele>
        <time>2026-07-07T09:12:53.000Z</time>
      </trkpt>
      <trkpt lat="45.80862" lon="1.90762">
        <ele>751</ele>
        <time>2026-07-07T09:12:54.000Z</time>
      </trkpt>
      <trkpt lat="45.80862" lon="1.90762">
        <ele>751</ele>
        <time>2026-07-07T09:12:55.000Z</time>
      </trkpt>
      <trkpt lat="45.80862" lon="1.90762">
        <ele>751</ele>
        <time>2026-07-07T09:12:56.000Z</time>
      </trkpt>
      <trkpt lat="45.80863" lon="1.90762">
        <ele>751.3</ele>
        <time>2026-07-07T09:12:57.000Z</time>
      </trkpt>
      <trkpt lat="45.80863" lon="1.90762">
        <ele>751.3</ele>
        <time>2026-07-07T09:12:58.000Z</time>
      </trkpt>
      <trkpt lat="45.80863" lon="1.90762">
        <ele>751.3</ele>
        <time>2026-07-07T09:12:59.000Z</time>
      </trkpt>
      <trkpt lat="45.80862" lon="1.90762">
        <ele>751.2</ele>
        <time>2026-07-07T09:13:00.000Z</time>
      </trkpt>
      <trkpt lat="45.80862" lon="1.90762">
        <ele>751.2</ele>
        <time>2026-07-07T09:13:01.000Z</time>
      </trkpt>
      <trkpt lat="45.80862" lon="1.90762">
        <ele>751.2</ele>
        <time>2026-07-07T09:13:02.000Z</time>
      </trkpt>
      <trkpt lat="45.80862" lon="1.90763">
        <ele>751.2</ele>
        <time>2026-07-07T09:13:03.000Z</time>
      </trkpt>
      <trkpt lat="45.80862" lon="1.90763">
        <ele>751.3</ele>
        <time>2026-07-07T09:13:04.000Z</time>
      </trkpt>
      <trkpt lat="45.80862" lon="1.90762">
        <ele>751.3</ele>
        <time>2026-07-07T09:13:05.000Z</time>
      </trkpt>
      <trkpt lat="45.80863" lon="1.90761">
        <ele>751.3</ele>
        <time>2026-07-07T09:13:06.000Z</time>
      </trkpt>
      <trkpt lat="45.80864" lon="1.90761">
        <ele>751.6</ele>
        <time>2026-07-07T09:13:07.000Z</time>
      </trkpt>
      <trkpt lat="45.80865" lon="1.90761">
        <ele>751.5</ele>
        <time>2026-07-07T09:13:08.000Z</time>
      </trkpt>
      <trkpt lat="45.80866" lon="1.9076">
        <ele>751.3</ele>
        <time>2026-07-07T09:13:09.000Z</time>
      </trkpt>
      <trkpt lat="45.80867" lon="1.9076">
        <ele>751.5</ele>
        <time>2026-07-07T09:13:10.000Z</time>
      </trkpt>
      <trkpt lat="45.80867" lon="1.90759">
        <ele>751.5</ele>
        <time>2026-07-07T09:13:11.000Z</time>
      </trkpt>
      <trkpt lat="45.80867" lon="1.90759">
        <ele>751.3</ele>
        <time>2026-07-07T09:13:12.000Z</time>
      </trkpt>
      <trkpt lat="45.80867" lon="1.90759">
        <ele>751.2</ele>
        <time>2026-07-07T09:13:13.000Z</time>
      </trkpt>
      <trkpt lat="45.80868" lon="1.90758">
        <ele>751.2</ele>
        <time>2026-07-07T09:13:14.000Z</time>
      </trkpt>
      <trkpt lat="45.80868" lon="1.90758">
        <ele>751.2</ele>
        <time>2026-07-07T09:13:15.000Z</time>
      </trkpt>
      <trkpt lat="45.80869" lon="1.90758">
        <ele>751.3</ele>
        <time>2026-07-07T09:13:16.000Z</time>
      </trkpt>
      <trkpt lat="45.8087" lon="1.90757">
        <ele>751.3</ele>
        <time>2026-07-07T09:13:17.000Z</time>
      </trkpt>
      <trkpt lat="45.80871" lon="1.90757">
        <ele>751.4</ele>
        <time>2026-07-07T09:13:18.000Z</time>
      </trkpt>
      <trkpt lat="45.80872" lon="1.90757">
        <ele>751.7</ele>
        <time>2026-07-07T09:13:19.000Z</time>
      </trkpt>
      <trkpt lat="45.80873" lon="1.90757">
        <ele>751.7</ele>
        <time>2026-07-07T09:13:20.000Z</time>
      </trkpt>
      <trkpt lat="45.80874" lon="1.90758">
        <ele>751.6</ele>
        <time>2026-07-07T09:13:21.000Z</time>
      </trkpt>
      <trkpt lat="45.80875" lon="1.90758">
        <ele>752</ele>
        <time>2026-07-07T09:13:22.000Z</time>
      </trkpt>
      <trkpt lat="45.80875" lon="1.90759">
        <ele>752.1</ele>
        <time>2026-07-07T09:13:23.000Z</time>
      </trkpt>
      <trkpt lat="45.80875" lon="1.9076">
        <ele>752</ele>
        <time>2026-07-07T09:13:24.000Z</time>
      </trkpt>
      <trkpt lat="45.80876" lon="1.90761">
        <ele>752.1</ele>
        <time>2026-07-07T09:13:25.000Z</time>
      </trkpt>
      <trkpt lat="45.80876" lon="1.90763">
        <ele>752.4</ele>
        <time>2026-07-07T09:13:26.000Z</time>
      </trkpt>
      <trkpt lat="45.80875" lon="1.90764">
        <ele>752.5</ele>
        <time>2026-07-07T09:13:27.000Z</time>
      </trkpt>
      <trkpt lat="45.80874" lon="1.90764">
        <ele>752.3</ele>
        <time>2026-07-07T09:13:28.000Z</time>
      </trkpt>
      <trkpt lat="45.80874" lon="1.90765">
        <ele>752.1</ele>
        <time>2026-07-07T09:13:29.000Z</time>
      </trkpt>
      <trkpt lat="45.80872" lon="1.90765">
        <ele>752.5</ele>
        <time>2026-07-07T09:13:30.000Z</time>
      </trkpt>
      <trkpt lat="45.80872" lon="1.90765">
        <ele>752.5</ele>
        <time>2026-07-07T09:13:31.000Z</time>
      </trkpt>
      <trkpt lat="45.80871" lon="1.90765">
        <ele>752.3</ele>
        <time>2026-07-07T09:13:32.000Z</time>
      </trkpt>
      <trkpt lat="45.80871" lon="1.90765">
        <ele>752.3</ele>
        <time>2026-07-07T09:13:33.000Z</time>
      </trkpt>
      <trkpt lat="45.80871" lon="1.90765">
        <ele>753</ele>
        <time>2026-07-07T09:13:34.000Z</time>
      </trkpt>
      <trkpt lat="45.8087" lon="1.90765">
        <ele>753.2</ele>
        <time>2026-07-07T09:13:35.000Z</time>
      </trkpt>
      <trkpt lat="45.8087" lon="1.90764">
        <ele>754</ele>
        <time>2026-07-07T09:13:36.000Z</time>
      </trkpt>
      <trkpt lat="45.80869" lon="1.90763">
        <ele>753.3</ele>
        <time>2026-07-07T09:13:37.000Z</time>
      </trkpt>
      <trkpt lat="45.80869" lon="1.90763">
        <ele>753.3</ele>
        <time>2026-07-07T09:13:38.000Z</time>
      </trkpt>
      <trkpt lat="45.80868" lon="1.90761">
        <ele>754</ele>
        <time>2026-07-07T09:13:39.000Z</time>
      </trkpt>
      <trkpt lat="45.80868" lon="1.90762">
        <ele>753.3</ele>
        <time>2026-07-07T09:13:40.000Z</time>
      </trkpt>
      <trkpt lat="45.80869" lon="1.90762">
        <ele>753.4</ele>
        <time>2026-07-07T09:13:41.000Z</time>
      </trkpt>
      <trkpt lat="45.80869" lon="1.90762">
        <ele>753.4</ele>
        <time>2026-07-07T09:13:42.000Z</time>
      </trkpt>
      <trkpt lat="45.80869" lon="1.90762">
        <ele>753.4</ele>
        <time>2026-07-07T09:13:43.000Z</time>
      </trkpt>
      <trkpt lat="45.80869" lon="1.90762">
        <ele>753.4</ele>
        <time>2026-07-07T09:13:44.000Z</time>
      </trkpt>
      <trkpt lat="45.80869" lon="1.90762">
        <ele>753.4</ele>
        <time>2026-07-07T09:13:45.000Z</time>
      </trkpt>
      <trkpt lat="45.80869" lon="1.90762">
        <ele>753.4</ele>
        <time>2026-07-07T09:13:46.000Z</time>
      </trkpt>
      <trkpt lat="45.80869" lon="1.90762">
        <ele>753.4</ele>
        <time>2026-07-07T09:13:47.000Z</time>
      </trkpt>
      <trkpt lat="45.80869" lon="1.90762">
        <ele>753.4</ele>
        <time>2026-07-07T09:13:48.000Z</time>
      </trkpt>
      <trkpt lat="45.80869" lon="1.90762">
        <ele>753.4</ele>
        <time>2026-07-07T09:13:49.000Z</time>
      </trkpt>
      <trkpt lat="45.80869" lon="1.90762">
        <ele>753.4</ele>
        <time>2026-07-07T09:13:50.000Z</time>
      </trkpt>
      <trkpt lat="45.80869" lon="1.90762">
        <ele>753.4</ele>
        <time>2026-07-07T09:13:51.000Z</time>
      </trkpt>
      <trkpt lat="45.80869" lon="1.90762">
        <ele>753.4</ele>
        <time>2026-07-07T09:13:52.000Z</time>
      </trkpt>
      <trkpt lat="45.80869" lon="1.90762">
        <ele>753.4</ele>
        <time>2026-07-07T09:13:53.000Z</time>
      </trkpt>
      <trkpt lat="45.80869" lon="1.90762">
        <ele>753.4</ele>
        <time>2026-07-07T09:13:54.000Z</time>
      </trkpt>
      <trkpt lat="45.80869" lon="1.90762">
        <ele>753.4</ele>
        <time>2026-07-07T09:13:55.000Z</time>
      </trkpt>
      <trkpt lat="45.80868" lon="1.90763">
        <ele>753.4</ele>
        <time>2026-07-07T09:13:56.000Z</time>
      </trkpt>
      <trkpt lat="45.80868" lon="1.90763">
        <ele>753.4</ele>
        <time>2026-07-07T09:13:57.000Z</time>
      </trkpt>
      <trkpt lat="45.80867" lon="1.90764">
        <ele>753.5</ele>
        <time>2026-07-07T09:13:58.000Z</time>
      </trkpt>
      <trkpt lat="45.80866" lon="1.90763">
        <ele>753.4</ele>
        <time>2026-07-07T09:13:59.000Z</time>
      </trkpt>
      <trkpt lat="45.80866" lon="1.90764">
        <ele>753.5</ele>
        <time>2026-07-07T09:14:00.000Z</time>
      </trkpt>
      <trkpt lat="45.80866" lon="1.90765">
        <ele>753.6</ele>
        <time>2026-07-07T09:14:01.000Z</time>
      </trkpt>
      <trkpt lat="45.80865" lon="1.90766">
        <ele>753.8</ele>
        <time>2026-07-07T09:14:02.000Z</time>
      </trkpt>
      <trkpt lat="45.80865" lon="1.90767">
        <ele>753.7</ele>
        <time>2026-07-07T09:14:03.000Z</time>
      </trkpt>
      <trkpt lat="45.80865" lon="1.90768">
        <ele>753.8</ele>
        <time>2026-07-07T09:14:04.000Z</time>
      </trkpt>
      <trkpt lat="45.80864" lon="1.90768">
        <ele>754.1</ele>
        <time>2026-07-07T09:14:05.000Z</time>
      </trkpt>
      <trkpt lat="45.80864" lon="1.90769">
        <ele>754.1</ele>
        <time>2026-07-07T09:14:06.000Z</time>
      </trkpt>
      <trkpt lat="45.80863" lon="1.9077">
        <ele>754.5</ele>
        <time>2026-07-07T09:14:07.000Z</time>
      </trkpt>
      <trkpt lat="45.80863" lon="1.90771">
        <ele>754.7</ele>
        <time>2026-07-07T09:14:08.000Z</time>
      </trkpt>
      <trkpt lat="45.80863" lon="1.90772">
        <ele>754.4</ele>
        <time>2026-07-07T09:14:09.000Z</time>
      </trkpt>
      <trkpt lat="45.80863" lon="1.90773">
        <ele>754.7</ele>
        <time>2026-07-07T09:14:10.000Z</time>
      </trkpt>
      <trkpt lat="45.80863" lon="1.90773">
        <ele>754.7</ele>
        <time>2026-07-07T09:14:11.000Z</time>
      </trkpt>
      <trkpt lat="45.80863" lon="1.90773">
        <ele>754.7</ele>
        <time>2026-07-07T09:14:12.000Z</time>
      </trkpt>
      <trkpt lat="45.80863" lon="1.90773">
        <ele>754.7</ele>
        <time>2026-07-07T09:14:13.000Z</time>
      </trkpt>
      <trkpt lat="45.80863" lon="1.90773">
        <ele>754.7</ele>
        <time>2026-07-07T09:14:14.000Z</time>
      </trkpt>
      <trkpt lat="45.80863" lon="1.90773">
        <ele>754.7</ele>
        <time>2026-07-07T09:14:15.000Z</time>
      </trkpt>
      <trkpt lat="45.80863" lon="1.90773">
        <ele>754.7</ele>
        <time>2026-07-07T09:14:16.000Z</time>
      </trkpt>
      <trkpt lat="45.80863" lon="1.90773">
        <ele>754.7</ele>
        <time>2026-07-07T09:14:17.000Z</time>
      </trkpt>
      <trkpt lat="45.80863" lon="1.90773">
        <ele>754.7</ele>
        <time>2026-07-07T09:14:18.000Z</time>
      </trkpt>
      <trkpt lat="45.80863" lon="1.90773">
        <ele>754.7</ele>
        <time>2026-07-07T09:14:19.000Z</time>
      </trkpt>
      <trkpt lat="45.80863" lon="1.90773">
        <ele>754.7</ele>
        <time>2026-07-07T09:14:20.000Z</time>
      </trkpt>
      <trkpt lat="45.80863" lon="1.90773">
        <ele>754.7</ele>
        <time>2026-07-07T09:14:21.000Z</time>
      </trkpt>
      <trkpt lat="45.80863" lon="1.90773">
        <ele>754.7</ele>
        <time>2026-07-07T09:14:22.000Z</time>
      </trkpt>
      <trkpt lat="45.80863" lon="1.90773">
        <ele>754.4</ele>
        <time>2026-07-07T09:14:23.000Z</time>
      </trkpt>
      <trkpt lat="45.80863" lon="1.90773">
        <ele>754.4</ele>
        <time>2026-07-07T09:14:24.000Z</time>
      </trkpt>
      <trkpt lat="45.80863" lon="1.90773">
        <ele>754.4</ele>
        <time>2026-07-07T09:14:25.000Z</time>
      </trkpt>
      <trkpt lat="45.80863" lon="1.90773">
        <ele>754.4</ele>
        <time>2026-07-07T09:14:26.000Z</time>
      </trkpt>
      <trkpt lat="45.80863" lon="1.90773">
        <ele>754.7</ele>
        <time>2026-07-07T09:14:27.000Z</time>
      </trkpt>
      <trkpt lat="45.80863" lon="1.90773">
        <ele>754.7</ele>
        <time>2026-07-07T09:14:28.000Z</time>
      </trkpt>
      <trkpt lat="45.80863" lon="1.90773">
        <ele>754.7</ele>
        <time>2026-07-07T09:14:29.000Z</time>
      </trkpt>
      <trkpt lat="45.80863" lon="1.90773">
        <ele>754.7</ele>
        <time>2026-07-07T09:14:30.000Z</time>
      </trkpt>
      <trkpt lat="45.80863" lon="1.90773">
        <ele>754.7</ele>
        <time>2026-07-07T09:14:31.000Z</time>
      </trkpt>
      <trkpt lat="45.80863" lon="1.90773">
        <ele>754.7</ele>
        <time>2026-07-07T09:14:32.000Z</time>
      </trkpt>
      <trkpt lat="45.80863" lon="1.90773">
        <ele>754.7</ele>
        <time>2026-07-07T09:14:33.000Z</time>
      </trkpt>
      <trkpt lat="45.80863" lon="1.90773">
        <ele>754.7</ele>
        <time>2026-07-07T09:14:34.000Z</time>
      </trkpt>
      <trkpt lat="45.80863" lon="1.90773">
        <ele>754.7</ele>
        <time>2026-07-07T09:14:35.000Z</time>
      </trkpt>
      <trkpt lat="45.80863" lon="1.90773">
        <ele>754.7</ele>
        <time>2026-07-07T09:14:36.000Z</time>
      </trkpt>
      <trkpt lat="45.80863" lon="1.90773">
        <ele>754.7</ele>
        <time>2026-07-07T09:14:37.000Z</time>
      </trkpt>
      <trkpt lat="45.80863" lon="1.90773">
        <ele>754.7</ele>
        <time>2026-07-07T09:14:38.000Z</time>
      </trkpt>
      <trkpt lat="45.80863" lon="1.90773">
        <ele>754.6</ele>
        <time>2026-07-07T09:14:39.000Z</time>
      </trkpt>
      <trkpt lat="45.80863" lon="1.90773">
        <ele>754.8</ele>
        <time>2026-07-07T09:14:40.000Z</time>
      </trkpt>
      <trkpt lat="45.80863" lon="1.90773">
        <ele>754.8</ele>
        <time>2026-07-07T09:14:41.000Z</time>
      </trkpt>
      <trkpt lat="45.80864" lon="1.90773">
        <ele>754.8</ele>
        <time>2026-07-07T09:14:42.000Z</time>
      </trkpt>
      <trkpt lat="45.80864" lon="1.90773">
        <ele>754.9</ele>
        <time>2026-07-07T09:14:43.000Z</time>
      </trkpt>
      <trkpt lat="45.80864" lon="1.90773">
        <ele>754.9</ele>
        <time>2026-07-07T09:14:44.000Z</time>
      </trkpt>
      <trkpt lat="45.80864" lon="1.90773">
        <ele>754.9</ele>
        <time>2026-07-07T09:14:45.000Z</time>
      </trkpt>
      <trkpt lat="45.80864" lon="1.90773">
        <ele>754.9</ele>
        <time>2026-07-07T09:14:46.000Z</time>
      </trkpt>
      <trkpt lat="45.80864" lon="1.90773">
        <ele>754.9</ele>
        <time>2026-07-07T09:14:47.000Z</time>
      </trkpt>
      <trkpt lat="45.80864" lon="1.90772">
        <ele>755</ele>
        <time>2026-07-07T09:14:48.000Z</time>
      </trkpt>
      <trkpt lat="45.80864" lon="1.90772">
        <ele>755</ele>
        <time>2026-07-07T09:14:49.000Z</time>
      </trkpt>
      <trkpt lat="45.80864" lon="1.90772">
        <ele>755</ele>
        <time>2026-07-07T09:14:50.000Z</time>
      </trkpt>
      <trkpt lat="45.80864" lon="1.90772">
        <ele>755</ele>
        <time>2026-07-07T09:14:51.000Z</time>
      </trkpt>
      <trkpt lat="45.80864" lon="1.90772">
        <ele>755</ele>
        <time>2026-07-07T09:14:52.000Z</time>
      </trkpt>
      <trkpt lat="45.80864" lon="1.90772">
        <ele>755</ele>
        <time>2026-07-07T09:14:53.000Z</time>
      </trkpt>
      <trkpt lat="45.80864" lon="1.90772">
        <ele>755</ele>
        <time>2026-07-07T09:14:54.000Z</time>
      </trkpt>
      <trkpt lat="45.80864" lon="1.90772">
        <ele>755</ele>
        <time>2026-07-07T09:14:55.000Z</time>
      </trkpt>
      <trkpt lat="45.80864" lon="1.90772">
        <ele>755</ele>
        <time>2026-07-07T09:14:56.000Z</time>
      </trkpt>
      <trkpt lat="45.80864" lon="1.90772">
        <ele>755</ele>
        <time>2026-07-07T09:14:57.000Z</time>
      </trkpt>
      <trkpt lat="45.80864" lon="1.90772">
        <ele>755</ele>
        <time>2026-07-07T09:14:58.000Z</time>
      </trkpt>
      <trkpt lat="45.80864" lon="1.90772">
        <ele>755</ele>
        <time>2026-07-07T09:14:59.000Z</time>
      </trkpt>
      <trkpt lat="45.80864" lon="1.90772">
        <ele>755</ele>
        <time>2026-07-07T09:15:00.000Z</time>
      </trkpt>
      <trkpt lat="45.80864" lon="1.90772">
        <ele>755</ele>
        <time>2026-07-07T09:15:01.000Z</time>
      </trkpt>
      <trkpt lat="45.80864" lon="1.90772">
        <ele>755</ele>
        <time>2026-07-07T09:15:02.000Z</time>
      </trkpt>
      <trkpt lat="45.80864" lon="1.90772">
        <ele>755</ele>
        <time>2026-07-07T09:15:03.000Z</time>
      </trkpt>
      <trkpt lat="45.80864" lon="1.90772">
        <ele>755</ele>
        <time>2026-07-07T09:15:04.000Z</time>
      </trkpt>
      <trkpt lat="45.80864" lon="1.90772">
        <ele>755</ele>
        <time>2026-07-07T09:15:05.000Z</time>
      </trkpt>
      <trkpt lat="45.80864" lon="1.90772">
        <ele>755</ele>
        <time>2026-07-07T09:15:06.000Z</time>
      </trkpt>
      <trkpt lat="45.80864" lon="1.90772">
        <ele>755</ele>
        <time>2026-07-07T09:15:07.000Z</time>
      </trkpt>
      <trkpt lat="45.80864" lon="1.90772">
        <ele>755</ele>
        <time>2026-07-07T09:15:08.000Z</time>
      </trkpt>
      <trkpt lat="45.80864" lon="1.90772">
        <ele>755</ele>
        <time>2026-07-07T09:15:09.000Z</time>
      </trkpt>
      <trkpt lat="45.80864" lon="1.90772">
        <ele>755</ele>
        <time>2026-07-07T09:15:10.000Z</time>
      </trkpt>
      <trkpt lat="45.80864" lon="1.90772">
        <ele>755</ele>
        <time>2026-07-07T09:15:11.000Z</time>
      </trkpt>
      <trkpt lat="45.80864" lon="1.90772">
        <ele>755</ele>
        <time>2026-07-07T09:15:12.000Z</time>
      </trkpt>
      <trkpt lat="45.80864" lon="1.90772">
        <ele>755</ele>
        <time>2026-07-07T09:15:13.000Z</time>
      </trkpt>
      <trkpt lat="45.80864" lon="1.90772">
        <ele>755</ele>
        <time>2026-07-07T09:15:14.000Z</time>
      </trkpt>
      <trkpt lat="45.80863" lon="1.90773">
        <ele>755.1</ele>
        <time>2026-07-07T09:15:15.000Z</time>
      </trkpt>
      <trkpt lat="45.80863" lon="1.90773">
        <ele>755.1</ele>
        <time>2026-07-07T09:15:16.000Z</time>
      </trkpt>
      <trkpt lat="45.80863" lon="1.90773">
        <ele>755.1</ele>
        <time>2026-07-07T09:15:17.000Z</time>
      </trkpt>
      <trkpt lat="45.80863" lon="1.90773">
        <ele>755.1</ele>
        <time>2026-07-07T09:15:18.000Z</time>
      </trkpt>
      <trkpt lat="45.80863" lon="1.90773">
        <ele>755.1</ele>
        <time>2026-07-07T09:15:19.000Z</time>
      </trkpt>
      <trkpt lat="45.80863" lon="1.90773">
        <ele>755.1</ele>
        <time>2026-07-07T09:15:20.000Z</time>
      </trkpt>
      <trkpt lat="45.80863" lon="1.90773">
        <ele>755.1</ele>
        <time>2026-07-07T09:15:21.000Z</time>
      </trkpt>
      <trkpt lat="45.80863" lon="1.90773">
        <ele>755.1</ele>
        <time>2026-07-07T09:15:22.000Z</time>
      </trkpt>
      <trkpt lat="45.80863" lon="1.90773">
        <ele>755.1</ele>
        <time>2026-07-07T09:15:23.000Z</time>
      </trkpt>
      <trkpt lat="45.80863" lon="1.90774">
        <ele>755.4</ele>
        <time>2026-07-07T09:15:24.000Z</time>
      </trkpt>
      <trkpt lat="45.80863" lon="1.90774">
        <ele>755.4</ele>
        <time>2026-07-07T09:15:25.000Z</time>
      </trkpt>
      <trkpt lat="45.80864" lon="1.90774">
        <ele>755.5</ele>
        <time>2026-07-07T09:15:26.000Z</time>
      </trkpt>
      <trkpt lat="45.80864" lon="1.90774">
        <ele>755.5</ele>
        <time>2026-07-07T09:15:27.000Z</time>
      </trkpt>
      <trkpt lat="45.80864" lon="1.90774">
        <ele>755.5</ele>
        <time>2026-07-07T09:15:28.000Z</time>
      </trkpt>
      <trkpt lat="45.80864" lon="1.90774">
        <ele>755.5</ele>
        <time>2026-07-07T09:15:29.000Z</time>
      </trkpt>
      <trkpt lat="45.80864" lon="1.90774">
        <ele>755.6</ele>
        <time>2026-07-07T09:15:30.000Z</time>
      </trkpt>
      <trkpt lat="45.80864" lon="1.90774">
        <ele>755.6</ele>
        <time>2026-07-07T09:15:31.000Z</time>
      </trkpt>
      <trkpt lat="45.80864" lon="1.90774">
        <ele>755.6</ele>
        <time>2026-07-07T09:15:32.000Z</time>
      </trkpt>
      <trkpt lat="45.80864" lon="1.90774">
        <ele>755.6</ele>
        <time>2026-07-07T09:15:33.000Z</time>
      </trkpt>
      <trkpt lat="45.80864" lon="1.90774">
        <ele>755.6</ele>
        <time>2026-07-07T09:15:34.000Z</time>
      </trkpt>
      <trkpt lat="45.80863" lon="1.90774">
        <ele>755.3</ele>
        <time>2026-07-07T09:15:35.000Z</time>
      </trkpt>
      <trkpt lat="45.80863" lon="1.90775">
        <ele>755.1</ele>
        <time>2026-07-07T09:15:36.000Z</time>
      </trkpt>
      <trkpt lat="45.80863" lon="1.90775">
        <ele>755.1</ele>
        <time>2026-07-07T09:15:37.000Z</time>
      </trkpt>
      <trkpt lat="45.80863" lon="1.90775">
        <ele>754.9</ele>
        <time>2026-07-07T09:15:38.000Z</time>
      </trkpt>
      <trkpt lat="45.80863" lon="1.90776">
        <ele>755</ele>
        <time>2026-07-07T09:15:39.000Z</time>
      </trkpt>
      <trkpt lat="45.80863" lon="1.90776">
        <ele>754.9</ele>
        <time>2026-07-07T09:15:40.000Z</time>
      </trkpt>
      <trkpt lat="45.80863" lon="1.90776">
        <ele>755.3</ele>
        <time>2026-07-07T09:15:41.000Z</time>
      </trkpt>
      <trkpt lat="45.80862" lon="1.90776">
        <ele>755.4</ele>
        <time>2026-07-07T09:15:42.000Z</time>
      </trkpt>
      <trkpt lat="45.80862" lon="1.90776">
        <ele>755.4</ele>
        <time>2026-07-07T09:15:43.000Z</time>
      </trkpt>
      <trkpt lat="45.80862" lon="1.90776">
        <ele>755.4</ele>
        <time>2026-07-07T09:15:44.000Z</time>
      </trkpt>
      <trkpt lat="45.80862" lon="1.90776">
        <ele>755.4</ele>
        <time>2026-07-07T09:15:45.000Z</time>
      </trkpt>
      <trkpt lat="45.80862" lon="1.90776">
        <ele>755.4</ele>
        <time>2026-07-07T09:15:46.000Z</time>
      </trkpt>
      <trkpt lat="45.80862" lon="1.90776">
        <ele>755.5</ele>
        <time>2026-07-07T09:15:47.000Z</time>
      </trkpt>
      <trkpt lat="45.80862" lon="1.90777">
        <ele>755.1</ele>
        <time>2026-07-07T09:15:48.000Z</time>
      </trkpt>
      <trkpt lat="45.80862" lon="1.90778">
        <ele>755.4</ele>
        <time>2026-07-07T09:15:49.000Z</time>
      </trkpt>
      <trkpt lat="45.80862" lon="1.90778">
        <ele>755.5</ele>
        <time>2026-07-07T09:15:50.000Z</time>
      </trkpt>
      <trkpt lat="45.80862" lon="1.90778">
        <ele>755.5</ele>
        <time>2026-07-07T09:15:51.000Z</time>
      </trkpt>
      <trkpt lat="45.80862" lon="1.90778">
        <ele>755.5</ele>
        <time>2026-07-07T09:15:52.000Z</time>
      </trkpt>
      <trkpt lat="45.80862" lon="1.90778">
        <ele>755.5</ele>
        <time>2026-07-07T09:15:53.000Z</time>
      </trkpt>
      <trkpt lat="45.80862" lon="1.90778">
        <ele>755.5</ele>
        <time>2026-07-07T09:15:54.000Z</time>
      </trkpt>
      <trkpt lat="45.80862" lon="1.90778">
        <ele>755.5</ele>
        <time>2026-07-07T09:15:55.000Z</time>
      </trkpt>
      <trkpt lat="45.80862" lon="1.90778">
        <ele>755.5</ele>
        <time>2026-07-07T09:15:56.000Z</time>
      </trkpt>
      <trkpt lat="45.80862" lon="1.90779">
        <ele>755.6</ele>
        <time>2026-07-07T09:15:57.000Z</time>
      </trkpt>
      <trkpt lat="45.80862" lon="1.90779">
        <ele>755.6</ele>
        <time>2026-07-07T09:15:58.000Z</time>
      </trkpt>
      <trkpt lat="45.80862" lon="1.90779">
        <ele>755.6</ele>
        <time>2026-07-07T09:15:59.000Z</time>
      </trkpt>
      <trkpt lat="45.80862" lon="1.90779">
        <ele>755.5</ele>
        <time>2026-07-07T09:16:00.000Z</time>
      </trkpt>
      <trkpt lat="45.80862" lon="1.90779">
        <ele>755.5</ele>
        <time>2026-07-07T09:16:01.000Z</time>
      </trkpt>
      <trkpt lat="45.80862" lon="1.90779">
        <ele>755.5</ele>
        <time>2026-07-07T09:16:02.000Z</time>
      </trkpt>
      <trkpt lat="45.80862" lon="1.90779">
        <ele>755.5</ele>
        <time>2026-07-07T09:16:03.000Z</time>
      </trkpt>
      <trkpt lat="45.80862" lon="1.90779">
        <ele>755.5</ele>
        <time>2026-07-07T09:16:04.000Z</time>
      </trkpt>
      <trkpt lat="45.80862" lon="1.90779">
        <ele>755.5</ele>
        <time>2026-07-07T09:16:05.000Z</time>
      </trkpt>
      <trkpt lat="45.80862" lon="1.90779">
        <ele>755.5</ele>
        <time>2026-07-07T09:16:06.000Z</time>
      </trkpt>
      <trkpt lat="45.80862" lon="1.90779">
        <ele>755.5</ele>
        <time>2026-07-07T09:16:07.000Z</time>
      </trkpt>
      <trkpt lat="45.80862" lon="1.90779">
        <ele>755.5</ele>
        <time>2026-07-07T09:16:08.000Z</time>
      </trkpt>
      <trkpt lat="45.80862" lon="1.90779">
        <ele>755.5</ele>
        <time>2026-07-07T09:16:09.000Z</time>
      </trkpt>
      <trkpt lat="45.80862" lon="1.90779">
        <ele>755.5</ele>
        <time>2026-07-07T09:16:10.000Z</time>
      </trkpt>
      <trkpt lat="45.80862" lon="1.90779">
        <ele>755.5</ele>
        <time>2026-07-07T09:16:11.000Z</time>
      </trkpt>
      <trkpt lat="45.80862" lon="1.90779">
        <ele>755.5</ele>
        <time>2026-07-07T09:16:12.000Z</time>
      </trkpt>
      <trkpt lat="45.80862" lon="1.90779">
        <ele>755.5</ele>
        <time>2026-07-07T09:16:13.000Z</time>
      </trkpt>
      <trkpt lat="45.80862" lon="1.90779">
        <ele>755.6</ele>
        <time>2026-07-07T09:16:14.000Z</time>
      </trkpt>
      <trkpt lat="45.80862" lon="1.90779">
        <ele>755.6</ele>
        <time>2026-07-07T09:16:15.000Z</time>
      </trkpt>
      <trkpt lat="45.80862" lon="1.90779">
        <ele>755.6</ele>
        <time>2026-07-07T09:16:16.000Z</time>
      </trkpt>
      <trkpt lat="45.80862" lon="1.90779">
        <ele>755.6</ele>
        <time>2026-07-07T09:16:17.000Z</time>
      </trkpt>
      <trkpt lat="45.80862" lon="1.9078">
        <ele>755.5</ele>
        <time>2026-07-07T09:16:18.000Z</time>
      </trkpt>
      <trkpt lat="45.80862" lon="1.9078">
        <ele>755.7</ele>
        <time>2026-07-07T09:16:19.000Z</time>
      </trkpt>
      <trkpt lat="45.80862" lon="1.9078">
        <ele>755.5</ele>
        <time>2026-07-07T09:16:20.000Z</time>
      </trkpt>
      <trkpt lat="45.80863" lon="1.90781">
        <ele>756.2</ele>
        <time>2026-07-07T09:16:21.000Z</time>
      </trkpt>
      <trkpt lat="45.80863" lon="1.90781">
        <ele>756.4</ele>
        <time>2026-07-07T09:16:22.000Z</time>
      </trkpt>
      <trkpt lat="45.80863" lon="1.90781">
        <ele>754.9</ele>
        <time>2026-07-07T09:16:23.000Z</time>
      </trkpt>
      <trkpt lat="45.80863" lon="1.9078">
        <ele>755.7</ele>
        <time>2026-07-07T09:16:24.000Z</time>
      </trkpt>
      <trkpt lat="45.80863" lon="1.9078">
        <ele>755.8</ele>
        <time>2026-07-07T09:16:25.000Z</time>
      </trkpt>
      <trkpt lat="45.80864" lon="1.9078">
        <ele>755.7</ele>
        <time>2026-07-07T09:16:26.000Z</time>
      </trkpt>
      <trkpt lat="45.80864" lon="1.9078">
        <ele>755.7</ele>
        <time>2026-07-07T09:16:27.000Z</time>
      </trkpt>
      <trkpt lat="45.80864" lon="1.9078">
        <ele>755.7</ele>
        <time>2026-07-07T09:16:28.000Z</time>
      </trkpt>
      <trkpt lat="45.80864" lon="1.9078">
        <ele>755.7</ele>
        <time>2026-07-07T09:16:29.000Z</time>
      </trkpt>
      <trkpt lat="45.80864" lon="1.9078">
        <ele>755.7</ele>
        <time>2026-07-07T09:16:30.000Z</time>
      </trkpt>
      <trkpt lat="45.80864" lon="1.9078">
        <ele>755.7</ele>
        <time>2026-07-07T09:16:31.000Z</time>
      </trkpt>
      <trkpt lat="45.80864" lon="1.9078">
        <ele>755.7</ele>
        <time>2026-07-07T09:16:32.000Z</time>
      </trkpt>
      <trkpt lat="45.80864" lon="1.9078">
        <ele>755.7</ele>
        <time>2026-07-07T09:16:33.000Z</time>
      </trkpt>
      <trkpt lat="45.80864" lon="1.9078">
        <ele>756.2</ele>
        <time>2026-07-07T09:16:34.000Z</time>
      </trkpt>
      <trkpt lat="45.80863" lon="1.90779">
        <ele>756.2</ele>
        <time>2026-07-07T09:16:35.000Z</time>
      </trkpt>
      <trkpt lat="45.80863" lon="1.90779">
        <ele>756.2</ele>
        <time>2026-07-07T09:16:36.000Z</time>
      </trkpt>
      <trkpt lat="45.80863" lon="1.90779">
        <ele>756.2</ele>
        <time>2026-07-07T09:16:37.000Z</time>
      </trkpt>
      <trkpt lat="45.80863" lon="1.90779">
        <ele>756.2</ele>
        <time>2026-07-07T09:16:38.000Z</time>
      </trkpt>
      <trkpt lat="45.80863" lon="1.90779">
        <ele>756.4</ele>
        <time>2026-07-07T09:16:39.000Z</time>
      </trkpt>
      <trkpt lat="45.80863" lon="1.90778">
        <ele>757</ele>
        <time>2026-07-07T09:16:40.000Z</time>
      </trkpt>
      <trkpt lat="45.80863" lon="1.90778">
        <ele>757</ele>
        <time>2026-07-07T09:16:41.000Z</time>
      </trkpt>
      <trkpt lat="45.80863" lon="1.90778">
        <ele>757</ele>
        <time>2026-07-07T09:16:42.000Z</time>
      </trkpt>
      <trkpt lat="45.80863" lon="1.90778">
        <ele>757</ele>
        <time>2026-07-07T09:16:43.000Z</time>
      </trkpt>
      <trkpt lat="45.80863" lon="1.90778">
        <ele>757</ele>
        <time>2026-07-07T09:16:44.000Z</time>
      </trkpt>
      <trkpt lat="45.80863" lon="1.90778">
        <ele>757</ele>
        <time>2026-07-07T09:16:45.000Z</time>
      </trkpt>
      <trkpt lat="45.80863" lon="1.90778">
        <ele>757</ele>
        <time>2026-07-07T09:16:46.000Z</time>
      </trkpt>
      <trkpt lat="45.80863" lon="1.90778">
        <ele>757</ele>
        <time>2026-07-07T09:16:47.000Z</time>
      </trkpt>
      <trkpt lat="45.80863" lon="1.90778">
        <ele>757</ele>
        <time>2026-07-07T09:16:48.000Z</time>
      </trkpt>
      <trkpt lat="45.80863" lon="1.90778">
        <ele>757</ele>
        <time>2026-07-07T09:16:49.000Z</time>
      </trkpt>
      <trkpt lat="45.80863" lon="1.90778">
        <ele>757</ele>
        <time>2026-07-07T09:16:50.000Z</time>
      </trkpt>
      <trkpt lat="45.80863" lon="1.90778">
        <ele>757</ele>
        <time>2026-07-07T09:16:51.000Z</time>
      </trkpt>
      <trkpt lat="45.80863" lon="1.90778">
        <ele>757</ele>
        <time>2026-07-07T09:16:52.000Z</time>
      </trkpt>
      <trkpt lat="45.80863" lon="1.90778">
        <ele>757</ele>
        <time>2026-07-07T09:16:53.000Z</time>
      </trkpt>
      <trkpt lat="45.80863" lon="1.90778">
        <ele>757</ele>
        <time>2026-07-07T09:16:54.000Z</time>
      </trkpt>
      <trkpt lat="45.80863" lon="1.90778">
        <ele>757</ele>
        <time>2026-07-07T09:16:55.000Z</time>
      </trkpt>
      <trkpt lat="45.80863" lon="1.90778">
        <ele>757</ele>
        <time>2026-07-07T09:16:56.000Z</time>
      </trkpt>
      <trkpt lat="45.80863" lon="1.90778">
        <ele>757</ele>
        <time>2026-07-07T09:16:57.000Z</time>
      </trkpt>
      <trkpt lat="45.80863" lon="1.90778">
        <ele>757</ele>
        <time>2026-07-07T09:16:58.000Z</time>
      </trkpt>
      <trkpt lat="45.80863" lon="1.90778">
        <ele>757</ele>
        <time>2026-07-07T09:16:59.000Z</time>
      </trkpt>
      <trkpt lat="45.80863" lon="1.90778">
        <ele>757</ele>
        <time>2026-07-07T09:17:00.000Z</time>
      </trkpt>
      <trkpt lat="45.80863" lon="1.90778">
        <ele>757</ele>
        <time>2026-07-07T09:17:01.000Z</time>
      </trkpt>
      <trkpt lat="45.80863" lon="1.90778">
        <ele>757</ele>
        <time>2026-07-07T09:17:02.000Z</time>
      </trkpt>
      <trkpt lat="45.80863" lon="1.90778">
        <ele>757.1</ele>
        <time>2026-07-07T09:17:03.000Z</time>
      </trkpt>
      <trkpt lat="45.80862" lon="1.90778">
        <ele>757.1</ele>
        <time>2026-07-07T09:17:04.000Z</time>
      </trkpt>
      <trkpt lat="45.80862" lon="1.90779">
        <ele>757.4</ele>
        <time>2026-07-07T09:17:05.000Z</time>
      </trkpt>
      <trkpt lat="45.80862" lon="1.90779">
        <ele>757.7</ele>
        <time>2026-07-07T09:17:06.000Z</time>
      </trkpt>
      <trkpt lat="45.80862" lon="1.90779">
        <ele>757.6</ele>
        <time>2026-07-07T09:17:07.000Z</time>
      </trkpt>
      <trkpt lat="45.80862" lon="1.90778">
        <ele>757.6</ele>
        <time>2026-07-07T09:17:08.000Z</time>
      </trkpt>
      <trkpt lat="45.80862" lon="1.90778">
        <ele>757.6</ele>
        <time>2026-07-07T09:17:09.000Z</time>
      </trkpt>
      <trkpt lat="45.80862" lon="1.90779">
        <ele>757.6</ele>
        <time>2026-07-07T09:17:10.000Z</time>
      </trkpt>
      <trkpt lat="45.80862" lon="1.90778">
        <ele>757.7</ele>
        <time>2026-07-07T09:17:11.000Z</time>
      </trkpt>
      <trkpt lat="45.80862" lon="1.90778">
        <ele>757.7</ele>
        <time>2026-07-07T09:17:12.000Z</time>
      </trkpt>
      <trkpt lat="45.80862" lon="1.90778">
        <ele>757.7</ele>
        <time>2026-07-07T09:17:13.000Z</time>
      </trkpt>
      <trkpt lat="45.80862" lon="1.90778">
        <ele>757.7</ele>
        <time>2026-07-07T09:17:14.000Z</time>
      </trkpt>
      <trkpt lat="45.80862" lon="1.90778">
        <ele>757.7</ele>
        <time>2026-07-07T09:17:15.000Z</time>
      </trkpt>
      <trkpt lat="45.80862" lon="1.90778">
        <ele>757.7</ele>
        <time>2026-07-07T09:17:16.000Z</time>
      </trkpt>
      <trkpt lat="45.80862" lon="1.90778">
        <ele>757.7</ele>
        <time>2026-07-07T09:17:17.000Z</time>
      </trkpt>
      <trkpt lat="45.80862" lon="1.90778">
        <ele>757.7</ele>
        <time>2026-07-07T09:17:18.000Z</time>
      </trkpt>
      <trkpt lat="45.80862" lon="1.90778">
        <ele>757.7</ele>
        <time>2026-07-07T09:17:19.000Z</time>
      </trkpt>
      <trkpt lat="45.80862" lon="1.90778">
        <ele>757.7</ele>
        <time>2026-07-07T09:17:20.000Z</time>
      </trkpt>
      <trkpt lat="45.80862" lon="1.90778">
        <ele>757.7</ele>
        <time>2026-07-07T09:17:21.000Z</time>
      </trkpt>
      <trkpt lat="45.80862" lon="1.90778">
        <ele>757.7</ele>
        <time>2026-07-07T09:17:22.000Z</time>
      </trkpt>
      <trkpt lat="45.80862" lon="1.90778">
        <ele>757.7</ele>
        <time>2026-07-07T09:17:23.000Z</time>
      </trkpt>
      <trkpt lat="45.80862" lon="1.90778">
        <ele>757.7</ele>
        <time>2026-07-07T09:17:24.000Z</time>
      </trkpt>
      <trkpt lat="45.80862" lon="1.90778">
        <ele>757.7</ele>
        <time>2026-07-07T09:17:25.000Z</time>
      </trkpt>
      <trkpt lat="45.80862" lon="1.90778">
        <ele>757.7</ele>
        <time>2026-07-07T09:17:26.000Z</time>
      </trkpt>
      <trkpt lat="45.80862" lon="1.90778">
        <ele>757.7</ele>
        <time>2026-07-07T09:17:27.000Z</time>
      </trkpt>
      <trkpt lat="45.80862" lon="1.90778">
        <ele>757.7</ele>
        <time>2026-07-07T09:17:28.000Z</time>
      </trkpt>
      <trkpt lat="45.80862" lon="1.90778">
        <ele>757.7</ele>
        <time>2026-07-07T09:17:29.000Z</time>
      </trkpt>
      <trkpt lat="45.80862" lon="1.90778">
        <ele>757.7</ele>
        <time>2026-07-07T09:17:30.000Z</time>
      </trkpt>
      <trkpt lat="45.80861" lon="1.90779">
        <ele>757.9</ele>
        <time>2026-07-07T09:17:31.000Z</time>
      </trkpt>
      <trkpt lat="45.80861" lon="1.90779">
        <ele>757.7</ele>
        <time>2026-07-07T09:17:32.000Z</time>
      </trkpt>
      <trkpt lat="45.80861" lon="1.90779">
        <ele>758.1</ele>
        <time>2026-07-07T09:17:33.000Z</time>
      </trkpt>
      <trkpt lat="45.8086" lon="1.90779">
        <ele>758.2</ele>
        <time>2026-07-07T09:17:34.000Z</time>
      </trkpt>
      <trkpt lat="45.8086" lon="1.90778">
        <ele>758.1</ele>
        <time>2026-07-07T09:17:35.000Z</time>
      </trkpt>
      <trkpt lat="45.8086" lon="1.90778">
        <ele>758.1</ele>
        <time>2026-07-07T09:17:36.000Z</time>
      </trkpt>
      <trkpt lat="45.8086" lon="1.90778">
        <ele>758.1</ele>
        <time>2026-07-07T09:17:37.000Z</time>
      </trkpt>
      <trkpt lat="45.8086" lon="1.90778">
        <ele>758.1</ele>
        <time>2026-07-07T09:17:38.000Z</time>
      </trkpt>
      <trkpt lat="45.8086" lon="1.90778">
        <ele>758.2</ele>
        <time>2026-07-07T09:17:39.000Z</time>
      </trkpt>
      <trkpt lat="45.8086" lon="1.90778">
        <ele>758.2</ele>
        <time>2026-07-07T09:17:40.000Z</time>
      </trkpt>
      <trkpt lat="45.8086" lon="1.90778">
        <ele>758.2</ele>
        <time>2026-07-07T09:17:41.000Z</time>
      </trkpt>
      <trkpt lat="45.8086" lon="1.90778">
        <ele>758.2</ele>
        <time>2026-07-07T09:17:42.000Z</time>
      </trkpt>
      <trkpt lat="45.8086" lon="1.90778">
        <ele>758.2</ele>
        <time>2026-07-07T09:17:43.000Z</time>
      </trkpt>
      <trkpt lat="45.8086" lon="1.90778">
        <ele>758.2</ele>
        <time>2026-07-07T09:17:44.000Z</time>
      </trkpt>
      <trkpt lat="45.8086" lon="1.90778">
        <ele>758.2</ele>
        <time>2026-07-07T09:17:45.000Z</time>
      </trkpt>
      <trkpt lat="45.8086" lon="1.90778">
        <ele>758.2</ele>
        <time>2026-07-07T09:17:46.000Z</time>
      </trkpt>
      <trkpt lat="45.8086" lon="1.90778">
        <ele>758.2</ele>
        <time>2026-07-07T09:17:47.000Z</time>
      </trkpt>
      <trkpt lat="45.8086" lon="1.90778">
        <ele>758.2</ele>
        <time>2026-07-07T09:17:48.000Z</time>
      </trkpt>
      <trkpt lat="45.8086" lon="1.90778">
        <ele>758.2</ele>
        <time>2026-07-07T09:17:49.000Z</time>
      </trkpt>
      <trkpt lat="45.8086" lon="1.90778">
        <ele>758.2</ele>
        <time>2026-07-07T09:17:50.000Z</time>
      </trkpt>
      <trkpt lat="45.8086" lon="1.90778">
        <ele>758.2</ele>
        <time>2026-07-07T09:17:51.000Z</time>
      </trkpt>
      <trkpt lat="45.8086" lon="1.90778">
        <ele>758.9</ele>
        <time>2026-07-07T09:17:52.000Z</time>
      </trkpt>
      <trkpt lat="45.8086" lon="1.90778">
        <ele>758.9</ele>
        <time>2026-07-07T09:17:53.000Z</time>
      </trkpt>
      <trkpt lat="45.8086" lon="1.90778">
        <ele>759.3</ele>
        <time>2026-07-07T09:17:54.000Z</time>
      </trkpt>
      <trkpt lat="45.80859" lon="1.90778">
        <ele>759.4</ele>
        <time>2026-07-07T09:17:55.000Z</time>
      </trkpt>
      <trkpt lat="45.80859" lon="1.90778">
        <ele>759.1</ele>
        <time>2026-07-07T09:17:56.000Z</time>
      </trkpt>
      <trkpt lat="45.80859" lon="1.90778">
        <ele>758.9</ele>
        <time>2026-07-07T09:17:57.000Z</time>
      </trkpt>
      <trkpt lat="45.80859" lon="1.90778">
        <ele>758.2</ele>
        <time>2026-07-07T09:17:58.000Z</time>
      </trkpt>
      <trkpt lat="45.80859" lon="1.90778">
        <ele>757.9</ele>
        <time>2026-07-07T09:17:59.000Z</time>
      </trkpt>
      <trkpt lat="45.80859" lon="1.9078">
        <ele>756.8</ele>
        <time>2026-07-07T09:18:00.000Z</time>
      </trkpt>
      <trkpt lat="45.8086" lon="1.90781">
        <ele>756.3</ele>
        <time>2026-07-07T09:18:01.000Z</time>
      </trkpt>
      <trkpt lat="45.8086" lon="1.90781">
        <ele>756.1</ele>
        <time>2026-07-07T09:18:02.000Z</time>
      </trkpt>
      <trkpt lat="45.80861" lon="1.90784">
        <ele>755.7</ele>
        <time>2026-07-07T09:18:03.000Z</time>
      </trkpt>
      <trkpt lat="45.80861" lon="1.90785">
        <ele>756.3</ele>
        <time>2026-07-07T09:18:04.000Z</time>
      </trkpt>
      <trkpt lat="45.8086" lon="1.90785">
        <ele>756.2</ele>
        <time>2026-07-07T09:18:05.000Z</time>
      </trkpt>
      <trkpt lat="45.8086" lon="1.90784">
        <ele>756.2</ele>
        <time>2026-07-07T09:18:06.000Z</time>
      </trkpt>
      <trkpt lat="45.8086" lon="1.90784">
        <ele>756.2</ele>
        <time>2026-07-07T09:18:07.000Z</time>
      </trkpt>
      <trkpt lat="45.8086" lon="1.90784">
        <ele>756.2</ele>
        <time>2026-07-07T09:18:08.000Z</time>
      </trkpt>
      <trkpt lat="45.8086" lon="1.90785">
        <ele>756</ele>
        <time>2026-07-07T09:18:09.000Z</time>
      </trkpt>
      <trkpt lat="45.8086" lon="1.90785">
        <ele>756</ele>
        <time>2026-07-07T09:18:10.000Z</time>
      </trkpt>
      <trkpt lat="45.8086" lon="1.90785">
        <ele>756</ele>
        <time>2026-07-07T09:18:11.000Z</time>
      </trkpt>
      <trkpt lat="45.8086" lon="1.90785">
        <ele>756</ele>
        <time>2026-07-07T09:18:12.000Z</time>
      </trkpt>
      <trkpt lat="45.8086" lon="1.90785">
        <ele>756</ele>
        <time>2026-07-07T09:18:13.000Z</time>
      </trkpt>
      <trkpt lat="45.8086" lon="1.90785">
        <ele>756</ele>
        <time>2026-07-07T09:18:14.000Z</time>
      </trkpt>
      <trkpt lat="45.8086" lon="1.90785">
        <ele>756</ele>
        <time>2026-07-07T09:18:15.000Z</time>
      </trkpt>
      <trkpt lat="45.8086" lon="1.90785">
        <ele>756</ele>
        <time>2026-07-07T09:18:16.000Z</time>
      </trkpt>
      <trkpt lat="45.8086" lon="1.90785">
        <ele>756</ele>
        <time>2026-07-07T09:18:17.000Z</time>
      </trkpt>
      <trkpt lat="45.8086" lon="1.90785">
        <ele>756</ele>
        <time>2026-07-07T09:18:18.000Z</time>
      </trkpt>
      <trkpt lat="45.8086" lon="1.90785">
        <ele>756</ele>
        <time>2026-07-07T09:18:19.000Z</time>
      </trkpt>
      <trkpt lat="45.8086" lon="1.90785">
        <ele>755.7</ele>
        <time>2026-07-07T09:18:20.000Z</time>
      </trkpt>
      <trkpt lat="45.8086" lon="1.90785">
        <ele>755.7</ele>
        <time>2026-07-07T09:18:21.000Z</time>
      </trkpt>
      <trkpt lat="45.8086" lon="1.90785">
        <ele>755.7</ele>
        <time>2026-07-07T09:18:22.000Z</time>
      </trkpt>
      <trkpt lat="45.80861" lon="1.90785">
        <ele>755.5</ele>
        <time>2026-07-07T09:18:23.000Z</time>
      </trkpt>
      <trkpt lat="45.80861" lon="1.90785">
        <ele>755.4</ele>
        <time>2026-07-07T09:18:24.000Z</time>
      </trkpt>
      <trkpt lat="45.8086" lon="1.90784">
        <ele>754.9</ele>
        <time>2026-07-07T09:18:25.000Z</time>
      </trkpt>
      <trkpt lat="45.8086" lon="1.90782">
        <ele>754.9</ele>
        <time>2026-07-07T09:18:26.000Z</time>
      </trkpt>
      <trkpt lat="45.8086" lon="1.90782">
        <ele>754.8</ele>
        <time>2026-07-07T09:18:27.000Z</time>
      </trkpt>
      <trkpt lat="45.8086" lon="1.90782">
        <ele>754.8</ele>
        <time>2026-07-07T09:18:28.000Z</time>
      </trkpt>
      <trkpt lat="45.8086" lon="1.90782">
        <ele>754.8</ele>
        <time>2026-07-07T09:18:29.000Z</time>
      </trkpt>
      <trkpt lat="45.8086" lon="1.90782">
        <ele>754.8</ele>
        <time>2026-07-07T09:18:30.000Z</time>
      </trkpt>
      <trkpt lat="45.8086" lon="1.90782">
        <ele>754.8</ele>
        <time>2026-07-07T09:18:31.000Z</time>
      </trkpt>
      <trkpt lat="45.8086" lon="1.90782">
        <ele>754.8</ele>
        <time>2026-07-07T09:18:32.000Z</time>
      </trkpt>
      <trkpt lat="45.8086" lon="1.90782">
        <ele>754.8</ele>
        <time>2026-07-07T09:18:33.000Z</time>
      </trkpt>
      <trkpt lat="45.8086" lon="1.90782">
        <ele>754.8</ele>
        <time>2026-07-07T09:18:34.000Z</time>
      </trkpt>
      <trkpt lat="45.8086" lon="1.90782">
        <ele>754.8</ele>
        <time>2026-07-07T09:18:35.000Z</time>
      </trkpt>
      <trkpt lat="45.8086" lon="1.90782">
        <ele>754.8</ele>
        <time>2026-07-07T09:18:36.000Z</time>
      </trkpt>
      <trkpt lat="45.8086" lon="1.90782">
        <ele>754.8</ele>
        <time>2026-07-07T09:18:37.000Z</time>
      </trkpt>
      <trkpt lat="45.8086" lon="1.90782">
        <ele>754.8</ele>
        <time>2026-07-07T09:18:38.000Z</time>
      </trkpt>
      <trkpt lat="45.8086" lon="1.90782">
        <ele>754.7</ele>
        <time>2026-07-07T09:18:39.000Z</time>
      </trkpt>
      <trkpt lat="45.8086" lon="1.90782">
        <ele>754.7</ele>
        <time>2026-07-07T09:18:40.000Z</time>
      </trkpt>
      <trkpt lat="45.80861" lon="1.90782">
        <ele>754.7</ele>
        <time>2026-07-07T09:18:41.000Z</time>
      </trkpt>
      <trkpt lat="45.80861" lon="1.90782">
        <ele>755.3</ele>
        <time>2026-07-07T09:18:42.000Z</time>
      </trkpt>
      <trkpt lat="45.80861" lon="1.90782">
        <ele>755.7</ele>
        <time>2026-07-07T09:18:43.000Z</time>
      </trkpt>
      <trkpt lat="45.80861" lon="1.90781">
        <ele>756</ele>
        <time>2026-07-07T09:18:44.000Z</time>
      </trkpt>
      <trkpt lat="45.80862" lon="1.90781">
        <ele>755.7</ele>
        <time>2026-07-07T09:18:45.000Z</time>
      </trkpt>
      <trkpt lat="45.80862" lon="1.9078">
        <ele>755.4</ele>
        <time>2026-07-07T09:18:46.000Z</time>
      </trkpt>
      <trkpt lat="45.80862" lon="1.90779">
        <ele>755.5</ele>
        <time>2026-07-07T09:18:47.000Z</time>
      </trkpt>
      <trkpt lat="45.80862" lon="1.90778">
        <ele>755.9</ele>
        <time>2026-07-07T09:18:48.000Z</time>
      </trkpt>
      <trkpt lat="45.80862" lon="1.90777">
        <ele>755.8</ele>
        <time>2026-07-07T09:18:49.000Z</time>
      </trkpt>
      <trkpt lat="45.80862" lon="1.90776">
        <ele>756</ele>
        <time>2026-07-07T09:18:50.000Z</time>
      </trkpt>
      <trkpt lat="45.80862" lon="1.90776">
        <ele>755.8</ele>
        <time>2026-07-07T09:18:51.000Z</time>
      </trkpt>
      <trkpt lat="45.80862" lon="1.90776">
        <ele>756.3</ele>
        <time>2026-07-07T09:18:52.000Z</time>
      </trkpt>
      <trkpt lat="45.80863" lon="1.90776">
        <ele>756.4</ele>
        <time>2026-07-07T09:18:53.000Z</time>
      </trkpt>
      <trkpt lat="45.80863" lon="1.90775">
        <ele>756.5</ele>
        <time>2026-07-07T09:18:54.000Z</time>
      </trkpt>
      <trkpt lat="45.80863" lon="1.90775">
        <ele>756.3</ele>
        <time>2026-07-07T09:18:55.000Z</time>
      </trkpt>
      <trkpt lat="45.80863" lon="1.90774">
        <ele>756.2</ele>
        <time>2026-07-07T09:18:56.000Z</time>
      </trkpt>
      <trkpt lat="45.80863" lon="1.90774">
        <ele>756.3</ele>
        <time>2026-07-07T09:18:57.000Z</time>
      </trkpt>
      <trkpt lat="45.80863" lon="1.90774">
        <ele>756.5</ele>
        <time>2026-07-07T09:18:58.000Z</time>
      </trkpt>
      <trkpt lat="45.80863" lon="1.90775">
        <ele>756.4</ele>
        <time>2026-07-07T09:18:59.000Z</time>
      </trkpt>
      <trkpt lat="45.80863" lon="1.90774">
        <ele>756.3</ele>
        <time>2026-07-07T09:19:00.000Z</time>
      </trkpt>
      <trkpt lat="45.80862" lon="1.90774">
        <ele>756.3</ele>
        <time>2026-07-07T09:19:01.000Z</time>
      </trkpt>
      <trkpt lat="45.80862" lon="1.90774">
        <ele>756.3</ele>
        <time>2026-07-07T09:19:02.000Z</time>
      </trkpt>
      <trkpt lat="45.80862" lon="1.90774">
        <ele>756.3</ele>
        <time>2026-07-07T09:19:03.000Z</time>
      </trkpt>
      <trkpt lat="45.80862" lon="1.90774">
        <ele>756.3</ele>
        <time>2026-07-07T09:19:04.000Z</time>
      </trkpt>
      <trkpt lat="45.80862" lon="1.90774">
        <ele>756.3</ele>
        <time>2026-07-07T09:19:05.000Z</time>
      </trkpt>
      <trkpt lat="45.80862" lon="1.90774">
        <ele>756.3</ele>
        <time>2026-07-07T09:19:06.000Z</time>
      </trkpt>
      <trkpt lat="45.80862" lon="1.90774">
        <ele>756.3</ele>
        <time>2026-07-07T09:19:07.000Z</time>
      </trkpt>
      <trkpt lat="45.80862" lon="1.90774">
        <ele>756.3</ele>
        <time>2026-07-07T09:19:08.000Z</time>
      </trkpt>
      <trkpt lat="45.80861" lon="1.90772">
        <ele>756.3</ele>
        <time>2026-07-07T09:19:09.000Z</time>
      </trkpt>
      <trkpt lat="45.80861" lon="1.90771">
        <ele>756.3</ele>
        <time>2026-07-07T09:19:10.000Z</time>
      </trkpt>
      <trkpt lat="45.80861" lon="1.90772">
        <ele>756</ele>
        <time>2026-07-07T09:19:11.000Z</time>
      </trkpt>
      <trkpt lat="45.80861" lon="1.90772">
        <ele>756.1</ele>
        <time>2026-07-07T09:19:12.000Z</time>
      </trkpt>
      <trkpt lat="45.80861" lon="1.90772">
        <ele>756.1</ele>
        <time>2026-07-07T09:19:13.000Z</time>
      </trkpt>
      <trkpt lat="45.80861" lon="1.90772">
        <ele>756.1</ele>
        <time>2026-07-07T09:19:14.000Z</time>
      </trkpt>
      <trkpt lat="45.80861" lon="1.90772">
        <ele>756.2</ele>
        <time>2026-07-07T09:19:15.000Z</time>
      </trkpt>
      <trkpt lat="45.80861" lon="1.90772">
        <ele>756.1</ele>
        <time>2026-07-07T09:19:16.000Z</time>
      </trkpt>
      <trkpt lat="45.80861" lon="1.90772">
        <ele>756.5</ele>
        <time>2026-07-07T09:19:17.000Z</time>
      </trkpt>
      <trkpt lat="45.80861" lon="1.90773">
        <ele>756.4</ele>
        <time>2026-07-07T09:19:18.000Z</time>
      </trkpt>
      <trkpt lat="45.80862" lon="1.90774">
        <ele>755.9</ele>
        <time>2026-07-07T09:19:19.000Z</time>
      </trkpt>
      <trkpt lat="45.80862" lon="1.90773">
        <ele>755.7</ele>
        <time>2026-07-07T09:19:20.000Z</time>
      </trkpt>
      <trkpt lat="45.80863" lon="1.90772">
        <ele>755.7</ele>
        <time>2026-07-07T09:19:21.000Z</time>
      </trkpt>
      <trkpt lat="45.80863" lon="1.90772">
        <ele>755.5</ele>
        <time>2026-07-07T09:19:22.000Z</time>
      </trkpt>
      <trkpt lat="45.80864" lon="1.90771">
        <ele>756.5</ele>
        <time>2026-07-07T09:19:23.000Z</time>
      </trkpt>
      <trkpt lat="45.80866" lon="1.9077">
        <ele>756.7</ele>
        <time>2026-07-07T09:19:24.000Z</time>
      </trkpt>
      <trkpt lat="45.80866" lon="1.90769">
        <ele>756.9</ele>
        <time>2026-07-07T09:19:25.000Z</time>
      </trkpt>
      <trkpt lat="45.80867" lon="1.90769">
        <ele>756.6</ele>
        <time>2026-07-07T09:19:26.000Z</time>
      </trkpt>
      <trkpt lat="45.80867" lon="1.9077">
        <ele>756.2</ele>
        <time>2026-07-07T09:19:27.000Z</time>
      </trkpt>
      <trkpt lat="45.80866" lon="1.9077">
        <ele>756.1</ele>
        <time>2026-07-07T09:19:28.000Z</time>
      </trkpt>
      <trkpt lat="45.80866" lon="1.90771">
        <ele>756.1</ele>
        <time>2026-07-07T09:19:29.000Z</time>
      </trkpt>
      <trkpt lat="45.80866" lon="1.90771">
        <ele>756.3</ele>
        <time>2026-07-07T09:19:30.000Z</time>
      </trkpt>
      <trkpt lat="45.80866" lon="1.90771">
        <ele>756.1</ele>
        <time>2026-07-07T09:19:31.000Z</time>
      </trkpt>
      <trkpt lat="45.80866" lon="1.9077">
        <ele>756.1</ele>
        <time>2026-07-07T09:19:32.000Z</time>
      </trkpt>
      <trkpt lat="45.80866" lon="1.9077">
        <ele>756.1</ele>
        <time>2026-07-07T09:19:33.000Z</time>
      </trkpt>
      <trkpt lat="45.80866" lon="1.9077">
        <ele>756.1</ele>
        <time>2026-07-07T09:19:34.000Z</time>
      </trkpt>
      <trkpt lat="45.80866" lon="1.9077">
        <ele>755.8</ele>
        <time>2026-07-07T09:19:35.000Z</time>
      </trkpt>
      <trkpt lat="45.80866" lon="1.90771">
        <ele>756</ele>
        <time>2026-07-07T09:19:36.000Z</time>
      </trkpt>
      <trkpt lat="45.80866" lon="1.90771">
        <ele>755.9</ele>
        <time>2026-07-07T09:19:37.000Z</time>
      </trkpt>
      <trkpt lat="45.80865" lon="1.90771">
        <ele>755.8</ele>
        <time>2026-07-07T09:19:38.000Z</time>
      </trkpt>
      <trkpt lat="45.80865" lon="1.90771">
        <ele>756.1</ele>
        <time>2026-07-07T09:19:39.000Z</time>
      </trkpt>
      <trkpt lat="45.80866" lon="1.90773">
        <ele>755.5</ele>
        <time>2026-07-07T09:19:40.000Z</time>
      </trkpt>
      <trkpt lat="45.80867" lon="1.90775">
        <ele>755.3</ele>
        <time>2026-07-07T09:19:41.000Z</time>
      </trkpt>
      <trkpt lat="45.80867" lon="1.90776">
        <ele>755.4</ele>
        <time>2026-07-07T09:19:42.000Z</time>
      </trkpt>
      <trkpt lat="45.80867" lon="1.90778">
        <ele>754.7</ele>
        <time>2026-07-07T09:19:43.000Z</time>
      </trkpt>
      <trkpt lat="45.80867" lon="1.90779">
        <ele>753.9</ele>
        <time>2026-07-07T09:19:44.000Z</time>
      </trkpt>
      <trkpt lat="45.80867" lon="1.90778">
        <ele>754.9</ele>
        <time>2026-07-07T09:19:45.000Z</time>
      </trkpt>
      <trkpt lat="45.80867" lon="1.90775">
        <ele>753.8</ele>
        <time>2026-07-07T09:19:46.000Z</time>
      </trkpt>
      <trkpt lat="45.80868" lon="1.90772">
        <ele>754.4</ele>
        <time>2026-07-07T09:19:47.000Z</time>
      </trkpt>
      <trkpt lat="45.80869" lon="1.90769">
        <ele>753.8</ele>
        <time>2026-07-07T09:19:48.000Z</time>
      </trkpt>
      <trkpt lat="45.80869" lon="1.90767">
        <ele>753.8</ele>
        <time>2026-07-07T09:19:49.000Z</time>
      </trkpt>
      <trkpt lat="45.80871" lon="1.90765">
        <ele>754</ele>
        <time>2026-07-07T09:19:50.000Z</time>
      </trkpt>
      <trkpt lat="45.80872" lon="1.90764">
        <ele>753.7</ele>
        <time>2026-07-07T09:19:51.000Z</time>
      </trkpt>
      <trkpt lat="45.80874" lon="1.90762">
        <ele>752.9</ele>
        <time>2026-07-07T09:19:52.000Z</time>
      </trkpt>
      <trkpt lat="45.80876" lon="1.90761">
        <ele>752.1</ele>
        <time>2026-07-07T09:19:53.000Z</time>
      </trkpt>
      <trkpt lat="45.80878" lon="1.9076">
        <ele>751.6</ele>
        <time>2026-07-07T09:19:54.000Z</time>
      </trkpt>
      <trkpt lat="45.8088" lon="1.90758">
        <ele>751.4</ele>
        <time>2026-07-07T09:19:55.000Z</time>
      </trkpt>
      <trkpt lat="45.80881" lon="1.90757">
        <ele>750.1</ele>
        <time>2026-07-07T09:19:56.000Z</time>
      </trkpt>
      <trkpt lat="45.80883" lon="1.90756">
        <ele>749.7</ele>
        <time>2026-07-07T09:19:57.000Z</time>
      </trkpt>
      <trkpt lat="45.80884" lon="1.90755">
        <ele>749.4</ele>
        <time>2026-07-07T09:19:58.000Z</time>
      </trkpt>
      <trkpt lat="45.80886" lon="1.90753">
        <ele>749.6</ele>
        <time>2026-07-07T09:19:59.000Z</time>
      </trkpt>
      <trkpt lat="45.80887" lon="1.90752">
        <ele>749.3</ele>
        <time>2026-07-07T09:20:00.000Z</time>
      </trkpt>
      <trkpt lat="45.80888" lon="1.9075">
        <ele>748.7</ele>
        <time>2026-07-07T09:20:01.000Z</time>
      </trkpt>
      <trkpt lat="45.80889" lon="1.90748">
        <ele>748.1</ele>
        <time>2026-07-07T09:20:02.000Z</time>
      </trkpt>
      <trkpt lat="45.8089" lon="1.90746">
        <ele>747.7</ele>
        <time>2026-07-07T09:20:03.000Z</time>
      </trkpt>
      <trkpt lat="45.80892" lon="1.90744">
        <ele>747.1</ele>
        <time>2026-07-07T09:20:04.000Z</time>
      </trkpt>
      <trkpt lat="45.80893" lon="1.90742">
        <ele>746</ele>
        <time>2026-07-07T09:20:05.000Z</time>
      </trkpt>
      <trkpt lat="45.80894" lon="1.9074">
        <ele>745.7</ele>
        <time>2026-07-07T09:20:06.000Z</time>
      </trkpt>
      <trkpt lat="45.80895" lon="1.90738">
        <ele>746.4</ele>
        <time>2026-07-07T09:20:07.000Z</time>
      </trkpt>
      <trkpt lat="45.80896" lon="1.90737">
        <ele>746.5</ele>
        <time>2026-07-07T09:20:08.000Z</time>
      </trkpt>
      <trkpt lat="45.80897" lon="1.90735">
        <ele>745.6</ele>
        <time>2026-07-07T09:20:09.000Z</time>
      </trkpt>
      <trkpt lat="45.80898" lon="1.90733">
        <ele>746.2</ele>
        <time>2026-07-07T09:20:10.000Z</time>
      </trkpt>
      <trkpt lat="45.809" lon="1.90732">
        <ele>746.1</ele>
        <time>2026-07-07T09:20:11.000Z</time>
      </trkpt>
      <trkpt lat="45.80901" lon="1.90731">
        <ele>745.8</ele>
        <time>2026-07-07T09:20:12.000Z</time>
      </trkpt>
      <trkpt lat="45.80903" lon="1.90729">
        <ele>745.5</ele>
        <time>2026-07-07T09:20:13.000Z</time>
      </trkpt>
      <trkpt lat="45.80906" lon="1.90728">
        <ele>746.4</ele>
        <time>2026-07-07T09:20:14.000Z</time>
      </trkpt>
      <trkpt lat="45.80908" lon="1.90727">
        <ele>745.8</ele>
        <time>2026-07-07T09:20:15.000Z</time>
      </trkpt>
      <trkpt lat="45.80909" lon="1.90725">
        <ele>745.9</ele>
        <time>2026-07-07T09:20:16.000Z</time>
      </trkpt>
      <trkpt lat="45.8091" lon="1.90724">
        <ele>745.1</ele>
        <time>2026-07-07T09:20:17.000Z</time>
      </trkpt>
      <trkpt lat="45.80912" lon="1.90722">
        <ele>744.7</ele>
        <time>2026-07-07T09:20:18.000Z</time>
      </trkpt>
      <trkpt lat="45.80913" lon="1.90721">
        <ele>744.5</ele>
        <time>2026-07-07T09:20:19.000Z</time>
      </trkpt>
      <trkpt lat="45.80915" lon="1.9072">
        <ele>744.4</ele>
        <time>2026-07-07T09:20:20.000Z</time>
      </trkpt>
      <trkpt lat="45.80916" lon="1.90718">
        <ele>743.9</ele>
        <time>2026-07-07T09:20:21.000Z</time>
      </trkpt>
      <trkpt lat="45.80917" lon="1.90716">
        <ele>744.1</ele>
        <time>2026-07-07T09:20:22.000Z</time>
      </trkpt>
      <trkpt lat="45.80918" lon="1.90714">
        <ele>743.3</ele>
        <time>2026-07-07T09:20:23.000Z</time>
      </trkpt>
      <trkpt lat="45.80919" lon="1.90713">
        <ele>743</ele>
        <time>2026-07-07T09:20:24.000Z</time>
      </trkpt>
      <trkpt lat="45.8092" lon="1.90711">
        <ele>742.6</ele>
        <time>2026-07-07T09:20:25.000Z</time>
      </trkpt>
      <trkpt lat="45.80922" lon="1.9071">
        <ele>742.3</ele>
        <time>2026-07-07T09:20:26.000Z</time>
      </trkpt>
      <trkpt lat="45.80924" lon="1.90709">
        <ele>742</ele>
        <time>2026-07-07T09:20:27.000Z</time>
      </trkpt>
      <trkpt lat="45.80925" lon="1.90708">
        <ele>742</ele>
        <time>2026-07-07T09:20:28.000Z</time>
      </trkpt>
      <trkpt lat="45.80927" lon="1.90707">
        <ele>742.3</ele>
        <time>2026-07-07T09:20:29.000Z</time>
      </trkpt>
      <trkpt lat="45.80929" lon="1.90706">
        <ele>741.5</ele>
        <time>2026-07-07T09:20:30.000Z</time>
      </trkpt>
      <trkpt lat="45.80931" lon="1.90705">
        <ele>741.5</ele>
        <time>2026-07-07T09:20:31.000Z</time>
      </trkpt>
      <trkpt lat="45.80932" lon="1.90704">
        <ele>741.3</ele>
        <time>2026-07-07T09:20:32.000Z</time>
      </trkpt>
      <trkpt lat="45.80933" lon="1.90702">
        <ele>741.1</ele>
        <time>2026-07-07T09:20:33.000Z</time>
      </trkpt>
      <trkpt lat="45.80935" lon="1.90701">
        <ele>740.7</ele>
        <time>2026-07-07T09:20:34.000Z</time>
      </trkpt>
      <trkpt lat="45.80936" lon="1.90699">
        <ele>740.5</ele>
        <time>2026-07-07T09:20:35.000Z</time>
      </trkpt>
      <trkpt lat="45.80938" lon="1.90698">
        <ele>740.3</ele>
        <time>2026-07-07T09:20:36.000Z</time>
      </trkpt>
      <trkpt lat="45.80939" lon="1.90697">
        <ele>740.4</ele>
        <time>2026-07-07T09:20:37.000Z</time>
      </trkpt>
      <trkpt lat="45.8094" lon="1.90695">
        <ele>740</ele>
        <time>2026-07-07T09:20:38.000Z</time>
      </trkpt>
      <trkpt lat="45.80941" lon="1.90694">
        <ele>739.7</ele>
        <time>2026-07-07T09:20:39.000Z</time>
      </trkpt>
      <trkpt lat="45.80943" lon="1.90692">
        <ele>739.3</ele>
        <time>2026-07-07T09:20:40.000Z</time>
      </trkpt>
      <trkpt lat="45.80944" lon="1.90691">
        <ele>739.2</ele>
        <time>2026-07-07T09:20:41.000Z</time>
      </trkpt>
      <trkpt lat="45.80946" lon="1.90689">
        <ele>738.9</ele>
        <time>2026-07-07T09:20:42.000Z</time>
      </trkpt>
      <trkpt lat="45.80947" lon="1.90688">
        <ele>738.5</ele>
        <time>2026-07-07T09:20:43.000Z</time>
      </trkpt>
      <trkpt lat="45.80949" lon="1.90687">
        <ele>738.4</ele>
        <time>2026-07-07T09:20:44.000Z</time>
      </trkpt>
      <trkpt lat="45.8095" lon="1.90685">
        <ele>738.2</ele>
        <time>2026-07-07T09:20:45.000Z</time>
      </trkpt>
      <trkpt lat="45.80952" lon="1.90683">
        <ele>737.8</ele>
        <time>2026-07-07T09:20:46.000Z</time>
      </trkpt>
      <trkpt lat="45.80953" lon="1.90682">
        <ele>737.5</ele>
        <time>2026-07-07T09:20:47.000Z</time>
      </trkpt>
      <trkpt lat="45.80954" lon="1.9068">
        <ele>737.3</ele>
        <time>2026-07-07T09:20:48.000Z</time>
      </trkpt>
      <trkpt lat="45.80955" lon="1.90678">
        <ele>736.8</ele>
        <time>2026-07-07T09:20:49.000Z</time>
      </trkpt>
      <trkpt lat="45.80956" lon="1.90676">
        <ele>736.4</ele>
        <time>2026-07-07T09:20:50.000Z</time>
      </trkpt>
      <trkpt lat="45.80957" lon="1.90675">
        <ele>736</ele>
        <time>2026-07-07T09:20:51.000Z</time>
      </trkpt>
      <trkpt lat="45.80959" lon="1.90673">
        <ele>735.7</ele>
        <time>2026-07-07T09:20:52.000Z</time>
      </trkpt>
      <trkpt lat="45.8096" lon="1.90672">
        <ele>735.5</ele>
        <time>2026-07-07T09:20:53.000Z</time>
      </trkpt>
      <trkpt lat="45.8096" lon="1.9067">
        <ele>735.2</ele>
        <time>2026-07-07T09:20:54.000Z</time>
      </trkpt>
      <trkpt lat="45.80961" lon="1.90668">
        <ele>735</ele>
        <time>2026-07-07T09:20:55.000Z</time>
      </trkpt>
      <trkpt lat="45.80962" lon="1.90666">
        <ele>734.3</ele>
        <time>2026-07-07T09:20:56.000Z</time>
      </trkpt>
      <trkpt lat="45.80963" lon="1.90664">
        <ele>733.9</ele>
        <time>2026-07-07T09:20:57.000Z</time>
      </trkpt>
      <trkpt lat="45.80964" lon="1.90663">
        <ele>733.2</ele>
        <time>2026-07-07T09:20:58.000Z</time>
      </trkpt>
      <trkpt lat="45.80965" lon="1.90661">
        <ele>732.5</ele>
        <time>2026-07-07T09:20:59.000Z</time>
      </trkpt>
      <trkpt lat="45.80966" lon="1.90659">
        <ele>732.4</ele>
        <time>2026-07-07T09:21:00.000Z</time>
      </trkpt>
      <trkpt lat="45.80967" lon="1.90658">
        <ele>732</ele>
        <time>2026-07-07T09:21:01.000Z</time>
      </trkpt>
      <trkpt lat="45.80968" lon="1.90656">
        <ele>731.7</ele>
        <time>2026-07-07T09:21:02.000Z</time>
      </trkpt>
      <trkpt lat="45.80969" lon="1.90654">
        <ele>731.4</ele>
        <time>2026-07-07T09:21:03.000Z</time>
      </trkpt>
      <trkpt lat="45.8097" lon="1.90652">
        <ele>730.9</ele>
        <time>2026-07-07T09:21:04.000Z</time>
      </trkpt>
      <trkpt lat="45.80971" lon="1.9065">
        <ele>730.7</ele>
        <time>2026-07-07T09:21:05.000Z</time>
      </trkpt>
      <trkpt lat="45.80971" lon="1.90648">
        <ele>730.2</ele>
        <time>2026-07-07T09:21:06.000Z</time>
      </trkpt>
      <trkpt lat="45.80972" lon="1.90646">
        <ele>729.8</ele>
        <time>2026-07-07T09:21:07.000Z</time>
      </trkpt>
      <trkpt lat="45.80973" lon="1.90645">
        <ele>729.4</ele>
        <time>2026-07-07T09:21:08.000Z</time>
      </trkpt>
      <trkpt lat="45.80975" lon="1.90643">
        <ele>729.1</ele>
        <time>2026-07-07T09:21:09.000Z</time>
      </trkpt>
      <trkpt lat="45.80976" lon="1.90642">
        <ele>728.7</ele>
        <time>2026-07-07T09:21:10.000Z</time>
      </trkpt>
      <trkpt lat="45.80978" lon="1.90641">
        <ele>728.4</ele>
        <time>2026-07-07T09:21:11.000Z</time>
      </trkpt>
      <trkpt lat="45.80979" lon="1.9064">
        <ele>728.3</ele>
        <time>2026-07-07T09:21:12.000Z</time>
      </trkpt>
      <trkpt lat="45.80981" lon="1.90639">
        <ele>728.4</ele>
        <time>2026-07-07T09:21:13.000Z</time>
      </trkpt>
      <trkpt lat="45.80983" lon="1.90639">
        <ele>728.1</ele>
        <time>2026-07-07T09:21:14.000Z</time>
      </trkpt>
      <trkpt lat="45.80984" lon="1.90638">
        <ele>728.3</ele>
        <time>2026-07-07T09:21:15.000Z</time>
      </trkpt>
      <trkpt lat="45.80986" lon="1.90637">
        <ele>728.1</ele>
        <time>2026-07-07T09:21:16.000Z</time>
      </trkpt>
      <trkpt lat="45.80988" lon="1.90637">
        <ele>728.2</ele>
        <time>2026-07-07T09:21:17.000Z</time>
      </trkpt>
      <trkpt lat="45.8099" lon="1.90636">
        <ele>728</ele>
        <time>2026-07-07T09:21:18.000Z</time>
      </trkpt>
      <trkpt lat="45.80992" lon="1.90635">
        <ele>727.9</ele>
        <time>2026-07-07T09:21:19.000Z</time>
      </trkpt>
      <trkpt lat="45.80994" lon="1.90635">
        <ele>727.7</ele>
        <time>2026-07-07T09:21:20.000Z</time>
      </trkpt>
      <trkpt lat="45.80996" lon="1.90638">
        <ele>727.6</ele>
        <time>2026-07-07T09:21:21.000Z</time>
      </trkpt>
      <trkpt lat="45.80997" lon="1.90639">
        <ele>727.6</ele>
        <time>2026-07-07T09:21:22.000Z</time>
      </trkpt>
      <trkpt lat="45.81" lon="1.90638">
        <ele>728.4</ele>
        <time>2026-07-07T09:21:23.000Z</time>
      </trkpt>
      <trkpt lat="45.81001" lon="1.90636">
        <ele>729.1</ele>
        <time>2026-07-07T09:21:24.000Z</time>
      </trkpt>
      <trkpt lat="45.81003" lon="1.90635">
        <ele>729.2</ele>
        <time>2026-07-07T09:21:25.000Z</time>
      </trkpt>
      <trkpt lat="45.81004" lon="1.90634">
        <ele>730.2</ele>
        <time>2026-07-07T09:21:26.000Z</time>
      </trkpt>
      <trkpt lat="45.81005" lon="1.90634">
        <ele>730.4</ele>
        <time>2026-07-07T09:21:27.000Z</time>
      </trkpt>
      <trkpt lat="45.81007" lon="1.90633">
        <ele>731</ele>
        <time>2026-07-07T09:21:28.000Z</time>
      </trkpt>
      <trkpt lat="45.81007" lon="1.90633">
        <ele>729.8</ele>
        <time>2026-07-07T09:21:29.000Z</time>
      </trkpt>
      <trkpt lat="45.81007" lon="1.90632">
        <ele>730</ele>
        <time>2026-07-07T09:21:30.000Z</time>
      </trkpt>
      <trkpt lat="45.81007" lon="1.90632">
        <ele>730</ele>
        <time>2026-07-07T09:21:31.000Z</time>
      </trkpt>
      <trkpt lat="45.81007" lon="1.90632">
        <ele>730</ele>
        <time>2026-07-07T09:21:32.000Z</time>
      </trkpt>
      <trkpt lat="45.81007" lon="1.90632">
        <ele>730</ele>
        <time>2026-07-07T09:21:33.000Z</time>
      </trkpt>
      <trkpt lat="45.81007" lon="1.90632">
        <ele>730</ele>
        <time>2026-07-07T09:21:34.000Z</time>
      </trkpt>
      <trkpt lat="45.81007" lon="1.90632">
        <ele>730</ele>
        <time>2026-07-07T09:21:35.000Z</time>
      </trkpt>
      <trkpt lat="45.81007" lon="1.90632">
        <ele>730</ele>
        <time>2026-07-07T09:21:36.000Z</time>
      </trkpt>
      <trkpt lat="45.81007" lon="1.90632">
        <ele>730</ele>
        <time>2026-07-07T09:21:37.000Z</time>
      </trkpt>
      <trkpt lat="45.81007" lon="1.90633">
        <ele>729.3</ele>
        <time>2026-07-07T09:21:38.000Z</time>
      </trkpt>
      <trkpt lat="45.81007" lon="1.90633">
        <ele>729.3</ele>
        <time>2026-07-07T09:21:39.000Z</time>
      </trkpt>
      <trkpt lat="45.81007" lon="1.90633">
        <ele>729.3</ele>
        <time>2026-07-07T09:21:40.000Z</time>
      </trkpt>
      <trkpt lat="45.81007" lon="1.90633">
        <ele>729.3</ele>
        <time>2026-07-07T09:21:41.000Z</time>
      </trkpt>
      <trkpt lat="45.81007" lon="1.90633">
        <ele>729.3</ele>
        <time>2026-07-07T09:21:42.000Z</time>
      </trkpt>
      <trkpt lat="45.81007" lon="1.90632">
        <ele>729.8</ele>
        <time>2026-07-07T09:21:43.000Z</time>
      </trkpt>
      <trkpt lat="45.81008" lon="1.90632">
        <ele>729.5</ele>
        <time>2026-07-07T09:21:44.000Z</time>
      </trkpt>
      <trkpt lat="45.81009" lon="1.90632">
        <ele>729.4</ele>
        <time>2026-07-07T09:21:45.000Z</time>
      </trkpt>
      <trkpt lat="45.8101" lon="1.90632">
        <ele>729.3</ele>
        <time>2026-07-07T09:21:46.000Z</time>
      </trkpt>
      <trkpt lat="45.81012" lon="1.90631">
        <ele>729.4</ele>
        <time>2026-07-07T09:21:47.000Z</time>
      </trkpt>
      <trkpt lat="45.81013" lon="1.90631">
        <ele>729.6</ele>
        <time>2026-07-07T09:21:48.000Z</time>
      </trkpt>
      <trkpt lat="45.81014" lon="1.90631">
        <ele>729.7</ele>
        <time>2026-07-07T09:21:49.000Z</time>
      </trkpt>
      <trkpt lat="45.81015" lon="1.90631">
        <ele>729.6</ele>
        <time>2026-07-07T09:21:50.000Z</time>
      </trkpt>
      <trkpt lat="45.81017" lon="1.9063">
        <ele>729.3</ele>
        <time>2026-07-07T09:21:51.000Z</time>
      </trkpt>
      <trkpt lat="45.81019" lon="1.90629">
        <ele>728.8</ele>
        <time>2026-07-07T09:21:52.000Z</time>
      </trkpt>
      <trkpt lat="45.8102" lon="1.90628">
        <ele>728.6</ele>
        <time>2026-07-07T09:21:53.000Z</time>
      </trkpt>
      <trkpt lat="45.81022" lon="1.90627">
        <ele>728.7</ele>
        <time>2026-07-07T09:21:54.000Z</time>
      </trkpt>
      <trkpt lat="45.81023" lon="1.90626">
        <ele>728.4</ele>
        <time>2026-07-07T09:21:55.000Z</time>
      </trkpt>
      <trkpt lat="45.81024" lon="1.90625">
        <ele>727.9</ele>
        <time>2026-07-07T09:21:56.000Z</time>
      </trkpt>
      <trkpt lat="45.81025" lon="1.90624">
        <ele>727.6</ele>
        <time>2026-07-07T09:21:57.000Z</time>
      </trkpt>
      <trkpt lat="45.81026" lon="1.90622">
        <ele>727.5</ele>
        <time>2026-07-07T09:21:58.000Z</time>
      </trkpt>
      <trkpt lat="45.81027" lon="1.90621">
        <ele>727.1</ele>
        <time>2026-07-07T09:21:59.000Z</time>
      </trkpt>
      <trkpt lat="45.81029" lon="1.90619">
        <ele>726.9</ele>
        <time>2026-07-07T09:22:00.000Z</time>
      </trkpt>
      <trkpt lat="45.8103" lon="1.90617">
        <ele>726.7</ele>
        <time>2026-07-07T09:22:01.000Z</time>
      </trkpt>
      <trkpt lat="45.8103" lon="1.90616">
        <ele>726.5</ele>
        <time>2026-07-07T09:22:02.000Z</time>
      </trkpt>
      <trkpt lat="45.81031" lon="1.90614">
        <ele>726</ele>
        <time>2026-07-07T09:22:03.000Z</time>
      </trkpt>
      <trkpt lat="45.81032" lon="1.90613">
        <ele>725.4</ele>
        <time>2026-07-07T09:22:04.000Z</time>
      </trkpt>
      <trkpt lat="45.81033" lon="1.90612">
        <ele>724.7</ele>
        <time>2026-07-07T09:22:05.000Z</time>
      </trkpt>
      <trkpt lat="45.81034" lon="1.90611">
        <ele>724.6</ele>
        <time>2026-07-07T09:22:06.000Z</time>
      </trkpt>
      <trkpt lat="45.81036" lon="1.90611">
        <ele>724.4</ele>
        <time>2026-07-07T09:22:07.000Z</time>
      </trkpt>
      <trkpt lat="45.81037" lon="1.9061">
        <ele>723.9</ele>
        <time>2026-07-07T09:22:08.000Z</time>
      </trkpt>
      <trkpt lat="45.81039" lon="1.9061">
        <ele>723.7</ele>
        <time>2026-07-07T09:22:09.000Z</time>
      </trkpt>
      <trkpt lat="45.8104" lon="1.90609">
        <ele>723.3</ele>
        <time>2026-07-07T09:22:10.000Z</time>
      </trkpt>
      <trkpt lat="45.81042" lon="1.90608">
        <ele>723.1</ele>
        <time>2026-07-07T09:22:11.000Z</time>
      </trkpt>
      <trkpt lat="45.81043" lon="1.90607">
        <ele>722.9</ele>
        <time>2026-07-07T09:22:12.000Z</time>
      </trkpt>
      <trkpt lat="45.81045" lon="1.90606">
        <ele>722.3</ele>
        <time>2026-07-07T09:22:13.000Z</time>
      </trkpt>
      <trkpt lat="45.81046" lon="1.90605">
        <ele>722.5</ele>
        <time>2026-07-07T09:22:14.000Z</time>
      </trkpt>
      <trkpt lat="45.81047" lon="1.90604">
        <ele>722.5</ele>
        <time>2026-07-07T09:22:15.000Z</time>
      </trkpt>
      <trkpt lat="45.81048" lon="1.90602">
        <ele>721.9</ele>
        <time>2026-07-07T09:22:16.000Z</time>
      </trkpt>
      <trkpt lat="45.8105" lon="1.90601">
        <ele>721.6</ele>
        <time>2026-07-07T09:22:17.000Z</time>
      </trkpt>
      <trkpt lat="45.81051" lon="1.906">
        <ele>721.2</ele>
        <time>2026-07-07T09:22:18.000Z</time>
      </trkpt>
      <trkpt lat="45.81052" lon="1.90599">
        <ele>720.8</ele>
        <time>2026-07-07T09:22:19.000Z</time>
      </trkpt>
      <trkpt lat="45.81053" lon="1.90598">
        <ele>720</ele>
        <time>2026-07-07T09:22:20.000Z</time>
      </trkpt>
      <trkpt lat="45.81055" lon="1.90598">
        <ele>719.3</ele>
        <time>2026-07-07T09:22:21.000Z</time>
      </trkpt>
      <trkpt lat="45.81057" lon="1.90597">
        <ele>718.7</ele>
        <time>2026-07-07T09:22:22.000Z</time>
      </trkpt>
      <trkpt lat="45.81058" lon="1.90596">
        <ele>718.3</ele>
        <time>2026-07-07T09:22:23.000Z</time>
      </trkpt>
      <trkpt lat="45.8106" lon="1.90596">
        <ele>718</ele>
        <time>2026-07-07T09:22:24.000Z</time>
      </trkpt>
      <trkpt lat="45.81062" lon="1.90595">
        <ele>717.8</ele>
        <time>2026-07-07T09:22:25.000Z</time>
      </trkpt>
      <trkpt lat="45.81062" lon="1.90593">
        <ele>717.8</ele>
        <time>2026-07-07T09:22:26.000Z</time>
      </trkpt>
      <trkpt lat="45.81064" lon="1.90592">
        <ele>717.7</ele>
        <time>2026-07-07T09:22:27.000Z</time>
      </trkpt>
      <trkpt lat="45.81065" lon="1.9059">
        <ele>717.5</ele>
        <time>2026-07-07T09:22:28.000Z</time>
      </trkpt>
      <trkpt lat="45.81066" lon="1.90589">
        <ele>717.3</ele>
        <time>2026-07-07T09:22:29.000Z</time>
      </trkpt>
      <trkpt lat="45.81067" lon="1.90588">
        <ele>716.8</ele>
        <time>2026-07-07T09:22:30.000Z</time>
      </trkpt>
      <trkpt lat="45.81067" lon="1.90586">
        <ele>717.1</ele>
        <time>2026-07-07T09:22:31.000Z</time>
      </trkpt>
      <trkpt lat="45.81068" lon="1.90584">
        <ele>717.4</ele>
        <time>2026-07-07T09:22:32.000Z</time>
      </trkpt>
      <trkpt lat="45.81068" lon="1.90582">
        <ele>716.6</ele>
        <time>2026-07-07T09:22:33.000Z</time>
      </trkpt>
      <trkpt lat="45.81068" lon="1.9058">
        <ele>716.5</ele>
        <time>2026-07-07T09:22:34.000Z</time>
      </trkpt>
      <trkpt lat="45.81068" lon="1.90579">
        <ele>716.5</ele>
        <time>2026-07-07T09:22:35.000Z</time>
      </trkpt>
      <trkpt lat="45.81067" lon="1.90577">
        <ele>716.3</ele>
        <time>2026-07-07T09:22:36.000Z</time>
      </trkpt>
      <trkpt lat="45.81066" lon="1.90575">
        <ele>716.7</ele>
        <time>2026-07-07T09:22:37.000Z</time>
      </trkpt>
      <trkpt lat="45.81066" lon="1.90573">
        <ele>716.5</ele>
        <time>2026-07-07T09:22:38.000Z</time>
      </trkpt>
      <trkpt lat="45.81066" lon="1.90571">
        <ele>715.8</ele>
        <time>2026-07-07T09:22:39.000Z</time>
      </trkpt>
      <trkpt lat="45.81066" lon="1.90569">
        <ele>714.7</ele>
        <time>2026-07-07T09:22:40.000Z</time>
      </trkpt>
      <trkpt lat="45.81067" lon="1.90567">
        <ele>713.8</ele>
        <time>2026-07-07T09:22:41.000Z</time>
      </trkpt>
      <trkpt lat="45.81067" lon="1.90565">
        <ele>712.9</ele>
        <time>2026-07-07T09:22:42.000Z</time>
      </trkpt>
      <trkpt lat="45.81067" lon="1.90562">
        <ele>713.1</ele>
        <time>2026-07-07T09:22:43.000Z</time>
      </trkpt>
      <trkpt lat="45.81067" lon="1.90561">
        <ele>712.7</ele>
        <time>2026-07-07T09:22:44.000Z</time>
      </trkpt>
      <trkpt lat="45.81067" lon="1.90559">
        <ele>712.5</ele>
        <time>2026-07-07T09:22:45.000Z</time>
      </trkpt>
      <trkpt lat="45.81067" lon="1.90557">
        <ele>712.8</ele>
        <time>2026-07-07T09:22:46.000Z</time>
      </trkpt>
      <trkpt lat="45.81067" lon="1.90555">
        <ele>712.1</ele>
        <time>2026-07-07T09:22:47.000Z</time>
      </trkpt>
      <trkpt lat="45.81067" lon="1.90553">
        <ele>711.8</ele>
        <time>2026-07-07T09:22:48.000Z</time>
      </trkpt>
      <trkpt lat="45.81067" lon="1.90551">
        <ele>710.8</ele>
        <time>2026-07-07T09:22:49.000Z</time>
      </trkpt>
      <trkpt lat="45.81067" lon="1.90549">
        <ele>710.8</ele>
        <time>2026-07-07T09:22:50.000Z</time>
      </trkpt>
      <trkpt lat="45.81067" lon="1.90548">
        <ele>709.2</ele>
        <time>2026-07-07T09:22:51.000Z</time>
      </trkpt>
      <trkpt lat="45.81066" lon="1.90551">
        <ele>705.7</ele>
        <time>2026-07-07T09:22:52.000Z</time>
      </trkpt>
      <trkpt lat="45.81066" lon="1.90553">
        <ele>705.9</ele>
        <time>2026-07-07T09:22:53.000Z</time>
      </trkpt>
      <trkpt lat="45.81066" lon="1.90553">
        <ele>705.4</ele>
        <time>2026-07-07T09:22:54.000Z</time>
      </trkpt>
      <trkpt lat="45.81066" lon="1.90553">
        <ele>704.7</ele>
        <time>2026-07-07T09:22:55.000Z</time>
      </trkpt>
      <trkpt lat="45.81066" lon="1.90554">
        <ele>705.8</ele>
        <time>2026-07-07T09:22:56.000Z</time>
      </trkpt>
      <trkpt lat="45.81067" lon="1.90554">
        <ele>706.9</ele>
        <time>2026-07-07T09:22:57.000Z</time>
      </trkpt>
      <trkpt lat="45.81066" lon="1.90553">
        <ele>707.4</ele>
        <time>2026-07-07T09:22:58.000Z</time>
      </trkpt>
      <trkpt lat="45.81064" lon="1.90551">
        <ele>707.4</ele>
        <time>2026-07-07T09:22:59.000Z</time>
      </trkpt>
      <trkpt lat="45.81064" lon="1.9055">
        <ele>707.1</ele>
        <time>2026-07-07T09:23:00.000Z</time>
      </trkpt>
      <trkpt lat="45.81064" lon="1.9055">
        <ele>706.7</ele>
        <time>2026-07-07T09:23:01.000Z</time>
      </trkpt>
      <trkpt lat="45.81063" lon="1.90548">
        <ele>706.5</ele>
        <time>2026-07-07T09:23:02.000Z</time>
      </trkpt>
      <trkpt lat="45.81063" lon="1.90547">
        <ele>707.1</ele>
        <time>2026-07-07T09:23:03.000Z</time>
      </trkpt>
      <trkpt lat="45.81062" lon="1.90545">
        <ele>707</ele>
        <time>2026-07-07T09:23:04.000Z</time>
      </trkpt>
      <trkpt lat="45.81062" lon="1.90544">
        <ele>706.4</ele>
        <time>2026-07-07T09:23:05.000Z</time>
      </trkpt>
      <trkpt lat="45.81061" lon="1.90543">
        <ele>706.4</ele>
        <time>2026-07-07T09:23:06.000Z</time>
      </trkpt>
      <trkpt lat="45.81061" lon="1.90542">
        <ele>706</ele>
        <time>2026-07-07T09:23:07.000Z</time>
      </trkpt>
      <trkpt lat="45.81061" lon="1.9054">
        <ele>706.1</ele>
        <time>2026-07-07T09:23:08.000Z</time>
      </trkpt>
      <trkpt lat="45.8106" lon="1.9054">
        <ele>706</ele>
        <time>2026-07-07T09:23:09.000Z</time>
      </trkpt>
      <trkpt lat="45.8106" lon="1.90539">
        <ele>706</ele>
        <time>2026-07-07T09:23:10.000Z</time>
      </trkpt>
      <trkpt lat="45.8106" lon="1.90539">
        <ele>706</ele>
        <time>2026-07-07T09:23:11.000Z</time>
      </trkpt>
      <trkpt lat="45.8106" lon="1.90539">
        <ele>706</ele>
        <time>2026-07-07T09:23:12.000Z</time>
      </trkpt>
      <trkpt lat="45.8106" lon="1.90539">
        <ele>706.3</ele>
        <time>2026-07-07T09:23:13.000Z</time>
      </trkpt>
      <trkpt lat="45.8106" lon="1.90538">
        <ele>706.2</ele>
        <time>2026-07-07T09:23:14.000Z</time>
      </trkpt>
      <trkpt lat="45.8106" lon="1.90537">
        <ele>706.2</ele>
        <time>2026-07-07T09:23:15.000Z</time>
      </trkpt>
      <trkpt lat="45.81059" lon="1.90535">
        <ele>705.9</ele>
        <time>2026-07-07T09:23:16.000Z</time>
      </trkpt>
      <trkpt lat="45.81058" lon="1.90535">
        <ele>706.1</ele>
        <time>2026-07-07T09:23:17.000Z</time>
      </trkpt>
      <trkpt lat="45.81058" lon="1.90536">
        <ele>706.8</ele>
        <time>2026-07-07T09:23:18.000Z</time>
      </trkpt>
      <trkpt lat="45.81058" lon="1.90535">
        <ele>708</ele>
        <time>2026-07-07T09:23:19.000Z</time>
      </trkpt>
      <trkpt lat="45.81057" lon="1.90534">
        <ele>708.4</ele>
        <time>2026-07-07T09:23:20.000Z</time>
      </trkpt>
      <trkpt lat="45.81057" lon="1.90535">
        <ele>708.4</ele>
        <time>2026-07-07T09:23:21.000Z</time>
      </trkpt>
      <trkpt lat="45.81056" lon="1.90533">
        <ele>708.8</ele>
        <time>2026-07-07T09:23:22.000Z</time>
      </trkpt>
      <trkpt lat="45.81056" lon="1.90532">
        <ele>708.6</ele>
        <time>2026-07-07T09:23:23.000Z</time>
      </trkpt>
      <trkpt lat="45.81056" lon="1.90533">
        <ele>708.6</ele>
        <time>2026-07-07T09:23:24.000Z</time>
      </trkpt>
      <trkpt lat="45.81054" lon="1.90534">
        <ele>708.1</ele>
        <time>2026-07-07T09:23:25.000Z</time>
      </trkpt>
      <trkpt lat="45.81054" lon="1.90534">
        <ele>708.3</ele>
        <time>2026-07-07T09:23:26.000Z</time>
      </trkpt>
      <trkpt lat="45.81054" lon="1.90534">
        <ele>708.6</ele>
        <time>2026-07-07T09:23:27.000Z</time>
      </trkpt>
      <trkpt lat="45.81053" lon="1.90533">
        <ele>708.3</ele>
        <time>2026-07-07T09:23:28.000Z</time>
      </trkpt>
      <trkpt lat="45.81053" lon="1.90533">
        <ele>708.3</ele>
        <time>2026-07-07T09:23:29.000Z</time>
      </trkpt>
      <trkpt lat="45.81053" lon="1.90533">
        <ele>708.3</ele>
        <time>2026-07-07T09:23:30.000Z</time>
      </trkpt>
      <trkpt lat="45.81053" lon="1.90533">
        <ele>708.1</ele>
        <time>2026-07-07T09:23:31.000Z</time>
      </trkpt>
      <trkpt lat="45.81053" lon="1.90533">
        <ele>708.1</ele>
        <time>2026-07-07T09:23:32.000Z</time>
      </trkpt>
      <trkpt lat="45.81053" lon="1.90533">
        <ele>708.1</ele>
        <time>2026-07-07T09:23:33.000Z</time>
      </trkpt>
      <trkpt lat="45.81053" lon="1.90533">
        <ele>708.1</ele>
        <time>2026-07-07T09:23:34.000Z</time>
      </trkpt>
      <trkpt lat="45.81053" lon="1.90533">
        <ele>708.1</ele>
        <time>2026-07-07T09:23:35.000Z</time>
      </trkpt>
      <trkpt lat="45.81053" lon="1.90533">
        <ele>708.1</ele>
        <time>2026-07-07T09:23:36.000Z</time>
      </trkpt>
      <trkpt lat="45.81053" lon="1.90533">
        <ele>708.1</ele>
        <time>2026-07-07T09:23:37.000Z</time>
      </trkpt>
      <trkpt lat="45.81053" lon="1.90533">
        <ele>708.1</ele>
        <time>2026-07-07T09:23:38.000Z</time>
      </trkpt>
      <trkpt lat="45.81053" lon="1.90533">
        <ele>708.1</ele>
        <time>2026-07-07T09:23:39.000Z</time>
      </trkpt>
      <trkpt lat="45.81053" lon="1.90533">
        <ele>708.1</ele>
        <time>2026-07-07T09:23:40.000Z</time>
      </trkpt>
      <trkpt lat="45.81053" lon="1.90533">
        <ele>708.1</ele>
        <time>2026-07-07T09:23:41.000Z</time>
      </trkpt>
      <trkpt lat="45.81054" lon="1.90533">
        <ele>708.2</ele>
        <time>2026-07-07T09:23:42.000Z</time>
      </trkpt>
      <trkpt lat="45.81054" lon="1.90533">
        <ele>708.2</ele>
        <time>2026-07-07T09:23:43.000Z</time>
      </trkpt>
      <trkpt lat="45.81054" lon="1.90533">
        <ele>708.2</ele>
        <time>2026-07-07T09:23:44.000Z</time>
      </trkpt>
      <trkpt lat="45.81054" lon="1.90534">
        <ele>708.5</ele>
        <time>2026-07-07T09:23:45.000Z</time>
      </trkpt>
      <trkpt lat="45.81055" lon="1.90535">
        <ele>708.4</ele>
        <time>2026-07-07T09:23:46.000Z</time>
      </trkpt>
      <trkpt lat="45.81055" lon="1.90535">
        <ele>708.5</ele>
        <time>2026-07-07T09:23:47.000Z</time>
      </trkpt>
      <trkpt lat="45.81056" lon="1.90535">
        <ele>708.5</ele>
        <time>2026-07-07T09:23:48.000Z</time>
      </trkpt>
      <trkpt lat="45.81056" lon="1.90535">
        <ele>708.5</ele>
        <time>2026-07-07T09:23:49.000Z</time>
      </trkpt>
      <trkpt lat="45.81056" lon="1.90535">
        <ele>708.5</ele>
        <time>2026-07-07T09:23:50.000Z</time>
      </trkpt>
      <trkpt lat="45.81056" lon="1.90535">
        <ele>708.5</ele>
        <time>2026-07-07T09:23:51.000Z</time>
      </trkpt>
      <trkpt lat="45.81056" lon="1.90537">
        <ele>707.8</ele>
        <time>2026-07-07T09:23:52.000Z</time>
      </trkpt>
      <trkpt lat="45.81055" lon="1.90539">
        <ele>706.7</ele>
        <time>2026-07-07T09:23:53.000Z</time>
      </trkpt>
      <trkpt lat="45.81055" lon="1.90539">
        <ele>705.7</ele>
        <time>2026-07-07T09:23:54.000Z</time>
      </trkpt>
      <trkpt lat="45.81055" lon="1.90539">
        <ele>704.8</ele>
        <time>2026-07-07T09:23:55.000Z</time>
      </trkpt>
      <trkpt lat="45.81054" lon="1.90537">
        <ele>705</ele>
        <time>2026-07-07T09:23:56.000Z</time>
      </trkpt>
      <trkpt lat="45.81053" lon="1.90534">
        <ele>705.4</ele>
        <time>2026-07-07T09:23:57.000Z</time>
      </trkpt>
      <trkpt lat="45.81052" lon="1.90532">
        <ele>706.2</ele>
        <time>2026-07-07T09:23:58.000Z</time>
      </trkpt>
      <trkpt lat="45.81052" lon="1.9053">
        <ele>706.9</ele>
        <time>2026-07-07T09:23:59.000Z</time>
      </trkpt>
      <trkpt lat="45.8105" lon="1.90527">
        <ele>707.7</ele>
        <time>2026-07-07T09:24:00.000Z</time>
      </trkpt>
      <trkpt lat="45.81049" lon="1.90526">
        <ele>707.8</ele>
        <time>2026-07-07T09:24:01.000Z</time>
      </trkpt>
      <trkpt lat="45.81048" lon="1.90524">
        <ele>708.3</ele>
        <time>2026-07-07T09:24:02.000Z</time>
      </trkpt>
      <trkpt lat="45.81046" lon="1.90523">
        <ele>708.3</ele>
        <time>2026-07-07T09:24:03.000Z</time>
      </trkpt>
      <trkpt lat="45.81045" lon="1.90521">
        <ele>708.3</ele>
        <time>2026-07-07T09:24:04.000Z</time>
      </trkpt>
      <trkpt lat="45.81044" lon="1.9052">
        <ele>708.6</ele>
        <time>2026-07-07T09:24:05.000Z</time>
      </trkpt>
      <trkpt lat="45.81042" lon="1.90519">
        <ele>709.2</ele>
        <time>2026-07-07T09:24:06.000Z</time>
      </trkpt>
      <trkpt lat="45.81041" lon="1.90518">
        <ele>709.7</ele>
        <time>2026-07-07T09:24:07.000Z</time>
      </trkpt>
      <trkpt lat="45.8104" lon="1.90516">
        <ele>710.2</ele>
        <time>2026-07-07T09:24:08.000Z</time>
      </trkpt>
      <trkpt lat="45.81039" lon="1.90515">
        <ele>710</ele>
        <time>2026-07-07T09:24:09.000Z</time>
      </trkpt>
      <trkpt lat="45.81038" lon="1.90513">
        <ele>710.3</ele>
        <time>2026-07-07T09:24:10.000Z</time>
      </trkpt>
      <trkpt lat="45.81037" lon="1.90511">
        <ele>710.3</ele>
        <time>2026-07-07T09:24:11.000Z</time>
      </trkpt>
      <trkpt lat="45.81036" lon="1.9051">
        <ele>710.1</ele>
        <time>2026-07-07T09:24:12.000Z</time>
      </trkpt>
      <trkpt lat="45.81035" lon="1.90509">
        <ele>710.2</ele>
        <time>2026-07-07T09:24:13.000Z</time>
      </trkpt>
      <trkpt lat="45.81033" lon="1.90509">
        <ele>710.4</ele>
        <time>2026-07-07T09:24:14.000Z</time>
      </trkpt>
      <trkpt lat="45.81032" lon="1.90508">
        <ele>710.2</ele>
        <time>2026-07-07T09:24:15.000Z</time>
      </trkpt>
      <trkpt lat="45.81031" lon="1.90507">
        <ele>710.7</ele>
        <time>2026-07-07T09:24:16.000Z</time>
      </trkpt>
      <trkpt lat="45.8103" lon="1.90506">
        <ele>710.6</ele>
        <time>2026-07-07T09:24:17.000Z</time>
      </trkpt>
      <trkpt lat="45.81029" lon="1.90505">
        <ele>710.6</ele>
        <time>2026-07-07T09:24:18.000Z</time>
      </trkpt>
      <trkpt lat="45.81029" lon="1.90504">
        <ele>711.1</ele>
        <time>2026-07-07T09:24:19.000Z</time>
      </trkpt>
      <trkpt lat="45.81028" lon="1.90503">
        <ele>711</ele>
        <time>2026-07-07T09:24:20.000Z</time>
      </trkpt>
      <trkpt lat="45.81026" lon="1.90503">
        <ele>711.1</ele>
        <time>2026-07-07T09:24:21.000Z</time>
      </trkpt>
      <trkpt lat="45.81026" lon="1.90502">
        <ele>711.2</ele>
        <time>2026-07-07T09:24:22.000Z</time>
      </trkpt>
      <trkpt lat="45.81025" lon="1.90502">
        <ele>711.2</ele>
        <time>2026-07-07T09:24:23.000Z</time>
      </trkpt>
      <trkpt lat="45.81025" lon="1.90501">
        <ele>711.3</ele>
        <time>2026-07-07T09:24:24.000Z</time>
      </trkpt>
      <trkpt lat="45.81024" lon="1.90501">
        <ele>711.7</ele>
        <time>2026-07-07T09:24:25.000Z</time>
      </trkpt>
      <trkpt lat="45.81024" lon="1.90501">
        <ele>711.9</ele>
        <time>2026-07-07T09:24:26.000Z</time>
      </trkpt>
      <trkpt lat="45.81024" lon="1.905">
        <ele>711.8</ele>
        <time>2026-07-07T09:24:27.000Z</time>
      </trkpt>
      <trkpt lat="45.81023" lon="1.90499">
        <ele>711.9</ele>
        <time>2026-07-07T09:24:28.000Z</time>
      </trkpt>
      <trkpt lat="45.81022" lon="1.90498">
        <ele>711.8</ele>
        <time>2026-07-07T09:24:29.000Z</time>
      </trkpt>
      <trkpt lat="45.81022" lon="1.90498">
        <ele>711.7</ele>
        <time>2026-07-07T09:24:30.000Z</time>
      </trkpt>
      <trkpt lat="45.81022" lon="1.90498">
        <ele>711.8</ele>
        <time>2026-07-07T09:24:31.000Z</time>
      </trkpt>
      <trkpt lat="45.81022" lon="1.90497">
        <ele>711.5</ele>
        <time>2026-07-07T09:24:32.000Z</time>
      </trkpt>
      <trkpt lat="45.81021" lon="1.90497">
        <ele>711.8</ele>
        <time>2026-07-07T09:24:33.000Z</time>
      </trkpt>
      <trkpt lat="45.81021" lon="1.90496">
        <ele>711.9</ele>
        <time>2026-07-07T09:24:34.000Z</time>
      </trkpt>
      <trkpt lat="45.8102" lon="1.90496">
        <ele>712</ele>
        <time>2026-07-07T09:24:35.000Z</time>
      </trkpt>
      <trkpt lat="45.81019" lon="1.90496">
        <ele>712.2</ele>
        <time>2026-07-07T09:24:36.000Z</time>
      </trkpt>
      <trkpt lat="45.81018" lon="1.90496">
        <ele>711.9</ele>
        <time>2026-07-07T09:24:37.000Z</time>
      </trkpt>
      <trkpt lat="45.81017" lon="1.90495">
        <ele>712</ele>
        <time>2026-07-07T09:24:38.000Z</time>
      </trkpt>
      <trkpt lat="45.81016" lon="1.90496">
        <ele>712.2</ele>
        <time>2026-07-07T09:24:39.000Z</time>
      </trkpt>
      <trkpt lat="45.81015" lon="1.90496">
        <ele>712.1</ele>
        <time>2026-07-07T09:24:40.000Z</time>
      </trkpt>
      <trkpt lat="45.81015" lon="1.90495">
        <ele>711.8</ele>
        <time>2026-07-07T09:24:41.000Z</time>
      </trkpt>
      <trkpt lat="45.81014" lon="1.90495">
        <ele>712</ele>
        <time>2026-07-07T09:24:42.000Z</time>
      </trkpt>
      <trkpt lat="45.81013" lon="1.90494">
        <ele>711.9</ele>
        <time>2026-07-07T09:24:43.000Z</time>
      </trkpt>
      <trkpt lat="45.81012" lon="1.90494">
        <ele>711.7</ele>
        <time>2026-07-07T09:24:44.000Z</time>
      </trkpt>
      <trkpt lat="45.81011" lon="1.90494">
        <ele>711.9</ele>
        <time>2026-07-07T09:24:45.000Z</time>
      </trkpt>
      <trkpt lat="45.8101" lon="1.90494">
        <ele>712.2</ele>
        <time>2026-07-07T09:24:46.000Z</time>
      </trkpt>
      <trkpt lat="45.81009" lon="1.90495">
        <ele>711.5</ele>
        <time>2026-07-07T09:24:47.000Z</time>
      </trkpt>
      <trkpt lat="45.81008" lon="1.90497">
        <ele>711</ele>
        <time>2026-07-07T09:24:48.000Z</time>
      </trkpt>
      <trkpt lat="45.81007" lon="1.90497">
        <ele>710.6</ele>
        <time>2026-07-07T09:24:49.000Z</time>
      </trkpt>
      <trkpt lat="45.81006" lon="1.90497">
        <ele>710.3</ele>
        <time>2026-07-07T09:24:50.000Z</time>
      </trkpt>
      <trkpt lat="45.81006" lon="1.90498">
        <ele>710.1</ele>
        <time>2026-07-07T09:24:51.000Z</time>
      </trkpt>
      <trkpt lat="45.81006" lon="1.90497">
        <ele>710.2</ele>
        <time>2026-07-07T09:24:52.000Z</time>
      </trkpt>
      <trkpt lat="45.81007" lon="1.90497">
        <ele>710.3</ele>
        <time>2026-07-07T09:24:53.000Z</time>
      </trkpt>
      <trkpt lat="45.81007" lon="1.90497">
        <ele>709.9</ele>
        <time>2026-07-07T09:24:54.000Z</time>
      </trkpt>
      <trkpt lat="45.81007" lon="1.90497">
        <ele>710.2</ele>
        <time>2026-07-07T09:24:55.000Z</time>
      </trkpt>
      <trkpt lat="45.81007" lon="1.90496">
        <ele>710.2</ele>
        <time>2026-07-07T09:24:56.000Z</time>
      </trkpt>
      <trkpt lat="45.81007" lon="1.90496">
        <ele>709.6</ele>
        <time>2026-07-07T09:24:57.000Z</time>
      </trkpt>
      <trkpt lat="45.81007" lon="1.90497">
        <ele>710.2</ele>
        <time>2026-07-07T09:24:58.000Z</time>
      </trkpt>
      <trkpt lat="45.81007" lon="1.90497">
        <ele>710.2</ele>
        <time>2026-07-07T09:24:59.000Z</time>
      </trkpt>
      <trkpt lat="45.81007" lon="1.90497">
        <ele>710.3</ele>
        <time>2026-07-07T09:25:00.000Z</time>
      </trkpt>
      <trkpt lat="45.81007" lon="1.90497">
        <ele>710.5</ele>
        <time>2026-07-07T09:25:01.000Z</time>
      </trkpt>
      <trkpt lat="45.81007" lon="1.90496">
        <ele>710.2</ele>
        <time>2026-07-07T09:25:02.000Z</time>
      </trkpt>
      <trkpt lat="45.81007" lon="1.90494">
        <ele>709.5</ele>
        <time>2026-07-07T09:25:03.000Z</time>
      </trkpt>
      <trkpt lat="45.81006" lon="1.90493">
        <ele>709.4</ele>
        <time>2026-07-07T09:25:04.000Z</time>
      </trkpt>
      <trkpt lat="45.81006" lon="1.90493">
        <ele>709.3</ele>
        <time>2026-07-07T09:25:05.000Z</time>
      </trkpt>
      <trkpt lat="45.81005" lon="1.90494">
        <ele>709.8</ele>
        <time>2026-07-07T09:25:06.000Z</time>
      </trkpt>
      <trkpt lat="45.81004" lon="1.90495">
        <ele>709.4</ele>
        <time>2026-07-07T09:25:07.000Z</time>
      </trkpt>
      <trkpt lat="45.81004" lon="1.90496">
        <ele>709.1</ele>
        <time>2026-07-07T09:25:08.000Z</time>
      </trkpt>
      <trkpt lat="45.81004" lon="1.90497">
        <ele>709.1</ele>
        <time>2026-07-07T09:25:09.000Z</time>
      </trkpt>
      <trkpt lat="45.81003" lon="1.90495">
        <ele>710.4</ele>
        <time>2026-07-07T09:25:10.000Z</time>
      </trkpt>
      <trkpt lat="45.81003" lon="1.90495">
        <ele>710.5</ele>
        <time>2026-07-07T09:25:11.000Z</time>
      </trkpt>
      <trkpt lat="45.81003" lon="1.90496">
        <ele>710.8</ele>
        <time>2026-07-07T09:25:12.000Z</time>
      </trkpt>
      <trkpt lat="45.81004" lon="1.90497">
        <ele>711.4</ele>
        <time>2026-07-07T09:25:13.000Z</time>
      </trkpt>
      <trkpt lat="45.81003" lon="1.90498">
        <ele>711.8</ele>
        <time>2026-07-07T09:25:14.000Z</time>
      </trkpt>
      <trkpt lat="45.81002" lon="1.90498">
        <ele>711.9</ele>
        <time>2026-07-07T09:25:15.000Z</time>
      </trkpt>
      <trkpt lat="45.81001" lon="1.90498">
        <ele>712.3</ele>
        <time>2026-07-07T09:25:16.000Z</time>
      </trkpt>
      <trkpt lat="45.81" lon="1.90496">
        <ele>712.2</ele>
        <time>2026-07-07T09:25:17.000Z</time>
      </trkpt>
      <trkpt lat="45.80999" lon="1.90494">
        <ele>712.3</ele>
        <time>2026-07-07T09:25:18.000Z</time>
      </trkpt>
      <trkpt lat="45.80999" lon="1.90493">
        <ele>712.2</ele>
        <time>2026-07-07T09:25:19.000Z</time>
      </trkpt>
      <trkpt lat="45.80998" lon="1.90491">
        <ele>711.6</ele>
        <time>2026-07-07T09:25:20.000Z</time>
      </trkpt>
      <trkpt lat="45.80998" lon="1.90488">
        <ele>711.8</ele>
        <time>2026-07-07T09:25:21.000Z</time>
      </trkpt>
      <trkpt lat="45.80998" lon="1.90486">
        <ele>711.7</ele>
        <time>2026-07-07T09:25:22.000Z</time>
      </trkpt>
      <trkpt lat="45.80998" lon="1.90484">
        <ele>711</ele>
        <time>2026-07-07T09:25:23.000Z</time>
      </trkpt>
      <trkpt lat="45.80999" lon="1.90482">
        <ele>710.8</ele>
        <time>2026-07-07T09:25:24.000Z</time>
      </trkpt>
      <trkpt lat="45.80999" lon="1.9048">
        <ele>710.2</ele>
        <time>2026-07-07T09:25:25.000Z</time>
      </trkpt>
      <trkpt lat="45.80999" lon="1.90478">
        <ele>710.2</ele>
        <time>2026-07-07T09:25:26.000Z</time>
      </trkpt>
      <trkpt lat="45.80999" lon="1.90476">
        <ele>710.4</ele>
        <time>2026-07-07T09:25:27.000Z</time>
      </trkpt>
      <trkpt lat="45.81" lon="1.90473">
        <ele>709.9</ele>
        <time>2026-07-07T09:25:28.000Z</time>
      </trkpt>
      <trkpt lat="45.81" lon="1.90471">
        <ele>709.5</ele>
        <time>2026-07-07T09:25:29.000Z</time>
      </trkpt>
      <trkpt lat="45.81" lon="1.90469">
        <ele>709.4</ele>
        <time>2026-07-07T09:25:30.000Z</time>
      </trkpt>
      <trkpt lat="45.81001" lon="1.90466">
        <ele>709.3</ele>
        <time>2026-07-07T09:25:31.000Z</time>
      </trkpt>
      <trkpt lat="45.81001" lon="1.90464">
        <ele>709.3</ele>
        <time>2026-07-07T09:25:32.000Z</time>
      </trkpt>
      <trkpt lat="45.81001" lon="1.90462">
        <ele>709.2</ele>
        <time>2026-07-07T09:25:33.000Z</time>
      </trkpt>
      <trkpt lat="45.81001" lon="1.9046">
        <ele>709.1</ele>
        <time>2026-07-07T09:25:34.000Z</time>
      </trkpt>
      <trkpt lat="45.81001" lon="1.90457">
        <ele>709</ele>
        <time>2026-07-07T09:25:35.000Z</time>
      </trkpt>
      <trkpt lat="45.81" lon="1.90455">
        <ele>709.1</ele>
        <time>2026-07-07T09:25:36.000Z</time>
      </trkpt>
      <trkpt lat="45.81" lon="1.90453">
        <ele>708.9</ele>
        <time>2026-07-07T09:25:37.000Z</time>
      </trkpt>
      <trkpt lat="45.81" lon="1.90451">
        <ele>708.7</ele>
        <time>2026-07-07T09:25:38.000Z</time>
      </trkpt>
      <trkpt lat="45.80999" lon="1.90449">
        <ele>708.7</ele>
        <time>2026-07-07T09:25:39.000Z</time>
      </trkpt>
      <trkpt lat="45.80999" lon="1.90447">
        <ele>708.5</ele>
        <time>2026-07-07T09:25:40.000Z</time>
      </trkpt>
      <trkpt lat="45.80999" lon="1.90446">
        <ele>708.3</ele>
        <time>2026-07-07T09:25:41.000Z</time>
      </trkpt>
      <trkpt lat="45.80999" lon="1.90444">
        <ele>708.2</ele>
        <time>2026-07-07T09:25:42.000Z</time>
      </trkpt>
      <trkpt lat="45.80998" lon="1.90442">
        <ele>708.1</ele>
        <time>2026-07-07T09:25:43.000Z</time>
      </trkpt>
      <trkpt lat="45.80998" lon="1.9044">
        <ele>707.6</ele>
        <time>2026-07-07T09:25:44.000Z</time>
      </trkpt>
      <trkpt lat="45.80997" lon="1.90438">
        <ele>707.4</ele>
        <time>2026-07-07T09:25:45.000Z</time>
      </trkpt>
      <trkpt lat="45.80996" lon="1.90437">
        <ele>707.1</ele>
        <time>2026-07-07T09:25:46.000Z</time>
      </trkpt>
      <trkpt lat="45.80994" lon="1.90435">
        <ele>707.1</ele>
        <time>2026-07-07T09:25:47.000Z</time>
      </trkpt>
      <trkpt lat="45.80993" lon="1.90434">
        <ele>707</ele>
        <time>2026-07-07T09:25:48.000Z</time>
      </trkpt>
      <trkpt lat="45.80992" lon="1.90434">
        <ele>706.4</ele>
        <time>2026-07-07T09:25:49.000Z</time>
      </trkpt>
      <trkpt lat="45.80991" lon="1.90433">
        <ele>706.3</ele>
        <time>2026-07-07T09:25:50.000Z</time>
      </trkpt>
      <trkpt lat="45.8099" lon="1.90431">
        <ele>706.1</ele>
        <time>2026-07-07T09:25:51.000Z</time>
      </trkpt>
      <trkpt lat="45.80989" lon="1.9043">
        <ele>706</ele>
        <time>2026-07-07T09:25:52.000Z</time>
      </trkpt>
      <trkpt lat="45.80988" lon="1.90429">
        <ele>705.6</ele>
        <time>2026-07-07T09:25:53.000Z</time>
      </trkpt>
      <trkpt lat="45.80986" lon="1.90427">
        <ele>705.3</ele>
        <time>2026-07-07T09:25:54.000Z</time>
      </trkpt>
      <trkpt lat="45.80986" lon="1.90426">
        <ele>705.1</ele>
        <time>2026-07-07T09:25:55.000Z</time>
      </trkpt>
      <trkpt lat="45.80985" lon="1.90425">
        <ele>705.1</ele>
        <time>2026-07-07T09:25:56.000Z</time>
      </trkpt>
      <trkpt lat="45.80984" lon="1.90423">
        <ele>705.1</ele>
        <time>2026-07-07T09:25:57.000Z</time>
      </trkpt>
      <trkpt lat="45.80983" lon="1.90422">
        <ele>705</ele>
        <time>2026-07-07T09:25:58.000Z</time>
      </trkpt>
      <trkpt lat="45.80982" lon="1.9042">
        <ele>704.7</ele>
        <time>2026-07-07T09:25:59.000Z</time>
      </trkpt>
      <trkpt lat="45.80982" lon="1.90418">
        <ele>704.8</ele>
        <time>2026-07-07T09:26:00.000Z</time>
      </trkpt>
      <trkpt lat="45.80981" lon="1.90415">
        <ele>704.5</ele>
        <time>2026-07-07T09:26:01.000Z</time>
      </trkpt>
      <trkpt lat="45.80981" lon="1.90413">
        <ele>704.1</ele>
        <time>2026-07-07T09:26:02.000Z</time>
      </trkpt>
      <trkpt lat="45.8098" lon="1.90411">
        <ele>703.8</ele>
        <time>2026-07-07T09:26:03.000Z</time>
      </trkpt>
      <trkpt lat="45.8098" lon="1.90409">
        <ele>703.8</ele>
        <time>2026-07-07T09:26:04.000Z</time>
      </trkpt>
      <trkpt lat="45.8098" lon="1.90407">
        <ele>703.7</ele>
        <time>2026-07-07T09:26:05.000Z</time>
      </trkpt>
      <trkpt lat="45.8098" lon="1.90405">
        <ele>703.2</ele>
        <time>2026-07-07T09:26:06.000Z</time>
      </trkpt>
      <trkpt lat="45.8098" lon="1.90403">
        <ele>703</ele>
        <time>2026-07-07T09:26:07.000Z</time>
      </trkpt>
      <trkpt lat="45.8098" lon="1.90401">
        <ele>702.3</ele>
        <time>2026-07-07T09:26:08.000Z</time>
      </trkpt>
      <trkpt lat="45.8098" lon="1.90399">
        <ele>702</ele>
        <time>2026-07-07T09:26:09.000Z</time>
      </trkpt>
      <trkpt lat="45.80981" lon="1.90396">
        <ele>702</ele>
        <time>2026-07-07T09:26:10.000Z</time>
      </trkpt>
      <trkpt lat="45.80981" lon="1.90394">
        <ele>702.3</ele>
        <time>2026-07-07T09:26:11.000Z</time>
      </trkpt>
      <trkpt lat="45.80981" lon="1.90392">
        <ele>701.9</ele>
        <time>2026-07-07T09:26:12.000Z</time>
      </trkpt>
      <trkpt lat="45.80981" lon="1.9039">
        <ele>702.1</ele>
        <time>2026-07-07T09:26:13.000Z</time>
      </trkpt>
      <trkpt lat="45.80979" lon="1.90388">
        <ele>702.3</ele>
        <time>2026-07-07T09:26:14.000Z</time>
      </trkpt>
      <trkpt lat="45.80977" lon="1.90388">
        <ele>702.3</ele>
        <time>2026-07-07T09:26:15.000Z</time>
      </trkpt>
      <trkpt lat="45.80975" lon="1.90388">
        <ele>702.3</ele>
        <time>2026-07-07T09:26:16.000Z</time>
      </trkpt>
      <trkpt lat="45.80973" lon="1.90388">
        <ele>702.1</ele>
        <time>2026-07-07T09:26:17.000Z</time>
      </trkpt>
      <trkpt lat="45.80971" lon="1.90388">
        <ele>701.7</ele>
        <time>2026-07-07T09:26:18.000Z</time>
      </trkpt>
      <trkpt lat="45.80969" lon="1.90387">
        <ele>701.5</ele>
        <time>2026-07-07T09:26:19.000Z</time>
      </trkpt>
      <trkpt lat="45.80968" lon="1.90387">
        <ele>701.5</ele>
        <time>2026-07-07T09:26:20.000Z</time>
      </trkpt>
      <trkpt lat="45.80966" lon="1.90387">
        <ele>701.7</ele>
        <time>2026-07-07T09:26:21.000Z</time>
      </trkpt>
      <trkpt lat="45.80965" lon="1.90386">
        <ele>701.8</ele>
        <time>2026-07-07T09:26:22.000Z</time>
      </trkpt>
      <trkpt lat="45.80963" lon="1.90385">
        <ele>701.7</ele>
        <time>2026-07-07T09:26:23.000Z</time>
      </trkpt>
      <trkpt lat="45.80962" lon="1.90384">
        <ele>701.4</ele>
        <time>2026-07-07T09:26:24.000Z</time>
      </trkpt>
      <trkpt lat="45.8096" lon="1.90383">
        <ele>701.4</ele>
        <time>2026-07-07T09:26:25.000Z</time>
      </trkpt>
      <trkpt lat="45.8096" lon="1.9038">
        <ele>701.7</ele>
        <time>2026-07-07T09:26:26.000Z</time>
      </trkpt>
      <trkpt lat="45.80959" lon="1.90378">
        <ele>701.7</ele>
        <time>2026-07-07T09:26:27.000Z</time>
      </trkpt>
      <trkpt lat="45.80958" lon="1.90375">
        <ele>701.8</ele>
        <time>2026-07-07T09:26:28.000Z</time>
      </trkpt>
      <trkpt lat="45.80958" lon="1.90373">
        <ele>702</ele>
        <time>2026-07-07T09:26:29.000Z</time>
      </trkpt>
      <trkpt lat="45.80957" lon="1.9037">
        <ele>701.6</ele>
        <time>2026-07-07T09:26:30.000Z</time>
      </trkpt>
      <trkpt lat="45.80958" lon="1.90368">
        <ele>701.7</ele>
        <time>2026-07-07T09:26:31.000Z</time>
      </trkpt>
      <trkpt lat="45.80958" lon="1.90366">
        <ele>702</ele>
        <time>2026-07-07T09:26:32.000Z</time>
      </trkpt>
      <trkpt lat="45.80958" lon="1.90363">
        <ele>702.1</ele>
        <time>2026-07-07T09:26:33.000Z</time>
      </trkpt>
      <trkpt lat="45.80958" lon="1.90361">
        <ele>702.3</ele>
        <time>2026-07-07T09:26:34.000Z</time>
      </trkpt>
      <trkpt lat="45.80958" lon="1.90358">
        <ele>702.5</ele>
        <time>2026-07-07T09:26:35.000Z</time>
      </trkpt>
      <trkpt lat="45.80959" lon="1.90357">
        <ele>702.7</ele>
        <time>2026-07-07T09:26:36.000Z</time>
      </trkpt>
      <trkpt lat="45.8096" lon="1.90356">
        <ele>702.7</ele>
        <time>2026-07-07T09:26:37.000Z</time>
      </trkpt>
      <trkpt lat="45.80961" lon="1.90355">
        <ele>702.7</ele>
        <time>2026-07-07T09:26:38.000Z</time>
      </trkpt>
      <trkpt lat="45.80961" lon="1.90354">
        <ele>703.6</ele>
        <time>2026-07-07T09:26:39.000Z</time>
      </trkpt>
      <trkpt lat="45.80962" lon="1.90354">
        <ele>702.8</ele>
        <time>2026-07-07T09:26:40.000Z</time>
      </trkpt>
      <trkpt lat="45.80962" lon="1.90356">
        <ele>702.8</ele>
        <time>2026-07-07T09:26:41.000Z</time>
      </trkpt>
      <trkpt lat="45.80964" lon="1.90354">
        <ele>703.9</ele>
        <time>2026-07-07T09:26:42.000Z</time>
      </trkpt>
      <trkpt lat="45.80965" lon="1.90354">
        <ele>703</ele>
        <time>2026-07-07T09:26:43.000Z</time>
      </trkpt>
      <trkpt lat="45.80965" lon="1.90352">
        <ele>704.1</ele>
        <time>2026-07-07T09:26:44.000Z</time>
      </trkpt>
      <trkpt lat="45.80965" lon="1.9035">
        <ele>704.8</ele>
        <time>2026-07-07T09:26:45.000Z</time>
      </trkpt>
      <trkpt lat="45.80964" lon="1.90349">
        <ele>704.9</ele>
        <time>2026-07-07T09:26:46.000Z</time>
      </trkpt>
      <trkpt lat="45.80964" lon="1.90347">
        <ele>704.6</ele>
        <time>2026-07-07T09:26:47.000Z</time>
      </trkpt>
      <trkpt lat="45.80963" lon="1.90345">
        <ele>704.7</ele>
        <time>2026-07-07T09:26:48.000Z</time>
      </trkpt>
      <trkpt lat="45.80963" lon="1.90346">
        <ele>704.2</ele>
        <time>2026-07-07T09:26:49.000Z</time>
      </trkpt>
      <trkpt lat="45.80963" lon="1.90344">
        <ele>704.3</ele>
        <time>2026-07-07T09:26:50.000Z</time>
      </trkpt>
      <trkpt lat="45.80963" lon="1.90343">
        <ele>704.9</ele>
        <time>2026-07-07T09:26:51.000Z</time>
      </trkpt>
      <trkpt lat="45.80964" lon="1.90342">
        <ele>704.9</ele>
        <time>2026-07-07T09:26:52.000Z</time>
      </trkpt>
      <trkpt lat="45.80964" lon="1.90341">
        <ele>705.4</ele>
        <time>2026-07-07T09:26:53.000Z</time>
      </trkpt>
      <trkpt lat="45.80961" lon="1.90339">
        <ele>706.4</ele>
        <time>2026-07-07T09:26:54.000Z</time>
      </trkpt>
      <trkpt lat="45.80959" lon="1.90338">
        <ele>705.8</ele>
        <time>2026-07-07T09:26:55.000Z</time>
      </trkpt>
      <trkpt lat="45.80961" lon="1.9034">
        <ele>705.9</ele>
        <time>2026-07-07T09:26:56.000Z</time>
      </trkpt>
      <trkpt lat="45.80962" lon="1.90341">
        <ele>705.6</ele>
        <time>2026-07-07T09:26:57.000Z</time>
      </trkpt>
      <trkpt lat="45.80962" lon="1.90341">
        <ele>705.6</ele>
        <time>2026-07-07T09:26:58.000Z</time>
      </trkpt>
      <trkpt lat="45.80963" lon="1.90342">
        <ele>705.6</ele>
        <time>2026-07-07T09:26:59.000Z</time>
      </trkpt>
      <trkpt lat="45.80961" lon="1.90342">
        <ele>704.8</ele>
        <time>2026-07-07T09:27:00.000Z</time>
      </trkpt>
      <trkpt lat="45.8096" lon="1.90342">
        <ele>703.6</ele>
        <time>2026-07-07T09:27:01.000Z</time>
      </trkpt>
      <trkpt lat="45.80961" lon="1.90341">
        <ele>703.4</ele>
        <time>2026-07-07T09:27:02.000Z</time>
      </trkpt>
      <trkpt lat="45.80961" lon="1.9034">
        <ele>703.2</ele>
        <time>2026-07-07T09:27:03.000Z</time>
      </trkpt>
      <trkpt lat="45.80961" lon="1.9034">
        <ele>702.7</ele>
        <time>2026-07-07T09:27:04.000Z</time>
      </trkpt>
      <trkpt lat="45.80962" lon="1.9034">
        <ele>702.7</ele>
        <time>2026-07-07T09:27:05.000Z</time>
      </trkpt>
      <trkpt lat="45.80962" lon="1.9034">
        <ele>702.7</ele>
        <time>2026-07-07T09:27:06.000Z</time>
      </trkpt>
      <trkpt lat="45.80961" lon="1.9034">
        <ele>702.8</ele>
        <time>2026-07-07T09:27:07.000Z</time>
      </trkpt>
      <trkpt lat="45.8096" lon="1.90339">
        <ele>702.5</ele>
        <time>2026-07-07T09:27:08.000Z</time>
      </trkpt>
      <trkpt lat="45.8096" lon="1.90339">
        <ele>702.3</ele>
        <time>2026-07-07T09:27:09.000Z</time>
      </trkpt>
      <trkpt lat="45.8096" lon="1.90339">
        <ele>702.4</ele>
        <time>2026-07-07T09:27:10.000Z</time>
      </trkpt>
      <trkpt lat="45.80959" lon="1.90338">
        <ele>703.1</ele>
        <time>2026-07-07T09:27:11.000Z</time>
      </trkpt>
      <trkpt lat="45.80959" lon="1.90338">
        <ele>702.9</ele>
        <time>2026-07-07T09:27:12.000Z</time>
      </trkpt>
      <trkpt lat="45.80958" lon="1.90338">
        <ele>702.8</ele>
        <time>2026-07-07T09:27:13.000Z</time>
      </trkpt>
      <trkpt lat="45.80958" lon="1.9034">
        <ele>702.7</ele>
        <time>2026-07-07T09:27:14.000Z</time>
      </trkpt>
      <trkpt lat="45.80958" lon="1.9034">
        <ele>702.4</ele>
        <time>2026-07-07T09:27:15.000Z</time>
      </trkpt>
      <trkpt lat="45.80959" lon="1.9034">
        <ele>702.3</ele>
        <time>2026-07-07T09:27:16.000Z</time>
      </trkpt>
      <trkpt lat="45.80959" lon="1.90341">
        <ele>701.6</ele>
        <time>2026-07-07T09:27:17.000Z</time>
      </trkpt>
      <trkpt lat="45.80959" lon="1.90341">
        <ele>701.6</ele>
        <time>2026-07-07T09:27:18.000Z</time>
      </trkpt>
      <trkpt lat="45.80959" lon="1.90341">
        <ele>701.6</ele>
        <time>2026-07-07T09:27:19.000Z</time>
      </trkpt>
      <trkpt lat="45.80959" lon="1.90342">
        <ele>701.6</ele>
        <time>2026-07-07T09:27:20.000Z</time>
      </trkpt>
      <trkpt lat="45.80959" lon="1.90342">
        <ele>701.6</ele>
        <time>2026-07-07T09:27:21.000Z</time>
      </trkpt>
      <trkpt lat="45.8096" lon="1.90344">
        <ele>701.3</ele>
        <time>2026-07-07T09:27:22.000Z</time>
      </trkpt>
      <trkpt lat="45.80959" lon="1.90345">
        <ele>701</ele>
        <time>2026-07-07T09:27:23.000Z</time>
      </trkpt>
      <trkpt lat="45.80959" lon="1.90348">
        <ele>701.2</ele>
        <time>2026-07-07T09:27:24.000Z</time>
      </trkpt>
      <trkpt lat="45.80959" lon="1.9035">
        <ele>701.1</ele>
        <time>2026-07-07T09:27:25.000Z</time>
      </trkpt>
      <trkpt lat="45.80958" lon="1.90351">
        <ele>700.7</ele>
        <time>2026-07-07T09:27:26.000Z</time>
      </trkpt>
      <trkpt lat="45.80957" lon="1.90352">
        <ele>700.1</ele>
        <time>2026-07-07T09:27:27.000Z</time>
      </trkpt>
      <trkpt lat="45.80957" lon="1.90354">
        <ele>700.7</ele>
        <time>2026-07-07T09:27:28.000Z</time>
      </trkpt>
      <trkpt lat="45.80957" lon="1.90357">
        <ele>700.6</ele>
        <time>2026-07-07T09:27:29.000Z</time>
      </trkpt>
      <trkpt lat="45.80956" lon="1.90359">
        <ele>700.6</ele>
        <time>2026-07-07T09:27:30.000Z</time>
      </trkpt>
      <trkpt lat="45.80956" lon="1.90362">
        <ele>701.3</ele>
        <time>2026-07-07T09:27:31.000Z</time>
      </trkpt>
      <trkpt lat="45.80956" lon="1.90364">
        <ele>700.4</ele>
        <time>2026-07-07T09:27:32.000Z</time>
      </trkpt>
      <trkpt lat="45.80957" lon="1.90366">
        <ele>700.1</ele>
        <time>2026-07-07T09:27:33.000Z</time>
      </trkpt>
      <trkpt lat="45.80957" lon="1.90368">
        <ele>700</ele>
        <time>2026-07-07T09:27:34.000Z</time>
      </trkpt>
      <trkpt lat="45.80958" lon="1.90371">
        <ele>699.7</ele>
        <time>2026-07-07T09:27:35.000Z</time>
      </trkpt>
      <trkpt lat="45.80958" lon="1.90373">
        <ele>699.9</ele>
        <time>2026-07-07T09:27:36.000Z</time>
      </trkpt>
      <trkpt lat="45.80957" lon="1.90375">
        <ele>700.3</ele>
        <time>2026-07-07T09:27:37.000Z</time>
      </trkpt>
      <trkpt lat="45.80957" lon="1.90377">
        <ele>700.1</ele>
        <time>2026-07-07T09:27:38.000Z</time>
      </trkpt>
      <trkpt lat="45.80956" lon="1.90379">
        <ele>699.9</ele>
        <time>2026-07-07T09:27:39.000Z</time>
      </trkpt>
      <trkpt lat="45.80956" lon="1.9038">
        <ele>699.8</ele>
        <time>2026-07-07T09:27:40.000Z</time>
      </trkpt>
      <trkpt lat="45.80955" lon="1.90382">
        <ele>699.9</ele>
        <time>2026-07-07T09:27:41.000Z</time>
      </trkpt>
      <trkpt lat="45.80954" lon="1.90385">
        <ele>700.4</ele>
        <time>2026-07-07T09:27:42.000Z</time>
      </trkpt>
      <trkpt lat="45.80954" lon="1.90387">
        <ele>700.5</ele>
        <time>2026-07-07T09:27:43.000Z</time>
      </trkpt>
      <trkpt lat="45.80954" lon="1.90389">
        <ele>699.1</ele>
        <time>2026-07-07T09:27:44.000Z</time>
      </trkpt>
      <trkpt lat="45.80954" lon="1.90391">
        <ele>697.8</ele>
        <time>2026-07-07T09:27:45.000Z</time>
      </trkpt>
      <trkpt lat="45.80953" lon="1.90392">
        <ele>697</ele>
        <time>2026-07-07T09:27:46.000Z</time>
      </trkpt>
      <trkpt lat="45.80952" lon="1.90393">
        <ele>696.9</ele>
        <time>2026-07-07T09:27:47.000Z</time>
      </trkpt>
      <trkpt lat="45.80951" lon="1.90393">
        <ele>697.4</ele>
        <time>2026-07-07T09:27:48.000Z</time>
      </trkpt>
      <trkpt lat="45.80949" lon="1.90393">
        <ele>696.6</ele>
        <time>2026-07-07T09:27:49.000Z</time>
      </trkpt>
      <trkpt lat="45.8095" lon="1.90392">
        <ele>697.8</ele>
        <time>2026-07-07T09:27:50.000Z</time>
      </trkpt>
      <trkpt lat="45.8095" lon="1.90392">
        <ele>697.8</ele>
        <time>2026-07-07T09:27:51.000Z</time>
      </trkpt>
      <trkpt lat="45.8095" lon="1.90392">
        <ele>697.8</ele>
        <time>2026-07-07T09:27:52.000Z</time>
      </trkpt>
      <trkpt lat="45.8095" lon="1.90392">
        <ele>697.8</ele>
        <time>2026-07-07T09:27:53.000Z</time>
      </trkpt>
      <trkpt lat="45.8095" lon="1.90392">
        <ele>697.8</ele>
        <time>2026-07-07T09:27:54.000Z</time>
      </trkpt>
      <trkpt lat="45.8095" lon="1.90392">
        <ele>697.8</ele>
        <time>2026-07-07T09:27:55.000Z</time>
      </trkpt>
      <trkpt lat="45.8095" lon="1.90392">
        <ele>697.8</ele>
        <time>2026-07-07T09:27:56.000Z</time>
      </trkpt>
      <trkpt lat="45.8095" lon="1.90392">
        <ele>697.8</ele>
        <time>2026-07-07T09:27:57.000Z</time>
      </trkpt>
      <trkpt lat="45.8095" lon="1.90392">
        <ele>697.8</ele>
        <time>2026-07-07T09:27:58.000Z</time>
      </trkpt>
      <trkpt lat="45.8095" lon="1.90392">
        <ele>697.8</ele>
        <time>2026-07-07T09:27:59.000Z</time>
      </trkpt>
      <trkpt lat="45.8095" lon="1.90392">
        <ele>697.8</ele>
        <time>2026-07-07T09:28:00.000Z</time>
      </trkpt>
      <trkpt lat="45.8095" lon="1.90392">
        <ele>697.8</ele>
        <time>2026-07-07T09:28:01.000Z</time>
      </trkpt>
      <trkpt lat="45.8095" lon="1.90392">
        <ele>698.3</ele>
        <time>2026-07-07T09:28:02.000Z</time>
      </trkpt>
      <trkpt lat="45.8095" lon="1.90392">
        <ele>698.3</ele>
        <time>2026-07-07T09:28:03.000Z</time>
      </trkpt>
      <trkpt lat="45.8095" lon="1.90392">
        <ele>698.3</ele>
        <time>2026-07-07T09:28:04.000Z</time>
      </trkpt>
      <trkpt lat="45.8095" lon="1.90392">
        <ele>698.3</ele>
        <time>2026-07-07T09:28:05.000Z</time>
      </trkpt>
      <trkpt lat="45.8095" lon="1.90392">
        <ele>698.3</ele>
        <time>2026-07-07T09:28:06.000Z</time>
      </trkpt>
      <trkpt lat="45.8095" lon="1.90392">
        <ele>698.2</ele>
        <time>2026-07-07T09:28:07.000Z</time>
      </trkpt>
      <trkpt lat="45.8095" lon="1.90392">
        <ele>698.2</ele>
        <time>2026-07-07T09:28:08.000Z</time>
      </trkpt>
      <trkpt lat="45.8095" lon="1.90392">
        <ele>698.3</ele>
        <time>2026-07-07T09:28:09.000Z</time>
      </trkpt>
      <trkpt lat="45.8095" lon="1.90392">
        <ele>698.3</ele>
        <time>2026-07-07T09:28:10.000Z</time>
      </trkpt>
      <trkpt lat="45.8095" lon="1.90392">
        <ele>698.7</ele>
        <time>2026-07-07T09:28:11.000Z</time>
      </trkpt>
      <trkpt lat="45.8095" lon="1.90392">
        <ele>699.3</ele>
        <time>2026-07-07T09:28:12.000Z</time>
      </trkpt>
      <trkpt lat="45.8095" lon="1.90392">
        <ele>699.4</ele>
        <time>2026-07-07T09:28:13.000Z</time>
      </trkpt>
      <trkpt lat="45.8095" lon="1.90392">
        <ele>699.4</ele>
        <time>2026-07-07T09:28:14.000Z</time>
      </trkpt>
      <trkpt lat="45.8095" lon="1.90392">
        <ele>699.3</ele>
        <time>2026-07-07T09:28:15.000Z</time>
      </trkpt>
      <trkpt lat="45.8095" lon="1.90392">
        <ele>699.3</ele>
        <time>2026-07-07T09:28:16.000Z</time>
      </trkpt>
      <trkpt lat="45.8095" lon="1.90392">
        <ele>699.3</ele>
        <time>2026-07-07T09:28:17.000Z</time>
      </trkpt>
      <trkpt lat="45.8095" lon="1.90392">
        <ele>699.3</ele>
        <time>2026-07-07T09:28:18.000Z</time>
      </trkpt>
      <trkpt lat="45.8095" lon="1.90392">
        <ele>699.3</ele>
        <time>2026-07-07T09:28:19.000Z</time>
      </trkpt>
      <trkpt lat="45.8095" lon="1.90392">
        <ele>699.3</ele>
        <time>2026-07-07T09:28:20.000Z</time>
      </trkpt>
      <trkpt lat="45.8095" lon="1.90392">
        <ele>699.3</ele>
        <time>2026-07-07T09:28:21.000Z</time>
      </trkpt>
      <trkpt lat="45.8095" lon="1.90392">
        <ele>699.3</ele>
        <time>2026-07-07T09:28:22.000Z</time>
      </trkpt>
      <trkpt lat="45.8095" lon="1.90392">
        <ele>699.3</ele>
        <time>2026-07-07T09:28:23.000Z</time>
      </trkpt>
      <trkpt lat="45.8095" lon="1.90392">
        <ele>699.3</ele>
        <time>2026-07-07T09:28:24.000Z</time>
      </trkpt>
      <trkpt lat="45.8095" lon="1.90392">
        <ele>699.3</ele>
        <time>2026-07-07T09:28:25.000Z</time>
      </trkpt>
      <trkpt lat="45.80951" lon="1.90391">
        <ele>699.6</ele>
        <time>2026-07-07T09:28:26.000Z</time>
      </trkpt>
      <trkpt lat="45.80951" lon="1.90391">
        <ele>699.8</ele>
        <time>2026-07-07T09:28:27.000Z</time>
      </trkpt>
      <trkpt lat="45.80951" lon="1.90392">
        <ele>700.1</ele>
        <time>2026-07-07T09:28:28.000Z</time>
      </trkpt>
      <trkpt lat="45.80951" lon="1.90392">
        <ele>700.1</ele>
        <time>2026-07-07T09:28:29.000Z</time>
      </trkpt>
      <trkpt lat="45.80951" lon="1.90392">
        <ele>700.1</ele>
        <time>2026-07-07T09:28:30.000Z</time>
      </trkpt>
      <trkpt lat="45.80951" lon="1.90392">
        <ele>700.1</ele>
        <time>2026-07-07T09:28:31.000Z</time>
      </trkpt>
      <trkpt lat="45.80951" lon="1.90392">
        <ele>700.1</ele>
        <time>2026-07-07T09:28:32.000Z</time>
      </trkpt>
      <trkpt lat="45.80951" lon="1.90392">
        <ele>700.1</ele>
        <time>2026-07-07T09:28:33.000Z</time>
      </trkpt>
      <trkpt lat="45.80951" lon="1.90392">
        <ele>700.1</ele>
        <time>2026-07-07T09:28:34.000Z</time>
      </trkpt>
      <trkpt lat="45.80951" lon="1.90392">
        <ele>700.1</ele>
        <time>2026-07-07T09:28:35.000Z</time>
      </trkpt>
      <trkpt lat="45.80951" lon="1.90392">
        <ele>700.1</ele>
        <time>2026-07-07T09:28:36.000Z</time>
      </trkpt>
      <trkpt lat="45.80951" lon="1.90392">
        <ele>700.1</ele>
        <time>2026-07-07T09:28:37.000Z</time>
      </trkpt>
      <trkpt lat="45.8095" lon="1.90392">
        <ele>700.1</ele>
        <time>2026-07-07T09:28:38.000Z</time>
      </trkpt>
      <trkpt lat="45.8095" lon="1.90392">
        <ele>700.1</ele>
        <time>2026-07-07T09:28:39.000Z</time>
      </trkpt>
      <trkpt lat="45.8095" lon="1.90392">
        <ele>700.2</ele>
        <time>2026-07-07T09:28:40.000Z</time>
      </trkpt>
      <trkpt lat="45.8095" lon="1.90392">
        <ele>700.5</ele>
        <time>2026-07-07T09:28:41.000Z</time>
      </trkpt>
      <trkpt lat="45.8095" lon="1.90392">
        <ele>700.5</ele>
        <time>2026-07-07T09:28:42.000Z</time>
      </trkpt>
      <trkpt lat="45.8095" lon="1.90392">
        <ele>700.3</ele>
        <time>2026-07-07T09:28:43.000Z</time>
      </trkpt>
      <trkpt lat="45.8095" lon="1.90392">
        <ele>700.3</ele>
        <time>2026-07-07T09:28:44.000Z</time>
      </trkpt>
      <trkpt lat="45.8095" lon="1.90392">
        <ele>700.3</ele>
        <time>2026-07-07T09:28:45.000Z</time>
      </trkpt>
      <trkpt lat="45.8095" lon="1.90392">
        <ele>700.4</ele>
        <time>2026-07-07T09:28:46.000Z</time>
      </trkpt>
      <trkpt lat="45.8095" lon="1.90392">
        <ele>700.5</ele>
        <time>2026-07-07T09:28:47.000Z</time>
      </trkpt>
      <trkpt lat="45.8095" lon="1.90392">
        <ele>700.6</ele>
        <time>2026-07-07T09:28:48.000Z</time>
      </trkpt>
      <trkpt lat="45.8095" lon="1.90393">
        <ele>700.7</ele>
        <time>2026-07-07T09:28:49.000Z</time>
      </trkpt>
      <trkpt lat="45.8095" lon="1.90393">
        <ele>701</ele>
        <time>2026-07-07T09:28:50.000Z</time>
      </trkpt>
      <trkpt lat="45.8095" lon="1.90393">
        <ele>700.9</ele>
        <time>2026-07-07T09:28:51.000Z</time>
      </trkpt>
      <trkpt lat="45.80949" lon="1.90393">
        <ele>701.4</ele>
        <time>2026-07-07T09:28:52.000Z</time>
      </trkpt>
      <trkpt lat="45.80949" lon="1.90393">
        <ele>701.4</ele>
        <time>2026-07-07T09:28:53.000Z</time>
      </trkpt>
      <trkpt lat="45.80948" lon="1.90393">
        <ele>701.2</ele>
        <time>2026-07-07T09:28:54.000Z</time>
      </trkpt>
      <trkpt lat="45.80949" lon="1.90393">
        <ele>701.4</ele>
        <time>2026-07-07T09:28:55.000Z</time>
      </trkpt>
      <trkpt lat="45.80949" lon="1.90393">
        <ele>701.3</ele>
        <time>2026-07-07T09:28:56.000Z</time>
      </trkpt>
      <trkpt lat="45.80949" lon="1.90393">
        <ele>701.4</ele>
        <time>2026-07-07T09:28:57.000Z</time>
      </trkpt>
      <trkpt lat="45.80949" lon="1.90393">
        <ele>701.4</ele>
        <time>2026-07-07T09:28:58.000Z</time>
      </trkpt>
      <trkpt lat="45.80948" lon="1.90394">
        <ele>701.7</ele>
        <time>2026-07-07T09:28:59.000Z</time>
      </trkpt>
      <trkpt lat="45.80947" lon="1.90394">
        <ele>701.7</ele>
        <time>2026-07-07T09:29:00.000Z</time>
      </trkpt>
      <trkpt lat="45.80945" lon="1.90394">
        <ele>701.5</ele>
        <time>2026-07-07T09:29:01.000Z</time>
      </trkpt>
      <trkpt lat="45.80944" lon="1.90395">
        <ele>701.8</ele>
        <time>2026-07-07T09:29:02.000Z</time>
      </trkpt>
      <trkpt lat="45.80943" lon="1.90395">
        <ele>701.7</ele>
        <time>2026-07-07T09:29:03.000Z</time>
      </trkpt>
      <trkpt lat="45.80942" lon="1.90395">
        <ele>701.5</ele>
        <time>2026-07-07T09:29:04.000Z</time>
      </trkpt>
      <trkpt lat="45.80941" lon="1.90395">
        <ele>701.8</ele>
        <time>2026-07-07T09:29:05.000Z</time>
      </trkpt>
      <trkpt lat="45.8094" lon="1.90395">
        <ele>701.8</ele>
        <time>2026-07-07T09:29:06.000Z</time>
      </trkpt>
      <trkpt lat="45.80939" lon="1.90393">
        <ele>704.2</ele>
        <time>2026-07-07T09:29:07.000Z</time>
      </trkpt>
      <trkpt lat="45.80939" lon="1.90393">
        <ele>703.5</ele>
        <time>2026-07-07T09:29:08.000Z</time>
      </trkpt>
      <trkpt lat="45.8094" lon="1.90393">
        <ele>703.5</ele>
        <time>2026-07-07T09:29:09.000Z</time>
      </trkpt>
      <trkpt lat="45.80939" lon="1.90392">
        <ele>703.2</ele>
        <time>2026-07-07T09:29:10.000Z</time>
      </trkpt>
      <trkpt lat="45.80939" lon="1.90392">
        <ele>703.2</ele>
        <time>2026-07-07T09:29:11.000Z</time>
      </trkpt>
      <trkpt lat="45.80939" lon="1.90392">
        <ele>702.7</ele>
        <time>2026-07-07T09:29:12.000Z</time>
      </trkpt>
      <trkpt lat="45.80939" lon="1.90393">
        <ele>702.5</ele>
        <time>2026-07-07T09:29:13.000Z</time>
      </trkpt>
      <trkpt lat="45.80938" lon="1.90394">
        <ele>702.4</ele>
        <time>2026-07-07T09:29:14.000Z</time>
      </trkpt>
      <trkpt lat="45.80937" lon="1.90395">
        <ele>702</ele>
        <time>2026-07-07T09:29:15.000Z</time>
      </trkpt>
      <trkpt lat="45.80936" lon="1.90396">
        <ele>702.1</ele>
        <time>2026-07-07T09:29:16.000Z</time>
      </trkpt>
      <trkpt lat="45.80935" lon="1.90397">
        <ele>702.7</ele>
        <time>2026-07-07T09:29:17.000Z</time>
      </trkpt>
      <trkpt lat="45.80935" lon="1.90399">
        <ele>702.3</ele>
        <time>2026-07-07T09:29:18.000Z</time>
      </trkpt>
      <trkpt lat="45.80934" lon="1.904">
        <ele>702.2</ele>
        <time>2026-07-07T09:29:19.000Z</time>
      </trkpt>
      <trkpt lat="45.80933" lon="1.90401">
        <ele>702</ele>
        <time>2026-07-07T09:29:20.000Z</time>
      </trkpt>
      <trkpt lat="45.80933" lon="1.90402">
        <ele>701.8</ele>
        <time>2026-07-07T09:29:21.000Z</time>
      </trkpt>
      <trkpt lat="45.80933" lon="1.90405">
        <ele>699.4</ele>
        <time>2026-07-07T09:29:22.000Z</time>
      </trkpt>
      <trkpt lat="45.80932" lon="1.90406">
        <ele>698.4</ele>
        <time>2026-07-07T09:29:23.000Z</time>
      </trkpt>
      <trkpt lat="45.80931" lon="1.90408">
        <ele>700.2</ele>
        <time>2026-07-07T09:29:24.000Z</time>
      </trkpt>
      <trkpt lat="45.8093" lon="1.9041">
        <ele>699.4</ele>
        <time>2026-07-07T09:29:25.000Z</time>
      </trkpt>
      <trkpt lat="45.80929" lon="1.90411">
        <ele>700.4</ele>
        <time>2026-07-07T09:29:26.000Z</time>
      </trkpt>
      <trkpt lat="45.80928" lon="1.90412">
        <ele>700.1</ele>
        <time>2026-07-07T09:29:27.000Z</time>
      </trkpt>
      <trkpt lat="45.80927" lon="1.90413">
        <ele>700.2</ele>
        <time>2026-07-07T09:29:28.000Z</time>
      </trkpt>
      <trkpt lat="45.80926" lon="1.90414">
        <ele>700.7</ele>
        <time>2026-07-07T09:29:29.000Z</time>
      </trkpt>
      <trkpt lat="45.80924" lon="1.90416">
        <ele>701.8</ele>
        <time>2026-07-07T09:29:30.000Z</time>
      </trkpt>
      <trkpt lat="45.80924" lon="1.90417">
        <ele>702.8</ele>
        <time>2026-07-07T09:29:31.000Z</time>
      </trkpt>
      <trkpt lat="45.80923" lon="1.90418">
        <ele>703.8</ele>
        <time>2026-07-07T09:29:32.000Z</time>
      </trkpt>
      <trkpt lat="45.80922" lon="1.90419">
        <ele>703.4</ele>
        <time>2026-07-07T09:29:33.000Z</time>
      </trkpt>
      <trkpt lat="45.8092" lon="1.90421">
        <ele>703.4</ele>
        <time>2026-07-07T09:29:34.000Z</time>
      </trkpt>
      <trkpt lat="45.80919" lon="1.90422">
        <ele>703.6</ele>
        <time>2026-07-07T09:29:35.000Z</time>
      </trkpt>
      <trkpt lat="45.80918" lon="1.90423">
        <ele>703.5</ele>
        <time>2026-07-07T09:29:36.000Z</time>
      </trkpt>
      <trkpt lat="45.80917" lon="1.90425">
        <ele>703.4</ele>
        <time>2026-07-07T09:29:37.000Z</time>
      </trkpt>
      <trkpt lat="45.80916" lon="1.90426">
        <ele>702.5</ele>
        <time>2026-07-07T09:29:38.000Z</time>
      </trkpt>
      <trkpt lat="45.80915" lon="1.90428">
        <ele>701.8</ele>
        <time>2026-07-07T09:29:39.000Z</time>
      </trkpt>
      <trkpt lat="45.80914" lon="1.9043">
        <ele>701.6</ele>
        <time>2026-07-07T09:29:40.000Z</time>
      </trkpt>
      <trkpt lat="45.80912" lon="1.90431">
        <ele>700.7</ele>
        <time>2026-07-07T09:29:41.000Z</time>
      </trkpt>
      <trkpt lat="45.80911" lon="1.90433">
        <ele>700</ele>
        <time>2026-07-07T09:29:42.000Z</time>
      </trkpt>
      <trkpt lat="45.8091" lon="1.90434">
        <ele>699.1</ele>
        <time>2026-07-07T09:29:43.000Z</time>
      </trkpt>
      <trkpt lat="45.80909" lon="1.90436">
        <ele>698.6</ele>
        <time>2026-07-07T09:29:44.000Z</time>
      </trkpt>
      <trkpt lat="45.80907" lon="1.90438">
        <ele>699.3</ele>
        <time>2026-07-07T09:29:45.000Z</time>
      </trkpt>
      <trkpt lat="45.80906" lon="1.9044">
        <ele>699.1</ele>
        <time>2026-07-07T09:29:46.000Z</time>
      </trkpt>
      <trkpt lat="45.80904" lon="1.90441">
        <ele>699.5</ele>
        <time>2026-07-07T09:29:47.000Z</time>
      </trkpt>
      <trkpt lat="45.80903" lon="1.90442">
        <ele>700.2</ele>
        <time>2026-07-07T09:29:48.000Z</time>
      </trkpt>
      <trkpt lat="45.80901" lon="1.90443">
        <ele>700.9</ele>
        <time>2026-07-07T09:29:49.000Z</time>
      </trkpt>
      <trkpt lat="45.809" lon="1.90444">
        <ele>700.7</ele>
        <time>2026-07-07T09:29:50.000Z</time>
      </trkpt>
      <trkpt lat="45.80899" lon="1.90445">
        <ele>699.1</ele>
        <time>2026-07-07T09:29:51.000Z</time>
      </trkpt>
      <trkpt lat="45.80897" lon="1.90446">
        <ele>699.2</ele>
        <time>2026-07-07T09:29:52.000Z</time>
      </trkpt>
      <trkpt lat="45.80896" lon="1.90447">
        <ele>699.4</ele>
        <time>2026-07-07T09:29:53.000Z</time>
      </trkpt>
      <trkpt lat="45.80894" lon="1.90449">
        <ele>699.5</ele>
        <time>2026-07-07T09:29:54.000Z</time>
      </trkpt>
      <trkpt lat="45.80893" lon="1.9045">
        <ele>699.2</ele>
        <time>2026-07-07T09:29:55.000Z</time>
      </trkpt>
      <trkpt lat="45.80892" lon="1.90451">
        <ele>699.3</ele>
        <time>2026-07-07T09:29:56.000Z</time>
      </trkpt>
      <trkpt lat="45.80891" lon="1.90453">
        <ele>698.4</ele>
        <time>2026-07-07T09:29:57.000Z</time>
      </trkpt>
      <trkpt lat="45.8089" lon="1.90456">
        <ele>699.1</ele>
        <time>2026-07-07T09:29:58.000Z</time>
      </trkpt>
      <trkpt lat="45.80888" lon="1.90458">
        <ele>699.5</ele>
        <time>2026-07-07T09:29:59.000Z</time>
      </trkpt>
      <trkpt lat="45.80886" lon="1.9046">
        <ele>700</ele>
        <time>2026-07-07T09:30:00.000Z</time>
      </trkpt>
      <trkpt lat="45.80884" lon="1.90461">
        <ele>700.1</ele>
        <time>2026-07-07T09:30:01.000Z</time>
      </trkpt>
      <trkpt lat="45.80882" lon="1.90464">
        <ele>700.6</ele>
        <time>2026-07-07T09:30:02.000Z</time>
      </trkpt>
      <trkpt lat="45.80881" lon="1.90466">
        <ele>700.6</ele>
        <time>2026-07-07T09:30:03.000Z</time>
      </trkpt>
      <trkpt lat="45.80878" lon="1.90468">
        <ele>699</ele>
        <time>2026-07-07T09:30:04.000Z</time>
      </trkpt>
      <trkpt lat="45.80876" lon="1.9047">
        <ele>699.3</ele>
        <time>2026-07-07T09:30:05.000Z</time>
      </trkpt>
      <trkpt lat="45.80872" lon="1.90472">
        <ele>699.2</ele>
        <time>2026-07-07T09:30:06.000Z</time>
      </trkpt>
      <trkpt lat="45.80869" lon="1.90474">
        <ele>700.6</ele>
        <time>2026-07-07T09:30:07.000Z</time>
      </trkpt>
      <trkpt lat="45.80866" lon="1.90478">
        <ele>700</ele>
        <time>2026-07-07T09:30:08.000Z</time>
      </trkpt>
      <trkpt lat="45.80862" lon="1.90478">
        <ele>702.4</ele>
        <time>2026-07-07T09:30:09.000Z</time>
      </trkpt>
      <trkpt lat="45.80859" lon="1.90479">
        <ele>702.7</ele>
        <time>2026-07-07T09:30:10.000Z</time>
      </trkpt>
      <trkpt lat="45.80855" lon="1.90481">
        <ele>702.4</ele>
        <time>2026-07-07T09:30:11.000Z</time>
      </trkpt>
      <trkpt lat="45.80852" lon="1.90483">
        <ele>703.1</ele>
        <time>2026-07-07T09:30:12.000Z</time>
      </trkpt>
      <trkpt lat="45.80849" lon="1.90485">
        <ele>702.7</ele>
        <time>2026-07-07T09:30:13.000Z</time>
      </trkpt>
      <trkpt lat="45.80847" lon="1.90486">
        <ele>703.2</ele>
        <time>2026-07-07T09:30:14.000Z</time>
      </trkpt>
      <trkpt lat="45.80844" lon="1.90489">
        <ele>702.5</ele>
        <time>2026-07-07T09:30:15.000Z</time>
      </trkpt>
      <trkpt lat="45.80839" lon="1.90492">
        <ele>701.8</ele>
        <time>2026-07-07T09:30:16.000Z</time>
      </trkpt>
      <trkpt lat="45.80833" lon="1.90494">
        <ele>703</ele>
        <time>2026-07-07T09:30:17.000Z</time>
      </trkpt>
      <trkpt lat="45.80826" lon="1.90495">
        <ele>702.6</ele>
        <time>2026-07-07T09:30:18.000Z</time>
      </trkpt>
      <trkpt lat="45.8082" lon="1.90496">
        <ele>703.3</ele>
        <time>2026-07-07T09:30:19.000Z</time>
      </trkpt>
      <trkpt lat="45.80815" lon="1.90497">
        <ele>703.5</ele>
        <time>2026-07-07T09:30:20.000Z</time>
      </trkpt>
      <trkpt lat="45.80812" lon="1.90499">
        <ele>703</ele>
        <time>2026-07-07T09:30:21.000Z</time>
      </trkpt>
      <trkpt lat="45.80809" lon="1.905">
        <ele>702.4</ele>
        <time>2026-07-07T09:30:22.000Z</time>
      </trkpt>
      <trkpt lat="45.80804" lon="1.90501">
        <ele>702.3</ele>
        <time>2026-07-07T09:30:23.000Z</time>
      </trkpt>
      <trkpt lat="45.80799" lon="1.90502">
        <ele>702</ele>
        <time>2026-07-07T09:30:24.000Z</time>
      </trkpt>
      <trkpt lat="45.80794" lon="1.90503">
        <ele>701.9</ele>
        <time>2026-07-07T09:30:25.000Z</time>
      </trkpt>
      <trkpt lat="45.8079" lon="1.90504">
        <ele>701.9</ele>
        <time>2026-07-07T09:30:26.000Z</time>
      </trkpt>
      <trkpt lat="45.80787" lon="1.90504">
        <ele>701.3</ele>
        <time>2026-07-07T09:30:27.000Z</time>
      </trkpt>
      <trkpt lat="45.80786" lon="1.90505">
        <ele>700.1</ele>
        <time>2026-07-07T09:30:28.000Z</time>
      </trkpt>
      <trkpt lat="45.80784" lon="1.90506">
        <ele>700.2</ele>
        <time>2026-07-07T09:30:29.000Z</time>
      </trkpt>
      <trkpt lat="45.80785" lon="1.90507">
        <ele>701.2</ele>
        <time>2026-07-07T09:30:30.000Z</time>
      </trkpt>
      <trkpt lat="45.80785" lon="1.90509">
        <ele>700.9</ele>
        <time>2026-07-07T09:30:31.000Z</time>
      </trkpt>
      <trkpt lat="45.80784" lon="1.9051">
        <ele>701.2</ele>
        <time>2026-07-07T09:30:32.000Z</time>
      </trkpt>
      <trkpt lat="45.80783" lon="1.9051">
        <ele>701.8</ele>
        <time>2026-07-07T09:30:33.000Z</time>
      </trkpt>
      <trkpt lat="45.80782" lon="1.90511">
        <ele>703.1</ele>
        <time>2026-07-07T09:30:34.000Z</time>
      </trkpt>
      <trkpt lat="45.8078" lon="1.90512">
        <ele>703.6</ele>
        <time>2026-07-07T09:30:35.000Z</time>
      </trkpt>
      <trkpt lat="45.80779" lon="1.90514">
        <ele>704.6</ele>
        <time>2026-07-07T09:30:36.000Z</time>
      </trkpt>
      <trkpt lat="45.80778" lon="1.90516">
        <ele>704.6</ele>
        <time>2026-07-07T09:30:37.000Z</time>
      </trkpt>
      <trkpt lat="45.80778" lon="1.90517">
        <ele>704.6</ele>
        <time>2026-07-07T09:30:38.000Z</time>
      </trkpt>
      <trkpt lat="45.8078" lon="1.90515">
        <ele>709.9</ele>
        <time>2026-07-07T09:30:39.000Z</time>
      </trkpt>
      <trkpt lat="45.80778" lon="1.90516">
        <ele>709.7</ele>
        <time>2026-07-07T09:30:40.000Z</time>
      </trkpt>
      <trkpt lat="45.80777" lon="1.90518">
        <ele>710.6</ele>
        <time>2026-07-07T09:30:41.000Z</time>
      </trkpt>
      <trkpt lat="45.80779" lon="1.90522">
        <ele>709.4</ele>
        <time>2026-07-07T09:30:42.000Z</time>
      </trkpt>
      <trkpt lat="45.80779" lon="1.90524">
        <ele>710.1</ele>
        <time>2026-07-07T09:30:43.000Z</time>
      </trkpt>
      <trkpt lat="45.80777" lon="1.90526">
        <ele>710.4</ele>
        <time>2026-07-07T09:30:44.000Z</time>
      </trkpt>
      <trkpt lat="45.80777" lon="1.90528">
        <ele>710.7</ele>
        <time>2026-07-07T09:30:45.000Z</time>
      </trkpt>
      <trkpt lat="45.80776" lon="1.9053">
        <ele>709.9</ele>
        <time>2026-07-07T09:30:46.000Z</time>
      </trkpt>
      <trkpt lat="45.80775" lon="1.90532">
        <ele>709.6</ele>
        <time>2026-07-07T09:30:47.000Z</time>
      </trkpt>
      <trkpt lat="45.80775" lon="1.90533">
        <ele>709.3</ele>
        <time>2026-07-07T09:30:48.000Z</time>
      </trkpt>
      <trkpt lat="45.80774" lon="1.90535">
        <ele>710.3</ele>
        <time>2026-07-07T09:30:49.000Z</time>
      </trkpt>
      <trkpt lat="45.80773" lon="1.90537">
        <ele>710.5</ele>
        <time>2026-07-07T09:30:50.000Z</time>
      </trkpt>
      <trkpt lat="45.80772" lon="1.90538">
        <ele>710.5</ele>
        <time>2026-07-07T09:30:51.000Z</time>
      </trkpt>
      <trkpt lat="45.80771" lon="1.9054">
        <ele>711</ele>
        <time>2026-07-07T09:30:52.000Z</time>
      </trkpt>
      <trkpt lat="45.80771" lon="1.90542">
        <ele>710.9</ele>
        <time>2026-07-07T09:30:53.000Z</time>
      </trkpt>
      <trkpt lat="45.80771" lon="1.90544">
        <ele>710.7</ele>
        <time>2026-07-07T09:30:54.000Z</time>
      </trkpt>
      <trkpt lat="45.8077" lon="1.90546">
        <ele>710.1</ele>
        <time>2026-07-07T09:30:55.000Z</time>
      </trkpt>
      <trkpt lat="45.80769" lon="1.90549">
        <ele>710</ele>
        <time>2026-07-07T09:30:56.000Z</time>
      </trkpt>
      <trkpt lat="45.80769" lon="1.9055">
        <ele>709.8</ele>
        <time>2026-07-07T09:30:57.000Z</time>
      </trkpt>
      <trkpt lat="45.8077" lon="1.9055">
        <ele>710.4</ele>
        <time>2026-07-07T09:30:58.000Z</time>
      </trkpt>
      <trkpt lat="45.80771" lon="1.9055">
        <ele>710.7</ele>
        <time>2026-07-07T09:30:59.000Z</time>
      </trkpt>
      <trkpt lat="45.8077" lon="1.90552">
        <ele>710.4</ele>
        <time>2026-07-07T09:31:00.000Z</time>
      </trkpt>
      <trkpt lat="45.8077" lon="1.90554">
        <ele>709.8</ele>
        <time>2026-07-07T09:31:01.000Z</time>
      </trkpt>
      <trkpt lat="45.80769" lon="1.90556">
        <ele>710.7</ele>
        <time>2026-07-07T09:31:02.000Z</time>
      </trkpt>
      <trkpt lat="45.80769" lon="1.90556">
        <ele>709.7</ele>
        <time>2026-07-07T09:31:03.000Z</time>
      </trkpt>
      <trkpt lat="45.80768" lon="1.90556">
        <ele>709.5</ele>
        <time>2026-07-07T09:31:04.000Z</time>
      </trkpt>
      <trkpt lat="45.80768" lon="1.90557">
        <ele>708.5</ele>
        <time>2026-07-07T09:31:05.000Z</time>
      </trkpt>
      <trkpt lat="45.80768" lon="1.90557">
        <ele>708.5</ele>
        <time>2026-07-07T09:31:06.000Z</time>
      </trkpt>
      <trkpt lat="45.80768" lon="1.90556">
        <ele>708.5</ele>
        <time>2026-07-07T09:31:07.000Z</time>
      </trkpt>
      <trkpt lat="45.80768" lon="1.90556">
        <ele>708.5</ele>
        <time>2026-07-07T09:31:08.000Z</time>
      </trkpt>
      <trkpt lat="45.80768" lon="1.90557">
        <ele>708.1</ele>
        <time>2026-07-07T09:31:09.000Z</time>
      </trkpt>
      <trkpt lat="45.80768" lon="1.90557">
        <ele>708.1</ele>
        <time>2026-07-07T09:31:10.000Z</time>
      </trkpt>
      <trkpt lat="45.80768" lon="1.90557">
        <ele>708.1</ele>
        <time>2026-07-07T09:31:11.000Z</time>
      </trkpt>
      <trkpt lat="45.80768" lon="1.90557">
        <ele>708.1</ele>
        <time>2026-07-07T09:31:12.000Z</time>
      </trkpt>
      <trkpt lat="45.80768" lon="1.90557">
        <ele>708.1</ele>
        <time>2026-07-07T09:31:13.000Z</time>
      </trkpt>
      <trkpt lat="45.80768" lon="1.90557">
        <ele>708.2</ele>
        <time>2026-07-07T09:31:14.000Z</time>
      </trkpt>
      <trkpt lat="45.80768" lon="1.90557">
        <ele>707.1</ele>
        <time>2026-07-07T09:31:15.000Z</time>
      </trkpt>
      <trkpt lat="45.80767" lon="1.90558">
        <ele>706.8</ele>
        <time>2026-07-07T09:31:16.000Z</time>
      </trkpt>
      <trkpt lat="45.80767" lon="1.90559">
        <ele>706.4</ele>
        <time>2026-07-07T09:31:17.000Z</time>
      </trkpt>
      <trkpt lat="45.80766" lon="1.90561">
        <ele>705.7</ele>
        <time>2026-07-07T09:31:18.000Z</time>
      </trkpt>
      <trkpt lat="45.80766" lon="1.90562">
        <ele>705.9</ele>
        <time>2026-07-07T09:31:19.000Z</time>
      </trkpt>
      <trkpt lat="45.80765" lon="1.90564">
        <ele>705.5</ele>
        <time>2026-07-07T09:31:20.000Z</time>
      </trkpt>
      <trkpt lat="45.80763" lon="1.90566">
        <ele>706.5</ele>
        <time>2026-07-07T09:31:21.000Z</time>
      </trkpt>
      <trkpt lat="45.80762" lon="1.90566">
        <ele>707.5</ele>
        <time>2026-07-07T09:31:22.000Z</time>
      </trkpt>
      <trkpt lat="45.80761" lon="1.90567">
        <ele>707.6</ele>
        <time>2026-07-07T09:31:23.000Z</time>
      </trkpt>
      <trkpt lat="45.8076" lon="1.90568">
        <ele>707.9</ele>
        <time>2026-07-07T09:31:24.000Z</time>
      </trkpt>
      <trkpt lat="45.80758" lon="1.90568">
        <ele>708</ele>
        <time>2026-07-07T09:31:25.000Z</time>
      </trkpt>
      <trkpt lat="45.80757" lon="1.90569">
        <ele>707.4</ele>
        <time>2026-07-07T09:31:26.000Z</time>
      </trkpt>
      <trkpt lat="45.80755" lon="1.9057">
        <ele>707.4</ele>
        <time>2026-07-07T09:31:27.000Z</time>
      </trkpt>
      <trkpt lat="45.80754" lon="1.90571">
        <ele>707.3</ele>
        <time>2026-07-07T09:31:28.000Z</time>
      </trkpt>
      <trkpt lat="45.80753" lon="1.90572">
        <ele>706.9</ele>
        <time>2026-07-07T09:31:29.000Z</time>
      </trkpt>
      <trkpt lat="45.80751" lon="1.90573">
        <ele>706.7</ele>
        <time>2026-07-07T09:31:30.000Z</time>
      </trkpt>
      <trkpt lat="45.8075" lon="1.90574">
        <ele>706.5</ele>
        <time>2026-07-07T09:31:31.000Z</time>
      </trkpt>
      <trkpt lat="45.80748" lon="1.90575">
        <ele>707</ele>
        <time>2026-07-07T09:31:32.000Z</time>
      </trkpt>
      <trkpt lat="45.80747" lon="1.90577">
        <ele>707.4</ele>
        <time>2026-07-07T09:31:33.000Z</time>
      </trkpt>
      <trkpt lat="45.80745" lon="1.90578">
        <ele>706.7</ele>
        <time>2026-07-07T09:31:34.000Z</time>
      </trkpt>
      <trkpt lat="45.80744" lon="1.90579">
        <ele>706.6</ele>
        <time>2026-07-07T09:31:35.000Z</time>
      </trkpt>
      <trkpt lat="45.80743" lon="1.9058">
        <ele>706.6</ele>
        <time>2026-07-07T09:31:36.000Z</time>
      </trkpt>
      <trkpt lat="45.80741" lon="1.90581">
        <ele>706.6</ele>
        <time>2026-07-07T09:31:37.000Z</time>
      </trkpt>
      <trkpt lat="45.8074" lon="1.90582">
        <ele>706.7</ele>
        <time>2026-07-07T09:31:38.000Z</time>
      </trkpt>
      <trkpt lat="45.80738" lon="1.90582">
        <ele>707.4</ele>
        <time>2026-07-07T09:31:39.000Z</time>
      </trkpt>
      <trkpt lat="45.80737" lon="1.90583">
        <ele>707.4</ele>
        <time>2026-07-07T09:31:40.000Z</time>
      </trkpt>
      <trkpt lat="45.80735" lon="1.90584">
        <ele>707.8</ele>
        <time>2026-07-07T09:31:41.000Z</time>
      </trkpt>
      <trkpt lat="45.80734" lon="1.90585">
        <ele>707</ele>
        <time>2026-07-07T09:31:42.000Z</time>
      </trkpt>
      <trkpt lat="45.80732" lon="1.90586">
        <ele>706.2</ele>
        <time>2026-07-07T09:31:43.000Z</time>
      </trkpt>
      <trkpt lat="45.80731" lon="1.90587">
        <ele>705.7</ele>
        <time>2026-07-07T09:31:44.000Z</time>
      </trkpt>
      <trkpt lat="45.8073" lon="1.90589">
        <ele>705.5</ele>
        <time>2026-07-07T09:31:45.000Z</time>
      </trkpt>
      <trkpt lat="45.80729" lon="1.90591">
        <ele>705.1</ele>
        <time>2026-07-07T09:31:46.000Z</time>
      </trkpt>
      <trkpt lat="45.80728" lon="1.90592">
        <ele>707</ele>
        <time>2026-07-07T09:31:47.000Z</time>
      </trkpt>
      <trkpt lat="45.80728" lon="1.90594">
        <ele>709</ele>
        <time>2026-07-07T09:31:48.000Z</time>
      </trkpt>
      <trkpt lat="45.80729" lon="1.90594">
        <ele>707.6</ele>
        <time>2026-07-07T09:31:49.000Z</time>
      </trkpt>
      <trkpt lat="45.80729" lon="1.90594">
        <ele>707.6</ele>
        <time>2026-07-07T09:31:50.000Z</time>
      </trkpt>
      <trkpt lat="45.80729" lon="1.90594">
        <ele>707.6</ele>
        <time>2026-07-07T09:31:51.000Z</time>
      </trkpt>
      <trkpt lat="45.80729" lon="1.90594">
        <ele>707.6</ele>
        <time>2026-07-07T09:31:52.000Z</time>
      </trkpt>
      <trkpt lat="45.80729" lon="1.90594">
        <ele>707.6</ele>
        <time>2026-07-07T09:31:53.000Z</time>
      </trkpt>
      <trkpt lat="45.80729" lon="1.90594">
        <ele>707.6</ele>
        <time>2026-07-07T09:31:54.000Z</time>
      </trkpt>
      <trkpt lat="45.80729" lon="1.90594">
        <ele>707.6</ele>
        <time>2026-07-07T09:31:55.000Z</time>
      </trkpt>
      <trkpt lat="45.80729" lon="1.90594">
        <ele>707.6</ele>
        <time>2026-07-07T09:31:56.000Z</time>
      </trkpt>
      <trkpt lat="45.80729" lon="1.90594">
        <ele>707.6</ele>
        <time>2026-07-07T09:31:57.000Z</time>
      </trkpt>
      <trkpt lat="45.80728" lon="1.90596">
        <ele>707.6</ele>
        <time>2026-07-07T09:31:58.000Z</time>
      </trkpt>
      <trkpt lat="45.80728" lon="1.90597">
        <ele>707.6</ele>
        <time>2026-07-07T09:31:59.000Z</time>
      </trkpt>
      <trkpt lat="45.80728" lon="1.90599">
        <ele>708.8</ele>
        <time>2026-07-07T09:32:00.000Z</time>
      </trkpt>
      <trkpt lat="45.80728" lon="1.90599">
        <ele>707.4</ele>
        <time>2026-07-07T09:32:01.000Z</time>
      </trkpt>
      <trkpt lat="45.80729" lon="1.90599">
        <ele>707.4</ele>
        <time>2026-07-07T09:32:02.000Z</time>
      </trkpt>
      <trkpt lat="45.80729" lon="1.90599">
        <ele>707.4</ele>
        <time>2026-07-07T09:32:03.000Z</time>
      </trkpt>
      <trkpt lat="45.80729" lon="1.90599">
        <ele>707.4</ele>
        <time>2026-07-07T09:32:04.000Z</time>
      </trkpt>
      <trkpt lat="45.80729" lon="1.90599">
        <ele>707.4</ele>
        <time>2026-07-07T09:32:05.000Z</time>
      </trkpt>
      <trkpt lat="45.80729" lon="1.90599">
        <ele>707</ele>
        <time>2026-07-07T09:32:06.000Z</time>
      </trkpt>
      <trkpt lat="45.80729" lon="1.906">
        <ele>707.3</ele>
        <time>2026-07-07T09:32:07.000Z</time>
      </trkpt>
      <trkpt lat="45.80728" lon="1.90601">
        <ele>707.7</ele>
        <time>2026-07-07T09:32:08.000Z</time>
      </trkpt>
      <trkpt lat="45.80727" lon="1.90607">
        <ele>708.1</ele>
        <time>2026-07-07T09:32:09.000Z</time>
      </trkpt>
      <trkpt lat="45.80732" lon="1.90609">
        <ele>708.3</ele>
        <time>2026-07-07T09:32:10.000Z</time>
      </trkpt>
      <trkpt lat="45.80734" lon="1.90608">
        <ele>707</ele>
        <time>2026-07-07T09:32:11.000Z</time>
      </trkpt>
      <trkpt lat="45.80735" lon="1.90607">
        <ele>705.3</ele>
        <time>2026-07-07T09:32:12.000Z</time>
      </trkpt>
      <trkpt lat="45.80736" lon="1.90607">
        <ele>703.5</ele>
        <time>2026-07-07T09:32:13.000Z</time>
      </trkpt>
      <trkpt lat="45.80737" lon="1.90607">
        <ele>703</ele>
        <time>2026-07-07T09:32:14.000Z</time>
      </trkpt>
      <trkpt lat="45.80737" lon="1.90609">
        <ele>702.1</ele>
        <time>2026-07-07T09:32:15.000Z</time>
      </trkpt>
      <trkpt lat="45.80737" lon="1.90608">
        <ele>702.1</ele>
        <time>2026-07-07T09:32:16.000Z</time>
      </trkpt>
      <trkpt lat="45.80737" lon="1.90608">
        <ele>702.3</ele>
        <time>2026-07-07T09:32:17.000Z</time>
      </trkpt>
      <trkpt lat="45.80737" lon="1.90608">
        <ele>702.1</ele>
        <time>2026-07-07T09:32:18.000Z</time>
      </trkpt>
      <trkpt lat="45.80737" lon="1.90608">
        <ele>702.2</ele>
        <time>2026-07-07T09:32:19.000Z</time>
      </trkpt>
      <trkpt lat="45.80737" lon="1.90608">
        <ele>702.2</ele>
        <time>2026-07-07T09:32:20.000Z</time>
      </trkpt>
      <trkpt lat="45.80737" lon="1.90608">
        <ele>702.2</ele>
        <time>2026-07-07T09:32:21.000Z</time>
      </trkpt>
      <trkpt lat="45.80737" lon="1.90608">
        <ele>702.2</ele>
        <time>2026-07-07T09:32:22.000Z</time>
      </trkpt>
      <trkpt lat="45.80737" lon="1.90608">
        <ele>702.1</ele>
        <time>2026-07-07T09:32:23.000Z</time>
      </trkpt>
      <trkpt lat="45.80736" lon="1.90608">
        <ele>702.1</ele>
        <time>2026-07-07T09:32:24.000Z</time>
      </trkpt>
      <trkpt lat="45.80736" lon="1.90608">
        <ele>701.9</ele>
        <time>2026-07-07T09:32:25.000Z</time>
      </trkpt>
      <trkpt lat="45.80736" lon="1.90609">
        <ele>703.3</ele>
        <time>2026-07-07T09:32:26.000Z</time>
      </trkpt>
      <trkpt lat="45.80736" lon="1.90611">
        <ele>704.7</ele>
        <time>2026-07-07T09:32:27.000Z</time>
      </trkpt>
      <trkpt lat="45.80736" lon="1.90612">
        <ele>704.9</ele>
        <time>2026-07-07T09:32:28.000Z</time>
      </trkpt>
      <trkpt lat="45.80735" lon="1.90614">
        <ele>706.4</ele>
        <time>2026-07-07T09:32:29.000Z</time>
      </trkpt>
      <trkpt lat="45.80736" lon="1.90616">
        <ele>707.9</ele>
        <time>2026-07-07T09:32:30.000Z</time>
      </trkpt>
      <trkpt lat="45.80736" lon="1.90618">
        <ele>707.4</ele>
        <time>2026-07-07T09:32:31.000Z</time>
      </trkpt>
      <trkpt lat="45.80737" lon="1.90621">
        <ele>707.3</ele>
        <time>2026-07-07T09:32:32.000Z</time>
      </trkpt>
      <trkpt lat="45.80738" lon="1.90624">
        <ele>708.1</ele>
        <time>2026-07-07T09:32:33.000Z</time>
      </trkpt>
      <trkpt lat="45.80738" lon="1.90627">
        <ele>708.6</ele>
        <time>2026-07-07T09:32:34.000Z</time>
      </trkpt>
      <trkpt lat="45.80738" lon="1.90629">
        <ele>708.5</ele>
        <time>2026-07-07T09:32:35.000Z</time>
      </trkpt>
      <trkpt lat="45.80738" lon="1.90631">
        <ele>705.4</ele>
        <time>2026-07-07T09:32:36.000Z</time>
      </trkpt>
      <trkpt lat="45.80736" lon="1.90634">
        <ele>704.6</ele>
        <time>2026-07-07T09:32:37.000Z</time>
      </trkpt>
      <trkpt lat="45.80734" lon="1.90639">
        <ele>704.2</ele>
        <time>2026-07-07T09:32:38.000Z</time>
      </trkpt>
      <trkpt lat="45.80732" lon="1.90644">
        <ele>703.9</ele>
        <time>2026-07-07T09:32:39.000Z</time>
      </trkpt>
      <trkpt lat="45.80729" lon="1.90647">
        <ele>703.8</ele>
        <time>2026-07-07T09:32:40.000Z</time>
      </trkpt>
      <trkpt lat="45.80725" lon="1.90651">
        <ele>705.1</ele>
        <time>2026-07-07T09:32:41.000Z</time>
      </trkpt>
      <trkpt lat="45.80721" lon="1.90655">
        <ele>705.1</ele>
        <time>2026-07-07T09:32:42.000Z</time>
      </trkpt>
      <trkpt lat="45.80716" lon="1.90661">
        <ele>705.8</ele>
        <time>2026-07-07T09:32:43.000Z</time>
      </trkpt>
      <trkpt lat="45.80713" lon="1.90668">
        <ele>706.7</ele>
        <time>2026-07-07T09:32:44.000Z</time>
      </trkpt>
      <trkpt lat="45.80709" lon="1.90677">
        <ele>707.9</ele>
        <time>2026-07-07T09:32:45.000Z</time>
      </trkpt>
      <trkpt lat="45.80706" lon="1.90686">
        <ele>709.2</ele>
        <time>2026-07-07T09:32:46.000Z</time>
      </trkpt>
      <trkpt lat="45.80703" lon="1.90695">
        <ele>712.3</ele>
        <time>2026-07-07T09:32:47.000Z</time>
      </trkpt>
      <trkpt lat="45.80701" lon="1.90702">
        <ele>713.8</ele>
        <time>2026-07-07T09:32:48.000Z</time>
      </trkpt>
      <trkpt lat="45.80697" lon="1.9071">
        <ele>714.6</ele>
        <time>2026-07-07T09:32:49.000Z</time>
      </trkpt>
      <trkpt lat="45.80693" lon="1.90716">
        <ele>716.1</ele>
        <time>2026-07-07T09:32:50.000Z</time>
      </trkpt>
      <trkpt lat="45.80688" lon="1.90723">
        <ele>716.3</ele>
        <time>2026-07-07T09:32:51.000Z</time>
      </trkpt>
      <trkpt lat="45.80683" lon="1.90728">
        <ele>716.3</ele>
        <time>2026-07-07T09:32:52.000Z</time>
      </trkpt>
      <trkpt lat="45.80679" lon="1.90733">
        <ele>717.5</ele>
        <time>2026-07-07T09:32:53.000Z</time>
      </trkpt>
      <trkpt lat="45.80674" lon="1.90738">
        <ele>717.7</ele>
        <time>2026-07-07T09:32:54.000Z</time>
      </trkpt>
      <trkpt lat="45.80669" lon="1.90744">
        <ele>719.7</ele>
        <time>2026-07-07T09:32:55.000Z</time>
      </trkpt>
      <trkpt lat="45.80664" lon="1.90749">
        <ele>721.3</ele>
        <time>2026-07-07T09:32:56.000Z</time>
      </trkpt>
      <trkpt lat="45.8066" lon="1.90755">
        <ele>723.3</ele>
        <time>2026-07-07T09:32:57.000Z</time>
      </trkpt>
      <trkpt lat="45.80656" lon="1.9076">
        <ele>724.2</ele>
        <time>2026-07-07T09:32:58.000Z</time>
      </trkpt>
      <trkpt lat="45.80653" lon="1.90765">
        <ele>724.1</ele>
        <time>2026-07-07T09:32:59.000Z</time>
      </trkpt>
      <trkpt lat="45.8065" lon="1.9077">
        <ele>726.3</ele>
        <time>2026-07-07T09:33:00.000Z</time>
      </trkpt>
      <trkpt lat="45.80647" lon="1.90776">
        <ele>726.9</ele>
        <time>2026-07-07T09:33:01.000Z</time>
      </trkpt>
      <trkpt lat="45.80645" lon="1.90781">
        <ele>727.1</ele>
        <time>2026-07-07T09:33:02.000Z</time>
      </trkpt>
      <trkpt lat="45.80643" lon="1.90785">
        <ele>728.7</ele>
        <time>2026-07-07T09:33:03.000Z</time>
      </trkpt>
      <trkpt lat="45.80642" lon="1.90788">
        <ele>729.2</ele>
        <time>2026-07-07T09:33:04.000Z</time>
      </trkpt>
      <trkpt lat="45.8064" lon="1.90792">
        <ele>729.2</ele>
        <time>2026-07-07T09:33:05.000Z</time>
      </trkpt>
      <trkpt lat="45.80639" lon="1.90795">
        <ele>728.5</ele>
        <time>2026-07-07T09:33:06.000Z</time>
      </trkpt>
      <trkpt lat="45.80638" lon="1.90799">
        <ele>727.8</ele>
        <time>2026-07-07T09:33:07.000Z</time>
      </trkpt>
      <trkpt lat="45.80635" lon="1.90804">
        <ele>729.1</ele>
        <time>2026-07-07T09:33:08.000Z</time>
      </trkpt>
      <trkpt lat="45.80635" lon="1.90809">
        <ele>729.3</ele>
        <time>2026-07-07T09:33:09.000Z</time>
      </trkpt>
      <trkpt lat="45.80635" lon="1.90811">
        <ele>728.6</ele>
        <time>2026-07-07T09:33:10.000Z</time>
      </trkpt>
      <trkpt lat="45.80636" lon="1.90813">
        <ele>728.6</ele>
        <time>2026-07-07T09:33:11.000Z</time>
      </trkpt>
      <trkpt lat="45.80636" lon="1.90813">
        <ele>729.6</ele>
        <time>2026-07-07T09:33:12.000Z</time>
      </trkpt>
      <trkpt lat="45.80636" lon="1.90812">
        <ele>729.1</ele>
        <time>2026-07-07T09:33:13.000Z</time>
      </trkpt>
      <trkpt lat="45.80636" lon="1.9081">
        <ele>728.6</ele>
        <time>2026-07-07T09:33:14.000Z</time>
      </trkpt>
      <trkpt lat="45.80635" lon="1.90809">
        <ele>728.8</ele>
        <time>2026-07-07T09:33:15.000Z</time>
      </trkpt>
      <trkpt lat="45.80635" lon="1.90808">
        <ele>728.8</ele>
        <time>2026-07-07T09:33:16.000Z</time>
      </trkpt>
      <trkpt lat="45.80635" lon="1.90808">
        <ele>728.8</ele>
        <time>2026-07-07T09:33:17.000Z</time>
      </trkpt>
      <trkpt lat="45.80635" lon="1.90808">
        <ele>728.8</ele>
        <time>2026-07-07T09:33:18.000Z</time>
      </trkpt>
      <trkpt lat="45.80634" lon="1.90806">
        <ele>729.5</ele>
        <time>2026-07-07T09:33:19.000Z</time>
      </trkpt>
      <trkpt lat="45.80634" lon="1.90805">
        <ele>729.1</ele>
        <time>2026-07-07T09:33:20.000Z</time>
      </trkpt>
      <trkpt lat="45.80636" lon="1.90806">
        <ele>728.2</ele>
        <time>2026-07-07T09:33:21.000Z</time>
      </trkpt>
      <trkpt lat="45.80636" lon="1.90805">
        <ele>728.2</ele>
        <time>2026-07-07T09:33:22.000Z</time>
      </trkpt>
      <trkpt lat="45.80636" lon="1.90805">
        <ele>728.2</ele>
        <time>2026-07-07T09:33:23.000Z</time>
      </trkpt>
      <trkpt lat="45.80637" lon="1.90806">
        <ele>728.2</ele>
        <time>2026-07-07T09:33:24.000Z</time>
      </trkpt>
      <trkpt lat="45.80637" lon="1.90806">
        <ele>728.1</ele>
        <time>2026-07-07T09:33:25.000Z</time>
      </trkpt>
      <trkpt lat="45.80638" lon="1.90806">
        <ele>728.1</ele>
        <time>2026-07-07T09:33:26.000Z</time>
      </trkpt>
      <trkpt lat="45.80638" lon="1.90806">
        <ele>728.1</ele>
        <time>2026-07-07T09:33:27.000Z</time>
      </trkpt>
      <trkpt lat="45.80638" lon="1.90806">
        <ele>728.1</ele>
        <time>2026-07-07T09:33:28.000Z</time>
      </trkpt>
      <trkpt lat="45.80638" lon="1.90806">
        <ele>728.1</ele>
        <time>2026-07-07T09:33:29.000Z</time>
      </trkpt>
      <trkpt lat="45.80638" lon="1.90806">
        <ele>728.1</ele>
        <time>2026-07-07T09:33:30.000Z</time>
      </trkpt>
      <trkpt lat="45.80638" lon="1.90806">
        <ele>728.1</ele>
        <time>2026-07-07T09:33:31.000Z</time>
      </trkpt>
      <trkpt lat="45.80638" lon="1.90806">
        <ele>728.1</ele>
        <time>2026-07-07T09:33:32.000Z</time>
      </trkpt>
      <trkpt lat="45.80638" lon="1.90806">
        <ele>728.1</ele>
        <time>2026-07-07T09:33:33.000Z</time>
      </trkpt>
      <trkpt lat="45.80638" lon="1.90806">
        <ele>728.1</ele>
        <time>2026-07-07T09:33:34.000Z</time>
      </trkpt>
      <trkpt lat="45.80638" lon="1.90806">
        <ele>728.6</ele>
        <time>2026-07-07T09:33:35.000Z</time>
      </trkpt>
      <trkpt lat="45.80638" lon="1.90806">
        <ele>728.6</ele>
        <time>2026-07-07T09:33:36.000Z</time>
      </trkpt>
      <trkpt lat="45.80638" lon="1.90806">
        <ele>728.6</ele>
        <time>2026-07-07T09:33:37.000Z</time>
      </trkpt>
      <trkpt lat="45.80639" lon="1.90805">
        <ele>728.6</ele>
        <time>2026-07-07T09:33:38.000Z</time>
      </trkpt>
      <trkpt lat="45.80639" lon="1.90804">
        <ele>728</ele>
        <time>2026-07-07T09:33:39.000Z</time>
      </trkpt>
      <trkpt lat="45.80639" lon="1.90804">
        <ele>728</ele>
        <time>2026-07-07T09:33:40.000Z</time>
      </trkpt>
      <trkpt lat="45.80639" lon="1.90804">
        <ele>728</ele>
        <time>2026-07-07T09:33:41.000Z</time>
      </trkpt>
      <trkpt lat="45.80639" lon="1.90804">
        <ele>728</ele>
        <time>2026-07-07T09:33:42.000Z</time>
      </trkpt>
      <trkpt lat="45.80639" lon="1.90804">
        <ele>728</ele>
        <time>2026-07-07T09:33:43.000Z</time>
      </trkpt>
      <trkpt lat="45.80639" lon="1.90804">
        <ele>728</ele>
        <time>2026-07-07T09:33:44.000Z</time>
      </trkpt>
      <trkpt lat="45.80639" lon="1.90804">
        <ele>727.9</ele>
        <time>2026-07-07T09:33:45.000Z</time>
      </trkpt>
      <trkpt lat="45.80639" lon="1.90804">
        <ele>728</ele>
        <time>2026-07-07T09:33:46.000Z</time>
      </trkpt>
      <trkpt lat="45.80639" lon="1.90804">
        <ele>728</ele>
        <time>2026-07-07T09:33:47.000Z</time>
      </trkpt>
      <trkpt lat="45.80639" lon="1.90804">
        <ele>728</ele>
        <time>2026-07-07T09:33:48.000Z</time>
      </trkpt>
      <trkpt lat="45.80639" lon="1.90804">
        <ele>728</ele>
        <time>2026-07-07T09:33:49.000Z</time>
      </trkpt>
      <trkpt lat="45.80639" lon="1.90804">
        <ele>728</ele>
        <time>2026-07-07T09:33:50.000Z</time>
      </trkpt>
      <trkpt lat="45.80639" lon="1.90804">
        <ele>728.1</ele>
        <time>2026-07-07T09:33:51.000Z</time>
      </trkpt>
      <trkpt lat="45.80639" lon="1.90804">
        <ele>728.1</ele>
        <time>2026-07-07T09:33:52.000Z</time>
      </trkpt>
      <trkpt lat="45.80639" lon="1.90804">
        <ele>728.1</ele>
        <time>2026-07-07T09:33:53.000Z</time>
      </trkpt>
      <trkpt lat="45.80639" lon="1.90804">
        <ele>728.1</ele>
        <time>2026-07-07T09:33:54.000Z</time>
      </trkpt>
      <trkpt lat="45.80639" lon="1.90804">
        <ele>728.1</ele>
        <time>2026-07-07T09:33:55.000Z</time>
      </trkpt>
      <trkpt lat="45.80639" lon="1.90804">
        <ele>728.1</ele>
        <time>2026-07-07T09:33:56.000Z</time>
      </trkpt>
      <trkpt lat="45.80639" lon="1.90804">
        <ele>728.2</ele>
        <time>2026-07-07T09:33:57.000Z</time>
      </trkpt>
      <trkpt lat="45.80639" lon="1.90804">
        <ele>728.2</ele>
        <time>2026-07-07T09:33:58.000Z</time>
      </trkpt>
      <trkpt lat="45.80639" lon="1.90804">
        <ele>728.2</ele>
        <time>2026-07-07T09:33:59.000Z</time>
      </trkpt>
      <trkpt lat="45.80639" lon="1.90804">
        <ele>728.2</ele>
        <time>2026-07-07T09:34:00.000Z</time>
      </trkpt>
      <trkpt lat="45.80639" lon="1.90804">
        <ele>728.2</ele>
        <time>2026-07-07T09:34:01.000Z</time>
      </trkpt>
      <trkpt lat="45.80639" lon="1.90804">
        <ele>728.2</ele>
        <time>2026-07-07T09:34:02.000Z</time>
      </trkpt>
      <trkpt lat="45.80639" lon="1.90804">
        <ele>728.2</ele>
        <time>2026-07-07T09:34:03.000Z</time>
      </trkpt>
      <trkpt lat="45.80639" lon="1.90804">
        <ele>728.2</ele>
        <time>2026-07-07T09:34:04.000Z</time>
      </trkpt>
      <trkpt lat="45.80639" lon="1.90804">
        <ele>728.2</ele>
        <time>2026-07-07T09:34:05.000Z</time>
      </trkpt>
      <trkpt lat="45.80639" lon="1.90804">
        <ele>728.2</ele>
        <time>2026-07-07T09:34:06.000Z</time>
      </trkpt>
      <trkpt lat="45.80639" lon="1.90804">
        <ele>728.2</ele>
        <time>2026-07-07T09:34:07.000Z</time>
      </trkpt>
      <trkpt lat="45.80639" lon="1.90804">
        <ele>728.2</ele>
        <time>2026-07-07T09:34:08.000Z</time>
      </trkpt>
      <trkpt lat="45.80639" lon="1.90804">
        <ele>728.2</ele>
        <time>2026-07-07T09:34:09.000Z</time>
      </trkpt>
      <trkpt lat="45.80639" lon="1.90804">
        <ele>728.2</ele>
        <time>2026-07-07T09:34:10.000Z</time>
      </trkpt>
      <trkpt lat="45.80639" lon="1.90804">
        <ele>728.2</ele>
        <time>2026-07-07T09:34:11.000Z</time>
      </trkpt>
      <trkpt lat="45.80639" lon="1.90804">
        <ele>728.2</ele>
        <time>2026-07-07T09:34:12.000Z</time>
      </trkpt>
      <trkpt lat="45.80639" lon="1.90804">
        <ele>728.2</ele>
        <time>2026-07-07T09:34:13.000Z</time>
      </trkpt>
      <trkpt lat="45.80639" lon="1.90804">
        <ele>728.2</ele>
        <time>2026-07-07T09:34:14.000Z</time>
      </trkpt>
      <trkpt lat="45.80639" lon="1.90804">
        <ele>728.2</ele>
        <time>2026-07-07T09:34:15.000Z</time>
      </trkpt>
      <trkpt lat="45.80639" lon="1.90804">
        <ele>728.2</ele>
        <time>2026-07-07T09:34:16.000Z</time>
      </trkpt>
      <trkpt lat="45.80639" lon="1.90804">
        <ele>728.2</ele>
        <time>2026-07-07T09:34:17.000Z</time>
      </trkpt>
      <trkpt lat="45.80639" lon="1.90804">
        <ele>728.2</ele>
        <time>2026-07-07T09:34:18.000Z</time>
      </trkpt>
      <trkpt lat="45.80639" lon="1.90804">
        <ele>728.1</ele>
        <time>2026-07-07T09:34:19.000Z</time>
      </trkpt>
      <trkpt lat="45.80639" lon="1.90804">
        <ele>728.1</ele>
        <time>2026-07-07T09:34:20.000Z</time>
      </trkpt>
      <trkpt lat="45.80639" lon="1.90804">
        <ele>728.1</ele>
        <time>2026-07-07T09:34:21.000Z</time>
      </trkpt>
      <trkpt lat="45.80639" lon="1.90804">
        <ele>728.1</ele>
        <time>2026-07-07T09:34:22.000Z</time>
      </trkpt>
      <trkpt lat="45.80639" lon="1.90804">
        <ele>728.1</ele>
        <time>2026-07-07T09:34:23.000Z</time>
      </trkpt>
      <trkpt lat="45.80639" lon="1.90804">
        <ele>728.1</ele>
        <time>2026-07-07T09:34:24.000Z</time>
      </trkpt>
      <trkpt lat="45.80639" lon="1.90804">
        <ele>728.1</ele>
        <time>2026-07-07T09:34:25.000Z</time>
      </trkpt>
      <trkpt lat="45.80639" lon="1.90804">
        <ele>728.1</ele>
        <time>2026-07-07T09:34:26.000Z</time>
      </trkpt>
      <trkpt lat="45.80639" lon="1.90804">
        <ele>728.1</ele>
        <time>2026-07-07T09:34:27.000Z</time>
      </trkpt>
      <trkpt lat="45.80639" lon="1.90804">
        <ele>728.1</ele>
        <time>2026-07-07T09:34:28.000Z</time>
      </trkpt>
      <trkpt lat="45.80639" lon="1.90804">
        <ele>728.2</ele>
        <time>2026-07-07T09:34:29.000Z</time>
      </trkpt>
      <trkpt lat="45.80639" lon="1.90804">
        <ele>728.2</ele>
        <time>2026-07-07T09:34:30.000Z</time>
      </trkpt>
      <trkpt lat="45.80639" lon="1.90804">
        <ele>728.2</ele>
        <time>2026-07-07T09:34:31.000Z</time>
      </trkpt>
      <trkpt lat="45.80639" lon="1.90804">
        <ele>728.2</ele>
        <time>2026-07-07T09:34:32.000Z</time>
      </trkpt>
      <trkpt lat="45.80639" lon="1.90804">
        <ele>728.2</ele>
        <time>2026-07-07T09:34:33.000Z</time>
      </trkpt>
      <trkpt lat="45.80639" lon="1.90804">
        <ele>728.2</ele>
        <time>2026-07-07T09:34:34.000Z</time>
      </trkpt>
      <trkpt lat="45.80639" lon="1.90804">
        <ele>728.2</ele>
        <time>2026-07-07T09:34:35.000Z</time>
      </trkpt>
      <trkpt lat="45.80639" lon="1.90804">
        <ele>728.2</ele>
        <time>2026-07-07T09:34:36.000Z</time>
      </trkpt>
      <trkpt lat="45.80639" lon="1.90804">
        <ele>728.2</ele>
        <time>2026-07-07T09:34:37.000Z</time>
      </trkpt>
      <trkpt lat="45.80639" lon="1.90804">
        <ele>728.2</ele>
        <time>2026-07-07T09:34:38.000Z</time>
      </trkpt>
      <trkpt lat="45.80639" lon="1.90804">
        <ele>728.2</ele>
        <time>2026-07-07T09:34:39.000Z</time>
      </trkpt>
      <trkpt lat="45.80639" lon="1.90804">
        <ele>728.2</ele>
        <time>2026-07-07T09:34:40.000Z</time>
      </trkpt>
      <trkpt lat="45.80639" lon="1.90804">
        <ele>728.2</ele>
        <time>2026-07-07T09:34:41.000Z</time>
      </trkpt>
      <trkpt lat="45.80639" lon="1.90804">
        <ele>728.2</ele>
        <time>2026-07-07T09:34:42.000Z</time>
      </trkpt>
      <trkpt lat="45.80639" lon="1.90804">
        <ele>728.2</ele>
        <time>2026-07-07T09:34:43.000Z</time>
      </trkpt>
      <trkpt lat="45.80639" lon="1.90804">
        <ele>728.2</ele>
        <time>2026-07-07T09:34:44.000Z</time>
      </trkpt>
      <trkpt lat="45.80639" lon="1.90804">
        <ele>728.2</ele>
        <time>2026-07-07T09:34:45.000Z</time>
      </trkpt>
      <trkpt lat="45.80639" lon="1.90804">
        <ele>728.2</ele>
        <time>2026-07-07T09:34:46.000Z</time>
      </trkpt>
      <trkpt lat="45.80639" lon="1.90804">
        <ele>728.2</ele>
        <time>2026-07-07T09:34:47.000Z</time>
      </trkpt>
      <trkpt lat="45.80639" lon="1.90804">
        <ele>728.2</ele>
        <time>2026-07-07T09:34:48.000Z</time>
      </trkpt>
      <trkpt lat="45.80639" lon="1.90804">
        <ele>728.2</ele>
        <time>2026-07-07T09:34:49.000Z</time>
      </trkpt>
      <trkpt lat="45.80639" lon="1.90804">
        <ele>728.2</ele>
        <time>2026-07-07T09:34:50.000Z</time>
      </trkpt>
      <trkpt lat="45.80639" lon="1.90804">
        <ele>728.2</ele>
        <time>2026-07-07T09:34:51.000Z</time>
      </trkpt>
      <trkpt lat="45.80639" lon="1.90804">
        <ele>728.2</ele>
        <time>2026-07-07T09:34:52.000Z</time>
      </trkpt>
      <trkpt lat="45.80639" lon="1.90804">
        <ele>728.2</ele>
        <time>2026-07-07T09:34:53.000Z</time>
      </trkpt>
      <trkpt lat="45.80639" lon="1.90804">
        <ele>728.2</ele>
        <time>2026-07-07T09:34:54.000Z</time>
      </trkpt>
      <trkpt lat="45.80639" lon="1.90804">
        <ele>728.2</ele>
        <time>2026-07-07T09:34:55.000Z</time>
      </trkpt>
      <trkpt lat="45.80639" lon="1.90804">
        <ele>728.2</ele>
        <time>2026-07-07T09:34:56.000Z</time>
      </trkpt>
      <trkpt lat="45.80639" lon="1.90804">
        <ele>728.2</ele>
        <time>2026-07-07T09:34:57.000Z</time>
      </trkpt>
      <trkpt lat="45.80639" lon="1.90804">
        <ele>728.2</ele>
        <time>2026-07-07T09:34:58.000Z</time>
      </trkpt>
      <trkpt lat="45.80639" lon="1.90804">
        <ele>728.2</ele>
        <time>2026-07-07T09:34:59.000Z</time>
      </trkpt>
      <trkpt lat="45.80639" lon="1.90803">
        <ele>728.6</ele>
        <time>2026-07-07T09:35:00.000Z</time>
      </trkpt>
      <trkpt lat="45.80638" lon="1.90803">
        <ele>729.1</ele>
        <time>2026-07-07T09:35:01.000Z</time>
      </trkpt>
      <trkpt lat="45.80636" lon="1.90804">
        <ele>729.3</ele>
        <time>2026-07-07T09:35:02.000Z</time>
      </trkpt>
      <trkpt lat="45.80635" lon="1.90806">
        <ele>729.7</ele>
        <time>2026-07-07T09:35:03.000Z</time>
      </trkpt>
      <trkpt lat="45.80634" lon="1.90808">
        <ele>729.7</ele>
        <time>2026-07-07T09:35:04.000Z</time>
      </trkpt>
      <trkpt lat="45.80633" lon="1.9081">
        <ele>730</ele>
        <time>2026-07-07T09:35:05.000Z</time>
      </trkpt>
      <trkpt lat="45.80632" lon="1.90812">
        <ele>730.1</ele>
        <time>2026-07-07T09:35:06.000Z</time>
      </trkpt>
      <trkpt lat="45.80632" lon="1.90814">
        <ele>730.3</ele>
        <time>2026-07-07T09:35:07.000Z</time>
      </trkpt>
      <trkpt lat="45.80631" lon="1.90816">
        <ele>731.3</ele>
        <time>2026-07-07T09:35:08.000Z</time>
      </trkpt>
      <trkpt lat="45.8063" lon="1.90819">
        <ele>732.1</ele>
        <time>2026-07-07T09:35:09.000Z</time>
      </trkpt>
      <trkpt lat="45.80629" lon="1.90821">
        <ele>732.7</ele>
        <time>2026-07-07T09:35:10.000Z</time>
      </trkpt>
      <trkpt lat="45.80628" lon="1.90824">
        <ele>732.4</ele>
        <time>2026-07-07T09:35:11.000Z</time>
      </trkpt>
      <trkpt lat="45.80627" lon="1.90826">
        <ele>732.2</ele>
        <time>2026-07-07T09:35:12.000Z</time>
      </trkpt>
      <trkpt lat="45.80627" lon="1.90829">
        <ele>732.1</ele>
        <time>2026-07-07T09:35:13.000Z</time>
      </trkpt>
      <trkpt lat="45.80626" lon="1.90832">
        <ele>732.3</ele>
        <time>2026-07-07T09:35:14.000Z</time>
      </trkpt>
      <trkpt lat="45.80625" lon="1.90835">
        <ele>732.8</ele>
        <time>2026-07-07T09:35:15.000Z</time>
      </trkpt>
      <trkpt lat="45.80623" lon="1.90838">
        <ele>734.2</ele>
        <time>2026-07-07T09:35:16.000Z</time>
      </trkpt>
      <trkpt lat="45.80627" lon="1.90845">
        <ele>732.8</ele>
        <time>2026-07-07T09:35:17.000Z</time>
      </trkpt>
      <trkpt lat="45.80623" lon="1.90842">
        <ele>734.2</ele>
        <time>2026-07-07T09:35:18.000Z</time>
      </trkpt>
      <trkpt lat="45.80622" lon="1.90844">
        <ele>735.7</ele>
        <time>2026-07-07T09:35:19.000Z</time>
      </trkpt>
      <trkpt lat="45.80622" lon="1.90843">
        <ele>735.9</ele>
        <time>2026-07-07T09:35:20.000Z</time>
      </trkpt>
      <trkpt lat="45.80622" lon="1.90845">
        <ele>735.9</ele>
        <time>2026-07-07T09:35:21.000Z</time>
      </trkpt>
      <trkpt lat="45.80623" lon="1.90849">
        <ele>734.8</ele>
        <time>2026-07-07T09:35:22.000Z</time>
      </trkpt>
      <trkpt lat="45.80623" lon="1.90852">
        <ele>734.5</ele>
        <time>2026-07-07T09:35:23.000Z</time>
      </trkpt>
      <trkpt lat="45.80623" lon="1.90854">
        <ele>734.5</ele>
        <time>2026-07-07T09:35:24.000Z</time>
      </trkpt>
      <trkpt lat="45.80623" lon="1.90856">
        <ele>734.9</ele>
        <time>2026-07-07T09:35:25.000Z</time>
      </trkpt>
      <trkpt lat="45.80622" lon="1.90858">
        <ele>737.5</ele>
        <time>2026-07-07T09:35:26.000Z</time>
      </trkpt>
      <trkpt lat="45.80622" lon="1.9086">
        <ele>737.8</ele>
        <time>2026-07-07T09:35:27.000Z</time>
      </trkpt>
      <trkpt lat="45.80621" lon="1.90862">
        <ele>737.8</ele>
        <time>2026-07-07T09:35:28.000Z</time>
      </trkpt>
      <trkpt lat="45.80621" lon="1.90864">
        <ele>738</ele>
        <time>2026-07-07T09:35:29.000Z</time>
      </trkpt>
      <trkpt lat="45.8062" lon="1.90865">
        <ele>739.2</ele>
        <time>2026-07-07T09:35:30.000Z</time>
      </trkpt>
      <trkpt lat="45.8062" lon="1.90868">
        <ele>738.3</ele>
        <time>2026-07-07T09:35:31.000Z</time>
      </trkpt>
      <trkpt lat="45.8062" lon="1.90871">
        <ele>740.3</ele>
        <time>2026-07-07T09:35:32.000Z</time>
      </trkpt>
      <trkpt lat="45.80619" lon="1.90874">
        <ele>739.7</ele>
        <time>2026-07-07T09:35:33.000Z</time>
      </trkpt>
      <trkpt lat="45.80619" lon="1.90877">
        <ele>739.7</ele>
        <time>2026-07-07T09:35:34.000Z</time>
      </trkpt>
      <trkpt lat="45.80618" lon="1.90879">
        <ele>739.3</ele>
        <time>2026-07-07T09:35:35.000Z</time>
      </trkpt>
      <trkpt lat="45.80617" lon="1.90882">
        <ele>739.9</ele>
        <time>2026-07-07T09:35:36.000Z</time>
      </trkpt>
      <trkpt lat="45.80617" lon="1.90884">
        <ele>739.7</ele>
        <time>2026-07-07T09:35:37.000Z</time>
      </trkpt>
      <trkpt lat="45.80616" lon="1.90886">
        <ele>739.5</ele>
        <time>2026-07-07T09:35:38.000Z</time>
      </trkpt>
      <trkpt lat="45.80616" lon="1.90889">
        <ele>739.4</ele>
        <time>2026-07-07T09:35:39.000Z</time>
      </trkpt>
      <trkpt lat="45.80616" lon="1.90891">
        <ele>739.2</ele>
        <time>2026-07-07T09:35:40.000Z</time>
      </trkpt>
      <trkpt lat="45.80616" lon="1.90893">
        <ele>739.2</ele>
        <time>2026-07-07T09:35:41.000Z</time>
      </trkpt>
      <trkpt lat="45.80616" lon="1.90895">
        <ele>739.5</ele>
        <time>2026-07-07T09:35:42.000Z</time>
      </trkpt>
      <trkpt lat="45.80616" lon="1.90897">
        <ele>739.5</ele>
        <time>2026-07-07T09:35:43.000Z</time>
      </trkpt>
      <trkpt lat="45.80615" lon="1.909">
        <ele>739.1</ele>
        <time>2026-07-07T09:35:44.000Z</time>
      </trkpt>
      <trkpt lat="45.80615" lon="1.90902">
        <ele>739.3</ele>
        <time>2026-07-07T09:35:45.000Z</time>
      </trkpt>
      <trkpt lat="45.80615" lon="1.90904">
        <ele>739.6</ele>
        <time>2026-07-07T09:35:46.000Z</time>
      </trkpt>
      <trkpt lat="45.80614" lon="1.90906">
        <ele>739.9</ele>
        <time>2026-07-07T09:35:47.000Z</time>
      </trkpt>
      <trkpt lat="45.80614" lon="1.90908">
        <ele>740.2</ele>
        <time>2026-07-07T09:35:48.000Z</time>
      </trkpt>
      <trkpt lat="45.80614" lon="1.90911">
        <ele>741.5</ele>
        <time>2026-07-07T09:35:49.000Z</time>
      </trkpt>
      <trkpt lat="45.80613" lon="1.90913">
        <ele>742.4</ele>
        <time>2026-07-07T09:35:50.000Z</time>
      </trkpt>
      <trkpt lat="45.80613" lon="1.90915">
        <ele>743.2</ele>
        <time>2026-07-07T09:35:51.000Z</time>
      </trkpt>
      <trkpt lat="45.80613" lon="1.90917">
        <ele>743.6</ele>
        <time>2026-07-07T09:35:52.000Z</time>
      </trkpt>
      <trkpt lat="45.80613" lon="1.9092">
        <ele>743.4</ele>
        <time>2026-07-07T09:35:53.000Z</time>
      </trkpt>
      <trkpt lat="45.80613" lon="1.90922">
        <ele>743.4</ele>
        <time>2026-07-07T09:35:54.000Z</time>
      </trkpt>
      <trkpt lat="45.80613" lon="1.90923">
        <ele>742.9</ele>
        <time>2026-07-07T09:35:55.000Z</time>
      </trkpt>
      <trkpt lat="45.80613" lon="1.90926">
        <ele>742.6</ele>
        <time>2026-07-07T09:35:56.000Z</time>
      </trkpt>
      <trkpt lat="45.80613" lon="1.90928">
        <ele>742.8</ele>
        <time>2026-07-07T09:35:57.000Z</time>
      </trkpt>
      <trkpt lat="45.80613" lon="1.90931">
        <ele>742.8</ele>
        <time>2026-07-07T09:35:58.000Z</time>
      </trkpt>
      <trkpt lat="45.80613" lon="1.90934">
        <ele>742.9</ele>
        <time>2026-07-07T09:35:59.000Z</time>
      </trkpt>
      <trkpt lat="45.80614" lon="1.90936">
        <ele>742.9</ele>
        <time>2026-07-07T09:36:00.000Z</time>
      </trkpt>
      <trkpt lat="45.80613" lon="1.90939">
        <ele>743.2</ele>
        <time>2026-07-07T09:36:01.000Z</time>
      </trkpt>
      <trkpt lat="45.80613" lon="1.90941">
        <ele>743.8</ele>
        <time>2026-07-07T09:36:02.000Z</time>
      </trkpt>
      <trkpt lat="45.80613" lon="1.90943">
        <ele>744</ele>
        <time>2026-07-07T09:36:03.000Z</time>
      </trkpt>
      <trkpt lat="45.80613" lon="1.90945">
        <ele>744</ele>
        <time>2026-07-07T09:36:04.000Z</time>
      </trkpt>
      <trkpt lat="45.80613" lon="1.90947">
        <ele>744.2</ele>
        <time>2026-07-07T09:36:05.000Z</time>
      </trkpt>
      <trkpt lat="45.80613" lon="1.9095">
        <ele>744.6</ele>
        <time>2026-07-07T09:36:06.000Z</time>
      </trkpt>
      <trkpt lat="45.80613" lon="1.90952">
        <ele>744.7</ele>
        <time>2026-07-07T09:36:07.000Z</time>
      </trkpt>
      <trkpt lat="45.80613" lon="1.90954">
        <ele>744.9</ele>
        <time>2026-07-07T09:36:08.000Z</time>
      </trkpt>
      <trkpt lat="45.80613" lon="1.90957">
        <ele>745</ele>
        <time>2026-07-07T09:36:09.000Z</time>
      </trkpt>
      <trkpt lat="45.80613" lon="1.90959">
        <ele>745.1</ele>
        <time>2026-07-07T09:36:10.000Z</time>
      </trkpt>
      <trkpt lat="45.80614" lon="1.90961">
        <ele>744.8</ele>
        <time>2026-07-07T09:36:11.000Z</time>
      </trkpt>
      <trkpt lat="45.80614" lon="1.90964">
        <ele>744.8</ele>
        <time>2026-07-07T09:36:12.000Z</time>
      </trkpt>
      <trkpt lat="45.80614" lon="1.90966">
        <ele>745</ele>
        <time>2026-07-07T09:36:13.000Z</time>
      </trkpt>
      <trkpt lat="45.80614" lon="1.90969">
        <ele>745.2</ele>
        <time>2026-07-07T09:36:14.000Z</time>
      </trkpt>
      <trkpt lat="45.80614" lon="1.90971">
        <ele>746.1</ele>
        <time>2026-07-07T09:36:15.000Z</time>
      </trkpt>
      <trkpt lat="45.80614" lon="1.90974">
        <ele>746.3</ele>
        <time>2026-07-07T09:36:16.000Z</time>
      </trkpt>
      <trkpt lat="45.80614" lon="1.90977">
        <ele>747.8</ele>
        <time>2026-07-07T09:36:17.000Z</time>
      </trkpt>
      <trkpt lat="45.80614" lon="1.9098">
        <ele>747.8</ele>
        <time>2026-07-07T09:36:18.000Z</time>
      </trkpt>
      <trkpt lat="45.80614" lon="1.90982">
        <ele>748</ele>
        <time>2026-07-07T09:36:19.000Z</time>
      </trkpt>
      <trkpt lat="45.80614" lon="1.90984">
        <ele>748.7</ele>
        <time>2026-07-07T09:36:20.000Z</time>
      </trkpt>
      <trkpt lat="45.80614" lon="1.90986">
        <ele>748.8</ele>
        <time>2026-07-07T09:36:21.000Z</time>
      </trkpt>
      <trkpt lat="45.80614" lon="1.90989">
        <ele>749.2</ele>
        <time>2026-07-07T09:36:22.000Z</time>
      </trkpt>
      <trkpt lat="45.80614" lon="1.90991">
        <ele>749</ele>
        <time>2026-07-07T09:36:23.000Z</time>
      </trkpt>
      <trkpt lat="45.80614" lon="1.90993">
        <ele>749.3</ele>
        <time>2026-07-07T09:36:24.000Z</time>
      </trkpt>
      <trkpt lat="45.80614" lon="1.90995">
        <ele>751.5</ele>
        <time>2026-07-07T09:36:25.000Z</time>
      </trkpt>
      <trkpt lat="45.80614" lon="1.90997">
        <ele>751.8</ele>
        <time>2026-07-07T09:36:26.000Z</time>
      </trkpt>
      <trkpt lat="45.80614" lon="1.90999">
        <ele>751.8</ele>
        <time>2026-07-07T09:36:27.000Z</time>
      </trkpt>
      <trkpt lat="45.80614" lon="1.91001">
        <ele>751.7</ele>
        <time>2026-07-07T09:36:28.000Z</time>
      </trkpt>
      <trkpt lat="45.80614" lon="1.91003">
        <ele>752.3</ele>
        <time>2026-07-07T09:36:29.000Z</time>
      </trkpt>
      <trkpt lat="45.80614" lon="1.91005">
        <ele>752.8</ele>
        <time>2026-07-07T09:36:30.000Z</time>
      </trkpt>
      <trkpt lat="45.80615" lon="1.91007">
        <ele>753.2</ele>
        <time>2026-07-07T09:36:31.000Z</time>
      </trkpt>
      <trkpt lat="45.80617" lon="1.91008">
        <ele>753.9</ele>
        <time>2026-07-07T09:36:32.000Z</time>
      </trkpt>
      <trkpt lat="45.80617" lon="1.91009">
        <ele>756.4</ele>
        <time>2026-07-07T09:36:33.000Z</time>
      </trkpt>
      <trkpt lat="45.80617" lon="1.91011">
        <ele>756.7</ele>
        <time>2026-07-07T09:36:34.000Z</time>
      </trkpt>
      <trkpt lat="45.80617" lon="1.91014">
        <ele>757</ele>
        <time>2026-07-07T09:36:35.000Z</time>
      </trkpt>
      <trkpt lat="45.80617" lon="1.91016">
        <ele>758.7</ele>
        <time>2026-07-07T09:36:36.000Z</time>
      </trkpt>
      <trkpt lat="45.80616" lon="1.91019">
        <ele>758.2</ele>
        <time>2026-07-07T09:36:37.000Z</time>
      </trkpt>
      <trkpt lat="45.80616" lon="1.91021">
        <ele>758.1</ele>
        <time>2026-07-07T09:36:38.000Z</time>
      </trkpt>
      <trkpt lat="45.80616" lon="1.91023">
        <ele>758.6</ele>
        <time>2026-07-07T09:36:39.000Z</time>
      </trkpt>
      <trkpt lat="45.80617" lon="1.91025">
        <ele>758.7</ele>
        <time>2026-07-07T09:36:40.000Z</time>
      </trkpt>
      <trkpt lat="45.80617" lon="1.91027">
        <ele>759</ele>
        <time>2026-07-07T09:36:41.000Z</time>
      </trkpt>
      <trkpt lat="45.80617" lon="1.91029">
        <ele>759.6</ele>
        <time>2026-07-07T09:36:42.000Z</time>
      </trkpt>
      <trkpt lat="45.80617" lon="1.91031">
        <ele>759.9</ele>
        <time>2026-07-07T09:36:43.000Z</time>
      </trkpt>
      <trkpt lat="45.80618" lon="1.91034">
        <ele>760.5</ele>
        <time>2026-07-07T09:36:44.000Z</time>
      </trkpt>
      <trkpt lat="45.80618" lon="1.91037">
        <ele>761.3</ele>
        <time>2026-07-07T09:36:45.000Z</time>
      </trkpt>
      <trkpt lat="45.80618" lon="1.91039">
        <ele>762.4</ele>
        <time>2026-07-07T09:36:46.000Z</time>
      </trkpt>
      <trkpt lat="45.80619" lon="1.91041">
        <ele>762.2</ele>
        <time>2026-07-07T09:36:47.000Z</time>
      </trkpt>
      <trkpt lat="45.8062" lon="1.91043">
        <ele>761.9</ele>
        <time>2026-07-07T09:36:48.000Z</time>
      </trkpt>
      <trkpt lat="45.80622" lon="1.91044">
        <ele>762</ele>
        <time>2026-07-07T09:36:49.000Z</time>
      </trkpt>
      <trkpt lat="45.80623" lon="1.91046">
        <ele>761.8</ele>
        <time>2026-07-07T09:36:50.000Z</time>
      </trkpt>
      <trkpt lat="45.80624" lon="1.91047">
        <ele>761.6</ele>
        <time>2026-07-07T09:36:51.000Z</time>
      </trkpt>
      <trkpt lat="45.80625" lon="1.91049">
        <ele>761.2</ele>
        <time>2026-07-07T09:36:52.000Z</time>
      </trkpt>
      <trkpt lat="45.80626" lon="1.9105">
        <ele>760.8</ele>
        <time>2026-07-07T09:36:53.000Z</time>
      </trkpt>
      <trkpt lat="45.80627" lon="1.91052">
        <ele>760.7</ele>
        <time>2026-07-07T09:36:54.000Z</time>
      </trkpt>
      <trkpt lat="45.80628" lon="1.91053">
        <ele>760.4</ele>
        <time>2026-07-07T09:36:55.000Z</time>
      </trkpt>
      <trkpt lat="45.80629" lon="1.91055">
        <ele>759.9</ele>
        <time>2026-07-07T09:36:56.000Z</time>
      </trkpt>
      <trkpt lat="45.8063" lon="1.91055">
        <ele>759.2</ele>
        <time>2026-07-07T09:36:57.000Z</time>
      </trkpt>
      <trkpt lat="45.80631" lon="1.91056">
        <ele>759.6</ele>
        <time>2026-07-07T09:36:58.000Z</time>
      </trkpt>
      <trkpt lat="45.80632" lon="1.91057">
        <ele>759.5</ele>
        <time>2026-07-07T09:36:59.000Z</time>
      </trkpt>
      <trkpt lat="45.80634" lon="1.91057">
        <ele>759.4</ele>
        <time>2026-07-07T09:37:00.000Z</time>
      </trkpt>
      <trkpt lat="45.80635" lon="1.91058">
        <ele>758.5</ele>
        <time>2026-07-07T09:37:01.000Z</time>
      </trkpt>
      <trkpt lat="45.80636" lon="1.91058">
        <ele>757.6</ele>
        <time>2026-07-07T09:37:02.000Z</time>
      </trkpt>
      <trkpt lat="45.80637" lon="1.91058">
        <ele>758</ele>
        <time>2026-07-07T09:37:03.000Z</time>
      </trkpt>
      <trkpt lat="45.80638" lon="1.91059">
        <ele>759.3</ele>
        <time>2026-07-07T09:37:04.000Z</time>
      </trkpt>
      <trkpt lat="45.80639" lon="1.91061">
        <ele>759.1</ele>
        <time>2026-07-07T09:37:05.000Z</time>
      </trkpt>
      <trkpt lat="45.8064" lon="1.91063">
        <ele>760.5</ele>
        <time>2026-07-07T09:37:06.000Z</time>
      </trkpt>
      <trkpt lat="45.80641" lon="1.91064">
        <ele>760.1</ele>
        <time>2026-07-07T09:37:07.000Z</time>
      </trkpt>
      <trkpt lat="45.80643" lon="1.91064">
        <ele>759.5</ele>
        <time>2026-07-07T09:37:08.000Z</time>
      </trkpt>
      <trkpt lat="45.80644" lon="1.91064">
        <ele>758.7</ele>
        <time>2026-07-07T09:37:09.000Z</time>
      </trkpt>
      <trkpt lat="45.80645" lon="1.91064">
        <ele>757.4</ele>
        <time>2026-07-07T09:37:10.000Z</time>
      </trkpt>
      <trkpt lat="45.80646" lon="1.91064">
        <ele>756.1</ele>
        <time>2026-07-07T09:37:11.000Z</time>
      </trkpt>
      <trkpt lat="45.80647" lon="1.91063">
        <ele>754.7</ele>
        <time>2026-07-07T09:37:12.000Z</time>
      </trkpt>
      <trkpt lat="45.80648" lon="1.91063">
        <ele>753.5</ele>
        <time>2026-07-07T09:37:13.000Z</time>
      </trkpt>
      <trkpt lat="45.80649" lon="1.91064">
        <ele>753.4</ele>
        <time>2026-07-07T09:37:14.000Z</time>
      </trkpt>
      <trkpt lat="45.8065" lon="1.91066">
        <ele>753.6</ele>
        <time>2026-07-07T09:37:15.000Z</time>
      </trkpt>
      <trkpt lat="45.80651" lon="1.91069">
        <ele>754.1</ele>
        <time>2026-07-07T09:37:16.000Z</time>
      </trkpt>
      <trkpt lat="45.80652" lon="1.91071">
        <ele>753.3</ele>
        <time>2026-07-07T09:37:17.000Z</time>
      </trkpt>
      <trkpt lat="45.80653" lon="1.91074">
        <ele>753.6</ele>
        <time>2026-07-07T09:37:18.000Z</time>
      </trkpt>
      <trkpt lat="45.80653" lon="1.91077">
        <ele>753.3</ele>
        <time>2026-07-07T09:37:19.000Z</time>
      </trkpt>
      <trkpt lat="45.80654" lon="1.91079">
        <ele>752.2</ele>
        <time>2026-07-07T09:37:20.000Z</time>
      </trkpt>
      <trkpt lat="45.80654" lon="1.91081">
        <ele>752.1</ele>
        <time>2026-07-07T09:37:21.000Z</time>
      </trkpt>
      <trkpt lat="45.80655" lon="1.91083">
        <ele>752.3</ele>
        <time>2026-07-07T09:37:22.000Z</time>
      </trkpt>
      <trkpt lat="45.80655" lon="1.91086">
        <ele>752.2</ele>
        <time>2026-07-07T09:37:23.000Z</time>
      </trkpt>
      <trkpt lat="45.80656" lon="1.91088">
        <ele>752.1</ele>
        <time>2026-07-07T09:37:24.000Z</time>
      </trkpt>
      <trkpt lat="45.80657" lon="1.9109">
        <ele>753.7</ele>
        <time>2026-07-07T09:37:25.000Z</time>
      </trkpt>
      <trkpt lat="45.80657" lon="1.91093">
        <ele>754.3</ele>
        <time>2026-07-07T09:37:26.000Z</time>
      </trkpt>
      <trkpt lat="45.80657" lon="1.91095">
        <ele>754.6</ele>
        <time>2026-07-07T09:37:27.000Z</time>
      </trkpt>
      <trkpt lat="45.80658" lon="1.91098">
        <ele>754.5</ele>
        <time>2026-07-07T09:37:28.000Z</time>
      </trkpt>
      <trkpt lat="45.80658" lon="1.91101">
        <ele>754.5</ele>
        <time>2026-07-07T09:37:29.000Z</time>
      </trkpt>
      <trkpt lat="45.80659" lon="1.91104">
        <ele>754.2</ele>
        <time>2026-07-07T09:37:30.000Z</time>
      </trkpt>
      <trkpt lat="45.80659" lon="1.91107">
        <ele>755.8</ele>
        <time>2026-07-07T09:37:31.000Z</time>
      </trkpt>
      <trkpt lat="45.80659" lon="1.9111">
        <ele>755.1</ele>
        <time>2026-07-07T09:37:32.000Z</time>
      </trkpt>
      <trkpt lat="45.80659" lon="1.91113">
        <ele>754.6</ele>
        <time>2026-07-07T09:37:33.000Z</time>
      </trkpt>
      <trkpt lat="45.80659" lon="1.91116">
        <ele>754.6</ele>
        <time>2026-07-07T09:37:34.000Z</time>
      </trkpt>
      <trkpt lat="45.8066" lon="1.91118">
        <ele>753.9</ele>
        <time>2026-07-07T09:37:35.000Z</time>
      </trkpt>
      <trkpt lat="45.8066" lon="1.91121">
        <ele>753.8</ele>
        <time>2026-07-07T09:37:36.000Z</time>
      </trkpt>
      <trkpt lat="45.8066" lon="1.91123">
        <ele>753.8</ele>
        <time>2026-07-07T09:37:37.000Z</time>
      </trkpt>
      <trkpt lat="45.80661" lon="1.91125">
        <ele>753.5</ele>
        <time>2026-07-07T09:37:38.000Z</time>
      </trkpt>
      <trkpt lat="45.80661" lon="1.91127">
        <ele>753.3</ele>
        <time>2026-07-07T09:37:39.000Z</time>
      </trkpt>
      <trkpt lat="45.80662" lon="1.91129">
        <ele>753.2</ele>
        <time>2026-07-07T09:37:40.000Z</time>
      </trkpt>
      <trkpt lat="45.80662" lon="1.91131">
        <ele>753.7</ele>
        <time>2026-07-07T09:37:41.000Z</time>
      </trkpt>
      <trkpt lat="45.80662" lon="1.91133">
        <ele>753.2</ele>
        <time>2026-07-07T09:37:42.000Z</time>
      </trkpt>
      <trkpt lat="45.80663" lon="1.91135">
        <ele>753</ele>
        <time>2026-07-07T09:37:43.000Z</time>
      </trkpt>
      <trkpt lat="45.80663" lon="1.91137">
        <ele>752.8</ele>
        <time>2026-07-07T09:37:44.000Z</time>
      </trkpt>
      <trkpt lat="45.80664" lon="1.9114">
        <ele>752.7</ele>
        <time>2026-07-07T09:37:45.000Z</time>
      </trkpt>
      <trkpt lat="45.80664" lon="1.91141">
        <ele>752.4</ele>
        <time>2026-07-07T09:37:46.000Z</time>
      </trkpt>
      <trkpt lat="45.80664" lon="1.91143">
        <ele>752.1</ele>
        <time>2026-07-07T09:37:47.000Z</time>
      </trkpt>
      <trkpt lat="45.80664" lon="1.91145">
        <ele>752.2</ele>
        <time>2026-07-07T09:37:48.000Z</time>
      </trkpt>
      <trkpt lat="45.80665" lon="1.91147">
        <ele>752</ele>
        <time>2026-07-07T09:37:49.000Z</time>
      </trkpt>
      <trkpt lat="45.80665" lon="1.91149">
        <ele>751.9</ele>
        <time>2026-07-07T09:37:50.000Z</time>
      </trkpt>
      <trkpt lat="45.80665" lon="1.91152">
        <ele>752.3</ele>
        <time>2026-07-07T09:37:51.000Z</time>
      </trkpt>
      <trkpt lat="45.80665" lon="1.91154">
        <ele>752.7</ele>
        <time>2026-07-07T09:37:52.000Z</time>
      </trkpt>
      <trkpt lat="45.80665" lon="1.91156">
        <ele>752.6</ele>
        <time>2026-07-07T09:37:53.000Z</time>
      </trkpt>
      <trkpt lat="45.80664" lon="1.91159">
        <ele>752.9</ele>
        <time>2026-07-07T09:37:54.000Z</time>
      </trkpt>
      <trkpt lat="45.80664" lon="1.91162">
        <ele>753.2</ele>
        <time>2026-07-07T09:37:55.000Z</time>
      </trkpt>
      <trkpt lat="45.80664" lon="1.91164">
        <ele>752.9</ele>
        <time>2026-07-07T09:37:56.000Z</time>
      </trkpt>
      <trkpt lat="45.80663" lon="1.91166">
        <ele>753</ele>
        <time>2026-07-07T09:37:57.000Z</time>
      </trkpt>
      <trkpt lat="45.80663" lon="1.91169">
        <ele>754.5</ele>
        <time>2026-07-07T09:37:58.000Z</time>
      </trkpt>
      <trkpt lat="45.80662" lon="1.91171">
        <ele>755.9</ele>
        <time>2026-07-07T09:37:59.000Z</time>
      </trkpt>
      <trkpt lat="45.80662" lon="1.91174">
        <ele>757.5</ele>
        <time>2026-07-07T09:38:00.000Z</time>
      </trkpt>
      <trkpt lat="45.80662" lon="1.91176">
        <ele>757.6</ele>
        <time>2026-07-07T09:38:01.000Z</time>
      </trkpt>
      <trkpt lat="45.80661" lon="1.91178">
        <ele>757.4</ele>
        <time>2026-07-07T09:38:02.000Z</time>
      </trkpt>
      <trkpt lat="45.80661" lon="1.91181">
        <ele>757.2</ele>
        <time>2026-07-07T09:38:03.000Z</time>
      </trkpt>
      <trkpt lat="45.8066" lon="1.91183">
        <ele>757.3</ele>
        <time>2026-07-07T09:38:04.000Z</time>
      </trkpt>
      <trkpt lat="45.80659" lon="1.91186">
        <ele>758.4</ele>
        <time>2026-07-07T09:38:05.000Z</time>
      </trkpt>
      <trkpt lat="45.80657" lon="1.91189">
        <ele>758.7</ele>
        <time>2026-07-07T09:38:06.000Z</time>
      </trkpt>
      <trkpt lat="45.80656" lon="1.91192">
        <ele>759.2</ele>
        <time>2026-07-07T09:38:07.000Z</time>
      </trkpt>
      <trkpt lat="45.80655" lon="1.91194">
        <ele>760.2</ele>
        <time>2026-07-07T09:38:08.000Z</time>
      </trkpt>
      <trkpt lat="45.80654" lon="1.91197">
        <ele>759.5</ele>
        <time>2026-07-07T09:38:09.000Z</time>
      </trkpt>
      <trkpt lat="45.80654" lon="1.912">
        <ele>759.4</ele>
        <time>2026-07-07T09:38:10.000Z</time>
      </trkpt>
      <trkpt lat="45.80654" lon="1.91203">
        <ele>760.1</ele>
        <time>2026-07-07T09:38:11.000Z</time>
      </trkpt>
      <trkpt lat="45.80654" lon="1.91206">
        <ele>759.9</ele>
        <time>2026-07-07T09:38:12.000Z</time>
      </trkpt>
      <trkpt lat="45.80653" lon="1.91208">
        <ele>760.7</ele>
        <time>2026-07-07T09:38:13.000Z</time>
      </trkpt>
      <trkpt lat="45.80653" lon="1.9121">
        <ele>761</ele>
        <time>2026-07-07T09:38:14.000Z</time>
      </trkpt>
      <trkpt lat="45.80652" lon="1.91213">
        <ele>761.7</ele>
        <time>2026-07-07T09:38:15.000Z</time>
      </trkpt>
      <trkpt lat="45.80652" lon="1.91215">
        <ele>762.8</ele>
        <time>2026-07-07T09:38:16.000Z</time>
      </trkpt>
      <trkpt lat="45.80651" lon="1.91217">
        <ele>763.1</ele>
        <time>2026-07-07T09:38:17.000Z</time>
      </trkpt>
      <trkpt lat="45.80651" lon="1.9122">
        <ele>763.4</ele>
        <time>2026-07-07T09:38:18.000Z</time>
      </trkpt>
      <trkpt lat="45.8065" lon="1.91223">
        <ele>763.6</ele>
        <time>2026-07-07T09:38:19.000Z</time>
      </trkpt>
      <trkpt lat="45.8065" lon="1.91225">
        <ele>764.2</ele>
        <time>2026-07-07T09:38:20.000Z</time>
      </trkpt>
      <trkpt lat="45.80649" lon="1.91227">
        <ele>763.7</ele>
        <time>2026-07-07T09:38:21.000Z</time>
      </trkpt>
      <trkpt lat="45.80648" lon="1.9123">
        <ele>764.1</ele>
        <time>2026-07-07T09:38:22.000Z</time>
      </trkpt>
      <trkpt lat="45.80648" lon="1.91232">
        <ele>763.2</ele>
        <time>2026-07-07T09:38:23.000Z</time>
      </trkpt>
      <trkpt lat="45.80648" lon="1.91234">
        <ele>763.3</ele>
        <time>2026-07-07T09:38:24.000Z</time>
      </trkpt>
      <trkpt lat="45.80647" lon="1.91237">
        <ele>763.2</ele>
        <time>2026-07-07T09:38:25.000Z</time>
      </trkpt>
      <trkpt lat="45.80647" lon="1.91239">
        <ele>761.8</ele>
        <time>2026-07-07T09:38:26.000Z</time>
      </trkpt>
      <trkpt lat="45.80646" lon="1.91241">
        <ele>760.9</ele>
        <time>2026-07-07T09:38:27.000Z</time>
      </trkpt>
      <trkpt lat="45.80645" lon="1.91243">
        <ele>760.3</ele>
        <time>2026-07-07T09:38:28.000Z</time>
      </trkpt>
      <trkpt lat="45.80644" lon="1.91245">
        <ele>761.2</ele>
        <time>2026-07-07T09:38:29.000Z</time>
      </trkpt>
      <trkpt lat="45.80644" lon="1.91247">
        <ele>761.4</ele>
        <time>2026-07-07T09:38:30.000Z</time>
      </trkpt>
      <trkpt lat="45.80643" lon="1.91249">
        <ele>762.1</ele>
        <time>2026-07-07T09:38:31.000Z</time>
      </trkpt>
      <trkpt lat="45.80643" lon="1.91251">
        <ele>762</ele>
        <time>2026-07-07T09:38:32.000Z</time>
      </trkpt>
      <trkpt lat="45.80642" lon="1.91254">
        <ele>761.4</ele>
        <time>2026-07-07T09:38:33.000Z</time>
      </trkpt>
      <trkpt lat="45.80641" lon="1.91256">
        <ele>760.8</ele>
        <time>2026-07-07T09:38:34.000Z</time>
      </trkpt>
      <trkpt lat="45.8064" lon="1.91258">
        <ele>760.9</ele>
        <time>2026-07-07T09:38:35.000Z</time>
      </trkpt>
      <trkpt lat="45.8064" lon="1.9126">
        <ele>760.7</ele>
        <time>2026-07-07T09:38:36.000Z</time>
      </trkpt>
      <trkpt lat="45.80639" lon="1.91263">
        <ele>761.1</ele>
        <time>2026-07-07T09:38:37.000Z</time>
      </trkpt>
      <trkpt lat="45.80638" lon="1.91265">
        <ele>760.5</ele>
        <time>2026-07-07T09:38:38.000Z</time>
      </trkpt>
      <trkpt lat="45.80638" lon="1.91266">
        <ele>760.2</ele>
        <time>2026-07-07T09:38:39.000Z</time>
      </trkpt>
      <trkpt lat="45.80637" lon="1.91268">
        <ele>759.8</ele>
        <time>2026-07-07T09:38:40.000Z</time>
      </trkpt>
      <trkpt lat="45.80636" lon="1.91271">
        <ele>760</ele>
        <time>2026-07-07T09:38:41.000Z</time>
      </trkpt>
      <trkpt lat="45.80634" lon="1.91273">
        <ele>758.9</ele>
        <time>2026-07-07T09:38:42.000Z</time>
      </trkpt>
      <trkpt lat="45.80633" lon="1.91275">
        <ele>758.4</ele>
        <time>2026-07-07T09:38:43.000Z</time>
      </trkpt>
      <trkpt lat="45.80632" lon="1.91277">
        <ele>758.2</ele>
        <time>2026-07-07T09:38:44.000Z</time>
      </trkpt>
      <trkpt lat="45.80631" lon="1.91278">
        <ele>758</ele>
        <time>2026-07-07T09:38:45.000Z</time>
      </trkpt>
      <trkpt lat="45.80631" lon="1.9128">
        <ele>758.1</ele>
        <time>2026-07-07T09:38:46.000Z</time>
      </trkpt>
      <trkpt lat="45.8063" lon="1.91282">
        <ele>758.4</ele>
        <time>2026-07-07T09:38:47.000Z</time>
      </trkpt>
      <trkpt lat="45.80629" lon="1.91285">
        <ele>758.2</ele>
        <time>2026-07-07T09:38:48.000Z</time>
      </trkpt>
      <trkpt lat="45.80629" lon="1.91287">
        <ele>758</ele>
        <time>2026-07-07T09:38:49.000Z</time>
      </trkpt>
      <trkpt lat="45.80629" lon="1.91289">
        <ele>757.9</ele>
        <time>2026-07-07T09:38:50.000Z</time>
      </trkpt>
      <trkpt lat="45.80628" lon="1.91291">
        <ele>757.9</ele>
        <time>2026-07-07T09:38:51.000Z</time>
      </trkpt>
      <trkpt lat="45.80628" lon="1.91294">
        <ele>757.8</ele>
        <time>2026-07-07T09:38:52.000Z</time>
      </trkpt>
      <trkpt lat="45.80627" lon="1.91296">
        <ele>757.4</ele>
        <time>2026-07-07T09:38:53.000Z</time>
      </trkpt>
      <trkpt lat="45.80627" lon="1.91297">
        <ele>756.5</ele>
        <time>2026-07-07T09:38:54.000Z</time>
      </trkpt>
      <trkpt lat="45.80626" lon="1.913">
        <ele>756.3</ele>
        <time>2026-07-07T09:38:55.000Z</time>
      </trkpt>
      <trkpt lat="45.80625" lon="1.91302">
        <ele>756.4</ele>
        <time>2026-07-07T09:38:56.000Z</time>
      </trkpt>
      <trkpt lat="45.80625" lon="1.91304">
        <ele>756.1</ele>
        <time>2026-07-07T09:38:57.000Z</time>
      </trkpt>
      <trkpt lat="45.80624" lon="1.91306">
        <ele>755.2</ele>
        <time>2026-07-07T09:38:58.000Z</time>
      </trkpt>
      <trkpt lat="45.80623" lon="1.91308">
        <ele>755.7</ele>
        <time>2026-07-07T09:38:59.000Z</time>
      </trkpt>
      <trkpt lat="45.80623" lon="1.9131">
        <ele>755.5</ele>
        <time>2026-07-07T09:39:00.000Z</time>
      </trkpt>
      <trkpt lat="45.80622" lon="1.91312">
        <ele>756.1</ele>
        <time>2026-07-07T09:39:01.000Z</time>
      </trkpt>
      <trkpt lat="45.8062" lon="1.91314">
        <ele>756.8</ele>
        <time>2026-07-07T09:39:02.000Z</time>
      </trkpt>
      <trkpt lat="45.80619" lon="1.91317">
        <ele>757.2</ele>
        <time>2026-07-07T09:39:03.000Z</time>
      </trkpt>
      <trkpt lat="45.80618" lon="1.91318">
        <ele>757.2</ele>
        <time>2026-07-07T09:39:04.000Z</time>
      </trkpt>
      <trkpt lat="45.80616" lon="1.9132">
        <ele>757.5</ele>
        <time>2026-07-07T09:39:05.000Z</time>
      </trkpt>
      <trkpt lat="45.80614" lon="1.91322">
        <ele>758.1</ele>
        <time>2026-07-07T09:39:06.000Z</time>
      </trkpt>
      <trkpt lat="45.80613" lon="1.91324">
        <ele>758.4</ele>
        <time>2026-07-07T09:39:07.000Z</time>
      </trkpt>
      <trkpt lat="45.80612" lon="1.91326">
        <ele>758.7</ele>
        <time>2026-07-07T09:39:08.000Z</time>
      </trkpt>
      <trkpt lat="45.80611" lon="1.91328">
        <ele>759.1</ele>
        <time>2026-07-07T09:39:09.000Z</time>
      </trkpt>
      <trkpt lat="45.8061" lon="1.91331">
        <ele>759.3</ele>
        <time>2026-07-07T09:39:10.000Z</time>
      </trkpt>
      <trkpt lat="45.80608" lon="1.91332">
        <ele>759.7</ele>
        <time>2026-07-07T09:39:11.000Z</time>
      </trkpt>
      <trkpt lat="45.80607" lon="1.91334">
        <ele>760</ele>
        <time>2026-07-07T09:39:12.000Z</time>
      </trkpt>
      <trkpt lat="45.80606" lon="1.91336">
        <ele>760.3</ele>
        <time>2026-07-07T09:39:13.000Z</time>
      </trkpt>
      <trkpt lat="45.80605" lon="1.91338">
        <ele>761</ele>
        <time>2026-07-07T09:39:14.000Z</time>
      </trkpt>
      <trkpt lat="45.80604" lon="1.9134">
        <ele>760.9</ele>
        <time>2026-07-07T09:39:15.000Z</time>
      </trkpt>
      <trkpt lat="45.80603" lon="1.91342">
        <ele>761.4</ele>
        <time>2026-07-07T09:39:16.000Z</time>
      </trkpt>
      <trkpt lat="45.80602" lon="1.91343">
        <ele>760.3</ele>
        <time>2026-07-07T09:39:17.000Z</time>
      </trkpt>
      <trkpt lat="45.80601" lon="1.91345">
        <ele>760.2</ele>
        <time>2026-07-07T09:39:18.000Z</time>
      </trkpt>
      <trkpt lat="45.806" lon="1.91347">
        <ele>760.1</ele>
        <time>2026-07-07T09:39:19.000Z</time>
      </trkpt>
      <trkpt lat="45.80599" lon="1.91349">
        <ele>760.2</ele>
        <time>2026-07-07T09:39:20.000Z</time>
      </trkpt>
      <trkpt lat="45.80598" lon="1.91351">
        <ele>760.5</ele>
        <time>2026-07-07T09:39:21.000Z</time>
      </trkpt>
      <trkpt lat="45.80597" lon="1.91353">
        <ele>761</ele>
        <time>2026-07-07T09:39:22.000Z</time>
      </trkpt>
      <trkpt lat="45.80596" lon="1.91354">
        <ele>761.3</ele>
        <time>2026-07-07T09:39:23.000Z</time>
      </trkpt>
      <trkpt lat="45.80595" lon="1.91356">
        <ele>761.2</ele>
        <time>2026-07-07T09:39:24.000Z</time>
      </trkpt>
      <trkpt lat="45.80595" lon="1.91359">
        <ele>762</ele>
        <time>2026-07-07T09:39:25.000Z</time>
      </trkpt>
      <trkpt lat="45.80594" lon="1.91361">
        <ele>762.1</ele>
        <time>2026-07-07T09:39:26.000Z</time>
      </trkpt>
      <trkpt lat="45.80593" lon="1.91364">
        <ele>763.1</ele>
        <time>2026-07-07T09:39:27.000Z</time>
      </trkpt>
      <trkpt lat="45.80593" lon="1.91366">
        <ele>763.2</ele>
        <time>2026-07-07T09:39:28.000Z</time>
      </trkpt>
      <trkpt lat="45.80592" lon="1.91368">
        <ele>763.8</ele>
        <time>2026-07-07T09:39:29.000Z</time>
      </trkpt>
      <trkpt lat="45.80591" lon="1.9137">
        <ele>763.9</ele>
        <time>2026-07-07T09:39:30.000Z</time>
      </trkpt>
      <trkpt lat="45.8059" lon="1.91373">
        <ele>763.6</ele>
        <time>2026-07-07T09:39:31.000Z</time>
      </trkpt>
      <trkpt lat="45.8059" lon="1.91375">
        <ele>763.8</ele>
        <time>2026-07-07T09:39:32.000Z</time>
      </trkpt>
      <trkpt lat="45.80589" lon="1.91377">
        <ele>763.4</ele>
        <time>2026-07-07T09:39:33.000Z</time>
      </trkpt>
      <trkpt lat="45.80589" lon="1.91379">
        <ele>763.3</ele>
        <time>2026-07-07T09:39:34.000Z</time>
      </trkpt>
      <trkpt lat="45.80588" lon="1.91381">
        <ele>762.7</ele>
        <time>2026-07-07T09:39:35.000Z</time>
      </trkpt>
      <trkpt lat="45.80588" lon="1.91384">
        <ele>762.6</ele>
        <time>2026-07-07T09:39:36.000Z</time>
      </trkpt>
      <trkpt lat="45.80587" lon="1.91386">
        <ele>762.5</ele>
        <time>2026-07-07T09:39:37.000Z</time>
      </trkpt>
      <trkpt lat="45.80586" lon="1.91388">
        <ele>762.9</ele>
        <time>2026-07-07T09:39:38.000Z</time>
      </trkpt>
      <trkpt lat="45.80586" lon="1.9139">
        <ele>763.1</ele>
        <time>2026-07-07T09:39:39.000Z</time>
      </trkpt>
      <trkpt lat="45.80585" lon="1.91392">
        <ele>763.5</ele>
        <time>2026-07-07T09:39:40.000Z</time>
      </trkpt>
      <trkpt lat="45.80585" lon="1.91394">
        <ele>763.6</ele>
        <time>2026-07-07T09:39:41.000Z</time>
      </trkpt>
      <trkpt lat="45.80584" lon="1.91397">
        <ele>763.5</ele>
        <time>2026-07-07T09:39:42.000Z</time>
      </trkpt>
      <trkpt lat="45.80584" lon="1.91399">
        <ele>764</ele>
        <time>2026-07-07T09:39:43.000Z</time>
      </trkpt>
      <trkpt lat="45.80584" lon="1.91401">
        <ele>764.3</ele>
        <time>2026-07-07T09:39:44.000Z</time>
      </trkpt>
      <trkpt lat="45.80583" lon="1.91404">
        <ele>764.1</ele>
        <time>2026-07-07T09:39:45.000Z</time>
      </trkpt>
      <trkpt lat="45.80583" lon="1.91406">
        <ele>764.7</ele>
        <time>2026-07-07T09:39:46.000Z</time>
      </trkpt>
      <trkpt lat="45.80582" lon="1.91408">
        <ele>764.9</ele>
        <time>2026-07-07T09:39:47.000Z</time>
      </trkpt>
      <trkpt lat="45.80582" lon="1.91411">
        <ele>765.1</ele>
        <time>2026-07-07T09:39:48.000Z</time>
      </trkpt>
      <trkpt lat="45.80581" lon="1.91413">
        <ele>765.7</ele>
        <time>2026-07-07T09:39:49.000Z</time>
      </trkpt>
      <trkpt lat="45.80581" lon="1.91416">
        <ele>765.3</ele>
        <time>2026-07-07T09:39:50.000Z</time>
      </trkpt>
      <trkpt lat="45.80581" lon="1.91418">
        <ele>765.8</ele>
        <time>2026-07-07T09:39:51.000Z</time>
      </trkpt>
      <trkpt lat="45.80581" lon="1.91421">
        <ele>766</ele>
        <time>2026-07-07T09:39:52.000Z</time>
      </trkpt>
      <trkpt lat="45.8058" lon="1.91424">
        <ele>766.5</ele>
        <time>2026-07-07T09:39:53.000Z</time>
      </trkpt>
      <trkpt lat="45.80579" lon="1.91426">
        <ele>766.8</ele>
        <time>2026-07-07T09:39:54.000Z</time>
      </trkpt>
      <trkpt lat="45.80579" lon="1.91428">
        <ele>767.2</ele>
        <time>2026-07-07T09:39:55.000Z</time>
      </trkpt>
      <trkpt lat="45.80578" lon="1.91431">
        <ele>767.2</ele>
        <time>2026-07-07T09:39:56.000Z</time>
      </trkpt>
      <trkpt lat="45.80578" lon="1.91433">
        <ele>767.1</ele>
        <time>2026-07-07T09:39:57.000Z</time>
      </trkpt>
      <trkpt lat="45.80578" lon="1.91435">
        <ele>767.5</ele>
        <time>2026-07-07T09:39:58.000Z</time>
      </trkpt>
      <trkpt lat="45.80578" lon="1.91438">
        <ele>767.7</ele>
        <time>2026-07-07T09:39:59.000Z</time>
      </trkpt>
      <trkpt lat="45.80577" lon="1.9144">
        <ele>768.2</ele>
        <time>2026-07-07T09:40:00.000Z</time>
      </trkpt>
      <trkpt lat="45.80577" lon="1.91442">
        <ele>768.7</ele>
        <time>2026-07-07T09:40:01.000Z</time>
      </trkpt>
      <trkpt lat="45.80577" lon="1.91444">
        <ele>769.2</ele>
        <time>2026-07-07T09:40:02.000Z</time>
      </trkpt>
      <trkpt lat="45.80576" lon="1.91446">
        <ele>769.6</ele>
        <time>2026-07-07T09:40:03.000Z</time>
      </trkpt>
      <trkpt lat="45.80576" lon="1.91448">
        <ele>769.9</ele>
        <time>2026-07-07T09:40:04.000Z</time>
      </trkpt>
      <trkpt lat="45.80575" lon="1.9145">
        <ele>770.2</ele>
        <time>2026-07-07T09:40:05.000Z</time>
      </trkpt>
      <trkpt lat="45.80575" lon="1.91452">
        <ele>770.4</ele>
        <time>2026-07-07T09:40:06.000Z</time>
      </trkpt>
      <trkpt lat="45.80574" lon="1.91454">
        <ele>770.4</ele>
        <time>2026-07-07T09:40:07.000Z</time>
      </trkpt>
      <trkpt lat="45.80574" lon="1.91456">
        <ele>770.5</ele>
        <time>2026-07-07T09:40:08.000Z</time>
      </trkpt>
      <trkpt lat="45.80574" lon="1.91458">
        <ele>770.6</ele>
        <time>2026-07-07T09:40:09.000Z</time>
      </trkpt>
      <trkpt lat="45.80574" lon="1.9146">
        <ele>770.7</ele>
        <time>2026-07-07T09:40:10.000Z</time>
      </trkpt>
      <trkpt lat="45.80573" lon="1.91462">
        <ele>771</ele>
        <time>2026-07-07T09:40:11.000Z</time>
      </trkpt>
      <trkpt lat="45.80573" lon="1.91464">
        <ele>771.2</ele>
        <time>2026-07-07T09:40:12.000Z</time>
      </trkpt>
      <trkpt lat="45.80572" lon="1.91467">
        <ele>771.1</ele>
        <time>2026-07-07T09:40:13.000Z</time>
      </trkpt>
      <trkpt lat="45.80572" lon="1.91469">
        <ele>771.2</ele>
        <time>2026-07-07T09:40:14.000Z</time>
      </trkpt>
      <trkpt lat="45.80572" lon="1.91471">
        <ele>771.1</ele>
        <time>2026-07-07T09:40:15.000Z</time>
      </trkpt>
      <trkpt lat="45.80571" lon="1.91473">
        <ele>771.4</ele>
        <time>2026-07-07T09:40:16.000Z</time>
      </trkpt>
      <trkpt lat="45.8057" lon="1.91475">
        <ele>771.4</ele>
        <time>2026-07-07T09:40:17.000Z</time>
      </trkpt>
      <trkpt lat="45.8057" lon="1.91476">
        <ele>771.5</ele>
        <time>2026-07-07T09:40:18.000Z</time>
      </trkpt>
      <trkpt lat="45.80569" lon="1.91478">
        <ele>771.7</ele>
        <time>2026-07-07T09:40:19.000Z</time>
      </trkpt>
      <trkpt lat="45.80568" lon="1.9148">
        <ele>771.7</ele>
        <time>2026-07-07T09:40:20.000Z</time>
      </trkpt>
      <trkpt lat="45.80567" lon="1.91482">
        <ele>771.9</ele>
        <time>2026-07-07T09:40:21.000Z</time>
      </trkpt>
      <trkpt lat="45.80567" lon="1.91484">
        <ele>771.8</ele>
        <time>2026-07-07T09:40:22.000Z</time>
      </trkpt>
      <trkpt lat="45.80567" lon="1.91486">
        <ele>771.7</ele>
        <time>2026-07-07T09:40:23.000Z</time>
      </trkpt>
      <trkpt lat="45.80567" lon="1.91488">
        <ele>772.2</ele>
        <time>2026-07-07T09:40:24.000Z</time>
      </trkpt>
      <trkpt lat="45.80566" lon="1.9149">
        <ele>772.3</ele>
        <time>2026-07-07T09:40:25.000Z</time>
      </trkpt>
      <trkpt lat="45.80568" lon="1.91492">
        <ele>772.2</ele>
        <time>2026-07-07T09:40:26.000Z</time>
      </trkpt>
      <trkpt lat="45.80568" lon="1.91494">
        <ele>772.3</ele>
        <time>2026-07-07T09:40:27.000Z</time>
      </trkpt>
      <trkpt lat="45.80568" lon="1.91496">
        <ele>772.6</ele>
        <time>2026-07-07T09:40:28.000Z</time>
      </trkpt>
      <trkpt lat="45.80568" lon="1.91498">
        <ele>772.6</ele>
        <time>2026-07-07T09:40:29.000Z</time>
      </trkpt>
      <trkpt lat="45.80568" lon="1.915">
        <ele>772.8</ele>
        <time>2026-07-07T09:40:30.000Z</time>
      </trkpt>
      <trkpt lat="45.80567" lon="1.91502">
        <ele>773</ele>
        <time>2026-07-07T09:40:31.000Z</time>
      </trkpt>
      <trkpt lat="45.80567" lon="1.91504">
        <ele>772.6</ele>
        <time>2026-07-07T09:40:32.000Z</time>
      </trkpt>
      <trkpt lat="45.80569" lon="1.91506">
        <ele>772.9</ele>
        <time>2026-07-07T09:40:33.000Z</time>
      </trkpt>
      <trkpt lat="45.80569" lon="1.91508">
        <ele>773.2</ele>
        <time>2026-07-07T09:40:34.000Z</time>
      </trkpt>
      <trkpt lat="45.80569" lon="1.9151">
        <ele>773.5</ele>
        <time>2026-07-07T09:40:35.000Z</time>
      </trkpt>
      <trkpt lat="45.80569" lon="1.91512">
        <ele>773.7</ele>
        <time>2026-07-07T09:40:36.000Z</time>
      </trkpt>
      <trkpt lat="45.80569" lon="1.91514">
        <ele>773.4</ele>
        <time>2026-07-07T09:40:37.000Z</time>
      </trkpt>
      <trkpt lat="45.80568" lon="1.91516">
        <ele>773.5</ele>
        <time>2026-07-07T09:40:38.000Z</time>
      </trkpt>
      <trkpt lat="45.80568" lon="1.91518">
        <ele>773.4</ele>
        <time>2026-07-07T09:40:39.000Z</time>
      </trkpt>
      <trkpt lat="45.80569" lon="1.9152">
        <ele>774.9</ele>
        <time>2026-07-07T09:40:40.000Z</time>
      </trkpt>
      <trkpt lat="45.8057" lon="1.91521">
        <ele>775.2</ele>
        <time>2026-07-07T09:40:41.000Z</time>
      </trkpt>
      <trkpt lat="45.8057" lon="1.91523">
        <ele>776.1</ele>
        <time>2026-07-07T09:40:42.000Z</time>
      </trkpt>
      <trkpt lat="45.8057" lon="1.91524">
        <ele>774.9</ele>
        <time>2026-07-07T09:40:43.000Z</time>
      </trkpt>
      <trkpt lat="45.8057" lon="1.91525">
        <ele>775</ele>
        <time>2026-07-07T09:40:44.000Z</time>
      </trkpt>
      <trkpt lat="45.8057" lon="1.91527">
        <ele>774.8</ele>
        <time>2026-07-07T09:40:45.000Z</time>
      </trkpt>
      <trkpt lat="45.80569" lon="1.91529">
        <ele>774.3</ele>
        <time>2026-07-07T09:40:46.000Z</time>
      </trkpt>
      <trkpt lat="45.80569" lon="1.91531">
        <ele>773.8</ele>
        <time>2026-07-07T09:40:47.000Z</time>
      </trkpt>
      <trkpt lat="45.80568" lon="1.91533">
        <ele>773.1</ele>
        <time>2026-07-07T09:40:48.000Z</time>
      </trkpt>
      <trkpt lat="45.80567" lon="1.91535">
        <ele>772.4</ele>
        <time>2026-07-07T09:40:49.000Z</time>
      </trkpt>
      <trkpt lat="45.80567" lon="1.91537">
        <ele>771.4</ele>
        <time>2026-07-07T09:40:50.000Z</time>
      </trkpt>
      <trkpt lat="45.80566" lon="1.91539">
        <ele>771.3</ele>
        <time>2026-07-07T09:40:51.000Z</time>
      </trkpt>
      <trkpt lat="45.80566" lon="1.91541">
        <ele>771.3</ele>
        <time>2026-07-07T09:40:52.000Z</time>
      </trkpt>
      <trkpt lat="45.80566" lon="1.91543">
        <ele>771</ele>
        <time>2026-07-07T09:40:53.000Z</time>
      </trkpt>
      <trkpt lat="45.80566" lon="1.91546">
        <ele>771</ele>
        <time>2026-07-07T09:40:54.000Z</time>
      </trkpt>
      <trkpt lat="45.80567" lon="1.91548">
        <ele>770.9</ele>
        <time>2026-07-07T09:40:55.000Z</time>
      </trkpt>
      <trkpt lat="45.80567" lon="1.91551">
        <ele>770.5</ele>
        <time>2026-07-07T09:40:56.000Z</time>
      </trkpt>
      <trkpt lat="45.80567" lon="1.91553">
        <ele>770.3</ele>
        <time>2026-07-07T09:40:57.000Z</time>
      </trkpt>
      <trkpt lat="45.80568" lon="1.91555">
        <ele>770.5</ele>
        <time>2026-07-07T09:40:58.000Z</time>
      </trkpt>
      <trkpt lat="45.80568" lon="1.91557">
        <ele>770.7</ele>
        <time>2026-07-07T09:40:59.000Z</time>
      </trkpt>
      <trkpt lat="45.80568" lon="1.91559">
        <ele>770.6</ele>
        <time>2026-07-07T09:41:00.000Z</time>
      </trkpt>
      <trkpt lat="45.80569" lon="1.9156">
        <ele>771.2</ele>
        <time>2026-07-07T09:41:01.000Z</time>
      </trkpt>
      <trkpt lat="45.80569" lon="1.91562">
        <ele>771.1</ele>
        <time>2026-07-07T09:41:02.000Z</time>
      </trkpt>
      <trkpt lat="45.80569" lon="1.91564">
        <ele>771.2</ele>
        <time>2026-07-07T09:41:03.000Z</time>
      </trkpt>
      <trkpt lat="45.80569" lon="1.91566">
        <ele>771.1</ele>
        <time>2026-07-07T09:41:04.000Z</time>
      </trkpt>
      <trkpt lat="45.80569" lon="1.91568">
        <ele>771.4</ele>
        <time>2026-07-07T09:41:05.000Z</time>
      </trkpt>
      <trkpt lat="45.8057" lon="1.9157">
        <ele>771.4</ele>
        <time>2026-07-07T09:41:06.000Z</time>
      </trkpt>
      <trkpt lat="45.8057" lon="1.91572">
        <ele>773.6</ele>
        <time>2026-07-07T09:41:07.000Z</time>
      </trkpt>
      <trkpt lat="45.8057" lon="1.91574">
        <ele>773.9</ele>
        <time>2026-07-07T09:41:08.000Z</time>
      </trkpt>
      <trkpt lat="45.8057" lon="1.91576">
        <ele>774.1</ele>
        <time>2026-07-07T09:41:09.000Z</time>
      </trkpt>
      <trkpt lat="45.8057" lon="1.91578">
        <ele>773.6</ele>
        <time>2026-07-07T09:41:10.000Z</time>
      </trkpt>
      <trkpt lat="45.8057" lon="1.91581">
        <ele>774</ele>
        <time>2026-07-07T09:41:11.000Z</time>
      </trkpt>
      <trkpt lat="45.8057" lon="1.91583">
        <ele>774.8</ele>
        <time>2026-07-07T09:41:12.000Z</time>
      </trkpt>
      <trkpt lat="45.8057" lon="1.91585">
        <ele>775.5</ele>
        <time>2026-07-07T09:41:13.000Z</time>
      </trkpt>
      <trkpt lat="45.8057" lon="1.91588">
        <ele>774.9</ele>
        <time>2026-07-07T09:41:14.000Z</time>
      </trkpt>
      <trkpt lat="45.80569" lon="1.9159">
        <ele>774.8</ele>
        <time>2026-07-07T09:41:15.000Z</time>
      </trkpt>
      <trkpt lat="45.80569" lon="1.91592">
        <ele>776</ele>
        <time>2026-07-07T09:41:16.000Z</time>
      </trkpt>
      <trkpt lat="45.80569" lon="1.91594">
        <ele>776.2</ele>
        <time>2026-07-07T09:41:17.000Z</time>
      </trkpt>
      <trkpt lat="45.80569" lon="1.91596">
        <ele>775</ele>
        <time>2026-07-07T09:41:18.000Z</time>
      </trkpt>
      <trkpt lat="45.80569" lon="1.91599">
        <ele>774.7</ele>
        <time>2026-07-07T09:41:19.000Z</time>
      </trkpt>
      <trkpt lat="45.80569" lon="1.91601">
        <ele>773.2</ele>
        <time>2026-07-07T09:41:20.000Z</time>
      </trkpt>
      <trkpt lat="45.8057" lon="1.91603">
        <ele>773.8</ele>
        <time>2026-07-07T09:41:21.000Z</time>
      </trkpt>
      <trkpt lat="45.8057" lon="1.91604">
        <ele>773.3</ele>
        <time>2026-07-07T09:41:22.000Z</time>
      </trkpt>
      <trkpt lat="45.8057" lon="1.91606">
        <ele>773.7</ele>
        <time>2026-07-07T09:41:23.000Z</time>
      </trkpt>
      <trkpt lat="45.8057" lon="1.91607">
        <ele>772</ele>
        <time>2026-07-07T09:41:24.000Z</time>
      </trkpt>
      <trkpt lat="45.80569" lon="1.9161">
        <ele>771.2</ele>
        <time>2026-07-07T09:41:25.000Z</time>
      </trkpt>
      <trkpt lat="45.80569" lon="1.91612">
        <ele>770.9</ele>
        <time>2026-07-07T09:41:26.000Z</time>
      </trkpt>
      <trkpt lat="45.8057" lon="1.91614">
        <ele>770.2</ele>
        <time>2026-07-07T09:41:27.000Z</time>
      </trkpt>
      <trkpt lat="45.8057" lon="1.91616">
        <ele>769.4</ele>
        <time>2026-07-07T09:41:28.000Z</time>
      </trkpt>
      <trkpt lat="45.8057" lon="1.91618">
        <ele>769.1</ele>
        <time>2026-07-07T09:41:29.000Z</time>
      </trkpt>
      <trkpt lat="45.8057" lon="1.91621">
        <ele>770</ele>
        <time>2026-07-07T09:41:30.000Z</time>
      </trkpt>
      <trkpt lat="45.80571" lon="1.91623">
        <ele>770</ele>
        <time>2026-07-07T09:41:31.000Z</time>
      </trkpt>
      <trkpt lat="45.80571" lon="1.91626">
        <ele>769.4</ele>
        <time>2026-07-07T09:41:32.000Z</time>
      </trkpt>
      <trkpt lat="45.80571" lon="1.91628">
        <ele>768.9</ele>
        <time>2026-07-07T09:41:33.000Z</time>
      </trkpt>
      <trkpt lat="45.80571" lon="1.9163">
        <ele>768</ele>
        <time>2026-07-07T09:41:34.000Z</time>
      </trkpt>
      <trkpt lat="45.80572" lon="1.91633">
        <ele>768.1</ele>
        <time>2026-07-07T09:41:35.000Z</time>
      </trkpt>
      <trkpt lat="45.80572" lon="1.91635">
        <ele>767.8</ele>
        <time>2026-07-07T09:41:36.000Z</time>
      </trkpt>
      <trkpt lat="45.80572" lon="1.91637">
        <ele>767.4</ele>
        <time>2026-07-07T09:41:37.000Z</time>
      </trkpt>
      <trkpt lat="45.80572" lon="1.91639">
        <ele>767.8</ele>
        <time>2026-07-07T09:41:38.000Z</time>
      </trkpt>
      <trkpt lat="45.80573" lon="1.91641">
        <ele>767.5</ele>
        <time>2026-07-07T09:41:39.000Z</time>
      </trkpt>
      <trkpt lat="45.80574" lon="1.91643">
        <ele>767.9</ele>
        <time>2026-07-07T09:41:40.000Z</time>
      </trkpt>
      <trkpt lat="45.80574" lon="1.91645">
        <ele>768.2</ele>
        <time>2026-07-07T09:41:41.000Z</time>
      </trkpt>
      <trkpt lat="45.80575" lon="1.91647">
        <ele>768.5</ele>
        <time>2026-07-07T09:41:42.000Z</time>
      </trkpt>
      <trkpt lat="45.80575" lon="1.9165">
        <ele>767.9</ele>
        <time>2026-07-07T09:41:43.000Z</time>
      </trkpt>
      <trkpt lat="45.80576" lon="1.91652">
        <ele>766.4</ele>
        <time>2026-07-07T09:41:44.000Z</time>
      </trkpt>
      <trkpt lat="45.80576" lon="1.91655">
        <ele>765.9</ele>
        <time>2026-07-07T09:41:45.000Z</time>
      </trkpt>
      <trkpt lat="45.80576" lon="1.91657">
        <ele>765.6</ele>
        <time>2026-07-07T09:41:46.000Z</time>
      </trkpt>
      <trkpt lat="45.80577" lon="1.91658">
        <ele>765.1</ele>
        <time>2026-07-07T09:41:47.000Z</time>
      </trkpt>
      <trkpt lat="45.80578" lon="1.91661">
        <ele>764.9</ele>
        <time>2026-07-07T09:41:48.000Z</time>
      </trkpt>
      <trkpt lat="45.80579" lon="1.91663">
        <ele>764.8</ele>
        <time>2026-07-07T09:41:49.000Z</time>
      </trkpt>
      <trkpt lat="45.80579" lon="1.91665">
        <ele>764.7</ele>
        <time>2026-07-07T09:41:50.000Z</time>
      </trkpt>
      <trkpt lat="45.8058" lon="1.91667">
        <ele>764.9</ele>
        <time>2026-07-07T09:41:51.000Z</time>
      </trkpt>
      <trkpt lat="45.80581" lon="1.91668">
        <ele>764.7</ele>
        <time>2026-07-07T09:41:52.000Z</time>
      </trkpt>
      <trkpt lat="45.80581" lon="1.9167">
        <ele>764.6</ele>
        <time>2026-07-07T09:41:53.000Z</time>
      </trkpt>
      <trkpt lat="45.80582" lon="1.91673">
        <ele>765</ele>
        <time>2026-07-07T09:41:54.000Z</time>
      </trkpt>
      <trkpt lat="45.80582" lon="1.91675">
        <ele>765.3</ele>
        <time>2026-07-07T09:41:55.000Z</time>
      </trkpt>
      <trkpt lat="45.80582" lon="1.91677">
        <ele>766.2</ele>
        <time>2026-07-07T09:41:56.000Z</time>
      </trkpt>
      <trkpt lat="45.80582" lon="1.9168">
        <ele>766.1</ele>
        <time>2026-07-07T09:41:57.000Z</time>
      </trkpt>
      <trkpt lat="45.80582" lon="1.91682">
        <ele>766.1</ele>
        <time>2026-07-07T09:41:58.000Z</time>
      </trkpt>
      <trkpt lat="45.80582" lon="1.91685">
        <ele>767.2</ele>
        <time>2026-07-07T09:41:59.000Z</time>
      </trkpt>
      <trkpt lat="45.80582" lon="1.91687">
        <ele>767.7</ele>
        <time>2026-07-07T09:42:00.000Z</time>
      </trkpt>
      <trkpt lat="45.80582" lon="1.91689">
        <ele>767.7</ele>
        <time>2026-07-07T09:42:01.000Z</time>
      </trkpt>
      <trkpt lat="45.80581" lon="1.91692">
        <ele>768.5</ele>
        <time>2026-07-07T09:42:02.000Z</time>
      </trkpt>
      <trkpt lat="45.80581" lon="1.91695">
        <ele>768.5</ele>
        <time>2026-07-07T09:42:03.000Z</time>
      </trkpt>
      <trkpt lat="45.8058" lon="1.91697">
        <ele>769.9</ele>
        <time>2026-07-07T09:42:04.000Z</time>
      </trkpt>
      <trkpt lat="45.8058" lon="1.91699">
        <ele>770.1</ele>
        <time>2026-07-07T09:42:05.000Z</time>
      </trkpt>
      <trkpt lat="45.8058" lon="1.91702">
        <ele>770.9</ele>
        <time>2026-07-07T09:42:06.000Z</time>
      </trkpt>
      <trkpt lat="45.8058" lon="1.91704">
        <ele>771</ele>
        <time>2026-07-07T09:42:07.000Z</time>
      </trkpt>
      <trkpt lat="45.8058" lon="1.91706">
        <ele>771.1</ele>
        <time>2026-07-07T09:42:08.000Z</time>
      </trkpt>
      <trkpt lat="45.8058" lon="1.91708">
        <ele>769.8</ele>
        <time>2026-07-07T09:42:09.000Z</time>
      </trkpt>
      <trkpt lat="45.8058" lon="1.9171">
        <ele>769.9</ele>
        <time>2026-07-07T09:42:10.000Z</time>
      </trkpt>
      <trkpt lat="45.80579" lon="1.91713">
        <ele>769.8</ele>
        <time>2026-07-07T09:42:11.000Z</time>
      </trkpt>
      <trkpt lat="45.80579" lon="1.91715">
        <ele>769.4</ele>
        <time>2026-07-07T09:42:12.000Z</time>
      </trkpt>
      <trkpt lat="45.80578" lon="1.91717">
        <ele>769.8</ele>
        <time>2026-07-07T09:42:13.000Z</time>
      </trkpt>
      <trkpt lat="45.80578" lon="1.91719">
        <ele>769.8</ele>
        <time>2026-07-07T09:42:14.000Z</time>
      </trkpt>
      <trkpt lat="45.80578" lon="1.91722">
        <ele>769.5</ele>
        <time>2026-07-07T09:42:15.000Z</time>
      </trkpt>
      <trkpt lat="45.80577" lon="1.91724">
        <ele>769.6</ele>
        <time>2026-07-07T09:42:16.000Z</time>
      </trkpt>
      <trkpt lat="45.80577" lon="1.91726">
        <ele>769.8</ele>
        <time>2026-07-07T09:42:17.000Z</time>
      </trkpt>
      <trkpt lat="45.80577" lon="1.91728">
        <ele>770.6</ele>
        <time>2026-07-07T09:42:18.000Z</time>
      </trkpt>
      <trkpt lat="45.80577" lon="1.9173">
        <ele>772.8</ele>
        <time>2026-07-07T09:42:19.000Z</time>
      </trkpt>
      <trkpt lat="45.80578" lon="1.91733">
        <ele>773.2</ele>
        <time>2026-07-07T09:42:20.000Z</time>
      </trkpt>
      <trkpt lat="45.80578" lon="1.91735">
        <ele>773.6</ele>
        <time>2026-07-07T09:42:21.000Z</time>
      </trkpt>
      <trkpt lat="45.80579" lon="1.91738">
        <ele>773.8</ele>
        <time>2026-07-07T09:42:22.000Z</time>
      </trkpt>
      <trkpt lat="45.8058" lon="1.91741">
        <ele>773.4</ele>
        <time>2026-07-07T09:42:23.000Z</time>
      </trkpt>
      <trkpt lat="45.80581" lon="1.91744">
        <ele>773.3</ele>
        <time>2026-07-07T09:42:24.000Z</time>
      </trkpt>
      <trkpt lat="45.80582" lon="1.91748">
        <ele>773.8</ele>
        <time>2026-07-07T09:42:25.000Z</time>
      </trkpt>
      <trkpt lat="45.80583" lon="1.91752">
        <ele>774.3</ele>
        <time>2026-07-07T09:42:26.000Z</time>
      </trkpt>
      <trkpt lat="45.80583" lon="1.91755">
        <ele>775</ele>
        <time>2026-07-07T09:42:27.000Z</time>
      </trkpt>
      <trkpt lat="45.80583" lon="1.91758">
        <ele>775.6</ele>
        <time>2026-07-07T09:42:28.000Z</time>
      </trkpt>
      <trkpt lat="45.80583" lon="1.9176">
        <ele>775.3</ele>
        <time>2026-07-07T09:42:29.000Z</time>
      </trkpt>
      <trkpt lat="45.80584" lon="1.91763">
        <ele>775.6</ele>
        <time>2026-07-07T09:42:30.000Z</time>
      </trkpt>
      <trkpt lat="45.80585" lon="1.91765">
        <ele>774.9</ele>
        <time>2026-07-07T09:42:31.000Z</time>
      </trkpt>
      <trkpt lat="45.80586" lon="1.91767">
        <ele>774.9</ele>
        <time>2026-07-07T09:42:32.000Z</time>
      </trkpt>
      <trkpt lat="45.80587" lon="1.91769">
        <ele>774.7</ele>
        <time>2026-07-07T09:42:33.000Z</time>
      </trkpt>
      <trkpt lat="45.80588" lon="1.91771">
        <ele>776</ele>
        <time>2026-07-07T09:42:34.000Z</time>
      </trkpt>
      <trkpt lat="45.80589" lon="1.91774">
        <ele>776.6</ele>
        <time>2026-07-07T09:42:35.000Z</time>
      </trkpt>
      <trkpt lat="45.80589" lon="1.91777">
        <ele>778.3</ele>
        <time>2026-07-07T09:42:36.000Z</time>
      </trkpt>
      <trkpt lat="45.8059" lon="1.91781">
        <ele>777.9</ele>
        <time>2026-07-07T09:42:37.000Z</time>
      </trkpt>
      <trkpt lat="45.8059" lon="1.91784">
        <ele>777.1</ele>
        <time>2026-07-07T09:42:38.000Z</time>
      </trkpt>
      <trkpt lat="45.80589" lon="1.91786">
        <ele>777.4</ele>
        <time>2026-07-07T09:42:39.000Z</time>
      </trkpt>
      <trkpt lat="45.80588" lon="1.91788">
        <ele>780.2</ele>
        <time>2026-07-07T09:42:40.000Z</time>
      </trkpt>
      <trkpt lat="45.80587" lon="1.9179">
        <ele>780.5</ele>
        <time>2026-07-07T09:42:41.000Z</time>
      </trkpt>
      <trkpt lat="45.80586" lon="1.91791">
        <ele>781</ele>
        <time>2026-07-07T09:42:42.000Z</time>
      </trkpt>
      <trkpt lat="45.80585" lon="1.91792">
        <ele>780.7</ele>
        <time>2026-07-07T09:42:43.000Z</time>
      </trkpt>
      <trkpt lat="45.80584" lon="1.91793">
        <ele>781.6</ele>
        <time>2026-07-07T09:42:44.000Z</time>
      </trkpt>
      <trkpt lat="45.80582" lon="1.91795">
        <ele>781.1</ele>
        <time>2026-07-07T09:42:45.000Z</time>
      </trkpt>
      <trkpt lat="45.8058" lon="1.91793">
        <ele>782.2</ele>
        <time>2026-07-07T09:42:46.000Z</time>
      </trkpt>
      <trkpt lat="45.80578" lon="1.91798">
        <ele>783.9</ele>
        <time>2026-07-07T09:42:47.000Z</time>
      </trkpt>
      <trkpt lat="45.80577" lon="1.91798">
        <ele>783.5</ele>
        <time>2026-07-07T09:42:48.000Z</time>
      </trkpt>
      <trkpt lat="45.80576" lon="1.91801">
        <ele>783.3</ele>
        <time>2026-07-07T09:42:49.000Z</time>
      </trkpt>
      <trkpt lat="45.80574" lon="1.91802">
        <ele>784</ele>
        <time>2026-07-07T09:42:50.000Z</time>
      </trkpt>
      <trkpt lat="45.80573" lon="1.91804">
        <ele>783.7</ele>
        <time>2026-07-07T09:42:51.000Z</time>
      </trkpt>
      <trkpt lat="45.80572" lon="1.91806">
        <ele>783.5</ele>
        <time>2026-07-07T09:42:52.000Z</time>
      </trkpt>
      <trkpt lat="45.80571" lon="1.91808">
        <ele>783.7</ele>
        <time>2026-07-07T09:42:53.000Z</time>
      </trkpt>
      <trkpt lat="45.80569" lon="1.9181">
        <ele>783.8</ele>
        <time>2026-07-07T09:42:54.000Z</time>
      </trkpt>
      <trkpt lat="45.80568" lon="1.91811">
        <ele>782.3</ele>
        <time>2026-07-07T09:42:55.000Z</time>
      </trkpt>
      <trkpt lat="45.80567" lon="1.91812">
        <ele>782.7</ele>
        <time>2026-07-07T09:42:56.000Z</time>
      </trkpt>
      <trkpt lat="45.80566" lon="1.91814">
        <ele>782.9</ele>
        <time>2026-07-07T09:42:57.000Z</time>
      </trkpt>
      <trkpt lat="45.80565" lon="1.91815">
        <ele>782.1</ele>
        <time>2026-07-07T09:42:58.000Z</time>
      </trkpt>
      <trkpt lat="45.80564" lon="1.91817">
        <ele>782.1</ele>
        <time>2026-07-07T09:42:59.000Z</time>
      </trkpt>
      <trkpt lat="45.80563" lon="1.91818">
        <ele>780.9</ele>
        <time>2026-07-07T09:43:00.000Z</time>
      </trkpt>
      <trkpt lat="45.80562" lon="1.91819">
        <ele>780.8</ele>
        <time>2026-07-07T09:43:01.000Z</time>
      </trkpt>
      <trkpt lat="45.8056" lon="1.9182">
        <ele>781.2</ele>
        <time>2026-07-07T09:43:02.000Z</time>
      </trkpt>
      <trkpt lat="45.80559" lon="1.91822">
        <ele>780.6</ele>
        <time>2026-07-07T09:43:03.000Z</time>
      </trkpt>
      <trkpt lat="45.80558" lon="1.91823">
        <ele>780.4</ele>
        <time>2026-07-07T09:43:04.000Z</time>
      </trkpt>
      <trkpt lat="45.80557" lon="1.91825">
        <ele>781</ele>
        <time>2026-07-07T09:43:05.000Z</time>
      </trkpt>
      <trkpt lat="45.80555" lon="1.91827">
        <ele>781.1</ele>
        <time>2026-07-07T09:43:06.000Z</time>
      </trkpt>
      <trkpt lat="45.80554" lon="1.91828">
        <ele>780.4</ele>
        <time>2026-07-07T09:43:07.000Z</time>
      </trkpt>
      <trkpt lat="45.80553" lon="1.9183">
        <ele>780.9</ele>
        <time>2026-07-07T09:43:08.000Z</time>
      </trkpt>
      <trkpt lat="45.80551" lon="1.91829">
        <ele>782.7</ele>
        <time>2026-07-07T09:43:09.000Z</time>
      </trkpt>
      <trkpt lat="45.8055" lon="1.9183">
        <ele>783</ele>
        <time>2026-07-07T09:43:10.000Z</time>
      </trkpt>
      <trkpt lat="45.80548" lon="1.91832">
        <ele>784</ele>
        <time>2026-07-07T09:43:11.000Z</time>
      </trkpt>
      <trkpt lat="45.80545" lon="1.91834">
        <ele>785.1</ele>
        <time>2026-07-07T09:43:12.000Z</time>
      </trkpt>
      <trkpt lat="45.80544" lon="1.91837">
        <ele>784.7</ele>
        <time>2026-07-07T09:43:13.000Z</time>
      </trkpt>
      <trkpt lat="45.80543" lon="1.91838">
        <ele>784.6</ele>
        <time>2026-07-07T09:43:14.000Z</time>
      </trkpt>
      <trkpt lat="45.80541" lon="1.9184">
        <ele>784.2</ele>
        <time>2026-07-07T09:43:15.000Z</time>
      </trkpt>
      <trkpt lat="45.8054" lon="1.91842">
        <ele>784.9</ele>
        <time>2026-07-07T09:43:16.000Z</time>
      </trkpt>
      <trkpt lat="45.8054" lon="1.91843">
        <ele>784.5</ele>
        <time>2026-07-07T09:43:17.000Z</time>
      </trkpt>
      <trkpt lat="45.80538" lon="1.91845">
        <ele>783.8</ele>
        <time>2026-07-07T09:43:18.000Z</time>
      </trkpt>
      <trkpt lat="45.80537" lon="1.91846">
        <ele>782.6</ele>
        <time>2026-07-07T09:43:19.000Z</time>
      </trkpt>
      <trkpt lat="45.80536" lon="1.91848">
        <ele>782.8</ele>
        <time>2026-07-07T09:43:20.000Z</time>
      </trkpt>
      <trkpt lat="45.80535" lon="1.91849">
        <ele>783</ele>
        <time>2026-07-07T09:43:21.000Z</time>
      </trkpt>
      <trkpt lat="45.80534" lon="1.91851">
        <ele>782.9</ele>
        <time>2026-07-07T09:43:22.000Z</time>
      </trkpt>
      <trkpt lat="45.80533" lon="1.91853">
        <ele>783.4</ele>
        <time>2026-07-07T09:43:23.000Z</time>
      </trkpt>
      <trkpt lat="45.80532" lon="1.91855">
        <ele>783.6</ele>
        <time>2026-07-07T09:43:24.000Z</time>
      </trkpt>
      <trkpt lat="45.80531" lon="1.91856">
        <ele>783.6</ele>
        <time>2026-07-07T09:43:25.000Z</time>
      </trkpt>
      <trkpt lat="45.8053" lon="1.91858">
        <ele>783.7</ele>
        <time>2026-07-07T09:43:26.000Z</time>
      </trkpt>
      <trkpt lat="45.80529" lon="1.9186">
        <ele>783.8</ele>
        <time>2026-07-07T09:43:27.000Z</time>
      </trkpt>
      <trkpt lat="45.80528" lon="1.91862">
        <ele>783.6</ele>
        <time>2026-07-07T09:43:28.000Z</time>
      </trkpt>
      <trkpt lat="45.80527" lon="1.91864">
        <ele>783.8</ele>
        <time>2026-07-07T09:43:29.000Z</time>
      </trkpt>
      <trkpt lat="45.80527" lon="1.91867">
        <ele>784.2</ele>
        <time>2026-07-07T09:43:30.000Z</time>
      </trkpt>
      <trkpt lat="45.80526" lon="1.91869">
        <ele>784.6</ele>
        <time>2026-07-07T09:43:31.000Z</time>
      </trkpt>
      <trkpt lat="45.80525" lon="1.91871">
        <ele>784.7</ele>
        <time>2026-07-07T09:43:32.000Z</time>
      </trkpt>
      <trkpt lat="45.80525" lon="1.91873">
        <ele>785</ele>
        <time>2026-07-07T09:43:33.000Z</time>
      </trkpt>
      <trkpt lat="45.80524" lon="1.91875">
        <ele>785.2</ele>
        <time>2026-07-07T09:43:34.000Z</time>
      </trkpt>
      <trkpt lat="45.80523" lon="1.91877">
        <ele>785.2</ele>
        <time>2026-07-07T09:43:35.000Z</time>
      </trkpt>
      <trkpt lat="45.80523" lon="1.9188">
        <ele>785.2</ele>
        <time>2026-07-07T09:43:36.000Z</time>
      </trkpt>
      <trkpt lat="45.80522" lon="1.91882">
        <ele>785.4</ele>
        <time>2026-07-07T09:43:37.000Z</time>
      </trkpt>
      <trkpt lat="45.80521" lon="1.91884">
        <ele>785.4</ele>
        <time>2026-07-07T09:43:38.000Z</time>
      </trkpt>
      <trkpt lat="45.80521" lon="1.91886">
        <ele>785.5</ele>
        <time>2026-07-07T09:43:39.000Z</time>
      </trkpt>
      <trkpt lat="45.8052" lon="1.91888">
        <ele>785.5</ele>
        <time>2026-07-07T09:43:40.000Z</time>
      </trkpt>
      <trkpt lat="45.8052" lon="1.9189">
        <ele>785.3</ele>
        <time>2026-07-07T09:43:41.000Z</time>
      </trkpt>
      <trkpt lat="45.80519" lon="1.91892">
        <ele>785.4</ele>
        <time>2026-07-07T09:43:42.000Z</time>
      </trkpt>
      <trkpt lat="45.80519" lon="1.91894">
        <ele>785.8</ele>
        <time>2026-07-07T09:43:43.000Z</time>
      </trkpt>
      <trkpt lat="45.80518" lon="1.91897">
        <ele>786</ele>
        <time>2026-07-07T09:43:44.000Z</time>
      </trkpt>
      <trkpt lat="45.80517" lon="1.91899">
        <ele>786.2</ele>
        <time>2026-07-07T09:43:45.000Z</time>
      </trkpt>
      <trkpt lat="45.80517" lon="1.91901">
        <ele>786.4</ele>
        <time>2026-07-07T09:43:46.000Z</time>
      </trkpt>
      <trkpt lat="45.80516" lon="1.91903">
        <ele>786.4</ele>
        <time>2026-07-07T09:43:47.000Z</time>
      </trkpt>
      <trkpt lat="45.80515" lon="1.91906">
        <ele>786.1</ele>
        <time>2026-07-07T09:43:48.000Z</time>
      </trkpt>
      <trkpt lat="45.80515" lon="1.91908">
        <ele>786.1</ele>
        <time>2026-07-07T09:43:49.000Z</time>
      </trkpt>
      <trkpt lat="45.80514" lon="1.91911">
        <ele>786.4</ele>
        <time>2026-07-07T09:43:50.000Z</time>
      </trkpt>
      <trkpt lat="45.80514" lon="1.91913">
        <ele>786.4</ele>
        <time>2026-07-07T09:43:51.000Z</time>
      </trkpt>
      <trkpt lat="45.80513" lon="1.91916">
        <ele>786.4</ele>
        <time>2026-07-07T09:43:52.000Z</time>
      </trkpt>
      <trkpt lat="45.80512" lon="1.91918">
        <ele>786.1</ele>
        <time>2026-07-07T09:43:53.000Z</time>
      </trkpt>
      <trkpt lat="45.80512" lon="1.9192">
        <ele>786.2</ele>
        <time>2026-07-07T09:43:54.000Z</time>
      </trkpt>
      <trkpt lat="45.80511" lon="1.91922">
        <ele>786.5</ele>
        <time>2026-07-07T09:43:55.000Z</time>
      </trkpt>
      <trkpt lat="45.8051" lon="1.91925">
        <ele>787</ele>
        <time>2026-07-07T09:43:56.000Z</time>
      </trkpt>
      <trkpt lat="45.8051" lon="1.91927">
        <ele>786.9</ele>
        <time>2026-07-07T09:43:57.000Z</time>
      </trkpt>
      <trkpt lat="45.80509" lon="1.9193">
        <ele>786.8</ele>
        <time>2026-07-07T09:43:58.000Z</time>
      </trkpt>
      <trkpt lat="45.80509" lon="1.91932">
        <ele>787.1</ele>
        <time>2026-07-07T09:43:59.000Z</time>
      </trkpt>
      <trkpt lat="45.80509" lon="1.91934">
        <ele>787.1</ele>
        <time>2026-07-07T09:44:00.000Z</time>
      </trkpt>
      <trkpt lat="45.80508" lon="1.91937">
        <ele>787.2</ele>
        <time>2026-07-07T09:44:01.000Z</time>
      </trkpt>
      <trkpt lat="45.80507" lon="1.91939">
        <ele>787.5</ele>
        <time>2026-07-07T09:44:02.000Z</time>
      </trkpt>
      <trkpt lat="45.80507" lon="1.91941">
        <ele>787.4</ele>
        <time>2026-07-07T09:44:03.000Z</time>
      </trkpt>
      <trkpt lat="45.80506" lon="1.91943">
        <ele>787.4</ele>
        <time>2026-07-07T09:44:04.000Z</time>
      </trkpt>
      <trkpt lat="45.80506" lon="1.91945">
        <ele>787.4</ele>
        <time>2026-07-07T09:44:05.000Z</time>
      </trkpt>
      <trkpt lat="45.80505" lon="1.91947">
        <ele>787.5</ele>
        <time>2026-07-07T09:44:06.000Z</time>
      </trkpt>
      <trkpt lat="45.80505" lon="1.9195">
        <ele>787.5</ele>
        <time>2026-07-07T09:44:07.000Z</time>
      </trkpt>
      <trkpt lat="45.80504" lon="1.91952">
        <ele>787.3</ele>
        <time>2026-07-07T09:44:08.000Z</time>
      </trkpt>
      <trkpt lat="45.80504" lon="1.91954">
        <ele>787.1</ele>
        <time>2026-07-07T09:44:09.000Z</time>
      </trkpt>
      <trkpt lat="45.80503" lon="1.91956">
        <ele>787.1</ele>
        <time>2026-07-07T09:44:10.000Z</time>
      </trkpt>
      <trkpt lat="45.80503" lon="1.91958">
        <ele>787.1</ele>
        <time>2026-07-07T09:44:11.000Z</time>
      </trkpt>
      <trkpt lat="45.80502" lon="1.9196">
        <ele>787.1</ele>
        <time>2026-07-07T09:44:12.000Z</time>
      </trkpt>
      <trkpt lat="45.80501" lon="1.91962">
        <ele>787.1</ele>
        <time>2026-07-07T09:44:13.000Z</time>
      </trkpt>
      <trkpt lat="45.80501" lon="1.91964">
        <ele>787.3</ele>
        <time>2026-07-07T09:44:14.000Z</time>
      </trkpt>
      <trkpt lat="45.805" lon="1.91966">
        <ele>787.1</ele>
        <time>2026-07-07T09:44:15.000Z</time>
      </trkpt>
      <trkpt lat="45.805" lon="1.91969">
        <ele>787.3</ele>
        <time>2026-07-07T09:44:16.000Z</time>
      </trkpt>
      <trkpt lat="45.805" lon="1.91971">
        <ele>787.2</ele>
        <time>2026-07-07T09:44:17.000Z</time>
      </trkpt>
      <trkpt lat="45.80499" lon="1.91973">
        <ele>787.1</ele>
        <time>2026-07-07T09:44:18.000Z</time>
      </trkpt>
      <trkpt lat="45.80498" lon="1.91975">
        <ele>787.1</ele>
        <time>2026-07-07T09:44:19.000Z</time>
      </trkpt>
      <trkpt lat="45.80498" lon="1.91977">
        <ele>787.1</ele>
        <time>2026-07-07T09:44:20.000Z</time>
      </trkpt>
      <trkpt lat="45.80498" lon="1.91979">
        <ele>786.9</ele>
        <time>2026-07-07T09:44:21.000Z</time>
      </trkpt>
      <trkpt lat="45.80497" lon="1.91982">
        <ele>786.9</ele>
        <time>2026-07-07T09:44:22.000Z</time>
      </trkpt>
      <trkpt lat="45.80497" lon="1.91984">
        <ele>786.8</ele>
        <time>2026-07-07T09:44:23.000Z</time>
      </trkpt>
      <trkpt lat="45.80496" lon="1.91986">
        <ele>786.9</ele>
        <time>2026-07-07T09:44:24.000Z</time>
      </trkpt>
      <trkpt lat="45.80495" lon="1.91988">
        <ele>786.8</ele>
        <time>2026-07-07T09:44:25.000Z</time>
      </trkpt>
      <trkpt lat="45.80495" lon="1.9199">
        <ele>786.9</ele>
        <time>2026-07-07T09:44:26.000Z</time>
      </trkpt>
      <trkpt lat="45.80494" lon="1.91992">
        <ele>786.8</ele>
        <time>2026-07-07T09:44:27.000Z</time>
      </trkpt>
      <trkpt lat="45.80494" lon="1.91994">
        <ele>786.9</ele>
        <time>2026-07-07T09:44:28.000Z</time>
      </trkpt>
      <trkpt lat="45.80493" lon="1.91996">
        <ele>786.9</ele>
        <time>2026-07-07T09:44:29.000Z</time>
      </trkpt>
      <trkpt lat="45.80493" lon="1.91999">
        <ele>786.8</ele>
        <time>2026-07-07T09:44:30.000Z</time>
      </trkpt>
      <trkpt lat="45.80492" lon="1.92001">
        <ele>787.4</ele>
        <time>2026-07-07T09:44:31.000Z</time>
      </trkpt>
      <trkpt lat="45.80491" lon="1.92003">
        <ele>787.4</ele>
        <time>2026-07-07T09:44:32.000Z</time>
      </trkpt>
      <trkpt lat="45.80491" lon="1.92005">
        <ele>787.5</ele>
        <time>2026-07-07T09:44:33.000Z</time>
      </trkpt>
      <trkpt lat="45.8049" lon="1.92007">
        <ele>787.5</ele>
        <time>2026-07-07T09:44:34.000Z</time>
      </trkpt>
      <trkpt lat="45.80489" lon="1.9201">
        <ele>787.6</ele>
        <time>2026-07-07T09:44:35.000Z</time>
      </trkpt>
      <trkpt lat="45.80489" lon="1.92012">
        <ele>787.6</ele>
        <time>2026-07-07T09:44:36.000Z</time>
      </trkpt>
      <trkpt lat="45.80488" lon="1.92014">
        <ele>787.6</ele>
        <time>2026-07-07T09:44:37.000Z</time>
      </trkpt>
      <trkpt lat="45.80488" lon="1.92016">
        <ele>787.8</ele>
        <time>2026-07-07T09:44:38.000Z</time>
      </trkpt>
      <trkpt lat="45.80487" lon="1.92018">
        <ele>787.8</ele>
        <time>2026-07-07T09:44:39.000Z</time>
      </trkpt>
      <trkpt lat="45.80487" lon="1.92021">
        <ele>788</ele>
        <time>2026-07-07T09:44:40.000Z</time>
      </trkpt>
      <trkpt lat="45.80487" lon="1.92023">
        <ele>788</ele>
        <time>2026-07-07T09:44:41.000Z</time>
      </trkpt>
      <trkpt lat="45.80486" lon="1.92025">
        <ele>787.8</ele>
        <time>2026-07-07T09:44:42.000Z</time>
      </trkpt>
      <trkpt lat="45.80485" lon="1.92027">
        <ele>787.8</ele>
        <time>2026-07-07T09:44:43.000Z</time>
      </trkpt>
      <trkpt lat="45.80485" lon="1.92029">
        <ele>787.7</ele>
        <time>2026-07-07T09:44:44.000Z</time>
      </trkpt>
      <trkpt lat="45.80484" lon="1.92032">
        <ele>787.8</ele>
        <time>2026-07-07T09:44:45.000Z</time>
      </trkpt>
      <trkpt lat="45.80483" lon="1.92034">
        <ele>787.8</ele>
        <time>2026-07-07T09:44:46.000Z</time>
      </trkpt>
      <trkpt lat="45.80482" lon="1.92035">
        <ele>787.9</ele>
        <time>2026-07-07T09:44:47.000Z</time>
      </trkpt>
      <trkpt lat="45.80481" lon="1.92037">
        <ele>787.9</ele>
        <time>2026-07-07T09:44:48.000Z</time>
      </trkpt>
      <trkpt lat="45.80481" lon="1.92039">
        <ele>787.9</ele>
        <time>2026-07-07T09:44:49.000Z</time>
      </trkpt>
      <trkpt lat="45.8048" lon="1.92041">
        <ele>787.7</ele>
        <time>2026-07-07T09:44:50.000Z</time>
      </trkpt>
      <trkpt lat="45.8048" lon="1.92043">
        <ele>787.6</ele>
        <time>2026-07-07T09:44:51.000Z</time>
      </trkpt>
      <trkpt lat="45.8048" lon="1.92045">
        <ele>787.3</ele>
        <time>2026-07-07T09:44:52.000Z</time>
      </trkpt>
      <trkpt lat="45.8048" lon="1.92047">
        <ele>787.3</ele>
        <time>2026-07-07T09:44:53.000Z</time>
      </trkpt>
      <trkpt lat="45.80479" lon="1.92049">
        <ele>787.3</ele>
        <time>2026-07-07T09:44:54.000Z</time>
      </trkpt>
      <trkpt lat="45.80479" lon="1.92051">
        <ele>787.3</ele>
        <time>2026-07-07T09:44:55.000Z</time>
      </trkpt>
      <trkpt lat="45.80478" lon="1.92053">
        <ele>787.3</ele>
        <time>2026-07-07T09:44:56.000Z</time>
      </trkpt>
      <trkpt lat="45.80477" lon="1.92055">
        <ele>787.1</ele>
        <time>2026-07-07T09:44:57.000Z</time>
      </trkpt>
      <trkpt lat="45.80476" lon="1.92057">
        <ele>787.2</ele>
        <time>2026-07-07T09:44:58.000Z</time>
      </trkpt>
      <trkpt lat="45.80476" lon="1.92059">
        <ele>786.9</ele>
        <time>2026-07-07T09:44:59.000Z</time>
      </trkpt>
      <trkpt lat="45.80475" lon="1.92061">
        <ele>786.7</ele>
        <time>2026-07-07T09:45:00.000Z</time>
      </trkpt>
      <trkpt lat="45.80474" lon="1.92063">
        <ele>786.8</ele>
        <time>2026-07-07T09:45:01.000Z</time>
      </trkpt>
      <trkpt lat="45.80473" lon="1.92065">
        <ele>787.2</ele>
        <time>2026-07-07T09:45:02.000Z</time>
      </trkpt>
      <trkpt lat="45.80472" lon="1.92067">
        <ele>787.5</ele>
        <time>2026-07-07T09:45:03.000Z</time>
      </trkpt>
      <trkpt lat="45.80472" lon="1.92069">
        <ele>787.2</ele>
        <time>2026-07-07T09:45:04.000Z</time>
      </trkpt>
      <trkpt lat="45.80471" lon="1.92071">
        <ele>786.9</ele>
        <time>2026-07-07T09:45:05.000Z</time>
      </trkpt>
      <trkpt lat="45.8047" lon="1.92073">
        <ele>786.5</ele>
        <time>2026-07-07T09:45:06.000Z</time>
      </trkpt>
      <trkpt lat="45.80469" lon="1.92074">
        <ele>786.1</ele>
        <time>2026-07-07T09:45:07.000Z</time>
      </trkpt>
      <trkpt lat="45.80469" lon="1.92076">
        <ele>786.1</ele>
        <time>2026-07-07T09:45:08.000Z</time>
      </trkpt>
      <trkpt lat="45.80468" lon="1.92078">
        <ele>785.8</ele>
        <time>2026-07-07T09:45:09.000Z</time>
      </trkpt>
      <trkpt lat="45.80467" lon="1.9208">
        <ele>785.6</ele>
        <time>2026-07-07T09:45:10.000Z</time>
      </trkpt>
      <trkpt lat="45.80466" lon="1.92082">
        <ele>785.5</ele>
        <time>2026-07-07T09:45:11.000Z</time>
      </trkpt>
      <trkpt lat="45.80465" lon="1.92084">
        <ele>785.3</ele>
        <time>2026-07-07T09:45:12.000Z</time>
      </trkpt>
      <trkpt lat="45.80465" lon="1.92086">
        <ele>785.2</ele>
        <time>2026-07-07T09:45:13.000Z</time>
      </trkpt>
      <trkpt lat="45.80464" lon="1.92087">
        <ele>784.9</ele>
        <time>2026-07-07T09:45:14.000Z</time>
      </trkpt>
      <trkpt lat="45.80463" lon="1.92089">
        <ele>784.8</ele>
        <time>2026-07-07T09:45:15.000Z</time>
      </trkpt>
      <trkpt lat="45.80463" lon="1.92091">
        <ele>784.7</ele>
        <time>2026-07-07T09:45:16.000Z</time>
      </trkpt>
      <trkpt lat="45.80462" lon="1.92093">
        <ele>784.7</ele>
        <time>2026-07-07T09:45:17.000Z</time>
      </trkpt>
      <trkpt lat="45.80461" lon="1.92095">
        <ele>784.6</ele>
        <time>2026-07-07T09:45:18.000Z</time>
      </trkpt>
      <trkpt lat="45.8046" lon="1.92098">
        <ele>784.4</ele>
        <time>2026-07-07T09:45:19.000Z</time>
      </trkpt>
      <trkpt lat="45.80459" lon="1.921">
        <ele>784.3</ele>
        <time>2026-07-07T09:45:20.000Z</time>
      </trkpt>
      <trkpt lat="45.80458" lon="1.92102">
        <ele>784.3</ele>
        <time>2026-07-07T09:45:21.000Z</time>
      </trkpt>
      <trkpt lat="45.80458" lon="1.92104">
        <ele>783.8</ele>
        <time>2026-07-07T09:45:22.000Z</time>
      </trkpt>
      <trkpt lat="45.80457" lon="1.92105">
        <ele>783.4</ele>
        <time>2026-07-07T09:45:23.000Z</time>
      </trkpt>
      <trkpt lat="45.80456" lon="1.92107">
        <ele>783.2</ele>
        <time>2026-07-07T09:45:24.000Z</time>
      </trkpt>
      <trkpt lat="45.80455" lon="1.92109">
        <ele>782.9</ele>
        <time>2026-07-07T09:45:25.000Z</time>
      </trkpt>
      <trkpt lat="45.80454" lon="1.92111">
        <ele>783.2</ele>
        <time>2026-07-07T09:45:26.000Z</time>
      </trkpt>
      <trkpt lat="45.80453" lon="1.92113">
        <ele>783.4</ele>
        <time>2026-07-07T09:45:27.000Z</time>
      </trkpt>
      <trkpt lat="45.80452" lon="1.92115">
        <ele>783.4</ele>
        <time>2026-07-07T09:45:28.000Z</time>
      </trkpt>
      <trkpt lat="45.80451" lon="1.92117">
        <ele>784.1</ele>
        <time>2026-07-07T09:45:29.000Z</time>
      </trkpt>
      <trkpt lat="45.8045" lon="1.92118">
        <ele>784.3</ele>
        <time>2026-07-07T09:45:30.000Z</time>
      </trkpt>
      <trkpt lat="45.80449" lon="1.9212">
        <ele>784.6</ele>
        <time>2026-07-07T09:45:31.000Z</time>
      </trkpt>
      <trkpt lat="45.80448" lon="1.92122">
        <ele>784.7</ele>
        <time>2026-07-07T09:45:32.000Z</time>
      </trkpt>
      <trkpt lat="45.80447" lon="1.92124">
        <ele>785</ele>
        <time>2026-07-07T09:45:33.000Z</time>
      </trkpt>
      <trkpt lat="45.80446" lon="1.92126">
        <ele>785.3</ele>
        <time>2026-07-07T09:45:34.000Z</time>
      </trkpt>
      <trkpt lat="45.80445" lon="1.92127">
        <ele>784.9</ele>
        <time>2026-07-07T09:45:35.000Z</time>
      </trkpt>
      <trkpt lat="45.80445" lon="1.92129">
        <ele>784.8</ele>
        <time>2026-07-07T09:45:36.000Z</time>
      </trkpt>
      <trkpt lat="45.80444" lon="1.92131">
        <ele>784.5</ele>
        <time>2026-07-07T09:45:37.000Z</time>
      </trkpt>
      <trkpt lat="45.80444" lon="1.92133">
        <ele>784.6</ele>
        <time>2026-07-07T09:45:38.000Z</time>
      </trkpt>
      <trkpt lat="45.80443" lon="1.92135">
        <ele>784.6</ele>
        <time>2026-07-07T09:45:39.000Z</time>
      </trkpt>
      <trkpt lat="45.80442" lon="1.92137">
        <ele>784.6</ele>
        <time>2026-07-07T09:45:40.000Z</time>
      </trkpt>
      <trkpt lat="45.80442" lon="1.92139">
        <ele>784.6</ele>
        <time>2026-07-07T09:45:41.000Z</time>
      </trkpt>
      <trkpt lat="45.80442" lon="1.92141">
        <ele>785</ele>
        <time>2026-07-07T09:45:42.000Z</time>
      </trkpt>
      <trkpt lat="45.80442" lon="1.92143">
        <ele>784.6</ele>
        <time>2026-07-07T09:45:43.000Z</time>
      </trkpt>
      <trkpt lat="45.80442" lon="1.92145">
        <ele>785.1</ele>
        <time>2026-07-07T09:45:44.000Z</time>
      </trkpt>
      <trkpt lat="45.80443" lon="1.92147">
        <ele>785.5</ele>
        <time>2026-07-07T09:45:45.000Z</time>
      </trkpt>
      <trkpt lat="45.80443" lon="1.92149">
        <ele>785.8</ele>
        <time>2026-07-07T09:45:46.000Z</time>
      </trkpt>
      <trkpt lat="45.80443" lon="1.92151">
        <ele>785.7</ele>
        <time>2026-07-07T09:45:47.000Z</time>
      </trkpt>
      <trkpt lat="45.80444" lon="1.92153">
        <ele>785.7</ele>
        <time>2026-07-07T09:45:48.000Z</time>
      </trkpt>
      <trkpt lat="45.80445" lon="1.92155">
        <ele>785.7</ele>
        <time>2026-07-07T09:45:49.000Z</time>
      </trkpt>
      <trkpt lat="45.80446" lon="1.92157">
        <ele>785.6</ele>
        <time>2026-07-07T09:45:50.000Z</time>
      </trkpt>
      <trkpt lat="45.80446" lon="1.92158">
        <ele>785.7</ele>
        <time>2026-07-07T09:45:51.000Z</time>
      </trkpt>
      <trkpt lat="45.80447" lon="1.9216">
        <ele>785.8</ele>
        <time>2026-07-07T09:45:52.000Z</time>
      </trkpt>
      <trkpt lat="45.8045" lon="1.9216">
        <ele>785.9</ele>
        <time>2026-07-07T09:45:53.000Z</time>
      </trkpt>
      <trkpt lat="45.80451" lon="1.92161">
        <ele>786.5</ele>
        <time>2026-07-07T09:45:54.000Z</time>
      </trkpt>
      <trkpt lat="45.80451" lon="1.92164">
        <ele>787</ele>
        <time>2026-07-07T09:45:55.000Z</time>
      </trkpt>
      <trkpt lat="45.80452" lon="1.92165">
        <ele>786.6</ele>
        <time>2026-07-07T09:45:56.000Z</time>
      </trkpt>
      <trkpt lat="45.80452" lon="1.92164">
        <ele>786.7</ele>
        <time>2026-07-07T09:45:57.000Z</time>
      </trkpt>
      <trkpt lat="45.80452" lon="1.92164">
        <ele>786.7</ele>
        <time>2026-07-07T09:45:58.000Z</time>
      </trkpt>
      <trkpt lat="45.80452" lon="1.92164">
        <ele>786.6</ele>
        <time>2026-07-07T09:45:59.000Z</time>
      </trkpt>
      <trkpt lat="45.80453" lon="1.92165">
        <ele>786.4</ele>
        <time>2026-07-07T09:46:00.000Z</time>
      </trkpt>
      <trkpt lat="45.80452" lon="1.92165">
        <ele>786.5</ele>
        <time>2026-07-07T09:46:01.000Z</time>
      </trkpt>
      <trkpt lat="45.80456" lon="1.92168">
        <ele>786</ele>
        <time>2026-07-07T09:46:02.000Z</time>
      </trkpt>
      <trkpt lat="45.80458" lon="1.92171">
        <ele>786.2</ele>
        <time>2026-07-07T09:46:03.000Z</time>
      </trkpt>
      <trkpt lat="45.80461" lon="1.92173">
        <ele>786.6</ele>
        <time>2026-07-07T09:46:04.000Z</time>
      </trkpt>
      <trkpt lat="45.80462" lon="1.92175">
        <ele>787.2</ele>
        <time>2026-07-07T09:46:05.000Z</time>
      </trkpt>
      <trkpt lat="45.80464" lon="1.92177">
        <ele>787.3</ele>
        <time>2026-07-07T09:46:06.000Z</time>
      </trkpt>
      <trkpt lat="45.80465" lon="1.92179">
        <ele>787.6</ele>
        <time>2026-07-07T09:46:07.000Z</time>
      </trkpt>
      <trkpt lat="45.80466" lon="1.92181">
        <ele>787.5</ele>
        <time>2026-07-07T09:46:08.000Z</time>
      </trkpt>
      <trkpt lat="45.80467" lon="1.92183">
        <ele>787.6</ele>
        <time>2026-07-07T09:46:09.000Z</time>
      </trkpt>
      <trkpt lat="45.80468" lon="1.92184">
        <ele>787.7</ele>
        <time>2026-07-07T09:46:10.000Z</time>
      </trkpt>
      <trkpt lat="45.8047" lon="1.92186">
        <ele>787.6</ele>
        <time>2026-07-07T09:46:11.000Z</time>
      </trkpt>
      <trkpt lat="45.80471" lon="1.92187">
        <ele>787.5</ele>
        <time>2026-07-07T09:46:12.000Z</time>
      </trkpt>
      <trkpt lat="45.80472" lon="1.92189">
        <ele>787.4</ele>
        <time>2026-07-07T09:46:13.000Z</time>
      </trkpt>
      <trkpt lat="45.80473" lon="1.92191">
        <ele>787.2</ele>
        <time>2026-07-07T09:46:14.000Z</time>
      </trkpt>
      <trkpt lat="45.80473" lon="1.92192">
        <ele>786.9</ele>
        <time>2026-07-07T09:46:15.000Z</time>
      </trkpt>
      <trkpt lat="45.80474" lon="1.92195">
        <ele>786.4</ele>
        <time>2026-07-07T09:46:16.000Z</time>
      </trkpt>
      <trkpt lat="45.80475" lon="1.92196">
        <ele>786.3</ele>
        <time>2026-07-07T09:46:17.000Z</time>
      </trkpt>
      <trkpt lat="45.80475" lon="1.92198">
        <ele>786</ele>
        <time>2026-07-07T09:46:18.000Z</time>
      </trkpt>
      <trkpt lat="45.80476" lon="1.922">
        <ele>786.2</ele>
        <time>2026-07-07T09:46:19.000Z</time>
      </trkpt>
      <trkpt lat="45.80477" lon="1.92202">
        <ele>786.7</ele>
        <time>2026-07-07T09:46:20.000Z</time>
      </trkpt>
      <trkpt lat="45.80478" lon="1.92204">
        <ele>786</ele>
        <time>2026-07-07T09:46:21.000Z</time>
      </trkpt>
      <trkpt lat="45.80479" lon="1.92205">
        <ele>785.5</ele>
        <time>2026-07-07T09:46:22.000Z</time>
      </trkpt>
      <trkpt lat="45.8048" lon="1.92206">
        <ele>785.9</ele>
        <time>2026-07-07T09:46:23.000Z</time>
      </trkpt>
      <trkpt lat="45.80481" lon="1.92208">
        <ele>785.8</ele>
        <time>2026-07-07T09:46:24.000Z</time>
      </trkpt>
      <trkpt lat="45.80482" lon="1.9221">
        <ele>785.9</ele>
        <time>2026-07-07T09:46:25.000Z</time>
      </trkpt>
      <trkpt lat="45.80482" lon="1.92212">
        <ele>785.2</ele>
        <time>2026-07-07T09:46:26.000Z</time>
      </trkpt>
      <trkpt lat="45.80482" lon="1.92214">
        <ele>785</ele>
        <time>2026-07-07T09:46:27.000Z</time>
      </trkpt>
      <trkpt lat="45.80482" lon="1.92216">
        <ele>785.1</ele>
        <time>2026-07-07T09:46:28.000Z</time>
      </trkpt>
      <trkpt lat="45.80482" lon="1.92218">
        <ele>785.1</ele>
        <time>2026-07-07T09:46:29.000Z</time>
      </trkpt>
      <trkpt lat="45.80483" lon="1.9222">
        <ele>784.8</ele>
        <time>2026-07-07T09:46:30.000Z</time>
      </trkpt>
      <trkpt lat="45.80483" lon="1.92222">
        <ele>784.4</ele>
        <time>2026-07-07T09:46:31.000Z</time>
      </trkpt>
      <trkpt lat="45.80484" lon="1.92224">
        <ele>784</ele>
        <time>2026-07-07T09:46:32.000Z</time>
      </trkpt>
      <trkpt lat="45.80484" lon="1.92225">
        <ele>783.3</ele>
        <time>2026-07-07T09:46:33.000Z</time>
      </trkpt>
      <trkpt lat="45.80485" lon="1.92227">
        <ele>783.2</ele>
        <time>2026-07-07T09:46:34.000Z</time>
      </trkpt>
      <trkpt lat="45.80484" lon="1.92229">
        <ele>783.1</ele>
        <time>2026-07-07T09:46:35.000Z</time>
      </trkpt>
      <trkpt lat="45.80484" lon="1.92232">
        <ele>783.1</ele>
        <time>2026-07-07T09:46:36.000Z</time>
      </trkpt>
      <trkpt lat="45.80484" lon="1.92235">
        <ele>781.7</ele>
        <time>2026-07-07T09:46:37.000Z</time>
      </trkpt>
      <trkpt lat="45.80484" lon="1.92237">
        <ele>780.8</ele>
        <time>2026-07-07T09:46:38.000Z</time>
      </trkpt>
      <trkpt lat="45.80484" lon="1.9224">
        <ele>781</ele>
        <time>2026-07-07T09:46:39.000Z</time>
      </trkpt>
      <trkpt lat="45.80484" lon="1.92242">
        <ele>781.2</ele>
        <time>2026-07-07T09:46:40.000Z</time>
      </trkpt>
      <trkpt lat="45.80484" lon="1.92244">
        <ele>781.2</ele>
        <time>2026-07-07T09:46:41.000Z</time>
      </trkpt>
      <trkpt lat="45.80484" lon="1.92246">
        <ele>781</ele>
        <time>2026-07-07T09:46:42.000Z</time>
      </trkpt>
      <trkpt lat="45.80483" lon="1.92248">
        <ele>781.5</ele>
        <time>2026-07-07T09:46:43.000Z</time>
      </trkpt>
      <trkpt lat="45.80482" lon="1.92251">
        <ele>781.7</ele>
        <time>2026-07-07T09:46:44.000Z</time>
      </trkpt>
      <trkpt lat="45.80481" lon="1.92253">
        <ele>781.7</ele>
        <time>2026-07-07T09:46:45.000Z</time>
      </trkpt>
      <trkpt lat="45.8048" lon="1.92255">
        <ele>782.1</ele>
        <time>2026-07-07T09:46:46.000Z</time>
      </trkpt>
      <trkpt lat="45.8048" lon="1.92257">
        <ele>781.9</ele>
        <time>2026-07-07T09:46:47.000Z</time>
      </trkpt>
      <trkpt lat="45.80479" lon="1.92259">
        <ele>782.3</ele>
        <time>2026-07-07T09:46:48.000Z</time>
      </trkpt>
      <trkpt lat="45.80478" lon="1.92261">
        <ele>782.4</ele>
        <time>2026-07-07T09:46:49.000Z</time>
      </trkpt>
      <trkpt lat="45.80477" lon="1.92263">
        <ele>782.4</ele>
        <time>2026-07-07T09:46:50.000Z</time>
      </trkpt>
      <trkpt lat="45.80476" lon="1.92266">
        <ele>781.3</ele>
        <time>2026-07-07T09:46:51.000Z</time>
      </trkpt>
      <trkpt lat="45.80475" lon="1.92268">
        <ele>781.6</ele>
        <time>2026-07-07T09:46:52.000Z</time>
      </trkpt>
      <trkpt lat="45.80474" lon="1.9227">
        <ele>781.4</ele>
        <time>2026-07-07T09:46:53.000Z</time>
      </trkpt>
      <trkpt lat="45.80473" lon="1.92272">
        <ele>780.8</ele>
        <time>2026-07-07T09:46:54.000Z</time>
      </trkpt>
      <trkpt lat="45.80472" lon="1.92274">
        <ele>779.7</ele>
        <time>2026-07-07T09:46:55.000Z</time>
      </trkpt>
      <trkpt lat="45.80471" lon="1.92276">
        <ele>779.5</ele>
        <time>2026-07-07T09:46:56.000Z</time>
      </trkpt>
      <trkpt lat="45.8047" lon="1.92278">
        <ele>779.6</ele>
        <time>2026-07-07T09:46:57.000Z</time>
      </trkpt>
      <trkpt lat="45.80469" lon="1.92279">
        <ele>779.2</ele>
        <time>2026-07-07T09:46:58.000Z</time>
      </trkpt>
      <trkpt lat="45.80468" lon="1.9228">
        <ele>779.3</ele>
        <time>2026-07-07T09:46:59.000Z</time>
      </trkpt>
      <trkpt lat="45.80467" lon="1.92282">
        <ele>779.2</ele>
        <time>2026-07-07T09:47:00.000Z</time>
      </trkpt>
      <trkpt lat="45.80467" lon="1.92284">
        <ele>778.8</ele>
        <time>2026-07-07T09:47:01.000Z</time>
      </trkpt>
      <trkpt lat="45.80466" lon="1.92286">
        <ele>778.6</ele>
        <time>2026-07-07T09:47:02.000Z</time>
      </trkpt>
      <trkpt lat="45.80466" lon="1.92288">
        <ele>778.3</ele>
        <time>2026-07-07T09:47:03.000Z</time>
      </trkpt>
      <trkpt lat="45.80465" lon="1.9229">
        <ele>778</ele>
        <time>2026-07-07T09:47:04.000Z</time>
      </trkpt>
      <trkpt lat="45.80464" lon="1.92292">
        <ele>777.7</ele>
        <time>2026-07-07T09:47:05.000Z</time>
      </trkpt>
      <trkpt lat="45.80463" lon="1.92294">
        <ele>777.1</ele>
        <time>2026-07-07T09:47:06.000Z</time>
      </trkpt>
      <trkpt lat="45.80463" lon="1.92297">
        <ele>777.1</ele>
        <time>2026-07-07T09:47:07.000Z</time>
      </trkpt>
      <trkpt lat="45.80462" lon="1.923">
        <ele>775.1</ele>
        <time>2026-07-07T09:47:08.000Z</time>
      </trkpt>
      <trkpt lat="45.80462" lon="1.92303">
        <ele>774.7</ele>
        <time>2026-07-07T09:47:09.000Z</time>
      </trkpt>
      <trkpt lat="45.80461" lon="1.92306">
        <ele>774.8</ele>
        <time>2026-07-07T09:47:10.000Z</time>
      </trkpt>
      <trkpt lat="45.8046" lon="1.92309">
        <ele>775.4</ele>
        <time>2026-07-07T09:47:11.000Z</time>
      </trkpt>
      <trkpt lat="45.80461" lon="1.92312">
        <ele>775.2</ele>
        <time>2026-07-07T09:47:12.000Z</time>
      </trkpt>
      <trkpt lat="45.80461" lon="1.92315">
        <ele>774.2</ele>
        <time>2026-07-07T09:47:13.000Z</time>
      </trkpt>
      <trkpt lat="45.80462" lon="1.92316">
        <ele>774.7</ele>
        <time>2026-07-07T09:47:14.000Z</time>
      </trkpt>
      <trkpt lat="45.80462" lon="1.92318">
        <ele>775.3</ele>
        <time>2026-07-07T09:47:15.000Z</time>
      </trkpt>
      <trkpt lat="45.80461" lon="1.9232">
        <ele>775.3</ele>
        <time>2026-07-07T09:47:16.000Z</time>
      </trkpt>
      <trkpt lat="45.8046" lon="1.92321">
        <ele>775.6</ele>
        <time>2026-07-07T09:47:17.000Z</time>
      </trkpt>
      <trkpt lat="45.80459" lon="1.92323">
        <ele>776</ele>
        <time>2026-07-07T09:47:18.000Z</time>
      </trkpt>
      <trkpt lat="45.80459" lon="1.92325">
        <ele>775.1</ele>
        <time>2026-07-07T09:47:19.000Z</time>
      </trkpt>
      <trkpt lat="45.80459" lon="1.92327">
        <ele>774.8</ele>
        <time>2026-07-07T09:47:20.000Z</time>
      </trkpt>
      <trkpt lat="45.80459" lon="1.92329">
        <ele>774.8</ele>
        <time>2026-07-07T09:47:21.000Z</time>
      </trkpt>
      <trkpt lat="45.8046" lon="1.92331">
        <ele>775.4</ele>
        <time>2026-07-07T09:47:22.000Z</time>
      </trkpt>
      <trkpt lat="45.8046" lon="1.92333">
        <ele>774.9</ele>
        <time>2026-07-07T09:47:23.000Z</time>
      </trkpt>
      <trkpt lat="45.8046" lon="1.92335">
        <ele>774.9</ele>
        <time>2026-07-07T09:47:24.000Z</time>
      </trkpt>
      <trkpt lat="45.8046" lon="1.92337">
        <ele>775.1</ele>
        <time>2026-07-07T09:47:25.000Z</time>
      </trkpt>
      <trkpt lat="45.8046" lon="1.92339">
        <ele>775.3</ele>
        <time>2026-07-07T09:47:26.000Z</time>
      </trkpt>
      <trkpt lat="45.8046" lon="1.92341">
        <ele>775.5</ele>
        <time>2026-07-07T09:47:27.000Z</time>
      </trkpt>
      <trkpt lat="45.8046" lon="1.92343">
        <ele>775.5</ele>
        <time>2026-07-07T09:47:28.000Z</time>
      </trkpt>
      <trkpt lat="45.80461" lon="1.92345">
        <ele>775.2</ele>
        <time>2026-07-07T09:47:29.000Z</time>
      </trkpt>
      <trkpt lat="45.80461" lon="1.92347">
        <ele>775.1</ele>
        <time>2026-07-07T09:47:30.000Z</time>
      </trkpt>
      <trkpt lat="45.80462" lon="1.92347">
        <ele>775.1</ele>
        <time>2026-07-07T09:47:31.000Z</time>
      </trkpt>
      <trkpt lat="45.80462" lon="1.92349">
        <ele>775.2</ele>
        <time>2026-07-07T09:47:32.000Z</time>
      </trkpt>
      <trkpt lat="45.80463" lon="1.92352">
        <ele>775.9</ele>
        <time>2026-07-07T09:47:33.000Z</time>
      </trkpt>
      <trkpt lat="45.80464" lon="1.92356">
        <ele>776.5</ele>
        <time>2026-07-07T09:47:34.000Z</time>
      </trkpt>
      <trkpt lat="45.80464" lon="1.92358">
        <ele>777</ele>
        <time>2026-07-07T09:47:35.000Z</time>
      </trkpt>
      <trkpt lat="45.80465" lon="1.9236">
        <ele>776.6</ele>
        <time>2026-07-07T09:47:36.000Z</time>
      </trkpt>
      <trkpt lat="45.80465" lon="1.92362">
        <ele>776.2</ele>
        <time>2026-07-07T09:47:37.000Z</time>
      </trkpt>
      <trkpt lat="45.80466" lon="1.92364">
        <ele>775.6</ele>
        <time>2026-07-07T09:47:38.000Z</time>
      </trkpt>
      <trkpt lat="45.80467" lon="1.92365">
        <ele>775.3</ele>
        <time>2026-07-07T09:47:39.000Z</time>
      </trkpt>
      <trkpt lat="45.80468" lon="1.92367">
        <ele>774.9</ele>
        <time>2026-07-07T09:47:40.000Z</time>
      </trkpt>
      <trkpt lat="45.80468" lon="1.92369">
        <ele>774.7</ele>
        <time>2026-07-07T09:47:41.000Z</time>
      </trkpt>
      <trkpt lat="45.80469" lon="1.9237">
        <ele>774.3</ele>
        <time>2026-07-07T09:47:42.000Z</time>
      </trkpt>
      <trkpt lat="45.8047" lon="1.92371">
        <ele>773.9</ele>
        <time>2026-07-07T09:47:43.000Z</time>
      </trkpt>
      <trkpt lat="45.80472" lon="1.92372">
        <ele>773.4</ele>
        <time>2026-07-07T09:47:44.000Z</time>
      </trkpt>
      <trkpt lat="45.80473" lon="1.92374">
        <ele>773.1</ele>
        <time>2026-07-07T09:47:45.000Z</time>
      </trkpt>
      <trkpt lat="45.80474" lon="1.92375">
        <ele>772.8</ele>
        <time>2026-07-07T09:47:46.000Z</time>
      </trkpt>
      <trkpt lat="45.80475" lon="1.92376">
        <ele>772.4</ele>
        <time>2026-07-07T09:47:47.000Z</time>
      </trkpt>
      <trkpt lat="45.80477" lon="1.92376">
        <ele>772.1</ele>
        <time>2026-07-07T09:47:48.000Z</time>
      </trkpt>
      <trkpt lat="45.80478" lon="1.92377">
        <ele>771.8</ele>
        <time>2026-07-07T09:47:49.000Z</time>
      </trkpt>
      <trkpt lat="45.8048" lon="1.92377">
        <ele>771.2</ele>
        <time>2026-07-07T09:47:50.000Z</time>
      </trkpt>
      <trkpt lat="45.80482" lon="1.92377">
        <ele>771.2</ele>
        <time>2026-07-07T09:47:51.000Z</time>
      </trkpt>
      <trkpt lat="45.80483" lon="1.92377">
        <ele>770.7</ele>
        <time>2026-07-07T09:47:52.000Z</time>
      </trkpt>
      <trkpt lat="45.80485" lon="1.92376">
        <ele>770.5</ele>
        <time>2026-07-07T09:47:53.000Z</time>
      </trkpt>
      <trkpt lat="45.80487" lon="1.92376">
        <ele>770.2</ele>
        <time>2026-07-07T09:47:54.000Z</time>
      </trkpt>
      <trkpt lat="45.80488" lon="1.92376">
        <ele>769.9</ele>
        <time>2026-07-07T09:47:55.000Z</time>
      </trkpt>
      <trkpt lat="45.8049" lon="1.92375">
        <ele>769.6</ele>
        <time>2026-07-07T09:47:56.000Z</time>
      </trkpt>
      <trkpt lat="45.80491" lon="1.92374">
        <ele>769.1</ele>
        <time>2026-07-07T09:47:57.000Z</time>
      </trkpt>
      <trkpt lat="45.80493" lon="1.92374">
        <ele>768.7</ele>
        <time>2026-07-07T09:47:58.000Z</time>
      </trkpt>
      <trkpt lat="45.80494" lon="1.92374">
        <ele>768.5</ele>
        <time>2026-07-07T09:47:59.000Z</time>
      </trkpt>
      <trkpt lat="45.80496" lon="1.92373">
        <ele>768.2</ele>
        <time>2026-07-07T09:48:00.000Z</time>
      </trkpt>
      <trkpt lat="45.80497" lon="1.92373">
        <ele>767.7</ele>
        <time>2026-07-07T09:48:01.000Z</time>
      </trkpt>
      <trkpt lat="45.80499" lon="1.92373">
        <ele>767.4</ele>
        <time>2026-07-07T09:48:02.000Z</time>
      </trkpt>
      <trkpt lat="45.805" lon="1.92373">
        <ele>767.1</ele>
        <time>2026-07-07T09:48:03.000Z</time>
      </trkpt>
      <trkpt lat="45.80502" lon="1.92373">
        <ele>766.9</ele>
        <time>2026-07-07T09:48:04.000Z</time>
      </trkpt>
      <trkpt lat="45.80503" lon="1.92373">
        <ele>766.6</ele>
        <time>2026-07-07T09:48:05.000Z</time>
      </trkpt>
      <trkpt lat="45.80505" lon="1.92373">
        <ele>766.5</ele>
        <time>2026-07-07T09:48:06.000Z</time>
      </trkpt>
      <trkpt lat="45.80506" lon="1.92373">
        <ele>766.5</ele>
        <time>2026-07-07T09:48:07.000Z</time>
      </trkpt>
      <trkpt lat="45.80508" lon="1.92374">
        <ele>766.3</ele>
        <time>2026-07-07T09:48:08.000Z</time>
      </trkpt>
      <trkpt lat="45.80509" lon="1.92374">
        <ele>766.1</ele>
        <time>2026-07-07T09:48:09.000Z</time>
      </trkpt>
      <trkpt lat="45.80511" lon="1.92375">
        <ele>766.1</ele>
        <time>2026-07-07T09:48:10.000Z</time>
      </trkpt>
      <trkpt lat="45.80512" lon="1.92375">
        <ele>765.8</ele>
        <time>2026-07-07T09:48:11.000Z</time>
      </trkpt>
      <trkpt lat="45.80514" lon="1.92376">
        <ele>765.5</ele>
        <time>2026-07-07T09:48:12.000Z</time>
      </trkpt>
      <trkpt lat="45.80516" lon="1.92376">
        <ele>765.3</ele>
        <time>2026-07-07T09:48:13.000Z</time>
      </trkpt>
      <trkpt lat="45.80517" lon="1.92377">
        <ele>765.1</ele>
        <time>2026-07-07T09:48:14.000Z</time>
      </trkpt>
      <trkpt lat="45.80519" lon="1.92377">
        <ele>765</ele>
        <time>2026-07-07T09:48:15.000Z</time>
      </trkpt>
      <trkpt lat="45.8052" lon="1.92378">
        <ele>765</ele>
        <time>2026-07-07T09:48:16.000Z</time>
      </trkpt>
      <trkpt lat="45.80522" lon="1.92378">
        <ele>765</ele>
        <time>2026-07-07T09:48:17.000Z</time>
      </trkpt>
      <trkpt lat="45.80523" lon="1.92379">
        <ele>764.7</ele>
        <time>2026-07-07T09:48:18.000Z</time>
      </trkpt>
      <trkpt lat="45.80525" lon="1.9238">
        <ele>764.6</ele>
        <time>2026-07-07T09:48:19.000Z</time>
      </trkpt>
      <trkpt lat="45.80527" lon="1.92381">
        <ele>764.7</ele>
        <time>2026-07-07T09:48:20.000Z</time>
      </trkpt>
      <trkpt lat="45.80528" lon="1.92381">
        <ele>764.5</ele>
        <time>2026-07-07T09:48:21.000Z</time>
      </trkpt>
      <trkpt lat="45.8053" lon="1.92382">
        <ele>764.6</ele>
        <time>2026-07-07T09:48:22.000Z</time>
      </trkpt>
      <trkpt lat="45.80531" lon="1.92382">
        <ele>764.6</ele>
        <time>2026-07-07T09:48:23.000Z</time>
      </trkpt>
      <trkpt lat="45.80533" lon="1.92383">
        <ele>764.6</ele>
        <time>2026-07-07T09:48:24.000Z</time>
      </trkpt>
      <trkpt lat="45.80535" lon="1.92383">
        <ele>764.5</ele>
        <time>2026-07-07T09:48:25.000Z</time>
      </trkpt>
      <trkpt lat="45.80536" lon="1.92384">
        <ele>764.3</ele>
        <time>2026-07-07T09:48:26.000Z</time>
      </trkpt>
      <trkpt lat="45.80538" lon="1.92385">
        <ele>764.2</ele>
        <time>2026-07-07T09:48:27.000Z</time>
      </trkpt>
      <trkpt lat="45.80539" lon="1.92385">
        <ele>763.8</ele>
        <time>2026-07-07T09:48:28.000Z</time>
      </trkpt>
      <trkpt lat="45.80541" lon="1.92386">
        <ele>763.8</ele>
        <time>2026-07-07T09:48:29.000Z</time>
      </trkpt>
      <trkpt lat="45.80543" lon="1.92386">
        <ele>763.7</ele>
        <time>2026-07-07T09:48:30.000Z</time>
      </trkpt>
      <trkpt lat="45.80544" lon="1.92387">
        <ele>763.5</ele>
        <time>2026-07-07T09:48:31.000Z</time>
      </trkpt>
      <trkpt lat="45.80546" lon="1.92388">
        <ele>762.9</ele>
        <time>2026-07-07T09:48:32.000Z</time>
      </trkpt>
      <trkpt lat="45.80547" lon="1.92389">
        <ele>762.7</ele>
        <time>2026-07-07T09:48:33.000Z</time>
      </trkpt>
      <trkpt lat="45.80549" lon="1.9239">
        <ele>762.5</ele>
        <time>2026-07-07T09:48:34.000Z</time>
      </trkpt>
      <trkpt lat="45.8055" lon="1.9239">
        <ele>762.4</ele>
        <time>2026-07-07T09:48:35.000Z</time>
      </trkpt>
      <trkpt lat="45.80552" lon="1.92391">
        <ele>761.8</ele>
        <time>2026-07-07T09:48:36.000Z</time>
      </trkpt>
      <trkpt lat="45.80553" lon="1.92391">
        <ele>761.9</ele>
        <time>2026-07-07T09:48:37.000Z</time>
      </trkpt>
      <trkpt lat="45.80555" lon="1.92393">
        <ele>761.9</ele>
        <time>2026-07-07T09:48:38.000Z</time>
      </trkpt>
      <trkpt lat="45.80556" lon="1.92394">
        <ele>761.8</ele>
        <time>2026-07-07T09:48:39.000Z</time>
      </trkpt>
      <trkpt lat="45.80558" lon="1.92395">
        <ele>761.5</ele>
        <time>2026-07-07T09:48:40.000Z</time>
      </trkpt>
      <trkpt lat="45.80559" lon="1.92396">
        <ele>761.5</ele>
        <time>2026-07-07T09:48:41.000Z</time>
      </trkpt>
      <trkpt lat="45.8056" lon="1.92396">
        <ele>760.7</ele>
        <time>2026-07-07T09:48:42.000Z</time>
      </trkpt>
      <trkpt lat="45.80561" lon="1.92397">
        <ele>760.5</ele>
        <time>2026-07-07T09:48:43.000Z</time>
      </trkpt>
      <trkpt lat="45.80563" lon="1.92398">
        <ele>760.4</ele>
        <time>2026-07-07T09:48:44.000Z</time>
      </trkpt>
      <trkpt lat="45.80564" lon="1.92399">
        <ele>760.3</ele>
        <time>2026-07-07T09:48:45.000Z</time>
      </trkpt>
      <trkpt lat="45.80566" lon="1.92399">
        <ele>760.3</ele>
        <time>2026-07-07T09:48:46.000Z</time>
      </trkpt>
      <trkpt lat="45.80567" lon="1.924">
        <ele>760</ele>
        <time>2026-07-07T09:48:47.000Z</time>
      </trkpt>
      <trkpt lat="45.80569" lon="1.92401">
        <ele>759.7</ele>
        <time>2026-07-07T09:48:48.000Z</time>
      </trkpt>
      <trkpt lat="45.8057" lon="1.92402">
        <ele>759.6</ele>
        <time>2026-07-07T09:48:49.000Z</time>
      </trkpt>
      <trkpt lat="45.80572" lon="1.92402">
        <ele>759.5</ele>
        <time>2026-07-07T09:48:50.000Z</time>
      </trkpt>
      <trkpt lat="45.80573" lon="1.92403">
        <ele>759.3</ele>
        <time>2026-07-07T09:48:51.000Z</time>
      </trkpt>
      <trkpt lat="45.80575" lon="1.92404">
        <ele>759.2</ele>
        <time>2026-07-07T09:48:52.000Z</time>
      </trkpt>
      <trkpt lat="45.80576" lon="1.92405">
        <ele>758.9</ele>
        <time>2026-07-07T09:48:53.000Z</time>
      </trkpt>
      <trkpt lat="45.80578" lon="1.92406">
        <ele>758.7</ele>
        <time>2026-07-07T09:48:54.000Z</time>
      </trkpt>
      <trkpt lat="45.80579" lon="1.92407">
        <ele>758.3</ele>
        <time>2026-07-07T09:48:55.000Z</time>
      </trkpt>
      <trkpt lat="45.80581" lon="1.92408">
        <ele>758.3</ele>
        <time>2026-07-07T09:48:56.000Z</time>
      </trkpt>
      <trkpt lat="45.80582" lon="1.92408">
        <ele>758.1</ele>
        <time>2026-07-07T09:48:57.000Z</time>
      </trkpt>
      <trkpt lat="45.80583" lon="1.92409">
        <ele>757.7</ele>
        <time>2026-07-07T09:48:58.000Z</time>
      </trkpt>
      <trkpt lat="45.80585" lon="1.9241">
        <ele>757.5</ele>
        <time>2026-07-07T09:48:59.000Z</time>
      </trkpt>
      <trkpt lat="45.80586" lon="1.92411">
        <ele>757.3</ele>
        <time>2026-07-07T09:49:00.000Z</time>
      </trkpt>
      <trkpt lat="45.80587" lon="1.92412">
        <ele>756.7</ele>
        <time>2026-07-07T09:49:01.000Z</time>
      </trkpt>
      <trkpt lat="45.80589" lon="1.92413">
        <ele>756.6</ele>
        <time>2026-07-07T09:49:02.000Z</time>
      </trkpt>
      <trkpt lat="45.8059" lon="1.92413">
        <ele>757.5</ele>
        <time>2026-07-07T09:49:03.000Z</time>
      </trkpt>
      <trkpt lat="45.80592" lon="1.92414">
        <ele>758.3</ele>
        <time>2026-07-07T09:49:04.000Z</time>
      </trkpt>
      <trkpt lat="45.80593" lon="1.92415">
        <ele>757.7</ele>
        <time>2026-07-07T09:49:05.000Z</time>
      </trkpt>
      <trkpt lat="45.80595" lon="1.92415">
        <ele>758.3</ele>
        <time>2026-07-07T09:49:06.000Z</time>
      </trkpt>
      <trkpt lat="45.80596" lon="1.92415">
        <ele>758.3</ele>
        <time>2026-07-07T09:49:07.000Z</time>
      </trkpt>
      <trkpt lat="45.80598" lon="1.92416">
        <ele>758.5</ele>
        <time>2026-07-07T09:49:08.000Z</time>
      </trkpt>
      <trkpt lat="45.80599" lon="1.92417">
        <ele>758.6</ele>
        <time>2026-07-07T09:49:09.000Z</time>
      </trkpt>
      <trkpt lat="45.80601" lon="1.92416">
        <ele>761.4</ele>
        <time>2026-07-07T09:49:10.000Z</time>
      </trkpt>
      <trkpt lat="45.80602" lon="1.92417">
        <ele>762.1</ele>
        <time>2026-07-07T09:49:11.000Z</time>
      </trkpt>
      <trkpt lat="45.80604" lon="1.92418">
        <ele>761.2</ele>
        <time>2026-07-07T09:49:12.000Z</time>
      </trkpt>
      <trkpt lat="45.80606" lon="1.92419">
        <ele>760.2</ele>
        <time>2026-07-07T09:49:13.000Z</time>
      </trkpt>
      <trkpt lat="45.80608" lon="1.92419">
        <ele>759.4</ele>
        <time>2026-07-07T09:49:14.000Z</time>
      </trkpt>
      <trkpt lat="45.8061" lon="1.9242">
        <ele>758.9</ele>
        <time>2026-07-07T09:49:15.000Z</time>
      </trkpt>
      <trkpt lat="45.80611" lon="1.92422">
        <ele>760.3</ele>
        <time>2026-07-07T09:49:16.000Z</time>
      </trkpt>
      <trkpt lat="45.80613" lon="1.92423">
        <ele>760.7</ele>
        <time>2026-07-07T09:49:17.000Z</time>
      </trkpt>
      <trkpt lat="45.80614" lon="1.92423">
        <ele>760.6</ele>
        <time>2026-07-07T09:49:18.000Z</time>
      </trkpt>
      <trkpt lat="45.80615" lon="1.92424">
        <ele>763</ele>
        <time>2026-07-07T09:49:19.000Z</time>
      </trkpt>
      <trkpt lat="45.80617" lon="1.92425">
        <ele>763.1</ele>
        <time>2026-07-07T09:49:20.000Z</time>
      </trkpt>
      <trkpt lat="45.80618" lon="1.92424">
        <ele>762.9</ele>
        <time>2026-07-07T09:49:21.000Z</time>
      </trkpt>
      <trkpt lat="45.8062" lon="1.92425">
        <ele>762.6</ele>
        <time>2026-07-07T09:49:22.000Z</time>
      </trkpt>
      <trkpt lat="45.80621" lon="1.92425">
        <ele>762.2</ele>
        <time>2026-07-07T09:49:23.000Z</time>
      </trkpt>
      <trkpt lat="45.80623" lon="1.92426">
        <ele>761.6</ele>
        <time>2026-07-07T09:49:24.000Z</time>
      </trkpt>
      <trkpt lat="45.80624" lon="1.92427">
        <ele>762.1</ele>
        <time>2026-07-07T09:49:25.000Z</time>
      </trkpt>
      <trkpt lat="45.80625" lon="1.92429">
        <ele>762.3</ele>
        <time>2026-07-07T09:49:26.000Z</time>
      </trkpt>
      <trkpt lat="45.80627" lon="1.92432">
        <ele>759.8</ele>
        <time>2026-07-07T09:49:27.000Z</time>
      </trkpt>
      <trkpt lat="45.80628" lon="1.92434">
        <ele>758.5</ele>
        <time>2026-07-07T09:49:28.000Z</time>
      </trkpt>
      <trkpt lat="45.80629" lon="1.92435">
        <ele>759.6</ele>
        <time>2026-07-07T09:49:29.000Z</time>
      </trkpt>
      <trkpt lat="45.80631" lon="1.92438">
        <ele>758.9</ele>
        <time>2026-07-07T09:49:30.000Z</time>
      </trkpt>
      <trkpt lat="45.80633" lon="1.9244">
        <ele>759.2</ele>
        <time>2026-07-07T09:49:31.000Z</time>
      </trkpt>
      <trkpt lat="45.80634" lon="1.92442">
        <ele>758.8</ele>
        <time>2026-07-07T09:49:32.000Z</time>
      </trkpt>
      <trkpt lat="45.80636" lon="1.92445">
        <ele>758.8</ele>
        <time>2026-07-07T09:49:33.000Z</time>
      </trkpt>
      <trkpt lat="45.80638" lon="1.92445">
        <ele>759.5</ele>
        <time>2026-07-07T09:49:34.000Z</time>
      </trkpt>
      <trkpt lat="45.8064" lon="1.92448">
        <ele>758.1</ele>
        <time>2026-07-07T09:49:35.000Z</time>
      </trkpt>
      <trkpt lat="45.80642" lon="1.9245">
        <ele>758.1</ele>
        <time>2026-07-07T09:49:36.000Z</time>
      </trkpt>
      <trkpt lat="45.80643" lon="1.92453">
        <ele>756.8</ele>
        <time>2026-07-07T09:49:37.000Z</time>
      </trkpt>
      <trkpt lat="45.80645" lon="1.92455">
        <ele>756.6</ele>
        <time>2026-07-07T09:49:38.000Z</time>
      </trkpt>
      <trkpt lat="45.80646" lon="1.92458">
        <ele>757.3</ele>
        <time>2026-07-07T09:49:39.000Z</time>
      </trkpt>
      <trkpt lat="45.80647" lon="1.92461">
        <ele>756.4</ele>
        <time>2026-07-07T09:49:40.000Z</time>
      </trkpt>
      <trkpt lat="45.80647" lon="1.92464">
        <ele>755.6</ele>
        <time>2026-07-07T09:49:41.000Z</time>
      </trkpt>
      <trkpt lat="45.80648" lon="1.92465">
        <ele>755</ele>
        <time>2026-07-07T09:49:42.000Z</time>
      </trkpt>
      <trkpt lat="45.80649" lon="1.92467">
        <ele>754.1</ele>
        <time>2026-07-07T09:49:43.000Z</time>
      </trkpt>
      <trkpt lat="45.8065" lon="1.92469">
        <ele>754.3</ele>
        <time>2026-07-07T09:49:44.000Z</time>
      </trkpt>
      <trkpt lat="45.8065" lon="1.92471">
        <ele>754.2</ele>
        <time>2026-07-07T09:49:45.000Z</time>
      </trkpt>
      <trkpt lat="45.80651" lon="1.92474">
        <ele>753.2</ele>
        <time>2026-07-07T09:49:46.000Z</time>
      </trkpt>
      <trkpt lat="45.80652" lon="1.92476">
        <ele>752.9</ele>
        <time>2026-07-07T09:49:47.000Z</time>
      </trkpt>
      <trkpt lat="45.80653" lon="1.92478">
        <ele>752.8</ele>
        <time>2026-07-07T09:49:48.000Z</time>
      </trkpt>
      <trkpt lat="45.80653" lon="1.92479">
        <ele>751.5</ele>
        <time>2026-07-07T09:49:49.000Z</time>
      </trkpt>
      <trkpt lat="45.80654" lon="1.9248">
        <ele>751.1</ele>
        <time>2026-07-07T09:49:50.000Z</time>
      </trkpt>
      <trkpt lat="45.80655" lon="1.92481">
        <ele>749.9</ele>
        <time>2026-07-07T09:49:51.000Z</time>
      </trkpt>
      <trkpt lat="45.80656" lon="1.92482">
        <ele>749.5</ele>
        <time>2026-07-07T09:49:52.000Z</time>
      </trkpt>
      <trkpt lat="45.80657" lon="1.92484">
        <ele>749.8</ele>
        <time>2026-07-07T09:49:53.000Z</time>
      </trkpt>
      <trkpt lat="45.80658" lon="1.92486">
        <ele>749.8</ele>
        <time>2026-07-07T09:49:54.000Z</time>
      </trkpt>
      <trkpt lat="45.80659" lon="1.92488">
        <ele>750.4</ele>
        <time>2026-07-07T09:49:55.000Z</time>
      </trkpt>
      <trkpt lat="45.8066" lon="1.9249">
        <ele>751.2</ele>
        <time>2026-07-07T09:49:56.000Z</time>
      </trkpt>
      <trkpt lat="45.80661" lon="1.92492">
        <ele>750.4</ele>
        <time>2026-07-07T09:49:57.000Z</time>
      </trkpt>
      <trkpt lat="45.80662" lon="1.92494">
        <ele>750.8</ele>
        <time>2026-07-07T09:49:58.000Z</time>
      </trkpt>
      <trkpt lat="45.80663" lon="1.92496">
        <ele>750.9</ele>
        <time>2026-07-07T09:49:59.000Z</time>
      </trkpt>
      <trkpt lat="45.80663" lon="1.92498">
        <ele>749.9</ele>
        <time>2026-07-07T09:50:00.000Z</time>
      </trkpt>
      <trkpt lat="45.80664" lon="1.92501">
        <ele>749.5</ele>
        <time>2026-07-07T09:50:01.000Z</time>
      </trkpt>
      <trkpt lat="45.80665" lon="1.92503">
        <ele>749.9</ele>
        <time>2026-07-07T09:50:02.000Z</time>
      </trkpt>
      <trkpt lat="45.80665" lon="1.92505">
        <ele>750.3</ele>
        <time>2026-07-07T09:50:03.000Z</time>
      </trkpt>
      <trkpt lat="45.80667" lon="1.92507">
        <ele>750.7</ele>
        <time>2026-07-07T09:50:04.000Z</time>
      </trkpt>
      <trkpt lat="45.80667" lon="1.92508">
        <ele>751</ele>
        <time>2026-07-07T09:50:05.000Z</time>
      </trkpt>
      <trkpt lat="45.80668" lon="1.9251">
        <ele>750.8</ele>
        <time>2026-07-07T09:50:06.000Z</time>
      </trkpt>
      <trkpt lat="45.80669" lon="1.92512">
        <ele>749.5</ele>
        <time>2026-07-07T09:50:07.000Z</time>
      </trkpt>
      <trkpt lat="45.80669" lon="1.92514">
        <ele>748.2</ele>
        <time>2026-07-07T09:50:08.000Z</time>
      </trkpt>
      <trkpt lat="45.8067" lon="1.92516">
        <ele>748.6</ele>
        <time>2026-07-07T09:50:09.000Z</time>
      </trkpt>
      <trkpt lat="45.80671" lon="1.92518">
        <ele>749.2</ele>
        <time>2026-07-07T09:50:10.000Z</time>
      </trkpt>
      <trkpt lat="45.80672" lon="1.9252">
        <ele>749.7</ele>
        <time>2026-07-07T09:50:11.000Z</time>
      </trkpt>
      <trkpt lat="45.80673" lon="1.92522">
        <ele>749.6</ele>
        <time>2026-07-07T09:50:12.000Z</time>
      </trkpt>
      <trkpt lat="45.80674" lon="1.92524">
        <ele>749.4</ele>
        <time>2026-07-07T09:50:13.000Z</time>
      </trkpt>
      <trkpt lat="45.80675" lon="1.92526">
        <ele>749.3</ele>
        <time>2026-07-07T09:50:14.000Z</time>
      </trkpt>
      <trkpt lat="45.80677" lon="1.92527">
        <ele>749.4</ele>
        <time>2026-07-07T09:50:15.000Z</time>
      </trkpt>
      <trkpt lat="45.80678" lon="1.92529">
        <ele>749.7</ele>
        <time>2026-07-07T09:50:16.000Z</time>
      </trkpt>
      <trkpt lat="45.80679" lon="1.92531">
        <ele>750.1</ele>
        <time>2026-07-07T09:50:17.000Z</time>
      </trkpt>
      <trkpt lat="45.8068" lon="1.92532">
        <ele>750.2</ele>
        <time>2026-07-07T09:50:18.000Z</time>
      </trkpt>
      <trkpt lat="45.80681" lon="1.92534">
        <ele>749.9</ele>
        <time>2026-07-07T09:50:19.000Z</time>
      </trkpt>
      <trkpt lat="45.80682" lon="1.92535">
        <ele>749.3</ele>
        <time>2026-07-07T09:50:20.000Z</time>
      </trkpt>
      <trkpt lat="45.80683" lon="1.92537">
        <ele>748.9</ele>
        <time>2026-07-07T09:50:21.000Z</time>
      </trkpt>
      <trkpt lat="45.80685" lon="1.92538">
        <ele>748.8</ele>
        <time>2026-07-07T09:50:22.000Z</time>
      </trkpt>
      <trkpt lat="45.80686" lon="1.9254">
        <ele>749</ele>
        <time>2026-07-07T09:50:23.000Z</time>
      </trkpt>
      <trkpt lat="45.80687" lon="1.92542">
        <ele>749.1</ele>
        <time>2026-07-07T09:50:24.000Z</time>
      </trkpt>
      <trkpt lat="45.80688" lon="1.92544">
        <ele>749.1</ele>
        <time>2026-07-07T09:50:25.000Z</time>
      </trkpt>
      <trkpt lat="45.8069" lon="1.92545">
        <ele>749.3</ele>
        <time>2026-07-07T09:50:26.000Z</time>
      </trkpt>
      <trkpt lat="45.80691" lon="1.92547">
        <ele>749.7</ele>
        <time>2026-07-07T09:50:27.000Z</time>
      </trkpt>
      <trkpt lat="45.80692" lon="1.92548">
        <ele>750.3</ele>
        <time>2026-07-07T09:50:28.000Z</time>
      </trkpt>
      <trkpt lat="45.80693" lon="1.92549">
        <ele>751.1</ele>
        <time>2026-07-07T09:50:29.000Z</time>
      </trkpt>
      <trkpt lat="45.80695" lon="1.9255">
        <ele>751.9</ele>
        <time>2026-07-07T09:50:30.000Z</time>
      </trkpt>
      <trkpt lat="45.80696" lon="1.92552">
        <ele>751.6</ele>
        <time>2026-07-07T09:50:31.000Z</time>
      </trkpt>
      <trkpt lat="45.80697" lon="1.92553">
        <ele>752.2</ele>
        <time>2026-07-07T09:50:32.000Z</time>
      </trkpt>
      <trkpt lat="45.80698" lon="1.92555">
        <ele>752.1</ele>
        <time>2026-07-07T09:50:33.000Z</time>
      </trkpt>
      <trkpt lat="45.80699" lon="1.92557">
        <ele>752.5</ele>
        <time>2026-07-07T09:50:34.000Z</time>
      </trkpt>
      <trkpt lat="45.807" lon="1.92558">
        <ele>752.1</ele>
        <time>2026-07-07T09:50:35.000Z</time>
      </trkpt>
      <trkpt lat="45.80701" lon="1.92559">
        <ele>752.1</ele>
        <time>2026-07-07T09:50:36.000Z</time>
      </trkpt>
      <trkpt lat="45.80702" lon="1.92561">
        <ele>751.6</ele>
        <time>2026-07-07T09:50:37.000Z</time>
      </trkpt>
      <trkpt lat="45.80703" lon="1.92562">
        <ele>751.8</ele>
        <time>2026-07-07T09:50:38.000Z</time>
      </trkpt>
      <trkpt lat="45.80704" lon="1.92563">
        <ele>751.3</ele>
        <time>2026-07-07T09:50:39.000Z</time>
      </trkpt>
      <trkpt lat="45.80705" lon="1.92565">
        <ele>750.7</ele>
        <time>2026-07-07T09:50:40.000Z</time>
      </trkpt>
      <trkpt lat="45.80706" lon="1.92566">
        <ele>751.6</ele>
        <time>2026-07-07T09:50:41.000Z</time>
      </trkpt>
      <trkpt lat="45.80707" lon="1.92566">
        <ele>751.3</ele>
        <time>2026-07-07T09:50:42.000Z</time>
      </trkpt>
      <trkpt lat="45.80709" lon="1.92567">
        <ele>751.3</ele>
        <time>2026-07-07T09:50:43.000Z</time>
      </trkpt>
      <trkpt lat="45.8071" lon="1.92569">
        <ele>750.6</ele>
        <time>2026-07-07T09:50:44.000Z</time>
      </trkpt>
      <trkpt lat="45.80711" lon="1.9257">
        <ele>748.7</ele>
        <time>2026-07-07T09:50:45.000Z</time>
      </trkpt>
      <trkpt lat="45.80713" lon="1.92571">
        <ele>749.2</ele>
        <time>2026-07-07T09:50:46.000Z</time>
      </trkpt>
      <trkpt lat="45.80714" lon="1.92572">
        <ele>748.7</ele>
        <time>2026-07-07T09:50:47.000Z</time>
      </trkpt>
      <trkpt lat="45.80715" lon="1.92574">
        <ele>748.3</ele>
        <time>2026-07-07T09:50:48.000Z</time>
      </trkpt>
      <trkpt lat="45.80717" lon="1.92576">
        <ele>747.8</ele>
        <time>2026-07-07T09:50:49.000Z</time>
      </trkpt>
      <trkpt lat="45.80718" lon="1.92577">
        <ele>748.9</ele>
        <time>2026-07-07T09:50:50.000Z</time>
      </trkpt>
      <trkpt lat="45.80719" lon="1.92579">
        <ele>749</ele>
        <time>2026-07-07T09:50:51.000Z</time>
      </trkpt>
      <trkpt lat="45.80721" lon="1.9258">
        <ele>748.3</ele>
        <time>2026-07-07T09:50:52.000Z</time>
      </trkpt>
      <trkpt lat="45.80722" lon="1.92581">
        <ele>748</ele>
        <time>2026-07-07T09:50:53.000Z</time>
      </trkpt>
      <trkpt lat="45.80723" lon="1.92583">
        <ele>747.3</ele>
        <time>2026-07-07T09:50:54.000Z</time>
      </trkpt>
      <trkpt lat="45.80725" lon="1.92584">
        <ele>747.6</ele>
        <time>2026-07-07T09:50:55.000Z</time>
      </trkpt>
      <trkpt lat="45.80725" lon="1.92587">
        <ele>749.2</ele>
        <time>2026-07-07T09:50:56.000Z</time>
      </trkpt>
      <trkpt lat="45.80726" lon="1.92589">
        <ele>749.9</ele>
        <time>2026-07-07T09:50:57.000Z</time>
      </trkpt>
      <trkpt lat="45.80727" lon="1.9259">
        <ele>749.3</ele>
        <time>2026-07-07T09:50:58.000Z</time>
      </trkpt>
      <trkpt lat="45.80729" lon="1.92591">
        <ele>749</ele>
        <time>2026-07-07T09:50:59.000Z</time>
      </trkpt>
      <trkpt lat="45.80731" lon="1.92591">
        <ele>748.2</ele>
        <time>2026-07-07T09:51:00.000Z</time>
      </trkpt>
      <trkpt lat="45.80733" lon="1.92592">
        <ele>747.9</ele>
        <time>2026-07-07T09:51:01.000Z</time>
      </trkpt>
      <trkpt lat="45.80735" lon="1.92593">
        <ele>747.8</ele>
        <time>2026-07-07T09:51:02.000Z</time>
      </trkpt>
      <trkpt lat="45.80737" lon="1.92594">
        <ele>748.6</ele>
        <time>2026-07-07T09:51:03.000Z</time>
      </trkpt>
      <trkpt lat="45.80738" lon="1.92594">
        <ele>748.5</ele>
        <time>2026-07-07T09:51:04.000Z</time>
      </trkpt>
      <trkpt lat="45.8074" lon="1.92595">
        <ele>748.9</ele>
        <time>2026-07-07T09:51:05.000Z</time>
      </trkpt>
      <trkpt lat="45.80742" lon="1.92595">
        <ele>749.4</ele>
        <time>2026-07-07T09:51:06.000Z</time>
      </trkpt>
      <trkpt lat="45.80743" lon="1.92596">
        <ele>749.5</ele>
        <time>2026-07-07T09:51:07.000Z</time>
      </trkpt>
      <trkpt lat="45.80745" lon="1.92596">
        <ele>749.6</ele>
        <time>2026-07-07T09:51:08.000Z</time>
      </trkpt>
      <trkpt lat="45.80746" lon="1.92597">
        <ele>749.1</ele>
        <time>2026-07-07T09:51:09.000Z</time>
      </trkpt>
      <trkpt lat="45.80748" lon="1.92597">
        <ele>748.9</ele>
        <time>2026-07-07T09:51:10.000Z</time>
      </trkpt>
      <trkpt lat="45.80749" lon="1.92597">
        <ele>748.6</ele>
        <time>2026-07-07T09:51:11.000Z</time>
      </trkpt>
      <trkpt lat="45.80751" lon="1.92598">
        <ele>748.4</ele>
        <time>2026-07-07T09:51:12.000Z</time>
      </trkpt>
      <trkpt lat="45.80753" lon="1.92599">
        <ele>748.8</ele>
        <time>2026-07-07T09:51:13.000Z</time>
      </trkpt>
      <trkpt lat="45.80754" lon="1.926">
        <ele>748.7</ele>
        <time>2026-07-07T09:51:14.000Z</time>
      </trkpt>
      <trkpt lat="45.80756" lon="1.926">
        <ele>748.1</ele>
        <time>2026-07-07T09:51:15.000Z</time>
      </trkpt>
      <trkpt lat="45.80758" lon="1.92601">
        <ele>749.1</ele>
        <time>2026-07-07T09:51:16.000Z</time>
      </trkpt>
      <trkpt lat="45.8076" lon="1.92602">
        <ele>749.9</ele>
        <time>2026-07-07T09:51:17.000Z</time>
      </trkpt>
      <trkpt lat="45.80762" lon="1.92603">
        <ele>749.1</ele>
        <time>2026-07-07T09:51:18.000Z</time>
      </trkpt>
      <trkpt lat="45.80764" lon="1.92604">
        <ele>747.9</ele>
        <time>2026-07-07T09:51:19.000Z</time>
      </trkpt>
      <trkpt lat="45.80765" lon="1.92605">
        <ele>747.3</ele>
        <time>2026-07-07T09:51:20.000Z</time>
      </trkpt>
      <trkpt lat="45.80768" lon="1.92606">
        <ele>747.2</ele>
        <time>2026-07-07T09:51:21.000Z</time>
      </trkpt>
      <trkpt lat="45.80769" lon="1.92607">
        <ele>746.5</ele>
        <time>2026-07-07T09:51:22.000Z</time>
      </trkpt>
      <trkpt lat="45.80772" lon="1.92608">
        <ele>745.7</ele>
        <time>2026-07-07T09:51:23.000Z</time>
      </trkpt>
      <trkpt lat="45.80774" lon="1.92609">
        <ele>744.9</ele>
        <time>2026-07-07T09:51:24.000Z</time>
      </trkpt>
      <trkpt lat="45.80776" lon="1.92611">
        <ele>745.5</ele>
        <time>2026-07-07T09:51:25.000Z</time>
      </trkpt>
      <trkpt lat="45.80778" lon="1.92611">
        <ele>745.2</ele>
        <time>2026-07-07T09:51:26.000Z</time>
      </trkpt>
      <trkpt lat="45.8078" lon="1.92612">
        <ele>744.6</ele>
        <time>2026-07-07T09:51:27.000Z</time>
      </trkpt>
      <trkpt lat="45.80782" lon="1.92613">
        <ele>744.9</ele>
        <time>2026-07-07T09:51:28.000Z</time>
      </trkpt>
      <trkpt lat="45.80784" lon="1.92613">
        <ele>744.9</ele>
        <time>2026-07-07T09:51:29.000Z</time>
      </trkpt>
      <trkpt lat="45.80785" lon="1.92614">
        <ele>745.5</ele>
        <time>2026-07-07T09:51:30.000Z</time>
      </trkpt>
      <trkpt lat="45.80787" lon="1.92613">
        <ele>744.9</ele>
        <time>2026-07-07T09:51:31.000Z</time>
      </trkpt>
      <trkpt lat="45.80789" lon="1.92614">
        <ele>744.9</ele>
        <time>2026-07-07T09:51:32.000Z</time>
      </trkpt>
      <trkpt lat="45.80791" lon="1.92614">
        <ele>744.7</ele>
        <time>2026-07-07T09:51:33.000Z</time>
      </trkpt>
      <trkpt lat="45.80792" lon="1.92613">
        <ele>744.3</ele>
        <time>2026-07-07T09:51:34.000Z</time>
      </trkpt>
      <trkpt lat="45.80794" lon="1.92613">
        <ele>743.9</ele>
        <time>2026-07-07T09:51:35.000Z</time>
      </trkpt>
      <trkpt lat="45.80796" lon="1.92612">
        <ele>743.3</ele>
        <time>2026-07-07T09:51:36.000Z</time>
      </trkpt>
      <trkpt lat="45.80798" lon="1.92612">
        <ele>743.8</ele>
        <time>2026-07-07T09:51:37.000Z</time>
      </trkpt>
      <trkpt lat="45.808" lon="1.92612">
        <ele>743.1</ele>
        <time>2026-07-07T09:51:38.000Z</time>
      </trkpt>
      <trkpt lat="45.80802" lon="1.92612">
        <ele>743.9</ele>
        <time>2026-07-07T09:51:39.000Z</time>
      </trkpt>
      <trkpt lat="45.80804" lon="1.92612">
        <ele>743.8</ele>
        <time>2026-07-07T09:51:40.000Z</time>
      </trkpt>
      <trkpt lat="45.80806" lon="1.92611">
        <ele>743.4</ele>
        <time>2026-07-07T09:51:41.000Z</time>
      </trkpt>
      <trkpt lat="45.80808" lon="1.92609">
        <ele>742.9</ele>
        <time>2026-07-07T09:51:42.000Z</time>
      </trkpt>
      <trkpt lat="45.8081" lon="1.92608">
        <ele>743</ele>
        <time>2026-07-07T09:51:43.000Z</time>
      </trkpt>
      <trkpt lat="45.80811" lon="1.92607">
        <ele>742.7</ele>
        <time>2026-07-07T09:51:44.000Z</time>
      </trkpt>
      <trkpt lat="45.80813" lon="1.92605">
        <ele>742.3</ele>
        <time>2026-07-07T09:51:45.000Z</time>
      </trkpt>
      <trkpt lat="45.80814" lon="1.92603">
        <ele>742.4</ele>
        <time>2026-07-07T09:51:46.000Z</time>
      </trkpt>
      <trkpt lat="45.80816" lon="1.92602">
        <ele>742.4</ele>
        <time>2026-07-07T09:51:47.000Z</time>
      </trkpt>
      <trkpt lat="45.80817" lon="1.92601">
        <ele>742.9</ele>
        <time>2026-07-07T09:51:48.000Z</time>
      </trkpt>
      <trkpt lat="45.80818" lon="1.92599">
        <ele>742.3</ele>
        <time>2026-07-07T09:51:49.000Z</time>
      </trkpt>
      <trkpt lat="45.80819" lon="1.92598">
        <ele>741.7</ele>
        <time>2026-07-07T09:51:50.000Z</time>
      </trkpt>
      <trkpt lat="45.80821" lon="1.92596">
        <ele>741.3</ele>
        <time>2026-07-07T09:51:51.000Z</time>
      </trkpt>
      <trkpt lat="45.80822" lon="1.92596">
        <ele>741.7</ele>
        <time>2026-07-07T09:51:52.000Z</time>
      </trkpt>
      <trkpt lat="45.80824" lon="1.92595">
        <ele>741.6</ele>
        <time>2026-07-07T09:51:53.000Z</time>
      </trkpt>
      <trkpt lat="45.80825" lon="1.92595">
        <ele>742.1</ele>
        <time>2026-07-07T09:51:54.000Z</time>
      </trkpt>
      <trkpt lat="45.80827" lon="1.92595">
        <ele>742.1</ele>
        <time>2026-07-07T09:51:55.000Z</time>
      </trkpt>
      <trkpt lat="45.80828" lon="1.92594">
        <ele>741.8</ele>
        <time>2026-07-07T09:51:56.000Z</time>
      </trkpt>
      <trkpt lat="45.8083" lon="1.92594">
        <ele>741.9</ele>
        <time>2026-07-07T09:51:57.000Z</time>
      </trkpt>
      <trkpt lat="45.80831" lon="1.92593">
        <ele>741.9</ele>
        <time>2026-07-07T09:51:58.000Z</time>
      </trkpt>
      <trkpt lat="45.80833" lon="1.92593">
        <ele>740.9</ele>
        <time>2026-07-07T09:51:59.000Z</time>
      </trkpt>
      <trkpt lat="45.80835" lon="1.92592">
        <ele>741.2</ele>
        <time>2026-07-07T09:52:00.000Z</time>
      </trkpt>
      <trkpt lat="45.80837" lon="1.92592">
        <ele>741</ele>
        <time>2026-07-07T09:52:01.000Z</time>
      </trkpt>
      <trkpt lat="45.80838" lon="1.92592">
        <ele>740.8</ele>
        <time>2026-07-07T09:52:02.000Z</time>
      </trkpt>
      <trkpt lat="45.8084" lon="1.92592">
        <ele>740.5</ele>
        <time>2026-07-07T09:52:03.000Z</time>
      </trkpt>
      <trkpt lat="45.80842" lon="1.92592">
        <ele>740.1</ele>
        <time>2026-07-07T09:52:04.000Z</time>
      </trkpt>
      <trkpt lat="45.80843" lon="1.92592">
        <ele>740.3</ele>
        <time>2026-07-07T09:52:05.000Z</time>
      </trkpt>
      <trkpt lat="45.80845" lon="1.92592">
        <ele>740.8</ele>
        <time>2026-07-07T09:52:06.000Z</time>
      </trkpt>
      <trkpt lat="45.80847" lon="1.92593">
        <ele>741.2</ele>
        <time>2026-07-07T09:52:07.000Z</time>
      </trkpt>
      <trkpt lat="45.80848" lon="1.92593">
        <ele>741.2</ele>
        <time>2026-07-07T09:52:08.000Z</time>
      </trkpt>
      <trkpt lat="45.8085" lon="1.92593">
        <ele>741.6</ele>
        <time>2026-07-07T09:52:09.000Z</time>
      </trkpt>
      <trkpt lat="45.80852" lon="1.92594">
        <ele>742.2</ele>
        <time>2026-07-07T09:52:10.000Z</time>
      </trkpt>
      <trkpt lat="45.80853" lon="1.92594">
        <ele>742.2</ele>
        <time>2026-07-07T09:52:11.000Z</time>
      </trkpt>
      <trkpt lat="45.80855" lon="1.92595">
        <ele>742</ele>
        <time>2026-07-07T09:52:12.000Z</time>
      </trkpt>
      <trkpt lat="45.80856" lon="1.92597">
        <ele>741.8</ele>
        <time>2026-07-07T09:52:13.000Z</time>
      </trkpt>
      <trkpt lat="45.80858" lon="1.92598">
        <ele>741.9</ele>
        <time>2026-07-07T09:52:14.000Z</time>
      </trkpt>
      <trkpt lat="45.80859" lon="1.92599">
        <ele>742.2</ele>
        <time>2026-07-07T09:52:15.000Z</time>
      </trkpt>
      <trkpt lat="45.80861" lon="1.926">
        <ele>742</ele>
        <time>2026-07-07T09:52:16.000Z</time>
      </trkpt>
      <trkpt lat="45.80863" lon="1.92601">
        <ele>742</ele>
        <time>2026-07-07T09:52:17.000Z</time>
      </trkpt>
      <trkpt lat="45.80865" lon="1.92603">
        <ele>742.2</ele>
        <time>2026-07-07T09:52:18.000Z</time>
      </trkpt>
      <trkpt lat="45.80867" lon="1.92604">
        <ele>741.3</ele>
        <time>2026-07-07T09:52:19.000Z</time>
      </trkpt>
      <trkpt lat="45.80869" lon="1.92605">
        <ele>741.9</ele>
        <time>2026-07-07T09:52:20.000Z</time>
      </trkpt>
      <trkpt lat="45.8087" lon="1.92607">
        <ele>741.7</ele>
        <time>2026-07-07T09:52:21.000Z</time>
      </trkpt>
      <trkpt lat="45.80871" lon="1.92608">
        <ele>741.5</ele>
        <time>2026-07-07T09:52:22.000Z</time>
      </trkpt>
      <trkpt lat="45.80873" lon="1.92608">
        <ele>741.3</ele>
        <time>2026-07-07T09:52:23.000Z</time>
      </trkpt>
      <trkpt lat="45.80874" lon="1.92609">
        <ele>741.2</ele>
        <time>2026-07-07T09:52:24.000Z</time>
      </trkpt>
      <trkpt lat="45.80875" lon="1.92611">
        <ele>740.2</ele>
        <time>2026-07-07T09:52:25.000Z</time>
      </trkpt>
      <trkpt lat="45.80877" lon="1.92611">
        <ele>740.7</ele>
        <time>2026-07-07T09:52:26.000Z</time>
      </trkpt>
      <trkpt lat="45.80878" lon="1.92612">
        <ele>740.6</ele>
        <time>2026-07-07T09:52:27.000Z</time>
      </trkpt>
      <trkpt lat="45.8088" lon="1.92613">
        <ele>740.6</ele>
        <time>2026-07-07T09:52:28.000Z</time>
      </trkpt>
      <trkpt lat="45.8088" lon="1.92617">
        <ele>740.7</ele>
        <time>2026-07-07T09:52:29.000Z</time>
      </trkpt>
      <trkpt lat="45.80882" lon="1.92617">
        <ele>741.2</ele>
        <time>2026-07-07T09:52:30.000Z</time>
      </trkpt>
      <trkpt lat="45.80884" lon="1.92618">
        <ele>741</ele>
        <time>2026-07-07T09:52:31.000Z</time>
      </trkpt>
      <trkpt lat="45.80885" lon="1.9262">
        <ele>740.9</ele>
        <time>2026-07-07T09:52:32.000Z</time>
      </trkpt>
      <trkpt lat="45.80887" lon="1.92621">
        <ele>741.2</ele>
        <time>2026-07-07T09:52:33.000Z</time>
      </trkpt>
      <trkpt lat="45.80888" lon="1.92622">
        <ele>741.1</ele>
        <time>2026-07-07T09:52:34.000Z</time>
      </trkpt>
      <trkpt lat="45.8089" lon="1.92624">
        <ele>741.5</ele>
        <time>2026-07-07T09:52:35.000Z</time>
      </trkpt>
      <trkpt lat="45.80891" lon="1.92625">
        <ele>741.4</ele>
        <time>2026-07-07T09:52:36.000Z</time>
      </trkpt>
      <trkpt lat="45.80892" lon="1.92627">
        <ele>741.5</ele>
        <time>2026-07-07T09:52:37.000Z</time>
      </trkpt>
      <trkpt lat="45.80893" lon="1.92628">
        <ele>741.2</ele>
        <time>2026-07-07T09:52:38.000Z</time>
      </trkpt>
      <trkpt lat="45.80895" lon="1.9263">
        <ele>741.3</ele>
        <time>2026-07-07T09:52:39.000Z</time>
      </trkpt>
      <trkpt lat="45.80896" lon="1.92632">
        <ele>741.4</ele>
        <time>2026-07-07T09:52:40.000Z</time>
      </trkpt>
      <trkpt lat="45.80897" lon="1.92633">
        <ele>741.4</ele>
        <time>2026-07-07T09:52:41.000Z</time>
      </trkpt>
      <trkpt lat="45.80899" lon="1.92634">
        <ele>741.5</ele>
        <time>2026-07-07T09:52:42.000Z</time>
      </trkpt>
      <trkpt lat="45.809" lon="1.92635">
        <ele>741.4</ele>
        <time>2026-07-07T09:52:43.000Z</time>
      </trkpt>
      <trkpt lat="45.80902" lon="1.92637">
        <ele>741.6</ele>
        <time>2026-07-07T09:52:44.000Z</time>
      </trkpt>
      <trkpt lat="45.80903" lon="1.92638">
        <ele>741.5</ele>
        <time>2026-07-07T09:52:45.000Z</time>
      </trkpt>
      <trkpt lat="45.80904" lon="1.92639">
        <ele>741.5</ele>
        <time>2026-07-07T09:52:46.000Z</time>
      </trkpt>
      <trkpt lat="45.80906" lon="1.9264">
        <ele>741.4</ele>
        <time>2026-07-07T09:52:47.000Z</time>
      </trkpt>
      <trkpt lat="45.80907" lon="1.92641">
        <ele>741.4</ele>
        <time>2026-07-07T09:52:48.000Z</time>
      </trkpt>
      <trkpt lat="45.80909" lon="1.92642">
        <ele>741.6</ele>
        <time>2026-07-07T09:52:49.000Z</time>
      </trkpt>
      <trkpt lat="45.8091" lon="1.92644">
        <ele>741.7</ele>
        <time>2026-07-07T09:52:50.000Z</time>
      </trkpt>
      <trkpt lat="45.80912" lon="1.92645">
        <ele>741.9</ele>
        <time>2026-07-07T09:52:51.000Z</time>
      </trkpt>
      <trkpt lat="45.80913" lon="1.92646">
        <ele>742.2</ele>
        <time>2026-07-07T09:52:52.000Z</time>
      </trkpt>
      <trkpt lat="45.80914" lon="1.92647">
        <ele>742.3</ele>
        <time>2026-07-07T09:52:53.000Z</time>
      </trkpt>
      <trkpt lat="45.80916" lon="1.92648">
        <ele>742.3</ele>
        <time>2026-07-07T09:52:54.000Z</time>
      </trkpt>
      <trkpt lat="45.80917" lon="1.92648">
        <ele>742.2</ele>
        <time>2026-07-07T09:52:55.000Z</time>
      </trkpt>
      <trkpt lat="45.80919" lon="1.92649">
        <ele>742.7</ele>
        <time>2026-07-07T09:52:56.000Z</time>
      </trkpt>
      <trkpt lat="45.80921" lon="1.92649">
        <ele>742.6</ele>
        <time>2026-07-07T09:52:57.000Z</time>
      </trkpt>
      <trkpt lat="45.80922" lon="1.9265">
        <ele>743</ele>
        <time>2026-07-07T09:52:58.000Z</time>
      </trkpt>
      <trkpt lat="45.80924" lon="1.92651">
        <ele>743</ele>
        <time>2026-07-07T09:52:59.000Z</time>
      </trkpt>
      <trkpt lat="45.80925" lon="1.92652">
        <ele>742.9</ele>
        <time>2026-07-07T09:53:00.000Z</time>
      </trkpt>
      <trkpt lat="45.80927" lon="1.92652">
        <ele>742.7</ele>
        <time>2026-07-07T09:53:01.000Z</time>
      </trkpt>
      <trkpt lat="45.80928" lon="1.92653">
        <ele>742.4</ele>
        <time>2026-07-07T09:53:02.000Z</time>
      </trkpt>
      <trkpt lat="45.80929" lon="1.92654">
        <ele>742</ele>
        <time>2026-07-07T09:53:03.000Z</time>
      </trkpt>
      <trkpt lat="45.80931" lon="1.92654">
        <ele>742</ele>
        <time>2026-07-07T09:53:04.000Z</time>
      </trkpt>
      <trkpt lat="45.80932" lon="1.92655">
        <ele>742.9</ele>
        <time>2026-07-07T09:53:05.000Z</time>
      </trkpt>
      <trkpt lat="45.80934" lon="1.92656">
        <ele>743</ele>
        <time>2026-07-07T09:53:06.000Z</time>
      </trkpt>
      <trkpt lat="45.80935" lon="1.92656">
        <ele>743.2</ele>
        <time>2026-07-07T09:53:07.000Z</time>
      </trkpt>
      <trkpt lat="45.80936" lon="1.92658">
        <ele>742.7</ele>
        <time>2026-07-07T09:53:08.000Z</time>
      </trkpt>
      <trkpt lat="45.80938" lon="1.92658">
        <ele>742.4</ele>
        <time>2026-07-07T09:53:09.000Z</time>
      </trkpt>
      <trkpt lat="45.80939" lon="1.92659">
        <ele>742.2</ele>
        <time>2026-07-07T09:53:10.000Z</time>
      </trkpt>
      <trkpt lat="45.80941" lon="1.9266">
        <ele>742.7</ele>
        <time>2026-07-07T09:53:11.000Z</time>
      </trkpt>
      <trkpt lat="45.80942" lon="1.9266">
        <ele>742.3</ele>
        <time>2026-07-07T09:53:12.000Z</time>
      </trkpt>
      <trkpt lat="45.80944" lon="1.92661">
        <ele>742.2</ele>
        <time>2026-07-07T09:53:13.000Z</time>
      </trkpt>
      <trkpt lat="45.80945" lon="1.92661">
        <ele>742</ele>
        <time>2026-07-07T09:53:14.000Z</time>
      </trkpt>
      <trkpt lat="45.80947" lon="1.92662">
        <ele>741.6</ele>
        <time>2026-07-07T09:53:15.000Z</time>
      </trkpt>
      <trkpt lat="45.80948" lon="1.92662">
        <ele>742.8</ele>
        <time>2026-07-07T09:53:16.000Z</time>
      </trkpt>
      <trkpt lat="45.80949" lon="1.92663">
        <ele>741.8</ele>
        <time>2026-07-07T09:53:17.000Z</time>
      </trkpt>
      <trkpt lat="45.80951" lon="1.92664">
        <ele>741.9</ele>
        <time>2026-07-07T09:53:18.000Z</time>
      </trkpt>
      <trkpt lat="45.80952" lon="1.92665">
        <ele>741.1</ele>
        <time>2026-07-07T09:53:19.000Z</time>
      </trkpt>
      <trkpt lat="45.80954" lon="1.92666">
        <ele>740.5</ele>
        <time>2026-07-07T09:53:20.000Z</time>
      </trkpt>
      <trkpt lat="45.80956" lon="1.92668">
        <ele>740.7</ele>
        <time>2026-07-07T09:53:21.000Z</time>
      </trkpt>
      <trkpt lat="45.80957" lon="1.92669">
        <ele>740.7</ele>
        <time>2026-07-07T09:53:22.000Z</time>
      </trkpt>
      <trkpt lat="45.80959" lon="1.9267">
        <ele>741.1</ele>
        <time>2026-07-07T09:53:23.000Z</time>
      </trkpt>
      <trkpt lat="45.80961" lon="1.92671">
        <ele>740.5</ele>
        <time>2026-07-07T09:53:24.000Z</time>
      </trkpt>
      <trkpt lat="45.80962" lon="1.92671">
        <ele>741.4</ele>
        <time>2026-07-07T09:53:25.000Z</time>
      </trkpt>
      <trkpt lat="45.80964" lon="1.92671">
        <ele>740.8</ele>
        <time>2026-07-07T09:53:26.000Z</time>
      </trkpt>
      <trkpt lat="45.80966" lon="1.92671">
        <ele>740.3</ele>
        <time>2026-07-07T09:53:27.000Z</time>
      </trkpt>
      <trkpt lat="45.80967" lon="1.92672">
        <ele>740.2</ele>
        <time>2026-07-07T09:53:28.000Z</time>
      </trkpt>
      <trkpt lat="45.80969" lon="1.92672">
        <ele>740.6</ele>
        <time>2026-07-07T09:53:29.000Z</time>
      </trkpt>
      <trkpt lat="45.8097" lon="1.92672">
        <ele>741.4</ele>
        <time>2026-07-07T09:53:30.000Z</time>
      </trkpt>
      <trkpt lat="45.80971" lon="1.92672">
        <ele>741.7</ele>
        <time>2026-07-07T09:53:31.000Z</time>
      </trkpt>
      <trkpt lat="45.80973" lon="1.92673">
        <ele>741.4</ele>
        <time>2026-07-07T09:53:32.000Z</time>
      </trkpt>
      <trkpt lat="45.80975" lon="1.92675">
        <ele>740.7</ele>
        <time>2026-07-07T09:53:33.000Z</time>
      </trkpt>
      <trkpt lat="45.80976" lon="1.92676">
        <ele>740.8</ele>
        <time>2026-07-07T09:53:34.000Z</time>
      </trkpt>
      <trkpt lat="45.80978" lon="1.92676">
        <ele>740.7</ele>
        <time>2026-07-07T09:53:35.000Z</time>
      </trkpt>
      <trkpt lat="45.80979" lon="1.92676">
        <ele>740.4</ele>
        <time>2026-07-07T09:53:36.000Z</time>
      </trkpt>
      <trkpt lat="45.80981" lon="1.92678">
        <ele>741.1</ele>
        <time>2026-07-07T09:53:37.000Z</time>
      </trkpt>
      <trkpt lat="45.80982" lon="1.92679">
        <ele>741.9</ele>
        <time>2026-07-07T09:53:38.000Z</time>
      </trkpt>
      <trkpt lat="45.80983" lon="1.9268">
        <ele>741.6</ele>
        <time>2026-07-07T09:53:39.000Z</time>
      </trkpt>
      <trkpt lat="45.80984" lon="1.92682">
        <ele>742.7</ele>
        <time>2026-07-07T09:53:40.000Z</time>
      </trkpt>
      <trkpt lat="45.80985" lon="1.92684">
        <ele>743.1</ele>
        <time>2026-07-07T09:53:41.000Z</time>
      </trkpt>
      <trkpt lat="45.80987" lon="1.92685">
        <ele>743.2</ele>
        <time>2026-07-07T09:53:42.000Z</time>
      </trkpt>
      <trkpt lat="45.80988" lon="1.92686">
        <ele>742.9</ele>
        <time>2026-07-07T09:53:43.000Z</time>
      </trkpt>
      <trkpt lat="45.8099" lon="1.92687">
        <ele>744.1</ele>
        <time>2026-07-07T09:53:44.000Z</time>
      </trkpt>
      <trkpt lat="45.80991" lon="1.92688">
        <ele>744.8</ele>
        <time>2026-07-07T09:53:45.000Z</time>
      </trkpt>
      <trkpt lat="45.80993" lon="1.9269">
        <ele>744</ele>
        <time>2026-07-07T09:53:46.000Z</time>
      </trkpt>
      <trkpt lat="45.80994" lon="1.92691">
        <ele>744.9</ele>
        <time>2026-07-07T09:53:47.000Z</time>
      </trkpt>
      <trkpt lat="45.80995" lon="1.92692">
        <ele>745.3</ele>
        <time>2026-07-07T09:53:48.000Z</time>
      </trkpt>
      <trkpt lat="45.80997" lon="1.92693">
        <ele>745</ele>
        <time>2026-07-07T09:53:49.000Z</time>
      </trkpt>
      <trkpt lat="45.80998" lon="1.92694">
        <ele>746.1</ele>
        <time>2026-07-07T09:53:50.000Z</time>
      </trkpt>
      <trkpt lat="45.81" lon="1.92695">
        <ele>745.3</ele>
        <time>2026-07-07T09:53:51.000Z</time>
      </trkpt>
      <trkpt lat="45.81001" lon="1.92697">
        <ele>745</ele>
        <time>2026-07-07T09:53:52.000Z</time>
      </trkpt>
      <trkpt lat="45.81003" lon="1.92698">
        <ele>745.8</ele>
        <time>2026-07-07T09:53:53.000Z</time>
      </trkpt>
      <trkpt lat="45.81005" lon="1.92699">
        <ele>745.8</ele>
        <time>2026-07-07T09:53:54.000Z</time>
      </trkpt>
      <trkpt lat="45.81007" lon="1.927">
        <ele>744.9</ele>
        <time>2026-07-07T09:53:55.000Z</time>
      </trkpt>
      <trkpt lat="45.81009" lon="1.92701">
        <ele>745.2</ele>
        <time>2026-07-07T09:53:56.000Z</time>
      </trkpt>
      <trkpt lat="45.8101" lon="1.92703">
        <ele>745.5</ele>
        <time>2026-07-07T09:53:57.000Z</time>
      </trkpt>
      <trkpt lat="45.81011" lon="1.92704">
        <ele>745.2</ele>
        <time>2026-07-07T09:53:58.000Z</time>
      </trkpt>
      <trkpt lat="45.81013" lon="1.92706">
        <ele>745</ele>
        <time>2026-07-07T09:53:59.000Z</time>
      </trkpt>
      <trkpt lat="45.81013" lon="1.92707">
        <ele>745.9</ele>
        <time>2026-07-07T09:54:00.000Z</time>
      </trkpt>
      <trkpt lat="45.81014" lon="1.92709">
        <ele>746.1</ele>
        <time>2026-07-07T09:54:01.000Z</time>
      </trkpt>
      <trkpt lat="45.81015" lon="1.92711">
        <ele>746.4</ele>
        <time>2026-07-07T09:54:02.000Z</time>
      </trkpt>
      <trkpt lat="45.81017" lon="1.92712">
        <ele>746.3</ele>
        <time>2026-07-07T09:54:03.000Z</time>
      </trkpt>
      <trkpt lat="45.81018" lon="1.92715">
        <ele>746</ele>
        <time>2026-07-07T09:54:04.000Z</time>
      </trkpt>
      <trkpt lat="45.81019" lon="1.92716">
        <ele>745.5</ele>
        <time>2026-07-07T09:54:05.000Z</time>
      </trkpt>
      <trkpt lat="45.8102" lon="1.92717">
        <ele>746</ele>
        <time>2026-07-07T09:54:06.000Z</time>
      </trkpt>
      <trkpt lat="45.81021" lon="1.92719">
        <ele>745.5</ele>
        <time>2026-07-07T09:54:07.000Z</time>
      </trkpt>
      <trkpt lat="45.81022" lon="1.9272">
        <ele>746</ele>
        <time>2026-07-07T09:54:08.000Z</time>
      </trkpt>
      <trkpt lat="45.81023" lon="1.92722">
        <ele>746.6</ele>
        <time>2026-07-07T09:54:09.000Z</time>
      </trkpt>
      <trkpt lat="45.81023" lon="1.92724">
        <ele>745.8</ele>
        <time>2026-07-07T09:54:10.000Z</time>
      </trkpt>
      <trkpt lat="45.81024" lon="1.92727">
        <ele>745.9</ele>
        <time>2026-07-07T09:54:11.000Z</time>
      </trkpt>
      <trkpt lat="45.81025" lon="1.92729">
        <ele>745.1</ele>
        <time>2026-07-07T09:54:12.000Z</time>
      </trkpt>
      <trkpt lat="45.81025" lon="1.92731">
        <ele>745.7</ele>
        <time>2026-07-07T09:54:13.000Z</time>
      </trkpt>
      <trkpt lat="45.81026" lon="1.92734">
        <ele>746.5</ele>
        <time>2026-07-07T09:54:14.000Z</time>
      </trkpt>
      <trkpt lat="45.81027" lon="1.92736">
        <ele>746.5</ele>
        <time>2026-07-07T09:54:15.000Z</time>
      </trkpt>
      <trkpt lat="45.81027" lon="1.92737">
        <ele>746.5</ele>
        <time>2026-07-07T09:54:16.000Z</time>
      </trkpt>
      <trkpt lat="45.81028" lon="1.92738">
        <ele>746.6</ele>
        <time>2026-07-07T09:54:17.000Z</time>
      </trkpt>
      <trkpt lat="45.81029" lon="1.9274">
        <ele>745.4</ele>
        <time>2026-07-07T09:54:18.000Z</time>
      </trkpt>
      <trkpt lat="45.8103" lon="1.92742">
        <ele>746.1</ele>
        <time>2026-07-07T09:54:19.000Z</time>
      </trkpt>
      <trkpt lat="45.8103" lon="1.92744">
        <ele>746.9</ele>
        <time>2026-07-07T09:54:20.000Z</time>
      </trkpt>
      <trkpt lat="45.81031" lon="1.92746">
        <ele>746.7</ele>
        <time>2026-07-07T09:54:21.000Z</time>
      </trkpt>
      <trkpt lat="45.81032" lon="1.92748">
        <ele>746.9</ele>
        <time>2026-07-07T09:54:22.000Z</time>
      </trkpt>
      <trkpt lat="45.81032" lon="1.9275">
        <ele>746</ele>
        <time>2026-07-07T09:54:23.000Z</time>
      </trkpt>
      <trkpt lat="45.81033" lon="1.92752">
        <ele>745.9</ele>
        <time>2026-07-07T09:54:24.000Z</time>
      </trkpt>
      <trkpt lat="45.81034" lon="1.92754">
        <ele>746.1</ele>
        <time>2026-07-07T09:54:25.000Z</time>
      </trkpt>
      <trkpt lat="45.81034" lon="1.92757">
        <ele>745.7</ele>
        <time>2026-07-07T09:54:26.000Z</time>
      </trkpt>
      <trkpt lat="45.81035" lon="1.92759">
        <ele>746.7</ele>
        <time>2026-07-07T09:54:27.000Z</time>
      </trkpt>
      <trkpt lat="45.81036" lon="1.92761">
        <ele>748</ele>
        <time>2026-07-07T09:54:28.000Z</time>
      </trkpt>
      <trkpt lat="45.81036" lon="1.92763">
        <ele>747.1</ele>
        <time>2026-07-07T09:54:29.000Z</time>
      </trkpt>
      <trkpt lat="45.81036" lon="1.92765">
        <ele>746.7</ele>
        <time>2026-07-07T09:54:30.000Z</time>
      </trkpt>
      <trkpt lat="45.81037" lon="1.92767">
        <ele>746.8</ele>
        <time>2026-07-07T09:54:31.000Z</time>
      </trkpt>
      <trkpt lat="45.81037" lon="1.92769">
        <ele>747.5</ele>
        <time>2026-07-07T09:54:32.000Z</time>
      </trkpt>
      <trkpt lat="45.81038" lon="1.92771">
        <ele>748.1</ele>
        <time>2026-07-07T09:54:33.000Z</time>
      </trkpt>
      <trkpt lat="45.81038" lon="1.92773">
        <ele>749</ele>
        <time>2026-07-07T09:54:34.000Z</time>
      </trkpt>
      <trkpt lat="45.81039" lon="1.92775">
        <ele>748.3</ele>
        <time>2026-07-07T09:54:35.000Z</time>
      </trkpt>
      <trkpt lat="45.81039" lon="1.92777">
        <ele>748.2</ele>
        <time>2026-07-07T09:54:36.000Z</time>
      </trkpt>
      <trkpt lat="45.8104" lon="1.92779">
        <ele>748.7</ele>
        <time>2026-07-07T09:54:37.000Z</time>
      </trkpt>
      <trkpt lat="45.8104" lon="1.92782">
        <ele>747.8</ele>
        <time>2026-07-07T09:54:38.000Z</time>
      </trkpt>
      <trkpt lat="45.81041" lon="1.92784">
        <ele>747.7</ele>
        <time>2026-07-07T09:54:39.000Z</time>
      </trkpt>
      <trkpt lat="45.81041" lon="1.92786">
        <ele>748.3</ele>
        <time>2026-07-07T09:54:40.000Z</time>
      </trkpt>
      <trkpt lat="45.81042" lon="1.92788">
        <ele>748.4</ele>
        <time>2026-07-07T09:54:41.000Z</time>
      </trkpt>
      <trkpt lat="45.81042" lon="1.9279">
        <ele>749.1</ele>
        <time>2026-07-07T09:54:42.000Z</time>
      </trkpt>
      <trkpt lat="45.81043" lon="1.92792">
        <ele>749.2</ele>
        <time>2026-07-07T09:54:43.000Z</time>
      </trkpt>
      <trkpt lat="45.81043" lon="1.92795">
        <ele>748.7</ele>
        <time>2026-07-07T09:54:44.000Z</time>
      </trkpt>
      <trkpt lat="45.81044" lon="1.92797">
        <ele>748.8</ele>
        <time>2026-07-07T09:54:45.000Z</time>
      </trkpt>
      <trkpt lat="45.81045" lon="1.92798">
        <ele>748.4</ele>
        <time>2026-07-07T09:54:46.000Z</time>
      </trkpt>
      <trkpt lat="45.81045" lon="1.92801">
        <ele>748.4</ele>
        <time>2026-07-07T09:54:47.000Z</time>
      </trkpt>
      <trkpt lat="45.81046" lon="1.92804">
        <ele>749.7</ele>
        <time>2026-07-07T09:54:48.000Z</time>
      </trkpt>
      <trkpt lat="45.81046" lon="1.92806">
        <ele>749.3</ele>
        <time>2026-07-07T09:54:49.000Z</time>
      </trkpt>
      <trkpt lat="45.81047" lon="1.92808">
        <ele>749.3</ele>
        <time>2026-07-07T09:54:50.000Z</time>
      </trkpt>
      <trkpt lat="45.81047" lon="1.9281">
        <ele>749.3</ele>
        <time>2026-07-07T09:54:51.000Z</time>
      </trkpt>
      <trkpt lat="45.81048" lon="1.92813">
        <ele>748.7</ele>
        <time>2026-07-07T09:54:52.000Z</time>
      </trkpt>
      <trkpt lat="45.81049" lon="1.92815">
        <ele>748.2</ele>
        <time>2026-07-07T09:54:53.000Z</time>
      </trkpt>
      <trkpt lat="45.81049" lon="1.92817">
        <ele>747.6</ele>
        <time>2026-07-07T09:54:54.000Z</time>
      </trkpt>
      <trkpt lat="45.81049" lon="1.92819">
        <ele>747</ele>
        <time>2026-07-07T09:54:55.000Z</time>
      </trkpt>
      <trkpt lat="45.8105" lon="1.92822">
        <ele>746.4</ele>
        <time>2026-07-07T09:54:56.000Z</time>
      </trkpt>
      <trkpt lat="45.8105" lon="1.92824">
        <ele>745.6</ele>
        <time>2026-07-07T09:54:57.000Z</time>
      </trkpt>
      <trkpt lat="45.81049" lon="1.92828">
        <ele>746.9</ele>
        <time>2026-07-07T09:54:58.000Z</time>
      </trkpt>
      <trkpt lat="45.81048" lon="1.92831">
        <ele>746.4</ele>
        <time>2026-07-07T09:54:59.000Z</time>
      </trkpt>
      <trkpt lat="45.81048" lon="1.92834">
        <ele>748.2</ele>
        <time>2026-07-07T09:55:00.000Z</time>
      </trkpt>
      <trkpt lat="45.81048" lon="1.92836">
        <ele>748.7</ele>
        <time>2026-07-07T09:55:01.000Z</time>
      </trkpt>
      <trkpt lat="45.81048" lon="1.92839">
        <ele>748.4</ele>
        <time>2026-07-07T09:55:02.000Z</time>
      </trkpt>
      <trkpt lat="45.81048" lon="1.92841">
        <ele>748.2</ele>
        <time>2026-07-07T09:55:03.000Z</time>
      </trkpt>
      <trkpt lat="45.81048" lon="1.92844">
        <ele>746.8</ele>
        <time>2026-07-07T09:55:04.000Z</time>
      </trkpt>
      <trkpt lat="45.81048" lon="1.92847">
        <ele>747.8</ele>
        <time>2026-07-07T09:55:05.000Z</time>
      </trkpt>
      <trkpt lat="45.81047" lon="1.92849">
        <ele>748.3</ele>
        <time>2026-07-07T09:55:06.000Z</time>
      </trkpt>
      <trkpt lat="45.81046" lon="1.92852">
        <ele>748</ele>
        <time>2026-07-07T09:55:07.000Z</time>
      </trkpt>
      <trkpt lat="45.81046" lon="1.92854">
        <ele>747.1</ele>
        <time>2026-07-07T09:55:08.000Z</time>
      </trkpt>
      <trkpt lat="45.81046" lon="1.92857">
        <ele>746.4</ele>
        <time>2026-07-07T09:55:09.000Z</time>
      </trkpt>
      <trkpt lat="45.81045" lon="1.92859">
        <ele>746.1</ele>
        <time>2026-07-07T09:55:10.000Z</time>
      </trkpt>
      <trkpt lat="45.81045" lon="1.92862">
        <ele>746.3</ele>
        <time>2026-07-07T09:55:11.000Z</time>
      </trkpt>
      <trkpt lat="45.81044" lon="1.92865">
        <ele>746.5</ele>
        <time>2026-07-07T09:55:12.000Z</time>
      </trkpt>
      <trkpt lat="45.81044" lon="1.92867">
        <ele>746.1</ele>
        <time>2026-07-07T09:55:13.000Z</time>
      </trkpt>
      <trkpt lat="45.81043" lon="1.92869">
        <ele>745.9</ele>
        <time>2026-07-07T09:55:14.000Z</time>
      </trkpt>
      <trkpt lat="45.81043" lon="1.92872">
        <ele>745.5</ele>
        <time>2026-07-07T09:55:15.000Z</time>
      </trkpt>
      <trkpt lat="45.81042" lon="1.92874">
        <ele>746.5</ele>
        <time>2026-07-07T09:55:16.000Z</time>
      </trkpt>
      <trkpt lat="45.81042" lon="1.92876">
        <ele>746.3</ele>
        <time>2026-07-07T09:55:17.000Z</time>
      </trkpt>
      <trkpt lat="45.81041" lon="1.92878">
        <ele>745.6</ele>
        <time>2026-07-07T09:55:18.000Z</time>
      </trkpt>
      <trkpt lat="45.81041" lon="1.9288">
        <ele>746.5</ele>
        <time>2026-07-07T09:55:19.000Z</time>
      </trkpt>
      <trkpt lat="45.8104" lon="1.92882">
        <ele>745.5</ele>
        <time>2026-07-07T09:55:20.000Z</time>
      </trkpt>
      <trkpt lat="45.81039" lon="1.92884">
        <ele>745.8</ele>
        <time>2026-07-07T09:55:21.000Z</time>
      </trkpt>
      <trkpt lat="45.81038" lon="1.92886">
        <ele>746.8</ele>
        <time>2026-07-07T09:55:22.000Z</time>
      </trkpt>
      <trkpt lat="45.81037" lon="1.92888">
        <ele>746.1</ele>
        <time>2026-07-07T09:55:23.000Z</time>
      </trkpt>
      <trkpt lat="45.81037" lon="1.9289">
        <ele>746.4</ele>
        <time>2026-07-07T09:55:24.000Z</time>
      </trkpt>
      <trkpt lat="45.81036" lon="1.92892">
        <ele>746.6</ele>
        <time>2026-07-07T09:55:25.000Z</time>
      </trkpt>
      <trkpt lat="45.81037" lon="1.92894">
        <ele>745.8</ele>
        <time>2026-07-07T09:55:26.000Z</time>
      </trkpt>
      <trkpt lat="45.81037" lon="1.92892">
        <ele>747.3</ele>
        <time>2026-07-07T09:55:27.000Z</time>
      </trkpt>
      <trkpt lat="45.81037" lon="1.92893">
        <ele>748</ele>
        <time>2026-07-07T09:55:28.000Z</time>
      </trkpt>
      <trkpt lat="45.81037" lon="1.92893">
        <ele>748.1</ele>
        <time>2026-07-07T09:55:29.000Z</time>
      </trkpt>
      <trkpt lat="45.81037" lon="1.92893">
        <ele>748.1</ele>
        <time>2026-07-07T09:55:30.000Z</time>
      </trkpt>
      <trkpt lat="45.81037" lon="1.92893">
        <ele>748.1</ele>
        <time>2026-07-07T09:55:31.000Z</time>
      </trkpt>
      <trkpt lat="45.81037" lon="1.92893">
        <ele>748.1</ele>
        <time>2026-07-07T09:55:32.000Z</time>
      </trkpt>
      <trkpt lat="45.81037" lon="1.92893">
        <ele>748.1</ele>
        <time>2026-07-07T09:55:33.000Z</time>
      </trkpt>
      <trkpt lat="45.81037" lon="1.92893">
        <ele>748.1</ele>
        <time>2026-07-07T09:55:34.000Z</time>
      </trkpt>
      <trkpt lat="45.81037" lon="1.92893">
        <ele>748.1</ele>
        <time>2026-07-07T09:55:35.000Z</time>
      </trkpt>
      <trkpt lat="45.81037" lon="1.92893">
        <ele>748.1</ele>
        <time>2026-07-07T09:55:36.000Z</time>
      </trkpt>
      <trkpt lat="45.81037" lon="1.92893">
        <ele>748.1</ele>
        <time>2026-07-07T09:55:37.000Z</time>
      </trkpt>
      <trkpt lat="45.81037" lon="1.92893">
        <ele>748.1</ele>
        <time>2026-07-07T09:55:38.000Z</time>
      </trkpt>
      <trkpt lat="45.81037" lon="1.92893">
        <ele>748.1</ele>
        <time>2026-07-07T09:55:39.000Z</time>
      </trkpt>
      <trkpt lat="45.81037" lon="1.92893">
        <ele>748.1</ele>
        <time>2026-07-07T09:55:40.000Z</time>
      </trkpt>
      <trkpt lat="45.81037" lon="1.92893">
        <ele>748.1</ele>
        <time>2026-07-07T09:55:41.000Z</time>
      </trkpt>
      <trkpt lat="45.81037" lon="1.92893">
        <ele>748.1</ele>
        <time>2026-07-07T09:55:42.000Z</time>
      </trkpt>
      <trkpt lat="45.81037" lon="1.92893">
        <ele>748.1</ele>
        <time>2026-07-07T09:55:43.000Z</time>
      </trkpt>
      <trkpt lat="45.81037" lon="1.92893">
        <ele>748.2</ele>
        <time>2026-07-07T09:55:44.000Z</time>
      </trkpt>
      <trkpt lat="45.81037" lon="1.92893">
        <ele>748.2</ele>
        <time>2026-07-07T09:55:45.000Z</time>
      </trkpt>
      <trkpt lat="45.81037" lon="1.92893">
        <ele>748.2</ele>
        <time>2026-07-07T09:55:46.000Z</time>
      </trkpt>
      <trkpt lat="45.81037" lon="1.92893">
        <ele>748.2</ele>
        <time>2026-07-07T09:55:47.000Z</time>
      </trkpt>
      <trkpt lat="45.81037" lon="1.92893">
        <ele>748.2</ele>
        <time>2026-07-07T09:55:48.000Z</time>
      </trkpt>
      <trkpt lat="45.81037" lon="1.92893">
        <ele>748.2</ele>
        <time>2026-07-07T09:55:49.000Z</time>
      </trkpt>
      <trkpt lat="45.81037" lon="1.92893">
        <ele>748.2</ele>
        <time>2026-07-07T09:55:50.000Z</time>
      </trkpt>
      <trkpt lat="45.81037" lon="1.92893">
        <ele>748.2</ele>
        <time>2026-07-07T09:55:51.000Z</time>
      </trkpt>
      <trkpt lat="45.81037" lon="1.92893">
        <ele>748.2</ele>
        <time>2026-07-07T09:55:52.000Z</time>
      </trkpt>
      <trkpt lat="45.81037" lon="1.92893">
        <ele>748.6</ele>
        <time>2026-07-07T09:55:53.000Z</time>
      </trkpt>
      <trkpt lat="45.81037" lon="1.92893">
        <ele>748.6</ele>
        <time>2026-07-07T09:55:54.000Z</time>
      </trkpt>
      <trkpt lat="45.81035" lon="1.92897">
        <ele>748.8</ele>
        <time>2026-07-07T09:55:55.000Z</time>
      </trkpt>
      <trkpt lat="45.81035" lon="1.92899">
        <ele>748</ele>
        <time>2026-07-07T09:55:56.000Z</time>
      </trkpt>
      <trkpt lat="45.81036" lon="1.92897">
        <ele>748.7</ele>
        <time>2026-07-07T09:55:57.000Z</time>
      </trkpt>
      <trkpt lat="45.81036" lon="1.92899">
        <ele>748.6</ele>
        <time>2026-07-07T09:55:58.000Z</time>
      </trkpt>
      <trkpt lat="45.81036" lon="1.929">
        <ele>749.1</ele>
        <time>2026-07-07T09:55:59.000Z</time>
      </trkpt>
      <trkpt lat="45.81035" lon="1.929">
        <ele>749.1</ele>
        <time>2026-07-07T09:56:00.000Z</time>
      </trkpt>
      <trkpt lat="45.81035" lon="1.929">
        <ele>748</ele>
        <time>2026-07-07T09:56:01.000Z</time>
      </trkpt>
      <trkpt lat="45.81036" lon="1.92899">
        <ele>748</ele>
        <time>2026-07-07T09:56:02.000Z</time>
      </trkpt>
      <trkpt lat="45.81036" lon="1.92899">
        <ele>748</ele>
        <time>2026-07-07T09:56:03.000Z</time>
      </trkpt>
      <trkpt lat="45.81036" lon="1.92899">
        <ele>748</ele>
        <time>2026-07-07T09:56:04.000Z</time>
      </trkpt>
      <trkpt lat="45.81036" lon="1.92899">
        <ele>748</ele>
        <time>2026-07-07T09:56:05.000Z</time>
      </trkpt>
      <trkpt lat="45.81036" lon="1.92899">
        <ele>748</ele>
        <time>2026-07-07T09:56:06.000Z</time>
      </trkpt>
      <trkpt lat="45.81036" lon="1.92899">
        <ele>748</ele>
        <time>2026-07-07T09:56:07.000Z</time>
      </trkpt>
      <trkpt lat="45.81036" lon="1.92899">
        <ele>748</ele>
        <time>2026-07-07T09:56:08.000Z</time>
      </trkpt>
      <trkpt lat="45.81036" lon="1.92899">
        <ele>748</ele>
        <time>2026-07-07T09:56:09.000Z</time>
      </trkpt>
      <trkpt lat="45.81036" lon="1.92899">
        <ele>748</ele>
        <time>2026-07-07T09:56:10.000Z</time>
      </trkpt>
      <trkpt lat="45.81036" lon="1.92899">
        <ele>748</ele>
        <time>2026-07-07T09:56:11.000Z</time>
      </trkpt>
      <trkpt lat="45.81036" lon="1.92899">
        <ele>748</ele>
        <time>2026-07-07T09:56:12.000Z</time>
      </trkpt>
      <trkpt lat="45.81036" lon="1.92899">
        <ele>747.9</ele>
        <time>2026-07-07T09:56:13.000Z</time>
      </trkpt>
      <trkpt lat="45.81036" lon="1.92899">
        <ele>747.9</ele>
        <time>2026-07-07T09:56:14.000Z</time>
      </trkpt>
      <trkpt lat="45.81036" lon="1.92899">
        <ele>747.9</ele>
        <time>2026-07-07T09:56:15.000Z</time>
      </trkpt>
      <trkpt lat="45.81036" lon="1.92899">
        <ele>747.9</ele>
        <time>2026-07-07T09:56:16.000Z</time>
      </trkpt>
      <trkpt lat="45.81036" lon="1.92899">
        <ele>747.9</ele>
        <time>2026-07-07T09:56:17.000Z</time>
      </trkpt>
      <trkpt lat="45.81036" lon="1.92899">
        <ele>747.9</ele>
        <time>2026-07-07T09:56:18.000Z</time>
      </trkpt>
      <trkpt lat="45.81036" lon="1.92899">
        <ele>747.9</ele>
        <time>2026-07-07T09:56:19.000Z</time>
      </trkpt>
      <trkpt lat="45.81036" lon="1.92899">
        <ele>747.9</ele>
        <time>2026-07-07T09:56:20.000Z</time>
      </trkpt>
      <trkpt lat="45.81036" lon="1.92899">
        <ele>747.9</ele>
        <time>2026-07-07T09:56:21.000Z</time>
      </trkpt>
      <trkpt lat="45.81036" lon="1.92898">
        <ele>746.8</ele>
        <time>2026-07-07T09:56:22.000Z</time>
      </trkpt>
      <trkpt lat="45.81036" lon="1.92897">
        <ele>745.9</ele>
        <time>2026-07-07T09:56:23.000Z</time>
      </trkpt>
      <trkpt lat="45.81036" lon="1.92896">
        <ele>746</ele>
        <time>2026-07-07T09:56:24.000Z</time>
      </trkpt>
      <trkpt lat="45.81036" lon="1.92896">
        <ele>745.9</ele>
        <time>2026-07-07T09:56:25.000Z</time>
      </trkpt>
      <trkpt lat="45.81036" lon="1.92895">
        <ele>745.9</ele>
        <time>2026-07-07T09:56:26.000Z</time>
      </trkpt>
      <trkpt lat="45.81036" lon="1.92895">
        <ele>745.9</ele>
        <time>2026-07-07T09:56:27.000Z</time>
      </trkpt>
      <trkpt lat="45.81036" lon="1.92895">
        <ele>745.9</ele>
        <time>2026-07-07T09:56:28.000Z</time>
      </trkpt>
      <trkpt lat="45.81036" lon="1.92895">
        <ele>745.9</ele>
        <time>2026-07-07T09:56:29.000Z</time>
      </trkpt>
      <trkpt lat="45.81036" lon="1.92895">
        <ele>745.9</ele>
        <time>2026-07-07T09:56:30.000Z</time>
      </trkpt>
      <trkpt lat="45.81036" lon="1.92895">
        <ele>746</ele>
        <time>2026-07-07T09:56:31.000Z</time>
      </trkpt>
      <trkpt lat="45.81036" lon="1.92895">
        <ele>746</ele>
        <time>2026-07-07T09:56:32.000Z</time>
      </trkpt>
      <trkpt lat="45.81036" lon="1.92895">
        <ele>746</ele>
        <time>2026-07-07T09:56:33.000Z</time>
      </trkpt>
      <trkpt lat="45.81036" lon="1.92895">
        <ele>746</ele>
        <time>2026-07-07T09:56:34.000Z</time>
      </trkpt>
      <trkpt lat="45.81036" lon="1.92895">
        <ele>746</ele>
        <time>2026-07-07T09:56:35.000Z</time>
      </trkpt>
      <trkpt lat="45.81036" lon="1.92895">
        <ele>746</ele>
        <time>2026-07-07T09:56:36.000Z</time>
      </trkpt>
      <trkpt lat="45.81036" lon="1.92895">
        <ele>746</ele>
        <time>2026-07-07T09:56:37.000Z</time>
      </trkpt>
      <trkpt lat="45.81036" lon="1.92895">
        <ele>745.7</ele>
        <time>2026-07-07T09:56:38.000Z</time>
      </trkpt>
      <trkpt lat="45.81037" lon="1.92894">
        <ele>745.7</ele>
        <time>2026-07-07T09:56:39.000Z</time>
      </trkpt>
      <trkpt lat="45.81037" lon="1.92894">
        <ele>745.7</ele>
        <time>2026-07-07T09:56:40.000Z</time>
      </trkpt>
      <trkpt lat="45.81037" lon="1.92892">
        <ele>745.6</ele>
        <time>2026-07-07T09:56:41.000Z</time>
      </trkpt>
      <trkpt lat="45.81037" lon="1.92892">
        <ele>745.7</ele>
        <time>2026-07-07T09:56:42.000Z</time>
      </trkpt>
      <trkpt lat="45.81037" lon="1.92892">
        <ele>745.7</ele>
        <time>2026-07-07T09:56:43.000Z</time>
      </trkpt>
      <trkpt lat="45.81037" lon="1.92892">
        <ele>745.7</ele>
        <time>2026-07-07T09:56:44.000Z</time>
      </trkpt>
      <trkpt lat="45.81037" lon="1.92892">
        <ele>745.7</ele>
        <time>2026-07-07T09:56:45.000Z</time>
      </trkpt>
      <trkpt lat="45.81037" lon="1.92891">
        <ele>745.5</ele>
        <time>2026-07-07T09:56:46.000Z</time>
      </trkpt>
      <trkpt lat="45.81037" lon="1.92891">
        <ele>745.4</ele>
        <time>2026-07-07T09:56:47.000Z</time>
      </trkpt>
      <trkpt lat="45.81037" lon="1.92891">
        <ele>745.4</ele>
        <time>2026-07-07T09:56:48.000Z</time>
      </trkpt>
      <trkpt lat="45.81037" lon="1.92891">
        <ele>745.8</ele>
        <time>2026-07-07T09:56:49.000Z</time>
      </trkpt>
      <trkpt lat="45.81037" lon="1.92891">
        <ele>746.6</ele>
        <time>2026-07-07T09:56:50.000Z</time>
      </trkpt>
      <trkpt lat="45.81037" lon="1.92891">
        <ele>746.6</ele>
        <time>2026-07-07T09:56:51.000Z</time>
      </trkpt>
      <trkpt lat="45.81037" lon="1.92891">
        <ele>747.1</ele>
        <time>2026-07-07T09:56:52.000Z</time>
      </trkpt>
      <trkpt lat="45.81037" lon="1.92891">
        <ele>747.1</ele>
        <time>2026-07-07T09:56:53.000Z</time>
      </trkpt>
      <trkpt lat="45.81037" lon="1.92891">
        <ele>746.8</ele>
        <time>2026-07-07T09:56:54.000Z</time>
      </trkpt>
      <trkpt lat="45.81037" lon="1.92891">
        <ele>746.8</ele>
        <time>2026-07-07T09:56:55.000Z</time>
      </trkpt>
      <trkpt lat="45.81037" lon="1.92891">
        <ele>746.8</ele>
        <time>2026-07-07T09:56:56.000Z</time>
      </trkpt>
      <trkpt lat="45.81037" lon="1.92891">
        <ele>746.8</ele>
        <time>2026-07-07T09:56:57.000Z</time>
      </trkpt>
      <trkpt lat="45.81037" lon="1.92891">
        <ele>746.7</ele>
        <time>2026-07-07T09:56:58.000Z</time>
      </trkpt>
      <trkpt lat="45.81037" lon="1.92891">
        <ele>746.5</ele>
        <time>2026-07-07T09:56:59.000Z</time>
      </trkpt>
      <trkpt lat="45.81037" lon="1.92892">
        <ele>746.1</ele>
        <time>2026-07-07T09:57:00.000Z</time>
      </trkpt>
      <trkpt lat="45.81037" lon="1.92893">
        <ele>745.9</ele>
        <time>2026-07-07T09:57:01.000Z</time>
      </trkpt>
      <trkpt lat="45.81037" lon="1.92893">
        <ele>745.9</ele>
        <time>2026-07-07T09:57:02.000Z</time>
      </trkpt>
      <trkpt lat="45.81037" lon="1.92893">
        <ele>745.9</ele>
        <time>2026-07-07T09:57:03.000Z</time>
      </trkpt>
      <trkpt lat="45.81037" lon="1.92893">
        <ele>745.9</ele>
        <time>2026-07-07T09:57:04.000Z</time>
      </trkpt>
      <trkpt lat="45.81037" lon="1.92893">
        <ele>745.9</ele>
        <time>2026-07-07T09:57:05.000Z</time>
      </trkpt>
      <trkpt lat="45.81037" lon="1.92893">
        <ele>745.9</ele>
        <time>2026-07-07T09:57:06.000Z</time>
      </trkpt>
      <trkpt lat="45.81037" lon="1.92893">
        <ele>746.2</ele>
        <time>2026-07-07T09:57:07.000Z</time>
      </trkpt>
      <trkpt lat="45.81038" lon="1.92893">
        <ele>746.4</ele>
        <time>2026-07-07T09:57:08.000Z</time>
      </trkpt>
      <trkpt lat="45.81038" lon="1.92893">
        <ele>746.4</ele>
        <time>2026-07-07T09:57:09.000Z</time>
      </trkpt>
      <trkpt lat="45.81038" lon="1.92893">
        <ele>746.4</ele>
        <time>2026-07-07T09:57:10.000Z</time>
      </trkpt>
      <trkpt lat="45.81038" lon="1.92893">
        <ele>746.4</ele>
        <time>2026-07-07T09:57:11.000Z</time>
      </trkpt>
      <trkpt lat="45.81038" lon="1.92893">
        <ele>746.4</ele>
        <time>2026-07-07T09:57:12.000Z</time>
      </trkpt>
      <trkpt lat="45.81038" lon="1.92894">
        <ele>746.4</ele>
        <time>2026-07-07T09:57:13.000Z</time>
      </trkpt>
      <trkpt lat="45.81038" lon="1.92894">
        <ele>746.5</ele>
        <time>2026-07-07T09:57:14.000Z</time>
      </trkpt>
      <trkpt lat="45.81038" lon="1.92895">
        <ele>746.2</ele>
        <time>2026-07-07T09:57:15.000Z</time>
      </trkpt>
      <trkpt lat="45.81038" lon="1.92895">
        <ele>745.6</ele>
        <time>2026-07-07T09:57:16.000Z</time>
      </trkpt>
      <trkpt lat="45.81038" lon="1.92895">
        <ele>745.6</ele>
        <time>2026-07-07T09:57:17.000Z</time>
      </trkpt>
      <trkpt lat="45.81038" lon="1.92895">
        <ele>745.6</ele>
        <time>2026-07-07T09:57:18.000Z</time>
      </trkpt>
      <trkpt lat="45.81038" lon="1.92895">
        <ele>745.6</ele>
        <time>2026-07-07T09:57:19.000Z</time>
      </trkpt>
      <trkpt lat="45.81038" lon="1.92895">
        <ele>745.6</ele>
        <time>2026-07-07T09:57:20.000Z</time>
      </trkpt>
      <trkpt lat="45.81038" lon="1.92895">
        <ele>745.6</ele>
        <time>2026-07-07T09:57:21.000Z</time>
      </trkpt>
      <trkpt lat="45.81038" lon="1.92895">
        <ele>745.6</ele>
        <time>2026-07-07T09:57:22.000Z</time>
      </trkpt>
      <trkpt lat="45.81038" lon="1.92895">
        <ele>745.1</ele>
        <time>2026-07-07T09:57:23.000Z</time>
      </trkpt>
      <trkpt lat="45.81038" lon="1.92896">
        <ele>744.8</ele>
        <time>2026-07-07T09:57:24.000Z</time>
      </trkpt>
      <trkpt lat="45.81038" lon="1.92898">
        <ele>744.6</ele>
        <time>2026-07-07T09:57:25.000Z</time>
      </trkpt>
      <trkpt lat="45.81037" lon="1.92899">
        <ele>744.3</ele>
        <time>2026-07-07T09:57:26.000Z</time>
      </trkpt>
      <trkpt lat="45.81037" lon="1.92901">
        <ele>744.4</ele>
        <time>2026-07-07T09:57:27.000Z</time>
      </trkpt>
      <trkpt lat="45.81036" lon="1.92903">
        <ele>744.8</ele>
        <time>2026-07-07T09:57:28.000Z</time>
      </trkpt>
      <trkpt lat="45.81035" lon="1.92905">
        <ele>745.4</ele>
        <time>2026-07-07T09:57:29.000Z</time>
      </trkpt>
      <trkpt lat="45.81035" lon="1.92907">
        <ele>744.5</ele>
        <time>2026-07-07T09:57:30.000Z</time>
      </trkpt>
      <trkpt lat="45.81034" lon="1.92909">
        <ele>744.2</ele>
        <time>2026-07-07T09:57:31.000Z</time>
      </trkpt>
      <trkpt lat="45.81034" lon="1.92911">
        <ele>744.4</ele>
        <time>2026-07-07T09:57:32.000Z</time>
      </trkpt>
      <trkpt lat="45.81034" lon="1.92913">
        <ele>743.8</ele>
        <time>2026-07-07T09:57:33.000Z</time>
      </trkpt>
      <trkpt lat="45.81034" lon="1.92914">
        <ele>743.6</ele>
        <time>2026-07-07T09:57:34.000Z</time>
      </trkpt>
      <trkpt lat="45.81034" lon="1.92916">
        <ele>743.9</ele>
        <time>2026-07-07T09:57:35.000Z</time>
      </trkpt>
      <trkpt lat="45.81034" lon="1.92918">
        <ele>743.9</ele>
        <time>2026-07-07T09:57:36.000Z</time>
      </trkpt>
      <trkpt lat="45.81032" lon="1.92922">
        <ele>745.9</ele>
        <time>2026-07-07T09:57:37.000Z</time>
      </trkpt>
      <trkpt lat="45.81032" lon="1.92923">
        <ele>745.6</ele>
        <time>2026-07-07T09:57:38.000Z</time>
      </trkpt>
      <trkpt lat="45.81032" lon="1.92923">
        <ele>744.4</ele>
        <time>2026-07-07T09:57:39.000Z</time>
      </trkpt>
      <trkpt lat="45.81032" lon="1.92926">
        <ele>744.2</ele>
        <time>2026-07-07T09:57:40.000Z</time>
      </trkpt>
      <trkpt lat="45.81032" lon="1.92927">
        <ele>744.8</ele>
        <time>2026-07-07T09:57:41.000Z</time>
      </trkpt>
      <trkpt lat="45.81033" lon="1.92929">
        <ele>744.4</ele>
        <time>2026-07-07T09:57:42.000Z</time>
      </trkpt>
      <trkpt lat="45.81034" lon="1.9293">
        <ele>744.3</ele>
        <time>2026-07-07T09:57:43.000Z</time>
      </trkpt>
      <trkpt lat="45.81034" lon="1.92932">
        <ele>743.8</ele>
        <time>2026-07-07T09:57:44.000Z</time>
      </trkpt>
      <trkpt lat="45.81035" lon="1.92933">
        <ele>743.9</ele>
        <time>2026-07-07T09:57:45.000Z</time>
      </trkpt>
      <trkpt lat="45.81035" lon="1.92935">
        <ele>744.1</ele>
        <time>2026-07-07T09:57:46.000Z</time>
      </trkpt>
      <trkpt lat="45.81035" lon="1.92936">
        <ele>744.3</ele>
        <time>2026-07-07T09:57:47.000Z</time>
      </trkpt>
      <trkpt lat="45.81036" lon="1.92938">
        <ele>744</ele>
        <time>2026-07-07T09:57:48.000Z</time>
      </trkpt>
      <trkpt lat="45.81036" lon="1.9294">
        <ele>743.6</ele>
        <time>2026-07-07T09:57:49.000Z</time>
      </trkpt>
      <trkpt lat="45.81036" lon="1.92942">
        <ele>743.8</ele>
        <time>2026-07-07T09:57:50.000Z</time>
      </trkpt>
      <trkpt lat="45.81037" lon="1.92944">
        <ele>743.1</ele>
        <time>2026-07-07T09:57:51.000Z</time>
      </trkpt>
      <trkpt lat="45.81038" lon="1.92947">
        <ele>743.3</ele>
        <time>2026-07-07T09:57:52.000Z</time>
      </trkpt>
      <trkpt lat="45.81039" lon="1.92948">
        <ele>744.1</ele>
        <time>2026-07-07T09:57:53.000Z</time>
      </trkpt>
      <trkpt lat="45.8104" lon="1.9295">
        <ele>744.2</ele>
        <time>2026-07-07T09:57:54.000Z</time>
      </trkpt>
      <trkpt lat="45.81041" lon="1.92952">
        <ele>744.4</ele>
        <time>2026-07-07T09:57:55.000Z</time>
      </trkpt>
      <trkpt lat="45.81043" lon="1.92953">
        <ele>743.7</ele>
        <time>2026-07-07T09:57:56.000Z</time>
      </trkpt>
      <trkpt lat="45.81045" lon="1.92953">
        <ele>744</ele>
        <time>2026-07-07T09:57:57.000Z</time>
      </trkpt>
      <trkpt lat="45.81046" lon="1.92954">
        <ele>743.5</ele>
        <time>2026-07-07T09:57:58.000Z</time>
      </trkpt>
      <trkpt lat="45.81048" lon="1.92955">
        <ele>742.4</ele>
        <time>2026-07-07T09:57:59.000Z</time>
      </trkpt>
      <trkpt lat="45.81049" lon="1.92957">
        <ele>743.6</ele>
        <time>2026-07-07T09:58:00.000Z</time>
      </trkpt>
      <trkpt lat="45.81051" lon="1.92958">
        <ele>744.5</ele>
        <time>2026-07-07T09:58:01.000Z</time>
      </trkpt>
      <trkpt lat="45.81052" lon="1.92959">
        <ele>744.8</ele>
        <time>2026-07-07T09:58:02.000Z</time>
      </trkpt>
      <trkpt lat="45.81054" lon="1.9296">
        <ele>745.6</ele>
        <time>2026-07-07T09:58:03.000Z</time>
      </trkpt>
      <trkpt lat="45.81056" lon="1.92961">
        <ele>745.4</ele>
        <time>2026-07-07T09:58:04.000Z</time>
      </trkpt>
      <trkpt lat="45.81057" lon="1.92962">
        <ele>746.4</ele>
        <time>2026-07-07T09:58:05.000Z</time>
      </trkpt>
      <trkpt lat="45.81058" lon="1.92963">
        <ele>746.8</ele>
        <time>2026-07-07T09:58:06.000Z</time>
      </trkpt>
      <trkpt lat="45.81059" lon="1.92964">
        <ele>746.5</ele>
        <time>2026-07-07T09:58:07.000Z</time>
      </trkpt>
      <trkpt lat="45.8106" lon="1.92966">
        <ele>746.3</ele>
        <time>2026-07-07T09:58:08.000Z</time>
      </trkpt>
      <trkpt lat="45.81062" lon="1.92968">
        <ele>746.5</ele>
        <time>2026-07-07T09:58:09.000Z</time>
      </trkpt>
      <trkpt lat="45.81063" lon="1.92969">
        <ele>747</ele>
        <time>2026-07-07T09:58:10.000Z</time>
      </trkpt>
      <trkpt lat="45.81064" lon="1.92971">
        <ele>746.6</ele>
        <time>2026-07-07T09:58:11.000Z</time>
      </trkpt>
      <trkpt lat="45.81065" lon="1.92972">
        <ele>746.9</ele>
        <time>2026-07-07T09:58:12.000Z</time>
      </trkpt>
      <trkpt lat="45.81066" lon="1.92974">
        <ele>746.3</ele>
        <time>2026-07-07T09:58:13.000Z</time>
      </trkpt>
      <trkpt lat="45.81067" lon="1.92975">
        <ele>746.3</ele>
        <time>2026-07-07T09:58:14.000Z</time>
      </trkpt>
      <trkpt lat="45.81068" lon="1.92976">
        <ele>746.3</ele>
        <time>2026-07-07T09:58:15.000Z</time>
      </trkpt>
      <trkpt lat="45.81069" lon="1.92978">
        <ele>746.3</ele>
        <time>2026-07-07T09:58:16.000Z</time>
      </trkpt>
      <trkpt lat="45.81071" lon="1.92978">
        <ele>745.8</ele>
        <time>2026-07-07T09:58:17.000Z</time>
      </trkpt>
      <trkpt lat="45.81072" lon="1.9298">
        <ele>746.1</ele>
        <time>2026-07-07T09:58:18.000Z</time>
      </trkpt>
      <trkpt lat="45.81073" lon="1.92982">
        <ele>746.3</ele>
        <time>2026-07-07T09:58:19.000Z</time>
      </trkpt>
      <trkpt lat="45.81074" lon="1.92983">
        <ele>746.2</ele>
        <time>2026-07-07T09:58:20.000Z</time>
      </trkpt>
      <trkpt lat="45.81074" lon="1.92984">
        <ele>745.5</ele>
        <time>2026-07-07T09:58:21.000Z</time>
      </trkpt>
      <trkpt lat="45.81074" lon="1.92987">
        <ele>745.4</ele>
        <time>2026-07-07T09:58:22.000Z</time>
      </trkpt>
      <trkpt lat="45.81074" lon="1.92989">
        <ele>746.3</ele>
        <time>2026-07-07T09:58:23.000Z</time>
      </trkpt>
      <trkpt lat="45.81075" lon="1.9299">
        <ele>747</ele>
        <time>2026-07-07T09:58:24.000Z</time>
      </trkpt>
      <trkpt lat="45.81076" lon="1.92992">
        <ele>747.3</ele>
        <time>2026-07-07T09:58:25.000Z</time>
      </trkpt>
      <trkpt lat="45.81078" lon="1.92993">
        <ele>747.2</ele>
        <time>2026-07-07T09:58:26.000Z</time>
      </trkpt>
      <trkpt lat="45.81079" lon="1.92994">
        <ele>747.1</ele>
        <time>2026-07-07T09:58:27.000Z</time>
      </trkpt>
      <trkpt lat="45.8108" lon="1.92995">
        <ele>746.7</ele>
        <time>2026-07-07T09:58:28.000Z</time>
      </trkpt>
      <trkpt lat="45.81081" lon="1.92996">
        <ele>746.7</ele>
        <time>2026-07-07T09:58:29.000Z</time>
      </trkpt>
      <trkpt lat="45.81082" lon="1.92998">
        <ele>747.2</ele>
        <time>2026-07-07T09:58:30.000Z</time>
      </trkpt>
      <trkpt lat="45.81084" lon="1.92999">
        <ele>746.8</ele>
        <time>2026-07-07T09:58:31.000Z</time>
      </trkpt>
      <trkpt lat="45.81085" lon="1.93">
        <ele>747</ele>
        <time>2026-07-07T09:58:32.000Z</time>
      </trkpt>
      <trkpt lat="45.81087" lon="1.93001">
        <ele>747.2</ele>
        <time>2026-07-07T09:58:33.000Z</time>
      </trkpt>
      <trkpt lat="45.81088" lon="1.93002">
        <ele>747.1</ele>
        <time>2026-07-07T09:58:34.000Z</time>
      </trkpt>
      <trkpt lat="45.81089" lon="1.93002">
        <ele>746.5</ele>
        <time>2026-07-07T09:58:35.000Z</time>
      </trkpt>
      <trkpt lat="45.81091" lon="1.93003">
        <ele>746.3</ele>
        <time>2026-07-07T09:58:36.000Z</time>
      </trkpt>
      <trkpt lat="45.81092" lon="1.93004">
        <ele>746</ele>
        <time>2026-07-07T09:58:37.000Z</time>
      </trkpt>
      <trkpt lat="45.81093" lon="1.93005">
        <ele>746.6</ele>
        <time>2026-07-07T09:58:38.000Z</time>
      </trkpt>
      <trkpt lat="45.81095" lon="1.93006">
        <ele>745.8</ele>
        <time>2026-07-07T09:58:39.000Z</time>
      </trkpt>
      <trkpt lat="45.81096" lon="1.93007">
        <ele>745.9</ele>
        <time>2026-07-07T09:58:40.000Z</time>
      </trkpt>
      <trkpt lat="45.81098" lon="1.93008">
        <ele>746</ele>
        <time>2026-07-07T09:58:41.000Z</time>
      </trkpt>
      <trkpt lat="45.81099" lon="1.93009">
        <ele>746.8</ele>
        <time>2026-07-07T09:58:42.000Z</time>
      </trkpt>
      <trkpt lat="45.81101" lon="1.9301">
        <ele>746.9</ele>
        <time>2026-07-07T09:58:43.000Z</time>
      </trkpt>
      <trkpt lat="45.81102" lon="1.93011">
        <ele>746.9</ele>
        <time>2026-07-07T09:58:44.000Z</time>
      </trkpt>
      <trkpt lat="45.81103" lon="1.93013">
        <ele>747</ele>
        <time>2026-07-07T09:58:45.000Z</time>
      </trkpt>
      <trkpt lat="45.81105" lon="1.93014">
        <ele>747.1</ele>
        <time>2026-07-07T09:58:46.000Z</time>
      </trkpt>
      <trkpt lat="45.81106" lon="1.93016">
        <ele>747.2</ele>
        <time>2026-07-07T09:58:47.000Z</time>
      </trkpt>
      <trkpt lat="45.81107" lon="1.93017">
        <ele>747.4</ele>
        <time>2026-07-07T09:58:48.000Z</time>
      </trkpt>
      <trkpt lat="45.81109" lon="1.93018">
        <ele>747.4</ele>
        <time>2026-07-07T09:58:49.000Z</time>
      </trkpt>
      <trkpt lat="45.8111" lon="1.93019">
        <ele>747.4</ele>
        <time>2026-07-07T09:58:50.000Z</time>
      </trkpt>
      <trkpt lat="45.81111" lon="1.93021">
        <ele>747.4</ele>
        <time>2026-07-07T09:58:51.000Z</time>
      </trkpt>
      <trkpt lat="45.81113" lon="1.93022">
        <ele>747.7</ele>
        <time>2026-07-07T09:58:52.000Z</time>
      </trkpt>
      <trkpt lat="45.81114" lon="1.93024">
        <ele>747.2</ele>
        <time>2026-07-07T09:58:53.000Z</time>
      </trkpt>
      <trkpt lat="45.81115" lon="1.93025">
        <ele>747.3</ele>
        <time>2026-07-07T09:58:54.000Z</time>
      </trkpt>
      <trkpt lat="45.81116" lon="1.93026">
        <ele>747.8</ele>
        <time>2026-07-07T09:58:55.000Z</time>
      </trkpt>
      <trkpt lat="45.81117" lon="1.93027">
        <ele>747.4</ele>
        <time>2026-07-07T09:58:56.000Z</time>
      </trkpt>
      <trkpt lat="45.81119" lon="1.93029">
        <ele>747.2</ele>
        <time>2026-07-07T09:58:57.000Z</time>
      </trkpt>
      <trkpt lat="45.8112" lon="1.9303">
        <ele>747.6</ele>
        <time>2026-07-07T09:58:58.000Z</time>
      </trkpt>
      <trkpt lat="45.81121" lon="1.93032">
        <ele>747.6</ele>
        <time>2026-07-07T09:58:59.000Z</time>
      </trkpt>
      <trkpt lat="45.81122" lon="1.93033">
        <ele>748.3</ele>
        <time>2026-07-07T09:59:00.000Z</time>
      </trkpt>
      <trkpt lat="45.81124" lon="1.93034">
        <ele>748.6</ele>
        <time>2026-07-07T09:59:01.000Z</time>
      </trkpt>
      <trkpt lat="45.81125" lon="1.93036">
        <ele>748.8</ele>
        <time>2026-07-07T09:59:02.000Z</time>
      </trkpt>
      <trkpt lat="45.81127" lon="1.93037">
        <ele>748.9</ele>
        <time>2026-07-07T09:59:03.000Z</time>
      </trkpt>
      <trkpt lat="45.81128" lon="1.93039">
        <ele>749.2</ele>
        <time>2026-07-07T09:59:04.000Z</time>
      </trkpt>
      <trkpt lat="45.81129" lon="1.93041">
        <ele>749.5</ele>
        <time>2026-07-07T09:59:05.000Z</time>
      </trkpt>
      <trkpt lat="45.8113" lon="1.93042">
        <ele>749.6</ele>
        <time>2026-07-07T09:59:06.000Z</time>
      </trkpt>
      <trkpt lat="45.81131" lon="1.93044">
        <ele>749.8</ele>
        <time>2026-07-07T09:59:07.000Z</time>
      </trkpt>
      <trkpt lat="45.81132" lon="1.93045">
        <ele>750</ele>
        <time>2026-07-07T09:59:08.000Z</time>
      </trkpt>
      <trkpt lat="45.81133" lon="1.93046">
        <ele>750.3</ele>
        <time>2026-07-07T09:59:09.000Z</time>
      </trkpt>
      <trkpt lat="45.81134" lon="1.93048">
        <ele>750.3</ele>
        <time>2026-07-07T09:59:10.000Z</time>
      </trkpt>
      <trkpt lat="45.81135" lon="1.9305">
        <ele>750.6</ele>
        <time>2026-07-07T09:59:11.000Z</time>
      </trkpt>
      <trkpt lat="45.81137" lon="1.93051">
        <ele>750.5</ele>
        <time>2026-07-07T09:59:12.000Z</time>
      </trkpt>
      <trkpt lat="45.81138" lon="1.93053">
        <ele>750.4</ele>
        <time>2026-07-07T09:59:13.000Z</time>
      </trkpt>
      <trkpt lat="45.81139" lon="1.93054">
        <ele>750.2</ele>
        <time>2026-07-07T09:59:14.000Z</time>
      </trkpt>
      <trkpt lat="45.8114" lon="1.93056">
        <ele>750.3</ele>
        <time>2026-07-07T09:59:15.000Z</time>
      </trkpt>
      <trkpt lat="45.81141" lon="1.93057">
        <ele>750.4</ele>
        <time>2026-07-07T09:59:16.000Z</time>
      </trkpt>
      <trkpt lat="45.81142" lon="1.93059">
        <ele>750.4</ele>
        <time>2026-07-07T09:59:17.000Z</time>
      </trkpt>
      <trkpt lat="45.81144" lon="1.9306">
        <ele>750.5</ele>
        <time>2026-07-07T09:59:18.000Z</time>
      </trkpt>
      <trkpt lat="45.81145" lon="1.93062">
        <ele>750.7</ele>
        <time>2026-07-07T09:59:19.000Z</time>
      </trkpt>
      <trkpt lat="45.81146" lon="1.93063">
        <ele>750.8</ele>
        <time>2026-07-07T09:59:20.000Z</time>
      </trkpt>
      <trkpt lat="45.81147" lon="1.93064">
        <ele>750.7</ele>
        <time>2026-07-07T09:59:21.000Z</time>
      </trkpt>
      <trkpt lat="45.81148" lon="1.93065">
        <ele>750.6</ele>
        <time>2026-07-07T09:59:22.000Z</time>
      </trkpt>
      <trkpt lat="45.8115" lon="1.93066">
        <ele>751.3</ele>
        <time>2026-07-07T09:59:23.000Z</time>
      </trkpt>
      <trkpt lat="45.81151" lon="1.93068">
        <ele>751.2</ele>
        <time>2026-07-07T09:59:24.000Z</time>
      </trkpt>
      <trkpt lat="45.81154" lon="1.93067">
        <ele>750.8</ele>
        <time>2026-07-07T09:59:25.000Z</time>
      </trkpt>
      <trkpt lat="45.81156" lon="1.93067">
        <ele>750.8</ele>
        <time>2026-07-07T09:59:26.000Z</time>
      </trkpt>
      <trkpt lat="45.81156" lon="1.93068">
        <ele>750.8</ele>
        <time>2026-07-07T09:59:27.000Z</time>
      </trkpt>
      <trkpt lat="45.81157" lon="1.9307">
        <ele>750.7</ele>
        <time>2026-07-07T09:59:28.000Z</time>
      </trkpt>
      <trkpt lat="45.81157" lon="1.93072">
        <ele>750.9</ele>
        <time>2026-07-07T09:59:29.000Z</time>
      </trkpt>
      <trkpt lat="45.81157" lon="1.93074">
        <ele>750.7</ele>
        <time>2026-07-07T09:59:30.000Z</time>
      </trkpt>
      <trkpt lat="45.81157" lon="1.93077">
        <ele>750.7</ele>
        <time>2026-07-07T09:59:31.000Z</time>
      </trkpt>
      <trkpt lat="45.81156" lon="1.93079">
        <ele>751</ele>
        <time>2026-07-07T09:59:32.000Z</time>
      </trkpt>
      <trkpt lat="45.81156" lon="1.93081">
        <ele>750.9</ele>
        <time>2026-07-07T09:59:33.000Z</time>
      </trkpt>
      <trkpt lat="45.81155" lon="1.93083">
        <ele>750.8</ele>
        <time>2026-07-07T09:59:34.000Z</time>
      </trkpt>
      <trkpt lat="45.81155" lon="1.93085">
        <ele>750.8</ele>
        <time>2026-07-07T09:59:35.000Z</time>
      </trkpt>
      <trkpt lat="45.81154" lon="1.93088">
        <ele>751.4</ele>
        <time>2026-07-07T09:59:36.000Z</time>
      </trkpt>
      <trkpt lat="45.81154" lon="1.9309">
        <ele>751.2</ele>
        <time>2026-07-07T09:59:37.000Z</time>
      </trkpt>
      <trkpt lat="45.81154" lon="1.93092">
        <ele>751</ele>
        <time>2026-07-07T09:59:38.000Z</time>
      </trkpt>
      <trkpt lat="45.81153" lon="1.93095">
        <ele>751.2</ele>
        <time>2026-07-07T09:59:39.000Z</time>
      </trkpt>
      <trkpt lat="45.81153" lon="1.93097">
        <ele>751.5</ele>
        <time>2026-07-07T09:59:40.000Z</time>
      </trkpt>
      <trkpt lat="45.81153" lon="1.93099">
        <ele>751.7</ele>
        <time>2026-07-07T09:59:41.000Z</time>
      </trkpt>
      <trkpt lat="45.81153" lon="1.93102">
        <ele>751.7</ele>
        <time>2026-07-07T09:59:42.000Z</time>
      </trkpt>
      <trkpt lat="45.81153" lon="1.93104">
        <ele>751.8</ele>
        <time>2026-07-07T09:59:43.000Z</time>
      </trkpt>
      <trkpt lat="45.81153" lon="1.93106">
        <ele>751.9</ele>
        <time>2026-07-07T09:59:44.000Z</time>
      </trkpt>
      <trkpt lat="45.81153" lon="1.93109">
        <ele>752</ele>
        <time>2026-07-07T09:59:45.000Z</time>
      </trkpt>
      <trkpt lat="45.81152" lon="1.93111">
        <ele>751.7</ele>
        <time>2026-07-07T09:59:46.000Z</time>
      </trkpt>
      <trkpt lat="45.81152" lon="1.93113">
        <ele>751.8</ele>
        <time>2026-07-07T09:59:47.000Z</time>
      </trkpt>
      <trkpt lat="45.81152" lon="1.93115">
        <ele>751.8</ele>
        <time>2026-07-07T09:59:48.000Z</time>
      </trkpt>
      <trkpt lat="45.81152" lon="1.93118">
        <ele>751.8</ele>
        <time>2026-07-07T09:59:49.000Z</time>
      </trkpt>
      <trkpt lat="45.81151" lon="1.9312">
        <ele>751.8</ele>
        <time>2026-07-07T09:59:50.000Z</time>
      </trkpt>
      <trkpt lat="45.81151" lon="1.93122">
        <ele>751.9</ele>
        <time>2026-07-07T09:59:51.000Z</time>
      </trkpt>
      <trkpt lat="45.8115" lon="1.93125">
        <ele>752</ele>
        <time>2026-07-07T09:59:52.000Z</time>
      </trkpt>
      <trkpt lat="45.8115" lon="1.93127">
        <ele>751.6</ele>
        <time>2026-07-07T09:59:53.000Z</time>
      </trkpt>
      <trkpt lat="45.81149" lon="1.93129">
        <ele>751.9</ele>
        <time>2026-07-07T09:59:54.000Z</time>
      </trkpt>
      <trkpt lat="45.81149" lon="1.93132">
        <ele>751.9</ele>
        <time>2026-07-07T09:59:55.000Z</time>
      </trkpt>
      <trkpt lat="45.81149" lon="1.93134">
        <ele>752</ele>
        <time>2026-07-07T09:59:56.000Z</time>
      </trkpt>
      <trkpt lat="45.81149" lon="1.93137">
        <ele>752.1</ele>
        <time>2026-07-07T09:59:57.000Z</time>
      </trkpt>
      <trkpt lat="45.81149" lon="1.93139">
        <ele>752.4</ele>
        <time>2026-07-07T09:59:58.000Z</time>
      </trkpt>
      <trkpt lat="45.81149" lon="1.93141">
        <ele>752.3</ele>
        <time>2026-07-07T09:59:59.000Z</time>
      </trkpt>
      <trkpt lat="45.81149" lon="1.93144">
        <ele>752</ele>
        <time>2026-07-07T10:00:00.000Z</time>
      </trkpt>
      <trkpt lat="45.81149" lon="1.93146">
        <ele>751.7</ele>
        <time>2026-07-07T10:00:01.000Z</time>
      </trkpt>
      <trkpt lat="45.81149" lon="1.93148">
        <ele>751.9</ele>
        <time>2026-07-07T10:00:02.000Z</time>
      </trkpt>
      <trkpt lat="45.81149" lon="1.9315">
        <ele>751.8</ele>
        <time>2026-07-07T10:00:03.000Z</time>
      </trkpt>
      <trkpt lat="45.8115" lon="1.93151">
        <ele>750.9</ele>
        <time>2026-07-07T10:00:04.000Z</time>
      </trkpt>
      <trkpt lat="45.8115" lon="1.93154">
        <ele>750.9</ele>
        <time>2026-07-07T10:00:05.000Z</time>
      </trkpt>
      <trkpt lat="45.8115" lon="1.93156">
        <ele>751.5</ele>
        <time>2026-07-07T10:00:06.000Z</time>
      </trkpt>
      <trkpt lat="45.8115" lon="1.93158">
        <ele>752</ele>
        <time>2026-07-07T10:00:07.000Z</time>
      </trkpt>
      <trkpt lat="45.8115" lon="1.9316">
        <ele>753</ele>
        <time>2026-07-07T10:00:08.000Z</time>
      </trkpt>
      <trkpt lat="45.8115" lon="1.93163">
        <ele>753.2</ele>
        <time>2026-07-07T10:00:09.000Z</time>
      </trkpt>
      <trkpt lat="45.8115" lon="1.93165">
        <ele>753.8</ele>
        <time>2026-07-07T10:00:10.000Z</time>
      </trkpt>
      <trkpt lat="45.81151" lon="1.93167">
        <ele>753.5</ele>
        <time>2026-07-07T10:00:11.000Z</time>
      </trkpt>
      <trkpt lat="45.81152" lon="1.93169">
        <ele>753.3</ele>
        <time>2026-07-07T10:00:12.000Z</time>
      </trkpt>
      <trkpt lat="45.81152" lon="1.93171">
        <ele>753.7</ele>
        <time>2026-07-07T10:00:13.000Z</time>
      </trkpt>
      <trkpt lat="45.81153" lon="1.93174">
        <ele>753.4</ele>
        <time>2026-07-07T10:00:14.000Z</time>
      </trkpt>
      <trkpt lat="45.81154" lon="1.93176">
        <ele>753.2</ele>
        <time>2026-07-07T10:00:15.000Z</time>
      </trkpt>
      <trkpt lat="45.81155" lon="1.93178">
        <ele>753</ele>
        <time>2026-07-07T10:00:16.000Z</time>
      </trkpt>
      <trkpt lat="45.81155" lon="1.93181">
        <ele>752.6</ele>
        <time>2026-07-07T10:00:17.000Z</time>
      </trkpt>
      <trkpt lat="45.81155" lon="1.93183">
        <ele>755.3</ele>
        <time>2026-07-07T10:00:18.000Z</time>
      </trkpt>
      <trkpt lat="45.81155" lon="1.93186">
        <ele>755.2</ele>
        <time>2026-07-07T10:00:19.000Z</time>
      </trkpt>
      <trkpt lat="45.81155" lon="1.93188">
        <ele>755.3</ele>
        <time>2026-07-07T10:00:20.000Z</time>
      </trkpt>
      <trkpt lat="45.81156" lon="1.93191">
        <ele>755.5</ele>
        <time>2026-07-07T10:00:21.000Z</time>
      </trkpt>
      <trkpt lat="45.81156" lon="1.93193">
        <ele>755.6</ele>
        <time>2026-07-07T10:00:22.000Z</time>
      </trkpt>
      <trkpt lat="45.81157" lon="1.93195">
        <ele>755.5</ele>
        <time>2026-07-07T10:00:23.000Z</time>
      </trkpt>
      <trkpt lat="45.81158" lon="1.93197">
        <ele>755.8</ele>
        <time>2026-07-07T10:00:24.000Z</time>
      </trkpt>
      <trkpt lat="45.81158" lon="1.93199">
        <ele>755.7</ele>
        <time>2026-07-07T10:00:25.000Z</time>
      </trkpt>
      <trkpt lat="45.81159" lon="1.93201">
        <ele>755.5</ele>
        <time>2026-07-07T10:00:26.000Z</time>
      </trkpt>
      <trkpt lat="45.81159" lon="1.93203">
        <ele>756.9</ele>
        <time>2026-07-07T10:00:27.000Z</time>
      </trkpt>
      <trkpt lat="45.81159" lon="1.93205">
        <ele>756.7</ele>
        <time>2026-07-07T10:00:28.000Z</time>
      </trkpt>
      <trkpt lat="45.81159" lon="1.93207">
        <ele>756.5</ele>
        <time>2026-07-07T10:00:29.000Z</time>
      </trkpt>
      <trkpt lat="45.81159" lon="1.9321">
        <ele>756.5</ele>
        <time>2026-07-07T10:00:30.000Z</time>
      </trkpt>
      <trkpt lat="45.81159" lon="1.93212">
        <ele>757.9</ele>
        <time>2026-07-07T10:00:31.000Z</time>
      </trkpt>
      <trkpt lat="45.81159" lon="1.93215">
        <ele>758.1</ele>
        <time>2026-07-07T10:00:32.000Z</time>
      </trkpt>
      <trkpt lat="45.81159" lon="1.93217">
        <ele>758</ele>
        <time>2026-07-07T10:00:33.000Z</time>
      </trkpt>
      <trkpt lat="45.81159" lon="1.93219">
        <ele>757.9</ele>
        <time>2026-07-07T10:00:34.000Z</time>
      </trkpt>
      <trkpt lat="45.81158" lon="1.93222">
        <ele>758.6</ele>
        <time>2026-07-07T10:00:35.000Z</time>
      </trkpt>
      <trkpt lat="45.81157" lon="1.93224">
        <ele>758.9</ele>
        <time>2026-07-07T10:00:36.000Z</time>
      </trkpt>
      <trkpt lat="45.81157" lon="1.93227">
        <ele>758.6</ele>
        <time>2026-07-07T10:00:37.000Z</time>
      </trkpt>
      <trkpt lat="45.81156" lon="1.93228">
        <ele>758.3</ele>
        <time>2026-07-07T10:00:38.000Z</time>
      </trkpt>
      <trkpt lat="45.81155" lon="1.93231">
        <ele>759.2</ele>
        <time>2026-07-07T10:00:39.000Z</time>
      </trkpt>
      <trkpt lat="45.81154" lon="1.93233">
        <ele>759.2</ele>
        <time>2026-07-07T10:00:40.000Z</time>
      </trkpt>
      <trkpt lat="45.81153" lon="1.93235">
        <ele>759.2</ele>
        <time>2026-07-07T10:00:41.000Z</time>
      </trkpt>
      <trkpt lat="45.81153" lon="1.93237">
        <ele>759.3</ele>
        <time>2026-07-07T10:00:42.000Z</time>
      </trkpt>
      <trkpt lat="45.81152" lon="1.93239">
        <ele>759.3</ele>
        <time>2026-07-07T10:00:43.000Z</time>
      </trkpt>
      <trkpt lat="45.81151" lon="1.93241">
        <ele>758.7</ele>
        <time>2026-07-07T10:00:44.000Z</time>
      </trkpt>
      <trkpt lat="45.8115" lon="1.93243">
        <ele>758.1</ele>
        <time>2026-07-07T10:00:45.000Z</time>
      </trkpt>
      <trkpt lat="45.81149" lon="1.93244">
        <ele>759.2</ele>
        <time>2026-07-07T10:00:46.000Z</time>
      </trkpt>
      <trkpt lat="45.81149" lon="1.93247">
        <ele>759.4</ele>
        <time>2026-07-07T10:00:47.000Z</time>
      </trkpt>
      <trkpt lat="45.81148" lon="1.93249">
        <ele>759.6</ele>
        <time>2026-07-07T10:00:48.000Z</time>
      </trkpt>
      <trkpt lat="45.81148" lon="1.93251">
        <ele>759.3</ele>
        <time>2026-07-07T10:00:49.000Z</time>
      </trkpt>
      <trkpt lat="45.81147" lon="1.93253">
        <ele>759.2</ele>
        <time>2026-07-07T10:00:50.000Z</time>
      </trkpt>
      <trkpt lat="45.81147" lon="1.93255">
        <ele>759.6</ele>
        <time>2026-07-07T10:00:51.000Z</time>
      </trkpt>
      <trkpt lat="45.81147" lon="1.93257">
        <ele>759.9</ele>
        <time>2026-07-07T10:00:52.000Z</time>
      </trkpt>
      <trkpt lat="45.81146" lon="1.93259">
        <ele>760.6</ele>
        <time>2026-07-07T10:00:53.000Z</time>
      </trkpt>
      <trkpt lat="45.81146" lon="1.93261">
        <ele>760.6</ele>
        <time>2026-07-07T10:00:54.000Z</time>
      </trkpt>
      <trkpt lat="45.81145" lon="1.93263">
        <ele>760.9</ele>
        <time>2026-07-07T10:00:55.000Z</time>
      </trkpt>
      <trkpt lat="45.81144" lon="1.93265">
        <ele>761.2</ele>
        <time>2026-07-07T10:00:56.000Z</time>
      </trkpt>
      <trkpt lat="45.81144" lon="1.93267">
        <ele>760.9</ele>
        <time>2026-07-07T10:00:57.000Z</time>
      </trkpt>
      <trkpt lat="45.81143" lon="1.93269">
        <ele>761.1</ele>
        <time>2026-07-07T10:00:58.000Z</time>
      </trkpt>
      <trkpt lat="45.81143" lon="1.93271">
        <ele>762</ele>
        <time>2026-07-07T10:00:59.000Z</time>
      </trkpt>
      <trkpt lat="45.81142" lon="1.93273">
        <ele>762.1</ele>
        <time>2026-07-07T10:01:00.000Z</time>
      </trkpt>
      <trkpt lat="45.81142" lon="1.93275">
        <ele>761.9</ele>
        <time>2026-07-07T10:01:01.000Z</time>
      </trkpt>
      <trkpt lat="45.81142" lon="1.93277">
        <ele>761.6</ele>
        <time>2026-07-07T10:01:02.000Z</time>
      </trkpt>
      <trkpt lat="45.81141" lon="1.93279">
        <ele>761.5</ele>
        <time>2026-07-07T10:01:03.000Z</time>
      </trkpt>
      <trkpt lat="45.81141" lon="1.93281">
        <ele>761.7</ele>
        <time>2026-07-07T10:01:04.000Z</time>
      </trkpt>
      <trkpt lat="45.81141" lon="1.93284">
        <ele>761.8</ele>
        <time>2026-07-07T10:01:05.000Z</time>
      </trkpt>
      <trkpt lat="45.8114" lon="1.93286">
        <ele>762</ele>
        <time>2026-07-07T10:01:06.000Z</time>
      </trkpt>
      <trkpt lat="45.8114" lon="1.93288">
        <ele>762.3</ele>
        <time>2026-07-07T10:01:07.000Z</time>
      </trkpt>
      <trkpt lat="45.81139" lon="1.93289">
        <ele>762.2</ele>
        <time>2026-07-07T10:01:08.000Z</time>
      </trkpt>
      <trkpt lat="45.81139" lon="1.93292">
        <ele>762.2</ele>
        <time>2026-07-07T10:01:09.000Z</time>
      </trkpt>
      <trkpt lat="45.81138" lon="1.93294">
        <ele>762.1</ele>
        <time>2026-07-07T10:01:10.000Z</time>
      </trkpt>
      <trkpt lat="45.81138" lon="1.93295">
        <ele>761.7</ele>
        <time>2026-07-07T10:01:11.000Z</time>
      </trkpt>
      <trkpt lat="45.81138" lon="1.93297">
        <ele>761.5</ele>
        <time>2026-07-07T10:01:12.000Z</time>
      </trkpt>
      <trkpt lat="45.81137" lon="1.93299">
        <ele>761.5</ele>
        <time>2026-07-07T10:01:13.000Z</time>
      </trkpt>
      <trkpt lat="45.81136" lon="1.93301">
        <ele>761.6</ele>
        <time>2026-07-07T10:01:14.000Z</time>
      </trkpt>
      <trkpt lat="45.81135" lon="1.93303">
        <ele>761.4</ele>
        <time>2026-07-07T10:01:15.000Z</time>
      </trkpt>
      <trkpt lat="45.81135" lon="1.93305">
        <ele>761</ele>
        <time>2026-07-07T10:01:16.000Z</time>
      </trkpt>
      <trkpt lat="45.81135" lon="1.93307">
        <ele>761.2</ele>
        <time>2026-07-07T10:01:17.000Z</time>
      </trkpt>
      <trkpt lat="45.81134" lon="1.93309">
        <ele>761.4</ele>
        <time>2026-07-07T10:01:18.000Z</time>
      </trkpt>
      <trkpt lat="45.81134" lon="1.93312">
        <ele>761.4</ele>
        <time>2026-07-07T10:01:19.000Z</time>
      </trkpt>
      <trkpt lat="45.81133" lon="1.93313">
        <ele>761.2</ele>
        <time>2026-07-07T10:01:20.000Z</time>
      </trkpt>
      <trkpt lat="45.81133" lon="1.93315">
        <ele>761.4</ele>
        <time>2026-07-07T10:01:21.000Z</time>
      </trkpt>
      <trkpt lat="45.81133" lon="1.93318">
        <ele>761.2</ele>
        <time>2026-07-07T10:01:22.000Z</time>
      </trkpt>
      <trkpt lat="45.81132" lon="1.9332">
        <ele>761.4</ele>
        <time>2026-07-07T10:01:23.000Z</time>
      </trkpt>
      <trkpt lat="45.81132" lon="1.93322">
        <ele>761.5</ele>
        <time>2026-07-07T10:01:24.000Z</time>
      </trkpt>
      <trkpt lat="45.81131" lon="1.93324">
        <ele>761.5</ele>
        <time>2026-07-07T10:01:25.000Z</time>
      </trkpt>
      <trkpt lat="45.81131" lon="1.93326">
        <ele>761.2</ele>
        <time>2026-07-07T10:01:26.000Z</time>
      </trkpt>
      <trkpt lat="45.81131" lon="1.93328">
        <ele>761.3</ele>
        <time>2026-07-07T10:01:27.000Z</time>
      </trkpt>
      <trkpt lat="45.8113" lon="1.9333">
        <ele>761.8</ele>
        <time>2026-07-07T10:01:28.000Z</time>
      </trkpt>
      <trkpt lat="45.81129" lon="1.93332">
        <ele>761.4</ele>
        <time>2026-07-07T10:01:29.000Z</time>
      </trkpt>
      <trkpt lat="45.81129" lon="1.93334">
        <ele>761.5</ele>
        <time>2026-07-07T10:01:30.000Z</time>
      </trkpt>
      <trkpt lat="45.81128" lon="1.93336">
        <ele>761.5</ele>
        <time>2026-07-07T10:01:31.000Z</time>
      </trkpt>
      <trkpt lat="45.81128" lon="1.93338">
        <ele>761.5</ele>
        <time>2026-07-07T10:01:32.000Z</time>
      </trkpt>
      <trkpt lat="45.81128" lon="1.9334">
        <ele>761.5</ele>
        <time>2026-07-07T10:01:33.000Z</time>
      </trkpt>
      <trkpt lat="45.81128" lon="1.93342">
        <ele>762</ele>
        <time>2026-07-07T10:01:34.000Z</time>
      </trkpt>
      <trkpt lat="45.81128" lon="1.93344">
        <ele>762.2</ele>
        <time>2026-07-07T10:01:35.000Z</time>
      </trkpt>
      <trkpt lat="45.81127" lon="1.93346">
        <ele>762.1</ele>
        <time>2026-07-07T10:01:36.000Z</time>
      </trkpt>
      <trkpt lat="45.81127" lon="1.93348">
        <ele>762.2</ele>
        <time>2026-07-07T10:01:37.000Z</time>
      </trkpt>
      <trkpt lat="45.81128" lon="1.9335">
        <ele>762.9</ele>
        <time>2026-07-07T10:01:38.000Z</time>
      </trkpt>
      <trkpt lat="45.81128" lon="1.93352">
        <ele>763.4</ele>
        <time>2026-07-07T10:01:39.000Z</time>
      </trkpt>
      <trkpt lat="45.81129" lon="1.93354">
        <ele>763.3</ele>
        <time>2026-07-07T10:01:40.000Z</time>
      </trkpt>
      <trkpt lat="45.8113" lon="1.93356">
        <ele>762.9</ele>
        <time>2026-07-07T10:01:41.000Z</time>
      </trkpt>
      <trkpt lat="45.81131" lon="1.93357">
        <ele>764</ele>
        <time>2026-07-07T10:01:42.000Z</time>
      </trkpt>
      <trkpt lat="45.81133" lon="1.93358">
        <ele>763.5</ele>
        <time>2026-07-07T10:01:43.000Z</time>
      </trkpt>
      <trkpt lat="45.81134" lon="1.93358">
        <ele>763.3</ele>
        <time>2026-07-07T10:01:44.000Z</time>
      </trkpt>
      <trkpt lat="45.81137" lon="1.93358">
        <ele>764.3</ele>
        <time>2026-07-07T10:01:45.000Z</time>
      </trkpt>
      <trkpt lat="45.8114" lon="1.93357">
        <ele>764.7</ele>
        <time>2026-07-07T10:01:46.000Z</time>
      </trkpt>
      <trkpt lat="45.81142" lon="1.93358">
        <ele>764.6</ele>
        <time>2026-07-07T10:01:47.000Z</time>
      </trkpt>
      <trkpt lat="45.81144" lon="1.93358">
        <ele>764.1</ele>
        <time>2026-07-07T10:01:48.000Z</time>
      </trkpt>
      <trkpt lat="45.81145" lon="1.93358">
        <ele>764.1</ele>
        <time>2026-07-07T10:01:49.000Z</time>
      </trkpt>
      <trkpt lat="45.81147" lon="1.93361">
        <ele>766</ele>
        <time>2026-07-07T10:01:50.000Z</time>
      </trkpt>
      <trkpt lat="45.81148" lon="1.93362">
        <ele>767.1</ele>
        <time>2026-07-07T10:01:51.000Z</time>
      </trkpt>
      <trkpt lat="45.81149" lon="1.93364">
        <ele>768</ele>
        <time>2026-07-07T10:01:52.000Z</time>
      </trkpt>
      <trkpt lat="45.8115" lon="1.93365">
        <ele>768.9</ele>
        <time>2026-07-07T10:01:53.000Z</time>
      </trkpt>
      <trkpt lat="45.81152" lon="1.93367">
        <ele>769.5</ele>
        <time>2026-07-07T10:01:54.000Z</time>
      </trkpt>
      <trkpt lat="45.81153" lon="1.93368">
        <ele>770.6</ele>
        <time>2026-07-07T10:01:55.000Z</time>
      </trkpt>
      <trkpt lat="45.81154" lon="1.93369">
        <ele>771.3</ele>
        <time>2026-07-07T10:01:56.000Z</time>
      </trkpt>
      <trkpt lat="45.81155" lon="1.9337">
        <ele>771.6</ele>
        <time>2026-07-07T10:01:57.000Z</time>
      </trkpt>
      <trkpt lat="45.81157" lon="1.9337">
        <ele>771.9</ele>
        <time>2026-07-07T10:01:58.000Z</time>
      </trkpt>
      <trkpt lat="45.81159" lon="1.93371">
        <ele>772.4</ele>
        <time>2026-07-07T10:01:59.000Z</time>
      </trkpt>
      <trkpt lat="45.81161" lon="1.93371">
        <ele>771.6</ele>
        <time>2026-07-07T10:02:00.000Z</time>
      </trkpt>
      <trkpt lat="45.81163" lon="1.9337">
        <ele>771.4</ele>
        <time>2026-07-07T10:02:01.000Z</time>
      </trkpt>
      <trkpt lat="45.81166" lon="1.93369">
        <ele>770.7</ele>
        <time>2026-07-07T10:02:02.000Z</time>
      </trkpt>
      <trkpt lat="45.81168" lon="1.93368">
        <ele>770.1</ele>
        <time>2026-07-07T10:02:03.000Z</time>
      </trkpt>
      <trkpt lat="45.8117" lon="1.93367">
        <ele>769.8</ele>
        <time>2026-07-07T10:02:04.000Z</time>
      </trkpt>
      <trkpt lat="45.81173" lon="1.93368">
        <ele>769.9</ele>
        <time>2026-07-07T10:02:05.000Z</time>
      </trkpt>
      <trkpt lat="45.81175" lon="1.93368">
        <ele>769.8</ele>
        <time>2026-07-07T10:02:06.000Z</time>
      </trkpt>
      <trkpt lat="45.81177" lon="1.93369">
        <ele>770</ele>
        <time>2026-07-07T10:02:07.000Z</time>
      </trkpt>
      <trkpt lat="45.81178" lon="1.93369">
        <ele>770</ele>
        <time>2026-07-07T10:02:08.000Z</time>
      </trkpt>
      <trkpt lat="45.8118" lon="1.93368">
        <ele>767.9</ele>
        <time>2026-07-07T10:02:09.000Z</time>
      </trkpt>
      <trkpt lat="45.81181" lon="1.93366">
        <ele>767.2</ele>
        <time>2026-07-07T10:02:10.000Z</time>
      </trkpt>
      <trkpt lat="45.81183" lon="1.93365">
        <ele>766.9</ele>
        <time>2026-07-07T10:02:11.000Z</time>
      </trkpt>
      <trkpt lat="45.81184" lon="1.93364">
        <ele>767.2</ele>
        <time>2026-07-07T10:02:12.000Z</time>
      </trkpt>
      <trkpt lat="45.81186" lon="1.93363">
        <ele>766.8</ele>
        <time>2026-07-07T10:02:13.000Z</time>
      </trkpt>
      <trkpt lat="45.81187" lon="1.93362">
        <ele>766.1</ele>
        <time>2026-07-07T10:02:14.000Z</time>
      </trkpt>
      <trkpt lat="45.81189" lon="1.93362">
        <ele>766.2</ele>
        <time>2026-07-07T10:02:15.000Z</time>
      </trkpt>
      <trkpt lat="45.8119" lon="1.93362">
        <ele>766.2</ele>
        <time>2026-07-07T10:02:16.000Z</time>
      </trkpt>
      <trkpt lat="45.81193" lon="1.93364">
        <ele>766.2</ele>
        <time>2026-07-07T10:02:17.000Z</time>
      </trkpt>
      <trkpt lat="45.81196" lon="1.93365">
        <ele>766.2</ele>
        <time>2026-07-07T10:02:18.000Z</time>
      </trkpt>
      <trkpt lat="45.81198" lon="1.93366">
        <ele>765.6</ele>
        <time>2026-07-07T10:02:19.000Z</time>
      </trkpt>
      <trkpt lat="45.812" lon="1.93368">
        <ele>766.2</ele>
        <time>2026-07-07T10:02:20.000Z</time>
      </trkpt>
      <trkpt lat="45.81202" lon="1.93369">
        <ele>766.6</ele>
        <time>2026-07-07T10:02:21.000Z</time>
      </trkpt>
      <trkpt lat="45.81203" lon="1.93368">
        <ele>767.2</ele>
        <time>2026-07-07T10:02:22.000Z</time>
      </trkpt>
      <trkpt lat="45.81204" lon="1.93368">
        <ele>767.5</ele>
        <time>2026-07-07T10:02:23.000Z</time>
      </trkpt>
      <trkpt lat="45.81205" lon="1.93368">
        <ele>768</ele>
        <time>2026-07-07T10:02:24.000Z</time>
      </trkpt>
      <trkpt lat="45.81206" lon="1.93368">
        <ele>768.1</ele>
        <time>2026-07-07T10:02:25.000Z</time>
      </trkpt>
      <trkpt lat="45.81208" lon="1.93368">
        <ele>767.7</ele>
        <time>2026-07-07T10:02:26.000Z</time>
      </trkpt>
      <trkpt lat="45.81209" lon="1.93367">
        <ele>767.6</ele>
        <time>2026-07-07T10:02:27.000Z</time>
      </trkpt>
      <trkpt lat="45.8121" lon="1.93367">
        <ele>768</ele>
        <time>2026-07-07T10:02:28.000Z</time>
      </trkpt>
      <trkpt lat="45.81211" lon="1.93368">
        <ele>767.9</ele>
        <time>2026-07-07T10:02:29.000Z</time>
      </trkpt>
      <trkpt lat="45.81213" lon="1.93368">
        <ele>768.1</ele>
        <time>2026-07-07T10:02:30.000Z</time>
      </trkpt>
      <trkpt lat="45.81215" lon="1.93369">
        <ele>768</ele>
        <time>2026-07-07T10:02:31.000Z</time>
      </trkpt>
      <trkpt lat="45.81216" lon="1.93369">
        <ele>768.4</ele>
        <time>2026-07-07T10:02:32.000Z</time>
      </trkpt>
      <trkpt lat="45.81218" lon="1.93368">
        <ele>767.4</ele>
        <time>2026-07-07T10:02:33.000Z</time>
      </trkpt>
      <trkpt lat="45.81221" lon="1.93366">
        <ele>766.9</ele>
        <time>2026-07-07T10:02:34.000Z</time>
      </trkpt>
      <trkpt lat="45.81224" lon="1.93365">
        <ele>765.1</ele>
        <time>2026-07-07T10:02:35.000Z</time>
      </trkpt>
      <trkpt lat="45.81225" lon="1.93364">
        <ele>765</ele>
        <time>2026-07-07T10:02:36.000Z</time>
      </trkpt>
      <trkpt lat="45.81227" lon="1.93363">
        <ele>763.3</ele>
        <time>2026-07-07T10:02:37.000Z</time>
      </trkpt>
      <trkpt lat="45.81229" lon="1.93363">
        <ele>763.1</ele>
        <time>2026-07-07T10:02:38.000Z</time>
      </trkpt>
      <trkpt lat="45.8123" lon="1.93362">
        <ele>762</ele>
        <time>2026-07-07T10:02:39.000Z</time>
      </trkpt>
      <trkpt lat="45.81232" lon="1.93361">
        <ele>761.4</ele>
        <time>2026-07-07T10:02:40.000Z</time>
      </trkpt>
      <trkpt lat="45.81234" lon="1.93361">
        <ele>760.9</ele>
        <time>2026-07-07T10:02:41.000Z</time>
      </trkpt>
      <trkpt lat="45.81236" lon="1.93361">
        <ele>760.9</ele>
        <time>2026-07-07T10:02:42.000Z</time>
      </trkpt>
      <trkpt lat="45.81238" lon="1.9336">
        <ele>761.2</ele>
        <time>2026-07-07T10:02:43.000Z</time>
      </trkpt>
      <trkpt lat="45.8124" lon="1.9336">
        <ele>761</ele>
        <time>2026-07-07T10:02:44.000Z</time>
      </trkpt>
      <trkpt lat="45.81242" lon="1.93359">
        <ele>761.6</ele>
        <time>2026-07-07T10:02:45.000Z</time>
      </trkpt>
      <trkpt lat="45.81243" lon="1.93359">
        <ele>762</ele>
        <time>2026-07-07T10:02:46.000Z</time>
      </trkpt>
      <trkpt lat="45.81245" lon="1.93359">
        <ele>762.4</ele>
        <time>2026-07-07T10:02:47.000Z</time>
      </trkpt>
      <trkpt lat="45.81247" lon="1.93358">
        <ele>762.7</ele>
        <time>2026-07-07T10:02:48.000Z</time>
      </trkpt>
      <trkpt lat="45.81249" lon="1.93358">
        <ele>762.9</ele>
        <time>2026-07-07T10:02:49.000Z</time>
      </trkpt>
      <trkpt lat="45.81251" lon="1.93357">
        <ele>763</ele>
        <time>2026-07-07T10:02:50.000Z</time>
      </trkpt>
      <trkpt lat="45.81253" lon="1.93357">
        <ele>763.2</ele>
        <time>2026-07-07T10:02:51.000Z</time>
      </trkpt>
      <trkpt lat="45.81254" lon="1.93356">
        <ele>763.3</ele>
        <time>2026-07-07T10:02:52.000Z</time>
      </trkpt>
      <trkpt lat="45.81256" lon="1.93356">
        <ele>763.3</ele>
        <time>2026-07-07T10:02:53.000Z</time>
      </trkpt>
      <trkpt lat="45.81258" lon="1.93355">
        <ele>763.5</ele>
        <time>2026-07-07T10:02:54.000Z</time>
      </trkpt>
      <trkpt lat="45.81259" lon="1.93354">
        <ele>763.5</ele>
        <time>2026-07-07T10:02:55.000Z</time>
      </trkpt>
      <trkpt lat="45.81261" lon="1.93354">
        <ele>763.3</ele>
        <time>2026-07-07T10:02:56.000Z</time>
      </trkpt>
      <trkpt lat="45.81263" lon="1.93353">
        <ele>763.1</ele>
        <time>2026-07-07T10:02:57.000Z</time>
      </trkpt>
      <trkpt lat="45.81264" lon="1.93353">
        <ele>763.2</ele>
        <time>2026-07-07T10:02:58.000Z</time>
      </trkpt>
      <trkpt lat="45.81266" lon="1.93352">
        <ele>763.2</ele>
        <time>2026-07-07T10:02:59.000Z</time>
      </trkpt>
      <trkpt lat="45.81268" lon="1.93352">
        <ele>763.2</ele>
        <time>2026-07-07T10:03:00.000Z</time>
      </trkpt>
      <trkpt lat="45.81269" lon="1.93351">
        <ele>763.2</ele>
        <time>2026-07-07T10:03:01.000Z</time>
      </trkpt>
      <trkpt lat="45.81271" lon="1.9335">
        <ele>763</ele>
        <time>2026-07-07T10:03:02.000Z</time>
      </trkpt>
      <trkpt lat="45.81272" lon="1.9335">
        <ele>762.9</ele>
        <time>2026-07-07T10:03:03.000Z</time>
      </trkpt>
      <trkpt lat="45.81274" lon="1.93349">
        <ele>762.8</ele>
        <time>2026-07-07T10:03:04.000Z</time>
      </trkpt>
      <trkpt lat="45.81276" lon="1.93349">
        <ele>762.8</ele>
        <time>2026-07-07T10:03:05.000Z</time>
      </trkpt>
      <trkpt lat="45.81277" lon="1.93348">
        <ele>762.6</ele>
        <time>2026-07-07T10:03:06.000Z</time>
      </trkpt>
      <trkpt lat="45.81279" lon="1.93348">
        <ele>762.8</ele>
        <time>2026-07-07T10:03:07.000Z</time>
      </trkpt>
      <trkpt lat="45.8128" lon="1.93347">
        <ele>762.9</ele>
        <time>2026-07-07T10:03:08.000Z</time>
      </trkpt>
      <trkpt lat="45.81282" lon="1.93346">
        <ele>762.5</ele>
        <time>2026-07-07T10:03:09.000Z</time>
      </trkpt>
      <trkpt lat="45.81284" lon="1.93346">
        <ele>762.5</ele>
        <time>2026-07-07T10:03:10.000Z</time>
      </trkpt>
      <trkpt lat="45.81286" lon="1.93345">
        <ele>762.7</ele>
        <time>2026-07-07T10:03:11.000Z</time>
      </trkpt>
      <trkpt lat="45.81288" lon="1.93344">
        <ele>762.4</ele>
        <time>2026-07-07T10:03:12.000Z</time>
      </trkpt>
      <trkpt lat="45.8129" lon="1.93343">
        <ele>762.2</ele>
        <time>2026-07-07T10:03:13.000Z</time>
      </trkpt>
      <trkpt lat="45.81292" lon="1.93342">
        <ele>762</ele>
        <time>2026-07-07T10:03:14.000Z</time>
      </trkpt>
      <trkpt lat="45.81294" lon="1.93341">
        <ele>762.1</ele>
        <time>2026-07-07T10:03:15.000Z</time>
      </trkpt>
      <trkpt lat="45.81296" lon="1.93339">
        <ele>762.9</ele>
        <time>2026-07-07T10:03:16.000Z</time>
      </trkpt>
      <trkpt lat="45.81298" lon="1.93338">
        <ele>762.9</ele>
        <time>2026-07-07T10:03:17.000Z</time>
      </trkpt>
      <trkpt lat="45.813" lon="1.93337">
        <ele>763.1</ele>
        <time>2026-07-07T10:03:18.000Z</time>
      </trkpt>
      <trkpt lat="45.81302" lon="1.93336">
        <ele>763.4</ele>
        <time>2026-07-07T10:03:19.000Z</time>
      </trkpt>
      <trkpt lat="45.81304" lon="1.93335">
        <ele>763.1</ele>
        <time>2026-07-07T10:03:20.000Z</time>
      </trkpt>
      <trkpt lat="45.81305" lon="1.93333">
        <ele>763.5</ele>
        <time>2026-07-07T10:03:21.000Z</time>
      </trkpt>
      <trkpt lat="45.81307" lon="1.93332">
        <ele>763.4</ele>
        <time>2026-07-07T10:03:22.000Z</time>
      </trkpt>
      <trkpt lat="45.81309" lon="1.93331">
        <ele>763.9</ele>
        <time>2026-07-07T10:03:23.000Z</time>
      </trkpt>
      <trkpt lat="45.81311" lon="1.9333">
        <ele>763.9</ele>
        <time>2026-07-07T10:03:24.000Z</time>
      </trkpt>
      <trkpt lat="45.81313" lon="1.93329">
        <ele>763.7</ele>
        <time>2026-07-07T10:03:25.000Z</time>
      </trkpt>
      <trkpt lat="45.81314" lon="1.93327">
        <ele>763.8</ele>
        <time>2026-07-07T10:03:26.000Z</time>
      </trkpt>
      <trkpt lat="45.81316" lon="1.93326">
        <ele>763.7</ele>
        <time>2026-07-07T10:03:27.000Z</time>
      </trkpt>
      <trkpt lat="45.81318" lon="1.93324">
        <ele>763.6</ele>
        <time>2026-07-07T10:03:28.000Z</time>
      </trkpt>
      <trkpt lat="45.8132" lon="1.93323">
        <ele>763.4</ele>
        <time>2026-07-07T10:03:29.000Z</time>
      </trkpt>
      <trkpt lat="45.81322" lon="1.93322">
        <ele>763.4</ele>
        <time>2026-07-07T10:03:30.000Z</time>
      </trkpt>
      <trkpt lat="45.81323" lon="1.9332">
        <ele>763.4</ele>
        <time>2026-07-07T10:03:31.000Z</time>
      </trkpt>
      <trkpt lat="45.81324" lon="1.93319">
        <ele>763.1</ele>
        <time>2026-07-07T10:03:32.000Z</time>
      </trkpt>
      <trkpt lat="45.81326" lon="1.93318">
        <ele>763</ele>
        <time>2026-07-07T10:03:33.000Z</time>
      </trkpt>
      <trkpt lat="45.81327" lon="1.93316">
        <ele>762.7</ele>
        <time>2026-07-07T10:03:34.000Z</time>
      </trkpt>
      <trkpt lat="45.81329" lon="1.93315">
        <ele>762.9</ele>
        <time>2026-07-07T10:03:35.000Z</time>
      </trkpt>
      <trkpt lat="45.8133" lon="1.93314">
        <ele>763</ele>
        <time>2026-07-07T10:03:36.000Z</time>
      </trkpt>
      <trkpt lat="45.81331" lon="1.93312">
        <ele>762.7</ele>
        <time>2026-07-07T10:03:37.000Z</time>
      </trkpt>
      <trkpt lat="45.81333" lon="1.93311">
        <ele>762.7</ele>
        <time>2026-07-07T10:03:38.000Z</time>
      </trkpt>
      <trkpt lat="45.81334" lon="1.93309">
        <ele>762.9</ele>
        <time>2026-07-07T10:03:39.000Z</time>
      </trkpt>
      <trkpt lat="45.81336" lon="1.93308">
        <ele>763</ele>
        <time>2026-07-07T10:03:40.000Z</time>
      </trkpt>
      <trkpt lat="45.81337" lon="1.93306">
        <ele>763.1</ele>
        <time>2026-07-07T10:03:41.000Z</time>
      </trkpt>
      <trkpt lat="45.81339" lon="1.93304">
        <ele>763.1</ele>
        <time>2026-07-07T10:03:42.000Z</time>
      </trkpt>
      <trkpt lat="45.8134" lon="1.93303">
        <ele>762.9</ele>
        <time>2026-07-07T10:03:43.000Z</time>
      </trkpt>
      <trkpt lat="45.81342" lon="1.93301">
        <ele>762.8</ele>
        <time>2026-07-07T10:03:44.000Z</time>
      </trkpt>
      <trkpt lat="45.81344" lon="1.93299">
        <ele>762.7</ele>
        <time>2026-07-07T10:03:45.000Z</time>
      </trkpt>
      <trkpt lat="45.81345" lon="1.93298">
        <ele>762.4</ele>
        <time>2026-07-07T10:03:46.000Z</time>
      </trkpt>
      <trkpt lat="45.81346" lon="1.93296">
        <ele>762.5</ele>
        <time>2026-07-07T10:03:47.000Z</time>
      </trkpt>
      <trkpt lat="45.81347" lon="1.93294">
        <ele>762.4</ele>
        <time>2026-07-07T10:03:48.000Z</time>
      </trkpt>
      <trkpt lat="45.81348" lon="1.93293">
        <ele>762</ele>
        <time>2026-07-07T10:03:49.000Z</time>
      </trkpt>
      <trkpt lat="45.81349" lon="1.93291">
        <ele>762.1</ele>
        <time>2026-07-07T10:03:50.000Z</time>
      </trkpt>
      <trkpt lat="45.8135" lon="1.9329">
        <ele>762.1</ele>
        <time>2026-07-07T10:03:51.000Z</time>
      </trkpt>
      <trkpt lat="45.81351" lon="1.93288">
        <ele>761.8</ele>
        <time>2026-07-07T10:03:52.000Z</time>
      </trkpt>
      <trkpt lat="45.81352" lon="1.93286">
        <ele>761.6</ele>
        <time>2026-07-07T10:03:53.000Z</time>
      </trkpt>
      <trkpt lat="45.81353" lon="1.93285">
        <ele>761.7</ele>
        <time>2026-07-07T10:03:54.000Z</time>
      </trkpt>
      <trkpt lat="45.81354" lon="1.93283">
        <ele>761.7</ele>
        <time>2026-07-07T10:03:55.000Z</time>
      </trkpt>
      <trkpt lat="45.81355" lon="1.93281">
        <ele>761.7</ele>
        <time>2026-07-07T10:03:56.000Z</time>
      </trkpt>
      <trkpt lat="45.81356" lon="1.93279">
        <ele>761.7</ele>
        <time>2026-07-07T10:03:57.000Z</time>
      </trkpt>
      <trkpt lat="45.81357" lon="1.93277">
        <ele>761.7</ele>
        <time>2026-07-07T10:03:58.000Z</time>
      </trkpt>
      <trkpt lat="45.81358" lon="1.93276">
        <ele>761.6</ele>
        <time>2026-07-07T10:03:59.000Z</time>
      </trkpt>
      <trkpt lat="45.8136" lon="1.93274">
        <ele>761.5</ele>
        <time>2026-07-07T10:04:00.000Z</time>
      </trkpt>
      <trkpt lat="45.81361" lon="1.93272">
        <ele>761.8</ele>
        <time>2026-07-07T10:04:01.000Z</time>
      </trkpt>
      <trkpt lat="45.81362" lon="1.9327">
        <ele>761.6</ele>
        <time>2026-07-07T10:04:02.000Z</time>
      </trkpt>
      <trkpt lat="45.81363" lon="1.93268">
        <ele>761.5</ele>
        <time>2026-07-07T10:04:03.000Z</time>
      </trkpt>
      <trkpt lat="45.81365" lon="1.93265">
        <ele>761.6</ele>
        <time>2026-07-07T10:04:04.000Z</time>
      </trkpt>
      <trkpt lat="45.81367" lon="1.93262">
        <ele>761.5</ele>
        <time>2026-07-07T10:04:05.000Z</time>
      </trkpt>
      <trkpt lat="45.81368" lon="1.93259">
        <ele>761.6</ele>
        <time>2026-07-07T10:04:06.000Z</time>
      </trkpt>
      <trkpt lat="45.8137" lon="1.93257">
        <ele>761.6</ele>
        <time>2026-07-07T10:04:07.000Z</time>
      </trkpt>
      <trkpt lat="45.81372" lon="1.93255">
        <ele>761.5</ele>
        <time>2026-07-07T10:04:08.000Z</time>
      </trkpt>
      <trkpt lat="45.81373" lon="1.93252">
        <ele>761.4</ele>
        <time>2026-07-07T10:04:09.000Z</time>
      </trkpt>
      <trkpt lat="45.81374" lon="1.9325">
        <ele>761.7</ele>
        <time>2026-07-07T10:04:10.000Z</time>
      </trkpt>
      <trkpt lat="45.81376" lon="1.93247">
        <ele>761.4</ele>
        <time>2026-07-07T10:04:11.000Z</time>
      </trkpt>
      <trkpt lat="45.81378" lon="1.93245">
        <ele>761.4</ele>
        <time>2026-07-07T10:04:12.000Z</time>
      </trkpt>
      <trkpt lat="45.81379" lon="1.93242">
        <ele>761.4</ele>
        <time>2026-07-07T10:04:13.000Z</time>
      </trkpt>
      <trkpt lat="45.8138" lon="1.9324">
        <ele>761.2</ele>
        <time>2026-07-07T10:04:14.000Z</time>
      </trkpt>
      <trkpt lat="45.81381" lon="1.93238">
        <ele>761.2</ele>
        <time>2026-07-07T10:04:15.000Z</time>
      </trkpt>
      <trkpt lat="45.81383" lon="1.93236">
        <ele>760.9</ele>
        <time>2026-07-07T10:04:16.000Z</time>
      </trkpt>
      <trkpt lat="45.81384" lon="1.93233">
        <ele>761</ele>
        <time>2026-07-07T10:04:17.000Z</time>
      </trkpt>
      <trkpt lat="45.81386" lon="1.93231">
        <ele>760.9</ele>
        <time>2026-07-07T10:04:18.000Z</time>
      </trkpt>
      <trkpt lat="45.81387" lon="1.93229">
        <ele>760.9</ele>
        <time>2026-07-07T10:04:19.000Z</time>
      </trkpt>
      <trkpt lat="45.81389" lon="1.93227">
        <ele>760.9</ele>
        <time>2026-07-07T10:04:20.000Z</time>
      </trkpt>
      <trkpt lat="45.8139" lon="1.93225">
        <ele>761</ele>
        <time>2026-07-07T10:04:21.000Z</time>
      </trkpt>
      <trkpt lat="45.81392" lon="1.93224">
        <ele>760.9</ele>
        <time>2026-07-07T10:04:22.000Z</time>
      </trkpt>
      <trkpt lat="45.81394" lon="1.93223">
        <ele>760.9</ele>
        <time>2026-07-07T10:04:23.000Z</time>
      </trkpt>
      <trkpt lat="45.81395" lon="1.93222">
        <ele>760.7</ele>
        <time>2026-07-07T10:04:24.000Z</time>
      </trkpt>
      <trkpt lat="45.81397" lon="1.93222">
        <ele>761</ele>
        <time>2026-07-07T10:04:25.000Z</time>
      </trkpt>
      <trkpt lat="45.81398" lon="1.93221">
        <ele>760.7</ele>
        <time>2026-07-07T10:04:26.000Z</time>
      </trkpt>
      <trkpt lat="45.814" lon="1.93221">
        <ele>760.9</ele>
        <time>2026-07-07T10:04:27.000Z</time>
      </trkpt>
      <trkpt lat="45.81402" lon="1.9322">
        <ele>761</ele>
        <time>2026-07-07T10:04:28.000Z</time>
      </trkpt>
      <trkpt lat="45.81403" lon="1.9322">
        <ele>761</ele>
        <time>2026-07-07T10:04:29.000Z</time>
      </trkpt>
      <trkpt lat="45.81405" lon="1.93221">
        <ele>760.9</ele>
        <time>2026-07-07T10:04:30.000Z</time>
      </trkpt>
      <trkpt lat="45.81407" lon="1.93221">
        <ele>760.8</ele>
        <time>2026-07-07T10:04:31.000Z</time>
      </trkpt>
      <trkpt lat="45.81408" lon="1.93222">
        <ele>760.8</ele>
        <time>2026-07-07T10:04:32.000Z</time>
      </trkpt>
      <trkpt lat="45.81409" lon="1.93222">
        <ele>760.9</ele>
        <time>2026-07-07T10:04:33.000Z</time>
      </trkpt>
      <trkpt lat="45.81411" lon="1.93223">
        <ele>760.7</ele>
        <time>2026-07-07T10:04:34.000Z</time>
      </trkpt>
      <trkpt lat="45.81412" lon="1.93223">
        <ele>760.7</ele>
        <time>2026-07-07T10:04:35.000Z</time>
      </trkpt>
      <trkpt lat="45.81414" lon="1.93224">
        <ele>760.7</ele>
        <time>2026-07-07T10:04:36.000Z</time>
      </trkpt>
      <trkpt lat="45.81415" lon="1.93224">
        <ele>760.5</ele>
        <time>2026-07-07T10:04:37.000Z</time>
      </trkpt>
      <trkpt lat="45.81417" lon="1.93225">
        <ele>760.4</ele>
        <time>2026-07-07T10:04:38.000Z</time>
      </trkpt>
      <trkpt lat="45.81418" lon="1.93226">
        <ele>760.5</ele>
        <time>2026-07-07T10:04:39.000Z</time>
      </trkpt>
      <trkpt lat="45.81419" lon="1.93227">
        <ele>760.5</ele>
        <time>2026-07-07T10:04:40.000Z</time>
      </trkpt>
      <trkpt lat="45.81421" lon="1.93228">
        <ele>760.4</ele>
        <time>2026-07-07T10:04:41.000Z</time>
      </trkpt>
      <trkpt lat="45.81422" lon="1.93228">
        <ele>760.4</ele>
        <time>2026-07-07T10:04:42.000Z</time>
      </trkpt>
      <trkpt lat="45.81424" lon="1.93229">
        <ele>760.5</ele>
        <time>2026-07-07T10:04:43.000Z</time>
      </trkpt>
      <trkpt lat="45.81425" lon="1.93231">
        <ele>760.4</ele>
        <time>2026-07-07T10:04:44.000Z</time>
      </trkpt>
      <trkpt lat="45.81426" lon="1.93232">
        <ele>760.5</ele>
        <time>2026-07-07T10:04:45.000Z</time>
      </trkpt>
      <trkpt lat="45.81427" lon="1.93233">
        <ele>760.2</ele>
        <time>2026-07-07T10:04:46.000Z</time>
      </trkpt>
      <trkpt lat="45.81429" lon="1.93234">
        <ele>760.2</ele>
        <time>2026-07-07T10:04:47.000Z</time>
      </trkpt>
      <trkpt lat="45.8143" lon="1.93235">
        <ele>760</ele>
        <time>2026-07-07T10:04:48.000Z</time>
      </trkpt>
      <trkpt lat="45.81431" lon="1.93237">
        <ele>759.9</ele>
        <time>2026-07-07T10:04:49.000Z</time>
      </trkpt>
      <trkpt lat="45.81432" lon="1.93238">
        <ele>759.7</ele>
        <time>2026-07-07T10:04:50.000Z</time>
      </trkpt>
      <trkpt lat="45.81434" lon="1.93239">
        <ele>759.6</ele>
        <time>2026-07-07T10:04:51.000Z</time>
      </trkpt>
      <trkpt lat="45.81435" lon="1.9324">
        <ele>759.4</ele>
        <time>2026-07-07T10:04:52.000Z</time>
      </trkpt>
      <trkpt lat="45.81436" lon="1.93242">
        <ele>759.4</ele>
        <time>2026-07-07T10:04:53.000Z</time>
      </trkpt>
      <trkpt lat="45.81437" lon="1.93243">
        <ele>759.2</ele>
        <time>2026-07-07T10:04:54.000Z</time>
      </trkpt>
      <trkpt lat="45.81439" lon="1.93244">
        <ele>759.5</ele>
        <time>2026-07-07T10:04:55.000Z</time>
      </trkpt>
      <trkpt lat="45.8144" lon="1.93245">
        <ele>759.4</ele>
        <time>2026-07-07T10:04:56.000Z</time>
      </trkpt>
      <trkpt lat="45.81441" lon="1.93247">
        <ele>759.6</ele>
        <time>2026-07-07T10:04:57.000Z</time>
      </trkpt>
      <trkpt lat="45.81442" lon="1.93248">
        <ele>759.7</ele>
        <time>2026-07-07T10:04:58.000Z</time>
      </trkpt>
      <trkpt lat="45.81444" lon="1.93249">
        <ele>759.8</ele>
        <time>2026-07-07T10:04:59.000Z</time>
      </trkpt>
      <trkpt lat="45.81445" lon="1.9325">
        <ele>759.9</ele>
        <time>2026-07-07T10:05:00.000Z</time>
      </trkpt>
      <trkpt lat="45.81446" lon="1.93252">
        <ele>759.7</ele>
        <time>2026-07-07T10:05:01.000Z</time>
      </trkpt>
      <trkpt lat="45.81447" lon="1.93253">
        <ele>759.9</ele>
        <time>2026-07-07T10:05:02.000Z</time>
      </trkpt>
      <trkpt lat="45.81448" lon="1.93254">
        <ele>759.9</ele>
        <time>2026-07-07T10:05:03.000Z</time>
      </trkpt>
      <trkpt lat="45.8145" lon="1.93255">
        <ele>759.9</ele>
        <time>2026-07-07T10:05:04.000Z</time>
      </trkpt>
      <trkpt lat="45.81451" lon="1.93257">
        <ele>759.7</ele>
        <time>2026-07-07T10:05:05.000Z</time>
      </trkpt>
      <trkpt lat="45.81452" lon="1.93258">
        <ele>759.8</ele>
        <time>2026-07-07T10:05:06.000Z</time>
      </trkpt>
      <trkpt lat="45.81454" lon="1.93259">
        <ele>759.7</ele>
        <time>2026-07-07T10:05:07.000Z</time>
      </trkpt>
      <trkpt lat="45.81455" lon="1.93261">
        <ele>759.8</ele>
        <time>2026-07-07T10:05:08.000Z</time>
      </trkpt>
      <trkpt lat="45.81456" lon="1.93262">
        <ele>759.8</ele>
        <time>2026-07-07T10:05:09.000Z</time>
      </trkpt>
      <trkpt lat="45.81458" lon="1.93263">
        <ele>759.8</ele>
        <time>2026-07-07T10:05:10.000Z</time>
      </trkpt>
      <trkpt lat="45.81459" lon="1.93264">
        <ele>760</ele>
        <time>2026-07-07T10:05:11.000Z</time>
      </trkpt>
      <trkpt lat="45.8146" lon="1.93266">
        <ele>760</ele>
        <time>2026-07-07T10:05:12.000Z</time>
      </trkpt>
      <trkpt lat="45.81462" lon="1.93267">
        <ele>759.7</ele>
        <time>2026-07-07T10:05:13.000Z</time>
      </trkpt>
      <trkpt lat="45.81463" lon="1.93269">
        <ele>759.4</ele>
        <time>2026-07-07T10:05:14.000Z</time>
      </trkpt>
      <trkpt lat="45.81464" lon="1.9327">
        <ele>759.5</ele>
        <time>2026-07-07T10:05:15.000Z</time>
      </trkpt>
      <trkpt lat="45.81466" lon="1.93271">
        <ele>759.7</ele>
        <time>2026-07-07T10:05:16.000Z</time>
      </trkpt>
      <trkpt lat="45.81467" lon="1.93273">
        <ele>759.9</ele>
        <time>2026-07-07T10:05:17.000Z</time>
      </trkpt>
      <trkpt lat="45.81468" lon="1.93274">
        <ele>760.1</ele>
        <time>2026-07-07T10:05:18.000Z</time>
      </trkpt>
      <trkpt lat="45.8147" lon="1.93275">
        <ele>760.4</ele>
        <time>2026-07-07T10:05:19.000Z</time>
      </trkpt>
      <trkpt lat="45.81471" lon="1.93276">
        <ele>760.8</ele>
        <time>2026-07-07T10:05:20.000Z</time>
      </trkpt>
      <trkpt lat="45.81472" lon="1.93278">
        <ele>760.8</ele>
        <time>2026-07-07T10:05:21.000Z</time>
      </trkpt>
      <trkpt lat="45.81474" lon="1.93279">
        <ele>760.9</ele>
        <time>2026-07-07T10:05:22.000Z</time>
      </trkpt>
      <trkpt lat="45.81475" lon="1.9328">
        <ele>760.9</ele>
        <time>2026-07-07T10:05:23.000Z</time>
      </trkpt>
      <trkpt lat="45.81476" lon="1.93282">
        <ele>761.1</ele>
        <time>2026-07-07T10:05:24.000Z</time>
      </trkpt>
      <trkpt lat="45.81478" lon="1.93282">
        <ele>760.7</ele>
        <time>2026-07-07T10:05:25.000Z</time>
      </trkpt>
      <trkpt lat="45.81479" lon="1.93282">
        <ele>760.6</ele>
        <time>2026-07-07T10:05:26.000Z</time>
      </trkpt>
      <trkpt lat="45.8148" lon="1.93284">
        <ele>760.9</ele>
        <time>2026-07-07T10:05:27.000Z</time>
      </trkpt>
      <trkpt lat="45.81481" lon="1.93286">
        <ele>760.5</ele>
        <time>2026-07-07T10:05:28.000Z</time>
      </trkpt>
      <trkpt lat="45.81483" lon="1.93288">
        <ele>760.8</ele>
        <time>2026-07-07T10:05:29.000Z</time>
      </trkpt>
      <trkpt lat="45.81484" lon="1.93289">
        <ele>760.7</ele>
        <time>2026-07-07T10:05:30.000Z</time>
      </trkpt>
      <trkpt lat="45.81486" lon="1.93291">
        <ele>760.3</ele>
        <time>2026-07-07T10:05:31.000Z</time>
      </trkpt>
      <trkpt lat="45.81487" lon="1.93292">
        <ele>759.8</ele>
        <time>2026-07-07T10:05:32.000Z</time>
      </trkpt>
      <trkpt lat="45.81488" lon="1.93294">
        <ele>760</ele>
        <time>2026-07-07T10:05:33.000Z</time>
      </trkpt>
      <trkpt lat="45.8149" lon="1.93295">
        <ele>759.8</ele>
        <time>2026-07-07T10:05:34.000Z</time>
      </trkpt>
      <trkpt lat="45.81491" lon="1.93297">
        <ele>759.2</ele>
        <time>2026-07-07T10:05:35.000Z</time>
      </trkpt>
      <trkpt lat="45.81492" lon="1.93298">
        <ele>758.5</ele>
        <time>2026-07-07T10:05:36.000Z</time>
      </trkpt>
      <trkpt lat="45.81494" lon="1.93299">
        <ele>757.9</ele>
        <time>2026-07-07T10:05:37.000Z</time>
      </trkpt>
      <trkpt lat="45.81495" lon="1.933">
        <ele>757.3</ele>
        <time>2026-07-07T10:05:38.000Z</time>
      </trkpt>
      <trkpt lat="45.81496" lon="1.93301">
        <ele>757.9</ele>
        <time>2026-07-07T10:05:39.000Z</time>
      </trkpt>
      <trkpt lat="45.81497" lon="1.93302">
        <ele>756.9</ele>
        <time>2026-07-07T10:05:40.000Z</time>
      </trkpt>
      <trkpt lat="45.81499" lon="1.93304">
        <ele>756</ele>
        <time>2026-07-07T10:05:41.000Z</time>
      </trkpt>
      <trkpt lat="45.815" lon="1.93305">
        <ele>754.6</ele>
        <time>2026-07-07T10:05:42.000Z</time>
      </trkpt>
      <trkpt lat="45.81502" lon="1.93306">
        <ele>755.1</ele>
        <time>2026-07-07T10:05:43.000Z</time>
      </trkpt>
      <trkpt lat="45.81503" lon="1.93307">
        <ele>755.9</ele>
        <time>2026-07-07T10:05:44.000Z</time>
      </trkpt>
      <trkpt lat="45.81504" lon="1.93308">
        <ele>757.3</ele>
        <time>2026-07-07T10:05:45.000Z</time>
      </trkpt>
      <trkpt lat="45.81505" lon="1.93309">
        <ele>757.7</ele>
        <time>2026-07-07T10:05:46.000Z</time>
      </trkpt>
      <trkpt lat="45.81507" lon="1.93311">
        <ele>757.9</ele>
        <time>2026-07-07T10:05:47.000Z</time>
      </trkpt>
      <trkpt lat="45.81508" lon="1.93312">
        <ele>758</ele>
        <time>2026-07-07T10:05:48.000Z</time>
      </trkpt>
      <trkpt lat="45.81509" lon="1.93313">
        <ele>758.1</ele>
        <time>2026-07-07T10:05:49.000Z</time>
      </trkpt>
      <trkpt lat="45.8151" lon="1.93314">
        <ele>757.5</ele>
        <time>2026-07-07T10:05:50.000Z</time>
      </trkpt>
      <trkpt lat="45.81512" lon="1.93315">
        <ele>757.6</ele>
        <time>2026-07-07T10:05:51.000Z</time>
      </trkpt>
      <trkpt lat="45.81513" lon="1.93316">
        <ele>758.1</ele>
        <time>2026-07-07T10:05:52.000Z</time>
      </trkpt>
      <trkpt lat="45.81514" lon="1.93317">
        <ele>758.5</ele>
        <time>2026-07-07T10:05:53.000Z</time>
      </trkpt>
      <trkpt lat="45.81515" lon="1.93319">
        <ele>758.5</ele>
        <time>2026-07-07T10:05:54.000Z</time>
      </trkpt>
      <trkpt lat="45.81517" lon="1.9332">
        <ele>758.5</ele>
        <time>2026-07-07T10:05:55.000Z</time>
      </trkpt>
      <trkpt lat="45.81518" lon="1.93321">
        <ele>759.4</ele>
        <time>2026-07-07T10:05:56.000Z</time>
      </trkpt>
      <trkpt lat="45.81519" lon="1.93323">
        <ele>759.1</ele>
        <time>2026-07-07T10:05:57.000Z</time>
      </trkpt>
      <trkpt lat="45.8152" lon="1.93324">
        <ele>759.7</ele>
        <time>2026-07-07T10:05:58.000Z</time>
      </trkpt>
      <trkpt lat="45.81522" lon="1.93324">
        <ele>759.6</ele>
        <time>2026-07-07T10:05:59.000Z</time>
      </trkpt>
      <trkpt lat="45.81523" lon="1.93324">
        <ele>759.4</ele>
        <time>2026-07-07T10:06:00.000Z</time>
      </trkpt>
      <trkpt lat="45.81524" lon="1.93325">
        <ele>759.6</ele>
        <time>2026-07-07T10:06:01.000Z</time>
      </trkpt>
      <trkpt lat="45.81525" lon="1.93325">
        <ele>759.9</ele>
        <time>2026-07-07T10:06:02.000Z</time>
      </trkpt>
      <trkpt lat="45.81527" lon="1.93326">
        <ele>759.8</ele>
        <time>2026-07-07T10:06:03.000Z</time>
      </trkpt>
      <trkpt lat="45.81528" lon="1.93326">
        <ele>760</ele>
        <time>2026-07-07T10:06:04.000Z</time>
      </trkpt>
      <trkpt lat="45.8153" lon="1.93327">
        <ele>759.9</ele>
        <time>2026-07-07T10:06:05.000Z</time>
      </trkpt>
      <trkpt lat="45.81531" lon="1.93327">
        <ele>760.3</ele>
        <time>2026-07-07T10:06:06.000Z</time>
      </trkpt>
      <trkpt lat="45.81533" lon="1.93328">
        <ele>760.6</ele>
        <time>2026-07-07T10:06:07.000Z</time>
      </trkpt>
      <trkpt lat="45.81534" lon="1.93328">
        <ele>761.5</ele>
        <time>2026-07-07T10:06:08.000Z</time>
      </trkpt>
      <trkpt lat="45.81536" lon="1.93329">
        <ele>761.2</ele>
        <time>2026-07-07T10:06:09.000Z</time>
      </trkpt>
      <trkpt lat="45.81538" lon="1.9333">
        <ele>760.5</ele>
        <time>2026-07-07T10:06:10.000Z</time>
      </trkpt>
      <trkpt lat="45.8154" lon="1.93332">
        <ele>760.2</ele>
        <time>2026-07-07T10:06:11.000Z</time>
      </trkpt>
      <trkpt lat="45.81541" lon="1.93332">
        <ele>760.5</ele>
        <time>2026-07-07T10:06:12.000Z</time>
      </trkpt>
      <trkpt lat="45.81543" lon="1.93332">
        <ele>760.5</ele>
        <time>2026-07-07T10:06:13.000Z</time>
      </trkpt>
      <trkpt lat="45.81544" lon="1.93333">
        <ele>759.6</ele>
        <time>2026-07-07T10:06:14.000Z</time>
      </trkpt>
      <trkpt lat="45.81546" lon="1.93333">
        <ele>759.3</ele>
        <time>2026-07-07T10:06:15.000Z</time>
      </trkpt>
      <trkpt lat="45.81548" lon="1.93333">
        <ele>760.1</ele>
        <time>2026-07-07T10:06:16.000Z</time>
      </trkpt>
      <trkpt lat="45.8155" lon="1.93333">
        <ele>760.1</ele>
        <time>2026-07-07T10:06:17.000Z</time>
      </trkpt>
      <trkpt lat="45.81552" lon="1.93334">
        <ele>760</ele>
        <time>2026-07-07T10:06:18.000Z</time>
      </trkpt>
      <trkpt lat="45.81553" lon="1.93334">
        <ele>759.5</ele>
        <time>2026-07-07T10:06:19.000Z</time>
      </trkpt>
      <trkpt lat="45.81554" lon="1.93332">
        <ele>759.9</ele>
        <time>2026-07-07T10:06:20.000Z</time>
      </trkpt>
      <trkpt lat="45.81555" lon="1.93334">
        <ele>760.8</ele>
        <time>2026-07-07T10:06:21.000Z</time>
      </trkpt>
      <trkpt lat="45.81555" lon="1.93335">
        <ele>761.3</ele>
        <time>2026-07-07T10:06:22.000Z</time>
      </trkpt>
      <trkpt lat="45.81556" lon="1.93337">
        <ele>760.4</ele>
        <time>2026-07-07T10:06:23.000Z</time>
      </trkpt>
      <trkpt lat="45.81558" lon="1.93338">
        <ele>759.9</ele>
        <time>2026-07-07T10:06:24.000Z</time>
      </trkpt>
      <trkpt lat="45.81558" lon="1.93339">
        <ele>760.1</ele>
        <time>2026-07-07T10:06:25.000Z</time>
      </trkpt>
      <trkpt lat="45.8156" lon="1.9334">
        <ele>759.3</ele>
        <time>2026-07-07T10:06:26.000Z</time>
      </trkpt>
      <trkpt lat="45.81561" lon="1.93341">
        <ele>758.5</ele>
        <time>2026-07-07T10:06:27.000Z</time>
      </trkpt>
      <trkpt lat="45.81563" lon="1.93341">
        <ele>758.9</ele>
        <time>2026-07-07T10:06:28.000Z</time>
      </trkpt>
      <trkpt lat="45.81564" lon="1.93342">
        <ele>759.3</ele>
        <time>2026-07-07T10:06:29.000Z</time>
      </trkpt>
      <trkpt lat="45.81565" lon="1.93344">
        <ele>760</ele>
        <time>2026-07-07T10:06:30.000Z</time>
      </trkpt>
      <trkpt lat="45.81566" lon="1.93345">
        <ele>759.7</ele>
        <time>2026-07-07T10:06:31.000Z</time>
      </trkpt>
      <trkpt lat="45.81567" lon="1.93346">
        <ele>759.3</ele>
        <time>2026-07-07T10:06:32.000Z</time>
      </trkpt>
      <trkpt lat="45.81568" lon="1.93347">
        <ele>759.7</ele>
        <time>2026-07-07T10:06:33.000Z</time>
      </trkpt>
      <trkpt lat="45.81569" lon="1.93348">
        <ele>758.8</ele>
        <time>2026-07-07T10:06:34.000Z</time>
      </trkpt>
      <trkpt lat="45.81571" lon="1.9335">
        <ele>758.3</ele>
        <time>2026-07-07T10:06:35.000Z</time>
      </trkpt>
      <trkpt lat="45.81572" lon="1.93352">
        <ele>758.6</ele>
        <time>2026-07-07T10:06:36.000Z</time>
      </trkpt>
      <trkpt lat="45.81573" lon="1.93353">
        <ele>757.9</ele>
        <time>2026-07-07T10:06:37.000Z</time>
      </trkpt>
      <trkpt lat="45.81573" lon="1.93355">
        <ele>756.8</ele>
        <time>2026-07-07T10:06:38.000Z</time>
      </trkpt>
      <trkpt lat="45.81574" lon="1.93357">
        <ele>756.3</ele>
        <time>2026-07-07T10:06:39.000Z</time>
      </trkpt>
      <trkpt lat="45.81575" lon="1.93359">
        <ele>756.4</ele>
        <time>2026-07-07T10:06:40.000Z</time>
      </trkpt>
      <trkpt lat="45.81576" lon="1.93361">
        <ele>757.3</ele>
        <time>2026-07-07T10:06:41.000Z</time>
      </trkpt>
      <trkpt lat="45.81576" lon="1.93362">
        <ele>757.1</ele>
        <time>2026-07-07T10:06:42.000Z</time>
      </trkpt>
      <trkpt lat="45.81576" lon="1.93365">
        <ele>756.2</ele>
        <time>2026-07-07T10:06:43.000Z</time>
      </trkpt>
      <trkpt lat="45.81576" lon="1.93367">
        <ele>757.1</ele>
        <time>2026-07-07T10:06:44.000Z</time>
      </trkpt>
      <trkpt lat="45.81577" lon="1.93369">
        <ele>758.2</ele>
        <time>2026-07-07T10:06:45.000Z</time>
      </trkpt>
      <trkpt lat="45.81577" lon="1.93372">
        <ele>758.9</ele>
        <time>2026-07-07T10:06:46.000Z</time>
      </trkpt>
      <trkpt lat="45.81578" lon="1.93375">
        <ele>759.1</ele>
        <time>2026-07-07T10:06:47.000Z</time>
      </trkpt>
      <trkpt lat="45.81578" lon="1.93378">
        <ele>760.4</ele>
        <time>2026-07-07T10:06:48.000Z</time>
      </trkpt>
      <trkpt lat="45.81579" lon="1.9338">
        <ele>760.4</ele>
        <time>2026-07-07T10:06:49.000Z</time>
      </trkpt>
      <trkpt lat="45.8158" lon="1.93383">
        <ele>760.6</ele>
        <time>2026-07-07T10:06:50.000Z</time>
      </trkpt>
      <trkpt lat="45.81581" lon="1.93385">
        <ele>760.9</ele>
        <time>2026-07-07T10:06:51.000Z</time>
      </trkpt>
      <trkpt lat="45.81582" lon="1.93387">
        <ele>761.1</ele>
        <time>2026-07-07T10:06:52.000Z</time>
      </trkpt>
      <trkpt lat="45.81583" lon="1.93388">
        <ele>760.4</ele>
        <time>2026-07-07T10:06:53.000Z</time>
      </trkpt>
      <trkpt lat="45.81584" lon="1.9339">
        <ele>760.8</ele>
        <time>2026-07-07T10:06:54.000Z</time>
      </trkpt>
      <trkpt lat="45.81586" lon="1.93392">
        <ele>761.9</ele>
        <time>2026-07-07T10:06:55.000Z</time>
      </trkpt>
      <trkpt lat="45.81588" lon="1.93393">
        <ele>760.5</ele>
        <time>2026-07-07T10:06:56.000Z</time>
      </trkpt>
      <trkpt lat="45.81589" lon="1.93395">
        <ele>760.2</ele>
        <time>2026-07-07T10:06:57.000Z</time>
      </trkpt>
      <trkpt lat="45.81591" lon="1.93396">
        <ele>759.6</ele>
        <time>2026-07-07T10:06:58.000Z</time>
      </trkpt>
      <trkpt lat="45.81593" lon="1.93396">
        <ele>761</ele>
        <time>2026-07-07T10:06:59.000Z</time>
      </trkpt>
      <trkpt lat="45.81594" lon="1.93397">
        <ele>760.8</ele>
        <time>2026-07-07T10:07:00.000Z</time>
      </trkpt>
      <trkpt lat="45.81596" lon="1.93398">
        <ele>761.9</ele>
        <time>2026-07-07T10:07:01.000Z</time>
      </trkpt>
      <trkpt lat="45.81598" lon="1.934">
        <ele>761.9</ele>
        <time>2026-07-07T10:07:02.000Z</time>
      </trkpt>
      <trkpt lat="45.81599" lon="1.93401">
        <ele>763</ele>
        <time>2026-07-07T10:07:03.000Z</time>
      </trkpt>
      <trkpt lat="45.81602" lon="1.93402">
        <ele>763.4</ele>
        <time>2026-07-07T10:07:04.000Z</time>
      </trkpt>
      <trkpt lat="45.81605" lon="1.93404">
        <ele>762.6</ele>
        <time>2026-07-07T10:07:05.000Z</time>
      </trkpt>
      <trkpt lat="45.81607" lon="1.93406">
        <ele>760.8</ele>
        <time>2026-07-07T10:07:06.000Z</time>
      </trkpt>
      <trkpt lat="45.81609" lon="1.93408">
        <ele>760.9</ele>
        <time>2026-07-07T10:07:07.000Z</time>
      </trkpt>
      <trkpt lat="45.81611" lon="1.93408">
        <ele>760.1</ele>
        <time>2026-07-07T10:07:08.000Z</time>
      </trkpt>
      <trkpt lat="45.81613" lon="1.93409">
        <ele>760.2</ele>
        <time>2026-07-07T10:07:09.000Z</time>
      </trkpt>
      <trkpt lat="45.81616" lon="1.93409">
        <ele>759.9</ele>
        <time>2026-07-07T10:07:10.000Z</time>
      </trkpt>
      <trkpt lat="45.81617" lon="1.93409">
        <ele>760.8</ele>
        <time>2026-07-07T10:07:11.000Z</time>
      </trkpt>
      <trkpt lat="45.81619" lon="1.9341">
        <ele>759.7</ele>
        <time>2026-07-07T10:07:12.000Z</time>
      </trkpt>
      <trkpt lat="45.8162" lon="1.93411">
        <ele>759.8</ele>
        <time>2026-07-07T10:07:13.000Z</time>
      </trkpt>
      <trkpt lat="45.81622" lon="1.93411">
        <ele>759.9</ele>
        <time>2026-07-07T10:07:14.000Z</time>
      </trkpt>
      <trkpt lat="45.81623" lon="1.93411">
        <ele>760.9</ele>
        <time>2026-07-07T10:07:15.000Z</time>
      </trkpt>
      <trkpt lat="45.81625" lon="1.93411">
        <ele>761.5</ele>
        <time>2026-07-07T10:07:16.000Z</time>
      </trkpt>
      <trkpt lat="45.81627" lon="1.93411">
        <ele>762.7</ele>
        <time>2026-07-07T10:07:17.000Z</time>
      </trkpt>
      <trkpt lat="45.81628" lon="1.93411">
        <ele>762.8</ele>
        <time>2026-07-07T10:07:18.000Z</time>
      </trkpt>
      <trkpt lat="45.8163" lon="1.93411">
        <ele>762.2</ele>
        <time>2026-07-07T10:07:19.000Z</time>
      </trkpt>
      <trkpt lat="45.81631" lon="1.9341">
        <ele>762.8</ele>
        <time>2026-07-07T10:07:20.000Z</time>
      </trkpt>
      <trkpt lat="45.81633" lon="1.9341">
        <ele>763</ele>
        <time>2026-07-07T10:07:21.000Z</time>
      </trkpt>
      <trkpt lat="45.81635" lon="1.93409">
        <ele>762.6</ele>
        <time>2026-07-07T10:07:22.000Z</time>
      </trkpt>
      <trkpt lat="45.81636" lon="1.93409">
        <ele>762.1</ele>
        <time>2026-07-07T10:07:23.000Z</time>
      </trkpt>
      <trkpt lat="45.81638" lon="1.93408">
        <ele>762.4</ele>
        <time>2026-07-07T10:07:24.000Z</time>
      </trkpt>
      <trkpt lat="45.8164" lon="1.93407">
        <ele>764.2</ele>
        <time>2026-07-07T10:07:25.000Z</time>
      </trkpt>
      <trkpt lat="45.81642" lon="1.93405">
        <ele>764.6</ele>
        <time>2026-07-07T10:07:26.000Z</time>
      </trkpt>
      <trkpt lat="45.81643" lon="1.93404">
        <ele>764</ele>
        <time>2026-07-07T10:07:27.000Z</time>
      </trkpt>
      <trkpt lat="45.81644" lon="1.93402">
        <ele>764</ele>
        <time>2026-07-07T10:07:28.000Z</time>
      </trkpt>
      <trkpt lat="45.81646" lon="1.93402">
        <ele>763.8</ele>
        <time>2026-07-07T10:07:29.000Z</time>
      </trkpt>
      <trkpt lat="45.81648" lon="1.93402">
        <ele>763.4</ele>
        <time>2026-07-07T10:07:30.000Z</time>
      </trkpt>
      <trkpt lat="45.81649" lon="1.93402">
        <ele>762.8</ele>
        <time>2026-07-07T10:07:31.000Z</time>
      </trkpt>
      <trkpt lat="45.81651" lon="1.93401">
        <ele>762.1</ele>
        <time>2026-07-07T10:07:32.000Z</time>
      </trkpt>
      <trkpt lat="45.81652" lon="1.934">
        <ele>762.1</ele>
        <time>2026-07-07T10:07:33.000Z</time>
      </trkpt>
      <trkpt lat="45.81654" lon="1.93399">
        <ele>761.7</ele>
        <time>2026-07-07T10:07:34.000Z</time>
      </trkpt>
      <trkpt lat="45.81655" lon="1.93397">
        <ele>761.2</ele>
        <time>2026-07-07T10:07:35.000Z</time>
      </trkpt>
      <trkpt lat="45.81657" lon="1.93396">
        <ele>761.2</ele>
        <time>2026-07-07T10:07:36.000Z</time>
      </trkpt>
      <trkpt lat="45.81659" lon="1.93393">
        <ele>762.5</ele>
        <time>2026-07-07T10:07:37.000Z</time>
      </trkpt>
      <trkpt lat="45.81662" lon="1.9339">
        <ele>763.7</ele>
        <time>2026-07-07T10:07:38.000Z</time>
      </trkpt>
      <trkpt lat="45.81664" lon="1.93387">
        <ele>763.5</ele>
        <time>2026-07-07T10:07:39.000Z</time>
      </trkpt>
      <trkpt lat="45.81666" lon="1.93384">
        <ele>764.4</ele>
        <time>2026-07-07T10:07:40.000Z</time>
      </trkpt>
      <trkpt lat="45.81667" lon="1.93381">
        <ele>764.1</ele>
        <time>2026-07-07T10:07:41.000Z</time>
      </trkpt>
      <trkpt lat="45.81668" lon="1.9338">
        <ele>764.5</ele>
        <time>2026-07-07T10:07:42.000Z</time>
      </trkpt>
      <trkpt lat="45.81669" lon="1.93381">
        <ele>761.4</ele>
        <time>2026-07-07T10:07:43.000Z</time>
      </trkpt>
      <trkpt lat="45.8167" lon="1.9338">
        <ele>762.7</ele>
        <time>2026-07-07T10:07:44.000Z</time>
      </trkpt>
      <trkpt lat="45.81671" lon="1.9338">
        <ele>763.5</ele>
        <time>2026-07-07T10:07:45.000Z</time>
      </trkpt>
      <trkpt lat="45.81672" lon="1.9338">
        <ele>764.7</ele>
        <time>2026-07-07T10:07:46.000Z</time>
      </trkpt>
      <trkpt lat="45.81673" lon="1.93379">
        <ele>765.4</ele>
        <time>2026-07-07T10:07:47.000Z</time>
      </trkpt>
      <trkpt lat="45.81674" lon="1.93379">
        <ele>764.6</ele>
        <time>2026-07-07T10:07:48.000Z</time>
      </trkpt>
      <trkpt lat="45.81675" lon="1.93379">
        <ele>765.7</ele>
        <time>2026-07-07T10:07:49.000Z</time>
      </trkpt>
      <trkpt lat="45.81675" lon="1.93378">
        <ele>766.3</ele>
        <time>2026-07-07T10:07:50.000Z</time>
      </trkpt>
      <trkpt lat="45.81676" lon="1.93377">
        <ele>767.2</ele>
        <time>2026-07-07T10:07:51.000Z</time>
      </trkpt>
      <trkpt lat="45.81677" lon="1.93376">
        <ele>767.3</ele>
        <time>2026-07-07T10:07:52.000Z</time>
      </trkpt>
      <trkpt lat="45.81679" lon="1.93376">
        <ele>767.4</ele>
        <time>2026-07-07T10:07:53.000Z</time>
      </trkpt>
      <trkpt lat="45.8168" lon="1.93376">
        <ele>767.7</ele>
        <time>2026-07-07T10:07:54.000Z</time>
      </trkpt>
      <trkpt lat="45.81681" lon="1.93375">
        <ele>767</ele>
        <time>2026-07-07T10:07:55.000Z</time>
      </trkpt>
      <trkpt lat="45.81683" lon="1.93374">
        <ele>767.2</ele>
        <time>2026-07-07T10:07:56.000Z</time>
      </trkpt>
      <trkpt lat="45.81685" lon="1.93374">
        <ele>767.7</ele>
        <time>2026-07-07T10:07:57.000Z</time>
      </trkpt>
      <trkpt lat="45.81687" lon="1.93373">
        <ele>767.5</ele>
        <time>2026-07-07T10:07:58.000Z</time>
      </trkpt>
      <trkpt lat="45.81689" lon="1.93372">
        <ele>767.4</ele>
        <time>2026-07-07T10:07:59.000Z</time>
      </trkpt>
      <trkpt lat="45.81691" lon="1.93371">
        <ele>767.2</ele>
        <time>2026-07-07T10:08:00.000Z</time>
      </trkpt>
      <trkpt lat="45.81694" lon="1.93372">
        <ele>766.4</ele>
        <time>2026-07-07T10:08:01.000Z</time>
      </trkpt>
      <trkpt lat="45.81696" lon="1.93373">
        <ele>765.6</ele>
        <time>2026-07-07T10:08:02.000Z</time>
      </trkpt>
      <trkpt lat="45.81698" lon="1.93373">
        <ele>766.2</ele>
        <time>2026-07-07T10:08:03.000Z</time>
      </trkpt>
      <trkpt lat="45.81699" lon="1.93373">
        <ele>767.3</ele>
        <time>2026-07-07T10:08:04.000Z</time>
      </trkpt>
      <trkpt lat="45.81701" lon="1.93373">
        <ele>766.4</ele>
        <time>2026-07-07T10:08:05.000Z</time>
      </trkpt>
      <trkpt lat="45.81703" lon="1.93374">
        <ele>766.8</ele>
        <time>2026-07-07T10:08:06.000Z</time>
      </trkpt>
      <trkpt lat="45.81704" lon="1.93374">
        <ele>766.9</ele>
        <time>2026-07-07T10:08:07.000Z</time>
      </trkpt>
      <trkpt lat="45.81706" lon="1.93374">
        <ele>766.8</ele>
        <time>2026-07-07T10:08:08.000Z</time>
      </trkpt>
      <trkpt lat="45.81708" lon="1.93374">
        <ele>767.3</ele>
        <time>2026-07-07T10:08:09.000Z</time>
      </trkpt>
      <trkpt lat="45.81709" lon="1.93375">
        <ele>766.9</ele>
        <time>2026-07-07T10:08:10.000Z</time>
      </trkpt>
      <trkpt lat="45.81711" lon="1.93376">
        <ele>766.3</ele>
        <time>2026-07-07T10:08:11.000Z</time>
      </trkpt>
      <trkpt lat="45.81714" lon="1.93376">
        <ele>765.4</ele>
        <time>2026-07-07T10:08:12.000Z</time>
      </trkpt>
      <trkpt lat="45.81716" lon="1.93377">
        <ele>764.7</ele>
        <time>2026-07-07T10:08:13.000Z</time>
      </trkpt>
      <trkpt lat="45.81717" lon="1.93378">
        <ele>765.1</ele>
        <time>2026-07-07T10:08:14.000Z</time>
      </trkpt>
      <trkpt lat="45.81719" lon="1.93378">
        <ele>764.5</ele>
        <time>2026-07-07T10:08:15.000Z</time>
      </trkpt>
      <trkpt lat="45.8172" lon="1.93379">
        <ele>764.3</ele>
        <time>2026-07-07T10:08:16.000Z</time>
      </trkpt>
      <trkpt lat="45.81721" lon="1.93379">
        <ele>763.5</ele>
        <time>2026-07-07T10:08:17.000Z</time>
      </trkpt>
      <trkpt lat="45.81723" lon="1.9338">
        <ele>762.6</ele>
        <time>2026-07-07T10:08:18.000Z</time>
      </trkpt>
      <trkpt lat="45.81724" lon="1.93381">
        <ele>763</ele>
        <time>2026-07-07T10:08:19.000Z</time>
      </trkpt>
      <trkpt lat="45.81726" lon="1.93381">
        <ele>763.7</ele>
        <time>2026-07-07T10:08:20.000Z</time>
      </trkpt>
      <trkpt lat="45.81727" lon="1.93383">
        <ele>763.4</ele>
        <time>2026-07-07T10:08:21.000Z</time>
      </trkpt>
      <trkpt lat="45.81729" lon="1.93383">
        <ele>763.2</ele>
        <time>2026-07-07T10:08:22.000Z</time>
      </trkpt>
      <trkpt lat="45.81732" lon="1.93384">
        <ele>762.1</ele>
        <time>2026-07-07T10:08:23.000Z</time>
      </trkpt>
      <trkpt lat="45.81735" lon="1.93385">
        <ele>761.5</ele>
        <time>2026-07-07T10:08:24.000Z</time>
      </trkpt>
      <trkpt lat="45.81737" lon="1.93386">
        <ele>761.3</ele>
        <time>2026-07-07T10:08:25.000Z</time>
      </trkpt>
      <trkpt lat="45.81739" lon="1.93387">
        <ele>759.6</ele>
        <time>2026-07-07T10:08:26.000Z</time>
      </trkpt>
      <trkpt lat="45.81741" lon="1.93387">
        <ele>759.9</ele>
        <time>2026-07-07T10:08:27.000Z</time>
      </trkpt>
      <trkpt lat="45.81743" lon="1.93388">
        <ele>759.8</ele>
        <time>2026-07-07T10:08:28.000Z</time>
      </trkpt>
      <trkpt lat="45.81745" lon="1.93388">
        <ele>759.9</ele>
        <time>2026-07-07T10:08:29.000Z</time>
      </trkpt>
      <trkpt lat="45.81747" lon="1.93389">
        <ele>760.3</ele>
        <time>2026-07-07T10:08:30.000Z</time>
      </trkpt>
      <trkpt lat="45.81749" lon="1.9339">
        <ele>760.8</ele>
        <time>2026-07-07T10:08:31.000Z</time>
      </trkpt>
      <trkpt lat="45.8175" lon="1.93391">
        <ele>761.2</ele>
        <time>2026-07-07T10:08:32.000Z</time>
      </trkpt>
      <trkpt lat="45.81752" lon="1.93392">
        <ele>760.8</ele>
        <time>2026-07-07T10:08:33.000Z</time>
      </trkpt>
      <trkpt lat="45.81754" lon="1.93393">
        <ele>759.1</ele>
        <time>2026-07-07T10:08:34.000Z</time>
      </trkpt>
      <trkpt lat="45.81756" lon="1.93394">
        <ele>758.8</ele>
        <time>2026-07-07T10:08:35.000Z</time>
      </trkpt>
      <trkpt lat="45.81757" lon="1.93396">
        <ele>758.5</ele>
        <time>2026-07-07T10:08:36.000Z</time>
      </trkpt>
      <trkpt lat="45.81759" lon="1.93396">
        <ele>758.7</ele>
        <time>2026-07-07T10:08:37.000Z</time>
      </trkpt>
      <trkpt lat="45.81761" lon="1.93398">
        <ele>758.5</ele>
        <time>2026-07-07T10:08:38.000Z</time>
      </trkpt>
      <trkpt lat="45.81763" lon="1.93399">
        <ele>759.8</ele>
        <time>2026-07-07T10:08:39.000Z</time>
      </trkpt>
      <trkpt lat="45.81765" lon="1.934">
        <ele>759.5</ele>
        <time>2026-07-07T10:08:40.000Z</time>
      </trkpt>
      <trkpt lat="45.81767" lon="1.93402">
        <ele>760.3</ele>
        <time>2026-07-07T10:08:41.000Z</time>
      </trkpt>
      <trkpt lat="45.81769" lon="1.93403">
        <ele>761</ele>
        <time>2026-07-07T10:08:42.000Z</time>
      </trkpt>
      <trkpt lat="45.8177" lon="1.93404">
        <ele>761.6</ele>
        <time>2026-07-07T10:08:43.000Z</time>
      </trkpt>
      <trkpt lat="45.81771" lon="1.93404">
        <ele>761.3</ele>
        <time>2026-07-07T10:08:44.000Z</time>
      </trkpt>
      <trkpt lat="45.81773" lon="1.93405">
        <ele>761.2</ele>
        <time>2026-07-07T10:08:45.000Z</time>
      </trkpt>
      <trkpt lat="45.81774" lon="1.93406">
        <ele>761.6</ele>
        <time>2026-07-07T10:08:46.000Z</time>
      </trkpt>
      <trkpt lat="45.81775" lon="1.93407">
        <ele>761.4</ele>
        <time>2026-07-07T10:08:47.000Z</time>
      </trkpt>
      <trkpt lat="45.81776" lon="1.93408">
        <ele>762.1</ele>
        <time>2026-07-07T10:08:48.000Z</time>
      </trkpt>
      <trkpt lat="45.81778" lon="1.9341">
        <ele>762.6</ele>
        <time>2026-07-07T10:08:49.000Z</time>
      </trkpt>
      <trkpt lat="45.8178" lon="1.93411">
        <ele>762.7</ele>
        <time>2026-07-07T10:08:50.000Z</time>
      </trkpt>
      <trkpt lat="45.81782" lon="1.93411">
        <ele>763.3</ele>
        <time>2026-07-07T10:08:51.000Z</time>
      </trkpt>
      <trkpt lat="45.81784" lon="1.93412">
        <ele>763.3</ele>
        <time>2026-07-07T10:08:52.000Z</time>
      </trkpt>
      <trkpt lat="45.81786" lon="1.93412">
        <ele>763.5</ele>
        <time>2026-07-07T10:08:53.000Z</time>
      </trkpt>
      <trkpt lat="45.81788" lon="1.93413">
        <ele>764.7</ele>
        <time>2026-07-07T10:08:54.000Z</time>
      </trkpt>
      <trkpt lat="45.81789" lon="1.93414">
        <ele>765.3</ele>
        <time>2026-07-07T10:08:55.000Z</time>
      </trkpt>
      <trkpt lat="45.81791" lon="1.93414">
        <ele>764.9</ele>
        <time>2026-07-07T10:08:56.000Z</time>
      </trkpt>
      <trkpt lat="45.81792" lon="1.93416">
        <ele>764.3</ele>
        <time>2026-07-07T10:08:57.000Z</time>
      </trkpt>
      <trkpt lat="45.81794" lon="1.93416">
        <ele>764</ele>
        <time>2026-07-07T10:08:58.000Z</time>
      </trkpt>
      <trkpt lat="45.81795" lon="1.93417">
        <ele>763.5</ele>
        <time>2026-07-07T10:08:59.000Z</time>
      </trkpt>
      <trkpt lat="45.81797" lon="1.93418">
        <ele>764</ele>
        <time>2026-07-07T10:09:00.000Z</time>
      </trkpt>
      <trkpt lat="45.81799" lon="1.93419">
        <ele>764.3</ele>
        <time>2026-07-07T10:09:01.000Z</time>
      </trkpt>
      <trkpt lat="45.818" lon="1.93419">
        <ele>764.3</ele>
        <time>2026-07-07T10:09:02.000Z</time>
      </trkpt>
      <trkpt lat="45.81802" lon="1.9342">
        <ele>765.1</ele>
        <time>2026-07-07T10:09:03.000Z</time>
      </trkpt>
      <trkpt lat="45.81804" lon="1.93422">
        <ele>765.6</ele>
        <time>2026-07-07T10:09:04.000Z</time>
      </trkpt>
      <trkpt lat="45.81805" lon="1.93423">
        <ele>765.3</ele>
        <time>2026-07-07T10:09:05.000Z</time>
      </trkpt>
      <trkpt lat="45.81806" lon="1.93424">
        <ele>764.9</ele>
        <time>2026-07-07T10:09:06.000Z</time>
      </trkpt>
      <trkpt lat="45.81808" lon="1.93425">
        <ele>764.2</ele>
        <time>2026-07-07T10:09:07.000Z</time>
      </trkpt>
      <trkpt lat="45.8181" lon="1.93425">
        <ele>765.2</ele>
        <time>2026-07-07T10:09:08.000Z</time>
      </trkpt>
      <trkpt lat="45.81812" lon="1.93426">
        <ele>764.2</ele>
        <time>2026-07-07T10:09:09.000Z</time>
      </trkpt>
      <trkpt lat="45.81814" lon="1.93427">
        <ele>764.4</ele>
        <time>2026-07-07T10:09:10.000Z</time>
      </trkpt>
      <trkpt lat="45.81816" lon="1.93427">
        <ele>764.2</ele>
        <time>2026-07-07T10:09:11.000Z</time>
      </trkpt>
      <trkpt lat="45.81817" lon="1.93428">
        <ele>764.3</ele>
        <time>2026-07-07T10:09:12.000Z</time>
      </trkpt>
      <trkpt lat="45.81819" lon="1.93429">
        <ele>764.3</ele>
        <time>2026-07-07T10:09:13.000Z</time>
      </trkpt>
      <trkpt lat="45.81821" lon="1.93431">
        <ele>764.9</ele>
        <time>2026-07-07T10:09:14.000Z</time>
      </trkpt>
      <trkpt lat="45.81823" lon="1.93431">
        <ele>764.9</ele>
        <time>2026-07-07T10:09:15.000Z</time>
      </trkpt>
      <trkpt lat="45.81824" lon="1.93432">
        <ele>766</ele>
        <time>2026-07-07T10:09:16.000Z</time>
      </trkpt>
      <trkpt lat="45.81826" lon="1.93434">
        <ele>766</ele>
        <time>2026-07-07T10:09:17.000Z</time>
      </trkpt>
      <trkpt lat="45.81828" lon="1.93435">
        <ele>766.3</ele>
        <time>2026-07-07T10:09:18.000Z</time>
      </trkpt>
      <trkpt lat="45.8183" lon="1.93436">
        <ele>766.2</ele>
        <time>2026-07-07T10:09:19.000Z</time>
      </trkpt>
      <trkpt lat="45.81832" lon="1.93437">
        <ele>766.2</ele>
        <time>2026-07-07T10:09:20.000Z</time>
      </trkpt>
      <trkpt lat="45.81834" lon="1.93438">
        <ele>766.8</ele>
        <time>2026-07-07T10:09:21.000Z</time>
      </trkpt>
      <trkpt lat="45.81835" lon="1.93439">
        <ele>766.7</ele>
        <time>2026-07-07T10:09:22.000Z</time>
      </trkpt>
      <trkpt lat="45.81837" lon="1.9344">
        <ele>766.4</ele>
        <time>2026-07-07T10:09:23.000Z</time>
      </trkpt>
      <trkpt lat="45.81839" lon="1.93441">
        <ele>766.1</ele>
        <time>2026-07-07T10:09:24.000Z</time>
      </trkpt>
      <trkpt lat="45.81841" lon="1.93443">
        <ele>766</ele>
        <time>2026-07-07T10:09:25.000Z</time>
      </trkpt>
      <trkpt lat="45.81842" lon="1.93444">
        <ele>765.9</ele>
        <time>2026-07-07T10:09:26.000Z</time>
      </trkpt>
      <trkpt lat="45.81844" lon="1.93445">
        <ele>766</ele>
        <time>2026-07-07T10:09:27.000Z</time>
      </trkpt>
      <trkpt lat="45.81845" lon="1.93446">
        <ele>766.1</ele>
        <time>2026-07-07T10:09:28.000Z</time>
      </trkpt>
      <trkpt lat="45.81847" lon="1.93447">
        <ele>766.4</ele>
        <time>2026-07-07T10:09:29.000Z</time>
      </trkpt>
      <trkpt lat="45.81849" lon="1.93448">
        <ele>766.5</ele>
        <time>2026-07-07T10:09:30.000Z</time>
      </trkpt>
      <trkpt lat="45.8185" lon="1.93449">
        <ele>766.2</ele>
        <time>2026-07-07T10:09:31.000Z</time>
      </trkpt>
      <trkpt lat="45.81851" lon="1.9345">
        <ele>766.4</ele>
        <time>2026-07-07T10:09:32.000Z</time>
      </trkpt>
      <trkpt lat="45.81853" lon="1.93451">
        <ele>766.5</ele>
        <time>2026-07-07T10:09:33.000Z</time>
      </trkpt>
      <trkpt lat="45.81856" lon="1.93453">
        <ele>766.8</ele>
        <time>2026-07-07T10:09:34.000Z</time>
      </trkpt>
      <trkpt lat="45.81858" lon="1.93454">
        <ele>765.6</ele>
        <time>2026-07-07T10:09:35.000Z</time>
      </trkpt>
      <trkpt lat="45.81859" lon="1.93456">
        <ele>766.3</ele>
        <time>2026-07-07T10:09:36.000Z</time>
      </trkpt>
      <trkpt lat="45.81861" lon="1.93457">
        <ele>765.7</ele>
        <time>2026-07-07T10:09:37.000Z</time>
      </trkpt>
      <trkpt lat="45.81863" lon="1.93457">
        <ele>766</ele>
        <time>2026-07-07T10:09:38.000Z</time>
      </trkpt>
      <trkpt lat="45.81864" lon="1.93458">
        <ele>766</ele>
        <time>2026-07-07T10:09:39.000Z</time>
      </trkpt>
      <trkpt lat="45.81866" lon="1.93459">
        <ele>765.1</ele>
        <time>2026-07-07T10:09:40.000Z</time>
      </trkpt>
      <trkpt lat="45.81868" lon="1.9346">
        <ele>764.8</ele>
        <time>2026-07-07T10:09:41.000Z</time>
      </trkpt>
      <trkpt lat="45.81869" lon="1.93461">
        <ele>765</ele>
        <time>2026-07-07T10:09:42.000Z</time>
      </trkpt>
      <trkpt lat="45.81871" lon="1.93461">
        <ele>765.4</ele>
        <time>2026-07-07T10:09:43.000Z</time>
      </trkpt>
      <trkpt lat="45.81873" lon="1.93462">
        <ele>765.5</ele>
        <time>2026-07-07T10:09:44.000Z</time>
      </trkpt>
      <trkpt lat="45.81874" lon="1.93463">
        <ele>766.4</ele>
        <time>2026-07-07T10:09:45.000Z</time>
      </trkpt>
      <trkpt lat="45.81876" lon="1.93464">
        <ele>765.9</ele>
        <time>2026-07-07T10:09:46.000Z</time>
      </trkpt>
      <trkpt lat="45.81877" lon="1.93466">
        <ele>765.6</ele>
        <time>2026-07-07T10:09:47.000Z</time>
      </trkpt>
      <trkpt lat="45.81879" lon="1.93467">
        <ele>765.8</ele>
        <time>2026-07-07T10:09:48.000Z</time>
      </trkpt>
      <trkpt lat="45.8188" lon="1.93469">
        <ele>765.7</ele>
        <time>2026-07-07T10:09:49.000Z</time>
      </trkpt>
      <trkpt lat="45.81882" lon="1.93469">
        <ele>766</ele>
        <time>2026-07-07T10:09:50.000Z</time>
      </trkpt>
      <trkpt lat="45.81884" lon="1.9347">
        <ele>766.4</ele>
        <time>2026-07-07T10:09:51.000Z</time>
      </trkpt>
      <trkpt lat="45.81887" lon="1.93471">
        <ele>767</ele>
        <time>2026-07-07T10:09:52.000Z</time>
      </trkpt>
      <trkpt lat="45.81888" lon="1.93472">
        <ele>767.5</ele>
        <time>2026-07-07T10:09:53.000Z</time>
      </trkpt>
      <trkpt lat="45.8189" lon="1.93473">
        <ele>767.3</ele>
        <time>2026-07-07T10:09:54.000Z</time>
      </trkpt>
      <trkpt lat="45.81892" lon="1.93474">
        <ele>767</ele>
        <time>2026-07-07T10:09:55.000Z</time>
      </trkpt>
      <trkpt lat="45.81893" lon="1.93475">
        <ele>767.2</ele>
        <time>2026-07-07T10:09:56.000Z</time>
      </trkpt>
      <trkpt lat="45.81895" lon="1.93476">
        <ele>766.8</ele>
        <time>2026-07-07T10:09:57.000Z</time>
      </trkpt>
      <trkpt lat="45.81897" lon="1.93477">
        <ele>766.5</ele>
        <time>2026-07-07T10:09:58.000Z</time>
      </trkpt>
      <trkpt lat="45.81899" lon="1.93478">
        <ele>766.6</ele>
        <time>2026-07-07T10:09:59.000Z</time>
      </trkpt>
      <trkpt lat="45.81901" lon="1.93479">
        <ele>766.7</ele>
        <time>2026-07-07T10:10:00.000Z</time>
      </trkpt>
      <trkpt lat="45.81903" lon="1.9348">
        <ele>767</ele>
        <time>2026-07-07T10:10:01.000Z</time>
      </trkpt>
      <trkpt lat="45.81904" lon="1.93481">
        <ele>767.7</ele>
        <time>2026-07-07T10:10:02.000Z</time>
      </trkpt>
      <trkpt lat="45.81905" lon="1.93482">
        <ele>767.9</ele>
        <time>2026-07-07T10:10:03.000Z</time>
      </trkpt>
      <trkpt lat="45.81907" lon="1.93482">
        <ele>768.2</ele>
        <time>2026-07-07T10:10:04.000Z</time>
      </trkpt>
      <trkpt lat="45.81909" lon="1.93483">
        <ele>768.1</ele>
        <time>2026-07-07T10:10:05.000Z</time>
      </trkpt>
      <trkpt lat="45.81911" lon="1.93484">
        <ele>769.5</ele>
        <time>2026-07-07T10:10:06.000Z</time>
      </trkpt>
      <trkpt lat="45.81913" lon="1.93485">
        <ele>769.1</ele>
        <time>2026-07-07T10:10:07.000Z</time>
      </trkpt>
      <trkpt lat="45.81915" lon="1.93486">
        <ele>769.5</ele>
        <time>2026-07-07T10:10:08.000Z</time>
      </trkpt>
      <trkpt lat="45.81917" lon="1.93487">
        <ele>769</ele>
        <time>2026-07-07T10:10:09.000Z</time>
      </trkpt>
      <trkpt lat="45.81918" lon="1.93488">
        <ele>769.1</ele>
        <time>2026-07-07T10:10:10.000Z</time>
      </trkpt>
      <trkpt lat="45.8192" lon="1.93489">
        <ele>769.3</ele>
        <time>2026-07-07T10:10:11.000Z</time>
      </trkpt>
      <trkpt lat="45.81921" lon="1.9349">
        <ele>769.7</ele>
        <time>2026-07-07T10:10:12.000Z</time>
      </trkpt>
      <trkpt lat="45.81922" lon="1.93491">
        <ele>769.1</ele>
        <time>2026-07-07T10:10:13.000Z</time>
      </trkpt>
      <trkpt lat="45.81924" lon="1.93491">
        <ele>770</ele>
        <time>2026-07-07T10:10:14.000Z</time>
      </trkpt>
      <trkpt lat="45.81925" lon="1.93492">
        <ele>770</ele>
        <time>2026-07-07T10:10:15.000Z</time>
      </trkpt>
      <trkpt lat="45.81927" lon="1.93493">
        <ele>770.2</ele>
        <time>2026-07-07T10:10:16.000Z</time>
      </trkpt>
      <trkpt lat="45.81928" lon="1.93494">
        <ele>770.1</ele>
        <time>2026-07-07T10:10:17.000Z</time>
      </trkpt>
      <trkpt lat="45.8193" lon="1.93496">
        <ele>770</ele>
        <time>2026-07-07T10:10:18.000Z</time>
      </trkpt>
      <trkpt lat="45.81931" lon="1.93497">
        <ele>770.1</ele>
        <time>2026-07-07T10:10:19.000Z</time>
      </trkpt>
      <trkpt lat="45.81933" lon="1.93497">
        <ele>770.2</ele>
        <time>2026-07-07T10:10:20.000Z</time>
      </trkpt>
      <trkpt lat="45.81934" lon="1.93498">
        <ele>770.3</ele>
        <time>2026-07-07T10:10:21.000Z</time>
      </trkpt>
      <trkpt lat="45.81936" lon="1.93498">
        <ele>770.8</ele>
        <time>2026-07-07T10:10:22.000Z</time>
      </trkpt>
      <trkpt lat="45.81938" lon="1.93499">
        <ele>771.2</ele>
        <time>2026-07-07T10:10:23.000Z</time>
      </trkpt>
      <trkpt lat="45.8194" lon="1.935">
        <ele>771.6</ele>
        <time>2026-07-07T10:10:24.000Z</time>
      </trkpt>
      <trkpt lat="45.81942" lon="1.935">
        <ele>771.4</ele>
        <time>2026-07-07T10:10:25.000Z</time>
      </trkpt>
      <trkpt lat="45.81944" lon="1.935">
        <ele>771.4</ele>
        <time>2026-07-07T10:10:26.000Z</time>
      </trkpt>
      <trkpt lat="45.81945" lon="1.935">
        <ele>771.6</ele>
        <time>2026-07-07T10:10:27.000Z</time>
      </trkpt>
      <trkpt lat="45.81947" lon="1.935">
        <ele>771.7</ele>
        <time>2026-07-07T10:10:28.000Z</time>
      </trkpt>
      <trkpt lat="45.81948" lon="1.93499">
        <ele>771.6</ele>
        <time>2026-07-07T10:10:29.000Z</time>
      </trkpt>
      <trkpt lat="45.8195" lon="1.93498">
        <ele>771.1</ele>
        <time>2026-07-07T10:10:30.000Z</time>
      </trkpt>
      <trkpt lat="45.81952" lon="1.93497">
        <ele>771</ele>
        <time>2026-07-07T10:10:31.000Z</time>
      </trkpt>
      <trkpt lat="45.81954" lon="1.93496">
        <ele>770.6</ele>
        <time>2026-07-07T10:10:32.000Z</time>
      </trkpt>
      <trkpt lat="45.81955" lon="1.93495">
        <ele>770.2</ele>
        <time>2026-07-07T10:10:33.000Z</time>
      </trkpt>
      <trkpt lat="45.81956" lon="1.93493">
        <ele>770</ele>
        <time>2026-07-07T10:10:34.000Z</time>
      </trkpt>
      <trkpt lat="45.81957" lon="1.93491">
        <ele>770.5</ele>
        <time>2026-07-07T10:10:35.000Z</time>
      </trkpt>
      <trkpt lat="45.81958" lon="1.93489">
        <ele>770.8</ele>
        <time>2026-07-07T10:10:36.000Z</time>
      </trkpt>
      <trkpt lat="45.81959" lon="1.93487">
        <ele>770.6</ele>
        <time>2026-07-07T10:10:37.000Z</time>
      </trkpt>
      <trkpt lat="45.8196" lon="1.93485">
        <ele>770</ele>
        <time>2026-07-07T10:10:38.000Z</time>
      </trkpt>
      <trkpt lat="45.8196" lon="1.93483">
        <ele>769.8</ele>
        <time>2026-07-07T10:10:39.000Z</time>
      </trkpt>
      <trkpt lat="45.81961" lon="1.9348">
        <ele>769.7</ele>
        <time>2026-07-07T10:10:40.000Z</time>
      </trkpt>
      <trkpt lat="45.81961" lon="1.93478">
        <ele>769.9</ele>
        <time>2026-07-07T10:10:41.000Z</time>
      </trkpt>
      <trkpt lat="45.81961" lon="1.93475">
        <ele>769.8</ele>
        <time>2026-07-07T10:10:42.000Z</time>
      </trkpt>
      <trkpt lat="45.81962" lon="1.93473">
        <ele>769.5</ele>
        <time>2026-07-07T10:10:43.000Z</time>
      </trkpt>
      <trkpt lat="45.81961" lon="1.93471">
        <ele>769.6</ele>
        <time>2026-07-07T10:10:44.000Z</time>
      </trkpt>
      <trkpt lat="45.81961" lon="1.93469">
        <ele>769.7</ele>
        <time>2026-07-07T10:10:45.000Z</time>
      </trkpt>
      <trkpt lat="45.81962" lon="1.93467">
        <ele>770.2</ele>
        <time>2026-07-07T10:10:46.000Z</time>
      </trkpt>
      <trkpt lat="45.81961" lon="1.93465">
        <ele>770.2</ele>
        <time>2026-07-07T10:10:47.000Z</time>
      </trkpt>
      <trkpt lat="45.81962" lon="1.93463">
        <ele>770.3</ele>
        <time>2026-07-07T10:10:48.000Z</time>
      </trkpt>
      <trkpt lat="45.81961" lon="1.93461">
        <ele>769.9</ele>
        <time>2026-07-07T10:10:49.000Z</time>
      </trkpt>
      <trkpt lat="45.81962" lon="1.93458">
        <ele>769.9</ele>
        <time>2026-07-07T10:10:50.000Z</time>
      </trkpt>
      <trkpt lat="45.81962" lon="1.93456">
        <ele>769.8</ele>
        <time>2026-07-07T10:10:51.000Z</time>
      </trkpt>
      <trkpt lat="45.81962" lon="1.93454">
        <ele>769.9</ele>
        <time>2026-07-07T10:10:52.000Z</time>
      </trkpt>
      <trkpt lat="45.81962" lon="1.93452">
        <ele>769.4</ele>
        <time>2026-07-07T10:10:53.000Z</time>
      </trkpt>
      <trkpt lat="45.81962" lon="1.93449">
        <ele>770.3</ele>
        <time>2026-07-07T10:10:54.000Z</time>
      </trkpt>
      <trkpt lat="45.81963" lon="1.93447">
        <ele>771.3</ele>
        <time>2026-07-07T10:10:55.000Z</time>
      </trkpt>
      <trkpt lat="45.81963" lon="1.93444">
        <ele>771.3</ele>
        <time>2026-07-07T10:10:56.000Z</time>
      </trkpt>
      <trkpt lat="45.81964" lon="1.93442">
        <ele>770.8</ele>
        <time>2026-07-07T10:10:57.000Z</time>
      </trkpt>
      <trkpt lat="45.81965" lon="1.93439">
        <ele>771</ele>
        <time>2026-07-07T10:10:58.000Z</time>
      </trkpt>
      <trkpt lat="45.81965" lon="1.93437">
        <ele>771</ele>
        <time>2026-07-07T10:10:59.000Z</time>
      </trkpt>
      <trkpt lat="45.81966" lon="1.93435">
        <ele>770.8</ele>
        <time>2026-07-07T10:11:00.000Z</time>
      </trkpt>
      <trkpt lat="45.81967" lon="1.93433">
        <ele>770.7</ele>
        <time>2026-07-07T10:11:01.000Z</time>
      </trkpt>
      <trkpt lat="45.81967" lon="1.93431">
        <ele>770.2</ele>
        <time>2026-07-07T10:11:02.000Z</time>
      </trkpt>
      <trkpt lat="45.81968" lon="1.93429">
        <ele>770.4</ele>
        <time>2026-07-07T10:11:03.000Z</time>
      </trkpt>
      <trkpt lat="45.81969" lon="1.93427">
        <ele>770.2</ele>
        <time>2026-07-07T10:11:04.000Z</time>
      </trkpt>
      <trkpt lat="45.8197" lon="1.93424">
        <ele>772</ele>
        <time>2026-07-07T10:11:05.000Z</time>
      </trkpt>
      <trkpt lat="45.81972" lon="1.93421">
        <ele>772.5</ele>
        <time>2026-07-07T10:11:06.000Z</time>
      </trkpt>
      <trkpt lat="45.81973" lon="1.93418">
        <ele>773.2</ele>
        <time>2026-07-07T10:11:07.000Z</time>
      </trkpt>
      <trkpt lat="45.81974" lon="1.93416">
        <ele>772.5</ele>
        <time>2026-07-07T10:11:08.000Z</time>
      </trkpt>
      <trkpt lat="45.81975" lon="1.93414">
        <ele>772.7</ele>
        <time>2026-07-07T10:11:09.000Z</time>
      </trkpt>
      <trkpt lat="45.81976" lon="1.93412">
        <ele>772.6</ele>
        <time>2026-07-07T10:11:10.000Z</time>
      </trkpt>
      <trkpt lat="45.81977" lon="1.9341">
        <ele>772.3</ele>
        <time>2026-07-07T10:11:11.000Z</time>
      </trkpt>
      <trkpt lat="45.81978" lon="1.93407">
        <ele>772.4</ele>
        <time>2026-07-07T10:11:12.000Z</time>
      </trkpt>
      <trkpt lat="45.81979" lon="1.93405">
        <ele>771.8</ele>
        <time>2026-07-07T10:11:13.000Z</time>
      </trkpt>
      <trkpt lat="45.8198" lon="1.93403">
        <ele>771.3</ele>
        <time>2026-07-07T10:11:14.000Z</time>
      </trkpt>
      <trkpt lat="45.81982" lon="1.93401">
        <ele>771.2</ele>
        <time>2026-07-07T10:11:15.000Z</time>
      </trkpt>
      <trkpt lat="45.81983" lon="1.93398">
        <ele>771.2</ele>
        <time>2026-07-07T10:11:16.000Z</time>
      </trkpt>
      <trkpt lat="45.81983" lon="1.93395">
        <ele>771.4</ele>
        <time>2026-07-07T10:11:17.000Z</time>
      </trkpt>
      <trkpt lat="45.81984" lon="1.93392">
        <ele>772.4</ele>
        <time>2026-07-07T10:11:18.000Z</time>
      </trkpt>
      <trkpt lat="45.81984" lon="1.93389">
        <ele>773.5</ele>
        <time>2026-07-07T10:11:19.000Z</time>
      </trkpt>
      <trkpt lat="45.81984" lon="1.93386">
        <ele>773.3</ele>
        <time>2026-07-07T10:11:20.000Z</time>
      </trkpt>
      <trkpt lat="45.81985" lon="1.93384">
        <ele>772.9</ele>
        <time>2026-07-07T10:11:21.000Z</time>
      </trkpt>
      <trkpt lat="45.81985" lon="1.93382">
        <ele>772.1</ele>
        <time>2026-07-07T10:11:22.000Z</time>
      </trkpt>
      <trkpt lat="45.81986" lon="1.9338">
        <ele>771.9</ele>
        <time>2026-07-07T10:11:23.000Z</time>
      </trkpt>
      <trkpt lat="45.81987" lon="1.93379">
        <ele>772.1</ele>
        <time>2026-07-07T10:11:24.000Z</time>
      </trkpt>
      <trkpt lat="45.81987" lon="1.93376">
        <ele>771.5</ele>
        <time>2026-07-07T10:11:25.000Z</time>
      </trkpt>
      <trkpt lat="45.81988" lon="1.93374">
        <ele>771.3</ele>
        <time>2026-07-07T10:11:26.000Z</time>
      </trkpt>
      <trkpt lat="45.81989" lon="1.93373">
        <ele>771.2</ele>
        <time>2026-07-07T10:11:27.000Z</time>
      </trkpt>
      <trkpt lat="45.8199" lon="1.93371">
        <ele>771.1</ele>
        <time>2026-07-07T10:11:28.000Z</time>
      </trkpt>
      <trkpt lat="45.81991" lon="1.93369">
        <ele>771.5</ele>
        <time>2026-07-07T10:11:29.000Z</time>
      </trkpt>
      <trkpt lat="45.81993" lon="1.93367">
        <ele>771.2</ele>
        <time>2026-07-07T10:11:30.000Z</time>
      </trkpt>
      <trkpt lat="45.81994" lon="1.93364">
        <ele>771.2</ele>
        <time>2026-07-07T10:11:31.000Z</time>
      </trkpt>
      <trkpt lat="45.81995" lon="1.93362">
        <ele>771</ele>
        <time>2026-07-07T10:11:32.000Z</time>
      </trkpt>
      <trkpt lat="45.81996" lon="1.9336">
        <ele>771</ele>
        <time>2026-07-07T10:11:33.000Z</time>
      </trkpt>
      <trkpt lat="45.81997" lon="1.93358">
        <ele>771.1</ele>
        <time>2026-07-07T10:11:34.000Z</time>
      </trkpt>
      <trkpt lat="45.81998" lon="1.93356">
        <ele>771.6</ele>
        <time>2026-07-07T10:11:35.000Z</time>
      </trkpt>
      <trkpt lat="45.82" lon="1.93354">
        <ele>771.9</ele>
        <time>2026-07-07T10:11:36.000Z</time>
      </trkpt>
      <trkpt lat="45.82001" lon="1.93352">
        <ele>771.7</ele>
        <time>2026-07-07T10:11:37.000Z</time>
      </trkpt>
      <trkpt lat="45.82002" lon="1.9335">
        <ele>771.8</ele>
        <time>2026-07-07T10:11:38.000Z</time>
      </trkpt>
      <trkpt lat="45.82003" lon="1.93348">
        <ele>771.8</ele>
        <time>2026-07-07T10:11:39.000Z</time>
      </trkpt>
      <trkpt lat="45.82003" lon="1.93346">
        <ele>772.2</ele>
        <time>2026-07-07T10:11:40.000Z</time>
      </trkpt>
      <trkpt lat="45.82004" lon="1.93344">
        <ele>772.1</ele>
        <time>2026-07-07T10:11:41.000Z</time>
      </trkpt>
      <trkpt lat="45.82005" lon="1.93342">
        <ele>772.2</ele>
        <time>2026-07-07T10:11:42.000Z</time>
      </trkpt>
      <trkpt lat="45.82006" lon="1.9334">
        <ele>772.1</ele>
        <time>2026-07-07T10:11:43.000Z</time>
      </trkpt>
      <trkpt lat="45.82007" lon="1.93338">
        <ele>771.9</ele>
        <time>2026-07-07T10:11:44.000Z</time>
      </trkpt>
      <trkpt lat="45.82008" lon="1.93336">
        <ele>771.9</ele>
        <time>2026-07-07T10:11:45.000Z</time>
      </trkpt>
      <trkpt lat="45.82008" lon="1.93335">
        <ele>771.5</ele>
        <time>2026-07-07T10:11:46.000Z</time>
      </trkpt>
      <trkpt lat="45.82009" lon="1.93333">
        <ele>771.7</ele>
        <time>2026-07-07T10:11:47.000Z</time>
      </trkpt>
      <trkpt lat="45.8201" lon="1.93331">
        <ele>771.8</ele>
        <time>2026-07-07T10:11:48.000Z</time>
      </trkpt>
      <trkpt lat="45.82011" lon="1.93329">
        <ele>771.8</ele>
        <time>2026-07-07T10:11:49.000Z</time>
      </trkpt>
      <trkpt lat="45.82012" lon="1.93327">
        <ele>771.7</ele>
        <time>2026-07-07T10:11:50.000Z</time>
      </trkpt>
      <trkpt lat="45.82013" lon="1.93325">
        <ele>772</ele>
        <time>2026-07-07T10:11:51.000Z</time>
      </trkpt>
      <trkpt lat="45.82014" lon="1.93324">
        <ele>772.1</ele>
        <time>2026-07-07T10:11:52.000Z</time>
      </trkpt>
      <trkpt lat="45.82015" lon="1.93322">
        <ele>771.7</ele>
        <time>2026-07-07T10:11:53.000Z</time>
      </trkpt>
      <trkpt lat="45.82016" lon="1.9332">
        <ele>771.5</ele>
        <time>2026-07-07T10:11:54.000Z</time>
      </trkpt>
      <trkpt lat="45.82018" lon="1.93318">
        <ele>771.9</ele>
        <time>2026-07-07T10:11:55.000Z</time>
      </trkpt>
      <trkpt lat="45.82019" lon="1.93315">
        <ele>771.8</ele>
        <time>2026-07-07T10:11:56.000Z</time>
      </trkpt>
      <trkpt lat="45.82021" lon="1.93313">
        <ele>771</ele>
        <time>2026-07-07T10:11:57.000Z</time>
      </trkpt>
      <trkpt lat="45.82022" lon="1.93311">
        <ele>770.8</ele>
        <time>2026-07-07T10:11:58.000Z</time>
      </trkpt>
      <trkpt lat="45.82024" lon="1.93309">
        <ele>770.9</ele>
        <time>2026-07-07T10:11:59.000Z</time>
      </trkpt>
      <trkpt lat="45.82025" lon="1.93306">
        <ele>771.8</ele>
        <time>2026-07-07T10:12:00.000Z</time>
      </trkpt>
      <trkpt lat="45.82026" lon="1.93304">
        <ele>772.2</ele>
        <time>2026-07-07T10:12:01.000Z</time>
      </trkpt>
      <trkpt lat="45.82027" lon="1.93302">
        <ele>772.5</ele>
        <time>2026-07-07T10:12:02.000Z</time>
      </trkpt>
      <trkpt lat="45.82028" lon="1.933">
        <ele>772.3</ele>
        <time>2026-07-07T10:12:03.000Z</time>
      </trkpt>
      <trkpt lat="45.8203" lon="1.93298">
        <ele>772.6</ele>
        <time>2026-07-07T10:12:04.000Z</time>
      </trkpt>
      <trkpt lat="45.82031" lon="1.93295">
        <ele>772.5</ele>
        <time>2026-07-07T10:12:05.000Z</time>
      </trkpt>
      <trkpt lat="45.82033" lon="1.93293">
        <ele>772.5</ele>
        <time>2026-07-07T10:12:06.000Z</time>
      </trkpt>
      <trkpt lat="45.82034" lon="1.93292">
        <ele>772.7</ele>
        <time>2026-07-07T10:12:07.000Z</time>
      </trkpt>
      <trkpt lat="45.82036" lon="1.9329">
        <ele>772.8</ele>
        <time>2026-07-07T10:12:08.000Z</time>
      </trkpt>
      <trkpt lat="45.82037" lon="1.93288">
        <ele>773.4</ele>
        <time>2026-07-07T10:12:09.000Z</time>
      </trkpt>
      <trkpt lat="45.82038" lon="1.93285">
        <ele>773.2</ele>
        <time>2026-07-07T10:12:10.000Z</time>
      </trkpt>
      <trkpt lat="45.82039" lon="1.93283">
        <ele>773.7</ele>
        <time>2026-07-07T10:12:11.000Z</time>
      </trkpt>
      <trkpt lat="45.8204" lon="1.93281">
        <ele>774.2</ele>
        <time>2026-07-07T10:12:12.000Z</time>
      </trkpt>
      <trkpt lat="45.82041" lon="1.93279">
        <ele>774.5</ele>
        <time>2026-07-07T10:12:13.000Z</time>
      </trkpt>
      <trkpt lat="45.82042" lon="1.93277">
        <ele>774.6</ele>
        <time>2026-07-07T10:12:14.000Z</time>
      </trkpt>
      <trkpt lat="45.82043" lon="1.93274">
        <ele>774.9</ele>
        <time>2026-07-07T10:12:15.000Z</time>
      </trkpt>
      <trkpt lat="45.82044" lon="1.93272">
        <ele>775</ele>
        <time>2026-07-07T10:12:16.000Z</time>
      </trkpt>
      <trkpt lat="45.82045" lon="1.9327">
        <ele>774.4</ele>
        <time>2026-07-07T10:12:17.000Z</time>
      </trkpt>
      <trkpt lat="45.82046" lon="1.93268">
        <ele>774.2</ele>
        <time>2026-07-07T10:12:18.000Z</time>
      </trkpt>
      <trkpt lat="45.82047" lon="1.93265">
        <ele>774</ele>
        <time>2026-07-07T10:12:19.000Z</time>
      </trkpt>
      <trkpt lat="45.82048" lon="1.93263">
        <ele>773.7</ele>
        <time>2026-07-07T10:12:20.000Z</time>
      </trkpt>
      <trkpt lat="45.82049" lon="1.93261">
        <ele>773.7</ele>
        <time>2026-07-07T10:12:21.000Z</time>
      </trkpt>
      <trkpt lat="45.8205" lon="1.93259">
        <ele>774.4</ele>
        <time>2026-07-07T10:12:22.000Z</time>
      </trkpt>
      <trkpt lat="45.8205" lon="1.93257">
        <ele>773.6</ele>
        <time>2026-07-07T10:12:23.000Z</time>
      </trkpt>
      <trkpt lat="45.82051" lon="1.93256">
        <ele>773.6</ele>
        <time>2026-07-07T10:12:24.000Z</time>
      </trkpt>
      <trkpt lat="45.82051" lon="1.93254">
        <ele>772.6</ele>
        <time>2026-07-07T10:12:25.000Z</time>
      </trkpt>
      <trkpt lat="45.82052" lon="1.93252">
        <ele>772.6</ele>
        <time>2026-07-07T10:12:26.000Z</time>
      </trkpt>
      <trkpt lat="45.82053" lon="1.9325">
        <ele>772.7</ele>
        <time>2026-07-07T10:12:27.000Z</time>
      </trkpt>
      <trkpt lat="45.82054" lon="1.93248">
        <ele>772.8</ele>
        <time>2026-07-07T10:12:28.000Z</time>
      </trkpt>
      <trkpt lat="45.82055" lon="1.93246">
        <ele>773.3</ele>
        <time>2026-07-07T10:12:29.000Z</time>
      </trkpt>
      <trkpt lat="45.82056" lon="1.93244">
        <ele>773</ele>
        <time>2026-07-07T10:12:30.000Z</time>
      </trkpt>
      <trkpt lat="45.82056" lon="1.93242">
        <ele>772.6</ele>
        <time>2026-07-07T10:12:31.000Z</time>
      </trkpt>
      <trkpt lat="45.82057" lon="1.9324">
        <ele>772.5</ele>
        <time>2026-07-07T10:12:32.000Z</time>
      </trkpt>
      <trkpt lat="45.82057" lon="1.93238">
        <ele>773</ele>
        <time>2026-07-07T10:12:33.000Z</time>
      </trkpt>
      <trkpt lat="45.82058" lon="1.93236">
        <ele>772.9</ele>
        <time>2026-07-07T10:12:34.000Z</time>
      </trkpt>
      <trkpt lat="45.82059" lon="1.93234">
        <ele>772.7</ele>
        <time>2026-07-07T10:12:35.000Z</time>
      </trkpt>
      <trkpt lat="45.8206" lon="1.93232">
        <ele>772.1</ele>
        <time>2026-07-07T10:12:36.000Z</time>
      </trkpt>
      <trkpt lat="45.8206" lon="1.9323">
        <ele>772.1</ele>
        <time>2026-07-07T10:12:37.000Z</time>
      </trkpt>
      <trkpt lat="45.82062" lon="1.93229">
        <ele>771.3</ele>
        <time>2026-07-07T10:12:38.000Z</time>
      </trkpt>
      <trkpt lat="45.82063" lon="1.93227">
        <ele>771.8</ele>
        <time>2026-07-07T10:12:39.000Z</time>
      </trkpt>
      <trkpt lat="45.82063" lon="1.93224">
        <ele>772.4</ele>
        <time>2026-07-07T10:12:40.000Z</time>
      </trkpt>
      <trkpt lat="45.82064" lon="1.93222">
        <ele>772.6</ele>
        <time>2026-07-07T10:12:41.000Z</time>
      </trkpt>
      <trkpt lat="45.82064" lon="1.93219">
        <ele>772.8</ele>
        <time>2026-07-07T10:12:42.000Z</time>
      </trkpt>
      <trkpt lat="45.82065" lon="1.93217">
        <ele>772.5</ele>
        <time>2026-07-07T10:12:43.000Z</time>
      </trkpt>
      <trkpt lat="45.82065" lon="1.93215">
        <ele>772.4</ele>
        <time>2026-07-07T10:12:44.000Z</time>
      </trkpt>
      <trkpt lat="45.82066" lon="1.93212">
        <ele>772.6</ele>
        <time>2026-07-07T10:12:45.000Z</time>
      </trkpt>
      <trkpt lat="45.82066" lon="1.9321">
        <ele>772.5</ele>
        <time>2026-07-07T10:12:46.000Z</time>
      </trkpt>
      <trkpt lat="45.82067" lon="1.93208">
        <ele>772.5</ele>
        <time>2026-07-07T10:12:47.000Z</time>
      </trkpt>
      <trkpt lat="45.82068" lon="1.93206">
        <ele>772.7</ele>
        <time>2026-07-07T10:12:48.000Z</time>
      </trkpt>
      <trkpt lat="45.82068" lon="1.93204">
        <ele>772.8</ele>
        <time>2026-07-07T10:12:49.000Z</time>
      </trkpt>
      <trkpt lat="45.82069" lon="1.93202">
        <ele>772.9</ele>
        <time>2026-07-07T10:12:50.000Z</time>
      </trkpt>
      <trkpt lat="45.82069" lon="1.932">
        <ele>772.7</ele>
        <time>2026-07-07T10:12:51.000Z</time>
      </trkpt>
      <trkpt lat="45.8207" lon="1.93197">
        <ele>772.9</ele>
        <time>2026-07-07T10:12:52.000Z</time>
      </trkpt>
      <trkpt lat="45.82069" lon="1.93195">
        <ele>772.5</ele>
        <time>2026-07-07T10:12:53.000Z</time>
      </trkpt>
      <trkpt lat="45.82069" lon="1.93192">
        <ele>772.3</ele>
        <time>2026-07-07T10:12:54.000Z</time>
      </trkpt>
      <trkpt lat="45.82069" lon="1.9319">
        <ele>772.5</ele>
        <time>2026-07-07T10:12:55.000Z</time>
      </trkpt>
      <trkpt lat="45.82068" lon="1.93189">
        <ele>772.5</ele>
        <time>2026-07-07T10:12:56.000Z</time>
      </trkpt>
      <trkpt lat="45.82067" lon="1.93185">
        <ele>771.9</ele>
        <time>2026-07-07T10:12:57.000Z</time>
      </trkpt>
      <trkpt lat="45.82066" lon="1.93183">
        <ele>771.9</ele>
        <time>2026-07-07T10:12:58.000Z</time>
      </trkpt>
      <trkpt lat="45.82065" lon="1.9318">
        <ele>771.9</ele>
        <time>2026-07-07T10:12:59.000Z</time>
      </trkpt>
      <trkpt lat="45.82065" lon="1.93178">
        <ele>773.1</ele>
        <time>2026-07-07T10:13:00.000Z</time>
      </trkpt>
      <trkpt lat="45.82063" lon="1.93176">
        <ele>772.9</ele>
        <time>2026-07-07T10:13:01.000Z</time>
      </trkpt>
      <trkpt lat="45.82061" lon="1.93174">
        <ele>772.6</ele>
        <time>2026-07-07T10:13:02.000Z</time>
      </trkpt>
      <trkpt lat="45.8206" lon="1.93171">
        <ele>772.7</ele>
        <time>2026-07-07T10:13:03.000Z</time>
      </trkpt>
      <trkpt lat="45.82059" lon="1.93169">
        <ele>772.7</ele>
        <time>2026-07-07T10:13:04.000Z</time>
      </trkpt>
      <trkpt lat="45.82058" lon="1.93166">
        <ele>772.5</ele>
        <time>2026-07-07T10:13:05.000Z</time>
      </trkpt>
      <trkpt lat="45.82057" lon="1.93164">
        <ele>772.4</ele>
        <time>2026-07-07T10:13:06.000Z</time>
      </trkpt>
      <trkpt lat="45.82056" lon="1.93162">
        <ele>772.3</ele>
        <time>2026-07-07T10:13:07.000Z</time>
      </trkpt>
      <trkpt lat="45.82055" lon="1.9316">
        <ele>772.1</ele>
        <time>2026-07-07T10:13:08.000Z</time>
      </trkpt>
      <trkpt lat="45.82054" lon="1.93157">
        <ele>771.8</ele>
        <time>2026-07-07T10:13:09.000Z</time>
      </trkpt>
      <trkpt lat="45.82053" lon="1.93155">
        <ele>771.7</ele>
        <time>2026-07-07T10:13:10.000Z</time>
      </trkpt>
      <trkpt lat="45.82051" lon="1.93152">
        <ele>771.6</ele>
        <time>2026-07-07T10:13:11.000Z</time>
      </trkpt>
      <trkpt lat="45.82051" lon="1.93149">
        <ele>771.4</ele>
        <time>2026-07-07T10:13:12.000Z</time>
      </trkpt>
      <trkpt lat="45.8205" lon="1.93146">
        <ele>771.4</ele>
        <time>2026-07-07T10:13:13.000Z</time>
      </trkpt>
      <trkpt lat="45.82049" lon="1.93144">
        <ele>771.5</ele>
        <time>2026-07-07T10:13:14.000Z</time>
      </trkpt>
      <trkpt lat="45.82048" lon="1.93141">
        <ele>771.4</ele>
        <time>2026-07-07T10:13:15.000Z</time>
      </trkpt>
      <trkpt lat="45.82047" lon="1.93139">
        <ele>771.3</ele>
        <time>2026-07-07T10:13:16.000Z</time>
      </trkpt>
      <trkpt lat="45.82046" lon="1.93136">
        <ele>771.3</ele>
        <time>2026-07-07T10:13:17.000Z</time>
      </trkpt>
      <trkpt lat="45.82045" lon="1.93134">
        <ele>771.2</ele>
        <time>2026-07-07T10:13:18.000Z</time>
      </trkpt>
      <trkpt lat="45.82044" lon="1.93132">
        <ele>771.3</ele>
        <time>2026-07-07T10:13:19.000Z</time>
      </trkpt>
      <trkpt lat="45.82043" lon="1.9313">
        <ele>771.1</ele>
        <time>2026-07-07T10:13:20.000Z</time>
      </trkpt>
      <trkpt lat="45.82042" lon="1.93128">
        <ele>771</ele>
        <time>2026-07-07T10:13:21.000Z</time>
      </trkpt>
      <trkpt lat="45.82041" lon="1.93126">
        <ele>771.4</ele>
        <time>2026-07-07T10:13:22.000Z</time>
      </trkpt>
      <trkpt lat="45.82041" lon="1.93124">
        <ele>771.3</ele>
        <time>2026-07-07T10:13:23.000Z</time>
      </trkpt>
      <trkpt lat="45.82041" lon="1.93121">
        <ele>770.7</ele>
        <time>2026-07-07T10:13:24.000Z</time>
      </trkpt>
      <trkpt lat="45.82038" lon="1.93121">
        <ele>771</ele>
        <time>2026-07-07T10:13:25.000Z</time>
      </trkpt>
      <trkpt lat="45.82037" lon="1.93119">
        <ele>771.2</ele>
        <time>2026-07-07T10:13:26.000Z</time>
      </trkpt>
      <trkpt lat="45.82035" lon="1.93117">
        <ele>771.3</ele>
        <time>2026-07-07T10:13:27.000Z</time>
      </trkpt>
      <trkpt lat="45.82034" lon="1.93115">
        <ele>771.1</ele>
        <time>2026-07-07T10:13:28.000Z</time>
      </trkpt>
      <trkpt lat="45.82034" lon="1.93114">
        <ele>771.1</ele>
        <time>2026-07-07T10:13:29.000Z</time>
      </trkpt>
      <trkpt lat="45.82032" lon="1.93112">
        <ele>771.3</ele>
        <time>2026-07-07T10:13:30.000Z</time>
      </trkpt>
      <trkpt lat="45.82031" lon="1.93111">
        <ele>771.2</ele>
        <time>2026-07-07T10:13:31.000Z</time>
      </trkpt>
      <trkpt lat="45.82029" lon="1.93109">
        <ele>771.1</ele>
        <time>2026-07-07T10:13:32.000Z</time>
      </trkpt>
      <trkpt lat="45.82028" lon="1.93108">
        <ele>771.4</ele>
        <time>2026-07-07T10:13:33.000Z</time>
      </trkpt>
      <trkpt lat="45.82026" lon="1.93106">
        <ele>771.1</ele>
        <time>2026-07-07T10:13:34.000Z</time>
      </trkpt>
      <trkpt lat="45.82025" lon="1.93104">
        <ele>771</ele>
        <time>2026-07-07T10:13:35.000Z</time>
      </trkpt>
      <trkpt lat="45.82023" lon="1.93103">
        <ele>770.3</ele>
        <time>2026-07-07T10:13:36.000Z</time>
      </trkpt>
      <trkpt lat="45.82021" lon="1.93101">
        <ele>770.4</ele>
        <time>2026-07-07T10:13:37.000Z</time>
      </trkpt>
      <trkpt lat="45.82018" lon="1.931">
        <ele>771.3</ele>
        <time>2026-07-07T10:13:38.000Z</time>
      </trkpt>
      <trkpt lat="45.82016" lon="1.93099">
        <ele>771.7</ele>
        <time>2026-07-07T10:13:39.000Z</time>
      </trkpt>
      <trkpt lat="45.82015" lon="1.93097">
        <ele>771.1</ele>
        <time>2026-07-07T10:13:40.000Z</time>
      </trkpt>
      <trkpt lat="45.82013" lon="1.93097">
        <ele>770.8</ele>
        <time>2026-07-07T10:13:41.000Z</time>
      </trkpt>
      <trkpt lat="45.82012" lon="1.93096">
        <ele>770.9</ele>
        <time>2026-07-07T10:13:42.000Z</time>
      </trkpt>
      <trkpt lat="45.82011" lon="1.93095">
        <ele>770.6</ele>
        <time>2026-07-07T10:13:43.000Z</time>
      </trkpt>
      <trkpt lat="45.82009" lon="1.93095">
        <ele>770.3</ele>
        <time>2026-07-07T10:13:44.000Z</time>
      </trkpt>
      <trkpt lat="45.82007" lon="1.93094">
        <ele>770.1</ele>
        <time>2026-07-07T10:13:45.000Z</time>
      </trkpt>
      <trkpt lat="45.82006" lon="1.93092">
        <ele>769.7</ele>
        <time>2026-07-07T10:13:46.000Z</time>
      </trkpt>
      <trkpt lat="45.82005" lon="1.93091">
        <ele>769.3</ele>
        <time>2026-07-07T10:13:47.000Z</time>
      </trkpt>
      <trkpt lat="45.82003" lon="1.9309">
        <ele>769</ele>
        <time>2026-07-07T10:13:48.000Z</time>
      </trkpt>
      <trkpt lat="45.82002" lon="1.93089">
        <ele>768.5</ele>
        <time>2026-07-07T10:13:49.000Z</time>
      </trkpt>
      <trkpt lat="45.82" lon="1.93089">
        <ele>768.1</ele>
        <time>2026-07-07T10:13:50.000Z</time>
      </trkpt>
      <trkpt lat="45.81999" lon="1.93088">
        <ele>767.8</ele>
        <time>2026-07-07T10:13:51.000Z</time>
      </trkpt>
      <trkpt lat="45.81997" lon="1.93087">
        <ele>767.4</ele>
        <time>2026-07-07T10:13:52.000Z</time>
      </trkpt>
      <trkpt lat="45.81996" lon="1.93086">
        <ele>767</ele>
        <time>2026-07-07T10:13:53.000Z</time>
      </trkpt>
      <trkpt lat="45.81995" lon="1.93085">
        <ele>766.6</ele>
        <time>2026-07-07T10:13:54.000Z</time>
      </trkpt>
      <trkpt lat="45.81994" lon="1.93085">
        <ele>766.7</ele>
        <time>2026-07-07T10:13:55.000Z</time>
      </trkpt>
      <trkpt lat="45.81992" lon="1.93083">
        <ele>766.6</ele>
        <time>2026-07-07T10:13:56.000Z</time>
      </trkpt>
      <trkpt lat="45.8199" lon="1.93082">
        <ele>766.5</ele>
        <time>2026-07-07T10:13:57.000Z</time>
      </trkpt>
      <trkpt lat="45.81989" lon="1.9308">
        <ele>766.3</ele>
        <time>2026-07-07T10:13:58.000Z</time>
      </trkpt>
      <trkpt lat="45.81988" lon="1.93078">
        <ele>766.3</ele>
        <time>2026-07-07T10:13:59.000Z</time>
      </trkpt>
      <trkpt lat="45.81986" lon="1.93077">
        <ele>766.2</ele>
        <time>2026-07-07T10:14:00.000Z</time>
      </trkpt>
      <trkpt lat="45.81985" lon="1.93076">
        <ele>766.5</ele>
        <time>2026-07-07T10:14:01.000Z</time>
      </trkpt>
      <trkpt lat="45.81984" lon="1.93073">
        <ele>766.6</ele>
        <time>2026-07-07T10:14:02.000Z</time>
      </trkpt>
      <trkpt lat="45.81983" lon="1.93073">
        <ele>765.7</ele>
        <time>2026-07-07T10:14:03.000Z</time>
      </trkpt>
      <trkpt lat="45.81982" lon="1.93071">
        <ele>766</ele>
        <time>2026-07-07T10:14:04.000Z</time>
      </trkpt>
      <trkpt lat="45.81981" lon="1.9307">
        <ele>766</ele>
        <time>2026-07-07T10:14:05.000Z</time>
      </trkpt>
      <trkpt lat="45.8198" lon="1.93068">
        <ele>766.1</ele>
        <time>2026-07-07T10:14:06.000Z</time>
      </trkpt>
      <trkpt lat="45.81979" lon="1.93066">
        <ele>765.8</ele>
        <time>2026-07-07T10:14:07.000Z</time>
      </trkpt>
      <trkpt lat="45.81978" lon="1.93064">
        <ele>765.7</ele>
        <time>2026-07-07T10:14:08.000Z</time>
      </trkpt>
      <trkpt lat="45.81977" lon="1.93062">
        <ele>765.8</ele>
        <time>2026-07-07T10:14:09.000Z</time>
      </trkpt>
      <trkpt lat="45.81976" lon="1.93061">
        <ele>765.4</ele>
        <time>2026-07-07T10:14:10.000Z</time>
      </trkpt>
      <trkpt lat="45.81975" lon="1.93059">
        <ele>765.2</ele>
        <time>2026-07-07T10:14:11.000Z</time>
      </trkpt>
      <trkpt lat="45.81973" lon="1.93057">
        <ele>765.2</ele>
        <time>2026-07-07T10:14:12.000Z</time>
      </trkpt>
      <trkpt lat="45.81973" lon="1.93055">
        <ele>765.1</ele>
        <time>2026-07-07T10:14:13.000Z</time>
      </trkpt>
      <trkpt lat="45.81972" lon="1.93053">
        <ele>764.8</ele>
        <time>2026-07-07T10:14:14.000Z</time>
      </trkpt>
      <trkpt lat="45.81971" lon="1.9305">
        <ele>764.7</ele>
        <time>2026-07-07T10:14:15.000Z</time>
      </trkpt>
      <trkpt lat="45.8197" lon="1.93047">
        <ele>764.9</ele>
        <time>2026-07-07T10:14:16.000Z</time>
      </trkpt>
      <trkpt lat="45.8197" lon="1.93044">
        <ele>764.9</ele>
        <time>2026-07-07T10:14:17.000Z</time>
      </trkpt>
      <trkpt lat="45.81969" lon="1.93042">
        <ele>764.9</ele>
        <time>2026-07-07T10:14:18.000Z</time>
      </trkpt>
      <trkpt lat="45.81969" lon="1.9304">
        <ele>763.5</ele>
        <time>2026-07-07T10:14:19.000Z</time>
      </trkpt>
      <trkpt lat="45.81969" lon="1.93037">
        <ele>763.6</ele>
        <time>2026-07-07T10:14:20.000Z</time>
      </trkpt>
      <trkpt lat="45.81969" lon="1.93034">
        <ele>763.1</ele>
        <time>2026-07-07T10:14:21.000Z</time>
      </trkpt>
      <trkpt lat="45.81969" lon="1.93032">
        <ele>763.8</ele>
        <time>2026-07-07T10:14:22.000Z</time>
      </trkpt>
      <trkpt lat="45.8197" lon="1.93029">
        <ele>764.9</ele>
        <time>2026-07-07T10:14:23.000Z</time>
      </trkpt>
      <trkpt lat="45.81973" lon="1.93029">
        <ele>764.6</ele>
        <time>2026-07-07T10:14:24.000Z</time>
      </trkpt>
      <trkpt lat="45.81975" lon="1.93029">
        <ele>765</ele>
        <time>2026-07-07T10:14:25.000Z</time>
      </trkpt>
      <trkpt lat="45.81977" lon="1.93029">
        <ele>765.7</ele>
        <time>2026-07-07T10:14:26.000Z</time>
      </trkpt>
      <trkpt lat="45.8198" lon="1.93029">
        <ele>766.1</ele>
        <time>2026-07-07T10:14:27.000Z</time>
      </trkpt>
      <trkpt lat="45.81981" lon="1.93028">
        <ele>766.3</ele>
        <time>2026-07-07T10:14:28.000Z</time>
      </trkpt>
      <trkpt lat="45.81983" lon="1.93027">
        <ele>766.4</ele>
        <time>2026-07-07T10:14:29.000Z</time>
      </trkpt>
      <trkpt lat="45.81985" lon="1.93026">
        <ele>766.5</ele>
        <time>2026-07-07T10:14:30.000Z</time>
      </trkpt>
      <trkpt lat="45.81987" lon="1.93025">
        <ele>766.5</ele>
        <time>2026-07-07T10:14:31.000Z</time>
      </trkpt>
      <trkpt lat="45.81988" lon="1.93024">
        <ele>766.9</ele>
        <time>2026-07-07T10:14:32.000Z</time>
      </trkpt>
      <trkpt lat="45.8199" lon="1.93023">
        <ele>766.9</ele>
        <time>2026-07-07T10:14:33.000Z</time>
      </trkpt>
      <trkpt lat="45.81992" lon="1.93023">
        <ele>766.9</ele>
        <time>2026-07-07T10:14:34.000Z</time>
      </trkpt>
      <trkpt lat="45.81993" lon="1.93022">
        <ele>767</ele>
        <time>2026-07-07T10:14:35.000Z</time>
      </trkpt>
      <trkpt lat="45.81995" lon="1.93021">
        <ele>767.2</ele>
        <time>2026-07-07T10:14:36.000Z</time>
      </trkpt>
      <trkpt lat="45.81997" lon="1.9302">
        <ele>767.2</ele>
        <time>2026-07-07T10:14:37.000Z</time>
      </trkpt>
      <trkpt lat="45.81998" lon="1.93019">
        <ele>767.2</ele>
        <time>2026-07-07T10:14:38.000Z</time>
      </trkpt>
      <trkpt lat="45.82" lon="1.93018">
        <ele>767.5</ele>
        <time>2026-07-07T10:14:39.000Z</time>
      </trkpt>
      <trkpt lat="45.82001" lon="1.93017">
        <ele>767.5</ele>
        <time>2026-07-07T10:14:40.000Z</time>
      </trkpt>
      <trkpt lat="45.82003" lon="1.93016">
        <ele>767.4</ele>
        <time>2026-07-07T10:14:41.000Z</time>
      </trkpt>
      <trkpt lat="45.82005" lon="1.93015">
        <ele>767.6</ele>
        <time>2026-07-07T10:14:42.000Z</time>
      </trkpt>
      <trkpt lat="45.82006" lon="1.93014">
        <ele>767.7</ele>
        <time>2026-07-07T10:14:43.000Z</time>
      </trkpt>
      <trkpt lat="45.82007" lon="1.93013">
        <ele>767.7</ele>
        <time>2026-07-07T10:14:44.000Z</time>
      </trkpt>
      <trkpt lat="45.82009" lon="1.93012">
        <ele>767.6</ele>
        <time>2026-07-07T10:14:45.000Z</time>
      </trkpt>
      <trkpt lat="45.8201" lon="1.93011">
        <ele>767.3</ele>
        <time>2026-07-07T10:14:46.000Z</time>
      </trkpt>
      <trkpt lat="45.82011" lon="1.93009">
        <ele>767.3</ele>
        <time>2026-07-07T10:14:47.000Z</time>
      </trkpt>
      <trkpt lat="45.82012" lon="1.93008">
        <ele>766.9</ele>
        <time>2026-07-07T10:14:48.000Z</time>
      </trkpt>
      <trkpt lat="45.82014" lon="1.93006">
        <ele>766.5</ele>
        <time>2026-07-07T10:14:49.000Z</time>
      </trkpt>
      <trkpt lat="45.82016" lon="1.93004">
        <ele>766.3</ele>
        <time>2026-07-07T10:14:50.000Z</time>
      </trkpt>
      <trkpt lat="45.82018" lon="1.93003">
        <ele>766.1</ele>
        <time>2026-07-07T10:14:51.000Z</time>
      </trkpt>
      <trkpt lat="45.82021" lon="1.93002">
        <ele>765.6</ele>
        <time>2026-07-07T10:14:52.000Z</time>
      </trkpt>
      <trkpt lat="45.82022" lon="1.93001">
        <ele>765.4</ele>
        <time>2026-07-07T10:14:53.000Z</time>
      </trkpt>
      <trkpt lat="45.82023" lon="1.93">
        <ele>765.1</ele>
        <time>2026-07-07T10:14:54.000Z</time>
      </trkpt>
      <trkpt lat="45.82025" lon="1.92999">
        <ele>765</ele>
        <time>2026-07-07T10:14:55.000Z</time>
      </trkpt>
      <trkpt lat="45.82026" lon="1.92997">
        <ele>764.9</ele>
        <time>2026-07-07T10:14:56.000Z</time>
      </trkpt>
      <trkpt lat="45.82028" lon="1.92996">
        <ele>764.9</ele>
        <time>2026-07-07T10:14:57.000Z</time>
      </trkpt>
      <trkpt lat="45.82029" lon="1.92995">
        <ele>765</ele>
        <time>2026-07-07T10:14:58.000Z</time>
      </trkpt>
      <trkpt lat="45.82031" lon="1.92995">
        <ele>764.9</ele>
        <time>2026-07-07T10:14:59.000Z</time>
      </trkpt>
      <trkpt lat="45.82033" lon="1.92994">
        <ele>764.9</ele>
        <time>2026-07-07T10:15:00.000Z</time>
      </trkpt>
      <trkpt lat="45.82035" lon="1.92994">
        <ele>764.9</ele>
        <time>2026-07-07T10:15:01.000Z</time>
      </trkpt>
      <trkpt lat="45.82037" lon="1.92993">
        <ele>765.3</ele>
        <time>2026-07-07T10:15:02.000Z</time>
      </trkpt>
      <trkpt lat="45.82038" lon="1.92993">
        <ele>765.1</ele>
        <time>2026-07-07T10:15:03.000Z</time>
      </trkpt>
      <trkpt lat="45.8204" lon="1.92992">
        <ele>765.1</ele>
        <time>2026-07-07T10:15:04.000Z</time>
      </trkpt>
      <trkpt lat="45.82042" lon="1.92992">
        <ele>764.7</ele>
        <time>2026-07-07T10:15:05.000Z</time>
      </trkpt>
      <trkpt lat="45.82043" lon="1.92992">
        <ele>764.9</ele>
        <time>2026-07-07T10:15:06.000Z</time>
      </trkpt>
      <trkpt lat="45.82045" lon="1.92992">
        <ele>765</ele>
        <time>2026-07-07T10:15:07.000Z</time>
      </trkpt>
      <trkpt lat="45.82047" lon="1.92993">
        <ele>764.8</ele>
        <time>2026-07-07T10:15:08.000Z</time>
      </trkpt>
      <trkpt lat="45.82049" lon="1.92994">
        <ele>764.6</ele>
        <time>2026-07-07T10:15:09.000Z</time>
      </trkpt>
      <trkpt lat="45.82052" lon="1.92994">
        <ele>764.4</ele>
        <time>2026-07-07T10:15:10.000Z</time>
      </trkpt>
      <trkpt lat="45.82053" lon="1.92995">
        <ele>764.8</ele>
        <time>2026-07-07T10:15:11.000Z</time>
      </trkpt>
      <trkpt lat="45.82055" lon="1.92996">
        <ele>765.3</ele>
        <time>2026-07-07T10:15:12.000Z</time>
      </trkpt>
      <trkpt lat="45.82057" lon="1.92997">
        <ele>765.5</ele>
        <time>2026-07-07T10:15:13.000Z</time>
      </trkpt>
      <trkpt lat="45.82059" lon="1.92998">
        <ele>765.3</ele>
        <time>2026-07-07T10:15:14.000Z</time>
      </trkpt>
      <trkpt lat="45.82061" lon="1.92999">
        <ele>765.9</ele>
        <time>2026-07-07T10:15:15.000Z</time>
      </trkpt>
      <trkpt lat="45.82062" lon="1.92999">
        <ele>765.5</ele>
        <time>2026-07-07T10:15:16.000Z</time>
      </trkpt>
      <trkpt lat="45.82064" lon="1.93">
        <ele>765.6</ele>
        <time>2026-07-07T10:15:17.000Z</time>
      </trkpt>
      <trkpt lat="45.82065" lon="1.93">
        <ele>765.6</ele>
        <time>2026-07-07T10:15:18.000Z</time>
      </trkpt>
      <trkpt lat="45.82067" lon="1.93">
        <ele>765.2</ele>
        <time>2026-07-07T10:15:19.000Z</time>
      </trkpt>
      <trkpt lat="45.82068" lon="1.93001">
        <ele>764.9</ele>
        <time>2026-07-07T10:15:20.000Z</time>
      </trkpt>
      <trkpt lat="45.8207" lon="1.93001">
        <ele>764.7</ele>
        <time>2026-07-07T10:15:21.000Z</time>
      </trkpt>
      <trkpt lat="45.82071" lon="1.93002">
        <ele>763.9</ele>
        <time>2026-07-07T10:15:22.000Z</time>
      </trkpt>
      <trkpt lat="45.82073" lon="1.93002">
        <ele>763.9</ele>
        <time>2026-07-07T10:15:23.000Z</time>
      </trkpt>
      <trkpt lat="45.82075" lon="1.93003">
        <ele>763.7</ele>
        <time>2026-07-07T10:15:24.000Z</time>
      </trkpt>
      <trkpt lat="45.82077" lon="1.93004">
        <ele>764.1</ele>
        <time>2026-07-07T10:15:25.000Z</time>
      </trkpt>
      <trkpt lat="45.82079" lon="1.93005">
        <ele>765.1</ele>
        <time>2026-07-07T10:15:26.000Z</time>
      </trkpt>
      <trkpt lat="45.82081" lon="1.93006">
        <ele>765.5</ele>
        <time>2026-07-07T10:15:27.000Z</time>
      </trkpt>
      <trkpt lat="45.82083" lon="1.93007">
        <ele>766</ele>
        <time>2026-07-07T10:15:28.000Z</time>
      </trkpt>
      <trkpt lat="45.82086" lon="1.93008">
        <ele>766.5</ele>
        <time>2026-07-07T10:15:29.000Z</time>
      </trkpt>
      <trkpt lat="45.82088" lon="1.93007">
        <ele>765.1</ele>
        <time>2026-07-07T10:15:30.000Z</time>
      </trkpt>
      <trkpt lat="45.82091" lon="1.93008">
        <ele>764.9</ele>
        <time>2026-07-07T10:15:31.000Z</time>
      </trkpt>
      <trkpt lat="45.82093" lon="1.93008">
        <ele>764.5</ele>
        <time>2026-07-07T10:15:32.000Z</time>
      </trkpt>
      <trkpt lat="45.82096" lon="1.93008">
        <ele>764.4</ele>
        <time>2026-07-07T10:15:33.000Z</time>
      </trkpt>
      <trkpt lat="45.82099" lon="1.93008">
        <ele>765.3</ele>
        <time>2026-07-07T10:15:34.000Z</time>
      </trkpt>
      <trkpt lat="45.82101" lon="1.93009">
        <ele>765.6</ele>
        <time>2026-07-07T10:15:35.000Z</time>
      </trkpt>
      <trkpt lat="45.82104" lon="1.93009">
        <ele>765.2</ele>
        <time>2026-07-07T10:15:36.000Z</time>
      </trkpt>
      <trkpt lat="45.82107" lon="1.93009">
        <ele>765.1</ele>
        <time>2026-07-07T10:15:37.000Z</time>
      </trkpt>
      <trkpt lat="45.8211" lon="1.9301">
        <ele>766.2</ele>
        <time>2026-07-07T10:15:38.000Z</time>
      </trkpt>
      <trkpt lat="45.82114" lon="1.9301">
        <ele>766.2</ele>
        <time>2026-07-07T10:15:39.000Z</time>
      </trkpt>
      <trkpt lat="45.82117" lon="1.9301">
        <ele>766.3</ele>
        <time>2026-07-07T10:15:40.000Z</time>
      </trkpt>
      <trkpt lat="45.8212" lon="1.9301">
        <ele>766.9</ele>
        <time>2026-07-07T10:15:41.000Z</time>
      </trkpt>
      <trkpt lat="45.82123" lon="1.9301">
        <ele>767</ele>
        <time>2026-07-07T10:15:42.000Z</time>
      </trkpt>
      <trkpt lat="45.82126" lon="1.93009">
        <ele>767.1</ele>
        <time>2026-07-07T10:15:43.000Z</time>
      </trkpt>
      <trkpt lat="45.82129" lon="1.93008">
        <ele>766.7</ele>
        <time>2026-07-07T10:15:44.000Z</time>
      </trkpt>
      <trkpt lat="45.82132" lon="1.93007">
        <ele>766.1</ele>
        <time>2026-07-07T10:15:45.000Z</time>
      </trkpt>
      <trkpt lat="45.82135" lon="1.93007">
        <ele>766.4</ele>
        <time>2026-07-07T10:15:46.000Z</time>
      </trkpt>
      <trkpt lat="45.82138" lon="1.93009">
        <ele>766</ele>
        <time>2026-07-07T10:15:47.000Z</time>
      </trkpt>
      <trkpt lat="45.82141" lon="1.9301">
        <ele>766.5</ele>
        <time>2026-07-07T10:15:48.000Z</time>
      </trkpt>
      <trkpt lat="45.82143" lon="1.9301">
        <ele>766.4</ele>
        <time>2026-07-07T10:15:49.000Z</time>
      </trkpt>
      <trkpt lat="45.82146" lon="1.9301">
        <ele>765</ele>
        <time>2026-07-07T10:15:50.000Z</time>
      </trkpt>
      <trkpt lat="45.8215" lon="1.9301">
        <ele>764.9</ele>
        <time>2026-07-07T10:15:51.000Z</time>
      </trkpt>
      <trkpt lat="45.82154" lon="1.93011">
        <ele>765.6</ele>
        <time>2026-07-07T10:15:52.000Z</time>
      </trkpt>
      <trkpt lat="45.82157" lon="1.93014">
        <ele>765.7</ele>
        <time>2026-07-07T10:15:53.000Z</time>
      </trkpt>
      <trkpt lat="45.8216" lon="1.93015">
        <ele>766.5</ele>
        <time>2026-07-07T10:15:54.000Z</time>
      </trkpt>
      <trkpt lat="45.82163" lon="1.93014">
        <ele>766.8</ele>
        <time>2026-07-07T10:15:55.000Z</time>
      </trkpt>
      <trkpt lat="45.82165" lon="1.93013">
        <ele>767.3</ele>
        <time>2026-07-07T10:15:56.000Z</time>
      </trkpt>
      <trkpt lat="45.82167" lon="1.93013">
        <ele>767.4</ele>
        <time>2026-07-07T10:15:57.000Z</time>
      </trkpt>
      <trkpt lat="45.8217" lon="1.93013">
        <ele>767.3</ele>
        <time>2026-07-07T10:15:58.000Z</time>
      </trkpt>
      <trkpt lat="45.82172" lon="1.93014">
        <ele>767.1</ele>
        <time>2026-07-07T10:15:59.000Z</time>
      </trkpt>
      <trkpt lat="45.82176" lon="1.93013">
        <ele>769.4</ele>
        <time>2026-07-07T10:16:00.000Z</time>
      </trkpt>
      <trkpt lat="45.82179" lon="1.93014">
        <ele>770.1</ele>
        <time>2026-07-07T10:16:01.000Z</time>
      </trkpt>
      <trkpt lat="45.82182" lon="1.93014">
        <ele>770.6</ele>
        <time>2026-07-07T10:16:02.000Z</time>
      </trkpt>
      <trkpt lat="45.82185" lon="1.93015">
        <ele>770.8</ele>
        <time>2026-07-07T10:16:03.000Z</time>
      </trkpt>
      <trkpt lat="45.82188" lon="1.93015">
        <ele>770.6</ele>
        <time>2026-07-07T10:16:04.000Z</time>
      </trkpt>
      <trkpt lat="45.82191" lon="1.93015">
        <ele>771.2</ele>
        <time>2026-07-07T10:16:05.000Z</time>
      </trkpt>
      <trkpt lat="45.82194" lon="1.93016">
        <ele>771.3</ele>
        <time>2026-07-07T10:16:06.000Z</time>
      </trkpt>
      <trkpt lat="45.82198" lon="1.93017">
        <ele>771.1</ele>
        <time>2026-07-07T10:16:07.000Z</time>
      </trkpt>
      <trkpt lat="45.822" lon="1.93018">
        <ele>770.8</ele>
        <time>2026-07-07T10:16:08.000Z</time>
      </trkpt>
      <trkpt lat="45.82205" lon="1.93021">
        <ele>771.2</ele>
        <time>2026-07-07T10:16:09.000Z</time>
      </trkpt>
      <trkpt lat="45.82211" lon="1.93026">
        <ele>770.7</ele>
        <time>2026-07-07T10:16:10.000Z</time>
      </trkpt>
      <trkpt lat="45.82216" lon="1.93031">
        <ele>770.5</ele>
        <time>2026-07-07T10:16:11.000Z</time>
      </trkpt>
      <trkpt lat="45.82218" lon="1.93032">
        <ele>771</ele>
        <time>2026-07-07T10:16:12.000Z</time>
      </trkpt>
      <trkpt lat="45.8222" lon="1.93033">
        <ele>770.7</ele>
        <time>2026-07-07T10:16:13.000Z</time>
      </trkpt>
      <trkpt lat="45.82222" lon="1.93033">
        <ele>769.6</ele>
        <time>2026-07-07T10:16:14.000Z</time>
      </trkpt>
      <trkpt lat="45.82224" lon="1.93032">
        <ele>769.9</ele>
        <time>2026-07-07T10:16:15.000Z</time>
      </trkpt>
      <trkpt lat="45.82226" lon="1.93031">
        <ele>770</ele>
        <time>2026-07-07T10:16:16.000Z</time>
      </trkpt>
      <trkpt lat="45.82227" lon="1.93029">
        <ele>770</ele>
        <time>2026-07-07T10:16:17.000Z</time>
      </trkpt>
      <trkpt lat="45.82229" lon="1.93027">
        <ele>769.5</ele>
        <time>2026-07-07T10:16:18.000Z</time>
      </trkpt>
      <trkpt lat="45.8223" lon="1.93024">
        <ele>768.8</ele>
        <time>2026-07-07T10:16:19.000Z</time>
      </trkpt>
      <trkpt lat="45.82232" lon="1.93021">
        <ele>768.2</ele>
        <time>2026-07-07T10:16:20.000Z</time>
      </trkpt>
      <trkpt lat="45.82232" lon="1.93018">
        <ele>766.2</ele>
        <time>2026-07-07T10:16:21.000Z</time>
      </trkpt>
      <trkpt lat="45.82233" lon="1.93015">
        <ele>766.7</ele>
        <time>2026-07-07T10:16:22.000Z</time>
      </trkpt>
      <trkpt lat="45.82234" lon="1.93012">
        <ele>766.3</ele>
        <time>2026-07-07T10:16:23.000Z</time>
      </trkpt>
      <trkpt lat="45.82235" lon="1.9301">
        <ele>766.6</ele>
        <time>2026-07-07T10:16:24.000Z</time>
      </trkpt>
      <trkpt lat="45.82236" lon="1.93007">
        <ele>767.3</ele>
        <time>2026-07-07T10:16:25.000Z</time>
      </trkpt>
      <trkpt lat="45.82236" lon="1.93004">
        <ele>768.3</ele>
        <time>2026-07-07T10:16:26.000Z</time>
      </trkpt>
      <trkpt lat="45.82237" lon="1.93002">
        <ele>768.6</ele>
        <time>2026-07-07T10:16:27.000Z</time>
      </trkpt>
      <trkpt lat="45.82238" lon="1.92999">
        <ele>768.6</ele>
        <time>2026-07-07T10:16:28.000Z</time>
      </trkpt>
      <trkpt lat="45.82239" lon="1.92997">
        <ele>768.7</ele>
        <time>2026-07-07T10:16:29.000Z</time>
      </trkpt>
      <trkpt lat="45.8224" lon="1.92995">
        <ele>768.2</ele>
        <time>2026-07-07T10:16:30.000Z</time>
      </trkpt>
      <trkpt lat="45.82242" lon="1.92993">
        <ele>767.8</ele>
        <time>2026-07-07T10:16:31.000Z</time>
      </trkpt>
      <trkpt lat="45.82243" lon="1.9299">
        <ele>768.4</ele>
        <time>2026-07-07T10:16:32.000Z</time>
      </trkpt>
      <trkpt lat="45.82245" lon="1.92988">
        <ele>768.5</ele>
        <time>2026-07-07T10:16:33.000Z</time>
      </trkpt>
      <trkpt lat="45.82246" lon="1.92986">
        <ele>768.6</ele>
        <time>2026-07-07T10:16:34.000Z</time>
      </trkpt>
      <trkpt lat="45.82247" lon="1.92984">
        <ele>768.4</ele>
        <time>2026-07-07T10:16:35.000Z</time>
      </trkpt>
      <trkpt lat="45.82248" lon="1.92982">
        <ele>768.4</ele>
        <time>2026-07-07T10:16:36.000Z</time>
      </trkpt>
      <trkpt lat="45.82249" lon="1.92979">
        <ele>767.9</ele>
        <time>2026-07-07T10:16:37.000Z</time>
      </trkpt>
      <trkpt lat="45.82251" lon="1.92977">
        <ele>767.8</ele>
        <time>2026-07-07T10:16:38.000Z</time>
      </trkpt>
      <trkpt lat="45.82252" lon="1.92975">
        <ele>768.9</ele>
        <time>2026-07-07T10:16:39.000Z</time>
      </trkpt>
      <trkpt lat="45.82254" lon="1.92972">
        <ele>769.4</ele>
        <time>2026-07-07T10:16:40.000Z</time>
      </trkpt>
      <trkpt lat="45.82255" lon="1.92969">
        <ele>769.4</ele>
        <time>2026-07-07T10:16:41.000Z</time>
      </trkpt>
      <trkpt lat="45.82257" lon="1.92964">
        <ele>770.7</ele>
        <time>2026-07-07T10:16:42.000Z</time>
      </trkpt>
      <trkpt lat="45.82259" lon="1.9296">
        <ele>770.7</ele>
        <time>2026-07-07T10:16:43.000Z</time>
      </trkpt>
      <trkpt lat="45.82261" lon="1.92958">
        <ele>770.4</ele>
        <time>2026-07-07T10:16:44.000Z</time>
      </trkpt>
      <trkpt lat="45.82264" lon="1.92954">
        <ele>771.5</ele>
        <time>2026-07-07T10:16:45.000Z</time>
      </trkpt>
      <trkpt lat="45.82267" lon="1.92949">
        <ele>771.5</ele>
        <time>2026-07-07T10:16:46.000Z</time>
      </trkpt>
      <trkpt lat="45.8227" lon="1.92945">
        <ele>772.5</ele>
        <time>2026-07-07T10:16:47.000Z</time>
      </trkpt>
      <trkpt lat="45.82273" lon="1.9294">
        <ele>772.4</ele>
        <time>2026-07-07T10:16:48.000Z</time>
      </trkpt>
      <trkpt lat="45.82277" lon="1.92936">
        <ele>772.2</ele>
        <time>2026-07-07T10:16:49.000Z</time>
      </trkpt>
      <trkpt lat="45.82281" lon="1.92932">
        <ele>772.1</ele>
        <time>2026-07-07T10:16:50.000Z</time>
      </trkpt>
      <trkpt lat="45.82285" lon="1.92927">
        <ele>772.5</ele>
        <time>2026-07-07T10:16:51.000Z</time>
      </trkpt>
      <trkpt lat="45.82288" lon="1.92922">
        <ele>773.6</ele>
        <time>2026-07-07T10:16:52.000Z</time>
      </trkpt>
      <trkpt lat="45.8229" lon="1.9292">
        <ele>773.1</ele>
        <time>2026-07-07T10:16:53.000Z</time>
      </trkpt>
      <trkpt lat="45.82292" lon="1.92916">
        <ele>773.2</ele>
        <time>2026-07-07T10:16:54.000Z</time>
      </trkpt>
      <trkpt lat="45.82296" lon="1.92913">
        <ele>773.5</ele>
        <time>2026-07-07T10:16:55.000Z</time>
      </trkpt>
      <trkpt lat="45.82299" lon="1.92906">
        <ele>772.5</ele>
        <time>2026-07-07T10:16:56.000Z</time>
      </trkpt>
      <trkpt lat="45.82304" lon="1.92899">
        <ele>771.6</ele>
        <time>2026-07-07T10:16:57.000Z</time>
      </trkpt>
      <trkpt lat="45.82308" lon="1.92892">
        <ele>772.7</ele>
        <time>2026-07-07T10:16:58.000Z</time>
      </trkpt>
      <trkpt lat="45.82312" lon="1.92886">
        <ele>774.4</ele>
        <time>2026-07-07T10:16:59.000Z</time>
      </trkpt>
      <trkpt lat="45.82315" lon="1.92881">
        <ele>775.4</ele>
        <time>2026-07-07T10:17:00.000Z</time>
      </trkpt>
      <trkpt lat="45.82317" lon="1.92878">
        <ele>776.2</ele>
        <time>2026-07-07T10:17:01.000Z</time>
      </trkpt>
      <trkpt lat="45.82318" lon="1.92874">
        <ele>775.9</ele>
        <time>2026-07-07T10:17:02.000Z</time>
      </trkpt>
      <trkpt lat="45.8232" lon="1.9287">
        <ele>776.3</ele>
        <time>2026-07-07T10:17:03.000Z</time>
      </trkpt>
      <trkpt lat="45.82322" lon="1.92866">
        <ele>777</ele>
        <time>2026-07-07T10:17:04.000Z</time>
      </trkpt>
      <trkpt lat="45.82326" lon="1.92859">
        <ele>777.7</ele>
        <time>2026-07-07T10:17:05.000Z</time>
      </trkpt>
      <trkpt lat="45.82328" lon="1.92855">
        <ele>779.5</ele>
        <time>2026-07-07T10:17:06.000Z</time>
      </trkpt>
      <trkpt lat="45.82332" lon="1.92851">
        <ele>780.1</ele>
        <time>2026-07-07T10:17:07.000Z</time>
      </trkpt>
      <trkpt lat="45.82335" lon="1.92846">
        <ele>780.2</ele>
        <time>2026-07-07T10:17:08.000Z</time>
      </trkpt>
      <trkpt lat="45.82338" lon="1.92841">
        <ele>780.8</ele>
        <time>2026-07-07T10:17:09.000Z</time>
      </trkpt>
      <trkpt lat="45.82341" lon="1.92837">
        <ele>781.9</ele>
        <time>2026-07-07T10:17:10.000Z</time>
      </trkpt>
      <trkpt lat="45.82343" lon="1.92833">
        <ele>780.5</ele>
        <time>2026-07-07T10:17:11.000Z</time>
      </trkpt>
      <trkpt lat="45.82346" lon="1.92829">
        <ele>781.2</ele>
        <time>2026-07-07T10:17:12.000Z</time>
      </trkpt>
      <trkpt lat="45.82347" lon="1.92826">
        <ele>782.3</ele>
        <time>2026-07-07T10:17:13.000Z</time>
      </trkpt>
      <trkpt lat="45.82347" lon="1.92824">
        <ele>783</ele>
        <time>2026-07-07T10:17:14.000Z</time>
      </trkpt>
      <trkpt lat="45.82348" lon="1.92822">
        <ele>783.4</ele>
        <time>2026-07-07T10:17:15.000Z</time>
      </trkpt>
      <trkpt lat="45.82348" lon="1.92819">
        <ele>783.4</ele>
        <time>2026-07-07T10:17:16.000Z</time>
      </trkpt>
      <trkpt lat="45.82349" lon="1.92816">
        <ele>783.6</ele>
        <time>2026-07-07T10:17:17.000Z</time>
      </trkpt>
      <trkpt lat="45.8235" lon="1.92813">
        <ele>784.3</ele>
        <time>2026-07-07T10:17:18.000Z</time>
      </trkpt>
      <trkpt lat="45.8235" lon="1.92811">
        <ele>783.9</ele>
        <time>2026-07-07T10:17:19.000Z</time>
      </trkpt>
      <trkpt lat="45.82351" lon="1.92808">
        <ele>783.6</ele>
        <time>2026-07-07T10:17:20.000Z</time>
      </trkpt>
      <trkpt lat="45.82352" lon="1.92806">
        <ele>783.2</ele>
        <time>2026-07-07T10:17:21.000Z</time>
      </trkpt>
      <trkpt lat="45.82353" lon="1.92804">
        <ele>783.4</ele>
        <time>2026-07-07T10:17:22.000Z</time>
      </trkpt>
      <trkpt lat="45.82353" lon="1.92803">
        <ele>784.1</ele>
        <time>2026-07-07T10:17:23.000Z</time>
      </trkpt>
      <trkpt lat="45.82354" lon="1.92801">
        <ele>783.6</ele>
        <time>2026-07-07T10:17:24.000Z</time>
      </trkpt>
      <trkpt lat="45.82355" lon="1.92799">
        <ele>782.5</ele>
        <time>2026-07-07T10:17:25.000Z</time>
      </trkpt>
      <trkpt lat="45.82355" lon="1.92797">
        <ele>780.8</ele>
        <time>2026-07-07T10:17:26.000Z</time>
      </trkpt>
      <trkpt lat="45.82356" lon="1.92795">
        <ele>779.4</ele>
        <time>2026-07-07T10:17:27.000Z</time>
      </trkpt>
      <trkpt lat="45.82356" lon="1.92792">
        <ele>779</ele>
        <time>2026-07-07T10:17:28.000Z</time>
      </trkpt>
      <trkpt lat="45.82357" lon="1.92789">
        <ele>779.2</ele>
        <time>2026-07-07T10:17:29.000Z</time>
      </trkpt>
      <trkpt lat="45.82357" lon="1.92787">
        <ele>778.9</ele>
        <time>2026-07-07T10:17:30.000Z</time>
      </trkpt>
      <trkpt lat="45.82358" lon="1.92783">
        <ele>778.1</ele>
        <time>2026-07-07T10:17:31.000Z</time>
      </trkpt>
      <trkpt lat="45.82359" lon="1.92782">
        <ele>778.3</ele>
        <time>2026-07-07T10:17:32.000Z</time>
      </trkpt>
      <trkpt lat="45.82361" lon="1.92779">
        <ele>778.7</ele>
        <time>2026-07-07T10:17:33.000Z</time>
      </trkpt>
      <trkpt lat="45.82362" lon="1.92777">
        <ele>779</ele>
        <time>2026-07-07T10:17:34.000Z</time>
      </trkpt>
      <trkpt lat="45.82363" lon="1.92775">
        <ele>779.1</ele>
        <time>2026-07-07T10:17:35.000Z</time>
      </trkpt>
      <trkpt lat="45.82365" lon="1.92772">
        <ele>778.7</ele>
        <time>2026-07-07T10:17:36.000Z</time>
      </trkpt>
      <trkpt lat="45.82366" lon="1.9277">
        <ele>778.8</ele>
        <time>2026-07-07T10:17:37.000Z</time>
      </trkpt>
      <trkpt lat="45.82368" lon="1.92766">
        <ele>777.7</ele>
        <time>2026-07-07T10:17:38.000Z</time>
      </trkpt>
      <trkpt lat="45.82371" lon="1.92763">
        <ele>777.3</ele>
        <time>2026-07-07T10:17:39.000Z</time>
      </trkpt>
      <trkpt lat="45.82373" lon="1.92759">
        <ele>777.1</ele>
        <time>2026-07-07T10:17:40.000Z</time>
      </trkpt>
      <trkpt lat="45.82376" lon="1.92755">
        <ele>778.7</ele>
        <time>2026-07-07T10:17:41.000Z</time>
      </trkpt>
      <trkpt lat="45.8238" lon="1.9275">
        <ele>778</ele>
        <time>2026-07-07T10:17:42.000Z</time>
      </trkpt>
      <trkpt lat="45.82384" lon="1.92744">
        <ele>778.3</ele>
        <time>2026-07-07T10:17:43.000Z</time>
      </trkpt>
      <trkpt lat="45.82388" lon="1.92738">
        <ele>778.6</ele>
        <time>2026-07-07T10:17:44.000Z</time>
      </trkpt>
      <trkpt lat="45.82393" lon="1.92733">
        <ele>778.2</ele>
        <time>2026-07-07T10:17:45.000Z</time>
      </trkpt>
      <trkpt lat="45.82397" lon="1.92728">
        <ele>777.4</ele>
        <time>2026-07-07T10:17:46.000Z</time>
      </trkpt>
      <trkpt lat="45.82401" lon="1.92723">
        <ele>777.3</ele>
        <time>2026-07-07T10:17:47.000Z</time>
      </trkpt>
      <trkpt lat="45.82405" lon="1.92719">
        <ele>777.7</ele>
        <time>2026-07-07T10:17:48.000Z</time>
      </trkpt>
      <trkpt lat="45.82408" lon="1.92714">
        <ele>777.3</ele>
        <time>2026-07-07T10:17:49.000Z</time>
      </trkpt>
      <trkpt lat="45.82412" lon="1.92708">
        <ele>777.7</ele>
        <time>2026-07-07T10:17:50.000Z</time>
      </trkpt>
      <trkpt lat="45.82414" lon="1.92704">
        <ele>775.5</ele>
        <time>2026-07-07T10:17:51.000Z</time>
      </trkpt>
      <trkpt lat="45.82418" lon="1.92698">
        <ele>775.5</ele>
        <time>2026-07-07T10:17:52.000Z</time>
      </trkpt>
      <trkpt lat="45.82422" lon="1.92694">
        <ele>776</ele>
        <time>2026-07-07T10:17:53.000Z</time>
      </trkpt>
      <trkpt lat="45.82425" lon="1.92691">
        <ele>776.5</ele>
        <time>2026-07-07T10:17:54.000Z</time>
      </trkpt>
      <trkpt lat="45.82429" lon="1.92688">
        <ele>776.2</ele>
        <time>2026-07-07T10:17:55.000Z</time>
      </trkpt>
      <trkpt lat="45.82432" lon="1.92684">
        <ele>776.4</ele>
        <time>2026-07-07T10:17:56.000Z</time>
      </trkpt>
      <trkpt lat="45.82434" lon="1.92681">
        <ele>776.5</ele>
        <time>2026-07-07T10:17:57.000Z</time>
      </trkpt>
      <trkpt lat="45.82437" lon="1.92678">
        <ele>776.2</ele>
        <time>2026-07-07T10:17:58.000Z</time>
      </trkpt>
      <trkpt lat="45.8244" lon="1.92675">
        <ele>775.4</ele>
        <time>2026-07-07T10:17:59.000Z</time>
      </trkpt>
      <trkpt lat="45.82442" lon="1.92671">
        <ele>774.5</ele>
        <time>2026-07-07T10:18:00.000Z</time>
      </trkpt>
      <trkpt lat="45.82445" lon="1.92666">
        <ele>773.7</ele>
        <time>2026-07-07T10:18:01.000Z</time>
      </trkpt>
      <trkpt lat="45.82448" lon="1.92662">
        <ele>772.7</ele>
        <time>2026-07-07T10:18:02.000Z</time>
      </trkpt>
      <trkpt lat="45.82451" lon="1.92658">
        <ele>772.7</ele>
        <time>2026-07-07T10:18:03.000Z</time>
      </trkpt>
      <trkpt lat="45.82454" lon="1.92654">
        <ele>772.9</ele>
        <time>2026-07-07T10:18:04.000Z</time>
      </trkpt>
      <trkpt lat="45.82457" lon="1.9265">
        <ele>773.2</ele>
        <time>2026-07-07T10:18:05.000Z</time>
      </trkpt>
      <trkpt lat="45.82461" lon="1.92648">
        <ele>774.3</ele>
        <time>2026-07-07T10:18:06.000Z</time>
      </trkpt>
      <trkpt lat="45.82464" lon="1.92646">
        <ele>774.3</ele>
        <time>2026-07-07T10:18:07.000Z</time>
      </trkpt>
      <trkpt lat="45.82467" lon="1.92645">
        <ele>774.4</ele>
        <time>2026-07-07T10:18:08.000Z</time>
      </trkpt>
      <trkpt lat="45.82471" lon="1.92644">
        <ele>775.1</ele>
        <time>2026-07-07T10:18:09.000Z</time>
      </trkpt>
      <trkpt lat="45.82475" lon="1.92644">
        <ele>774.6</ele>
        <time>2026-07-07T10:18:10.000Z</time>
      </trkpt>
      <trkpt lat="45.82479" lon="1.92644">
        <ele>774.8</ele>
        <time>2026-07-07T10:18:11.000Z</time>
      </trkpt>
      <trkpt lat="45.82483" lon="1.92644">
        <ele>774.7</ele>
        <time>2026-07-07T10:18:12.000Z</time>
      </trkpt>
      <trkpt lat="45.82486" lon="1.92643">
        <ele>774.2</ele>
        <time>2026-07-07T10:18:13.000Z</time>
      </trkpt>
      <trkpt lat="45.8249" lon="1.92644">
        <ele>775.3</ele>
        <time>2026-07-07T10:18:14.000Z</time>
      </trkpt>
      <trkpt lat="45.82494" lon="1.92644">
        <ele>775.7</ele>
        <time>2026-07-07T10:18:15.000Z</time>
      </trkpt>
      <trkpt lat="45.82498" lon="1.92645">
        <ele>776.5</ele>
        <time>2026-07-07T10:18:16.000Z</time>
      </trkpt>
      <trkpt lat="45.82501" lon="1.92646">
        <ele>778</ele>
        <time>2026-07-07T10:18:17.000Z</time>
      </trkpt>
      <trkpt lat="45.82505" lon="1.92648">
        <ele>778.9</ele>
        <time>2026-07-07T10:18:18.000Z</time>
      </trkpt>
      <trkpt lat="45.8251" lon="1.92651">
        <ele>779</ele>
        <time>2026-07-07T10:18:19.000Z</time>
      </trkpt>
      <trkpt lat="45.82514" lon="1.92654">
        <ele>779.6</ele>
        <time>2026-07-07T10:18:20.000Z</time>
      </trkpt>
      <trkpt lat="45.82517" lon="1.92656">
        <ele>778.6</ele>
        <time>2026-07-07T10:18:21.000Z</time>
      </trkpt>
      <trkpt lat="45.8252" lon="1.92658">
        <ele>777.7</ele>
        <time>2026-07-07T10:18:22.000Z</time>
      </trkpt>
      <trkpt lat="45.82523" lon="1.92659">
        <ele>778.4</ele>
        <time>2026-07-07T10:18:23.000Z</time>
      </trkpt>
      <trkpt lat="45.82525" lon="1.92661">
        <ele>778.1</ele>
        <time>2026-07-07T10:18:24.000Z</time>
      </trkpt>
      <trkpt lat="45.82527" lon="1.92663">
        <ele>778.6</ele>
        <time>2026-07-07T10:18:25.000Z</time>
      </trkpt>
      <trkpt lat="45.82528" lon="1.92663">
        <ele>778.4</ele>
        <time>2026-07-07T10:18:26.000Z</time>
      </trkpt>
      <trkpt lat="45.82529" lon="1.92664">
        <ele>778.3</ele>
        <time>2026-07-07T10:18:27.000Z</time>
      </trkpt>
      <trkpt lat="45.82531" lon="1.92665">
        <ele>778.5</ele>
        <time>2026-07-07T10:18:28.000Z</time>
      </trkpt>
      <trkpt lat="45.82533" lon="1.92667">
        <ele>777.8</ele>
        <time>2026-07-07T10:18:29.000Z</time>
      </trkpt>
      <trkpt lat="45.82535" lon="1.92668">
        <ele>778.7</ele>
        <time>2026-07-07T10:18:30.000Z</time>
      </trkpt>
      <trkpt lat="45.82537" lon="1.9267">
        <ele>777.9</ele>
        <time>2026-07-07T10:18:31.000Z</time>
      </trkpt>
      <trkpt lat="45.82539" lon="1.92671">
        <ele>776.9</ele>
        <time>2026-07-07T10:18:32.000Z</time>
      </trkpt>
      <trkpt lat="45.82541" lon="1.92672">
        <ele>776.7</ele>
        <time>2026-07-07T10:18:33.000Z</time>
      </trkpt>
      <trkpt lat="45.82543" lon="1.92673">
        <ele>776.2</ele>
        <time>2026-07-07T10:18:34.000Z</time>
      </trkpt>
      <trkpt lat="45.82545" lon="1.92674">
        <ele>776.1</ele>
        <time>2026-07-07T10:18:35.000Z</time>
      </trkpt>
      <trkpt lat="45.82547" lon="1.92674">
        <ele>775.2</ele>
        <time>2026-07-07T10:18:36.000Z</time>
      </trkpt>
      <trkpt lat="45.82549" lon="1.92675">
        <ele>773.5</ele>
        <time>2026-07-07T10:18:37.000Z</time>
      </trkpt>
      <trkpt lat="45.8255" lon="1.92676">
        <ele>773.7</ele>
        <time>2026-07-07T10:18:38.000Z</time>
      </trkpt>
      <trkpt lat="45.82552" lon="1.92676">
        <ele>773.9</ele>
        <time>2026-07-07T10:18:39.000Z</time>
      </trkpt>
      <trkpt lat="45.82554" lon="1.92677">
        <ele>773.6</ele>
        <time>2026-07-07T10:18:40.000Z</time>
      </trkpt>
      <trkpt lat="45.82556" lon="1.92678">
        <ele>774</ele>
        <time>2026-07-07T10:18:41.000Z</time>
      </trkpt>
      <trkpt lat="45.82558" lon="1.92679">
        <ele>773.7</ele>
        <time>2026-07-07T10:18:42.000Z</time>
      </trkpt>
      <trkpt lat="45.8256" lon="1.9268">
        <ele>773.3</ele>
        <time>2026-07-07T10:18:43.000Z</time>
      </trkpt>
      <trkpt lat="45.82561" lon="1.92681">
        <ele>772.9</ele>
        <time>2026-07-07T10:18:44.000Z</time>
      </trkpt>
      <trkpt lat="45.82562" lon="1.92683">
        <ele>773.2</ele>
        <time>2026-07-07T10:18:45.000Z</time>
      </trkpt>
      <trkpt lat="45.82563" lon="1.92685">
        <ele>774.2</ele>
        <time>2026-07-07T10:18:46.000Z</time>
      </trkpt>
      <trkpt lat="45.82564" lon="1.92687">
        <ele>774.4</ele>
        <time>2026-07-07T10:18:47.000Z</time>
      </trkpt>
      <trkpt lat="45.82565" lon="1.92689">
        <ele>774.9</ele>
        <time>2026-07-07T10:18:48.000Z</time>
      </trkpt>
      <trkpt lat="45.82566" lon="1.92691">
        <ele>774.7</ele>
        <time>2026-07-07T10:18:49.000Z</time>
      </trkpt>
      <trkpt lat="45.82568" lon="1.92692">
        <ele>774.2</ele>
        <time>2026-07-07T10:18:50.000Z</time>
      </trkpt>
      <trkpt lat="45.8257" lon="1.92693">
        <ele>773.8</ele>
        <time>2026-07-07T10:18:51.000Z</time>
      </trkpt>
      <trkpt lat="45.82572" lon="1.92694">
        <ele>773.3</ele>
        <time>2026-07-07T10:18:52.000Z</time>
      </trkpt>
      <trkpt lat="45.82574" lon="1.92695">
        <ele>773.6</ele>
        <time>2026-07-07T10:18:53.000Z</time>
      </trkpt>
      <trkpt lat="45.82575" lon="1.92696">
        <ele>774.5</ele>
        <time>2026-07-07T10:18:54.000Z</time>
      </trkpt>
      <trkpt lat="45.82574" lon="1.92695">
        <ele>773.1</ele>
        <time>2026-07-07T10:18:55.000Z</time>
      </trkpt>
      <trkpt lat="45.82571" lon="1.92693">
        <ele>772.8</ele>
        <time>2026-07-07T10:18:56.000Z</time>
      </trkpt>
      <trkpt lat="45.82571" lon="1.92693">
        <ele>773.1</ele>
        <time>2026-07-07T10:18:57.000Z</time>
      </trkpt>
      <trkpt lat="45.82571" lon="1.92693">
        <ele>773.3</ele>
        <time>2026-07-07T10:18:58.000Z</time>
      </trkpt>
      <trkpt lat="45.82571" lon="1.92693">
        <ele>773.3</ele>
        <time>2026-07-07T10:18:59.000Z</time>
      </trkpt>
      <trkpt lat="45.82571" lon="1.92693">
        <ele>773.3</ele>
        <time>2026-07-07T10:19:00.000Z</time>
      </trkpt>
      <trkpt lat="45.82571" lon="1.92693">
        <ele>773.3</ele>
        <time>2026-07-07T10:19:01.000Z</time>
      </trkpt>
      <trkpt lat="45.82571" lon="1.92693">
        <ele>773.3</ele>
        <time>2026-07-07T10:19:02.000Z</time>
      </trkpt>
      <trkpt lat="45.82571" lon="1.92693">
        <ele>773.3</ele>
        <time>2026-07-07T10:19:03.000Z</time>
      </trkpt>
      <trkpt lat="45.82571" lon="1.92693">
        <ele>773.4</ele>
        <time>2026-07-07T10:19:04.000Z</time>
      </trkpt>
      <trkpt lat="45.82571" lon="1.92693">
        <ele>773.4</ele>
        <time>2026-07-07T10:19:05.000Z</time>
      </trkpt>
      <trkpt lat="45.82571" lon="1.92693">
        <ele>773.4</ele>
        <time>2026-07-07T10:19:06.000Z</time>
      </trkpt>
      <trkpt lat="45.82571" lon="1.92693">
        <ele>773.4</ele>
        <time>2026-07-07T10:19:07.000Z</time>
      </trkpt>
      <trkpt lat="45.82571" lon="1.92693">
        <ele>773.4</ele>
        <time>2026-07-07T10:19:08.000Z</time>
      </trkpt>
      <trkpt lat="45.82571" lon="1.92693">
        <ele>774.5</ele>
        <time>2026-07-07T10:19:09.000Z</time>
      </trkpt>
      <trkpt lat="45.82572" lon="1.92693">
        <ele>775</ele>
        <time>2026-07-07T10:19:10.000Z</time>
      </trkpt>
      <trkpt lat="45.82574" lon="1.92693">
        <ele>775</ele>
        <time>2026-07-07T10:19:11.000Z</time>
      </trkpt>
      <trkpt lat="45.82575" lon="1.92692">
        <ele>775.2</ele>
        <time>2026-07-07T10:19:12.000Z</time>
      </trkpt>
      <trkpt lat="45.82576" lon="1.92691">
        <ele>775.4</ele>
        <time>2026-07-07T10:19:13.000Z</time>
      </trkpt>
      <trkpt lat="45.82577" lon="1.92691">
        <ele>775.4</ele>
        <time>2026-07-07T10:19:14.000Z</time>
      </trkpt>
      <trkpt lat="45.82577" lon="1.92691">
        <ele>775.4</ele>
        <time>2026-07-07T10:19:15.000Z</time>
      </trkpt>
      <trkpt lat="45.82577" lon="1.92691">
        <ele>775.4</ele>
        <time>2026-07-07T10:19:16.000Z</time>
      </trkpt>
      <trkpt lat="45.82577" lon="1.92691">
        <ele>775.4</ele>
        <time>2026-07-07T10:19:17.000Z</time>
      </trkpt>
      <trkpt lat="45.82577" lon="1.92691">
        <ele>775.4</ele>
        <time>2026-07-07T10:19:18.000Z</time>
      </trkpt>
      <trkpt lat="45.82577" lon="1.92691">
        <ele>775.2</ele>
        <time>2026-07-07T10:19:19.000Z</time>
      </trkpt>
      <trkpt lat="45.82577" lon="1.9269">
        <ele>775.3</ele>
        <time>2026-07-07T10:19:20.000Z</time>
      </trkpt>
      <trkpt lat="45.82577" lon="1.9269">
        <ele>775.6</ele>
        <time>2026-07-07T10:19:21.000Z</time>
      </trkpt>
      <trkpt lat="45.82577" lon="1.9269">
        <ele>775.5</ele>
        <time>2026-07-07T10:19:22.000Z</time>
      </trkpt>
      <trkpt lat="45.82577" lon="1.9269">
        <ele>775.5</ele>
        <time>2026-07-07T10:19:23.000Z</time>
      </trkpt>
      <trkpt lat="45.82577" lon="1.9269">
        <ele>775.5</ele>
        <time>2026-07-07T10:19:24.000Z</time>
      </trkpt>
      <trkpt lat="45.82577" lon="1.9269">
        <ele>775.5</ele>
        <time>2026-07-07T10:19:25.000Z</time>
      </trkpt>
      <trkpt lat="45.82577" lon="1.9269">
        <ele>775.5</ele>
        <time>2026-07-07T10:19:26.000Z</time>
      </trkpt>
      <trkpt lat="45.82577" lon="1.9269">
        <ele>775.6</ele>
        <time>2026-07-07T10:19:27.000Z</time>
      </trkpt>
      <trkpt lat="45.82577" lon="1.9269">
        <ele>775.6</ele>
        <time>2026-07-07T10:19:28.000Z</time>
      </trkpt>
      <trkpt lat="45.82577" lon="1.9269">
        <ele>775.6</ele>
        <time>2026-07-07T10:19:29.000Z</time>
      </trkpt>
      <trkpt lat="45.82577" lon="1.9269">
        <ele>775.6</ele>
        <time>2026-07-07T10:19:30.000Z</time>
      </trkpt>
      <trkpt lat="45.82577" lon="1.9269">
        <ele>775.6</ele>
        <time>2026-07-07T10:19:31.000Z</time>
      </trkpt>
      <trkpt lat="45.82577" lon="1.9269">
        <ele>775.6</ele>
        <time>2026-07-07T10:19:32.000Z</time>
      </trkpt>
      <trkpt lat="45.82577" lon="1.9269">
        <ele>775.6</ele>
        <time>2026-07-07T10:19:33.000Z</time>
      </trkpt>
      <trkpt lat="45.82577" lon="1.9269">
        <ele>775.6</ele>
        <time>2026-07-07T10:19:34.000Z</time>
      </trkpt>
      <trkpt lat="45.82577" lon="1.9269">
        <ele>775.6</ele>
        <time>2026-07-07T10:19:35.000Z</time>
      </trkpt>
      <trkpt lat="45.82577" lon="1.9269">
        <ele>775.6</ele>
        <time>2026-07-07T10:19:36.000Z</time>
      </trkpt>
      <trkpt lat="45.82577" lon="1.9269">
        <ele>775.6</ele>
        <time>2026-07-07T10:19:37.000Z</time>
      </trkpt>
      <trkpt lat="45.82577" lon="1.9269">
        <ele>775.6</ele>
        <time>2026-07-07T10:19:38.000Z</time>
      </trkpt>
      <trkpt lat="45.82577" lon="1.9269">
        <ele>775.6</ele>
        <time>2026-07-07T10:19:39.000Z</time>
      </trkpt>
      <trkpt lat="45.82577" lon="1.9269">
        <ele>775.5</ele>
        <time>2026-07-07T10:19:40.000Z</time>
      </trkpt>
      <trkpt lat="45.82577" lon="1.9269">
        <ele>775.5</ele>
        <time>2026-07-07T10:19:41.000Z</time>
      </trkpt>
      <trkpt lat="45.82577" lon="1.9269">
        <ele>775.6</ele>
        <time>2026-07-07T10:19:42.000Z</time>
      </trkpt>
      <trkpt lat="45.82577" lon="1.92691">
        <ele>775.6</ele>
        <time>2026-07-07T10:19:43.000Z</time>
      </trkpt>
      <trkpt lat="45.82577" lon="1.92693">
        <ele>776.8</ele>
        <time>2026-07-07T10:19:44.000Z</time>
      </trkpt>
      <trkpt lat="45.82577" lon="1.92695">
        <ele>779</ele>
        <time>2026-07-07T10:19:45.000Z</time>
      </trkpt>
      <trkpt lat="45.82577" lon="1.92695">
        <ele>778.8</ele>
        <time>2026-07-07T10:19:46.000Z</time>
      </trkpt>
      <trkpt lat="45.82577" lon="1.92695">
        <ele>778.4</ele>
        <time>2026-07-07T10:19:47.000Z</time>
      </trkpt>
      <trkpt lat="45.82577" lon="1.92695">
        <ele>778.5</ele>
        <time>2026-07-07T10:19:48.000Z</time>
      </trkpt>
      <trkpt lat="45.82577" lon="1.92695">
        <ele>778.5</ele>
        <time>2026-07-07T10:19:49.000Z</time>
      </trkpt>
      <trkpt lat="45.82577" lon="1.92695">
        <ele>778.5</ele>
        <time>2026-07-07T10:19:50.000Z</time>
      </trkpt>
      <trkpt lat="45.82577" lon="1.92696">
        <ele>778.3</ele>
        <time>2026-07-07T10:19:51.000Z</time>
      </trkpt>
      <trkpt lat="45.82577" lon="1.92696">
        <ele>778.3</ele>
        <time>2026-07-07T10:19:52.000Z</time>
      </trkpt>
      <trkpt lat="45.82577" lon="1.92696">
        <ele>778.4</ele>
        <time>2026-07-07T10:19:53.000Z</time>
      </trkpt>
      <trkpt lat="45.82577" lon="1.92696">
        <ele>778.4</ele>
        <time>2026-07-07T10:19:54.000Z</time>
      </trkpt>
      <trkpt lat="45.82577" lon="1.92696">
        <ele>778.4</ele>
        <time>2026-07-07T10:19:55.000Z</time>
      </trkpt>
      <trkpt lat="45.82577" lon="1.92696">
        <ele>778.4</ele>
        <time>2026-07-07T10:19:56.000Z</time>
      </trkpt>
      <trkpt lat="45.82577" lon="1.92696">
        <ele>778.4</ele>
        <time>2026-07-07T10:19:57.000Z</time>
      </trkpt>
      <trkpt lat="45.82577" lon="1.92696">
        <ele>778.4</ele>
        <time>2026-07-07T10:19:58.000Z</time>
      </trkpt>
      <trkpt lat="45.82577" lon="1.92696">
        <ele>778.4</ele>
        <time>2026-07-07T10:19:59.000Z</time>
      </trkpt>
      <trkpt lat="45.82577" lon="1.92696">
        <ele>778.4</ele>
        <time>2026-07-07T10:20:00.000Z</time>
      </trkpt>
      <trkpt lat="45.82577" lon="1.92697">
        <ele>778.2</ele>
        <time>2026-07-07T10:20:01.000Z</time>
      </trkpt>
      <trkpt lat="45.82577" lon="1.92697">
        <ele>778.2</ele>
        <time>2026-07-07T10:20:02.000Z</time>
      </trkpt>
      <trkpt lat="45.82577" lon="1.92697">
        <ele>778.2</ele>
        <time>2026-07-07T10:20:03.000Z</time>
      </trkpt>
      <trkpt lat="45.82577" lon="1.92697">
        <ele>778.2</ele>
        <time>2026-07-07T10:20:04.000Z</time>
      </trkpt>
      <trkpt lat="45.82577" lon="1.92697">
        <ele>778.2</ele>
        <time>2026-07-07T10:20:05.000Z</time>
      </trkpt>
      <trkpt lat="45.82577" lon="1.92697">
        <ele>778.2</ele>
        <time>2026-07-07T10:20:06.000Z</time>
      </trkpt>
      <trkpt lat="45.82578" lon="1.92697">
        <ele>777.7</ele>
        <time>2026-07-07T10:20:07.000Z</time>
      </trkpt>
      <trkpt lat="45.82578" lon="1.92696">
        <ele>777.8</ele>
        <time>2026-07-07T10:20:08.000Z</time>
      </trkpt>
      <trkpt lat="45.82579" lon="1.92698">
        <ele>778</ele>
        <time>2026-07-07T10:20:09.000Z</time>
      </trkpt>
      <trkpt lat="45.82579" lon="1.92698">
        <ele>778.1</ele>
        <time>2026-07-07T10:20:10.000Z</time>
      </trkpt>
      <trkpt lat="45.82579" lon="1.92698">
        <ele>778.1</ele>
        <time>2026-07-07T10:20:11.000Z</time>
      </trkpt>
      <trkpt lat="45.82579" lon="1.92699">
        <ele>778.1</ele>
        <time>2026-07-07T10:20:12.000Z</time>
      </trkpt>
      <trkpt lat="45.8258" lon="1.92699">
        <ele>777.5</ele>
        <time>2026-07-07T10:20:13.000Z</time>
      </trkpt>
      <trkpt lat="45.8258" lon="1.92699">
        <ele>778.1</ele>
        <time>2026-07-07T10:20:14.000Z</time>
      </trkpt>
      <trkpt lat="45.82582" lon="1.92699">
        <ele>777.5</ele>
        <time>2026-07-07T10:20:15.000Z</time>
      </trkpt>
      <trkpt lat="45.82584" lon="1.92698">
        <ele>776.9</ele>
        <time>2026-07-07T10:20:16.000Z</time>
      </trkpt>
      <trkpt lat="45.82585" lon="1.92699">
        <ele>777.7</ele>
        <time>2026-07-07T10:20:17.000Z</time>
      </trkpt>
      <trkpt lat="45.82586" lon="1.92698">
        <ele>777.2</ele>
        <time>2026-07-07T10:20:18.000Z</time>
      </trkpt>
      <trkpt lat="45.82587" lon="1.92698">
        <ele>777.1</ele>
        <time>2026-07-07T10:20:19.000Z</time>
      </trkpt>
      <trkpt lat="45.82588" lon="1.927">
        <ele>777.1</ele>
        <time>2026-07-07T10:20:20.000Z</time>
      </trkpt>
      <trkpt lat="45.82588" lon="1.92701">
        <ele>777</ele>
        <time>2026-07-07T10:20:21.000Z</time>
      </trkpt>
      <trkpt lat="45.82589" lon="1.92701">
        <ele>776.9</ele>
        <time>2026-07-07T10:20:22.000Z</time>
      </trkpt>
      <trkpt lat="45.8259" lon="1.92702">
        <ele>775.9</ele>
        <time>2026-07-07T10:20:23.000Z</time>
      </trkpt>
      <trkpt lat="45.82591" lon="1.92703">
        <ele>776.1</ele>
        <time>2026-07-07T10:20:24.000Z</time>
      </trkpt>
      <trkpt lat="45.82592" lon="1.92703">
        <ele>776.3</ele>
        <time>2026-07-07T10:20:25.000Z</time>
      </trkpt>
      <trkpt lat="45.82593" lon="1.92704">
        <ele>775.1</ele>
        <time>2026-07-07T10:20:26.000Z</time>
      </trkpt>
      <trkpt lat="45.82594" lon="1.92704">
        <ele>774</ele>
        <time>2026-07-07T10:20:27.000Z</time>
      </trkpt>
      <trkpt lat="45.82595" lon="1.92705">
        <ele>775</ele>
        <time>2026-07-07T10:20:28.000Z</time>
      </trkpt>
      <trkpt lat="45.82595" lon="1.92706">
        <ele>773.3</ele>
        <time>2026-07-07T10:20:29.000Z</time>
      </trkpt>
      <trkpt lat="45.82596" lon="1.92707">
        <ele>773.7</ele>
        <time>2026-07-07T10:20:30.000Z</time>
      </trkpt>
      <trkpt lat="45.82598" lon="1.92708">
        <ele>773.4</ele>
        <time>2026-07-07T10:20:31.000Z</time>
      </trkpt>
      <trkpt lat="45.826" lon="1.92708">
        <ele>773.3</ele>
        <time>2026-07-07T10:20:32.000Z</time>
      </trkpt>
      <trkpt lat="45.82602" lon="1.92709">
        <ele>773.8</ele>
        <time>2026-07-07T10:20:33.000Z</time>
      </trkpt>
      <trkpt lat="45.82603" lon="1.92709">
        <ele>772.5</ele>
        <time>2026-07-07T10:20:34.000Z</time>
      </trkpt>
      <trkpt lat="45.82605" lon="1.9271">
        <ele>772.9</ele>
        <time>2026-07-07T10:20:35.000Z</time>
      </trkpt>
      <trkpt lat="45.82606" lon="1.92711">
        <ele>772.6</ele>
        <time>2026-07-07T10:20:36.000Z</time>
      </trkpt>
      <trkpt lat="45.82607" lon="1.92711">
        <ele>773.1</ele>
        <time>2026-07-07T10:20:37.000Z</time>
      </trkpt>
      <trkpt lat="45.82608" lon="1.92711">
        <ele>773.2</ele>
        <time>2026-07-07T10:20:38.000Z</time>
      </trkpt>
      <trkpt lat="45.8261" lon="1.92711">
        <ele>773.6</ele>
        <time>2026-07-07T10:20:39.000Z</time>
      </trkpt>
      <trkpt lat="45.82611" lon="1.92711">
        <ele>773.5</ele>
        <time>2026-07-07T10:20:40.000Z</time>
      </trkpt>
      <trkpt lat="45.82612" lon="1.92712">
        <ele>774</ele>
        <time>2026-07-07T10:20:41.000Z</time>
      </trkpt>
      <trkpt lat="45.82614" lon="1.92712">
        <ele>773.9</ele>
        <time>2026-07-07T10:20:42.000Z</time>
      </trkpt>
      <trkpt lat="45.82615" lon="1.92713">
        <ele>773</ele>
        <time>2026-07-07T10:20:43.000Z</time>
      </trkpt>
      <trkpt lat="45.82617" lon="1.92713">
        <ele>774</ele>
        <time>2026-07-07T10:20:44.000Z</time>
      </trkpt>
      <trkpt lat="45.82618" lon="1.92713">
        <ele>773.8</ele>
        <time>2026-07-07T10:20:45.000Z</time>
      </trkpt>
      <trkpt lat="45.8262" lon="1.92713">
        <ele>774.5</ele>
        <time>2026-07-07T10:20:46.000Z</time>
      </trkpt>
      <trkpt lat="45.82622" lon="1.92712">
        <ele>774.2</ele>
        <time>2026-07-07T10:20:47.000Z</time>
      </trkpt>
      <trkpt lat="45.82624" lon="1.92711">
        <ele>773.7</ele>
        <time>2026-07-07T10:20:48.000Z</time>
      </trkpt>
      <trkpt lat="45.82625" lon="1.92711">
        <ele>773.3</ele>
        <time>2026-07-07T10:20:49.000Z</time>
      </trkpt>
      <trkpt lat="45.82627" lon="1.92711">
        <ele>773.9</ele>
        <time>2026-07-07T10:20:50.000Z</time>
      </trkpt>
      <trkpt lat="45.82628" lon="1.92711">
        <ele>774.2</ele>
        <time>2026-07-07T10:20:51.000Z</time>
      </trkpt>
      <trkpt lat="45.8263" lon="1.9271">
        <ele>772.8</ele>
        <time>2026-07-07T10:20:52.000Z</time>
      </trkpt>
      <trkpt lat="45.82632" lon="1.9271">
        <ele>771.6</ele>
        <time>2026-07-07T10:20:53.000Z</time>
      </trkpt>
      <trkpt lat="45.82634" lon="1.92709">
        <ele>770.7</ele>
        <time>2026-07-07T10:20:54.000Z</time>
      </trkpt>
      <trkpt lat="45.82636" lon="1.92708">
        <ele>770.4</ele>
        <time>2026-07-07T10:20:55.000Z</time>
      </trkpt>
      <trkpt lat="45.82638" lon="1.92708">
        <ele>771.2</ele>
        <time>2026-07-07T10:20:56.000Z</time>
      </trkpt>
      <trkpt lat="45.8264" lon="1.92708">
        <ele>771.2</ele>
        <time>2026-07-07T10:20:57.000Z</time>
      </trkpt>
      <trkpt lat="45.82642" lon="1.92708">
        <ele>771.2</ele>
        <time>2026-07-07T10:20:58.000Z</time>
      </trkpt>
      <trkpt lat="45.82644" lon="1.92708">
        <ele>771.7</ele>
        <time>2026-07-07T10:20:59.000Z</time>
      </trkpt>
      <trkpt lat="45.82646" lon="1.92709">
        <ele>771.3</ele>
        <time>2026-07-07T10:21:00.000Z</time>
      </trkpt>
      <trkpt lat="45.82647" lon="1.92709">
        <ele>771</ele>
        <time>2026-07-07T10:21:01.000Z</time>
      </trkpt>
      <trkpt lat="45.82649" lon="1.92709">
        <ele>772.8</ele>
        <time>2026-07-07T10:21:02.000Z</time>
      </trkpt>
      <trkpt lat="45.8265" lon="1.92709">
        <ele>773.2</ele>
        <time>2026-07-07T10:21:03.000Z</time>
      </trkpt>
      <trkpt lat="45.82651" lon="1.92708">
        <ele>772.9</ele>
        <time>2026-07-07T10:21:04.000Z</time>
      </trkpt>
      <trkpt lat="45.82653" lon="1.92707">
        <ele>773</ele>
        <time>2026-07-07T10:21:05.000Z</time>
      </trkpt>
      <trkpt lat="45.82655" lon="1.92707">
        <ele>773.1</ele>
        <time>2026-07-07T10:21:06.000Z</time>
      </trkpt>
      <trkpt lat="45.82656" lon="1.92706">
        <ele>773.5</ele>
        <time>2026-07-07T10:21:07.000Z</time>
      </trkpt>
      <trkpt lat="45.82658" lon="1.92705">
        <ele>773.9</ele>
        <time>2026-07-07T10:21:08.000Z</time>
      </trkpt>
      <trkpt lat="45.82659" lon="1.92704">
        <ele>773.3</ele>
        <time>2026-07-07T10:21:09.000Z</time>
      </trkpt>
      <trkpt lat="45.8266" lon="1.92703">
        <ele>773.5</ele>
        <time>2026-07-07T10:21:10.000Z</time>
      </trkpt>
      <trkpt lat="45.82662" lon="1.92703">
        <ele>772.8</ele>
        <time>2026-07-07T10:21:11.000Z</time>
      </trkpt>
      <trkpt lat="45.82664" lon="1.92702">
        <ele>772.4</ele>
        <time>2026-07-07T10:21:12.000Z</time>
      </trkpt>
      <trkpt lat="45.82666" lon="1.927">
        <ele>772.9</ele>
        <time>2026-07-07T10:21:13.000Z</time>
      </trkpt>
      <trkpt lat="45.82668" lon="1.927">
        <ele>773.8</ele>
        <time>2026-07-07T10:21:14.000Z</time>
      </trkpt>
      <trkpt lat="45.82671" lon="1.927">
        <ele>774.4</ele>
        <time>2026-07-07T10:21:15.000Z</time>
      </trkpt>
      <trkpt lat="45.82673" lon="1.92701">
        <ele>775.3</ele>
        <time>2026-07-07T10:21:16.000Z</time>
      </trkpt>
      <trkpt lat="45.82674" lon="1.92702">
        <ele>775.9</ele>
        <time>2026-07-07T10:21:17.000Z</time>
      </trkpt>
      <trkpt lat="45.82676" lon="1.92703">
        <ele>775.7</ele>
        <time>2026-07-07T10:21:18.000Z</time>
      </trkpt>
      <trkpt lat="45.82678" lon="1.92703">
        <ele>775.7</ele>
        <time>2026-07-07T10:21:19.000Z</time>
      </trkpt>
      <trkpt lat="45.8268" lon="1.92703">
        <ele>775.3</ele>
        <time>2026-07-07T10:21:20.000Z</time>
      </trkpt>
      <trkpt lat="45.82681" lon="1.92703">
        <ele>775.3</ele>
        <time>2026-07-07T10:21:21.000Z</time>
      </trkpt>
      <trkpt lat="45.82682" lon="1.92703">
        <ele>774.8</ele>
        <time>2026-07-07T10:21:22.000Z</time>
      </trkpt>
      <trkpt lat="45.82682" lon="1.92702">
        <ele>775.2</ele>
        <time>2026-07-07T10:21:23.000Z</time>
      </trkpt>
      <trkpt lat="45.82684" lon="1.92703">
        <ele>774.3</ele>
        <time>2026-07-07T10:21:24.000Z</time>
      </trkpt>
      <trkpt lat="45.82686" lon="1.92703">
        <ele>773.8</ele>
        <time>2026-07-07T10:21:25.000Z</time>
      </trkpt>
      <trkpt lat="45.82687" lon="1.92703">
        <ele>774.2</ele>
        <time>2026-07-07T10:21:26.000Z</time>
      </trkpt>
      <trkpt lat="45.82689" lon="1.92703">
        <ele>774.7</ele>
        <time>2026-07-07T10:21:27.000Z</time>
      </trkpt>
      <trkpt lat="45.82691" lon="1.92704">
        <ele>774.1</ele>
        <time>2026-07-07T10:21:28.000Z</time>
      </trkpt>
      <trkpt lat="45.82694" lon="1.92703">
        <ele>773.8</ele>
        <time>2026-07-07T10:21:29.000Z</time>
      </trkpt>
      <trkpt lat="45.82696" lon="1.92702">
        <ele>773.8</ele>
        <time>2026-07-07T10:21:30.000Z</time>
      </trkpt>
      <trkpt lat="45.82698" lon="1.92701">
        <ele>773.8</ele>
        <time>2026-07-07T10:21:31.000Z</time>
      </trkpt>
      <trkpt lat="45.82701" lon="1.927">
        <ele>773.9</ele>
        <time>2026-07-07T10:21:32.000Z</time>
      </trkpt>
      <trkpt lat="45.82703" lon="1.927">
        <ele>774.1</ele>
        <time>2026-07-07T10:21:33.000Z</time>
      </trkpt>
      <trkpt lat="45.82706" lon="1.927">
        <ele>773.9</ele>
        <time>2026-07-07T10:21:34.000Z</time>
      </trkpt>
      <trkpt lat="45.82708" lon="1.92699">
        <ele>773.6</ele>
        <time>2026-07-07T10:21:35.000Z</time>
      </trkpt>
      <trkpt lat="45.8271" lon="1.927">
        <ele>773.8</ele>
        <time>2026-07-07T10:21:36.000Z</time>
      </trkpt>
      <trkpt lat="45.82712" lon="1.927">
        <ele>773.6</ele>
        <time>2026-07-07T10:21:37.000Z</time>
      </trkpt>
      <trkpt lat="45.82713" lon="1.927">
        <ele>774.4</ele>
        <time>2026-07-07T10:21:38.000Z</time>
      </trkpt>
      <trkpt lat="45.82715" lon="1.92701">
        <ele>774.6</ele>
        <time>2026-07-07T10:21:39.000Z</time>
      </trkpt>
      <trkpt lat="45.82716" lon="1.92702">
        <ele>774.8</ele>
        <time>2026-07-07T10:21:40.000Z</time>
      </trkpt>
      <trkpt lat="45.82717" lon="1.92704">
        <ele>774.9</ele>
        <time>2026-07-07T10:21:41.000Z</time>
      </trkpt>
      <trkpt lat="45.82719" lon="1.92704">
        <ele>775.3</ele>
        <time>2026-07-07T10:21:42.000Z</time>
      </trkpt>
      <trkpt lat="45.82721" lon="1.92705">
        <ele>775.8</ele>
        <time>2026-07-07T10:21:43.000Z</time>
      </trkpt>
      <trkpt lat="45.82722" lon="1.92706">
        <ele>779</ele>
        <time>2026-07-07T10:21:44.000Z</time>
      </trkpt>
      <trkpt lat="45.82724" lon="1.92707">
        <ele>779.5</ele>
        <time>2026-07-07T10:21:45.000Z</time>
      </trkpt>
      <trkpt lat="45.82725" lon="1.92707">
        <ele>780.2</ele>
        <time>2026-07-07T10:21:46.000Z</time>
      </trkpt>
      <trkpt lat="45.82727" lon="1.92708">
        <ele>780.1</ele>
        <time>2026-07-07T10:21:47.000Z</time>
      </trkpt>
      <trkpt lat="45.82729" lon="1.92709">
        <ele>779.8</ele>
        <time>2026-07-07T10:21:48.000Z</time>
      </trkpt>
      <trkpt lat="45.8273" lon="1.9271">
        <ele>779.3</ele>
        <time>2026-07-07T10:21:49.000Z</time>
      </trkpt>
      <trkpt lat="45.82731" lon="1.92712">
        <ele>776.5</ele>
        <time>2026-07-07T10:21:50.000Z</time>
      </trkpt>
      <trkpt lat="45.82733" lon="1.92712">
        <ele>776.3</ele>
        <time>2026-07-07T10:21:51.000Z</time>
      </trkpt>
      <trkpt lat="45.82734" lon="1.92713">
        <ele>777</ele>
        <time>2026-07-07T10:21:52.000Z</time>
      </trkpt>
      <trkpt lat="45.82735" lon="1.92715">
        <ele>776.6</ele>
        <time>2026-07-07T10:21:53.000Z</time>
      </trkpt>
      <trkpt lat="45.82737" lon="1.92715">
        <ele>776.1</ele>
        <time>2026-07-07T10:21:54.000Z</time>
      </trkpt>
      <trkpt lat="45.82738" lon="1.92717">
        <ele>776.8</ele>
        <time>2026-07-07T10:21:55.000Z</time>
      </trkpt>
      <trkpt lat="45.8274" lon="1.92717">
        <ele>778.1</ele>
        <time>2026-07-07T10:21:56.000Z</time>
      </trkpt>
      <trkpt lat="45.82742" lon="1.92717">
        <ele>778.2</ele>
        <time>2026-07-07T10:21:57.000Z</time>
      </trkpt>
      <trkpt lat="45.82744" lon="1.92718">
        <ele>778.4</ele>
        <time>2026-07-07T10:21:58.000Z</time>
      </trkpt>
      <trkpt lat="45.82746" lon="1.92719">
        <ele>777.6</ele>
        <time>2026-07-07T10:21:59.000Z</time>
      </trkpt>
      <trkpt lat="45.82748" lon="1.92721">
        <ele>777.7</ele>
        <time>2026-07-07T10:22:00.000Z</time>
      </trkpt>
      <trkpt lat="45.82751" lon="1.92723">
        <ele>778.4</ele>
        <time>2026-07-07T10:22:01.000Z</time>
      </trkpt>
      <trkpt lat="45.82754" lon="1.92724">
        <ele>779.2</ele>
        <time>2026-07-07T10:22:02.000Z</time>
      </trkpt>
      <trkpt lat="45.82756" lon="1.92726">
        <ele>779.7</ele>
        <time>2026-07-07T10:22:03.000Z</time>
      </trkpt>
      <trkpt lat="45.82759" lon="1.92728">
        <ele>780.3</ele>
        <time>2026-07-07T10:22:04.000Z</time>
      </trkpt>
      <trkpt lat="45.82762" lon="1.9273">
        <ele>780.3</ele>
        <time>2026-07-07T10:22:05.000Z</time>
      </trkpt>
      <trkpt lat="45.82765" lon="1.92732">
        <ele>780.2</ele>
        <time>2026-07-07T10:22:06.000Z</time>
      </trkpt>
      <trkpt lat="45.82767" lon="1.92734">
        <ele>780.9</ele>
        <time>2026-07-07T10:22:07.000Z</time>
      </trkpt>
      <trkpt lat="45.8277" lon="1.92736">
        <ele>781.1</ele>
        <time>2026-07-07T10:22:08.000Z</time>
      </trkpt>
      <trkpt lat="45.82773" lon="1.92738">
        <ele>781.4</ele>
        <time>2026-07-07T10:22:09.000Z</time>
      </trkpt>
      <trkpt lat="45.82776" lon="1.92739">
        <ele>780.4</ele>
        <time>2026-07-07T10:22:10.000Z</time>
      </trkpt>
      <trkpt lat="45.82778" lon="1.9274">
        <ele>780.7</ele>
        <time>2026-07-07T10:22:11.000Z</time>
      </trkpt>
      <trkpt lat="45.82781" lon="1.92741">
        <ele>780.5</ele>
        <time>2026-07-07T10:22:12.000Z</time>
      </trkpt>
      <trkpt lat="45.82783" lon="1.92742">
        <ele>780.9</ele>
        <time>2026-07-07T10:22:13.000Z</time>
      </trkpt>
      <trkpt lat="45.82785" lon="1.92742">
        <ele>780.6</ele>
        <time>2026-07-07T10:22:14.000Z</time>
      </trkpt>
      <trkpt lat="45.82788" lon="1.92743">
        <ele>782.2</ele>
        <time>2026-07-07T10:22:15.000Z</time>
      </trkpt>
      <trkpt lat="45.8279" lon="1.92743">
        <ele>782</ele>
        <time>2026-07-07T10:22:16.000Z</time>
      </trkpt>
      <trkpt lat="45.82792" lon="1.92744">
        <ele>782.2</ele>
        <time>2026-07-07T10:22:17.000Z</time>
      </trkpt>
      <trkpt lat="45.82795" lon="1.92744">
        <ele>782</ele>
        <time>2026-07-07T10:22:18.000Z</time>
      </trkpt>
      <trkpt lat="45.82797" lon="1.92745">
        <ele>782.9</ele>
        <time>2026-07-07T10:22:19.000Z</time>
      </trkpt>
      <trkpt lat="45.82799" lon="1.92745">
        <ele>782.9</ele>
        <time>2026-07-07T10:22:20.000Z</time>
      </trkpt>
      <trkpt lat="45.82801" lon="1.92746">
        <ele>783</ele>
        <time>2026-07-07T10:22:21.000Z</time>
      </trkpt>
      <trkpt lat="45.82803" lon="1.92746">
        <ele>781.7</ele>
        <time>2026-07-07T10:22:22.000Z</time>
      </trkpt>
      <trkpt lat="45.82805" lon="1.92747">
        <ele>780.9</ele>
        <time>2026-07-07T10:22:23.000Z</time>
      </trkpt>
      <trkpt lat="45.82807" lon="1.92747">
        <ele>780.7</ele>
        <time>2026-07-07T10:22:24.000Z</time>
      </trkpt>
      <trkpt lat="45.82808" lon="1.92748">
        <ele>780.1</ele>
        <time>2026-07-07T10:22:25.000Z</time>
      </trkpt>
      <trkpt lat="45.82809" lon="1.92749">
        <ele>779.7</ele>
        <time>2026-07-07T10:22:26.000Z</time>
      </trkpt>
      <trkpt lat="45.82811" lon="1.92749">
        <ele>782.6</ele>
        <time>2026-07-07T10:22:27.000Z</time>
      </trkpt>
      <trkpt lat="45.82812" lon="1.92749">
        <ele>781.9</ele>
        <time>2026-07-07T10:22:28.000Z</time>
      </trkpt>
      <trkpt lat="45.82814" lon="1.92748">
        <ele>782.2</ele>
        <time>2026-07-07T10:22:29.000Z</time>
      </trkpt>
      <trkpt lat="45.82815" lon="1.92746">
        <ele>782.2</ele>
        <time>2026-07-07T10:22:30.000Z</time>
      </trkpt>
      <trkpt lat="45.82816" lon="1.92746">
        <ele>782.8</ele>
        <time>2026-07-07T10:22:31.000Z</time>
      </trkpt>
      <trkpt lat="45.82817" lon="1.92744">
        <ele>782.4</ele>
        <time>2026-07-07T10:22:32.000Z</time>
      </trkpt>
      <trkpt lat="45.82818" lon="1.92744">
        <ele>782.8</ele>
        <time>2026-07-07T10:22:33.000Z</time>
      </trkpt>
      <trkpt lat="45.8282" lon="1.92745">
        <ele>782.3</ele>
        <time>2026-07-07T10:22:34.000Z</time>
      </trkpt>
      <trkpt lat="45.82821" lon="1.92745">
        <ele>781.4</ele>
        <time>2026-07-07T10:22:35.000Z</time>
      </trkpt>
      <trkpt lat="45.82822" lon="1.92745">
        <ele>781.6</ele>
        <time>2026-07-07T10:22:36.000Z</time>
      </trkpt>
      <trkpt lat="45.82823" lon="1.92746">
        <ele>781.8</ele>
        <time>2026-07-07T10:22:37.000Z</time>
      </trkpt>
      <trkpt lat="45.82824" lon="1.92747">
        <ele>782.1</ele>
        <time>2026-07-07T10:22:38.000Z</time>
      </trkpt>
      <trkpt lat="45.82825" lon="1.92749">
        <ele>781.9</ele>
        <time>2026-07-07T10:22:39.000Z</time>
      </trkpt>
      <trkpt lat="45.82825" lon="1.92751">
        <ele>781.4</ele>
        <time>2026-07-07T10:22:40.000Z</time>
      </trkpt>
      <trkpt lat="45.82824" lon="1.92754">
        <ele>780.9</ele>
        <time>2026-07-07T10:22:41.000Z</time>
      </trkpt>
      <trkpt lat="45.82824" lon="1.92757">
        <ele>780.6</ele>
        <time>2026-07-07T10:22:42.000Z</time>
      </trkpt>
      <trkpt lat="45.82823" lon="1.92759">
        <ele>780.5</ele>
        <time>2026-07-07T10:22:43.000Z</time>
      </trkpt>
      <trkpt lat="45.82823" lon="1.92762">
        <ele>779.7</ele>
        <time>2026-07-07T10:22:44.000Z</time>
      </trkpt>
      <trkpt lat="45.82823" lon="1.92765">
        <ele>780.4</ele>
        <time>2026-07-07T10:22:45.000Z</time>
      </trkpt>
      <trkpt lat="45.82823" lon="1.92768">
        <ele>780.8</ele>
        <time>2026-07-07T10:22:46.000Z</time>
      </trkpt>
      <trkpt lat="45.82822" lon="1.92771">
        <ele>779.7</ele>
        <time>2026-07-07T10:22:47.000Z</time>
      </trkpt>
      <trkpt lat="45.82822" lon="1.92773">
        <ele>779.6</ele>
        <time>2026-07-07T10:22:48.000Z</time>
      </trkpt>
      <trkpt lat="45.82822" lon="1.92776">
        <ele>779.6</ele>
        <time>2026-07-07T10:22:49.000Z</time>
      </trkpt>
      <trkpt lat="45.82821" lon="1.92779">
        <ele>780.4</ele>
        <time>2026-07-07T10:22:50.000Z</time>
      </trkpt>
      <trkpt lat="45.82821" lon="1.92782">
        <ele>780.1</ele>
        <time>2026-07-07T10:22:51.000Z</time>
      </trkpt>
      <trkpt lat="45.82821" lon="1.92784">
        <ele>780</ele>
        <time>2026-07-07T10:22:52.000Z</time>
      </trkpt>
      <trkpt lat="45.82822" lon="1.92786">
        <ele>779.1</ele>
        <time>2026-07-07T10:22:53.000Z</time>
      </trkpt>
      <trkpt lat="45.82822" lon="1.92789">
        <ele>779.3</ele>
        <time>2026-07-07T10:22:54.000Z</time>
      </trkpt>
      <trkpt lat="45.82823" lon="1.92791">
        <ele>780.1</ele>
        <time>2026-07-07T10:22:55.000Z</time>
      </trkpt>
      <trkpt lat="45.82823" lon="1.92793">
        <ele>779.9</ele>
        <time>2026-07-07T10:22:56.000Z</time>
      </trkpt>
      <trkpt lat="45.82823" lon="1.92793">
        <ele>780.1</ele>
        <time>2026-07-07T10:22:57.000Z</time>
      </trkpt>
      <trkpt lat="45.82823" lon="1.92795">
        <ele>780.5</ele>
        <time>2026-07-07T10:22:58.000Z</time>
      </trkpt>
      <trkpt lat="45.82823" lon="1.92797">
        <ele>780.5</ele>
        <time>2026-07-07T10:22:59.000Z</time>
      </trkpt>
      <trkpt lat="45.82824" lon="1.92799">
        <ele>779.9</ele>
        <time>2026-07-07T10:23:00.000Z</time>
      </trkpt>
      <trkpt lat="45.82825" lon="1.92801">
        <ele>779.4</ele>
        <time>2026-07-07T10:23:01.000Z</time>
      </trkpt>
      <trkpt lat="45.82825" lon="1.92804">
        <ele>779.2</ele>
        <time>2026-07-07T10:23:02.000Z</time>
      </trkpt>
      <trkpt lat="45.82825" lon="1.92807">
        <ele>779</ele>
        <time>2026-07-07T10:23:03.000Z</time>
      </trkpt>
      <trkpt lat="45.82825" lon="1.92809">
        <ele>779.1</ele>
        <time>2026-07-07T10:23:04.000Z</time>
      </trkpt>
      <trkpt lat="45.82825" lon="1.92813">
        <ele>779.7</ele>
        <time>2026-07-07T10:23:05.000Z</time>
      </trkpt>
      <trkpt lat="45.82824" lon="1.92815">
        <ele>778.9</ele>
        <time>2026-07-07T10:23:06.000Z</time>
      </trkpt>
      <trkpt lat="45.82824" lon="1.92818">
        <ele>779</ele>
        <time>2026-07-07T10:23:07.000Z</time>
      </trkpt>
      <trkpt lat="45.82824" lon="1.9282">
        <ele>778.3</ele>
        <time>2026-07-07T10:23:08.000Z</time>
      </trkpt>
      <trkpt lat="45.82825" lon="1.92822">
        <ele>779.1</ele>
        <time>2026-07-07T10:23:09.000Z</time>
      </trkpt>
      <trkpt lat="45.82825" lon="1.92824">
        <ele>779.2</ele>
        <time>2026-07-07T10:23:10.000Z</time>
      </trkpt>
      <trkpt lat="45.82826" lon="1.92826">
        <ele>779.3</ele>
        <time>2026-07-07T10:23:11.000Z</time>
      </trkpt>
      <trkpt lat="45.82826" lon="1.92828">
        <ele>777.9</ele>
        <time>2026-07-07T10:23:12.000Z</time>
      </trkpt>
      <trkpt lat="45.82826" lon="1.9283">
        <ele>776.5</ele>
        <time>2026-07-07T10:23:13.000Z</time>
      </trkpt>
      <trkpt lat="45.82828" lon="1.92832">
        <ele>778.1</ele>
        <time>2026-07-07T10:23:14.000Z</time>
      </trkpt>
      <trkpt lat="45.82829" lon="1.92833">
        <ele>776.8</ele>
        <time>2026-07-07T10:23:15.000Z</time>
      </trkpt>
      <trkpt lat="45.8283" lon="1.92832">
        <ele>777</ele>
        <time>2026-07-07T10:23:16.000Z</time>
      </trkpt>
      <trkpt lat="45.82832" lon="1.92832">
        <ele>776.4</ele>
        <time>2026-07-07T10:23:17.000Z</time>
      </trkpt>
      <trkpt lat="45.82833" lon="1.92831">
        <ele>776.6</ele>
        <time>2026-07-07T10:23:18.000Z</time>
      </trkpt>
      <trkpt lat="45.82834" lon="1.92831">
        <ele>776.7</ele>
        <time>2026-07-07T10:23:19.000Z</time>
      </trkpt>
      <trkpt lat="45.82835" lon="1.92832">
        <ele>776.2</ele>
        <time>2026-07-07T10:23:20.000Z</time>
      </trkpt>
      <trkpt lat="45.82835" lon="1.92834">
        <ele>777</ele>
        <time>2026-07-07T10:23:21.000Z</time>
      </trkpt>
      <trkpt lat="45.82836" lon="1.92834">
        <ele>776.7</ele>
        <time>2026-07-07T10:23:22.000Z</time>
      </trkpt>
      <trkpt lat="45.82836" lon="1.92834">
        <ele>776.7</ele>
        <time>2026-07-07T10:23:23.000Z</time>
      </trkpt>
      <trkpt lat="45.82836" lon="1.92835">
        <ele>776.8</ele>
        <time>2026-07-07T10:23:24.000Z</time>
      </trkpt>
      <trkpt lat="45.82836" lon="1.92835">
        <ele>776.8</ele>
        <time>2026-07-07T10:23:25.000Z</time>
      </trkpt>
      <trkpt lat="45.82836" lon="1.92836">
        <ele>776.6</ele>
        <time>2026-07-07T10:23:26.000Z</time>
      </trkpt>
      <trkpt lat="45.82837" lon="1.92835">
        <ele>776.3</ele>
        <time>2026-07-07T10:23:27.000Z</time>
      </trkpt>
      <trkpt lat="45.82838" lon="1.92835">
        <ele>776.5</ele>
        <time>2026-07-07T10:23:28.000Z</time>
      </trkpt>
      <trkpt lat="45.82838" lon="1.92835">
        <ele>775.9</ele>
        <time>2026-07-07T10:23:29.000Z</time>
      </trkpt>
      <trkpt lat="45.82838" lon="1.92835">
        <ele>775.7</ele>
        <time>2026-07-07T10:23:30.000Z</time>
      </trkpt>
      <trkpt lat="45.82837" lon="1.92835">
        <ele>775.7</ele>
        <time>2026-07-07T10:23:31.000Z</time>
      </trkpt>
      <trkpt lat="45.82837" lon="1.92835">
        <ele>775.7</ele>
        <time>2026-07-07T10:23:32.000Z</time>
      </trkpt>
      <trkpt lat="45.82837" lon="1.92835">
        <ele>775.7</ele>
        <time>2026-07-07T10:23:33.000Z</time>
      </trkpt>
      <trkpt lat="45.82837" lon="1.92835">
        <ele>775.7</ele>
        <time>2026-07-07T10:23:34.000Z</time>
      </trkpt>
      <trkpt lat="45.82837" lon="1.92835">
        <ele>775.7</ele>
        <time>2026-07-07T10:23:35.000Z</time>
      </trkpt>
      <trkpt lat="45.82837" lon="1.92835">
        <ele>775.7</ele>
        <time>2026-07-07T10:23:36.000Z</time>
      </trkpt>
      <trkpt lat="45.82837" lon="1.92835">
        <ele>775.7</ele>
        <time>2026-07-07T10:23:37.000Z</time>
      </trkpt>
      <trkpt lat="45.82837" lon="1.92835">
        <ele>775.7</ele>
        <time>2026-07-07T10:23:38.000Z</time>
      </trkpt>
      <trkpt lat="45.82837" lon="1.92835">
        <ele>775.7</ele>
        <time>2026-07-07T10:23:39.000Z</time>
      </trkpt>
      <trkpt lat="45.82837" lon="1.92835">
        <ele>775.7</ele>
        <time>2026-07-07T10:23:40.000Z</time>
      </trkpt>
      <trkpt lat="45.82837" lon="1.92835">
        <ele>775.7</ele>
        <time>2026-07-07T10:23:41.000Z</time>
      </trkpt>
      <trkpt lat="45.82838" lon="1.92835">
        <ele>775.7</ele>
        <time>2026-07-07T10:23:42.000Z</time>
      </trkpt>
      <trkpt lat="45.82838" lon="1.92835">
        <ele>775.7</ele>
        <time>2026-07-07T10:23:43.000Z</time>
      </trkpt>
      <trkpt lat="45.82838" lon="1.92835">
        <ele>775.7</ele>
        <time>2026-07-07T10:23:44.000Z</time>
      </trkpt>
      <trkpt lat="45.82838" lon="1.92835">
        <ele>775.7</ele>
        <time>2026-07-07T10:23:45.000Z</time>
      </trkpt>
      <trkpt lat="45.82838" lon="1.92835">
        <ele>775.7</ele>
        <time>2026-07-07T10:23:46.000Z</time>
      </trkpt>
      <trkpt lat="45.82838" lon="1.92835">
        <ele>775.7</ele>
        <time>2026-07-07T10:23:47.000Z</time>
      </trkpt>
      <trkpt lat="45.82838" lon="1.92835">
        <ele>775.7</ele>
        <time>2026-07-07T10:23:48.000Z</time>
      </trkpt>
      <trkpt lat="45.82838" lon="1.92835">
        <ele>776.2</ele>
        <time>2026-07-07T10:23:49.000Z</time>
      </trkpt>
      <trkpt lat="45.82838" lon="1.92835">
        <ele>776.9</ele>
        <time>2026-07-07T10:23:50.000Z</time>
      </trkpt>
      <trkpt lat="45.82838" lon="1.92835">
        <ele>776.7</ele>
        <time>2026-07-07T10:23:51.000Z</time>
      </trkpt>
      <trkpt lat="45.82838" lon="1.92835">
        <ele>776.9</ele>
        <time>2026-07-07T10:23:52.000Z</time>
      </trkpt>
      <trkpt lat="45.82838" lon="1.92835">
        <ele>777</ele>
        <time>2026-07-07T10:23:53.000Z</time>
      </trkpt>
      <trkpt lat="45.82837" lon="1.92836">
        <ele>775.7</ele>
        <time>2026-07-07T10:23:54.000Z</time>
      </trkpt>
      <trkpt lat="45.82836" lon="1.92836">
        <ele>775.7</ele>
        <time>2026-07-07T10:23:55.000Z</time>
      </trkpt>
      <trkpt lat="45.82836" lon="1.92836">
        <ele>776.1</ele>
        <time>2026-07-07T10:23:56.000Z</time>
      </trkpt>
      <trkpt lat="45.82836" lon="1.92837">
        <ele>776.4</ele>
        <time>2026-07-07T10:23:57.000Z</time>
      </trkpt>
      <trkpt lat="45.82837" lon="1.92838">
        <ele>776.1</ele>
        <time>2026-07-07T10:23:58.000Z</time>
      </trkpt>
      <trkpt lat="45.82837" lon="1.92838">
        <ele>776.2</ele>
        <time>2026-07-07T10:23:59.000Z</time>
      </trkpt>
      <trkpt lat="45.82838" lon="1.92837">
        <ele>775.5</ele>
        <time>2026-07-07T10:24:00.000Z</time>
      </trkpt>
      <trkpt lat="45.82838" lon="1.92836">
        <ele>775.3</ele>
        <time>2026-07-07T10:24:01.000Z</time>
      </trkpt>
      <trkpt lat="45.82838" lon="1.92835">
        <ele>774.7</ele>
        <time>2026-07-07T10:24:02.000Z</time>
      </trkpt>
      <trkpt lat="45.82838" lon="1.92833">
        <ele>774.4</ele>
        <time>2026-07-07T10:24:03.000Z</time>
      </trkpt>
      <trkpt lat="45.82838" lon="1.92832">
        <ele>774.4</ele>
        <time>2026-07-07T10:24:04.000Z</time>
      </trkpt>
      <trkpt lat="45.82838" lon="1.92832">
        <ele>774.4</ele>
        <time>2026-07-07T10:24:05.000Z</time>
      </trkpt>
      <trkpt lat="45.82838" lon="1.92832">
        <ele>774.4</ele>
        <time>2026-07-07T10:24:06.000Z</time>
      </trkpt>
      <trkpt lat="45.82838" lon="1.92832">
        <ele>774.4</ele>
        <time>2026-07-07T10:24:07.000Z</time>
      </trkpt>
      <trkpt lat="45.82837" lon="1.9283">
        <ele>773.8</ele>
        <time>2026-07-07T10:24:08.000Z</time>
      </trkpt>
      <trkpt lat="45.82835" lon="1.92828">
        <ele>773.4</ele>
        <time>2026-07-07T10:24:09.000Z</time>
      </trkpt>
      <trkpt lat="45.82834" lon="1.92826">
        <ele>772.9</ele>
        <time>2026-07-07T10:24:10.000Z</time>
      </trkpt>
      <trkpt lat="45.82833" lon="1.92825">
        <ele>772.1</ele>
        <time>2026-07-07T10:24:11.000Z</time>
      </trkpt>
      <trkpt lat="45.82833" lon="1.92823">
        <ele>773</ele>
        <time>2026-07-07T10:24:12.000Z</time>
      </trkpt>
      <trkpt lat="45.82831" lon="1.92821">
        <ele>772.3</ele>
        <time>2026-07-07T10:24:13.000Z</time>
      </trkpt>
      <trkpt lat="45.82828" lon="1.92823">
        <ele>772.6</ele>
        <time>2026-07-07T10:24:14.000Z</time>
      </trkpt>
      <trkpt lat="45.82831" lon="1.92818">
        <ele>772</ele>
        <time>2026-07-07T10:24:15.000Z</time>
      </trkpt>
      <trkpt lat="45.82832" lon="1.92816">
        <ele>772.4</ele>
        <time>2026-07-07T10:24:16.000Z</time>
      </trkpt>
      <trkpt lat="45.82833" lon="1.92814">
        <ele>773.2</ele>
        <time>2026-07-07T10:24:17.000Z</time>
      </trkpt>
      <trkpt lat="45.82832" lon="1.92812">
        <ele>773</ele>
        <time>2026-07-07T10:24:18.000Z</time>
      </trkpt>
      <trkpt lat="45.82831" lon="1.92812">
        <ele>771.9</ele>
        <time>2026-07-07T10:24:19.000Z</time>
      </trkpt>
      <trkpt lat="45.82831" lon="1.92812">
        <ele>771.6</ele>
        <time>2026-07-07T10:24:20.000Z</time>
      </trkpt>
      <trkpt lat="45.82831" lon="1.92812">
        <ele>771.7</ele>
        <time>2026-07-07T10:24:21.000Z</time>
      </trkpt>
      <trkpt lat="45.82831" lon="1.92812">
        <ele>771.7</ele>
        <time>2026-07-07T10:24:22.000Z</time>
      </trkpt>
      <trkpt lat="45.82831" lon="1.92812">
        <ele>771.7</ele>
        <time>2026-07-07T10:24:23.000Z</time>
      </trkpt>
      <trkpt lat="45.82831" lon="1.92812">
        <ele>771.7</ele>
        <time>2026-07-07T10:24:24.000Z</time>
      </trkpt>
      <trkpt lat="45.82831" lon="1.92812">
        <ele>771.7</ele>
        <time>2026-07-07T10:24:25.000Z</time>
      </trkpt>
      <trkpt lat="45.82831" lon="1.92812">
        <ele>771.7</ele>
        <time>2026-07-07T10:24:26.000Z</time>
      </trkpt>
      <trkpt lat="45.82831" lon="1.92812">
        <ele>771.8</ele>
        <time>2026-07-07T10:24:27.000Z</time>
      </trkpt>
      <trkpt lat="45.82831" lon="1.92812">
        <ele>771.8</ele>
        <time>2026-07-07T10:24:28.000Z</time>
      </trkpt>
      <trkpt lat="45.82831" lon="1.92812">
        <ele>771.7</ele>
        <time>2026-07-07T10:24:29.000Z</time>
      </trkpt>
      <trkpt lat="45.82831" lon="1.92812">
        <ele>771.7</ele>
        <time>2026-07-07T10:24:30.000Z</time>
      </trkpt>
      <trkpt lat="45.82831" lon="1.92812">
        <ele>771.7</ele>
        <time>2026-07-07T10:24:31.000Z</time>
      </trkpt>
      <trkpt lat="45.82831" lon="1.92812">
        <ele>771.7</ele>
        <time>2026-07-07T10:24:32.000Z</time>
      </trkpt>
      <trkpt lat="45.82831" lon="1.92812">
        <ele>771.7</ele>
        <time>2026-07-07T10:24:33.000Z</time>
      </trkpt>
      <trkpt lat="45.82831" lon="1.92812">
        <ele>771.8</ele>
        <time>2026-07-07T10:24:34.000Z</time>
      </trkpt>
      <trkpt lat="45.82831" lon="1.92812">
        <ele>771.8</ele>
        <time>2026-07-07T10:24:35.000Z</time>
      </trkpt>
      <trkpt lat="45.82831" lon="1.92812">
        <ele>771.7</ele>
        <time>2026-07-07T10:24:36.000Z</time>
      </trkpt>
      <trkpt lat="45.82831" lon="1.92812">
        <ele>771.7</ele>
        <time>2026-07-07T10:24:37.000Z</time>
      </trkpt>
      <trkpt lat="45.82831" lon="1.92812">
        <ele>771.8</ele>
        <time>2026-07-07T10:24:38.000Z</time>
      </trkpt>
      <trkpt lat="45.8283" lon="1.92812">
        <ele>771.7</ele>
        <time>2026-07-07T10:24:39.000Z</time>
      </trkpt>
      <trkpt lat="45.8283" lon="1.92812">
        <ele>773.5</ele>
        <time>2026-07-07T10:24:40.000Z</time>
      </trkpt>
      <trkpt lat="45.82829" lon="1.92812">
        <ele>773.5</ele>
        <time>2026-07-07T10:24:41.000Z</time>
      </trkpt>
      <trkpt lat="45.82829" lon="1.92812">
        <ele>773.5</ele>
        <time>2026-07-07T10:24:42.000Z</time>
      </trkpt>
      <trkpt lat="45.82829" lon="1.92812">
        <ele>773.5</ele>
        <time>2026-07-07T10:24:43.000Z</time>
      </trkpt>
      <trkpt lat="45.82829" lon="1.92812">
        <ele>773.5</ele>
        <time>2026-07-07T10:24:44.000Z</time>
      </trkpt>
      <trkpt lat="45.82829" lon="1.92812">
        <ele>773.5</ele>
        <time>2026-07-07T10:24:45.000Z</time>
      </trkpt>
      <trkpt lat="45.82829" lon="1.92812">
        <ele>773.5</ele>
        <time>2026-07-07T10:24:46.000Z</time>
      </trkpt>
      <trkpt lat="45.82829" lon="1.92813">
        <ele>772.8</ele>
        <time>2026-07-07T10:24:47.000Z</time>
      </trkpt>
      <trkpt lat="45.82829" lon="1.92814">
        <ele>773.1</ele>
        <time>2026-07-07T10:24:48.000Z</time>
      </trkpt>
      <trkpt lat="45.82829" lon="1.92815">
        <ele>772.5</ele>
        <time>2026-07-07T10:24:49.000Z</time>
      </trkpt>
      <trkpt lat="45.82829" lon="1.92817">
        <ele>772.4</ele>
        <time>2026-07-07T10:24:50.000Z</time>
      </trkpt>
      <trkpt lat="45.82828" lon="1.92818">
        <ele>772.7</ele>
        <time>2026-07-07T10:24:51.000Z</time>
      </trkpt>
      <trkpt lat="45.82828" lon="1.92819">
        <ele>773.1</ele>
        <time>2026-07-07T10:24:52.000Z</time>
      </trkpt>
      <trkpt lat="45.82829" lon="1.92821">
        <ele>775.4</ele>
        <time>2026-07-07T10:24:53.000Z</time>
      </trkpt>
      <trkpt lat="45.82829" lon="1.92823">
        <ele>775.3</ele>
        <time>2026-07-07T10:24:54.000Z</time>
      </trkpt>
      <trkpt lat="45.8283" lon="1.92824">
        <ele>774.3</ele>
        <time>2026-07-07T10:24:55.000Z</time>
      </trkpt>
      <trkpt lat="45.82832" lon="1.92826">
        <ele>775.8</ele>
        <time>2026-07-07T10:24:56.000Z</time>
      </trkpt>
      <trkpt lat="45.82832" lon="1.92827">
        <ele>775.7</ele>
        <time>2026-07-07T10:24:57.000Z</time>
      </trkpt>
      <trkpt lat="45.82833" lon="1.92829">
        <ele>775.7</ele>
        <time>2026-07-07T10:24:58.000Z</time>
      </trkpt>
      <trkpt lat="45.82832" lon="1.9283">
        <ele>775.6</ele>
        <time>2026-07-07T10:24:59.000Z</time>
      </trkpt>
      <trkpt lat="45.82833" lon="1.9283">
        <ele>776</ele>
        <time>2026-07-07T10:25:00.000Z</time>
      </trkpt>
      <trkpt lat="45.82832" lon="1.92831">
        <ele>775.7</ele>
        <time>2026-07-07T10:25:01.000Z</time>
      </trkpt>
      <trkpt lat="45.82832" lon="1.92831">
        <ele>775.7</ele>
        <time>2026-07-07T10:25:02.000Z</time>
      </trkpt>
      <trkpt lat="45.82832" lon="1.92831">
        <ele>775.7</ele>
        <time>2026-07-07T10:25:03.000Z</time>
      </trkpt>
      <trkpt lat="45.82832" lon="1.92832">
        <ele>776</ele>
        <time>2026-07-07T10:25:04.000Z</time>
      </trkpt>
      <trkpt lat="45.82832" lon="1.92832">
        <ele>775.8</ele>
        <time>2026-07-07T10:25:05.000Z</time>
      </trkpt>
      <trkpt lat="45.82832" lon="1.92831">
        <ele>775.9</ele>
        <time>2026-07-07T10:25:06.000Z</time>
      </trkpt>
      <trkpt lat="45.82832" lon="1.9283">
        <ele>776.2</ele>
        <time>2026-07-07T10:25:07.000Z</time>
      </trkpt>
      <trkpt lat="45.82831" lon="1.9283">
        <ele>776</ele>
        <time>2026-07-07T10:25:08.000Z</time>
      </trkpt>
      <trkpt lat="45.82831" lon="1.9283">
        <ele>776.5</ele>
        <time>2026-07-07T10:25:09.000Z</time>
      </trkpt>
      <trkpt lat="45.82831" lon="1.9283">
        <ele>776.5</ele>
        <time>2026-07-07T10:25:10.000Z</time>
      </trkpt>
      <trkpt lat="45.82831" lon="1.9283">
        <ele>776.5</ele>
        <time>2026-07-07T10:25:11.000Z</time>
      </trkpt>
      <trkpt lat="45.82831" lon="1.9283">
        <ele>776.5</ele>
        <time>2026-07-07T10:25:12.000Z</time>
      </trkpt>
      <trkpt lat="45.82831" lon="1.9283">
        <ele>776.5</ele>
        <time>2026-07-07T10:25:13.000Z</time>
      </trkpt>
      <trkpt lat="45.82831" lon="1.9283">
        <ele>776.5</ele>
        <time>2026-07-07T10:25:14.000Z</time>
      </trkpt>
      <trkpt lat="45.82831" lon="1.9283">
        <ele>776.6</ele>
        <time>2026-07-07T10:25:15.000Z</time>
      </trkpt>
      <trkpt lat="45.82831" lon="1.92829">
        <ele>776.6</ele>
        <time>2026-07-07T10:25:16.000Z</time>
      </trkpt>
      <trkpt lat="45.82831" lon="1.92829">
        <ele>777.5</ele>
        <time>2026-07-07T10:25:17.000Z</time>
      </trkpt>
      <trkpt lat="45.8283" lon="1.92828">
        <ele>777.6</ele>
        <time>2026-07-07T10:25:18.000Z</time>
      </trkpt>
      <trkpt lat="45.8283" lon="1.92827">
        <ele>777.4</ele>
        <time>2026-07-07T10:25:19.000Z</time>
      </trkpt>
      <trkpt lat="45.8283" lon="1.92827">
        <ele>777.1</ele>
        <time>2026-07-07T10:25:20.000Z</time>
      </trkpt>
      <trkpt lat="45.82829" lon="1.92826">
        <ele>777.4</ele>
        <time>2026-07-07T10:25:21.000Z</time>
      </trkpt>
      <trkpt lat="45.82828" lon="1.92825">
        <ele>777.7</ele>
        <time>2026-07-07T10:25:22.000Z</time>
      </trkpt>
      <trkpt lat="45.82828" lon="1.92825">
        <ele>777.3</ele>
        <time>2026-07-07T10:25:23.000Z</time>
      </trkpt>
      <trkpt lat="45.82828" lon="1.92824">
        <ele>776.9</ele>
        <time>2026-07-07T10:25:24.000Z</time>
      </trkpt>
      <trkpt lat="45.82828" lon="1.92823">
        <ele>776.7</ele>
        <time>2026-07-07T10:25:25.000Z</time>
      </trkpt>
      <trkpt lat="45.82828" lon="1.92822">
        <ele>777</ele>
        <time>2026-07-07T10:25:26.000Z</time>
      </trkpt>
      <trkpt lat="45.82829" lon="1.92822">
        <ele>776.8</ele>
        <time>2026-07-07T10:25:27.000Z</time>
      </trkpt>
      <trkpt lat="45.82828" lon="1.92821">
        <ele>776.9</ele>
        <time>2026-07-07T10:25:28.000Z</time>
      </trkpt>
      <trkpt lat="45.82828" lon="1.9282">
        <ele>776.9</ele>
        <time>2026-07-07T10:25:29.000Z</time>
      </trkpt>
      <trkpt lat="45.82828" lon="1.92819">
        <ele>777.7</ele>
        <time>2026-07-07T10:25:30.000Z</time>
      </trkpt>
      <trkpt lat="45.82828" lon="1.92819">
        <ele>777.7</ele>
        <time>2026-07-07T10:25:31.000Z</time>
      </trkpt>
      <trkpt lat="45.82827" lon="1.92819">
        <ele>777.6</ele>
        <time>2026-07-07T10:25:32.000Z</time>
      </trkpt>
      <trkpt lat="45.82827" lon="1.9282">
        <ele>777.5</ele>
        <time>2026-07-07T10:25:33.000Z</time>
      </trkpt>
      <trkpt lat="45.82827" lon="1.92821">
        <ele>777</ele>
        <time>2026-07-07T10:25:34.000Z</time>
      </trkpt>
      <trkpt lat="45.82827" lon="1.92821">
        <ele>777</ele>
        <time>2026-07-07T10:25:35.000Z</time>
      </trkpt>
      <trkpt lat="45.82827" lon="1.92821">
        <ele>777</ele>
        <time>2026-07-07T10:25:36.000Z</time>
      </trkpt>
      <trkpt lat="45.82827" lon="1.92821">
        <ele>777</ele>
        <time>2026-07-07T10:25:37.000Z</time>
      </trkpt>
      <trkpt lat="45.82827" lon="1.92821">
        <ele>777</ele>
        <time>2026-07-07T10:25:38.000Z</time>
      </trkpt>
      <trkpt lat="45.82827" lon="1.92821">
        <ele>777</ele>
        <time>2026-07-07T10:25:39.000Z</time>
      </trkpt>
      <trkpt lat="45.82827" lon="1.92821">
        <ele>776.8</ele>
        <time>2026-07-07T10:25:40.000Z</time>
      </trkpt>
      <trkpt lat="45.82827" lon="1.92822">
        <ele>777.1</ele>
        <time>2026-07-07T10:25:41.000Z</time>
      </trkpt>
      <trkpt lat="45.82827" lon="1.92823">
        <ele>777.4</ele>
        <time>2026-07-07T10:25:42.000Z</time>
      </trkpt>
      <trkpt lat="45.82827" lon="1.92823">
        <ele>777.4</ele>
        <time>2026-07-07T10:25:43.000Z</time>
      </trkpt>
      <trkpt lat="45.82827" lon="1.92823">
        <ele>777.4</ele>
        <time>2026-07-07T10:25:44.000Z</time>
      </trkpt>
      <trkpt lat="45.82827" lon="1.92823">
        <ele>777.4</ele>
        <time>2026-07-07T10:25:45.000Z</time>
      </trkpt>
      <trkpt lat="45.82827" lon="1.92823">
        <ele>777.4</ele>
        <time>2026-07-07T10:25:46.000Z</time>
      </trkpt>
      <trkpt lat="45.82827" lon="1.92823">
        <ele>777.4</ele>
        <time>2026-07-07T10:25:47.000Z</time>
      </trkpt>
      <trkpt lat="45.82827" lon="1.92823">
        <ele>777.4</ele>
        <time>2026-07-07T10:25:48.000Z</time>
      </trkpt>
      <trkpt lat="45.82827" lon="1.92823">
        <ele>777.4</ele>
        <time>2026-07-07T10:25:49.000Z</time>
      </trkpt>
      <trkpt lat="45.82827" lon="1.92823">
        <ele>777.4</ele>
        <time>2026-07-07T10:25:50.000Z</time>
      </trkpt>
      <trkpt lat="45.82827" lon="1.92823">
        <ele>777.4</ele>
        <time>2026-07-07T10:25:51.000Z</time>
      </trkpt>
      <trkpt lat="45.82827" lon="1.92823">
        <ele>777.4</ele>
        <time>2026-07-07T10:25:52.000Z</time>
      </trkpt>
      <trkpt lat="45.82827" lon="1.92823">
        <ele>777.3</ele>
        <time>2026-07-07T10:25:53.000Z</time>
      </trkpt>
      <trkpt lat="45.82827" lon="1.92823">
        <ele>777.3</ele>
        <time>2026-07-07T10:25:54.000Z</time>
      </trkpt>
      <trkpt lat="45.82827" lon="1.92823">
        <ele>777.3</ele>
        <time>2026-07-07T10:25:55.000Z</time>
      </trkpt>
      <trkpt lat="45.82827" lon="1.92823">
        <ele>777.3</ele>
        <time>2026-07-07T10:25:56.000Z</time>
      </trkpt>
      <trkpt lat="45.82827" lon="1.92823">
        <ele>777.3</ele>
        <time>2026-07-07T10:25:57.000Z</time>
      </trkpt>
      <trkpt lat="45.82827" lon="1.92823">
        <ele>777.3</ele>
        <time>2026-07-07T10:25:58.000Z</time>
      </trkpt>
      <trkpt lat="45.82827" lon="1.92823">
        <ele>777.3</ele>
        <time>2026-07-07T10:25:59.000Z</time>
      </trkpt>
      <trkpt lat="45.82827" lon="1.92823">
        <ele>777.3</ele>
        <time>2026-07-07T10:26:00.000Z</time>
      </trkpt>
      <trkpt lat="45.82827" lon="1.92823">
        <ele>777.3</ele>
        <time>2026-07-07T10:26:01.000Z</time>
      </trkpt>
      <trkpt lat="45.82827" lon="1.92823">
        <ele>777.2</ele>
        <time>2026-07-07T10:26:02.000Z</time>
      </trkpt>
      <trkpt lat="45.82827" lon="1.92823">
        <ele>777.2</ele>
        <time>2026-07-07T10:26:03.000Z</time>
      </trkpt>
      <trkpt lat="45.82827" lon="1.92823">
        <ele>777.2</ele>
        <time>2026-07-07T10:26:04.000Z</time>
      </trkpt>
      <trkpt lat="45.82827" lon="1.92823">
        <ele>777.2</ele>
        <time>2026-07-07T10:26:05.000Z</time>
      </trkpt>
      <trkpt lat="45.82827" lon="1.92823">
        <ele>777.2</ele>
        <time>2026-07-07T10:26:06.000Z</time>
      </trkpt>
      <trkpt lat="45.82827" lon="1.92823">
        <ele>777.2</ele>
        <time>2026-07-07T10:26:07.000Z</time>
      </trkpt>
      <trkpt lat="45.82827" lon="1.92823">
        <ele>777.2</ele>
        <time>2026-07-07T10:26:08.000Z</time>
      </trkpt>
      <trkpt lat="45.82827" lon="1.92823">
        <ele>777.2</ele>
        <time>2026-07-07T10:26:09.000Z</time>
      </trkpt>
      <trkpt lat="45.82827" lon="1.92823">
        <ele>777.2</ele>
        <time>2026-07-07T10:26:10.000Z</time>
      </trkpt>
      <trkpt lat="45.82827" lon="1.92823">
        <ele>777.2</ele>
        <time>2026-07-07T10:26:11.000Z</time>
      </trkpt>
      <trkpt lat="45.82827" lon="1.92823">
        <ele>777.2</ele>
        <time>2026-07-07T10:26:12.000Z</time>
      </trkpt>
      <trkpt lat="45.82827" lon="1.92823">
        <ele>777.2</ele>
        <time>2026-07-07T10:26:13.000Z</time>
      </trkpt>
      <trkpt lat="45.82827" lon="1.92823">
        <ele>777.2</ele>
        <time>2026-07-07T10:26:14.000Z</time>
      </trkpt>
      <trkpt lat="45.82827" lon="1.92823">
        <ele>777.2</ele>
        <time>2026-07-07T10:26:15.000Z</time>
      </trkpt>
      <trkpt lat="45.82827" lon="1.92823">
        <ele>777.2</ele>
        <time>2026-07-07T10:26:16.000Z</time>
      </trkpt>
      <trkpt lat="45.82827" lon="1.92823">
        <ele>777.2</ele>
        <time>2026-07-07T10:26:17.000Z</time>
      </trkpt>
      <trkpt lat="45.82827" lon="1.92823">
        <ele>777.1</ele>
        <time>2026-07-07T10:26:18.000Z</time>
      </trkpt>
      <trkpt lat="45.82827" lon="1.92823">
        <ele>777</ele>
        <time>2026-07-07T10:26:19.000Z</time>
      </trkpt>
      <trkpt lat="45.82827" lon="1.92822">
        <ele>776.6</ele>
        <time>2026-07-07T10:26:20.000Z</time>
      </trkpt>
      <trkpt lat="45.82827" lon="1.92821">
        <ele>775.4</ele>
        <time>2026-07-07T10:26:21.000Z</time>
      </trkpt>
      <trkpt lat="45.82827" lon="1.9282">
        <ele>775.5</ele>
        <time>2026-07-07T10:26:22.000Z</time>
      </trkpt>
      <trkpt lat="45.82827" lon="1.9282">
        <ele>775.4</ele>
        <time>2026-07-07T10:26:23.000Z</time>
      </trkpt>
      <trkpt lat="45.82827" lon="1.92819">
        <ele>775.4</ele>
        <time>2026-07-07T10:26:24.000Z</time>
      </trkpt>
      <trkpt lat="45.82827" lon="1.92819">
        <ele>776</ele>
        <time>2026-07-07T10:26:25.000Z</time>
      </trkpt>
      <trkpt lat="45.82825" lon="1.92818">
        <ele>775.7</ele>
        <time>2026-07-07T10:26:26.000Z</time>
      </trkpt>
      <trkpt lat="45.82825" lon="1.92818">
        <ele>775</ele>
        <time>2026-07-07T10:26:27.000Z</time>
      </trkpt>
      <trkpt lat="45.82827" lon="1.92816">
        <ele>774.9</ele>
        <time>2026-07-07T10:26:28.000Z</time>
      </trkpt>
      <trkpt lat="45.82827" lon="1.92815">
        <ele>775.1</ele>
        <time>2026-07-07T10:26:29.000Z</time>
      </trkpt>
      <trkpt lat="45.82825" lon="1.92814">
        <ele>774.9</ele>
        <time>2026-07-07T10:26:30.000Z</time>
      </trkpt>
      <trkpt lat="45.82826" lon="1.92815">
        <ele>774.6</ele>
        <time>2026-07-07T10:26:31.000Z</time>
      </trkpt>
      <trkpt lat="45.82824" lon="1.92817">
        <ele>775.4</ele>
        <time>2026-07-07T10:26:32.000Z</time>
      </trkpt>
      <trkpt lat="45.82824" lon="1.9282">
        <ele>775.5</ele>
        <time>2026-07-07T10:26:33.000Z</time>
      </trkpt>
      <trkpt lat="45.82824" lon="1.9282">
        <ele>775.2</ele>
        <time>2026-07-07T10:26:34.000Z</time>
      </trkpt>
      <trkpt lat="45.82825" lon="1.92823">
        <ele>775.3</ele>
        <time>2026-07-07T10:26:35.000Z</time>
      </trkpt>
      <trkpt lat="45.82826" lon="1.92823">
        <ele>774.7</ele>
        <time>2026-07-07T10:26:36.000Z</time>
      </trkpt>
      <trkpt lat="45.82826" lon="1.92823">
        <ele>774.6</ele>
        <time>2026-07-07T10:26:37.000Z</time>
      </trkpt>
      <trkpt lat="45.82826" lon="1.92823">
        <ele>774.5</ele>
        <time>2026-07-07T10:26:38.000Z</time>
      </trkpt>
      <trkpt lat="45.82827" lon="1.92822">
        <ele>774.1</ele>
        <time>2026-07-07T10:26:39.000Z</time>
      </trkpt>
      <trkpt lat="45.82827" lon="1.9282">
        <ele>773.4</ele>
        <time>2026-07-07T10:26:40.000Z</time>
      </trkpt>
      <trkpt lat="45.82827" lon="1.9282">
        <ele>773.4</ele>
        <time>2026-07-07T10:26:41.000Z</time>
      </trkpt>
      <trkpt lat="45.82827" lon="1.9282">
        <ele>773.9</ele>
        <time>2026-07-07T10:26:42.000Z</time>
      </trkpt>
      <trkpt lat="45.82827" lon="1.9282">
        <ele>773.9</ele>
        <time>2026-07-07T10:26:43.000Z</time>
      </trkpt>
      <trkpt lat="45.82827" lon="1.9282">
        <ele>773.9</ele>
        <time>2026-07-07T10:26:44.000Z</time>
      </trkpt>
      <trkpt lat="45.82828" lon="1.92819">
        <ele>773.6</ele>
        <time>2026-07-07T10:26:45.000Z</time>
      </trkpt>
      <trkpt lat="45.82828" lon="1.92819">
        <ele>773.6</ele>
        <time>2026-07-07T10:26:46.000Z</time>
      </trkpt>
      <trkpt lat="45.82828" lon="1.92819">
        <ele>773.5</ele>
        <time>2026-07-07T10:26:47.000Z</time>
      </trkpt>
      <trkpt lat="45.82828" lon="1.92819">
        <ele>773.5</ele>
        <time>2026-07-07T10:26:48.000Z</time>
      </trkpt>
      <trkpt lat="45.82828" lon="1.92819">
        <ele>773.5</ele>
        <time>2026-07-07T10:26:49.000Z</time>
      </trkpt>
      <trkpt lat="45.82828" lon="1.92819">
        <ele>773</ele>
        <time>2026-07-07T10:26:50.000Z</time>
      </trkpt>
      <trkpt lat="45.82828" lon="1.92819">
        <ele>773.2</ele>
        <time>2026-07-07T10:26:51.000Z</time>
      </trkpt>
      <trkpt lat="45.82828" lon="1.9282">
        <ele>772.9</ele>
        <time>2026-07-07T10:26:52.000Z</time>
      </trkpt>
      <trkpt lat="45.82828" lon="1.9282">
        <ele>772.9</ele>
        <time>2026-07-07T10:26:53.000Z</time>
      </trkpt>
      <trkpt lat="45.82828" lon="1.9282">
        <ele>772.9</ele>
        <time>2026-07-07T10:26:54.000Z</time>
      </trkpt>
      <trkpt lat="45.82828" lon="1.9282">
        <ele>772.9</ele>
        <time>2026-07-07T10:26:55.000Z</time>
      </trkpt>
      <trkpt lat="45.82828" lon="1.9282">
        <ele>772.8</ele>
        <time>2026-07-07T10:26:56.000Z</time>
      </trkpt>
      <trkpt lat="45.82828" lon="1.9282">
        <ele>772.8</ele>
        <time>2026-07-07T10:26:57.000Z</time>
      </trkpt>
      <trkpt lat="45.82828" lon="1.9282">
        <ele>772.9</ele>
        <time>2026-07-07T10:26:58.000Z</time>
      </trkpt>
      <trkpt lat="45.82828" lon="1.9282">
        <ele>773.3</ele>
        <time>2026-07-07T10:26:59.000Z</time>
      </trkpt>
      <trkpt lat="45.82828" lon="1.92819">
        <ele>773.1</ele>
        <time>2026-07-07T10:27:00.000Z</time>
      </trkpt>
      <trkpt lat="45.82827" lon="1.92818">
        <ele>773.5</ele>
        <time>2026-07-07T10:27:01.000Z</time>
      </trkpt>
      <trkpt lat="45.82826" lon="1.92817">
        <ele>773.1</ele>
        <time>2026-07-07T10:27:02.000Z</time>
      </trkpt>
      <trkpt lat="45.82826" lon="1.92815">
        <ele>773.2</ele>
        <time>2026-07-07T10:27:03.000Z</time>
      </trkpt>
      <trkpt lat="45.82826" lon="1.92813">
        <ele>773.5</ele>
        <time>2026-07-07T10:27:04.000Z</time>
      </trkpt>
      <trkpt lat="45.82826" lon="1.92811">
        <ele>773</ele>
        <time>2026-07-07T10:27:05.000Z</time>
      </trkpt>
      <trkpt lat="45.82826" lon="1.9281">
        <ele>773</ele>
        <time>2026-07-07T10:27:06.000Z</time>
      </trkpt>
      <trkpt lat="45.82826" lon="1.92808">
        <ele>772.8</ele>
        <time>2026-07-07T10:27:07.000Z</time>
      </trkpt>
      <trkpt lat="45.82826" lon="1.92806">
        <ele>772.9</ele>
        <time>2026-07-07T10:27:08.000Z</time>
      </trkpt>
      <trkpt lat="45.82826" lon="1.92803">
        <ele>772.6</ele>
        <time>2026-07-07T10:27:09.000Z</time>
      </trkpt>
      <trkpt lat="45.82826" lon="1.92801">
        <ele>773</ele>
        <time>2026-07-07T10:27:10.000Z</time>
      </trkpt>
      <trkpt lat="45.82826" lon="1.92799">
        <ele>773.4</ele>
        <time>2026-07-07T10:27:11.000Z</time>
      </trkpt>
      <trkpt lat="45.82827" lon="1.92796">
        <ele>773.8</ele>
        <time>2026-07-07T10:27:12.000Z</time>
      </trkpt>
      <trkpt lat="45.82827" lon="1.92794">
        <ele>773.9</ele>
        <time>2026-07-07T10:27:13.000Z</time>
      </trkpt>
      <trkpt lat="45.82827" lon="1.92792">
        <ele>774</ele>
        <time>2026-07-07T10:27:14.000Z</time>
      </trkpt>
      <trkpt lat="45.82827" lon="1.92789">
        <ele>773.4</ele>
        <time>2026-07-07T10:27:15.000Z</time>
      </trkpt>
      <trkpt lat="45.82828" lon="1.92787">
        <ele>773.5</ele>
        <time>2026-07-07T10:27:16.000Z</time>
      </trkpt>
      <trkpt lat="45.82829" lon="1.92786">
        <ele>773.5</ele>
        <time>2026-07-07T10:27:17.000Z</time>
      </trkpt>
      <trkpt lat="45.8283" lon="1.92784">
        <ele>773.3</ele>
        <time>2026-07-07T10:27:18.000Z</time>
      </trkpt>
      <trkpt lat="45.82832" lon="1.92784">
        <ele>773.6</ele>
        <time>2026-07-07T10:27:19.000Z</time>
      </trkpt>
      <trkpt lat="45.82834" lon="1.92782">
        <ele>773.5</ele>
        <time>2026-07-07T10:27:20.000Z</time>
      </trkpt>
      <trkpt lat="45.82835" lon="1.92781">
        <ele>773.7</ele>
        <time>2026-07-07T10:27:21.000Z</time>
      </trkpt>
      <trkpt lat="45.82836" lon="1.92779">
        <ele>773.6</ele>
        <time>2026-07-07T10:27:22.000Z</time>
      </trkpt>
      <trkpt lat="45.82838" lon="1.92777">
        <ele>773.5</ele>
        <time>2026-07-07T10:27:23.000Z</time>
      </trkpt>
      <trkpt lat="45.82838" lon="1.92774">
        <ele>773.4</ele>
        <time>2026-07-07T10:27:24.000Z</time>
      </trkpt>
      <trkpt lat="45.82839" lon="1.92772">
        <ele>773.6</ele>
        <time>2026-07-07T10:27:25.000Z</time>
      </trkpt>
      <trkpt lat="45.82839" lon="1.92768">
        <ele>774.2</ele>
        <time>2026-07-07T10:27:26.000Z</time>
      </trkpt>
      <trkpt lat="45.8284" lon="1.92766">
        <ele>774.3</ele>
        <time>2026-07-07T10:27:27.000Z</time>
      </trkpt>
      <trkpt lat="45.8284" lon="1.92763">
        <ele>774.4</ele>
        <time>2026-07-07T10:27:28.000Z</time>
      </trkpt>
      <trkpt lat="45.8284" lon="1.9276">
        <ele>774.7</ele>
        <time>2026-07-07T10:27:29.000Z</time>
      </trkpt>
      <trkpt lat="45.82841" lon="1.92758">
        <ele>775</ele>
        <time>2026-07-07T10:27:30.000Z</time>
      </trkpt>
      <trkpt lat="45.82841" lon="1.92757">
        <ele>775.3</ele>
        <time>2026-07-07T10:27:31.000Z</time>
      </trkpt>
      <trkpt lat="45.82841" lon="1.92754">
        <ele>775.4</ele>
        <time>2026-07-07T10:27:32.000Z</time>
      </trkpt>
      <trkpt lat="45.82842" lon="1.92752">
        <ele>775.6</ele>
        <time>2026-07-07T10:27:33.000Z</time>
      </trkpt>
      <trkpt lat="45.82842" lon="1.92749">
        <ele>775.9</ele>
        <time>2026-07-07T10:27:34.000Z</time>
      </trkpt>
      <trkpt lat="45.82842" lon="1.92747">
        <ele>776.3</ele>
        <time>2026-07-07T10:27:35.000Z</time>
      </trkpt>
      <trkpt lat="45.82843" lon="1.92745">
        <ele>776.2</ele>
        <time>2026-07-07T10:27:36.000Z</time>
      </trkpt>
      <trkpt lat="45.82844" lon="1.92743">
        <ele>776.3</ele>
        <time>2026-07-07T10:27:37.000Z</time>
      </trkpt>
      <trkpt lat="45.82845" lon="1.92741">
        <ele>776.4</ele>
        <time>2026-07-07T10:27:38.000Z</time>
      </trkpt>
      <trkpt lat="45.82846" lon="1.92739">
        <ele>776</ele>
        <time>2026-07-07T10:27:39.000Z</time>
      </trkpt>
      <trkpt lat="45.82847" lon="1.92737">
        <ele>776</ele>
        <time>2026-07-07T10:27:40.000Z</time>
      </trkpt>
      <trkpt lat="45.82849" lon="1.92735">
        <ele>776.3</ele>
        <time>2026-07-07T10:27:41.000Z</time>
      </trkpt>
      <trkpt lat="45.8285" lon="1.92733">
        <ele>776.8</ele>
        <time>2026-07-07T10:27:42.000Z</time>
      </trkpt>
      <trkpt lat="45.82851" lon="1.92731">
        <ele>777.1</ele>
        <time>2026-07-07T10:27:43.000Z</time>
      </trkpt>
      <trkpt lat="45.82851" lon="1.92729">
        <ele>776.8</ele>
        <time>2026-07-07T10:27:44.000Z</time>
      </trkpt>
      <trkpt lat="45.82852" lon="1.92727">
        <ele>776.9</ele>
        <time>2026-07-07T10:27:45.000Z</time>
      </trkpt>
      <trkpt lat="45.82852" lon="1.92727">
        <ele>777.3</ele>
        <time>2026-07-07T10:27:46.000Z</time>
      </trkpt>
      <trkpt lat="45.82854" lon="1.92727">
        <ele>778.1</ele>
        <time>2026-07-07T10:27:47.000Z</time>
      </trkpt>
      <trkpt lat="45.82855" lon="1.92727">
        <ele>778.8</ele>
        <time>2026-07-07T10:27:48.000Z</time>
      </trkpt>
      <trkpt lat="45.82855" lon="1.92727">
        <ele>778.7</ele>
        <time>2026-07-07T10:27:49.000Z</time>
      </trkpt>
      <trkpt lat="45.82856" lon="1.92727">
        <ele>779.9</ele>
        <time>2026-07-07T10:27:50.000Z</time>
      </trkpt>
      <trkpt lat="45.82856" lon="1.92727">
        <ele>779.9</ele>
        <time>2026-07-07T10:27:51.000Z</time>
      </trkpt>
      <trkpt lat="45.82856" lon="1.92727">
        <ele>779.9</ele>
        <time>2026-07-07T10:27:52.000Z</time>
      </trkpt>
      <trkpt lat="45.82856" lon="1.92727">
        <ele>779.7</ele>
        <time>2026-07-07T10:27:53.000Z</time>
      </trkpt>
      <trkpt lat="45.82856" lon="1.92726">
        <ele>779.8</ele>
        <time>2026-07-07T10:27:54.000Z</time>
      </trkpt>
      <trkpt lat="45.82855" lon="1.92726">
        <ele>779.6</ele>
        <time>2026-07-07T10:27:55.000Z</time>
      </trkpt>
      <trkpt lat="45.82856" lon="1.92726">
        <ele>779.4</ele>
        <time>2026-07-07T10:27:56.000Z</time>
      </trkpt>
      <trkpt lat="45.82856" lon="1.92726">
        <ele>778.7</ele>
        <time>2026-07-07T10:27:57.000Z</time>
      </trkpt>
      <trkpt lat="45.82856" lon="1.92726">
        <ele>778.7</ele>
        <time>2026-07-07T10:27:58.000Z</time>
      </trkpt>
      <trkpt lat="45.82856" lon="1.92727">
        <ele>778.7</ele>
        <time>2026-07-07T10:27:59.000Z</time>
      </trkpt>
      <trkpt lat="45.82856" lon="1.92727">
        <ele>778.7</ele>
        <time>2026-07-07T10:28:00.000Z</time>
      </trkpt>
      <trkpt lat="45.82856" lon="1.92727">
        <ele>778.7</ele>
        <time>2026-07-07T10:28:01.000Z</time>
      </trkpt>
      <trkpt lat="45.82856" lon="1.92727">
        <ele>778.7</ele>
        <time>2026-07-07T10:28:02.000Z</time>
      </trkpt>
      <trkpt lat="45.82856" lon="1.92727">
        <ele>778.7</ele>
        <time>2026-07-07T10:28:03.000Z</time>
      </trkpt>
      <trkpt lat="45.82856" lon="1.92726">
        <ele>778.6</ele>
        <time>2026-07-07T10:28:04.000Z</time>
      </trkpt>
      <trkpt lat="45.82856" lon="1.92725">
        <ele>778.4</ele>
        <time>2026-07-07T10:28:05.000Z</time>
      </trkpt>
      <trkpt lat="45.82855" lon="1.92725">
        <ele>778.2</ele>
        <time>2026-07-07T10:28:06.000Z</time>
      </trkpt>
      <trkpt lat="45.82855" lon="1.92725">
        <ele>777.6</ele>
        <time>2026-07-07T10:28:07.000Z</time>
      </trkpt>
      <trkpt lat="45.82855" lon="1.92725">
        <ele>777.6</ele>
        <time>2026-07-07T10:28:08.000Z</time>
      </trkpt>
      <trkpt lat="45.82855" lon="1.92724">
        <ele>777.5</ele>
        <time>2026-07-07T10:28:09.000Z</time>
      </trkpt>
      <trkpt lat="45.82855" lon="1.92723">
        <ele>777.9</ele>
        <time>2026-07-07T10:28:10.000Z</time>
      </trkpt>
      <trkpt lat="45.82855" lon="1.92723">
        <ele>777.7</ele>
        <time>2026-07-07T10:28:11.000Z</time>
      </trkpt>
      <trkpt lat="45.82856" lon="1.92722">
        <ele>778.1</ele>
        <time>2026-07-07T10:28:12.000Z</time>
      </trkpt>
      <trkpt lat="45.82855" lon="1.92723">
        <ele>778.3</ele>
        <time>2026-07-07T10:28:13.000Z</time>
      </trkpt>
      <trkpt lat="45.82855" lon="1.92724">
        <ele>778.6</ele>
        <time>2026-07-07T10:28:14.000Z</time>
      </trkpt>
      <trkpt lat="45.82856" lon="1.92725">
        <ele>778.7</ele>
        <time>2026-07-07T10:28:15.000Z</time>
      </trkpt>
      <trkpt lat="45.82857" lon="1.92726">
        <ele>778.5</ele>
        <time>2026-07-07T10:28:16.000Z</time>
      </trkpt>
      <trkpt lat="45.82857" lon="1.92725">
        <ele>778.9</ele>
        <time>2026-07-07T10:28:17.000Z</time>
      </trkpt>
      <trkpt lat="45.82857" lon="1.92725">
        <ele>779.3</ele>
        <time>2026-07-07T10:28:18.000Z</time>
      </trkpt>
      <trkpt lat="45.82856" lon="1.92725">
        <ele>778.8</ele>
        <time>2026-07-07T10:28:19.000Z</time>
      </trkpt>
      <trkpt lat="45.82855" lon="1.92725">
        <ele>778.5</ele>
        <time>2026-07-07T10:28:20.000Z</time>
      </trkpt>
      <trkpt lat="45.82854" lon="1.92726">
        <ele>779.3</ele>
        <time>2026-07-07T10:28:21.000Z</time>
      </trkpt>
      <trkpt lat="45.82853" lon="1.92726">
        <ele>778.7</ele>
        <time>2026-07-07T10:28:22.000Z</time>
      </trkpt>
      <trkpt lat="45.82853" lon="1.92727">
        <ele>778.7</ele>
        <time>2026-07-07T10:28:23.000Z</time>
      </trkpt>
      <trkpt lat="45.82853" lon="1.92727">
        <ele>778.7</ele>
        <time>2026-07-07T10:28:24.000Z</time>
      </trkpt>
      <trkpt lat="45.82853" lon="1.92727">
        <ele>778.7</ele>
        <time>2026-07-07T10:28:25.000Z</time>
      </trkpt>
      <trkpt lat="45.82853" lon="1.92727">
        <ele>778.7</ele>
        <time>2026-07-07T10:28:26.000Z</time>
      </trkpt>
      <trkpt lat="45.82853" lon="1.92726">
        <ele>778.9</ele>
        <time>2026-07-07T10:28:27.000Z</time>
      </trkpt>
      <trkpt lat="45.82853" lon="1.92726">
        <ele>778.4</ele>
        <time>2026-07-07T10:28:28.000Z</time>
      </trkpt>
      <trkpt lat="45.82852" lon="1.92725">
        <ele>777.9</ele>
        <time>2026-07-07T10:28:29.000Z</time>
      </trkpt>
      <trkpt lat="45.82852" lon="1.92725">
        <ele>777.9</ele>
        <time>2026-07-07T10:28:30.000Z</time>
      </trkpt>
      <trkpt lat="45.82852" lon="1.92725">
        <ele>777.9</ele>
        <time>2026-07-07T10:28:31.000Z</time>
      </trkpt>
      <trkpt lat="45.82852" lon="1.92725">
        <ele>777.9</ele>
        <time>2026-07-07T10:28:32.000Z</time>
      </trkpt>
      <trkpt lat="45.82852" lon="1.92725">
        <ele>777.9</ele>
        <time>2026-07-07T10:28:33.000Z</time>
      </trkpt>
      <trkpt lat="45.82852" lon="1.92725">
        <ele>777.9</ele>
        <time>2026-07-07T10:28:34.000Z</time>
      </trkpt>
      <trkpt lat="45.82852" lon="1.92725">
        <ele>777.9</ele>
        <time>2026-07-07T10:28:35.000Z</time>
      </trkpt>
      <trkpt lat="45.82852" lon="1.92725">
        <ele>777.9</ele>
        <time>2026-07-07T10:28:36.000Z</time>
      </trkpt>
      <trkpt lat="45.82852" lon="1.92725">
        <ele>777.8</ele>
        <time>2026-07-07T10:28:37.000Z</time>
      </trkpt>
      <trkpt lat="45.82852" lon="1.92725">
        <ele>777.8</ele>
        <time>2026-07-07T10:28:38.000Z</time>
      </trkpt>
      <trkpt lat="45.82852" lon="1.92725">
        <ele>777.8</ele>
        <time>2026-07-07T10:28:39.000Z</time>
      </trkpt>
      <trkpt lat="45.82852" lon="1.92725">
        <ele>777.8</ele>
        <time>2026-07-07T10:28:40.000Z</time>
      </trkpt>
      <trkpt lat="45.82852" lon="1.92725">
        <ele>777.8</ele>
        <time>2026-07-07T10:28:41.000Z</time>
      </trkpt>
      <trkpt lat="45.82852" lon="1.92725">
        <ele>777.8</ele>
        <time>2026-07-07T10:28:42.000Z</time>
      </trkpt>
      <trkpt lat="45.82852" lon="1.92725">
        <ele>777.8</ele>
        <time>2026-07-07T10:28:43.000Z</time>
      </trkpt>
      <trkpt lat="45.82852" lon="1.92725">
        <ele>777.8</ele>
        <time>2026-07-07T10:28:44.000Z</time>
      </trkpt>
      <trkpt lat="45.82852" lon="1.92725">
        <ele>777.8</ele>
        <time>2026-07-07T10:28:45.000Z</time>
      </trkpt>
      <trkpt lat="45.82852" lon="1.92725">
        <ele>777.8</ele>
        <time>2026-07-07T10:28:46.000Z</time>
      </trkpt>
      <trkpt lat="45.82852" lon="1.92725">
        <ele>777.8</ele>
        <time>2026-07-07T10:28:47.000Z</time>
      </trkpt>
      <trkpt lat="45.82852" lon="1.92725">
        <ele>777.8</ele>
        <time>2026-07-07T10:28:48.000Z</time>
      </trkpt>
      <trkpt lat="45.82852" lon="1.92725">
        <ele>777.8</ele>
        <time>2026-07-07T10:28:49.000Z</time>
      </trkpt>
      <trkpt lat="45.82852" lon="1.92725">
        <ele>777.5</ele>
        <time>2026-07-07T10:28:50.000Z</time>
      </trkpt>
      <trkpt lat="45.82853" lon="1.92725">
        <ele>777.2</ele>
        <time>2026-07-07T10:28:51.000Z</time>
      </trkpt>
      <trkpt lat="45.82854" lon="1.92726">
        <ele>777.6</ele>
        <time>2026-07-07T10:28:52.000Z</time>
      </trkpt>
      <trkpt lat="45.82855" lon="1.92726">
        <ele>777.4</ele>
        <time>2026-07-07T10:28:53.000Z</time>
      </trkpt>
      <trkpt lat="45.82856" lon="1.92724">
        <ele>777.5</ele>
        <time>2026-07-07T10:28:54.000Z</time>
      </trkpt>
      <trkpt lat="45.82856" lon="1.92723">
        <ele>777.1</ele>
        <time>2026-07-07T10:28:55.000Z</time>
      </trkpt>
      <trkpt lat="45.82857" lon="1.92721">
        <ele>777.5</ele>
        <time>2026-07-07T10:28:56.000Z</time>
      </trkpt>
      <trkpt lat="45.82857" lon="1.92719">
        <ele>777.6</ele>
        <time>2026-07-07T10:28:57.000Z</time>
      </trkpt>
      <trkpt lat="45.82858" lon="1.92717">
        <ele>777.5</ele>
        <time>2026-07-07T10:28:58.000Z</time>
      </trkpt>
      <trkpt lat="45.82857" lon="1.92715">
        <ele>777.3</ele>
        <time>2026-07-07T10:28:59.000Z</time>
      </trkpt>
      <trkpt lat="45.82857" lon="1.92713">
        <ele>776.8</ele>
        <time>2026-07-07T10:29:00.000Z</time>
      </trkpt>
      <trkpt lat="45.82855" lon="1.92714">
        <ele>773.3</ele>
        <time>2026-07-07T10:29:01.000Z</time>
      </trkpt>
      <trkpt lat="45.82853" lon="1.92716">
        <ele>776.8</ele>
        <time>2026-07-07T10:29:02.000Z</time>
      </trkpt>
      <trkpt lat="45.82853" lon="1.9272">
        <ele>777.2</ele>
        <time>2026-07-07T10:29:03.000Z</time>
      </trkpt>
      <trkpt lat="45.82853" lon="1.92722">
        <ele>778</ele>
        <time>2026-07-07T10:29:04.000Z</time>
      </trkpt>
      <trkpt lat="45.82853" lon="1.92724">
        <ele>778.4</ele>
        <time>2026-07-07T10:29:05.000Z</time>
      </trkpt>
      <trkpt lat="45.82853" lon="1.92726">
        <ele>777.9</ele>
        <time>2026-07-07T10:29:06.000Z</time>
      </trkpt>
      <trkpt lat="45.82853" lon="1.92726">
        <ele>777.5</ele>
        <time>2026-07-07T10:29:07.000Z</time>
      </trkpt>
      <trkpt lat="45.82853" lon="1.92726">
        <ele>777.1</ele>
        <time>2026-07-07T10:29:08.000Z</time>
      </trkpt>
      <trkpt lat="45.82852" lon="1.92728">
        <ele>777.7</ele>
        <time>2026-07-07T10:29:09.000Z</time>
      </trkpt>
      <trkpt lat="45.82853" lon="1.92728">
        <ele>777.3</ele>
        <time>2026-07-07T10:29:10.000Z</time>
      </trkpt>
      <trkpt lat="45.82853" lon="1.92728">
        <ele>777.2</ele>
        <time>2026-07-07T10:29:11.000Z</time>
      </trkpt>
      <trkpt lat="45.82852" lon="1.92729">
        <ele>778</ele>
        <time>2026-07-07T10:29:12.000Z</time>
      </trkpt>
      <trkpt lat="45.82853" lon="1.9273">
        <ele>777.8</ele>
        <time>2026-07-07T10:29:13.000Z</time>
      </trkpt>
      <trkpt lat="45.82853" lon="1.9273">
        <ele>777.8</ele>
        <time>2026-07-07T10:29:14.000Z</time>
      </trkpt>
      <trkpt lat="45.82853" lon="1.9273">
        <ele>777.8</ele>
        <time>2026-07-07T10:29:15.000Z</time>
      </trkpt>
      <trkpt lat="45.82853" lon="1.9273">
        <ele>777.8</ele>
        <time>2026-07-07T10:29:16.000Z</time>
      </trkpt>
      <trkpt lat="45.82853" lon="1.9273">
        <ele>777.8</ele>
        <time>2026-07-07T10:29:17.000Z</time>
      </trkpt>
      <trkpt lat="45.82853" lon="1.9273">
        <ele>777.6</ele>
        <time>2026-07-07T10:29:18.000Z</time>
      </trkpt>
      <trkpt lat="45.82853" lon="1.9273">
        <ele>777.6</ele>
        <time>2026-07-07T10:29:19.000Z</time>
      </trkpt>
      <trkpt lat="45.82853" lon="1.9273">
        <ele>777.6</ele>
        <time>2026-07-07T10:29:20.000Z</time>
      </trkpt>
      <trkpt lat="45.82853" lon="1.9273">
        <ele>777.6</ele>
        <time>2026-07-07T10:29:21.000Z</time>
      </trkpt>
      <trkpt lat="45.82853" lon="1.9273">
        <ele>777.7</ele>
        <time>2026-07-07T10:29:22.000Z</time>
      </trkpt>
      <trkpt lat="45.82853" lon="1.9273">
        <ele>777.9</ele>
        <time>2026-07-07T10:29:23.000Z</time>
      </trkpt>
      <trkpt lat="45.82853" lon="1.9273">
        <ele>777.6</ele>
        <time>2026-07-07T10:29:24.000Z</time>
      </trkpt>
      <trkpt lat="45.82853" lon="1.9273">
        <ele>778.4</ele>
        <time>2026-07-07T10:29:25.000Z</time>
      </trkpt>
      <trkpt lat="45.82853" lon="1.9273">
        <ele>778.7</ele>
        <time>2026-07-07T10:29:26.000Z</time>
      </trkpt>
      <trkpt lat="45.82853" lon="1.9273">
        <ele>778.7</ele>
        <time>2026-07-07T10:29:27.000Z</time>
      </trkpt>
      <trkpt lat="45.82853" lon="1.9273">
        <ele>778.1</ele>
        <time>2026-07-07T10:29:28.000Z</time>
      </trkpt>
      <trkpt lat="45.82854" lon="1.92731">
        <ele>777.7</ele>
        <time>2026-07-07T10:29:29.000Z</time>
      </trkpt>
      <trkpt lat="45.82854" lon="1.9273">
        <ele>777.4</ele>
        <time>2026-07-07T10:29:30.000Z</time>
      </trkpt>
      <trkpt lat="45.82854" lon="1.9273">
        <ele>777.4</ele>
        <time>2026-07-07T10:29:31.000Z</time>
      </trkpt>
      <trkpt lat="45.82854" lon="1.9273">
        <ele>777.4</ele>
        <time>2026-07-07T10:29:32.000Z</time>
      </trkpt>
      <trkpt lat="45.82854" lon="1.9273">
        <ele>777.4</ele>
        <time>2026-07-07T10:29:33.000Z</time>
      </trkpt>
      <trkpt lat="45.82854" lon="1.9273">
        <ele>777.4</ele>
        <time>2026-07-07T10:29:34.000Z</time>
      </trkpt>
      <trkpt lat="45.82854" lon="1.9273">
        <ele>777.8</ele>
        <time>2026-07-07T10:29:35.000Z</time>
      </trkpt>
      <trkpt lat="45.82854" lon="1.92729">
        <ele>777.8</ele>
        <time>2026-07-07T10:29:36.000Z</time>
      </trkpt>
      <trkpt lat="45.82854" lon="1.92729">
        <ele>777.8</ele>
        <time>2026-07-07T10:29:37.000Z</time>
      </trkpt>
      <trkpt lat="45.82854" lon="1.92729">
        <ele>777.8</ele>
        <time>2026-07-07T10:29:38.000Z</time>
      </trkpt>
      <trkpt lat="45.82854" lon="1.92729">
        <ele>777.6</ele>
        <time>2026-07-07T10:29:39.000Z</time>
      </trkpt>
      <trkpt lat="45.82854" lon="1.92728">
        <ele>777.6</ele>
        <time>2026-07-07T10:29:40.000Z</time>
      </trkpt>
      <trkpt lat="45.82854" lon="1.92728">
        <ele>777.6</ele>
        <time>2026-07-07T10:29:41.000Z</time>
      </trkpt>
      <trkpt lat="45.82854" lon="1.92728">
        <ele>777.6</ele>
        <time>2026-07-07T10:29:42.000Z</time>
      </trkpt>
      <trkpt lat="45.82854" lon="1.92728">
        <ele>777.6</ele>
        <time>2026-07-07T10:29:43.000Z</time>
      </trkpt>
      <trkpt lat="45.82854" lon="1.92728">
        <ele>777.8</ele>
        <time>2026-07-07T10:29:44.000Z</time>
      </trkpt>
      <trkpt lat="45.82854" lon="1.92728">
        <ele>778</ele>
        <time>2026-07-07T10:29:45.000Z</time>
      </trkpt>
      <trkpt lat="45.82854" lon="1.92727">
        <ele>777.9</ele>
        <time>2026-07-07T10:29:46.000Z</time>
      </trkpt>
      <trkpt lat="45.82854" lon="1.92727">
        <ele>777.9</ele>
        <time>2026-07-07T10:29:47.000Z</time>
      </trkpt>
      <trkpt lat="45.82854" lon="1.92726">
        <ele>777.9</ele>
        <time>2026-07-07T10:29:48.000Z</time>
      </trkpt>
      <trkpt lat="45.82854" lon="1.92726">
        <ele>777.7</ele>
        <time>2026-07-07T10:29:49.000Z</time>
      </trkpt>
      <trkpt lat="45.82854" lon="1.92726">
        <ele>777.7</ele>
        <time>2026-07-07T10:29:50.000Z</time>
      </trkpt>
      <trkpt lat="45.82854" lon="1.92726">
        <ele>777.7</ele>
        <time>2026-07-07T10:29:51.000Z</time>
      </trkpt>
      <trkpt lat="45.82854" lon="1.92726">
        <ele>777.5</ele>
        <time>2026-07-07T10:29:52.000Z</time>
      </trkpt>
      <trkpt lat="45.82854" lon="1.92726">
        <ele>777.5</ele>
        <time>2026-07-07T10:29:53.000Z</time>
      </trkpt>
      <trkpt lat="45.82854" lon="1.92726">
        <ele>777.5</ele>
        <time>2026-07-07T10:29:54.000Z</time>
      </trkpt>
      <trkpt lat="45.82854" lon="1.92726">
        <ele>778</ele>
        <time>2026-07-07T10:29:55.000Z</time>
      </trkpt>
      <trkpt lat="45.82854" lon="1.92726">
        <ele>778</ele>
        <time>2026-07-07T10:29:56.000Z</time>
      </trkpt>
      <trkpt lat="45.82854" lon="1.92726">
        <ele>778</ele>
        <time>2026-07-07T10:29:57.000Z</time>
      </trkpt>
      <trkpt lat="45.82855" lon="1.92726">
        <ele>778</ele>
        <time>2026-07-07T10:29:58.000Z</time>
      </trkpt>
      <trkpt lat="45.82856" lon="1.92727">
        <ele>778.7</ele>
        <time>2026-07-07T10:29:59.000Z</time>
      </trkpt>
      <trkpt lat="45.82856" lon="1.92726">
        <ele>778.4</ele>
        <time>2026-07-07T10:30:00.000Z</time>
      </trkpt>
      <trkpt lat="45.82857" lon="1.92727">
        <ele>779.4</ele>
        <time>2026-07-07T10:30:01.000Z</time>
      </trkpt>
      <trkpt lat="45.82858" lon="1.92727">
        <ele>779.7</ele>
        <time>2026-07-07T10:30:02.000Z</time>
      </trkpt>
      <trkpt lat="45.82859" lon="1.92727">
        <ele>780.5</ele>
        <time>2026-07-07T10:30:03.000Z</time>
      </trkpt>
      <trkpt lat="45.82859" lon="1.92727">
        <ele>780.5</ele>
        <time>2026-07-07T10:30:04.000Z</time>
      </trkpt>
      <trkpt lat="45.82859" lon="1.92727">
        <ele>780.5</ele>
        <time>2026-07-07T10:30:05.000Z</time>
      </trkpt>
      <trkpt lat="45.82859" lon="1.92727">
        <ele>780.5</ele>
        <time>2026-07-07T10:30:06.000Z</time>
      </trkpt>
      <trkpt lat="45.82859" lon="1.92727">
        <ele>780.5</ele>
        <time>2026-07-07T10:30:07.000Z</time>
      </trkpt>
      <trkpt lat="45.82859" lon="1.92727">
        <ele>780.6</ele>
        <time>2026-07-07T10:30:08.000Z</time>
      </trkpt>
      <trkpt lat="45.82859" lon="1.92727">
        <ele>780.3</ele>
        <time>2026-07-07T10:30:09.000Z</time>
      </trkpt>
      <trkpt lat="45.82858" lon="1.92727">
        <ele>780.3</ele>
        <time>2026-07-07T10:30:10.000Z</time>
      </trkpt>
      <trkpt lat="45.82857" lon="1.92727">
        <ele>779.4</ele>
        <time>2026-07-07T10:30:11.000Z</time>
      </trkpt>
      <trkpt lat="45.82856" lon="1.92727">
        <ele>779.3</ele>
        <time>2026-07-07T10:30:12.000Z</time>
      </trkpt>
      <trkpt lat="45.82856" lon="1.92727">
        <ele>779.3</ele>
        <time>2026-07-07T10:30:13.000Z</time>
      </trkpt>
      <trkpt lat="45.82856" lon="1.92727">
        <ele>779.1</ele>
        <time>2026-07-07T10:30:14.000Z</time>
      </trkpt>
      <trkpt lat="45.82857" lon="1.92728">
        <ele>778.8</ele>
        <time>2026-07-07T10:30:15.000Z</time>
      </trkpt>
      <trkpt lat="45.82858" lon="1.92729">
        <ele>779.1</ele>
        <time>2026-07-07T10:30:16.000Z</time>
      </trkpt>
      <trkpt lat="45.82859" lon="1.92729">
        <ele>779.2</ele>
        <time>2026-07-07T10:30:17.000Z</time>
      </trkpt>
      <trkpt lat="45.82859" lon="1.92729">
        <ele>779.1</ele>
        <time>2026-07-07T10:30:18.000Z</time>
      </trkpt>
      <trkpt lat="45.82859" lon="1.92729">
        <ele>779.1</ele>
        <time>2026-07-07T10:30:19.000Z</time>
      </trkpt>
      <trkpt lat="45.82859" lon="1.92729">
        <ele>779.1</ele>
        <time>2026-07-07T10:30:20.000Z</time>
      </trkpt>
      <trkpt lat="45.82859" lon="1.92727">
        <ele>779.2</ele>
        <time>2026-07-07T10:30:21.000Z</time>
      </trkpt>
      <trkpt lat="45.8286" lon="1.92726">
        <ele>778.9</ele>
        <time>2026-07-07T10:30:22.000Z</time>
      </trkpt>
      <trkpt lat="45.8286" lon="1.92725">
        <ele>777.8</ele>
        <time>2026-07-07T10:30:23.000Z</time>
      </trkpt>
      <trkpt lat="45.82859" lon="1.92725">
        <ele>778.1</ele>
        <time>2026-07-07T10:30:24.000Z</time>
      </trkpt>
      <trkpt lat="45.82857" lon="1.92725">
        <ele>777.3</ele>
        <time>2026-07-07T10:30:25.000Z</time>
      </trkpt>
      <trkpt lat="45.82857" lon="1.92725">
        <ele>776.9</ele>
        <time>2026-07-07T10:30:26.000Z</time>
      </trkpt>
      <trkpt lat="45.82857" lon="1.92726">
        <ele>778.4</ele>
        <time>2026-07-07T10:30:27.000Z</time>
      </trkpt>
      <trkpt lat="45.82858" lon="1.92727">
        <ele>778.4</ele>
        <time>2026-07-07T10:30:28.000Z</time>
      </trkpt>
      <trkpt lat="45.82858" lon="1.92727">
        <ele>778.4</ele>
        <time>2026-07-07T10:30:29.000Z</time>
      </trkpt>
      <trkpt lat="45.82858" lon="1.92727">
        <ele>778.4</ele>
        <time>2026-07-07T10:30:30.000Z</time>
      </trkpt>
      <trkpt lat="45.82858" lon="1.92727">
        <ele>778.3</ele>
        <time>2026-07-07T10:30:31.000Z</time>
      </trkpt>
      <trkpt lat="45.82858" lon="1.92727">
        <ele>778.3</ele>
        <time>2026-07-07T10:30:32.000Z</time>
      </trkpt>
      <trkpt lat="45.82858" lon="1.92727">
        <ele>778.3</ele>
        <time>2026-07-07T10:30:33.000Z</time>
      </trkpt>
      <trkpt lat="45.82857" lon="1.92727">
        <ele>778.2</ele>
        <time>2026-07-07T10:30:34.000Z</time>
      </trkpt>
      <trkpt lat="45.82857" lon="1.92727">
        <ele>778.1</ele>
        <time>2026-07-07T10:30:35.000Z</time>
      </trkpt>
      <trkpt lat="45.82857" lon="1.92726">
        <ele>778</ele>
        <time>2026-07-07T10:30:36.000Z</time>
      </trkpt>
      <trkpt lat="45.82856" lon="1.92727">
        <ele>778</ele>
        <time>2026-07-07T10:30:37.000Z</time>
      </trkpt>
      <trkpt lat="45.82856" lon="1.92727">
        <ele>778.1</ele>
        <time>2026-07-07T10:30:38.000Z</time>
      </trkpt>
      <trkpt lat="45.82856" lon="1.92727">
        <ele>778.1</ele>
        <time>2026-07-07T10:30:39.000Z</time>
      </trkpt>
      <trkpt lat="45.82856" lon="1.92727">
        <ele>778.1</ele>
        <time>2026-07-07T10:30:40.000Z</time>
      </trkpt>
      <trkpt lat="45.82856" lon="1.92727">
        <ele>778.1</ele>
        <time>2026-07-07T10:30:41.000Z</time>
      </trkpt>
      <trkpt lat="45.82856" lon="1.92727">
        <ele>777.8</ele>
        <time>2026-07-07T10:30:42.000Z</time>
      </trkpt>
      <trkpt lat="45.82855" lon="1.92727">
        <ele>777.7</ele>
        <time>2026-07-07T10:30:43.000Z</time>
      </trkpt>
      <trkpt lat="45.82854" lon="1.92727">
        <ele>777</ele>
        <time>2026-07-07T10:30:44.000Z</time>
      </trkpt>
      <trkpt lat="45.82853" lon="1.92726">
        <ele>776.5</ele>
        <time>2026-07-07T10:30:45.000Z</time>
      </trkpt>
      <trkpt lat="45.82853" lon="1.92726">
        <ele>777.6</ele>
        <time>2026-07-07T10:30:46.000Z</time>
      </trkpt>
      <trkpt lat="45.82853" lon="1.92726">
        <ele>776.9</ele>
        <time>2026-07-07T10:30:47.000Z</time>
      </trkpt>
      <trkpt lat="45.82854" lon="1.92726">
        <ele>776.9</ele>
        <time>2026-07-07T10:30:48.000Z</time>
      </trkpt>
      <trkpt lat="45.82854" lon="1.92726">
        <ele>776.9</ele>
        <time>2026-07-07T10:30:49.000Z</time>
      </trkpt>
      <trkpt lat="45.82854" lon="1.92726">
        <ele>776.9</ele>
        <time>2026-07-07T10:30:50.000Z</time>
      </trkpt>
      <trkpt lat="45.82854" lon="1.92726">
        <ele>776.9</ele>
        <time>2026-07-07T10:30:51.000Z</time>
      </trkpt>
      <trkpt lat="45.82854" lon="1.92726">
        <ele>776.9</ele>
        <time>2026-07-07T10:30:52.000Z</time>
      </trkpt>
      <trkpt lat="45.82854" lon="1.92726">
        <ele>776.9</ele>
        <time>2026-07-07T10:30:53.000Z</time>
      </trkpt>
      <trkpt lat="45.82854" lon="1.92726">
        <ele>776.9</ele>
        <time>2026-07-07T10:30:54.000Z</time>
      </trkpt>
      <trkpt lat="45.82853" lon="1.92726">
        <ele>777.2</ele>
        <time>2026-07-07T10:30:55.000Z</time>
      </trkpt>
      <trkpt lat="45.82853" lon="1.92727">
        <ele>777.4</ele>
        <time>2026-07-07T10:30:56.000Z</time>
      </trkpt>
      <trkpt lat="45.82853" lon="1.92727">
        <ele>777.4</ele>
        <time>2026-07-07T10:30:57.000Z</time>
      </trkpt>
      <trkpt lat="45.82853" lon="1.92727">
        <ele>777.4</ele>
        <time>2026-07-07T10:30:58.000Z</time>
      </trkpt>
      <trkpt lat="45.82854" lon="1.92727">
        <ele>777.4</ele>
        <time>2026-07-07T10:30:59.000Z</time>
      </trkpt>
      <trkpt lat="45.82854" lon="1.92727">
        <ele>777.4</ele>
        <time>2026-07-07T10:31:00.000Z</time>
      </trkpt>
      <trkpt lat="45.82854" lon="1.92727">
        <ele>777.4</ele>
        <time>2026-07-07T10:31:01.000Z</time>
      </trkpt>
      <trkpt lat="45.82854" lon="1.92727">
        <ele>777.4</ele>
        <time>2026-07-07T10:31:02.000Z</time>
      </trkpt>
      <trkpt lat="45.82854" lon="1.92727">
        <ele>777.4</ele>
        <time>2026-07-07T10:31:03.000Z</time>
      </trkpt>
      <trkpt lat="45.82853" lon="1.92728">
        <ele>777.3</ele>
        <time>2026-07-07T10:31:04.000Z</time>
      </trkpt>
      <trkpt lat="45.82853" lon="1.92728">
        <ele>777.3</ele>
        <time>2026-07-07T10:31:05.000Z</time>
      </trkpt>
      <trkpt lat="45.82853" lon="1.92728">
        <ele>777.5</ele>
        <time>2026-07-07T10:31:06.000Z</time>
      </trkpt>
      <trkpt lat="45.82853" lon="1.92728">
        <ele>777.5</ele>
        <time>2026-07-07T10:31:07.000Z</time>
      </trkpt>
      <trkpt lat="45.82853" lon="1.92728">
        <ele>777.7</ele>
        <time>2026-07-07T10:31:08.000Z</time>
      </trkpt>
      <trkpt lat="45.82853" lon="1.9273">
        <ele>777.6</ele>
        <time>2026-07-07T10:31:09.000Z</time>
      </trkpt>
      <trkpt lat="45.82854" lon="1.92731">
        <ele>777.5</ele>
        <time>2026-07-07T10:31:10.000Z</time>
      </trkpt>
      <trkpt lat="45.82855" lon="1.92731">
        <ele>777</ele>
        <time>2026-07-07T10:31:11.000Z</time>
      </trkpt>
      <trkpt lat="45.82856" lon="1.9273">
        <ele>776.9</ele>
        <time>2026-07-07T10:31:12.000Z</time>
      </trkpt>
      <trkpt lat="45.82856" lon="1.92729">
        <ele>777.1</ele>
        <time>2026-07-07T10:31:13.000Z</time>
      </trkpt>
      <trkpt lat="45.82857" lon="1.92727">
        <ele>777.8</ele>
        <time>2026-07-07T10:31:14.000Z</time>
      </trkpt>
      <trkpt lat="45.82857" lon="1.92726">
        <ele>778.3</ele>
        <time>2026-07-07T10:31:15.000Z</time>
      </trkpt>
      <trkpt lat="45.82858" lon="1.92726">
        <ele>778.3</ele>
        <time>2026-07-07T10:31:16.000Z</time>
      </trkpt>
      <trkpt lat="45.8286" lon="1.92726">
        <ele>778.4</ele>
        <time>2026-07-07T10:31:17.000Z</time>
      </trkpt>
      <trkpt lat="45.82861" lon="1.92725">
        <ele>778.6</ele>
        <time>2026-07-07T10:31:18.000Z</time>
      </trkpt>
      <trkpt lat="45.82861" lon="1.92726">
        <ele>778.3</ele>
        <time>2026-07-07T10:31:19.000Z</time>
      </trkpt>
      <trkpt lat="45.82861" lon="1.92726">
        <ele>777.6</ele>
        <time>2026-07-07T10:31:20.000Z</time>
      </trkpt>
      <trkpt lat="45.82862" lon="1.92727">
        <ele>777.4</ele>
        <time>2026-07-07T10:31:21.000Z</time>
      </trkpt>
      <trkpt lat="45.82862" lon="1.92726">
        <ele>777.1</ele>
        <time>2026-07-07T10:31:22.000Z</time>
      </trkpt>
      <trkpt lat="45.82862" lon="1.92724">
        <ele>776.9</ele>
        <time>2026-07-07T10:31:23.000Z</time>
      </trkpt>
      <trkpt lat="45.82862" lon="1.92722">
        <ele>776.8</ele>
        <time>2026-07-07T10:31:24.000Z</time>
      </trkpt>
      <trkpt lat="45.82862" lon="1.9272">
        <ele>777</ele>
        <time>2026-07-07T10:31:25.000Z</time>
      </trkpt>
      <trkpt lat="45.82862" lon="1.92718">
        <ele>776.7</ele>
        <time>2026-07-07T10:31:26.000Z</time>
      </trkpt>
      <trkpt lat="45.8286" lon="1.92716">
        <ele>776</ele>
        <time>2026-07-07T10:31:27.000Z</time>
      </trkpt>
      <trkpt lat="45.82859" lon="1.92715">
        <ele>775.6</ele>
        <time>2026-07-07T10:31:28.000Z</time>
      </trkpt>
      <trkpt lat="45.82859" lon="1.92716">
        <ele>774.4</ele>
        <time>2026-07-07T10:31:29.000Z</time>
      </trkpt>
      <trkpt lat="45.82858" lon="1.92717">
        <ele>774.3</ele>
        <time>2026-07-07T10:31:30.000Z</time>
      </trkpt>
      <trkpt lat="45.82858" lon="1.92717">
        <ele>774.2</ele>
        <time>2026-07-07T10:31:31.000Z</time>
      </trkpt>
      <trkpt lat="45.82857" lon="1.92719">
        <ele>773.9</ele>
        <time>2026-07-07T10:31:32.000Z</time>
      </trkpt>
      <trkpt lat="45.82856" lon="1.92722">
        <ele>773.6</ele>
        <time>2026-07-07T10:31:33.000Z</time>
      </trkpt>
      <trkpt lat="45.82856" lon="1.92723">
        <ele>773.3</ele>
        <time>2026-07-07T10:31:34.000Z</time>
      </trkpt>
      <trkpt lat="45.82856" lon="1.92725">
        <ele>773.1</ele>
        <time>2026-07-07T10:31:35.000Z</time>
      </trkpt>
      <trkpt lat="45.82855" lon="1.92727">
        <ele>772.7</ele>
        <time>2026-07-07T10:31:36.000Z</time>
      </trkpt>
      <trkpt lat="45.82854" lon="1.92728">
        <ele>772</ele>
        <time>2026-07-07T10:31:37.000Z</time>
      </trkpt>
      <trkpt lat="45.82853" lon="1.92728">
        <ele>771.8</ele>
        <time>2026-07-07T10:31:38.000Z</time>
      </trkpt>
      <trkpt lat="45.82851" lon="1.92728">
        <ele>771.4</ele>
        <time>2026-07-07T10:31:39.000Z</time>
      </trkpt>
      <trkpt lat="45.82852" lon="1.92727">
        <ele>768.8</ele>
        <time>2026-07-07T10:31:40.000Z</time>
      </trkpt>
      <trkpt lat="45.82852" lon="1.92726">
        <ele>768.8</ele>
        <time>2026-07-07T10:31:41.000Z</time>
      </trkpt>
      <trkpt lat="45.82852" lon="1.92726">
        <ele>768.8</ele>
        <time>2026-07-07T10:31:42.000Z</time>
      </trkpt>
      <trkpt lat="45.82852" lon="1.92726">
        <ele>768.8</ele>
        <time>2026-07-07T10:31:43.000Z</time>
      </trkpt>
      <trkpt lat="45.82852" lon="1.92726">
        <ele>768.8</ele>
        <time>2026-07-07T10:31:44.000Z</time>
      </trkpt>
      <trkpt lat="45.82852" lon="1.92726">
        <ele>768.9</ele>
        <time>2026-07-07T10:31:45.000Z</time>
      </trkpt>
      <trkpt lat="45.82852" lon="1.92726">
        <ele>769.1</ele>
        <time>2026-07-07T10:31:46.000Z</time>
      </trkpt>
      <trkpt lat="45.82852" lon="1.92726">
        <ele>770</ele>
        <time>2026-07-07T10:31:47.000Z</time>
      </trkpt>
      <trkpt lat="45.82851" lon="1.92725">
        <ele>770</ele>
        <time>2026-07-07T10:31:48.000Z</time>
      </trkpt>
      <trkpt lat="45.82851" lon="1.92725">
        <ele>769.9</ele>
        <time>2026-07-07T10:31:49.000Z</time>
      </trkpt>
      <trkpt lat="45.82851" lon="1.92725">
        <ele>770.3</ele>
        <time>2026-07-07T10:31:50.000Z</time>
      </trkpt>
      <trkpt lat="45.82851" lon="1.92723">
        <ele>770.4</ele>
        <time>2026-07-07T10:31:51.000Z</time>
      </trkpt>
      <trkpt lat="45.82851" lon="1.92721">
        <ele>770.3</ele>
        <time>2026-07-07T10:31:52.000Z</time>
      </trkpt>
      <trkpt lat="45.82851" lon="1.92721">
        <ele>770.2</ele>
        <time>2026-07-07T10:31:53.000Z</time>
      </trkpt>
      <trkpt lat="45.82851" lon="1.92721">
        <ele>770.2</ele>
        <time>2026-07-07T10:31:54.000Z</time>
      </trkpt>
      <trkpt lat="45.82851" lon="1.92721">
        <ele>770.2</ele>
        <time>2026-07-07T10:31:55.000Z</time>
      </trkpt>
      <trkpt lat="45.82851" lon="1.92721">
        <ele>770.2</ele>
        <time>2026-07-07T10:31:56.000Z</time>
      </trkpt>
      <trkpt lat="45.82851" lon="1.92721">
        <ele>769.9</ele>
        <time>2026-07-07T10:31:57.000Z</time>
      </trkpt>
      <trkpt lat="45.82851" lon="1.92721">
        <ele>769.6</ele>
        <time>2026-07-07T10:31:58.000Z</time>
      </trkpt>
      <trkpt lat="45.82851" lon="1.92722">
        <ele>769.8</ele>
        <time>2026-07-07T10:31:59.000Z</time>
      </trkpt>
      <trkpt lat="45.82852" lon="1.92724">
        <ele>770.2</ele>
        <time>2026-07-07T10:32:00.000Z</time>
      </trkpt>
      <trkpt lat="45.82853" lon="1.92726">
        <ele>770.7</ele>
        <time>2026-07-07T10:32:01.000Z</time>
      </trkpt>
      <trkpt lat="45.82853" lon="1.92728">
        <ele>770.4</ele>
        <time>2026-07-07T10:32:02.000Z</time>
      </trkpt>
      <trkpt lat="45.82854" lon="1.9273">
        <ele>770.1</ele>
        <time>2026-07-07T10:32:03.000Z</time>
      </trkpt>
      <trkpt lat="45.82854" lon="1.9273">
        <ele>769.1</ele>
        <time>2026-07-07T10:32:04.000Z</time>
      </trkpt>
      <trkpt lat="45.82854" lon="1.9273">
        <ele>769.2</ele>
        <time>2026-07-07T10:32:05.000Z</time>
      </trkpt>
      <trkpt lat="45.82855" lon="1.92731">
        <ele>770</ele>
        <time>2026-07-07T10:32:06.000Z</time>
      </trkpt>
      <trkpt lat="45.82856" lon="1.92732">
        <ele>769.6</ele>
        <time>2026-07-07T10:32:07.000Z</time>
      </trkpt>
      <trkpt lat="45.82857" lon="1.92733">
        <ele>769.6</ele>
        <time>2026-07-07T10:32:08.000Z</time>
      </trkpt>
      <trkpt lat="45.82858" lon="1.92735">
        <ele>770</ele>
        <time>2026-07-07T10:32:09.000Z</time>
      </trkpt>
      <trkpt lat="45.82859" lon="1.92737">
        <ele>770.1</ele>
        <time>2026-07-07T10:32:10.000Z</time>
      </trkpt>
      <trkpt lat="45.82859" lon="1.92739">
        <ele>770.1</ele>
        <time>2026-07-07T10:32:11.000Z</time>
      </trkpt>
      <trkpt lat="45.8286" lon="1.92741">
        <ele>769.9</ele>
        <time>2026-07-07T10:32:12.000Z</time>
      </trkpt>
      <trkpt lat="45.8286" lon="1.92742">
        <ele>769.9</ele>
        <time>2026-07-07T10:32:13.000Z</time>
      </trkpt>
      <trkpt lat="45.8286" lon="1.92744">
        <ele>768.8</ele>
        <time>2026-07-07T10:32:14.000Z</time>
      </trkpt>
      <trkpt lat="45.82858" lon="1.92744">
        <ele>768</ele>
        <time>2026-07-07T10:32:15.000Z</time>
      </trkpt>
      <trkpt lat="45.82857" lon="1.92742">
        <ele>766.8</ele>
        <time>2026-07-07T10:32:16.000Z</time>
      </trkpt>
      <trkpt lat="45.82856" lon="1.9274">
        <ele>766.2</ele>
        <time>2026-07-07T10:32:17.000Z</time>
      </trkpt>
      <trkpt lat="45.82856" lon="1.9274">
        <ele>766.4</ele>
        <time>2026-07-07T10:32:18.000Z</time>
      </trkpt>
      <trkpt lat="45.82856" lon="1.9274">
        <ele>766.7</ele>
        <time>2026-07-07T10:32:19.000Z</time>
      </trkpt>
      <trkpt lat="45.82856" lon="1.92739">
        <ele>766.8</ele>
        <time>2026-07-07T10:32:20.000Z</time>
      </trkpt>
      <trkpt lat="45.82854" lon="1.9274">
        <ele>766</ele>
        <time>2026-07-07T10:32:21.000Z</time>
      </trkpt>
      <trkpt lat="45.82853" lon="1.9274">
        <ele>766.2</ele>
        <time>2026-07-07T10:32:22.000Z</time>
      </trkpt>
      <trkpt lat="45.82852" lon="1.92737">
        <ele>765.2</ele>
        <time>2026-07-07T10:32:23.000Z</time>
      </trkpt>
      <trkpt lat="45.82854" lon="1.92735">
        <ele>767</ele>
        <time>2026-07-07T10:32:24.000Z</time>
      </trkpt>
      <trkpt lat="45.82855" lon="1.92733">
        <ele>766</ele>
        <time>2026-07-07T10:32:25.000Z</time>
      </trkpt>
      <trkpt lat="45.82855" lon="1.92733">
        <ele>766</ele>
        <time>2026-07-07T10:32:26.000Z</time>
      </trkpt>
      <trkpt lat="45.82855" lon="1.92733">
        <ele>766</ele>
        <time>2026-07-07T10:32:27.000Z</time>
      </trkpt>
      <trkpt lat="45.82856" lon="1.92733">
        <ele>766</ele>
        <time>2026-07-07T10:32:28.000Z</time>
      </trkpt>
      <trkpt lat="45.82856" lon="1.92733">
        <ele>766</ele>
        <time>2026-07-07T10:32:29.000Z</time>
      </trkpt>
      <trkpt lat="45.82856" lon="1.92733">
        <ele>766</ele>
        <time>2026-07-07T10:32:30.000Z</time>
      </trkpt>
      <trkpt lat="45.82856" lon="1.92733">
        <ele>766.1</ele>
        <time>2026-07-07T10:32:31.000Z</time>
      </trkpt>
      <trkpt lat="45.82856" lon="1.92733">
        <ele>766.1</ele>
        <time>2026-07-07T10:32:32.000Z</time>
      </trkpt>
      <trkpt lat="45.82856" lon="1.92733">
        <ele>766.1</ele>
        <time>2026-07-07T10:32:33.000Z</time>
      </trkpt>
      <trkpt lat="45.82856" lon="1.92733">
        <ele>766.1</ele>
        <time>2026-07-07T10:32:34.000Z</time>
      </trkpt>
      <trkpt lat="45.82856" lon="1.92733">
        <ele>766.1</ele>
        <time>2026-07-07T10:32:35.000Z</time>
      </trkpt>
      <trkpt lat="45.82856" lon="1.92733">
        <ele>766.2</ele>
        <time>2026-07-07T10:32:36.000Z</time>
      </trkpt>
      <trkpt lat="45.82856" lon="1.92733">
        <ele>766.2</ele>
        <time>2026-07-07T10:32:37.000Z</time>
      </trkpt>
      <trkpt lat="45.82856" lon="1.92733">
        <ele>766.2</ele>
        <time>2026-07-07T10:32:38.000Z</time>
      </trkpt>
      <trkpt lat="45.82856" lon="1.92733">
        <ele>766.2</ele>
        <time>2026-07-07T10:32:39.000Z</time>
      </trkpt>
      <trkpt lat="45.82856" lon="1.92733">
        <ele>766.2</ele>
        <time>2026-07-07T10:32:40.000Z</time>
      </trkpt>
      <trkpt lat="45.82856" lon="1.92733">
        <ele>766.2</ele>
        <time>2026-07-07T10:32:41.000Z</time>
      </trkpt>
      <trkpt lat="45.82856" lon="1.92733">
        <ele>766.2</ele>
        <time>2026-07-07T10:32:42.000Z</time>
      </trkpt>
      <trkpt lat="45.82856" lon="1.92733">
        <ele>766.2</ele>
        <time>2026-07-07T10:32:43.000Z</time>
      </trkpt>
      <trkpt lat="45.82856" lon="1.92733">
        <ele>766.3</ele>
        <time>2026-07-07T10:32:44.000Z</time>
      </trkpt>
      <trkpt lat="45.82856" lon="1.92733">
        <ele>766.3</ele>
        <time>2026-07-07T10:32:45.000Z</time>
      </trkpt>
      <trkpt lat="45.82856" lon="1.92733">
        <ele>766.3</ele>
        <time>2026-07-07T10:32:46.000Z</time>
      </trkpt>
      <trkpt lat="45.82856" lon="1.92733">
        <ele>766.3</ele>
        <time>2026-07-07T10:32:47.000Z</time>
      </trkpt>
      <trkpt lat="45.82856" lon="1.92733">
        <ele>766.3</ele>
        <time>2026-07-07T10:32:48.000Z</time>
      </trkpt>
      <trkpt lat="45.82856" lon="1.92733">
        <ele>766.3</ele>
        <time>2026-07-07T10:32:49.000Z</time>
      </trkpt>
      <trkpt lat="45.82856" lon="1.92733">
        <ele>766.3</ele>
        <time>2026-07-07T10:32:50.000Z</time>
      </trkpt>
      <trkpt lat="45.82856" lon="1.92733">
        <ele>766.3</ele>
        <time>2026-07-07T10:32:51.000Z</time>
      </trkpt>
      <trkpt lat="45.82856" lon="1.92734">
        <ele>766.3</ele>
        <time>2026-07-07T10:32:52.000Z</time>
      </trkpt>
      <trkpt lat="45.82856" lon="1.92734">
        <ele>766.3</ele>
        <time>2026-07-07T10:32:53.000Z</time>
      </trkpt>
      <trkpt lat="45.82856" lon="1.92734">
        <ele>766.3</ele>
        <time>2026-07-07T10:32:54.000Z</time>
      </trkpt>
      <trkpt lat="45.82856" lon="1.92734">
        <ele>766.3</ele>
        <time>2026-07-07T10:32:55.000Z</time>
      </trkpt>
      <trkpt lat="45.82856" lon="1.92734">
        <ele>766.3</ele>
        <time>2026-07-07T10:32:56.000Z</time>
      </trkpt>
      <trkpt lat="45.82856" lon="1.92734">
        <ele>766.3</ele>
        <time>2026-07-07T10:32:57.000Z</time>
      </trkpt>
      <trkpt lat="45.82856" lon="1.92734">
        <ele>766.2</ele>
        <time>2026-07-07T10:32:58.000Z</time>
      </trkpt>
      <trkpt lat="45.82856" lon="1.92734">
        <ele>766.2</ele>
        <time>2026-07-07T10:32:59.000Z</time>
      </trkpt>
      <trkpt lat="45.82856" lon="1.92734">
        <ele>766.2</ele>
        <time>2026-07-07T10:33:00.000Z</time>
      </trkpt>
      <trkpt lat="45.82856" lon="1.92734">
        <ele>766.2</ele>
        <time>2026-07-07T10:33:01.000Z</time>
      </trkpt>
      <trkpt lat="45.82856" lon="1.92734">
        <ele>766.2</ele>
        <time>2026-07-07T10:33:02.000Z</time>
      </trkpt>
      <trkpt lat="45.82856" lon="1.92734">
        <ele>766.2</ele>
        <time>2026-07-07T10:33:03.000Z</time>
      </trkpt>
      <trkpt lat="45.82856" lon="1.92734">
        <ele>766.2</ele>
        <time>2026-07-07T10:33:04.000Z</time>
      </trkpt>
      <trkpt lat="45.82856" lon="1.92734">
        <ele>766.2</ele>
        <time>2026-07-07T10:33:05.000Z</time>
      </trkpt>
      <trkpt lat="45.82856" lon="1.92734">
        <ele>766.2</ele>
        <time>2026-07-07T10:33:06.000Z</time>
      </trkpt>
      <trkpt lat="45.82856" lon="1.92734">
        <ele>766.2</ele>
        <time>2026-07-07T10:33:07.000Z</time>
      </trkpt>
      <trkpt lat="45.82856" lon="1.92734">
        <ele>766.2</ele>
        <time>2026-07-07T10:33:08.000Z</time>
      </trkpt>
      <trkpt lat="45.82856" lon="1.92734">
        <ele>766.3</ele>
        <time>2026-07-07T10:33:09.000Z</time>
      </trkpt>
      <trkpt lat="45.82856" lon="1.92734">
        <ele>766.3</ele>
        <time>2026-07-07T10:33:10.000Z</time>
      </trkpt>
      <trkpt lat="45.82856" lon="1.92734">
        <ele>766.3</ele>
        <time>2026-07-07T10:33:11.000Z</time>
      </trkpt>
      <trkpt lat="45.82856" lon="1.92734">
        <ele>766.3</ele>
        <time>2026-07-07T10:33:12.000Z</time>
      </trkpt>
      <trkpt lat="45.82856" lon="1.92734">
        <ele>766.3</ele>
        <time>2026-07-07T10:33:13.000Z</time>
      </trkpt>
      <trkpt lat="45.82856" lon="1.92734">
        <ele>766.3</ele>
        <time>2026-07-07T10:33:14.000Z</time>
      </trkpt>
      <trkpt lat="45.82856" lon="1.92734">
        <ele>766.3</ele>
        <time>2026-07-07T10:33:15.000Z</time>
      </trkpt>
      <trkpt lat="45.82856" lon="1.92734">
        <ele>766.3</ele>
        <time>2026-07-07T10:33:16.000Z</time>
      </trkpt>
      <trkpt lat="45.82856" lon="1.92734">
        <ele>766.3</ele>
        <time>2026-07-07T10:33:17.000Z</time>
      </trkpt>
      <trkpt lat="45.82856" lon="1.92734">
        <ele>766.3</ele>
        <time>2026-07-07T10:33:18.000Z</time>
      </trkpt>
      <trkpt lat="45.82856" lon="1.92734">
        <ele>766.3</ele>
        <time>2026-07-07T10:33:19.000Z</time>
      </trkpt>
      <trkpt lat="45.82856" lon="1.92734">
        <ele>766.3</ele>
        <time>2026-07-07T10:33:20.000Z</time>
      </trkpt>
      <trkpt lat="45.82856" lon="1.92734">
        <ele>766.3</ele>
        <time>2026-07-07T10:33:21.000Z</time>
      </trkpt>
      <trkpt lat="45.82856" lon="1.92734">
        <ele>766.3</ele>
        <time>2026-07-07T10:33:22.000Z</time>
      </trkpt>
      <trkpt lat="45.82856" lon="1.92734">
        <ele>766.3</ele>
        <time>2026-07-07T10:33:23.000Z</time>
      </trkpt>
      <trkpt lat="45.82856" lon="1.92734">
        <ele>766.3</ele>
        <time>2026-07-07T10:33:24.000Z</time>
      </trkpt>
      <trkpt lat="45.82856" lon="1.92734">
        <ele>766.3</ele>
        <time>2026-07-07T10:33:25.000Z</time>
      </trkpt>
      <trkpt lat="45.82856" lon="1.92734">
        <ele>766.3</ele>
        <time>2026-07-07T10:33:26.000Z</time>
      </trkpt>
      <trkpt lat="45.82856" lon="1.92734">
        <ele>766.4</ele>
        <time>2026-07-07T10:33:27.000Z</time>
      </trkpt>
      <trkpt lat="45.82856" lon="1.92734">
        <ele>766.4</ele>
        <time>2026-07-07T10:33:28.000Z</time>
      </trkpt>
      <trkpt lat="45.82856" lon="1.92734">
        <ele>766.4</ele>
        <time>2026-07-07T10:33:29.000Z</time>
      </trkpt>
      <trkpt lat="45.82856" lon="1.92734">
        <ele>766.4</ele>
        <time>2026-07-07T10:33:30.000Z</time>
      </trkpt>
      <trkpt lat="45.82856" lon="1.92734">
        <ele>766.4</ele>
        <time>2026-07-07T10:33:31.000Z</time>
      </trkpt>
      <trkpt lat="45.82856" lon="1.92734">
        <ele>766.4</ele>
        <time>2026-07-07T10:33:32.000Z</time>
      </trkpt>
      <trkpt lat="45.82856" lon="1.92734">
        <ele>766.4</ele>
        <time>2026-07-07T10:33:33.000Z</time>
      </trkpt>
      <trkpt lat="45.82856" lon="1.92734">
        <ele>766.4</ele>
        <time>2026-07-07T10:33:34.000Z</time>
      </trkpt>
      <trkpt lat="45.82856" lon="1.92734">
        <ele>766.4</ele>
        <time>2026-07-07T10:33:35.000Z</time>
      </trkpt>
      <trkpt lat="45.82856" lon="1.92734">
        <ele>766.4</ele>
        <time>2026-07-07T10:33:36.000Z</time>
      </trkpt>
      <trkpt lat="45.82856" lon="1.92734">
        <ele>766.4</ele>
        <time>2026-07-07T10:33:37.000Z</time>
      </trkpt>
      <trkpt lat="45.82856" lon="1.92734">
        <ele>766.4</ele>
        <time>2026-07-07T10:33:38.000Z</time>
      </trkpt>
      <trkpt lat="45.82856" lon="1.92734">
        <ele>766.4</ele>
        <time>2026-07-07T10:33:39.000Z</time>
      </trkpt>
      <trkpt lat="45.82856" lon="1.92734">
        <ele>766.5</ele>
        <time>2026-07-07T10:33:40.000Z</time>
      </trkpt>
      <trkpt lat="45.82856" lon="1.92734">
        <ele>766.5</ele>
        <time>2026-07-07T10:33:41.000Z</time>
      </trkpt>
      <trkpt lat="45.82856" lon="1.92734">
        <ele>766.5</ele>
        <time>2026-07-07T10:33:42.000Z</time>
      </trkpt>
      <trkpt lat="45.82856" lon="1.92734">
        <ele>766.5</ele>
        <time>2026-07-07T10:33:43.000Z</time>
      </trkpt>
      <trkpt lat="45.82856" lon="1.92734">
        <ele>766.5</ele>
        <time>2026-07-07T10:33:44.000Z</time>
      </trkpt>
      <trkpt lat="45.82856" lon="1.92734">
        <ele>766.5</ele>
        <time>2026-07-07T10:33:45.000Z</time>
      </trkpt>
      <trkpt lat="45.82856" lon="1.92734">
        <ele>766.5</ele>
        <time>2026-07-07T10:33:46.000Z</time>
      </trkpt>
      <trkpt lat="45.82856" lon="1.92734">
        <ele>766.5</ele>
        <time>2026-07-07T10:33:47.000Z</time>
      </trkpt>
      <trkpt lat="45.82856" lon="1.92734">
        <ele>766.5</ele>
        <time>2026-07-07T10:33:48.000Z</time>
      </trkpt>
      <trkpt lat="45.82856" lon="1.92734">
        <ele>766.5</ele>
        <time>2026-07-07T10:33:49.000Z</time>
      </trkpt>
      <trkpt lat="45.82856" lon="1.92734">
        <ele>766.5</ele>
        <time>2026-07-07T10:33:50.000Z</time>
      </trkpt>
      <trkpt lat="45.82856" lon="1.92734">
        <ele>766.5</ele>
        <time>2026-07-07T10:33:51.000Z</time>
      </trkpt>
      <trkpt lat="45.82856" lon="1.92734">
        <ele>766.5</ele>
        <time>2026-07-07T10:33:52.000Z</time>
      </trkpt>
      <trkpt lat="45.82856" lon="1.92734">
        <ele>766.5</ele>
        <time>2026-07-07T10:33:53.000Z</time>
      </trkpt>
      <trkpt lat="45.82856" lon="1.92734">
        <ele>766.5</ele>
        <time>2026-07-07T10:33:54.000Z</time>
      </trkpt>
      <trkpt lat="45.82856" lon="1.92734">
        <ele>766.5</ele>
        <time>2026-07-07T10:33:55.000Z</time>
      </trkpt>
      <trkpt lat="45.82856" lon="1.92734">
        <ele>766.5</ele>
        <time>2026-07-07T10:33:56.000Z</time>
      </trkpt>
      <trkpt lat="45.82856" lon="1.92734">
        <ele>766.5</ele>
        <time>2026-07-07T10:33:57.000Z</time>
      </trkpt>
      <trkpt lat="45.82856" lon="1.92734">
        <ele>766.5</ele>
        <time>2026-07-07T10:33:58.000Z</time>
      </trkpt>
      <trkpt lat="45.82856" lon="1.92734">
        <ele>766.5</ele>
        <time>2026-07-07T10:33:59.000Z</time>
      </trkpt>
      <trkpt lat="45.82856" lon="1.92734">
        <ele>766.5</ele>
        <time>2026-07-07T10:34:00.000Z</time>
      </trkpt>
      <trkpt lat="45.82856" lon="1.92734">
        <ele>766.5</ele>
        <time>2026-07-07T10:34:01.000Z</time>
      </trkpt>
      <trkpt lat="45.82856" lon="1.92734">
        <ele>766.5</ele>
        <time>2026-07-07T10:34:02.000Z</time>
      </trkpt>
      <trkpt lat="45.82856" lon="1.92734">
        <ele>766.5</ele>
        <time>2026-07-07T10:34:03.000Z</time>
      </trkpt>
      <trkpt lat="45.82856" lon="1.92734">
        <ele>766.5</ele>
        <time>2026-07-07T10:34:04.000Z</time>
      </trkpt>
      <trkpt lat="45.82856" lon="1.92734">
        <ele>766.5</ele>
        <time>2026-07-07T10:34:05.000Z</time>
      </trkpt>
      <trkpt lat="45.82856" lon="1.92734">
        <ele>766.5</ele>
        <time>2026-07-07T10:34:06.000Z</time>
      </trkpt>
      <trkpt lat="45.82856" lon="1.92734">
        <ele>766.5</ele>
        <time>2026-07-07T10:34:07.000Z</time>
      </trkpt>
      <trkpt lat="45.82856" lon="1.92734">
        <ele>766.5</ele>
        <time>2026-07-07T10:34:08.000Z</time>
      </trkpt>
      <trkpt lat="45.82856" lon="1.92734">
        <ele>766.5</ele>
        <time>2026-07-07T10:34:09.000Z</time>
      </trkpt>
      <trkpt lat="45.82856" lon="1.92734">
        <ele>766.5</ele>
        <time>2026-07-07T10:34:10.000Z</time>
      </trkpt>
      <trkpt lat="45.82856" lon="1.92734">
        <ele>766.5</ele>
        <time>2026-07-07T10:34:11.000Z</time>
      </trkpt>
      <trkpt lat="45.82856" lon="1.92734">
        <ele>766.5</ele>
        <time>2026-07-07T10:34:12.000Z</time>
      </trkpt>
      <trkpt lat="45.82856" lon="1.92734">
        <ele>766.5</ele>
        <time>2026-07-07T10:34:13.000Z</time>
      </trkpt>
      <trkpt lat="45.82856" lon="1.92734">
        <ele>766.5</ele>
        <time>2026-07-07T10:34:14.000Z</time>
      </trkpt>
      <trkpt lat="45.82856" lon="1.92734">
        <ele>766.5</ele>
        <time>2026-07-07T10:34:15.000Z</time>
      </trkpt>
      <trkpt lat="45.82856" lon="1.92734">
        <ele>766.5</ele>
        <time>2026-07-07T10:34:16.000Z</time>
      </trkpt>
      <trkpt lat="45.82856" lon="1.92734">
        <ele>766.5</ele>
        <time>2026-07-07T10:34:17.000Z</time>
      </trkpt>
      <trkpt lat="45.82856" lon="1.92734">
        <ele>766.4</ele>
        <time>2026-07-07T10:34:18.000Z</time>
      </trkpt>
      <trkpt lat="45.82856" lon="1.92734">
        <ele>766.4</ele>
        <time>2026-07-07T10:34:19.000Z</time>
      </trkpt>
      <trkpt lat="45.82856" lon="1.92734">
        <ele>766.4</ele>
        <time>2026-07-07T10:34:20.000Z</time>
      </trkpt>
      <trkpt lat="45.82856" lon="1.92734">
        <ele>766.4</ele>
        <time>2026-07-07T10:34:21.000Z</time>
      </trkpt>
      <trkpt lat="45.82856" lon="1.92734">
        <ele>766.4</ele>
        <time>2026-07-07T10:34:22.000Z</time>
      </trkpt>
      <trkpt lat="45.82856" lon="1.92734">
        <ele>766.4</ele>
        <time>2026-07-07T10:34:23.000Z</time>
      </trkpt>
      <trkpt lat="45.82856" lon="1.92734">
        <ele>766.4</ele>
        <time>2026-07-07T10:34:24.000Z</time>
      </trkpt>
      <trkpt lat="45.82856" lon="1.92734">
        <ele>766.4</ele>
        <time>2026-07-07T10:34:25.000Z</time>
      </trkpt>
      <trkpt lat="45.82856" lon="1.92734">
        <ele>766.4</ele>
        <time>2026-07-07T10:34:26.000Z</time>
      </trkpt>
      <trkpt lat="45.82856" lon="1.92734">
        <ele>766.4</ele>
        <time>2026-07-07T10:34:27.000Z</time>
      </trkpt>
      <trkpt lat="45.82856" lon="1.92734">
        <ele>766.4</ele>
        <time>2026-07-07T10:34:28.000Z</time>
      </trkpt>
      <trkpt lat="45.82856" lon="1.92734">
        <ele>766.4</ele>
        <time>2026-07-07T10:34:29.000Z</time>
      </trkpt>
      <trkpt lat="45.82856" lon="1.92734">
        <ele>766.4</ele>
        <time>2026-07-07T10:34:30.000Z</time>
      </trkpt>
      <trkpt lat="45.82856" lon="1.92734">
        <ele>766.4</ele>
        <time>2026-07-07T10:34:31.000Z</time>
      </trkpt>
      <trkpt lat="45.82856" lon="1.92734">
        <ele>766.4</ele>
        <time>2026-07-07T10:34:32.000Z</time>
      </trkpt>
      <trkpt lat="45.82856" lon="1.92734">
        <ele>766.4</ele>
        <time>2026-07-07T10:34:33.000Z</time>
      </trkpt>
      <trkpt lat="45.82856" lon="1.92734">
        <ele>766.4</ele>
        <time>2026-07-07T10:34:34.000Z</time>
      </trkpt>
      <trkpt lat="45.82856" lon="1.92734">
        <ele>766.4</ele>
        <time>2026-07-07T10:34:35.000Z</time>
      </trkpt>
      <trkpt lat="45.82856" lon="1.92734">
        <ele>766.4</ele>
        <time>2026-07-07T10:34:36.000Z</time>
      </trkpt>
      <trkpt lat="45.82856" lon="1.92734">
        <ele>766.4</ele>
        <time>2026-07-07T10:34:37.000Z</time>
      </trkpt>
      <trkpt lat="45.82856" lon="1.92734">
        <ele>766.4</ele>
        <time>2026-07-07T10:34:38.000Z</time>
      </trkpt>
      <trkpt lat="45.82856" lon="1.92734">
        <ele>766.4</ele>
        <time>2026-07-07T10:34:39.000Z</time>
      </trkpt>
      <trkpt lat="45.82856" lon="1.92734">
        <ele>766.4</ele>
        <time>2026-07-07T10:34:40.000Z</time>
      </trkpt>
      <trkpt lat="45.82856" lon="1.92734">
        <ele>766.4</ele>
        <time>2026-07-07T10:34:41.000Z</time>
      </trkpt>
      <trkpt lat="45.82856" lon="1.92734">
        <ele>766.4</ele>
        <time>2026-07-07T10:34:42.000Z</time>
      </trkpt>
      <trkpt lat="45.82856" lon="1.92735">
        <ele>766.4</ele>
        <time>2026-07-07T10:34:43.000Z</time>
      </trkpt>
      <trkpt lat="45.82856" lon="1.92735">
        <ele>766.4</ele>
        <time>2026-07-07T10:34:44.000Z</time>
      </trkpt>
      <trkpt lat="45.82856" lon="1.92735">
        <ele>766.3</ele>
        <time>2026-07-07T10:34:45.000Z</time>
      </trkpt>
      <trkpt lat="45.82856" lon="1.92735">
        <ele>766.3</ele>
        <time>2026-07-07T10:34:46.000Z</time>
      </trkpt>
      <trkpt lat="45.82856" lon="1.92735">
        <ele>766.3</ele>
        <time>2026-07-07T10:34:47.000Z</time>
      </trkpt>
      <trkpt lat="45.82856" lon="1.92735">
        <ele>766.3</ele>
        <time>2026-07-07T10:34:48.000Z</time>
      </trkpt>
      <trkpt lat="45.82856" lon="1.92735">
        <ele>766.3</ele>
        <time>2026-07-07T10:34:49.000Z</time>
      </trkpt>
      <trkpt lat="45.82856" lon="1.92735">
        <ele>766.3</ele>
        <time>2026-07-07T10:34:50.000Z</time>
      </trkpt>
      <trkpt lat="45.82856" lon="1.92735">
        <ele>766.3</ele>
        <time>2026-07-07T10:34:51.000Z</time>
      </trkpt>
      <trkpt lat="45.82856" lon="1.92735">
        <ele>766.3</ele>
        <time>2026-07-07T10:34:52.000Z</time>
      </trkpt>
      <trkpt lat="45.82856" lon="1.92735">
        <ele>766.3</ele>
        <time>2026-07-07T10:34:53.000Z</time>
      </trkpt>
      <trkpt lat="45.82856" lon="1.92735">
        <ele>766.3</ele>
        <time>2026-07-07T10:34:54.000Z</time>
      </trkpt>
      <trkpt lat="45.82856" lon="1.92735">
        <ele>766.3</ele>
        <time>2026-07-07T10:34:55.000Z</time>
      </trkpt>
      <trkpt lat="45.82856" lon="1.92735">
        <ele>766.3</ele>
        <time>2026-07-07T10:34:56.000Z</time>
      </trkpt>
      <trkpt lat="45.82856" lon="1.92735">
        <ele>766.4</ele>
        <time>2026-07-07T10:34:57.000Z</time>
      </trkpt>
      <trkpt lat="45.82857" lon="1.92735">
        <ele>767.1</ele>
        <time>2026-07-07T10:34:58.000Z</time>
      </trkpt>
      <trkpt lat="45.82857" lon="1.92736">
        <ele>767.3</ele>
        <time>2026-07-07T10:34:59.000Z</time>
      </trkpt>
      <trkpt lat="45.82857" lon="1.92736">
        <ele>767.3</ele>
        <time>2026-07-07T10:35:00.000Z</time>
      </trkpt>
      <trkpt lat="45.82857" lon="1.92736">
        <ele>767.3</ele>
        <time>2026-07-07T10:35:01.000Z</time>
      </trkpt>
      <trkpt lat="45.82857" lon="1.92736">
        <ele>767.3</ele>
        <time>2026-07-07T10:35:02.000Z</time>
      </trkpt>
      <trkpt lat="45.82857" lon="1.92736">
        <ele>767.3</ele>
        <time>2026-07-07T10:35:03.000Z</time>
      </trkpt>
      <trkpt lat="45.82857" lon="1.92736">
        <ele>767.3</ele>
        <time>2026-07-07T10:35:04.000Z</time>
      </trkpt>
      <trkpt lat="45.82857" lon="1.92736">
        <ele>767.3</ele>
        <time>2026-07-07T10:35:05.000Z</time>
      </trkpt>
      <trkpt lat="45.82857" lon="1.92736">
        <ele>767.3</ele>
        <time>2026-07-07T10:35:06.000Z</time>
      </trkpt>
      <trkpt lat="45.82857" lon="1.92736">
        <ele>767.3</ele>
        <time>2026-07-07T10:35:07.000Z</time>
      </trkpt>
      <trkpt lat="45.82857" lon="1.92736">
        <ele>767.3</ele>
        <time>2026-07-07T10:35:08.000Z</time>
      </trkpt>
      <trkpt lat="45.82857" lon="1.92736">
        <ele>767.3</ele>
        <time>2026-07-07T10:35:09.000Z</time>
      </trkpt>
      <trkpt lat="45.82857" lon="1.92736">
        <ele>767.3</ele>
        <time>2026-07-07T10:35:10.000Z</time>
      </trkpt>
      <trkpt lat="45.82857" lon="1.92736">
        <ele>767.3</ele>
        <time>2026-07-07T10:35:11.000Z</time>
      </trkpt>
      <trkpt lat="45.82857" lon="1.92736">
        <ele>767.2</ele>
        <time>2026-07-07T10:35:12.000Z</time>
      </trkpt>
      <trkpt lat="45.82857" lon="1.92736">
        <ele>767.2</ele>
        <time>2026-07-07T10:35:13.000Z</time>
      </trkpt>
      <trkpt lat="45.82857" lon="1.92736">
        <ele>767.2</ele>
        <time>2026-07-07T10:35:14.000Z</time>
      </trkpt>
      <trkpt lat="45.82857" lon="1.92736">
        <ele>767.2</ele>
        <time>2026-07-07T10:35:15.000Z</time>
      </trkpt>
      <trkpt lat="45.82857" lon="1.92736">
        <ele>767.2</ele>
        <time>2026-07-07T10:35:16.000Z</time>
      </trkpt>
      <trkpt lat="45.82857" lon="1.92736">
        <ele>767.2</ele>
        <time>2026-07-07T10:35:17.000Z</time>
      </trkpt>
      <trkpt lat="45.82857" lon="1.92736">
        <ele>767.2</ele>
        <time>2026-07-07T10:35:18.000Z</time>
      </trkpt>
      <trkpt lat="45.82857" lon="1.92736">
        <ele>767.2</ele>
        <time>2026-07-07T10:35:19.000Z</time>
      </trkpt>
      <trkpt lat="45.82857" lon="1.92736">
        <ele>767.2</ele>
        <time>2026-07-07T10:35:20.000Z</time>
      </trkpt>
      <trkpt lat="45.82857" lon="1.92736">
        <ele>767.2</ele>
        <time>2026-07-07T10:35:21.000Z</time>
      </trkpt>
      <trkpt lat="45.82857" lon="1.92736">
        <ele>767.3</ele>
        <time>2026-07-07T10:35:22.000Z</time>
      </trkpt>
      <trkpt lat="45.82857" lon="1.92736">
        <ele>767.3</ele>
        <time>2026-07-07T10:35:23.000Z</time>
      </trkpt>
      <trkpt lat="45.82857" lon="1.92736">
        <ele>767.3</ele>
        <time>2026-07-07T10:35:24.000Z</time>
      </trkpt>
      <trkpt lat="45.82857" lon="1.92736">
        <ele>767.3</ele>
        <time>2026-07-07T10:35:25.000Z</time>
      </trkpt>
      <trkpt lat="45.82857" lon="1.92736">
        <ele>767.3</ele>
        <time>2026-07-07T10:35:26.000Z</time>
      </trkpt>
      <trkpt lat="45.82857" lon="1.92736">
        <ele>767.3</ele>
        <time>2026-07-07T10:35:27.000Z</time>
      </trkpt>
      <trkpt lat="45.82857" lon="1.92736">
        <ele>767.2</ele>
        <time>2026-07-07T10:35:28.000Z</time>
      </trkpt>
      <trkpt lat="45.82857" lon="1.92736">
        <ele>767.2</ele>
        <time>2026-07-07T10:35:29.000Z</time>
      </trkpt>
      <trkpt lat="45.82857" lon="1.92736">
        <ele>767.2</ele>
        <time>2026-07-07T10:35:30.000Z</time>
      </trkpt>
      <trkpt lat="45.82857" lon="1.92736">
        <ele>767.2</ele>
        <time>2026-07-07T10:35:31.000Z</time>
      </trkpt>
      <trkpt lat="45.82857" lon="1.92736">
        <ele>767.2</ele>
        <time>2026-07-07T10:35:32.000Z</time>
      </trkpt>
      <trkpt lat="45.82857" lon="1.92736">
        <ele>767.2</ele>
        <time>2026-07-07T10:35:33.000Z</time>
      </trkpt>
      <trkpt lat="45.82857" lon="1.92736">
        <ele>767.2</ele>
        <time>2026-07-07T10:35:34.000Z</time>
      </trkpt>
      <trkpt lat="45.82857" lon="1.92736">
        <ele>767.2</ele>
        <time>2026-07-07T10:35:35.000Z</time>
      </trkpt>
      <trkpt lat="45.82857" lon="1.92737">
        <ele>767</ele>
        <time>2026-07-07T10:35:36.000Z</time>
      </trkpt>
      <trkpt lat="45.82857" lon="1.92737">
        <ele>767</ele>
        <time>2026-07-07T10:35:37.000Z</time>
      </trkpt>
      <trkpt lat="45.82857" lon="1.92737">
        <ele>767</ele>
        <time>2026-07-07T10:35:38.000Z</time>
      </trkpt>
      <trkpt lat="45.82857" lon="1.92737">
        <ele>767.5</ele>
        <time>2026-07-07T10:35:39.000Z</time>
      </trkpt>
      <trkpt lat="45.82857" lon="1.92738">
        <ele>767.4</ele>
        <time>2026-07-07T10:35:40.000Z</time>
      </trkpt>
      <trkpt lat="45.82857" lon="1.92738">
        <ele>767.4</ele>
        <time>2026-07-07T10:35:41.000Z</time>
      </trkpt>
      <trkpt lat="45.82857" lon="1.92738">
        <ele>767.4</ele>
        <time>2026-07-07T10:35:42.000Z</time>
      </trkpt>
      <trkpt lat="45.82857" lon="1.92738">
        <ele>767</ele>
        <time>2026-07-07T10:35:43.000Z</time>
      </trkpt>
      <trkpt lat="45.82857" lon="1.92739">
        <ele>767.1</ele>
        <time>2026-07-07T10:35:44.000Z</time>
      </trkpt>
      <trkpt lat="45.82857" lon="1.92739">
        <ele>767.2</ele>
        <time>2026-07-07T10:35:45.000Z</time>
      </trkpt>
      <trkpt lat="45.82857" lon="1.92739">
        <ele>767</ele>
        <time>2026-07-07T10:35:46.000Z</time>
      </trkpt>
      <trkpt lat="45.82857" lon="1.92739">
        <ele>767</ele>
        <time>2026-07-07T10:35:47.000Z</time>
      </trkpt>
      <trkpt lat="45.82857" lon="1.92739">
        <ele>767</ele>
        <time>2026-07-07T10:35:48.000Z</time>
      </trkpt>
      <trkpt lat="45.82857" lon="1.92739">
        <ele>767</ele>
        <time>2026-07-07T10:35:49.000Z</time>
      </trkpt>
      <trkpt lat="45.82857" lon="1.92739">
        <ele>767</ele>
        <time>2026-07-07T10:35:50.000Z</time>
      </trkpt>
      <trkpt lat="45.82857" lon="1.92739">
        <ele>767</ele>
        <time>2026-07-07T10:35:51.000Z</time>
      </trkpt>
      <trkpt lat="45.82857" lon="1.92739">
        <ele>767</ele>
        <time>2026-07-07T10:35:52.000Z</time>
      </trkpt>
      <trkpt lat="45.82857" lon="1.92739">
        <ele>767</ele>
        <time>2026-07-07T10:35:53.000Z</time>
      </trkpt>
      <trkpt lat="45.82857" lon="1.92739">
        <ele>767</ele>
        <time>2026-07-07T10:35:54.000Z</time>
      </trkpt>
      <trkpt lat="45.82857" lon="1.92739">
        <ele>767</ele>
        <time>2026-07-07T10:35:55.000Z</time>
      </trkpt>
      <trkpt lat="45.82857" lon="1.92739">
        <ele>767</ele>
        <time>2026-07-07T10:35:56.000Z</time>
      </trkpt>
      <trkpt lat="45.82857" lon="1.92739">
        <ele>767</ele>
        <time>2026-07-07T10:35:57.000Z</time>
      </trkpt>
      <trkpt lat="45.82857" lon="1.92739">
        <ele>767</ele>
        <time>2026-07-07T10:35:58.000Z</time>
      </trkpt>
      <trkpt lat="45.82857" lon="1.92739">
        <ele>767</ele>
        <time>2026-07-07T10:35:59.000Z</time>
      </trkpt>
      <trkpt lat="45.82857" lon="1.92739">
        <ele>767</ele>
        <time>2026-07-07T10:36:00.000Z</time>
      </trkpt>
      <trkpt lat="45.82857" lon="1.92739">
        <ele>767</ele>
        <time>2026-07-07T10:36:01.000Z</time>
      </trkpt>
      <trkpt lat="45.82857" lon="1.92739">
        <ele>767</ele>
        <time>2026-07-07T10:36:02.000Z</time>
      </trkpt>
      <trkpt lat="45.82857" lon="1.92739">
        <ele>767</ele>
        <time>2026-07-07T10:36:03.000Z</time>
      </trkpt>
      <trkpt lat="45.82857" lon="1.92739">
        <ele>767</ele>
        <time>2026-07-07T10:36:04.000Z</time>
      </trkpt>
      <trkpt lat="45.82857" lon="1.92739">
        <ele>767</ele>
        <time>2026-07-07T10:36:05.000Z</time>
      </trkpt>
      <trkpt lat="45.82857" lon="1.92739">
        <ele>767</ele>
        <time>2026-07-07T10:36:06.000Z</time>
      </trkpt>
      <trkpt lat="45.82857" lon="1.92739">
        <ele>767</ele>
        <time>2026-07-07T10:36:07.000Z</time>
      </trkpt>
      <trkpt lat="45.82857" lon="1.92739">
        <ele>767</ele>
        <time>2026-07-07T10:36:08.000Z</time>
      </trkpt>
      <trkpt lat="45.82857" lon="1.92739">
        <ele>767</ele>
        <time>2026-07-07T10:36:09.000Z</time>
      </trkpt>
      <trkpt lat="45.82857" lon="1.92739">
        <ele>767</ele>
        <time>2026-07-07T10:36:10.000Z</time>
      </trkpt>
      <trkpt lat="45.82857" lon="1.92739">
        <ele>767</ele>
        <time>2026-07-07T10:36:11.000Z</time>
      </trkpt>
      <trkpt lat="45.82857" lon="1.92739">
        <ele>767</ele>
        <time>2026-07-07T10:36:12.000Z</time>
      </trkpt>
      <trkpt lat="45.82857" lon="1.92739">
        <ele>767</ele>
        <time>2026-07-07T10:36:13.000Z</time>
      </trkpt>
      <trkpt lat="45.82857" lon="1.92739">
        <ele>767</ele>
        <time>2026-07-07T10:36:14.000Z</time>
      </trkpt>
      <trkpt lat="45.82857" lon="1.92739">
        <ele>767</ele>
        <time>2026-07-07T10:36:15.000Z</time>
      </trkpt>
      <trkpt lat="45.82857" lon="1.92739">
        <ele>767</ele>
        <time>2026-07-07T10:36:16.000Z</time>
      </trkpt>
      <trkpt lat="45.82857" lon="1.92739">
        <ele>767</ele>
        <time>2026-07-07T10:36:17.000Z</time>
      </trkpt>
      <trkpt lat="45.82857" lon="1.92739">
        <ele>767</ele>
        <time>2026-07-07T10:36:18.000Z</time>
      </trkpt>
      <trkpt lat="45.82857" lon="1.92739">
        <ele>767</ele>
        <time>2026-07-07T10:36:19.000Z</time>
      </trkpt>
      <trkpt lat="45.82857" lon="1.92739">
        <ele>767</ele>
        <time>2026-07-07T10:36:20.000Z</time>
      </trkpt>
      <trkpt lat="45.82857" lon="1.92739">
        <ele>767</ele>
        <time>2026-07-07T10:36:21.000Z</time>
      </trkpt>
      <trkpt lat="45.82857" lon="1.92739">
        <ele>767</ele>
        <time>2026-07-07T10:36:22.000Z</time>
      </trkpt>
      <trkpt lat="45.82857" lon="1.92739">
        <ele>767</ele>
        <time>2026-07-07T10:36:23.000Z</time>
      </trkpt>
      <trkpt lat="45.82857" lon="1.92739">
        <ele>767</ele>
        <time>2026-07-07T10:36:24.000Z</time>
      </trkpt>
      <trkpt lat="45.82857" lon="1.92739">
        <ele>767</ele>
        <time>2026-07-07T10:36:25.000Z</time>
      </trkpt>
      <trkpt lat="45.82857" lon="1.92739">
        <ele>767</ele>
        <time>2026-07-07T10:36:26.000Z</time>
      </trkpt>
      <trkpt lat="45.82857" lon="1.92739">
        <ele>767</ele>
        <time>2026-07-07T10:36:27.000Z</time>
      </trkpt>
      <trkpt lat="45.82857" lon="1.92739">
        <ele>766.8</ele>
        <time>2026-07-07T10:36:28.000Z</time>
      </trkpt>
      <trkpt lat="45.82858" lon="1.92739">
        <ele>767.3</ele>
        <time>2026-07-07T10:36:29.000Z</time>
      </trkpt>
      <trkpt lat="45.82858" lon="1.92739">
        <ele>767.3</ele>
        <time>2026-07-07T10:36:30.000Z</time>
      </trkpt>
      <trkpt lat="45.82858" lon="1.92739">
        <ele>767.3</ele>
        <time>2026-07-07T10:36:31.000Z</time>
      </trkpt>
      <trkpt lat="45.82858" lon="1.92739">
        <ele>766.9</ele>
        <time>2026-07-07T10:36:32.000Z</time>
      </trkpt>
      <trkpt lat="45.82858" lon="1.92738">
        <ele>767.2</ele>
        <time>2026-07-07T10:36:33.000Z</time>
      </trkpt>
      <trkpt lat="45.82858" lon="1.92738">
        <ele>767.2</ele>
        <time>2026-07-07T10:36:34.000Z</time>
      </trkpt>
      <trkpt lat="45.82858" lon="1.92738">
        <ele>767.2</ele>
        <time>2026-07-07T10:36:35.000Z</time>
      </trkpt>
      <trkpt lat="45.82858" lon="1.92738">
        <ele>767.2</ele>
        <time>2026-07-07T10:36:36.000Z</time>
      </trkpt>
      <trkpt lat="45.82859" lon="1.92739">
        <ele>767.2</ele>
        <time>2026-07-07T10:36:37.000Z</time>
      </trkpt>
      <trkpt lat="45.82859" lon="1.92739">
        <ele>767.2</ele>
        <time>2026-07-07T10:36:38.000Z</time>
      </trkpt>
      <trkpt lat="45.82859" lon="1.92739">
        <ele>767.2</ele>
        <time>2026-07-07T10:36:39.000Z</time>
      </trkpt>
      <trkpt lat="45.82859" lon="1.92739">
        <ele>767.2</ele>
        <time>2026-07-07T10:36:40.000Z</time>
      </trkpt>
      <trkpt lat="45.82859" lon="1.92739">
        <ele>767.2</ele>
        <time>2026-07-07T10:36:41.000Z</time>
      </trkpt>
      <trkpt lat="45.82859" lon="1.92739">
        <ele>767.2</ele>
        <time>2026-07-07T10:36:42.000Z</time>
      </trkpt>
      <trkpt lat="45.82859" lon="1.92739">
        <ele>767.2</ele>
        <time>2026-07-07T10:36:43.000Z</time>
      </trkpt>
      <trkpt lat="45.82859" lon="1.92739">
        <ele>767.2</ele>
        <time>2026-07-07T10:36:44.000Z</time>
      </trkpt>
      <trkpt lat="45.82859" lon="1.92739">
        <ele>767.2</ele>
        <time>2026-07-07T10:36:45.000Z</time>
      </trkpt>
      <trkpt lat="45.82859" lon="1.92739">
        <ele>767.3</ele>
        <time>2026-07-07T10:36:46.000Z</time>
      </trkpt>
      <trkpt lat="45.82859" lon="1.92739">
        <ele>767.2</ele>
        <time>2026-07-07T10:36:47.000Z</time>
      </trkpt>
      <trkpt lat="45.82859" lon="1.92739">
        <ele>767.2</ele>
        <time>2026-07-07T10:36:48.000Z</time>
      </trkpt>
      <trkpt lat="45.82859" lon="1.92739">
        <ele>767.2</ele>
        <time>2026-07-07T10:36:49.000Z</time>
      </trkpt>
      <trkpt lat="45.82859" lon="1.92739">
        <ele>767.2</ele>
        <time>2026-07-07T10:36:50.000Z</time>
      </trkpt>
      <trkpt lat="45.82859" lon="1.92739">
        <ele>767.2</ele>
        <time>2026-07-07T10:36:51.000Z</time>
      </trkpt>
      <trkpt lat="45.82859" lon="1.92739">
        <ele>767.2</ele>
        <time>2026-07-07T10:36:52.000Z</time>
      </trkpt>
      <trkpt lat="45.82859" lon="1.92739">
        <ele>767.2</ele>
        <time>2026-07-07T10:36:53.000Z</time>
      </trkpt>
      <trkpt lat="45.82859" lon="1.92739">
        <ele>767.2</ele>
        <time>2026-07-07T10:36:54.000Z</time>
      </trkpt>
      <trkpt lat="45.82859" lon="1.92739">
        <ele>767.2</ele>
        <time>2026-07-07T10:36:55.000Z</time>
      </trkpt>
      <trkpt lat="45.82859" lon="1.92739">
        <ele>767.2</ele>
        <time>2026-07-07T10:36:56.000Z</time>
      </trkpt>
      <trkpt lat="45.82859" lon="1.92739">
        <ele>767.2</ele>
        <time>2026-07-07T10:36:57.000Z</time>
      </trkpt>
      <trkpt lat="45.82859" lon="1.92739">
        <ele>767.2</ele>
        <time>2026-07-07T10:36:58.000Z</time>
      </trkpt>
      <trkpt lat="45.82859" lon="1.92739">
        <ele>767.2</ele>
        <time>2026-07-07T10:36:59.000Z</time>
      </trkpt>
      <trkpt lat="45.82859" lon="1.92739">
        <ele>767.2</ele>
        <time>2026-07-07T10:37:00.000Z</time>
      </trkpt>
      <trkpt lat="45.82859" lon="1.92739">
        <ele>767.2</ele>
        <time>2026-07-07T10:37:01.000Z</time>
      </trkpt>
      <trkpt lat="45.82859" lon="1.92739">
        <ele>767.2</ele>
        <time>2026-07-07T10:37:02.000Z</time>
      </trkpt>
      <trkpt lat="45.82859" lon="1.92739">
        <ele>767.2</ele>
        <time>2026-07-07T10:37:03.000Z</time>
      </trkpt>
      <trkpt lat="45.82859" lon="1.92739">
        <ele>767.3</ele>
        <time>2026-07-07T10:37:04.000Z</time>
      </trkpt>
      <trkpt lat="45.82859" lon="1.92739">
        <ele>767.3</ele>
        <time>2026-07-07T10:37:05.000Z</time>
      </trkpt>
      <trkpt lat="45.82859" lon="1.92739">
        <ele>767.3</ele>
        <time>2026-07-07T10:37:06.000Z</time>
      </trkpt>
      <trkpt lat="45.82859" lon="1.92739">
        <ele>767.3</ele>
        <time>2026-07-07T10:37:07.000Z</time>
      </trkpt>
      <trkpt lat="45.82859" lon="1.92739">
        <ele>767.3</ele>
        <time>2026-07-07T10:37:08.000Z</time>
      </trkpt>
      <trkpt lat="45.82859" lon="1.92739">
        <ele>767.3</ele>
        <time>2026-07-07T10:37:09.000Z</time>
      </trkpt>
      <trkpt lat="45.82859" lon="1.92739">
        <ele>767.3</ele>
        <time>2026-07-07T10:37:10.000Z</time>
      </trkpt>
      <trkpt lat="45.82859" lon="1.92739">
        <ele>767.3</ele>
        <time>2026-07-07T10:37:11.000Z</time>
      </trkpt>
      <trkpt lat="45.82859" lon="1.92739">
        <ele>767.3</ele>
        <time>2026-07-07T10:37:12.000Z</time>
      </trkpt>
      <trkpt lat="45.82859" lon="1.92739">
        <ele>767.3</ele>
        <time>2026-07-07T10:37:13.000Z</time>
      </trkpt>
      <trkpt lat="45.82859" lon="1.92739">
        <ele>767.3</ele>
        <time>2026-07-07T10:37:14.000Z</time>
      </trkpt>
      <trkpt lat="45.82859" lon="1.92739">
        <ele>767.3</ele>
        <time>2026-07-07T10:37:15.000Z</time>
      </trkpt>
      <trkpt lat="45.82859" lon="1.92739">
        <ele>767.3</ele>
        <time>2026-07-07T10:37:16.000Z</time>
      </trkpt>
      <trkpt lat="45.82859" lon="1.92739">
        <ele>767.3</ele>
        <time>2026-07-07T10:37:17.000Z</time>
      </trkpt>
      <trkpt lat="45.82859" lon="1.92739">
        <ele>767.3</ele>
        <time>2026-07-07T10:37:18.000Z</time>
      </trkpt>
      <trkpt lat="45.82859" lon="1.92739">
        <ele>767.3</ele>
        <time>2026-07-07T10:37:19.000Z</time>
      </trkpt>
      <trkpt lat="45.82859" lon="1.92739">
        <ele>767.3</ele>
        <time>2026-07-07T10:37:20.000Z</time>
      </trkpt>
      <trkpt lat="45.82859" lon="1.92739">
        <ele>767.3</ele>
        <time>2026-07-07T10:37:21.000Z</time>
      </trkpt>
      <trkpt lat="45.82859" lon="1.92739">
        <ele>767.3</ele>
        <time>2026-07-07T10:37:22.000Z</time>
      </trkpt>
      <trkpt lat="45.82859" lon="1.9274">
        <ele>767.7</ele>
        <time>2026-07-07T10:37:23.000Z</time>
      </trkpt>
      <trkpt lat="45.82859" lon="1.9274">
        <ele>767.7</ele>
        <time>2026-07-07T10:37:24.000Z</time>
      </trkpt>
      <trkpt lat="45.82859" lon="1.9274">
        <ele>767.7</ele>
        <time>2026-07-07T10:37:25.000Z</time>
      </trkpt>
      <trkpt lat="45.82859" lon="1.9274">
        <ele>767.7</ele>
        <time>2026-07-07T10:37:26.000Z</time>
      </trkpt>
      <trkpt lat="45.82859" lon="1.9274">
        <ele>767.7</ele>
        <time>2026-07-07T10:37:27.000Z</time>
      </trkpt>
      <trkpt lat="45.82859" lon="1.9274">
        <ele>767.7</ele>
        <time>2026-07-07T10:37:28.000Z</time>
      </trkpt>
      <trkpt lat="45.82859" lon="1.9274">
        <ele>767.7</ele>
        <time>2026-07-07T10:37:29.000Z</time>
      </trkpt>
      <trkpt lat="45.82859" lon="1.9274">
        <ele>767.7</ele>
        <time>2026-07-07T10:37:30.000Z</time>
      </trkpt>
      <trkpt lat="45.82859" lon="1.9274">
        <ele>767.7</ele>
        <time>2026-07-07T10:37:31.000Z</time>
      </trkpt>
      <trkpt lat="45.82859" lon="1.9274">
        <ele>767.7</ele>
        <time>2026-07-07T10:37:32.000Z</time>
      </trkpt>
      <trkpt lat="45.82859" lon="1.9274">
        <ele>767.7</ele>
        <time>2026-07-07T10:37:33.000Z</time>
      </trkpt>
      <trkpt lat="45.82859" lon="1.9274">
        <ele>767.7</ele>
        <time>2026-07-07T10:37:34.000Z</time>
      </trkpt>
      <trkpt lat="45.82859" lon="1.9274">
        <ele>767.7</ele>
        <time>2026-07-07T10:37:35.000Z</time>
      </trkpt>
      <trkpt lat="45.82859" lon="1.9274">
        <ele>767.8</ele>
        <time>2026-07-07T10:37:36.000Z</time>
      </trkpt>
      <trkpt lat="45.82859" lon="1.9274">
        <ele>767.8</ele>
        <time>2026-07-07T10:37:37.000Z</time>
      </trkpt>
      <trkpt lat="45.82859" lon="1.9274">
        <ele>767.8</ele>
        <time>2026-07-07T10:37:38.000Z</time>
      </trkpt>
      <trkpt lat="45.82859" lon="1.9274">
        <ele>767.8</ele>
        <time>2026-07-07T10:37:39.000Z</time>
      </trkpt>
      <trkpt lat="45.82859" lon="1.9274">
        <ele>767.8</ele>
        <time>2026-07-07T10:37:40.000Z</time>
      </trkpt>
      <trkpt lat="45.82859" lon="1.9274">
        <ele>767.8</ele>
        <time>2026-07-07T10:37:41.000Z</time>
      </trkpt>
      <trkpt lat="45.82859" lon="1.9274">
        <ele>767.8</ele>
        <time>2026-07-07T10:37:42.000Z</time>
      </trkpt>
      <trkpt lat="45.82859" lon="1.9274">
        <ele>767.8</ele>
        <time>2026-07-07T10:37:43.000Z</time>
      </trkpt>
      <trkpt lat="45.82859" lon="1.9274">
        <ele>767.8</ele>
        <time>2026-07-07T10:37:44.000Z</time>
      </trkpt>
      <trkpt lat="45.82859" lon="1.9274">
        <ele>767.8</ele>
        <time>2026-07-07T10:37:45.000Z</time>
      </trkpt>
      <trkpt lat="45.82859" lon="1.9274">
        <ele>767.8</ele>
        <time>2026-07-07T10:37:46.000Z</time>
      </trkpt>
      <trkpt lat="45.82859" lon="1.9274">
        <ele>767.8</ele>
        <time>2026-07-07T10:37:47.000Z</time>
      </trkpt>
      <trkpt lat="45.82859" lon="1.9274">
        <ele>767.8</ele>
        <time>2026-07-07T10:37:48.000Z</time>
      </trkpt>
      <trkpt lat="45.82859" lon="1.9274">
        <ele>767.8</ele>
        <time>2026-07-07T10:37:49.000Z</time>
      </trkpt>
      <trkpt lat="45.82859" lon="1.9274">
        <ele>767.8</ele>
        <time>2026-07-07T10:37:50.000Z</time>
      </trkpt>
      <trkpt lat="45.82859" lon="1.9274">
        <ele>767.8</ele>
        <time>2026-07-07T10:37:51.000Z</time>
      </trkpt>
      <trkpt lat="45.82859" lon="1.9274">
        <ele>767.8</ele>
        <time>2026-07-07T10:37:52.000Z</time>
      </trkpt>
      <trkpt lat="45.82859" lon="1.9274">
        <ele>767.8</ele>
        <time>2026-07-07T10:37:53.000Z</time>
      </trkpt>
      <trkpt lat="45.82859" lon="1.9274">
        <ele>767.7</ele>
        <time>2026-07-07T10:37:54.000Z</time>
      </trkpt>
      <trkpt lat="45.82859" lon="1.9274">
        <ele>767.7</ele>
        <time>2026-07-07T10:37:55.000Z</time>
      </trkpt>
      <trkpt lat="45.82859" lon="1.9274">
        <ele>767.7</ele>
        <time>2026-07-07T10:37:56.000Z</time>
      </trkpt>
      <trkpt lat="45.82859" lon="1.9274">
        <ele>767.7</ele>
        <time>2026-07-07T10:37:57.000Z</time>
      </trkpt>
      <trkpt lat="45.82859" lon="1.9274">
        <ele>767.7</ele>
        <time>2026-07-07T10:37:58.000Z</time>
      </trkpt>
      <trkpt lat="45.82859" lon="1.9274">
        <ele>767.7</ele>
        <time>2026-07-07T10:37:59.000Z</time>
      </trkpt>
      <trkpt lat="45.82859" lon="1.9274">
        <ele>767.7</ele>
        <time>2026-07-07T10:38:00.000Z</time>
      </trkpt>
      <trkpt lat="45.82859" lon="1.9274">
        <ele>767.7</ele>
        <time>2026-07-07T10:38:01.000Z</time>
      </trkpt>
      <trkpt lat="45.82859" lon="1.9274">
        <ele>767.7</ele>
        <time>2026-07-07T10:38:02.000Z</time>
      </trkpt>
      <trkpt lat="45.82859" lon="1.9274">
        <ele>767.7</ele>
        <time>2026-07-07T10:38:03.000Z</time>
      </trkpt>
      <trkpt lat="45.82859" lon="1.9274">
        <ele>767.7</ele>
        <time>2026-07-07T10:38:04.000Z</time>
      </trkpt>
      <trkpt lat="45.82859" lon="1.92741">
        <ele>767.8</ele>
        <time>2026-07-07T10:38:05.000Z</time>
      </trkpt>
      <trkpt lat="45.82859" lon="1.92741">
        <ele>767.8</ele>
        <time>2026-07-07T10:38:06.000Z</time>
      </trkpt>
      <trkpt lat="45.82859" lon="1.92741">
        <ele>767.8</ele>
        <time>2026-07-07T10:38:07.000Z</time>
      </trkpt>
      <trkpt lat="45.82859" lon="1.92741">
        <ele>767.8</ele>
        <time>2026-07-07T10:38:08.000Z</time>
      </trkpt>
      <trkpt lat="45.82859" lon="1.92741">
        <ele>767.7</ele>
        <time>2026-07-07T10:38:09.000Z</time>
      </trkpt>
      <trkpt lat="45.82859" lon="1.92741">
        <ele>767.8</ele>
        <time>2026-07-07T10:38:10.000Z</time>
      </trkpt>
      <trkpt lat="45.82859" lon="1.92741">
        <ele>767.8</ele>
        <time>2026-07-07T10:38:11.000Z</time>
      </trkpt>
      <trkpt lat="45.82859" lon="1.92741">
        <ele>767.8</ele>
        <time>2026-07-07T10:38:12.000Z</time>
      </trkpt>
      <trkpt lat="45.82859" lon="1.92741">
        <ele>767.8</ele>
        <time>2026-07-07T10:38:13.000Z</time>
      </trkpt>
      <trkpt lat="45.82859" lon="1.92741">
        <ele>767.8</ele>
        <time>2026-07-07T10:38:14.000Z</time>
      </trkpt>
      <trkpt lat="45.82859" lon="1.92741">
        <ele>767.8</ele>
        <time>2026-07-07T10:38:15.000Z</time>
      </trkpt>
      <trkpt lat="45.82859" lon="1.92741">
        <ele>767.8</ele>
        <time>2026-07-07T10:38:16.000Z</time>
      </trkpt>
      <trkpt lat="45.82859" lon="1.92741">
        <ele>767.8</ele>
        <time>2026-07-07T10:38:17.000Z</time>
      </trkpt>
      <trkpt lat="45.82859" lon="1.92741">
        <ele>767.8</ele>
        <time>2026-07-07T10:38:18.000Z</time>
      </trkpt>
      <trkpt lat="45.82859" lon="1.92741">
        <ele>767.8</ele>
        <time>2026-07-07T10:38:19.000Z</time>
      </trkpt>
      <trkpt lat="45.82859" lon="1.92741">
        <ele>767.8</ele>
        <time>2026-07-07T10:38:20.000Z</time>
      </trkpt>
      <trkpt lat="45.82859" lon="1.92741">
        <ele>767.8</ele>
        <time>2026-07-07T10:38:21.000Z</time>
      </trkpt>
      <trkpt lat="45.82859" lon="1.92741">
        <ele>767.6</ele>
        <time>2026-07-07T10:38:22.000Z</time>
      </trkpt>
      <trkpt lat="45.82859" lon="1.92741">
        <ele>767.6</ele>
        <time>2026-07-07T10:38:23.000Z</time>
      </trkpt>
      <trkpt lat="45.82859" lon="1.92741">
        <ele>767.5</ele>
        <time>2026-07-07T10:38:24.000Z</time>
      </trkpt>
      <trkpt lat="45.82859" lon="1.92741">
        <ele>767.5</ele>
        <time>2026-07-07T10:38:25.000Z</time>
      </trkpt>
      <trkpt lat="45.82859" lon="1.92741">
        <ele>767.5</ele>
        <time>2026-07-07T10:38:26.000Z</time>
      </trkpt>
      <trkpt lat="45.82859" lon="1.92741">
        <ele>767.5</ele>
        <time>2026-07-07T10:38:27.000Z</time>
      </trkpt>
      <trkpt lat="45.82859" lon="1.92741">
        <ele>767.5</ele>
        <time>2026-07-07T10:38:28.000Z</time>
      </trkpt>
      <trkpt lat="45.82859" lon="1.92741">
        <ele>767.5</ele>
        <time>2026-07-07T10:38:29.000Z</time>
      </trkpt>
      <trkpt lat="45.82859" lon="1.92741">
        <ele>767.5</ele>
        <time>2026-07-07T10:38:30.000Z</time>
      </trkpt>
      <trkpt lat="45.82859" lon="1.92741">
        <ele>767.3</ele>
        <time>2026-07-07T10:38:31.000Z</time>
      </trkpt>
      <trkpt lat="45.82859" lon="1.92741">
        <ele>767.3</ele>
        <time>2026-07-07T10:38:32.000Z</time>
      </trkpt>
      <trkpt lat="45.82859" lon="1.92741">
        <ele>767.3</ele>
        <time>2026-07-07T10:38:33.000Z</time>
      </trkpt>
      <trkpt lat="45.82859" lon="1.92741">
        <ele>767.3</ele>
        <time>2026-07-07T10:38:34.000Z</time>
      </trkpt>
      <trkpt lat="45.82859" lon="1.92741">
        <ele>767.3</ele>
        <time>2026-07-07T10:38:35.000Z</time>
      </trkpt>
      <trkpt lat="45.82859" lon="1.92741">
        <ele>767.3</ele>
        <time>2026-07-07T10:38:36.000Z</time>
      </trkpt>
      <trkpt lat="45.82859" lon="1.92741">
        <ele>767.3</ele>
        <time>2026-07-07T10:38:37.000Z</time>
      </trkpt>
      <trkpt lat="45.82859" lon="1.92741">
        <ele>767.3</ele>
        <time>2026-07-07T10:38:38.000Z</time>
      </trkpt>
      <trkpt lat="45.82859" lon="1.92741">
        <ele>767.3</ele>
        <time>2026-07-07T10:38:39.000Z</time>
      </trkpt>
      <trkpt lat="45.82859" lon="1.92741">
        <ele>767.3</ele>
        <time>2026-07-07T10:38:40.000Z</time>
      </trkpt>
      <trkpt lat="45.82859" lon="1.92741">
        <ele>767.3</ele>
        <time>2026-07-07T10:38:41.000Z</time>
      </trkpt>
      <trkpt lat="45.82859" lon="1.92741">
        <ele>767.3</ele>
        <time>2026-07-07T10:38:42.000Z</time>
      </trkpt>
      <trkpt lat="45.82859" lon="1.92741">
        <ele>767.3</ele>
        <time>2026-07-07T10:38:43.000Z</time>
      </trkpt>
      <trkpt lat="45.82859" lon="1.92741">
        <ele>767.3</ele>
        <time>2026-07-07T10:38:44.000Z</time>
      </trkpt>
      <trkpt lat="45.82859" lon="1.92741">
        <ele>767.3</ele>
        <time>2026-07-07T10:38:45.000Z</time>
      </trkpt>
      <trkpt lat="45.82859" lon="1.92741">
        <ele>767.3</ele>
        <time>2026-07-07T10:38:46.000Z</time>
      </trkpt>
      <trkpt lat="45.82859" lon="1.92741">
        <ele>767.3</ele>
        <time>2026-07-07T10:38:47.000Z</time>
      </trkpt>
      <trkpt lat="45.82859" lon="1.92741">
        <ele>767.3</ele>
        <time>2026-07-07T10:38:48.000Z</time>
      </trkpt>
      <trkpt lat="45.82859" lon="1.92741">
        <ele>767.3</ele>
        <time>2026-07-07T10:38:49.000Z</time>
      </trkpt>
      <trkpt lat="45.82859" lon="1.92741">
        <ele>767.3</ele>
        <time>2026-07-07T10:38:50.000Z</time>
      </trkpt>
      <trkpt lat="45.82859" lon="1.92741">
        <ele>767.3</ele>
        <time>2026-07-07T10:38:51.000Z</time>
      </trkpt>
      <trkpt lat="45.82859" lon="1.92741">
        <ele>767.3</ele>
        <time>2026-07-07T10:38:52.000Z</time>
      </trkpt>
      <trkpt lat="45.82859" lon="1.92741">
        <ele>767.3</ele>
        <time>2026-07-07T10:38:53.000Z</time>
      </trkpt>
      <trkpt lat="45.82859" lon="1.92741">
        <ele>767.3</ele>
        <time>2026-07-07T10:38:54.000Z</time>
      </trkpt>
      <trkpt lat="45.82859" lon="1.92741">
        <ele>767.3</ele>
        <time>2026-07-07T10:38:55.000Z</time>
      </trkpt>
      <trkpt lat="45.82859" lon="1.92741">
        <ele>767.3</ele>
        <time>2026-07-07T10:38:56.000Z</time>
      </trkpt>
      <trkpt lat="45.82859" lon="1.92741">
        <ele>767.3</ele>
        <time>2026-07-07T10:38:57.000Z</time>
      </trkpt>
      <trkpt lat="45.82859" lon="1.92741">
        <ele>767.3</ele>
        <time>2026-07-07T10:38:58.000Z</time>
      </trkpt>
      <trkpt lat="45.82859" lon="1.92741">
        <ele>767.3</ele>
        <time>2026-07-07T10:38:59.000Z</time>
      </trkpt>
      <trkpt lat="45.82859" lon="1.92741">
        <ele>767.3</ele>
        <time>2026-07-07T10:39:00.000Z</time>
      </trkpt>
      <trkpt lat="45.82859" lon="1.92741">
        <ele>767.3</ele>
        <time>2026-07-07T10:39:01.000Z</time>
      </trkpt>
      <trkpt lat="45.82859" lon="1.92741">
        <ele>767.3</ele>
        <time>2026-07-07T10:39:02.000Z</time>
      </trkpt>
      <trkpt lat="45.82859" lon="1.92741">
        <ele>767.3</ele>
        <time>2026-07-07T10:39:03.000Z</time>
      </trkpt>
      <trkpt lat="45.82859" lon="1.92741">
        <ele>767.3</ele>
        <time>2026-07-07T10:39:04.000Z</time>
      </trkpt>
      <trkpt lat="45.82859" lon="1.92741">
        <ele>767.3</ele>
        <time>2026-07-07T10:39:05.000Z</time>
      </trkpt>
      <trkpt lat="45.82859" lon="1.92741">
        <ele>767.3</ele>
        <time>2026-07-07T10:39:06.000Z</time>
      </trkpt>
      <trkpt lat="45.82859" lon="1.92741">
        <ele>767.3</ele>
        <time>2026-07-07T10:39:07.000Z</time>
      </trkpt>
      <trkpt lat="45.82859" lon="1.92741">
        <ele>767.3</ele>
        <time>2026-07-07T10:39:08.000Z</time>
      </trkpt>
      <trkpt lat="45.82859" lon="1.92741">
        <ele>767.3</ele>
        <time>2026-07-07T10:39:09.000Z</time>
      </trkpt>
      <trkpt lat="45.82859" lon="1.92741">
        <ele>767.3</ele>
        <time>2026-07-07T10:39:10.000Z</time>
      </trkpt>
      <trkpt lat="45.82859" lon="1.92741">
        <ele>767.3</ele>
        <time>2026-07-07T10:39:11.000Z</time>
      </trkpt>
      <trkpt lat="45.82859" lon="1.92741">
        <ele>767.3</ele>
        <time>2026-07-07T10:39:12.000Z</time>
      </trkpt>
      <trkpt lat="45.82859" lon="1.92741">
        <ele>767.3</ele>
        <time>2026-07-07T10:39:13.000Z</time>
      </trkpt>
      <trkpt lat="45.82859" lon="1.92741">
        <ele>767.3</ele>
        <time>2026-07-07T10:39:14.000Z</time>
      </trkpt>
      <trkpt lat="45.82859" lon="1.92741">
        <ele>767.3</ele>
        <time>2026-07-07T10:39:15.000Z</time>
      </trkpt>
      <trkpt lat="45.82859" lon="1.92741">
        <ele>767.3</ele>
        <time>2026-07-07T10:39:16.000Z</time>
      </trkpt>
      <trkpt lat="45.82859" lon="1.92741">
        <ele>767.3</ele>
        <time>2026-07-07T10:39:17.000Z</time>
      </trkpt>
      <trkpt lat="45.82859" lon="1.92741">
        <ele>767.3</ele>
        <time>2026-07-07T10:39:18.000Z</time>
      </trkpt>
      <trkpt lat="45.82859" lon="1.92741">
        <ele>767.3</ele>
        <time>2026-07-07T10:39:19.000Z</time>
      </trkpt>
      <trkpt lat="45.82859" lon="1.92741">
        <ele>767.2</ele>
        <time>2026-07-07T10:39:20.000Z</time>
      </trkpt>
      <trkpt lat="45.82859" lon="1.92741">
        <ele>767.2</ele>
        <time>2026-07-07T10:39:21.000Z</time>
      </trkpt>
      <trkpt lat="45.82859" lon="1.92741">
        <ele>767.2</ele>
        <time>2026-07-07T10:39:22.000Z</time>
      </trkpt>
      <trkpt lat="45.82859" lon="1.92741">
        <ele>767.2</ele>
        <time>2026-07-07T10:39:23.000Z</time>
      </trkpt>
      <trkpt lat="45.82859" lon="1.92741">
        <ele>767.2</ele>
        <time>2026-07-07T10:39:24.000Z</time>
      </trkpt>
      <trkpt lat="45.82859" lon="1.92741">
        <ele>767.2</ele>
        <time>2026-07-07T10:39:25.000Z</time>
      </trkpt>
      <trkpt lat="45.82859" lon="1.92741">
        <ele>767.2</ele>
        <time>2026-07-07T10:39:26.000Z</time>
      </trkpt>
      <trkpt lat="45.82859" lon="1.92741">
        <ele>767.2</ele>
        <time>2026-07-07T10:39:27.000Z</time>
      </trkpt>
      <trkpt lat="45.82859" lon="1.92741">
        <ele>767.2</ele>
        <time>2026-07-07T10:39:28.000Z</time>
      </trkpt>
      <trkpt lat="45.82859" lon="1.92741">
        <ele>767.2</ele>
        <time>2026-07-07T10:39:29.000Z</time>
      </trkpt>
      <trkpt lat="45.82859" lon="1.92741">
        <ele>767.2</ele>
        <time>2026-07-07T10:39:30.000Z</time>
      </trkpt>
      <trkpt lat="45.82859" lon="1.92741">
        <ele>767.2</ele>
        <time>2026-07-07T10:39:31.000Z</time>
      </trkpt>
      <trkpt lat="45.82859" lon="1.92741">
        <ele>767.2</ele>
        <time>2026-07-07T10:39:32.000Z</time>
      </trkpt>
      <trkpt lat="45.82859" lon="1.92741">
        <ele>767.2</ele>
        <time>2026-07-07T10:39:33.000Z</time>
      </trkpt>
      <trkpt lat="45.82859" lon="1.92741">
        <ele>767.2</ele>
        <time>2026-07-07T10:39:34.000Z</time>
      </trkpt>
      <trkpt lat="45.82859" lon="1.92741">
        <ele>767.2</ele>
        <time>2026-07-07T10:39:35.000Z</time>
      </trkpt>
      <trkpt lat="45.82859" lon="1.92741">
        <ele>767.2</ele>
        <time>2026-07-07T10:39:36.000Z</time>
      </trkpt>
      <trkpt lat="45.82859" lon="1.92741">
        <ele>767.2</ele>
        <time>2026-07-07T10:39:37.000Z</time>
      </trkpt>
      <trkpt lat="45.82859" lon="1.92741">
        <ele>767.2</ele>
        <time>2026-07-07T10:39:38.000Z</time>
      </trkpt>
      <trkpt lat="45.82859" lon="1.92741">
        <ele>767.2</ele>
        <time>2026-07-07T10:39:39.000Z</time>
      </trkpt>
      <trkpt lat="45.82859" lon="1.92741">
        <ele>767.2</ele>
        <time>2026-07-07T10:39:40.000Z</time>
      </trkpt>
      <trkpt lat="45.82859" lon="1.92741">
        <ele>767.2</ele>
        <time>2026-07-07T10:39:41.000Z</time>
      </trkpt>
      <trkpt lat="45.82859" lon="1.92741">
        <ele>767.2</ele>
        <time>2026-07-07T10:39:42.000Z</time>
      </trkpt>
      <trkpt lat="45.82858" lon="1.92741">
        <ele>767.3</ele>
        <time>2026-07-07T10:39:43.000Z</time>
      </trkpt>
      <trkpt lat="45.82858" lon="1.9274">
        <ele>767.3</ele>
        <time>2026-07-07T10:39:44.000Z</time>
      </trkpt>
      <trkpt lat="45.82858" lon="1.9274">
        <ele>767.4</ele>
        <time>2026-07-07T10:39:45.000Z</time>
      </trkpt>
      <trkpt lat="45.82858" lon="1.9274">
        <ele>767.4</ele>
        <time>2026-07-07T10:39:46.000Z</time>
      </trkpt>
      <trkpt lat="45.82858" lon="1.92739">
        <ele>767.7</ele>
        <time>2026-07-07T10:39:47.000Z</time>
      </trkpt>
      <trkpt lat="45.82859" lon="1.9274">
        <ele>767.9</ele>
        <time>2026-07-07T10:39:48.000Z</time>
      </trkpt>
      <trkpt lat="45.82859" lon="1.92739">
        <ele>767.9</ele>
        <time>2026-07-07T10:39:49.000Z</time>
      </trkpt>
      <trkpt lat="45.82859" lon="1.92739">
        <ele>767.9</ele>
        <time>2026-07-07T10:39:50.000Z</time>
      </trkpt>
      <trkpt lat="45.82859" lon="1.92739">
        <ele>767.9</ele>
        <time>2026-07-07T10:39:51.000Z</time>
      </trkpt>
      <trkpt lat="45.82859" lon="1.92739">
        <ele>767.9</ele>
        <time>2026-07-07T10:39:52.000Z</time>
      </trkpt>
      <trkpt lat="45.82859" lon="1.92739">
        <ele>767.9</ele>
        <time>2026-07-07T10:39:53.000Z</time>
      </trkpt>
      <trkpt lat="45.82859" lon="1.92739">
        <ele>767.9</ele>
        <time>2026-07-07T10:39:54.000Z</time>
      </trkpt>
      <trkpt lat="45.82859" lon="1.92739">
        <ele>767.9</ele>
        <time>2026-07-07T10:39:55.000Z</time>
      </trkpt>
      <trkpt lat="45.82859" lon="1.92739">
        <ele>767.9</ele>
        <time>2026-07-07T10:39:56.000Z</time>
      </trkpt>
      <trkpt lat="45.82859" lon="1.9274">
        <ele>768.3</ele>
        <time>2026-07-07T10:39:57.000Z</time>
      </trkpt>
      <trkpt lat="45.82859" lon="1.9274">
        <ele>768.3</ele>
        <time>2026-07-07T10:39:58.000Z</time>
      </trkpt>
      <trkpt lat="45.82859" lon="1.9274">
        <ele>768.3</ele>
        <time>2026-07-07T10:39:59.000Z</time>
      </trkpt>
      <trkpt lat="45.82859" lon="1.9274">
        <ele>768.3</ele>
        <time>2026-07-07T10:40:00.000Z</time>
      </trkpt>
      <trkpt lat="45.82859" lon="1.9274">
        <ele>768.3</ele>
        <time>2026-07-07T10:40:01.000Z</time>
      </trkpt>
      <trkpt lat="45.82859" lon="1.9274">
        <ele>768.3</ele>
        <time>2026-07-07T10:40:02.000Z</time>
      </trkpt>
      <trkpt lat="45.82859" lon="1.9274">
        <ele>768.3</ele>
        <time>2026-07-07T10:40:03.000Z</time>
      </trkpt>
      <trkpt lat="45.82859" lon="1.9274">
        <ele>768.3</ele>
        <time>2026-07-07T10:40:04.000Z</time>
      </trkpt>
      <trkpt lat="45.82859" lon="1.9274">
        <ele>768.3</ele>
        <time>2026-07-07T10:40:05.000Z</time>
      </trkpt>
      <trkpt lat="45.82859" lon="1.9274">
        <ele>768.3</ele>
        <time>2026-07-07T10:40:06.000Z</time>
      </trkpt>
      <trkpt lat="45.82859" lon="1.9274">
        <ele>768.3</ele>
        <time>2026-07-07T10:40:07.000Z</time>
      </trkpt>
      <trkpt lat="45.82859" lon="1.9274">
        <ele>768.3</ele>
        <time>2026-07-07T10:40:08.000Z</time>
      </trkpt>
      <trkpt lat="45.82859" lon="1.9274">
        <ele>768.3</ele>
        <time>2026-07-07T10:40:09.000Z</time>
      </trkpt>
      <trkpt lat="45.82859" lon="1.9274">
        <ele>768.3</ele>
        <time>2026-07-07T10:40:10.000Z</time>
      </trkpt>
      <trkpt lat="45.82859" lon="1.9274">
        <ele>768.3</ele>
        <time>2026-07-07T10:40:11.000Z</time>
      </trkpt>
      <trkpt lat="45.82859" lon="1.9274">
        <ele>768.2</ele>
        <time>2026-07-07T10:40:12.000Z</time>
      </trkpt>
      <trkpt lat="45.82859" lon="1.9274">
        <ele>768.2</ele>
        <time>2026-07-07T10:40:13.000Z</time>
      </trkpt>
      <trkpt lat="45.82859" lon="1.9274">
        <ele>768.2</ele>
        <time>2026-07-07T10:40:14.000Z</time>
      </trkpt>
      <trkpt lat="45.82859" lon="1.9274">
        <ele>768.2</ele>
        <time>2026-07-07T10:40:15.000Z</time>
      </trkpt>
      <trkpt lat="45.82859" lon="1.9274">
        <ele>768.2</ele>
        <time>2026-07-07T10:40:16.000Z</time>
      </trkpt>
      <trkpt lat="45.82859" lon="1.9274">
        <ele>768.2</ele>
        <time>2026-07-07T10:40:17.000Z</time>
      </trkpt>
      <trkpt lat="45.82859" lon="1.9274">
        <ele>768.2</ele>
        <time>2026-07-07T10:40:18.000Z</time>
      </trkpt>
      <trkpt lat="45.82859" lon="1.9274">
        <ele>768.2</ele>
        <time>2026-07-07T10:40:19.000Z</time>
      </trkpt>
      <trkpt lat="45.82859" lon="1.9274">
        <ele>768.6</ele>
        <time>2026-07-07T10:40:20.000Z</time>
      </trkpt>
      <trkpt lat="45.82859" lon="1.9274">
        <ele>768.6</ele>
        <time>2026-07-07T10:40:21.000Z</time>
      </trkpt>
      <trkpt lat="45.82859" lon="1.9274">
        <ele>768.6</ele>
        <time>2026-07-07T10:40:22.000Z</time>
      </trkpt>
      <trkpt lat="45.82859" lon="1.9274">
        <ele>768.6</ele>
        <time>2026-07-07T10:40:23.000Z</time>
      </trkpt>
      <trkpt lat="45.82859" lon="1.92741">
        <ele>769.4</ele>
        <time>2026-07-07T10:40:24.000Z</time>
      </trkpt>
      <trkpt lat="45.82859" lon="1.92741">
        <ele>768.6</ele>
        <time>2026-07-07T10:40:25.000Z</time>
      </trkpt>
      <trkpt lat="45.82859" lon="1.92741">
        <ele>768.6</ele>
        <time>2026-07-07T10:40:26.000Z</time>
      </trkpt>
      <trkpt lat="45.82859" lon="1.92741">
        <ele>768.6</ele>
        <time>2026-07-07T10:40:27.000Z</time>
      </trkpt>
      <trkpt lat="45.82859" lon="1.92741">
        <ele>768.6</ele>
        <time>2026-07-07T10:40:28.000Z</time>
      </trkpt>
      <trkpt lat="45.82859" lon="1.92741">
        <ele>768.6</ele>
        <time>2026-07-07T10:40:29.000Z</time>
      </trkpt>
      <trkpt lat="45.82859" lon="1.92741">
        <ele>768.6</ele>
        <time>2026-07-07T10:40:30.000Z</time>
      </trkpt>
      <trkpt lat="45.82859" lon="1.92741">
        <ele>768.6</ele>
        <time>2026-07-07T10:40:31.000Z</time>
      </trkpt>
      <trkpt lat="45.82859" lon="1.92741">
        <ele>768.6</ele>
        <time>2026-07-07T10:40:32.000Z</time>
      </trkpt>
      <trkpt lat="45.82859" lon="1.92741">
        <ele>768.6</ele>
        <time>2026-07-07T10:40:33.000Z</time>
      </trkpt>
      <trkpt lat="45.82859" lon="1.92741">
        <ele>768.6</ele>
        <time>2026-07-07T10:40:34.000Z</time>
      </trkpt>
      <trkpt lat="45.82859" lon="1.92741">
        <ele>768.6</ele>
        <time>2026-07-07T10:40:35.000Z</time>
      </trkpt>
      <trkpt lat="45.82859" lon="1.92741">
        <ele>768.6</ele>
        <time>2026-07-07T10:40:36.000Z</time>
      </trkpt>
      <trkpt lat="45.82859" lon="1.92741">
        <ele>768.6</ele>
        <time>2026-07-07T10:40:37.000Z</time>
      </trkpt>
      <trkpt lat="45.82859" lon="1.92741">
        <ele>768.6</ele>
        <time>2026-07-07T10:40:38.000Z</time>
      </trkpt>
      <trkpt lat="45.82859" lon="1.92741">
        <ele>768.6</ele>
        <time>2026-07-07T10:40:39.000Z</time>
      </trkpt>
      <trkpt lat="45.82859" lon="1.92741">
        <ele>768.6</ele>
        <time>2026-07-07T10:40:40.000Z</time>
      </trkpt>
      <trkpt lat="45.82859" lon="1.92741">
        <ele>768.6</ele>
        <time>2026-07-07T10:40:41.000Z</time>
      </trkpt>
      <trkpt lat="45.82859" lon="1.92741">
        <ele>768.6</ele>
        <time>2026-07-07T10:40:42.000Z</time>
      </trkpt>
      <trkpt lat="45.82859" lon="1.92741">
        <ele>768.6</ele>
        <time>2026-07-07T10:40:43.000Z</time>
      </trkpt>
      <trkpt lat="45.82859" lon="1.92741">
        <ele>768.6</ele>
        <time>2026-07-07T10:40:44.000Z</time>
      </trkpt>
      <trkpt lat="45.82859" lon="1.92741">
        <ele>768.6</ele>
        <time>2026-07-07T10:40:45.000Z</time>
      </trkpt>
      <trkpt lat="45.82859" lon="1.92741">
        <ele>768.6</ele>
        <time>2026-07-07T10:40:46.000Z</time>
      </trkpt>
      <trkpt lat="45.82859" lon="1.92741">
        <ele>768.6</ele>
        <time>2026-07-07T10:40:47.000Z</time>
      </trkpt>
      <trkpt lat="45.82859" lon="1.92741">
        <ele>768.6</ele>
        <time>2026-07-07T10:40:48.000Z</time>
      </trkpt>
      <trkpt lat="45.82859" lon="1.92741">
        <ele>768.6</ele>
        <time>2026-07-07T10:40:49.000Z</time>
      </trkpt>
      <trkpt lat="45.82859" lon="1.92741">
        <ele>768.6</ele>
        <time>2026-07-07T10:40:50.000Z</time>
      </trkpt>
      <trkpt lat="45.82859" lon="1.92741">
        <ele>768.6</ele>
        <time>2026-07-07T10:40:51.000Z</time>
      </trkpt>
      <trkpt lat="45.82859" lon="1.92741">
        <ele>768.6</ele>
        <time>2026-07-07T10:40:52.000Z</time>
      </trkpt>
      <trkpt lat="45.82859" lon="1.92741">
        <ele>768.6</ele>
        <time>2026-07-07T10:40:53.000Z</time>
      </trkpt>
      <trkpt lat="45.82859" lon="1.92741">
        <ele>768.6</ele>
        <time>2026-07-07T10:40:54.000Z</time>
      </trkpt>
      <trkpt lat="45.82859" lon="1.92741">
        <ele>768.6</ele>
        <time>2026-07-07T10:40:55.000Z</time>
      </trkpt>
      <trkpt lat="45.82859" lon="1.92741">
        <ele>768.6</ele>
        <time>2026-07-07T10:40:56.000Z</time>
      </trkpt>
      <trkpt lat="45.82858" lon="1.92741">
        <ele>768.6</ele>
        <time>2026-07-07T10:40:57.000Z</time>
      </trkpt>
      <trkpt lat="45.82858" lon="1.92741">
        <ele>768.6</ele>
        <time>2026-07-07T10:40:58.000Z</time>
      </trkpt>
      <trkpt lat="45.82858" lon="1.92741">
        <ele>768.6</ele>
        <time>2026-07-07T10:40:59.000Z</time>
      </trkpt>
      <trkpt lat="45.82858" lon="1.92741">
        <ele>768.6</ele>
        <time>2026-07-07T10:41:00.000Z</time>
      </trkpt>
      <trkpt lat="45.82858" lon="1.92741">
        <ele>768.7</ele>
        <time>2026-07-07T10:41:01.000Z</time>
      </trkpt>
      <trkpt lat="45.82858" lon="1.92741">
        <ele>768.7</ele>
        <time>2026-07-07T10:41:02.000Z</time>
      </trkpt>
      <trkpt lat="45.82858" lon="1.92741">
        <ele>768.7</ele>
        <time>2026-07-07T10:41:03.000Z</time>
      </trkpt>
      <trkpt lat="45.82858" lon="1.92741">
        <ele>768.7</ele>
        <time>2026-07-07T10:41:04.000Z</time>
      </trkpt>
      <trkpt lat="45.82858" lon="1.92741">
        <ele>768.7</ele>
        <time>2026-07-07T10:41:05.000Z</time>
      </trkpt>
      <trkpt lat="45.82858" lon="1.92741">
        <ele>768.7</ele>
        <time>2026-07-07T10:41:06.000Z</time>
      </trkpt>
      <trkpt lat="45.82859" lon="1.92741">
        <ele>768.7</ele>
        <time>2026-07-07T10:41:07.000Z</time>
      </trkpt>
      <trkpt lat="45.82859" lon="1.92741">
        <ele>768.7</ele>
        <time>2026-07-07T10:41:08.000Z</time>
      </trkpt>
      <trkpt lat="45.82859" lon="1.92741">
        <ele>768.7</ele>
        <time>2026-07-07T10:41:09.000Z</time>
      </trkpt>
      <trkpt lat="45.82859" lon="1.92741">
        <ele>768.7</ele>
        <time>2026-07-07T10:41:10.000Z</time>
      </trkpt>
      <trkpt lat="45.82859" lon="1.92741">
        <ele>768.7</ele>
        <time>2026-07-07T10:41:11.000Z</time>
      </trkpt>
      <trkpt lat="45.82859" lon="1.92741">
        <ele>768.7</ele>
        <time>2026-07-07T10:41:12.000Z</time>
      </trkpt>
      <trkpt lat="45.82859" lon="1.92741">
        <ele>768.7</ele>
        <time>2026-07-07T10:41:13.000Z</time>
      </trkpt>
      <trkpt lat="45.82859" lon="1.92741">
        <ele>768.8</ele>
        <time>2026-07-07T10:41:14.000Z</time>
      </trkpt>
      <trkpt lat="45.82859" lon="1.92741">
        <ele>768.8</ele>
        <time>2026-07-07T10:41:15.000Z</time>
      </trkpt>
      <trkpt lat="45.82859" lon="1.92741">
        <ele>768.8</ele>
        <time>2026-07-07T10:41:16.000Z</time>
      </trkpt>
      <trkpt lat="45.82859" lon="1.92741">
        <ele>768.8</ele>
        <time>2026-07-07T10:41:17.000Z</time>
      </trkpt>
      <trkpt lat="45.82859" lon="1.92741">
        <ele>768.8</ele>
        <time>2026-07-07T10:41:18.000Z</time>
      </trkpt>
      <trkpt lat="45.82859" lon="1.92741">
        <ele>768.8</ele>
        <time>2026-07-07T10:41:19.000Z</time>
      </trkpt>
      <trkpt lat="45.82859" lon="1.92741">
        <ele>768.8</ele>
        <time>2026-07-07T10:41:20.000Z</time>
      </trkpt>
      <trkpt lat="45.82859" lon="1.92741">
        <ele>768.8</ele>
        <time>2026-07-07T10:41:21.000Z</time>
      </trkpt>
      <trkpt lat="45.82859" lon="1.92741">
        <ele>768.8</ele>
        <time>2026-07-07T10:41:22.000Z</time>
      </trkpt>
      <trkpt lat="45.82859" lon="1.92741">
        <ele>768.8</ele>
        <time>2026-07-07T10:41:23.000Z</time>
      </trkpt>
      <trkpt lat="45.82859" lon="1.92741">
        <ele>768.9</ele>
        <time>2026-07-07T10:41:24.000Z</time>
      </trkpt>
      <trkpt lat="45.82859" lon="1.92741">
        <ele>768.9</ele>
        <time>2026-07-07T10:41:25.000Z</time>
      </trkpt>
      <trkpt lat="45.82859" lon="1.92741">
        <ele>768.9</ele>
        <time>2026-07-07T10:41:26.000Z</time>
      </trkpt>
      <trkpt lat="45.82859" lon="1.92741">
        <ele>768.9</ele>
        <time>2026-07-07T10:41:27.000Z</time>
      </trkpt>
      <trkpt lat="45.82859" lon="1.92741">
        <ele>768.9</ele>
        <time>2026-07-07T10:41:28.000Z</time>
      </trkpt>
      <trkpt lat="45.82859" lon="1.92741">
        <ele>768.9</ele>
        <time>2026-07-07T10:41:29.000Z</time>
      </trkpt>
      <trkpt lat="45.82859" lon="1.92741">
        <ele>768.9</ele>
        <time>2026-07-07T10:41:30.000Z</time>
      </trkpt>
      <trkpt lat="45.82859" lon="1.92741">
        <ele>768.9</ele>
        <time>2026-07-07T10:41:31.000Z</time>
      </trkpt>
      <trkpt lat="45.82859" lon="1.92741">
        <ele>768.9</ele>
        <time>2026-07-07T10:41:32.000Z</time>
      </trkpt>
      <trkpt lat="45.82859" lon="1.92741">
        <ele>768.9</ele>
        <time>2026-07-07T10:41:33.000Z</time>
      </trkpt>
      <trkpt lat="45.82859" lon="1.92741">
        <ele>768.9</ele>
        <time>2026-07-07T10:41:34.000Z</time>
      </trkpt>
      <trkpt lat="45.82859" lon="1.92741">
        <ele>768.9</ele>
        <time>2026-07-07T10:41:35.000Z</time>
      </trkpt>
      <trkpt lat="45.82859" lon="1.92741">
        <ele>768.9</ele>
        <time>2026-07-07T10:41:36.000Z</time>
      </trkpt>
      <trkpt lat="45.82859" lon="1.92741">
        <ele>768.9</ele>
        <time>2026-07-07T10:41:37.000Z</time>
      </trkpt>
      <trkpt lat="45.82859" lon="1.92741">
        <ele>768.9</ele>
        <time>2026-07-07T10:41:38.000Z</time>
      </trkpt>
      <trkpt lat="45.82859" lon="1.92741">
        <ele>768.9</ele>
        <time>2026-07-07T10:41:39.000Z</time>
      </trkpt>
      <trkpt lat="45.82859" lon="1.92741">
        <ele>768.9</ele>
        <time>2026-07-07T10:41:40.000Z</time>
      </trkpt>
      <trkpt lat="45.82859" lon="1.92741">
        <ele>769</ele>
        <time>2026-07-07T10:41:41.000Z</time>
      </trkpt>
      <trkpt lat="45.82859" lon="1.92741">
        <ele>769</ele>
        <time>2026-07-07T10:41:42.000Z</time>
      </trkpt>
      <trkpt lat="45.82859" lon="1.92741">
        <ele>769</ele>
        <time>2026-07-07T10:41:43.000Z</time>
      </trkpt>
      <trkpt lat="45.82859" lon="1.92741">
        <ele>769</ele>
        <time>2026-07-07T10:41:44.000Z</time>
      </trkpt>
      <trkpt lat="45.82859" lon="1.92741">
        <ele>769</ele>
        <time>2026-07-07T10:41:45.000Z</time>
      </trkpt>
      <trkpt lat="45.82859" lon="1.92741">
        <ele>769</ele>
        <time>2026-07-07T10:41:46.000Z</time>
      </trkpt>
      <trkpt lat="45.82859" lon="1.92741">
        <ele>769</ele>
        <time>2026-07-07T10:41:47.000Z</time>
      </trkpt>
      <trkpt lat="45.82859" lon="1.92741">
        <ele>769</ele>
        <time>2026-07-07T10:41:48.000Z</time>
      </trkpt>
      <trkpt lat="45.82859" lon="1.92741">
        <ele>769</ele>
        <time>2026-07-07T10:41:49.000Z</time>
      </trkpt>
      <trkpt lat="45.82859" lon="1.92741">
        <ele>769</ele>
        <time>2026-07-07T10:41:50.000Z</time>
      </trkpt>
      <trkpt lat="45.82859" lon="1.92741">
        <ele>769</ele>
        <time>2026-07-07T10:41:51.000Z</time>
      </trkpt>
      <trkpt lat="45.82859" lon="1.92741">
        <ele>769</ele>
        <time>2026-07-07T10:41:52.000Z</time>
      </trkpt>
      <trkpt lat="45.82859" lon="1.92741">
        <ele>769</ele>
        <time>2026-07-07T10:41:53.000Z</time>
      </trkpt>
      <trkpt lat="45.82859" lon="1.92741">
        <ele>769</ele>
        <time>2026-07-07T10:41:54.000Z</time>
      </trkpt>
      <trkpt lat="45.82859" lon="1.92741">
        <ele>769</ele>
        <time>2026-07-07T10:41:55.000Z</time>
      </trkpt>
      <trkpt lat="45.82859" lon="1.92741">
        <ele>769</ele>
        <time>2026-07-07T10:41:56.000Z</time>
      </trkpt>
      <trkpt lat="45.82859" lon="1.92741">
        <ele>769</ele>
        <time>2026-07-07T10:41:57.000Z</time>
      </trkpt>
      <trkpt lat="45.82859" lon="1.92741">
        <ele>769</ele>
        <time>2026-07-07T10:41:58.000Z</time>
      </trkpt>
      <trkpt lat="45.82859" lon="1.92741">
        <ele>769</ele>
        <time>2026-07-07T10:41:59.000Z</time>
      </trkpt>
      <trkpt lat="45.82859" lon="1.92741">
        <ele>769</ele>
        <time>2026-07-07T10:42:00.000Z</time>
      </trkpt>
      <trkpt lat="45.82859" lon="1.92741">
        <ele>769</ele>
        <time>2026-07-07T10:42:01.000Z</time>
      </trkpt>
      <trkpt lat="45.82859" lon="1.92741">
        <ele>769</ele>
        <time>2026-07-07T10:42:02.000Z</time>
      </trkpt>
      <trkpt lat="45.82859" lon="1.92741">
        <ele>769</ele>
        <time>2026-07-07T10:42:03.000Z</time>
      </trkpt>
      <trkpt lat="45.82859" lon="1.92741">
        <ele>769</ele>
        <time>2026-07-07T10:42:04.000Z</time>
      </trkpt>
      <trkpt lat="45.82859" lon="1.92741">
        <ele>769.1</ele>
        <time>2026-07-07T10:42:05.000Z</time>
      </trkpt>
      <trkpt lat="45.82859" lon="1.92741">
        <ele>769.1</ele>
        <time>2026-07-07T10:42:06.000Z</time>
      </trkpt>
      <trkpt lat="45.82859" lon="1.92741">
        <ele>769.1</ele>
        <time>2026-07-07T10:42:07.000Z</time>
      </trkpt>
      <trkpt lat="45.82859" lon="1.92741">
        <ele>769.1</ele>
        <time>2026-07-07T10:42:08.000Z</time>
      </trkpt>
      <trkpt lat="45.82859" lon="1.92741">
        <ele>769.1</ele>
        <time>2026-07-07T10:42:09.000Z</time>
      </trkpt>
      <trkpt lat="45.82858" lon="1.92741">
        <ele>769.1</ele>
        <time>2026-07-07T10:42:10.000Z</time>
      </trkpt>
      <trkpt lat="45.82858" lon="1.92741">
        <ele>769.1</ele>
        <time>2026-07-07T10:42:11.000Z</time>
      </trkpt>
      <trkpt lat="45.82858" lon="1.92741">
        <ele>769.1</ele>
        <time>2026-07-07T10:42:12.000Z</time>
      </trkpt>
      <trkpt lat="45.82858" lon="1.92741">
        <ele>769.1</ele>
        <time>2026-07-07T10:42:13.000Z</time>
      </trkpt>
      <trkpt lat="45.82858" lon="1.92741">
        <ele>769.1</ele>
        <time>2026-07-07T10:42:14.000Z</time>
      </trkpt>
      <trkpt lat="45.82858" lon="1.92741">
        <ele>769.1</ele>
        <time>2026-07-07T10:42:15.000Z</time>
      </trkpt>
      <trkpt lat="45.82858" lon="1.92741">
        <ele>769.2</ele>
        <time>2026-07-07T10:42:16.000Z</time>
      </trkpt>
      <trkpt lat="45.82858" lon="1.92741">
        <ele>769.2</ele>
        <time>2026-07-07T10:42:17.000Z</time>
      </trkpt>
      <trkpt lat="45.82858" lon="1.92741">
        <ele>769.2</ele>
        <time>2026-07-07T10:42:18.000Z</time>
      </trkpt>
      <trkpt lat="45.82858" lon="1.92742">
        <ele>769.2</ele>
        <time>2026-07-07T10:42:19.000Z</time>
      </trkpt>
      <trkpt lat="45.82858" lon="1.92742">
        <ele>769.2</ele>
        <time>2026-07-07T10:42:20.000Z</time>
      </trkpt>
      <trkpt lat="45.82858" lon="1.92742">
        <ele>769.2</ele>
        <time>2026-07-07T10:42:21.000Z</time>
      </trkpt>
      <trkpt lat="45.82858" lon="1.92742">
        <ele>769.2</ele>
        <time>2026-07-07T10:42:22.000Z</time>
      </trkpt>
      <trkpt lat="45.82858" lon="1.92741">
        <ele>769.2</ele>
        <time>2026-07-07T10:42:23.000Z</time>
      </trkpt>
      <trkpt lat="45.82858" lon="1.92741">
        <ele>769.2</ele>
        <time>2026-07-07T10:42:24.000Z</time>
      </trkpt>
      <trkpt lat="45.82858" lon="1.92741">
        <ele>769.2</ele>
        <time>2026-07-07T10:42:25.000Z</time>
      </trkpt>
      <trkpt lat="45.82858" lon="1.92741">
        <ele>769.2</ele>
        <time>2026-07-07T10:42:26.000Z</time>
      </trkpt>
      <trkpt lat="45.82858" lon="1.92741">
        <ele>769.2</ele>
        <time>2026-07-07T10:42:27.000Z</time>
      </trkpt>
      <trkpt lat="45.82858" lon="1.92741">
        <ele>769.2</ele>
        <time>2026-07-07T10:42:28.000Z</time>
      </trkpt>
      <trkpt lat="45.82858" lon="1.92741">
        <ele>769.2</ele>
        <time>2026-07-07T10:42:29.000Z</time>
      </trkpt>
      <trkpt lat="45.82858" lon="1.92741">
        <ele>769.2</ele>
        <time>2026-07-07T10:42:30.000Z</time>
      </trkpt>
      <trkpt lat="45.82858" lon="1.92741">
        <ele>769.2</ele>
        <time>2026-07-07T10:42:31.000Z</time>
      </trkpt>
      <trkpt lat="45.82858" lon="1.92741">
        <ele>769.2</ele>
        <time>2026-07-07T10:42:32.000Z</time>
      </trkpt>
      <trkpt lat="45.82858" lon="1.92741">
        <ele>769.2</ele>
        <time>2026-07-07T10:42:33.000Z</time>
      </trkpt>
      <trkpt lat="45.82858" lon="1.92741">
        <ele>769.2</ele>
        <time>2026-07-07T10:42:34.000Z</time>
      </trkpt>
      <trkpt lat="45.82858" lon="1.92742">
        <ele>769.2</ele>
        <time>2026-07-07T10:42:35.000Z</time>
      </trkpt>
      <trkpt lat="45.82858" lon="1.92742">
        <ele>769.2</ele>
        <time>2026-07-07T10:42:36.000Z</time>
      </trkpt>
      <trkpt lat="45.82858" lon="1.92742">
        <ele>769.2</ele>
        <time>2026-07-07T10:42:37.000Z</time>
      </trkpt>
      <trkpt lat="45.82858" lon="1.92742">
        <ele>769.2</ele>
        <time>2026-07-07T10:42:38.000Z</time>
      </trkpt>
      <trkpt lat="45.82858" lon="1.92742">
        <ele>769.2</ele>
        <time>2026-07-07T10:42:39.000Z</time>
      </trkpt>
      <trkpt lat="45.82858" lon="1.92742">
        <ele>769.2</ele>
        <time>2026-07-07T10:42:40.000Z</time>
      </trkpt>
      <trkpt lat="45.82858" lon="1.92742">
        <ele>769.2</ele>
        <time>2026-07-07T10:42:41.000Z</time>
      </trkpt>
      <trkpt lat="45.82858" lon="1.92742">
        <ele>769.2</ele>
        <time>2026-07-07T10:42:42.000Z</time>
      </trkpt>
      <trkpt lat="45.82858" lon="1.92742">
        <ele>769.2</ele>
        <time>2026-07-07T10:42:43.000Z</time>
      </trkpt>
      <trkpt lat="45.82858" lon="1.92742">
        <ele>769.2</ele>
        <time>2026-07-07T10:42:44.000Z</time>
      </trkpt>
      <trkpt lat="45.82858" lon="1.92742">
        <ele>769.2</ele>
        <time>2026-07-07T10:42:45.000Z</time>
      </trkpt>
      <trkpt lat="45.82858" lon="1.92742">
        <ele>769.2</ele>
        <time>2026-07-07T10:42:46.000Z</time>
      </trkpt>
      <trkpt lat="45.82858" lon="1.92742">
        <ele>769.2</ele>
        <time>2026-07-07T10:42:47.000Z</time>
      </trkpt>
      <trkpt lat="45.82858" lon="1.92742">
        <ele>769.3</ele>
        <time>2026-07-07T10:42:48.000Z</time>
      </trkpt>
      <trkpt lat="45.82858" lon="1.92742">
        <ele>769.3</ele>
        <time>2026-07-07T10:42:49.000Z</time>
      </trkpt>
      <trkpt lat="45.82858" lon="1.92742">
        <ele>769.3</ele>
        <time>2026-07-07T10:42:50.000Z</time>
      </trkpt>
      <trkpt lat="45.82858" lon="1.92742">
        <ele>769.3</ele>
        <time>2026-07-07T10:42:51.000Z</time>
      </trkpt>
      <trkpt lat="45.82859" lon="1.92742">
        <ele>769.3</ele>
        <time>2026-07-07T10:42:52.000Z</time>
      </trkpt>
      <trkpt lat="45.82859" lon="1.92742">
        <ele>769.3</ele>
        <time>2026-07-07T10:42:53.000Z</time>
      </trkpt>
      <trkpt lat="45.82859" lon="1.92742">
        <ele>769.3</ele>
        <time>2026-07-07T10:42:54.000Z</time>
      </trkpt>
      <trkpt lat="45.82859" lon="1.92742">
        <ele>769.4</ele>
        <time>2026-07-07T10:42:55.000Z</time>
      </trkpt>
      <trkpt lat="45.82859" lon="1.92742">
        <ele>769.4</ele>
        <time>2026-07-07T10:42:56.000Z</time>
      </trkpt>
      <trkpt lat="45.82859" lon="1.92742">
        <ele>769.4</ele>
        <time>2026-07-07T10:42:57.000Z</time>
      </trkpt>
      <trkpt lat="45.82859" lon="1.92742">
        <ele>769.4</ele>
        <time>2026-07-07T10:42:58.000Z</time>
      </trkpt>
      <trkpt lat="45.82859" lon="1.92742">
        <ele>769.4</ele>
        <time>2026-07-07T10:42:59.000Z</time>
      </trkpt>
      <trkpt lat="45.82859" lon="1.92742">
        <ele>769.4</ele>
        <time>2026-07-07T10:43:00.000Z</time>
      </trkpt>
      <trkpt lat="45.82859" lon="1.92742">
        <ele>769.4</ele>
        <time>2026-07-07T10:43:01.000Z</time>
      </trkpt>
      <trkpt lat="45.82859" lon="1.92742">
        <ele>769.4</ele>
        <time>2026-07-07T10:43:02.000Z</time>
      </trkpt>
      <trkpt lat="45.82859" lon="1.92742">
        <ele>769.4</ele>
        <time>2026-07-07T10:43:03.000Z</time>
      </trkpt>
      <trkpt lat="45.82859" lon="1.92742">
        <ele>769.4</ele>
        <time>2026-07-07T10:43:04.000Z</time>
      </trkpt>
      <trkpt lat="45.82859" lon="1.92742">
        <ele>769.4</ele>
        <time>2026-07-07T10:43:05.000Z</time>
      </trkpt>
      <trkpt lat="45.82859" lon="1.92742">
        <ele>769.4</ele>
        <time>2026-07-07T10:43:06.000Z</time>
      </trkpt>
      <trkpt lat="45.82859" lon="1.92742">
        <ele>769.5</ele>
        <time>2026-07-07T10:43:07.000Z</time>
      </trkpt>
      <trkpt lat="45.82859" lon="1.92742">
        <ele>769.5</ele>
        <time>2026-07-07T10:43:08.000Z</time>
      </trkpt>
      <trkpt lat="45.82859" lon="1.92742">
        <ele>769.5</ele>
        <time>2026-07-07T10:43:09.000Z</time>
      </trkpt>
      <trkpt lat="45.82859" lon="1.92742">
        <ele>769.5</ele>
        <time>2026-07-07T10:43:10.000Z</time>
      </trkpt>
      <trkpt lat="45.82859" lon="1.92742">
        <ele>769.5</ele>
        <time>2026-07-07T10:43:11.000Z</time>
      </trkpt>
      <trkpt lat="45.82859" lon="1.92742">
        <ele>769.5</ele>
        <time>2026-07-07T10:43:12.000Z</time>
      </trkpt>
      <trkpt lat="45.82859" lon="1.92742">
        <ele>769.5</ele>
        <time>2026-07-07T10:43:13.000Z</time>
      </trkpt>
      <trkpt lat="45.82859" lon="1.92742">
        <ele>769.5</ele>
        <time>2026-07-07T10:43:14.000Z</time>
      </trkpt>
      <trkpt lat="45.82859" lon="1.92742">
        <ele>769.5</ele>
        <time>2026-07-07T10:43:15.000Z</time>
      </trkpt>
      <trkpt lat="45.82859" lon="1.92742">
        <ele>769.5</ele>
        <time>2026-07-07T10:43:16.000Z</time>
      </trkpt>
      <trkpt lat="45.82859" lon="1.92742">
        <ele>769.5</ele>
        <time>2026-07-07T10:43:17.000Z</time>
      </trkpt>
      <trkpt lat="45.82859" lon="1.92742">
        <ele>769.5</ele>
        <time>2026-07-07T10:43:18.000Z</time>
      </trkpt>
      <trkpt lat="45.82859" lon="1.92742">
        <ele>769.5</ele>
        <time>2026-07-07T10:43:19.000Z</time>
      </trkpt>
      <trkpt lat="45.82859" lon="1.92742">
        <ele>769.5</ele>
        <time>2026-07-07T10:43:20.000Z</time>
      </trkpt>
      <trkpt lat="45.82859" lon="1.92742">
        <ele>769.5</ele>
        <time>2026-07-07T10:43:21.000Z</time>
      </trkpt>
      <trkpt lat="45.82859" lon="1.92742">
        <ele>769.5</ele>
        <time>2026-07-07T10:43:22.000Z</time>
      </trkpt>
      <trkpt lat="45.82859" lon="1.92742">
        <ele>769.5</ele>
        <time>2026-07-07T10:43:23.000Z</time>
      </trkpt>
      <trkpt lat="45.82859" lon="1.92742">
        <ele>769.6</ele>
        <time>2026-07-07T10:43:24.000Z</time>
      </trkpt>
      <trkpt lat="45.82859" lon="1.92742">
        <ele>769.6</ele>
        <time>2026-07-07T10:43:25.000Z</time>
      </trkpt>
      <trkpt lat="45.82859" lon="1.92742">
        <ele>769.6</ele>
        <time>2026-07-07T10:43:26.000Z</time>
      </trkpt>
      <trkpt lat="45.82859" lon="1.92742">
        <ele>769.6</ele>
        <time>2026-07-07T10:43:27.000Z</time>
      </trkpt>
      <trkpt lat="45.82859" lon="1.92742">
        <ele>769.6</ele>
        <time>2026-07-07T10:43:28.000Z</time>
      </trkpt>
      <trkpt lat="45.82859" lon="1.92742">
        <ele>769.6</ele>
        <time>2026-07-07T10:43:29.000Z</time>
      </trkpt>
      <trkpt lat="45.82859" lon="1.92742">
        <ele>769.6</ele>
        <time>2026-07-07T10:43:30.000Z</time>
      </trkpt>
      <trkpt lat="45.82859" lon="1.92742">
        <ele>769.6</ele>
        <time>2026-07-07T10:43:31.000Z</time>
      </trkpt>
      <trkpt lat="45.82859" lon="1.92742">
        <ele>769.6</ele>
        <time>2026-07-07T10:43:32.000Z</time>
      </trkpt>
      <trkpt lat="45.82859" lon="1.92742">
        <ele>769.6</ele>
        <time>2026-07-07T10:43:33.000Z</time>
      </trkpt>
      <trkpt lat="45.82859" lon="1.92742">
        <ele>769.6</ele>
        <time>2026-07-07T10:43:34.000Z</time>
      </trkpt>
      <trkpt lat="45.82859" lon="1.92742">
        <ele>769.6</ele>
        <time>2026-07-07T10:43:35.000Z</time>
      </trkpt>
      <trkpt lat="45.82859" lon="1.92742">
        <ele>769.6</ele>
        <time>2026-07-07T10:43:36.000Z</time>
      </trkpt>
      <trkpt lat="45.82859" lon="1.92742">
        <ele>769.6</ele>
        <time>2026-07-07T10:43:37.000Z</time>
      </trkpt>
      <trkpt lat="45.82859" lon="1.92742">
        <ele>769.6</ele>
        <time>2026-07-07T10:43:38.000Z</time>
      </trkpt>
      <trkpt lat="45.82859" lon="1.92742">
        <ele>769.6</ele>
        <time>2026-07-07T10:43:39.000Z</time>
      </trkpt>
      <trkpt lat="45.82859" lon="1.92742">
        <ele>769.6</ele>
        <time>2026-07-07T10:43:40.000Z</time>
      </trkpt>
      <trkpt lat="45.82859" lon="1.92742">
        <ele>769.6</ele>
        <time>2026-07-07T10:43:41.000Z</time>
      </trkpt>
      <trkpt lat="45.82859" lon="1.92742">
        <ele>769.6</ele>
        <time>2026-07-07T10:43:42.000Z</time>
      </trkpt>
      <trkpt lat="45.82859" lon="1.92742">
        <ele>769.6</ele>
        <time>2026-07-07T10:43:43.000Z</time>
      </trkpt>
      <trkpt lat="45.82859" lon="1.92742">
        <ele>769.6</ele>
        <time>2026-07-07T10:43:44.000Z</time>
      </trkpt>
      <trkpt lat="45.82859" lon="1.92742">
        <ele>769.6</ele>
        <time>2026-07-07T10:43:45.000Z</time>
      </trkpt>
      <trkpt lat="45.82859" lon="1.92742">
        <ele>769.6</ele>
        <time>2026-07-07T10:43:46.000Z</time>
      </trkpt>
      <trkpt lat="45.82859" lon="1.92742">
        <ele>769.6</ele>
        <time>2026-07-07T10:43:47.000Z</time>
      </trkpt>
      <trkpt lat="45.82859" lon="1.92742">
        <ele>769.6</ele>
        <time>2026-07-07T10:43:48.000Z</time>
      </trkpt>
      <trkpt lat="45.82859" lon="1.92742">
        <ele>769.6</ele>
        <time>2026-07-07T10:43:49.000Z</time>
      </trkpt>
      <trkpt lat="45.82859" lon="1.92742">
        <ele>769.6</ele>
        <time>2026-07-07T10:43:50.000Z</time>
      </trkpt>
      <trkpt lat="45.82859" lon="1.92742">
        <ele>769.6</ele>
        <time>2026-07-07T10:43:51.000Z</time>
      </trkpt>
      <trkpt lat="45.82859" lon="1.92742">
        <ele>769.6</ele>
        <time>2026-07-07T10:43:52.000Z</time>
      </trkpt>
      <trkpt lat="45.82859" lon="1.92742">
        <ele>769.7</ele>
        <time>2026-07-07T10:43:53.000Z</time>
      </trkpt>
      <trkpt lat="45.82859" lon="1.92742">
        <ele>769.7</ele>
        <time>2026-07-07T10:43:54.000Z</time>
      </trkpt>
      <trkpt lat="45.82859" lon="1.92742">
        <ele>769.7</ele>
        <time>2026-07-07T10:43:55.000Z</time>
      </trkpt>
      <trkpt lat="45.82859" lon="1.92742">
        <ele>769.7</ele>
        <time>2026-07-07T10:43:56.000Z</time>
      </trkpt>
      <trkpt lat="45.82859" lon="1.92742">
        <ele>769.7</ele>
        <time>2026-07-07T10:43:57.000Z</time>
      </trkpt>
      <trkpt lat="45.82859" lon="1.92742">
        <ele>769.7</ele>
        <time>2026-07-07T10:43:58.000Z</time>
      </trkpt>
      <trkpt lat="45.82859" lon="1.92742">
        <ele>769.7</ele>
        <time>2026-07-07T10:43:59.000Z</time>
      </trkpt>
      <trkpt lat="45.82859" lon="1.92742">
        <ele>769.7</ele>
        <time>2026-07-07T10:44:00.000Z</time>
      </trkpt>
      <trkpt lat="45.82859" lon="1.92742">
        <ele>769.7</ele>
        <time>2026-07-07T10:44:01.000Z</time>
      </trkpt>
      <trkpt lat="45.82859" lon="1.92742">
        <ele>769.7</ele>
        <time>2026-07-07T10:44:02.000Z</time>
      </trkpt>
      <trkpt lat="45.82859" lon="1.92742">
        <ele>769.7</ele>
        <time>2026-07-07T10:44:03.000Z</time>
      </trkpt>
      <trkpt lat="45.82859" lon="1.92742">
        <ele>769.8</ele>
        <time>2026-07-07T10:44:04.000Z</time>
      </trkpt>
      <trkpt lat="45.82859" lon="1.92742">
        <ele>769.8</ele>
        <time>2026-07-07T10:44:05.000Z</time>
      </trkpt>
      <trkpt lat="45.82859" lon="1.92742">
        <ele>769.8</ele>
        <time>2026-07-07T10:44:06.000Z</time>
      </trkpt>
      <trkpt lat="45.82859" lon="1.92742">
        <ele>769.8</ele>
        <time>2026-07-07T10:44:07.000Z</time>
      </trkpt>
      <trkpt lat="45.82859" lon="1.92742">
        <ele>769.8</ele>
        <time>2026-07-07T10:44:08.000Z</time>
      </trkpt>
      <trkpt lat="45.82859" lon="1.92742">
        <ele>769.8</ele>
        <time>2026-07-07T10:44:09.000Z</time>
      </trkpt>
      <trkpt lat="45.82859" lon="1.92742">
        <ele>769.8</ele>
        <time>2026-07-07T10:44:10.000Z</time>
      </trkpt>
      <trkpt lat="45.82859" lon="1.92742">
        <ele>769.8</ele>
        <time>2026-07-07T10:44:11.000Z</time>
      </trkpt>
      <trkpt lat="45.82859" lon="1.92742">
        <ele>769.8</ele>
        <time>2026-07-07T10:44:12.000Z</time>
      </trkpt>
      <trkpt lat="45.82859" lon="1.92742">
        <ele>769.8</ele>
        <time>2026-07-07T10:44:13.000Z</time>
      </trkpt>
      <trkpt lat="45.82859" lon="1.92742">
        <ele>769.8</ele>
        <time>2026-07-07T10:44:14.000Z</time>
      </trkpt>
      <trkpt lat="45.82859" lon="1.92742">
        <ele>769.8</ele>
        <time>2026-07-07T10:44:15.000Z</time>
      </trkpt>
      <trkpt lat="45.82859" lon="1.92742">
        <ele>769.8</ele>
        <time>2026-07-07T10:44:16.000Z</time>
      </trkpt>
      <trkpt lat="45.82859" lon="1.92742">
        <ele>769.8</ele>
        <time>2026-07-07T10:44:17.000Z</time>
      </trkpt>
      <trkpt lat="45.82859" lon="1.92742">
        <ele>769.8</ele>
        <time>2026-07-07T10:44:18.000Z</time>
      </trkpt>
      <trkpt lat="45.82859" lon="1.92742">
        <ele>769.9</ele>
        <time>2026-07-07T10:44:19.000Z</time>
      </trkpt>
      <trkpt lat="45.82859" lon="1.92742">
        <ele>769.9</ele>
        <time>2026-07-07T10:44:20.000Z</time>
      </trkpt>
      <trkpt lat="45.82859" lon="1.92742">
        <ele>769.9</ele>
        <time>2026-07-07T10:44:21.000Z</time>
      </trkpt>
      <trkpt lat="45.82859" lon="1.92742">
        <ele>769.9</ele>
        <time>2026-07-07T10:44:22.000Z</time>
      </trkpt>
      <trkpt lat="45.82859" lon="1.92742">
        <ele>769.9</ele>
        <time>2026-07-07T10:44:23.000Z</time>
      </trkpt>
      <trkpt lat="45.82859" lon="1.92742">
        <ele>769.9</ele>
        <time>2026-07-07T10:44:24.000Z</time>
      </trkpt>
      <trkpt lat="45.82859" lon="1.92742">
        <ele>769.9</ele>
        <time>2026-07-07T10:44:25.000Z</time>
      </trkpt>
      <trkpt lat="45.82859" lon="1.92742">
        <ele>769.9</ele>
        <time>2026-07-07T10:44:26.000Z</time>
      </trkpt>
      <trkpt lat="45.82859" lon="1.92742">
        <ele>769.9</ele>
        <time>2026-07-07T10:44:27.000Z</time>
      </trkpt>
      <trkpt lat="45.82859" lon="1.92742">
        <ele>769.9</ele>
        <time>2026-07-07T10:44:28.000Z</time>
      </trkpt>
      <trkpt lat="45.82859" lon="1.92742">
        <ele>769.9</ele>
        <time>2026-07-07T10:44:29.000Z</time>
      </trkpt>
      <trkpt lat="45.82859" lon="1.92742">
        <ele>769.9</ele>
        <time>2026-07-07T10:44:30.000Z</time>
      </trkpt>
      <trkpt lat="45.82859" lon="1.92742">
        <ele>769.9</ele>
        <time>2026-07-07T10:44:31.000Z</time>
      </trkpt>
      <trkpt lat="45.82859" lon="1.92742">
        <ele>769.9</ele>
        <time>2026-07-07T10:44:32.000Z</time>
      </trkpt>
      <trkpt lat="45.82859" lon="1.92742">
        <ele>769.9</ele>
        <time>2026-07-07T10:44:33.000Z</time>
      </trkpt>
      <trkpt lat="45.82859" lon="1.92742">
        <ele>769.9</ele>
        <time>2026-07-07T10:44:34.000Z</time>
      </trkpt>
      <trkpt lat="45.82859" lon="1.92742">
        <ele>769.9</ele>
        <time>2026-07-07T10:44:35.000Z</time>
      </trkpt>
      <trkpt lat="45.82859" lon="1.92742">
        <ele>769.9</ele>
        <time>2026-07-07T10:44:36.000Z</time>
      </trkpt>
      <trkpt lat="45.82859" lon="1.92742">
        <ele>769.9</ele>
        <time>2026-07-07T10:44:37.000Z</time>
      </trkpt>
      <trkpt lat="45.82859" lon="1.92742">
        <ele>769.9</ele>
        <time>2026-07-07T10:44:38.000Z</time>
      </trkpt>
      <trkpt lat="45.82859" lon="1.92742">
        <ele>769.9</ele>
        <time>2026-07-07T10:44:39.000Z</time>
      </trkpt>
      <trkpt lat="45.82859" lon="1.92742">
        <ele>769.9</ele>
        <time>2026-07-07T10:44:40.000Z</time>
      </trkpt>
      <trkpt lat="45.82859" lon="1.92742">
        <ele>769.9</ele>
        <time>2026-07-07T10:44:41.000Z</time>
      </trkpt>
      <trkpt lat="45.82859" lon="1.92742">
        <ele>769.9</ele>
        <time>2026-07-07T10:44:42.000Z</time>
      </trkpt>
      <trkpt lat="45.82859" lon="1.92742">
        <ele>769.9</ele>
        <time>2026-07-07T10:44:43.000Z</time>
      </trkpt>
      <trkpt lat="45.82859" lon="1.92742">
        <ele>769.9</ele>
        <time>2026-07-07T10:44:44.000Z</time>
      </trkpt>
      <trkpt lat="45.82859" lon="1.92742">
        <ele>769.9</ele>
        <time>2026-07-07T10:44:45.000Z</time>
      </trkpt>
      <trkpt lat="45.82859" lon="1.92742">
        <ele>769.9</ele>
        <time>2026-07-07T10:44:46.000Z</time>
      </trkpt>
      <trkpt lat="45.82859" lon="1.92742">
        <ele>769.9</ele>
        <time>2026-07-07T10:44:47.000Z</time>
      </trkpt>
      <trkpt lat="45.82859" lon="1.92742">
        <ele>769.9</ele>
        <time>2026-07-07T10:44:48.000Z</time>
      </trkpt>
      <trkpt lat="45.82859" lon="1.92742">
        <ele>769.9</ele>
        <time>2026-07-07T10:44:49.000Z</time>
      </trkpt>
      <trkpt lat="45.82859" lon="1.92742">
        <ele>769.9</ele>
        <time>2026-07-07T10:44:50.000Z</time>
      </trkpt>
      <trkpt lat="45.82859" lon="1.92742">
        <ele>769.9</ele>
        <time>2026-07-07T10:44:51.000Z</time>
      </trkpt>
      <trkpt lat="45.82859" lon="1.92742">
        <ele>769.9</ele>
        <time>2026-07-07T10:44:52.000Z</time>
      </trkpt>
      <trkpt lat="45.82859" lon="1.92742">
        <ele>769.9</ele>
        <time>2026-07-07T10:44:53.000Z</time>
      </trkpt>
      <trkpt lat="45.82859" lon="1.92742">
        <ele>769.9</ele>
        <time>2026-07-07T10:44:54.000Z</time>
      </trkpt>
      <trkpt lat="45.82859" lon="1.92742">
        <ele>769.9</ele>
        <time>2026-07-07T10:44:55.000Z</time>
      </trkpt>
      <trkpt lat="45.82859" lon="1.92742">
        <ele>769.9</ele>
        <time>2026-07-07T10:44:56.000Z</time>
      </trkpt>
      <trkpt lat="45.82859" lon="1.92742">
        <ele>769.9</ele>
        <time>2026-07-07T10:44:57.000Z</time>
      </trkpt>
      <trkpt lat="45.82859" lon="1.92742">
        <ele>769.9</ele>
        <time>2026-07-07T10:44:58.000Z</time>
      </trkpt>
      <trkpt lat="45.82859" lon="1.92742">
        <ele>769.9</ele>
        <time>2026-07-07T10:44:59.000Z</time>
      </trkpt>
      <trkpt lat="45.82859" lon="1.92742">
        <ele>769.9</ele>
        <time>2026-07-07T10:45:00.000Z</time>
      </trkpt>
      <trkpt lat="45.82859" lon="1.92742">
        <ele>770</ele>
        <time>2026-07-07T10:45:01.000Z</time>
      </trkpt>
      <trkpt lat="45.82859" lon="1.92742">
        <ele>770</ele>
        <time>2026-07-07T10:45:02.000Z</time>
      </trkpt>
      <trkpt lat="45.82859" lon="1.92742">
        <ele>770</ele>
        <time>2026-07-07T10:45:03.000Z</time>
      </trkpt>
      <trkpt lat="45.82859" lon="1.92742">
        <ele>770</ele>
        <time>2026-07-07T10:45:04.000Z</time>
      </trkpt>
      <trkpt lat="45.82859" lon="1.92742">
        <ele>770</ele>
        <time>2026-07-07T10:45:05.000Z</time>
      </trkpt>
      <trkpt lat="45.82859" lon="1.92742">
        <ele>770</ele>
        <time>2026-07-07T10:45:06.000Z</time>
      </trkpt>
      <trkpt lat="45.82859" lon="1.92742">
        <ele>770</ele>
        <time>2026-07-07T10:45:07.000Z</time>
      </trkpt>
      <trkpt lat="45.82859" lon="1.92742">
        <ele>770</ele>
        <time>2026-07-07T10:45:08.000Z</time>
      </trkpt>
      <trkpt lat="45.82859" lon="1.92742">
        <ele>770</ele>
        <time>2026-07-07T10:45:09.000Z</time>
      </trkpt>
      <trkpt lat="45.82859" lon="1.92742">
        <ele>770</ele>
        <time>2026-07-07T10:45:10.000Z</time>
      </trkpt>
      <trkpt lat="45.82859" lon="1.92742">
        <ele>770</ele>
        <time>2026-07-07T10:45:11.000Z</time>
      </trkpt>
      <trkpt lat="45.82859" lon="1.92742">
        <ele>770</ele>
        <time>2026-07-07T10:45:12.000Z</time>
      </trkpt>
      <trkpt lat="45.82859" lon="1.92742">
        <ele>770</ele>
        <time>2026-07-07T10:45:13.000Z</time>
      </trkpt>
      <trkpt lat="45.82859" lon="1.92742">
        <ele>770</ele>
        <time>2026-07-07T10:45:14.000Z</time>
      </trkpt>
      <trkpt lat="45.82859" lon="1.92742">
        <ele>770</ele>
        <time>2026-07-07T10:45:15.000Z</time>
      </trkpt>
      <trkpt lat="45.82859" lon="1.92742">
        <ele>770</ele>
        <time>2026-07-07T10:45:16.000Z</time>
      </trkpt>
      <trkpt lat="45.82859" lon="1.92742">
        <ele>770</ele>
        <time>2026-07-07T10:45:17.000Z</time>
      </trkpt>
      <trkpt lat="45.82859" lon="1.92742">
        <ele>770</ele>
        <time>2026-07-07T10:45:18.000Z</time>
      </trkpt>
      <trkpt lat="45.82859" lon="1.92742">
        <ele>770</ele>
        <time>2026-07-07T10:45:19.000Z</time>
      </trkpt>
      <trkpt lat="45.82859" lon="1.92742">
        <ele>770</ele>
        <time>2026-07-07T10:45:20.000Z</time>
      </trkpt>
      <trkpt lat="45.82859" lon="1.92742">
        <ele>770</ele>
        <time>2026-07-07T10:45:21.000Z</time>
      </trkpt>
      <trkpt lat="45.82859" lon="1.92742">
        <ele>770</ele>
        <time>2026-07-07T10:45:22.000Z</time>
      </trkpt>
      <trkpt lat="45.82859" lon="1.92742">
        <ele>770</ele>
        <time>2026-07-07T10:45:23.000Z</time>
      </trkpt>
      <trkpt lat="45.82859" lon="1.92742">
        <ele>770</ele>
        <time>2026-07-07T10:45:24.000Z</time>
      </trkpt>
      <trkpt lat="45.82859" lon="1.92742">
        <ele>770</ele>
        <time>2026-07-07T10:45:25.000Z</time>
      </trkpt>
      <trkpt lat="45.82859" lon="1.92742">
        <ele>770</ele>
        <time>2026-07-07T10:45:26.000Z</time>
      </trkpt>
      <trkpt lat="45.82859" lon="1.92742">
        <ele>770</ele>
        <time>2026-07-07T10:45:27.000Z</time>
      </trkpt>
      <trkpt lat="45.82859" lon="1.92742">
        <ele>770</ele>
        <time>2026-07-07T10:45:28.000Z</time>
      </trkpt>
      <trkpt lat="45.82859" lon="1.92742">
        <ele>770</ele>
        <time>2026-07-07T10:45:29.000Z</time>
      </trkpt>
      <trkpt lat="45.82859" lon="1.92742">
        <ele>770</ele>
        <time>2026-07-07T10:45:30.000Z</time>
      </trkpt>
      <trkpt lat="45.82859" lon="1.92742">
        <ele>770</ele>
        <time>2026-07-07T10:45:31.000Z</time>
      </trkpt>
      <trkpt lat="45.82859" lon="1.92742">
        <ele>770</ele>
        <time>2026-07-07T10:45:32.000Z</time>
      </trkpt>
      <trkpt lat="45.82859" lon="1.92742">
        <ele>770</ele>
        <time>2026-07-07T10:45:33.000Z</time>
      </trkpt>
      <trkpt lat="45.82859" lon="1.92742">
        <ele>770</ele>
        <time>2026-07-07T10:45:34.000Z</time>
      </trkpt>
      <trkpt lat="45.82859" lon="1.92742">
        <ele>770</ele>
        <time>2026-07-07T10:45:35.000Z</time>
      </trkpt>
      <trkpt lat="45.82859" lon="1.92742">
        <ele>770</ele>
        <time>2026-07-07T10:45:36.000Z</time>
      </trkpt>
      <trkpt lat="45.82859" lon="1.92742">
        <ele>770</ele>
        <time>2026-07-07T10:45:37.000Z</time>
      </trkpt>
      <trkpt lat="45.82859" lon="1.92742">
        <ele>770</ele>
        <time>2026-07-07T10:45:38.000Z</time>
      </trkpt>
      <trkpt lat="45.82859" lon="1.92742">
        <ele>770</ele>
        <time>2026-07-07T10:45:39.000Z</time>
      </trkpt>
      <trkpt lat="45.82859" lon="1.92742">
        <ele>770</ele>
        <time>2026-07-07T10:45:40.000Z</time>
      </trkpt>
      <trkpt lat="45.82859" lon="1.92742">
        <ele>770</ele>
        <time>2026-07-07T10:45:41.000Z</time>
      </trkpt>
      <trkpt lat="45.82859" lon="1.92742">
        <ele>770</ele>
        <time>2026-07-07T10:45:42.000Z</time>
      </trkpt>
      <trkpt lat="45.82859" lon="1.92742">
        <ele>770</ele>
        <time>2026-07-07T10:45:43.000Z</time>
      </trkpt>
      <trkpt lat="45.82859" lon="1.92742">
        <ele>770</ele>
        <time>2026-07-07T10:45:44.000Z</time>
      </trkpt>
      <trkpt lat="45.82859" lon="1.92742">
        <ele>770</ele>
        <time>2026-07-07T10:45:45.000Z</time>
      </trkpt>
      <trkpt lat="45.82859" lon="1.92742">
        <ele>770</ele>
        <time>2026-07-07T10:45:46.000Z</time>
      </trkpt>
      <trkpt lat="45.82859" lon="1.92742">
        <ele>770</ele>
        <time>2026-07-07T10:45:47.000Z</time>
      </trkpt>
      <trkpt lat="45.82859" lon="1.92742">
        <ele>770</ele>
        <time>2026-07-07T10:45:48.000Z</time>
      </trkpt>
      <trkpt lat="45.82859" lon="1.92742">
        <ele>770</ele>
        <time>2026-07-07T10:45:49.000Z</time>
      </trkpt>
      <trkpt lat="45.82859" lon="1.92742">
        <ele>770</ele>
        <time>2026-07-07T10:45:50.000Z</time>
      </trkpt>
      <trkpt lat="45.82859" lon="1.92742">
        <ele>770</ele>
        <time>2026-07-07T10:45:51.000Z</time>
      </trkpt>
      <trkpt lat="45.82859" lon="1.92742">
        <ele>770</ele>
        <time>2026-07-07T10:45:52.000Z</time>
      </trkpt>
      <trkpt lat="45.82859" lon="1.92742">
        <ele>770</ele>
        <time>2026-07-07T10:45:53.000Z</time>
      </trkpt>
      <trkpt lat="45.82859" lon="1.92742">
        <ele>770</ele>
        <time>2026-07-07T10:45:54.000Z</time>
      </trkpt>
      <trkpt lat="45.82859" lon="1.92742">
        <ele>770</ele>
        <time>2026-07-07T10:45:55.000Z</time>
      </trkpt>
      <trkpt lat="45.82859" lon="1.92742">
        <ele>770</ele>
        <time>2026-07-07T10:45:56.000Z</time>
      </trkpt>
      <trkpt lat="45.82859" lon="1.92742">
        <ele>770</ele>
        <time>2026-07-07T10:45:57.000Z</time>
      </trkpt>
      <trkpt lat="45.82859" lon="1.92742">
        <ele>770</ele>
        <time>2026-07-07T10:45:58.000Z</time>
      </trkpt>
      <trkpt lat="45.82859" lon="1.92742">
        <ele>770</ele>
        <time>2026-07-07T10:45:59.000Z</time>
      </trkpt>
      <trkpt lat="45.82859" lon="1.92742">
        <ele>770</ele>
        <time>2026-07-07T10:46:00.000Z</time>
      </trkpt>
      <trkpt lat="45.82859" lon="1.92742">
        <ele>770</ele>
        <time>2026-07-07T10:46:01.000Z</time>
      </trkpt>
      <trkpt lat="45.82859" lon="1.92742">
        <ele>770</ele>
        <time>2026-07-07T10:46:02.000Z</time>
      </trkpt>
      <trkpt lat="45.82859" lon="1.92742">
        <ele>770</ele>
        <time>2026-07-07T10:46:03.000Z</time>
      </trkpt>
      <trkpt lat="45.82859" lon="1.92742">
        <ele>770</ele>
        <time>2026-07-07T10:46:04.000Z</time>
      </trkpt>
      <trkpt lat="45.82859" lon="1.92742">
        <ele>770</ele>
        <time>2026-07-07T10:46:05.000Z</time>
      </trkpt>
      <trkpt lat="45.82859" lon="1.92742">
        <ele>770</ele>
        <time>2026-07-07T10:46:06.000Z</time>
      </trkpt>
      <trkpt lat="45.82859" lon="1.92742">
        <ele>770</ele>
        <time>2026-07-07T10:46:07.000Z</time>
      </trkpt>
      <trkpt lat="45.82859" lon="1.92742">
        <ele>770</ele>
        <time>2026-07-07T10:46:08.000Z</time>
      </trkpt>
      <trkpt lat="45.82859" lon="1.92742">
        <ele>770</ele>
        <time>2026-07-07T10:46:09.000Z</time>
      </trkpt>
      <trkpt lat="45.82859" lon="1.92742">
        <ele>770</ele>
        <time>2026-07-07T10:46:10.000Z</time>
      </trkpt>
      <trkpt lat="45.82859" lon="1.92742">
        <ele>770</ele>
        <time>2026-07-07T10:46:11.000Z</time>
      </trkpt>
      <trkpt lat="45.82859" lon="1.92742">
        <ele>770</ele>
        <time>2026-07-07T10:46:12.000Z</time>
      </trkpt>
      <trkpt lat="45.82859" lon="1.92742">
        <ele>770</ele>
        <time>2026-07-07T10:46:13.000Z</time>
      </trkpt>
      <trkpt lat="45.82859" lon="1.92742">
        <ele>770</ele>
        <time>2026-07-07T10:46:14.000Z</time>
      </trkpt>
      <trkpt lat="45.82859" lon="1.92742">
        <ele>770</ele>
        <time>2026-07-07T10:46:15.000Z</time>
      </trkpt>
      <trkpt lat="45.82859" lon="1.92742">
        <ele>770</ele>
        <time>2026-07-07T10:46:16.000Z</time>
      </trkpt>
      <trkpt lat="45.82859" lon="1.92742">
        <ele>770</ele>
        <time>2026-07-07T10:46:17.000Z</time>
      </trkpt>
      <trkpt lat="45.82859" lon="1.92742">
        <ele>770</ele>
        <time>2026-07-07T10:46:18.000Z</time>
      </trkpt>
      <trkpt lat="45.82859" lon="1.92742">
        <ele>770</ele>
        <time>2026-07-07T10:46:19.000Z</time>
      </trkpt>
      <trkpt lat="45.82859" lon="1.92742">
        <ele>770</ele>
        <time>2026-07-07T10:46:20.000Z</time>
      </trkpt>
      <trkpt lat="45.82859" lon="1.92742">
        <ele>770</ele>
        <time>2026-07-07T10:46:21.000Z</time>
      </trkpt>
      <trkpt lat="45.82859" lon="1.92742">
        <ele>770</ele>
        <time>2026-07-07T10:46:22.000Z</time>
      </trkpt>
      <trkpt lat="45.82859" lon="1.92742">
        <ele>770</ele>
        <time>2026-07-07T10:46:23.000Z</time>
      </trkpt>
      <trkpt lat="45.82859" lon="1.92742">
        <ele>770</ele>
        <time>2026-07-07T10:46:24.000Z</time>
      </trkpt>
      <trkpt lat="45.82859" lon="1.92742">
        <ele>770</ele>
        <time>2026-07-07T10:46:25.000Z</time>
      </trkpt>
      <trkpt lat="45.82859" lon="1.92742">
        <ele>770</ele>
        <time>2026-07-07T10:46:26.000Z</time>
      </trkpt>
      <trkpt lat="45.82859" lon="1.92742">
        <ele>770</ele>
        <time>2026-07-07T10:46:27.000Z</time>
      </trkpt>
      <trkpt lat="45.82859" lon="1.92742">
        <ele>770</ele>
        <time>2026-07-07T10:46:28.000Z</time>
      </trkpt>
      <trkpt lat="45.82859" lon="1.92742">
        <ele>770</ele>
        <time>2026-07-07T10:46:29.000Z</time>
      </trkpt>
      <trkpt lat="45.82859" lon="1.92742">
        <ele>770</ele>
        <time>2026-07-07T10:46:30.000Z</time>
      </trkpt>
      <trkpt lat="45.82859" lon="1.92742">
        <ele>770</ele>
        <time>2026-07-07T10:46:31.000Z</time>
      </trkpt>
      <trkpt lat="45.82859" lon="1.92742">
        <ele>770</ele>
        <time>2026-07-07T10:46:32.000Z</time>
      </trkpt>
      <trkpt lat="45.82859" lon="1.92742">
        <ele>770</ele>
        <time>2026-07-07T10:46:33.000Z</time>
      </trkpt>
      <trkpt lat="45.82859" lon="1.92742">
        <ele>770.1</ele>
        <time>2026-07-07T10:46:34.000Z</time>
      </trkpt>
      <trkpt lat="45.82859" lon="1.92742">
        <ele>770.1</ele>
        <time>2026-07-07T10:46:35.000Z</time>
      </trkpt>
      <trkpt lat="45.82859" lon="1.92742">
        <ele>770.1</ele>
        <time>2026-07-07T10:46:36.000Z</time>
      </trkpt>
      <trkpt lat="45.82859" lon="1.92742">
        <ele>770.1</ele>
        <time>2026-07-07T10:46:37.000Z</time>
      </trkpt>
      <trkpt lat="45.82859" lon="1.92742">
        <ele>770.1</ele>
        <time>2026-07-07T10:46:38.000Z</time>
      </trkpt>
      <trkpt lat="45.82859" lon="1.92742">
        <ele>770.1</ele>
        <time>2026-07-07T10:46:39.000Z</time>
      </trkpt>
      <trkpt lat="45.82859" lon="1.92742">
        <ele>770.1</ele>
        <time>2026-07-07T10:46:40.000Z</time>
      </trkpt>
      <trkpt lat="45.82859" lon="1.92742">
        <ele>770.1</ele>
        <time>2026-07-07T10:46:41.000Z</time>
      </trkpt>
      <trkpt lat="45.82859" lon="1.92742">
        <ele>770.1</ele>
        <time>2026-07-07T10:46:42.000Z</time>
      </trkpt>
      <trkpt lat="45.82859" lon="1.92742">
        <ele>770.1</ele>
        <time>2026-07-07T10:46:43.000Z</time>
      </trkpt>
      <trkpt lat="45.82859" lon="1.92742">
        <ele>770.1</ele>
        <time>2026-07-07T10:46:44.000Z</time>
      </trkpt>
      <trkpt lat="45.82859" lon="1.92742">
        <ele>770.1</ele>
        <time>2026-07-07T10:46:45.000Z</time>
      </trkpt>
      <trkpt lat="45.82859" lon="1.92742">
        <ele>770.1</ele>
        <time>2026-07-07T10:46:46.000Z</time>
      </trkpt>
      <trkpt lat="45.82859" lon="1.92742">
        <ele>770.1</ele>
        <time>2026-07-07T10:46:47.000Z</time>
      </trkpt>
      <trkpt lat="45.82859" lon="1.92742">
        <ele>770.1</ele>
        <time>2026-07-07T10:46:48.000Z</time>
      </trkpt>
      <trkpt lat="45.82859" lon="1.92742">
        <ele>770.2</ele>
        <time>2026-07-07T10:46:49.000Z</time>
      </trkpt>
      <trkpt lat="45.82859" lon="1.92742">
        <ele>770.2</ele>
        <time>2026-07-07T10:46:50.000Z</time>
      </trkpt>
      <trkpt lat="45.82859" lon="1.92742">
        <ele>770.2</ele>
        <time>2026-07-07T10:46:51.000Z</time>
      </trkpt>
      <trkpt lat="45.82859" lon="1.92742">
        <ele>770.2</ele>
        <time>2026-07-07T10:46:52.000Z</time>
      </trkpt>
      <trkpt lat="45.82859" lon="1.92742">
        <ele>770.2</ele>
        <time>2026-07-07T10:46:53.000Z</time>
      </trkpt>
      <trkpt lat="45.82859" lon="1.92742">
        <ele>770.2</ele>
        <time>2026-07-07T10:46:54.000Z</time>
      </trkpt>
      <trkpt lat="45.82859" lon="1.92742">
        <ele>770.2</ele>
        <time>2026-07-07T10:46:55.000Z</time>
      </trkpt>
      <trkpt lat="45.82859" lon="1.92742">
        <ele>770.2</ele>
        <time>2026-07-07T10:46:56.000Z</time>
      </trkpt>
      <trkpt lat="45.82859" lon="1.92742">
        <ele>770.2</ele>
        <time>2026-07-07T10:46:57.000Z</time>
      </trkpt>
      <trkpt lat="45.82859" lon="1.92742">
        <ele>770.2</ele>
        <time>2026-07-07T10:46:58.000Z</time>
      </trkpt>
      <trkpt lat="45.82859" lon="1.92742">
        <ele>770.2</ele>
        <time>2026-07-07T10:46:59.000Z</time>
      </trkpt>
      <trkpt lat="45.82859" lon="1.92742">
        <ele>770.2</ele>
        <time>2026-07-07T10:47:00.000Z</time>
      </trkpt>
      <trkpt lat="45.82859" lon="1.92742">
        <ele>770.3</ele>
        <time>2026-07-07T10:47:01.000Z</time>
      </trkpt>
      <trkpt lat="45.82859" lon="1.92742">
        <ele>770.3</ele>
        <time>2026-07-07T10:47:02.000Z</time>
      </trkpt>
      <trkpt lat="45.82859" lon="1.92742">
        <ele>770.3</ele>
        <time>2026-07-07T10:47:03.000Z</time>
      </trkpt>
      <trkpt lat="45.82859" lon="1.92742">
        <ele>770.3</ele>
        <time>2026-07-07T10:47:04.000Z</time>
      </trkpt>
      <trkpt lat="45.82859" lon="1.92742">
        <ele>770.3</ele>
        <time>2026-07-07T10:47:05.000Z</time>
      </trkpt>
      <trkpt lat="45.82859" lon="1.92742">
        <ele>770.3</ele>
        <time>2026-07-07T10:47:06.000Z</time>
      </trkpt>
      <trkpt lat="45.82859" lon="1.92742">
        <ele>770.3</ele>
        <time>2026-07-07T10:47:07.000Z</time>
      </trkpt>
      <trkpt lat="45.82859" lon="1.92742">
        <ele>770.3</ele>
        <time>2026-07-07T10:47:08.000Z</time>
      </trkpt>
      <trkpt lat="45.82859" lon="1.92742">
        <ele>770.3</ele>
        <time>2026-07-07T10:47:09.000Z</time>
      </trkpt>
      <trkpt lat="45.82859" lon="1.92742">
        <ele>770.3</ele>
        <time>2026-07-07T10:47:10.000Z</time>
      </trkpt>
      <trkpt lat="45.82859" lon="1.92742">
        <ele>770.3</ele>
        <time>2026-07-07T10:47:11.000Z</time>
      </trkpt>
      <trkpt lat="45.82859" lon="1.92742">
        <ele>770.3</ele>
        <time>2026-07-07T10:47:12.000Z</time>
      </trkpt>
      <trkpt lat="45.82859" lon="1.92742">
        <ele>770.3</ele>
        <time>2026-07-07T10:47:13.000Z</time>
      </trkpt>
      <trkpt lat="45.82859" lon="1.92742">
        <ele>770.3</ele>
        <time>2026-07-07T10:47:14.000Z</time>
      </trkpt>
      <trkpt lat="45.82859" lon="1.92742">
        <ele>770.3</ele>
        <time>2026-07-07T10:47:15.000Z</time>
      </trkpt>
      <trkpt lat="45.82859" lon="1.92742">
        <ele>770.3</ele>
        <time>2026-07-07T10:47:16.000Z</time>
      </trkpt>
      <trkpt lat="45.82859" lon="1.92742">
        <ele>770.3</ele>
        <time>2026-07-07T10:47:17.000Z</time>
      </trkpt>
      <trkpt lat="45.82859" lon="1.92742">
        <ele>770.3</ele>
        <time>2026-07-07T10:47:18.000Z</time>
      </trkpt>
      <trkpt lat="45.82859" lon="1.92742">
        <ele>770.3</ele>
        <time>2026-07-07T10:47:19.000Z</time>
      </trkpt>
      <trkpt lat="45.82859" lon="1.92742">
        <ele>770.3</ele>
        <time>2026-07-07T10:47:20.000Z</time>
      </trkpt>
      <trkpt lat="45.82859" lon="1.92742">
        <ele>770.3</ele>
        <time>2026-07-07T10:47:21.000Z</time>
      </trkpt>
      <trkpt lat="45.82859" lon="1.92742">
        <ele>770.3</ele>
        <time>2026-07-07T10:47:22.000Z</time>
      </trkpt>
      <trkpt lat="45.82859" lon="1.92742">
        <ele>770.3</ele>
        <time>2026-07-07T10:47:23.000Z</time>
      </trkpt>
      <trkpt lat="45.82859" lon="1.92742">
        <ele>770.3</ele>
        <time>2026-07-07T10:47:24.000Z</time>
      </trkpt>
      <trkpt lat="45.82859" lon="1.92742">
        <ele>770.3</ele>
        <time>2026-07-07T10:47:25.000Z</time>
      </trkpt>
      <trkpt lat="45.82859" lon="1.92742">
        <ele>770.3</ele>
        <time>2026-07-07T10:47:26.000Z</time>
      </trkpt>
      <trkpt lat="45.82859" lon="1.92742">
        <ele>770.3</ele>
        <time>2026-07-07T10:47:27.000Z</time>
      </trkpt>
      <trkpt lat="45.82859" lon="1.92742">
        <ele>770.3</ele>
        <time>2026-07-07T10:47:28.000Z</time>
      </trkpt>
      <trkpt lat="45.82859" lon="1.92742">
        <ele>770.3</ele>
        <time>2026-07-07T10:47:29.000Z</time>
      </trkpt>
      <trkpt lat="45.82859" lon="1.92742">
        <ele>770.3</ele>
        <time>2026-07-07T10:47:30.000Z</time>
      </trkpt>
      <trkpt lat="45.82859" lon="1.92742">
        <ele>770.3</ele>
        <time>2026-07-07T10:47:31.000Z</time>
      </trkpt>
      <trkpt lat="45.82859" lon="1.92742">
        <ele>770.3</ele>
        <time>2026-07-07T10:47:32.000Z</time>
      </trkpt>
      <trkpt lat="45.82859" lon="1.92742">
        <ele>770.3</ele>
        <time>2026-07-07T10:47:33.000Z</time>
      </trkpt>
      <trkpt lat="45.82859" lon="1.92742">
        <ele>770.3</ele>
        <time>2026-07-07T10:47:34.000Z</time>
      </trkpt>
      <trkpt lat="45.82859" lon="1.92742">
        <ele>770.3</ele>
        <time>2026-07-07T10:47:35.000Z</time>
      </trkpt>
      <trkpt lat="45.82859" lon="1.92742">
        <ele>770.3</ele>
        <time>2026-07-07T10:47:36.000Z</time>
      </trkpt>
      <trkpt lat="45.82859" lon="1.92742">
        <ele>770.3</ele>
        <time>2026-07-07T10:47:37.000Z</time>
      </trkpt>
      <trkpt lat="45.82859" lon="1.92742">
        <ele>770.3</ele>
        <time>2026-07-07T10:47:38.000Z</time>
      </trkpt>
      <trkpt lat="45.82859" lon="1.92742">
        <ele>770.3</ele>
        <time>2026-07-07T10:47:39.000Z</time>
      </trkpt>
      <trkpt lat="45.82859" lon="1.92742">
        <ele>770.3</ele>
        <time>2026-07-07T10:47:40.000Z</time>
      </trkpt>
      <trkpt lat="45.82859" lon="1.92742">
        <ele>770.3</ele>
        <time>2026-07-07T10:47:41.000Z</time>
      </trkpt>
      <trkpt lat="45.82859" lon="1.92742">
        <ele>770.3</ele>
        <time>2026-07-07T10:47:42.000Z</time>
      </trkpt>
      <trkpt lat="45.82859" lon="1.92742">
        <ele>770.2</ele>
        <time>2026-07-07T10:47:43.000Z</time>
      </trkpt>
      <trkpt lat="45.82859" lon="1.92742">
        <ele>770.2</ele>
        <time>2026-07-07T10:47:44.000Z</time>
      </trkpt>
      <trkpt lat="45.82859" lon="1.92742">
        <ele>770.2</ele>
        <time>2026-07-07T10:47:45.000Z</time>
      </trkpt>
      <trkpt lat="45.82859" lon="1.92742">
        <ele>770.2</ele>
        <time>2026-07-07T10:47:46.000Z</time>
      </trkpt>
      <trkpt lat="45.82859" lon="1.92742">
        <ele>770.2</ele>
        <time>2026-07-07T10:47:47.000Z</time>
      </trkpt>
      <trkpt lat="45.82859" lon="1.92742">
        <ele>770.2</ele>
        <time>2026-07-07T10:47:48.000Z</time>
      </trkpt>
      <trkpt lat="45.82859" lon="1.92742">
        <ele>770.2</ele>
        <time>2026-07-07T10:47:49.000Z</time>
      </trkpt>
      <trkpt lat="45.82859" lon="1.92742">
        <ele>770.2</ele>
        <time>2026-07-07T10:47:50.000Z</time>
      </trkpt>
      <trkpt lat="45.82859" lon="1.92742">
        <ele>770.2</ele>
        <time>2026-07-07T10:47:51.000Z</time>
      </trkpt>
      <trkpt lat="45.82859" lon="1.92742">
        <ele>770.2</ele>
        <time>2026-07-07T10:47:52.000Z</time>
      </trkpt>
      <trkpt lat="45.82859" lon="1.92742">
        <ele>770.2</ele>
        <time>2026-07-07T10:47:53.000Z</time>
      </trkpt>
      <trkpt lat="45.82859" lon="1.92742">
        <ele>770.2</ele>
        <time>2026-07-07T10:47:54.000Z</time>
      </trkpt>
      <trkpt lat="45.82859" lon="1.92742">
        <ele>770.2</ele>
        <time>2026-07-07T10:47:55.000Z</time>
      </trkpt>
      <trkpt lat="45.82859" lon="1.92742">
        <ele>770.2</ele>
        <time>2026-07-07T10:47:56.000Z</time>
      </trkpt>
      <trkpt lat="45.82859" lon="1.92742">
        <ele>770.2</ele>
        <time>2026-07-07T10:47:57.000Z</time>
      </trkpt>
      <trkpt lat="45.82859" lon="1.92742">
        <ele>770.2</ele>
        <time>2026-07-07T10:47:58.000Z</time>
      </trkpt>
      <trkpt lat="45.82859" lon="1.92742">
        <ele>770.2</ele>
        <time>2026-07-07T10:47:59.000Z</time>
      </trkpt>
      <trkpt lat="45.82859" lon="1.92742">
        <ele>770.2</ele>
        <time>2026-07-07T10:48:00.000Z</time>
      </trkpt>
      <trkpt lat="45.82859" lon="1.92742">
        <ele>770.2</ele>
        <time>2026-07-07T10:48:01.000Z</time>
      </trkpt>
      <trkpt lat="45.82859" lon="1.92742">
        <ele>770.2</ele>
        <time>2026-07-07T10:48:02.000Z</time>
      </trkpt>
      <trkpt lat="45.82859" lon="1.92742">
        <ele>770.2</ele>
        <time>2026-07-07T10:48:03.000Z</time>
      </trkpt>
      <trkpt lat="45.82859" lon="1.92742">
        <ele>770.2</ele>
        <time>2026-07-07T10:48:04.000Z</time>
      </trkpt>
      <trkpt lat="45.82859" lon="1.92742">
        <ele>770.2</ele>
        <time>2026-07-07T10:48:05.000Z</time>
      </trkpt>
      <trkpt lat="45.82859" lon="1.92742">
        <ele>770.2</ele>
        <time>2026-07-07T10:48:06.000Z</time>
      </trkpt>
      <trkpt lat="45.82859" lon="1.92742">
        <ele>770.2</ele>
        <time>2026-07-07T10:48:07.000Z</time>
      </trkpt>
      <trkpt lat="45.82859" lon="1.92742">
        <ele>770.2</ele>
        <time>2026-07-07T10:48:08.000Z</time>
      </trkpt>
      <trkpt lat="45.82859" lon="1.92742">
        <ele>770.2</ele>
        <time>2026-07-07T10:48:09.000Z</time>
      </trkpt>
      <trkpt lat="45.82859" lon="1.92742">
        <ele>770.2</ele>
        <time>2026-07-07T10:48:10.000Z</time>
      </trkpt>
      <trkpt lat="45.82859" lon="1.92742">
        <ele>770.2</ele>
        <time>2026-07-07T10:48:11.000Z</time>
      </trkpt>
      <trkpt lat="45.82859" lon="1.92742">
        <ele>770.2</ele>
        <time>2026-07-07T10:48:12.000Z</time>
      </trkpt>
      <trkpt lat="45.82859" lon="1.92742">
        <ele>770.2</ele>
        <time>2026-07-07T10:48:13.000Z</time>
      </trkpt>
      <trkpt lat="45.82859" lon="1.92742">
        <ele>770.2</ele>
        <time>2026-07-07T10:48:14.000Z</time>
      </trkpt>
      <trkpt lat="45.82859" lon="1.92742">
        <ele>770.2</ele>
        <time>2026-07-07T10:48:15.000Z</time>
      </trkpt>
      <trkpt lat="45.82859" lon="1.92742">
        <ele>770.2</ele>
        <time>2026-07-07T10:48:16.000Z</time>
      </trkpt>
      <trkpt lat="45.82859" lon="1.92742">
        <ele>770.2</ele>
        <time>2026-07-07T10:48:17.000Z</time>
      </trkpt>
      <trkpt lat="45.82859" lon="1.92742">
        <ele>770.2</ele>
        <time>2026-07-07T10:48:18.000Z</time>
      </trkpt>
      <trkpt lat="45.82859" lon="1.92742">
        <ele>770.2</ele>
        <time>2026-07-07T10:48:19.000Z</time>
      </trkpt>
      <trkpt lat="45.82859" lon="1.92742">
        <ele>770.2</ele>
        <time>2026-07-07T10:48:20.000Z</time>
      </trkpt>
      <trkpt lat="45.82859" lon="1.92742">
        <ele>770.2</ele>
        <time>2026-07-07T10:48:21.000Z</time>
      </trkpt>
      <trkpt lat="45.82859" lon="1.92742">
        <ele>770.2</ele>
        <time>2026-07-07T10:48:22.000Z</time>
      </trkpt>
      <trkpt lat="45.82859" lon="1.92742">
        <ele>770.2</ele>
        <time>2026-07-07T10:48:23.000Z</time>
      </trkpt>
      <trkpt lat="45.82859" lon="1.92742">
        <ele>770.3</ele>
        <time>2026-07-07T10:48:24.000Z</time>
      </trkpt>
      <trkpt lat="45.82859" lon="1.92742">
        <ele>770.3</ele>
        <time>2026-07-07T10:48:25.000Z</time>
      </trkpt>
      <trkpt lat="45.82859" lon="1.92742">
        <ele>770.3</ele>
        <time>2026-07-07T10:48:26.000Z</time>
      </trkpt>
      <trkpt lat="45.82859" lon="1.92742">
        <ele>770.3</ele>
        <time>2026-07-07T10:48:27.000Z</time>
      </trkpt>
      <trkpt lat="45.82859" lon="1.92742">
        <ele>770.3</ele>
        <time>2026-07-07T10:48:28.000Z</time>
      </trkpt>
      <trkpt lat="45.82859" lon="1.92742">
        <ele>770.3</ele>
        <time>2026-07-07T10:48:29.000Z</time>
      </trkpt>
      <trkpt lat="45.82859" lon="1.92742">
        <ele>770.3</ele>
        <time>2026-07-07T10:48:30.000Z</time>
      </trkpt>
      <trkpt lat="45.82859" lon="1.92742">
        <ele>770.3</ele>
        <time>2026-07-07T10:48:31.000Z</time>
      </trkpt>
      <trkpt lat="45.82859" lon="1.92742">
        <ele>770.3</ele>
        <time>2026-07-07T10:48:32.000Z</time>
      </trkpt>
      <trkpt lat="45.82859" lon="1.92742">
        <ele>770.3</ele>
        <time>2026-07-07T10:48:33.000Z</time>
      </trkpt>
      <trkpt lat="45.82859" lon="1.92742">
        <ele>770.3</ele>
        <time>2026-07-07T10:48:34.000Z</time>
      </trkpt>
      <trkpt lat="45.82859" lon="1.92742">
        <ele>770.3</ele>
        <time>2026-07-07T10:48:35.000Z</time>
      </trkpt>
      <trkpt lat="45.82859" lon="1.92742">
        <ele>770.4</ele>
        <time>2026-07-07T10:48:36.000Z</time>
      </trkpt>
      <trkpt lat="45.82859" lon="1.92742">
        <ele>770.4</ele>
        <time>2026-07-07T10:48:37.000Z</time>
      </trkpt>
      <trkpt lat="45.82859" lon="1.92742">
        <ele>770.4</ele>
        <time>2026-07-07T10:48:38.000Z</time>
      </trkpt>
      <trkpt lat="45.82859" lon="1.92742">
        <ele>770.4</ele>
        <time>2026-07-07T10:48:39.000Z</time>
      </trkpt>
      <trkpt lat="45.82859" lon="1.92743">
        <ele>770.4</ele>
        <time>2026-07-07T10:48:40.000Z</time>
      </trkpt>
      <trkpt lat="45.82859" lon="1.92743">
        <ele>770.4</ele>
        <time>2026-07-07T10:48:41.000Z</time>
      </trkpt>
      <trkpt lat="45.82859" lon="1.92743">
        <ele>770.4</ele>
        <time>2026-07-07T10:48:42.000Z</time>
      </trkpt>
      <trkpt lat="45.82859" lon="1.92743">
        <ele>770.4</ele>
        <time>2026-07-07T10:48:43.000Z</time>
      </trkpt>
      <trkpt lat="45.82859" lon="1.92743">
        <ele>770.4</ele>
        <time>2026-07-07T10:48:44.000Z</time>
      </trkpt>
      <trkpt lat="45.82859" lon="1.92743">
        <ele>770.4</ele>
        <time>2026-07-07T10:48:45.000Z</time>
      </trkpt>
      <trkpt lat="45.82859" lon="1.92743">
        <ele>770.4</ele>
        <time>2026-07-07T10:48:46.000Z</time>
      </trkpt>
      <trkpt lat="45.82859" lon="1.92743">
        <ele>770.4</ele>
        <time>2026-07-07T10:48:47.000Z</time>
      </trkpt>
      <trkpt lat="45.82859" lon="1.92743">
        <ele>770.4</ele>
        <time>2026-07-07T10:48:48.000Z</time>
      </trkpt>
      <trkpt lat="45.82859" lon="1.92743">
        <ele>770.4</ele>
        <time>2026-07-07T10:48:49.000Z</time>
      </trkpt>
      <trkpt lat="45.82859" lon="1.92743">
        <ele>770.5</ele>
        <time>2026-07-07T10:48:50.000Z</time>
      </trkpt>
      <trkpt lat="45.82859" lon="1.92743">
        <ele>770.5</ele>
        <time>2026-07-07T10:48:51.000Z</time>
      </trkpt>
      <trkpt lat="45.82859" lon="1.92743">
        <ele>770.5</ele>
        <time>2026-07-07T10:48:52.000Z</time>
      </trkpt>
      <trkpt lat="45.82859" lon="1.92743">
        <ele>770.5</ele>
        <time>2026-07-07T10:48:53.000Z</time>
      </trkpt>
      <trkpt lat="45.82859" lon="1.92743">
        <ele>770.5</ele>
        <time>2026-07-07T10:48:54.000Z</time>
      </trkpt>
      <trkpt lat="45.82859" lon="1.92743">
        <ele>770.5</ele>
        <time>2026-07-07T10:48:55.000Z</time>
      </trkpt>
      <trkpt lat="45.82859" lon="1.92743">
        <ele>770.5</ele>
        <time>2026-07-07T10:48:56.000Z</time>
      </trkpt>
      <trkpt lat="45.82859" lon="1.92743">
        <ele>770.5</ele>
        <time>2026-07-07T10:48:57.000Z</time>
      </trkpt>
      <trkpt lat="45.82859" lon="1.92743">
        <ele>770.5</ele>
        <time>2026-07-07T10:48:58.000Z</time>
      </trkpt>
      <trkpt lat="45.82859" lon="1.92743">
        <ele>770.5</ele>
        <time>2026-07-07T10:48:59.000Z</time>
      </trkpt>
      <trkpt lat="45.82859" lon="1.92743">
        <ele>770.5</ele>
        <time>2026-07-07T10:49:00.000Z</time>
      </trkpt>
      <trkpt lat="45.82859" lon="1.92743">
        <ele>770.5</ele>
        <time>2026-07-07T10:49:01.000Z</time>
      </trkpt>
      <trkpt lat="45.82859" lon="1.92743">
        <ele>770.5</ele>
        <time>2026-07-07T10:49:02.000Z</time>
      </trkpt>
      <trkpt lat="45.82859" lon="1.92743">
        <ele>770.5</ele>
        <time>2026-07-07T10:49:03.000Z</time>
      </trkpt>
      <trkpt lat="45.82859" lon="1.92743">
        <ele>770.5</ele>
        <time>2026-07-07T10:49:04.000Z</time>
      </trkpt>
      <trkpt lat="45.82859" lon="1.92743">
        <ele>770.5</ele>
        <time>2026-07-07T10:49:05.000Z</time>
      </trkpt>
      <trkpt lat="45.82859" lon="1.92743">
        <ele>770.5</ele>
        <time>2026-07-07T10:49:06.000Z</time>
      </trkpt>
      <trkpt lat="45.82859" lon="1.92743">
        <ele>770.5</ele>
        <time>2026-07-07T10:49:07.000Z</time>
      </trkpt>
      <trkpt lat="45.82859" lon="1.92743">
        <ele>770.5</ele>
        <time>2026-07-07T10:49:08.000Z</time>
      </trkpt>
      <trkpt lat="45.82859" lon="1.92743">
        <ele>770.5</ele>
        <time>2026-07-07T10:49:09.000Z</time>
      </trkpt>
      <trkpt lat="45.82859" lon="1.92743">
        <ele>770.6</ele>
        <time>2026-07-07T10:49:10.000Z</time>
      </trkpt>
      <trkpt lat="45.82859" lon="1.92743">
        <ele>770.6</ele>
        <time>2026-07-07T10:49:11.000Z</time>
      </trkpt>
      <trkpt lat="45.82859" lon="1.92743">
        <ele>770.6</ele>
        <time>2026-07-07T10:49:12.000Z</time>
      </trkpt>
      <trkpt lat="45.82859" lon="1.92743">
        <ele>770.6</ele>
        <time>2026-07-07T10:49:13.000Z</time>
      </trkpt>
      <trkpt lat="45.82859" lon="1.92743">
        <ele>770.6</ele>
        <time>2026-07-07T10:49:14.000Z</time>
      </trkpt>
      <trkpt lat="45.82859" lon="1.92743">
        <ele>770.6</ele>
        <time>2026-07-07T10:49:15.000Z</time>
      </trkpt>
      <trkpt lat="45.82859" lon="1.92743">
        <ele>770.6</ele>
        <time>2026-07-07T10:49:16.000Z</time>
      </trkpt>
      <trkpt lat="45.82859" lon="1.92743">
        <ele>770.6</ele>
        <time>2026-07-07T10:49:17.000Z</time>
      </trkpt>
      <trkpt lat="45.82859" lon="1.92743">
        <ele>770.6</ele>
        <time>2026-07-07T10:49:18.000Z</time>
      </trkpt>
      <trkpt lat="45.82859" lon="1.92743">
        <ele>770.6</ele>
        <time>2026-07-07T10:49:19.000Z</time>
      </trkpt>
      <trkpt lat="45.82859" lon="1.92743">
        <ele>770.6</ele>
        <time>2026-07-07T10:49:20.000Z</time>
      </trkpt>
      <trkpt lat="45.82859" lon="1.92743">
        <ele>770.6</ele>
        <time>2026-07-07T10:49:21.000Z</time>
      </trkpt>
      <trkpt lat="45.82859" lon="1.92743">
        <ele>770.6</ele>
        <time>2026-07-07T10:49:22.000Z</time>
      </trkpt>
      <trkpt lat="45.82859" lon="1.92743">
        <ele>770.7</ele>
        <time>2026-07-07T10:49:23.000Z</time>
      </trkpt>
      <trkpt lat="45.82858" lon="1.92743">
        <ele>770.7</ele>
        <time>2026-07-07T10:49:24.000Z</time>
      </trkpt>
      <trkpt lat="45.82858" lon="1.92743">
        <ele>770.7</ele>
        <time>2026-07-07T10:49:25.000Z</time>
      </trkpt>
      <trkpt lat="45.82858" lon="1.92743">
        <ele>770.7</ele>
        <time>2026-07-07T10:49:27.000Z</time>
      </trkpt>
      <trkpt lat="45.82858" lon="1.92743">
        <ele>770.7</ele>
        <time>2026-07-07T10:49:28.000Z</time>
      </trkpt>
      <trkpt lat="45.82858" lon="1.92743">
        <ele>770.7</ele>
        <time>2026-07-07T10:49:29.000Z</time>
      </trkpt>
      <trkpt lat="45.82858" lon="1.92743">
        <ele>770.7</ele>
        <time>2026-07-07T10:49:30.000Z</time>
      </trkpt>
      <trkpt lat="45.82858" lon="1.92743">
        <ele>770.7</ele>
        <time>2026-07-07T10:49:31.000Z</time>
      </trkpt>
      <trkpt lat="45.82858" lon="1.92743">
        <ele>770.7</ele>
        <time>2026-07-07T10:49:32.000Z</time>
      </trkpt>
      <trkpt lat="45.82858" lon="1.92743">
        <ele>770.7</ele>
        <time>2026-07-07T10:49:33.000Z</time>
      </trkpt>
      <trkpt lat="45.82858" lon="1.92743">
        <ele>770.8</ele>
        <time>2026-07-07T10:49:34.000Z</time>
      </trkpt>
      <trkpt lat="45.82858" lon="1.92743">
        <ele>770.8</ele>
        <time>2026-07-07T10:49:35.000Z</time>
      </trkpt>
      <trkpt lat="45.82858" lon="1.92743">
        <ele>770.8</ele>
        <time>2026-07-07T10:49:36.000Z</time>
      </trkpt>
      <trkpt lat="45.82858" lon="1.92743">
        <ele>770.8</ele>
        <time>2026-07-07T10:49:37.000Z</time>
      </trkpt>
      <trkpt lat="45.82858" lon="1.92743">
        <ele>770.8</ele>
        <time>2026-07-07T10:49:38.000Z</time>
      </trkpt>
      <trkpt lat="45.82858" lon="1.92743">
        <ele>770.8</ele>
        <time>2026-07-07T10:49:39.000Z</time>
      </trkpt>
      <trkpt lat="45.82858" lon="1.92743">
        <ele>770.8</ele>
        <time>2026-07-07T10:49:40.000Z</time>
      </trkpt>
      <trkpt lat="45.82858" lon="1.92743">
        <ele>770.8</ele>
        <time>2026-07-07T10:49:41.000Z</time>
      </trkpt>
      <trkpt lat="45.82858" lon="1.92743">
        <ele>770.8</ele>
        <time>2026-07-07T10:49:42.000Z</time>
      </trkpt>
      <trkpt lat="45.82858" lon="1.92743">
        <ele>770.8</ele>
        <time>2026-07-07T10:49:43.000Z</time>
      </trkpt>
      <trkpt lat="45.82858" lon="1.92743">
        <ele>770.8</ele>
        <time>2026-07-07T10:49:44.000Z</time>
      </trkpt>
      <trkpt lat="45.82858" lon="1.92743">
        <ele>770.8</ele>
        <time>2026-07-07T10:49:45.000Z</time>
      </trkpt>
      <trkpt lat="45.82858" lon="1.92743">
        <ele>770.8</ele>
        <time>2026-07-07T10:49:46.000Z</time>
      </trkpt>
      <trkpt lat="45.82858" lon="1.92743">
        <ele>770.8</ele>
        <time>2026-07-07T10:49:47.000Z</time>
      </trkpt>
      <trkpt lat="45.82858" lon="1.92743">
        <ele>770.8</ele>
        <time>2026-07-07T10:49:48.000Z</time>
      </trkpt>
      <trkpt lat="45.82858" lon="1.92743">
        <ele>770.8</ele>
        <time>2026-07-07T10:49:49.000Z</time>
      </trkpt>
      <trkpt lat="45.82858" lon="1.92743">
        <ele>770.8</ele>
        <time>2026-07-07T10:49:50.000Z</time>
      </trkpt>
      <trkpt lat="45.82858" lon="1.92743">
        <ele>770.8</ele>
        <time>2026-07-07T10:49:51.000Z</time>
      </trkpt>
      <trkpt lat="45.82858" lon="1.92743">
        <ele>770.8</ele>
        <time>2026-07-07T10:49:52.000Z</time>
      </trkpt>
      <trkpt lat="45.82858" lon="1.92743">
        <ele>770.8</ele>
        <time>2026-07-07T10:49:53.000Z</time>
      </trkpt>
      <trkpt lat="45.82858" lon="1.92743">
        <ele>770.8</ele>
        <time>2026-07-07T10:49:54.000Z</time>
      </trkpt>
      <trkpt lat="45.82858" lon="1.92743">
        <ele>770.8</ele>
        <time>2026-07-07T10:49:55.000Z</time>
      </trkpt>
      <trkpt lat="45.82858" lon="1.92743">
        <ele>770.8</ele>
        <time>2026-07-07T10:49:56.000Z</time>
      </trkpt>
      <trkpt lat="45.82858" lon="1.92743">
        <ele>770.8</ele>
        <time>2026-07-07T10:49:57.000Z</time>
      </trkpt>
      <trkpt lat="45.82858" lon="1.92743">
        <ele>770.8</ele>
        <time>2026-07-07T10:49:58.000Z</time>
      </trkpt>
      <trkpt lat="45.82858" lon="1.92743">
        <ele>770.8</ele>
        <time>2026-07-07T10:49:59.000Z</time>
      </trkpt>
      <trkpt lat="45.82858" lon="1.92743">
        <ele>770.8</ele>
        <time>2026-07-07T10:50:00.000Z</time>
      </trkpt>
      <trkpt lat="45.82858" lon="1.92743">
        <ele>770.8</ele>
        <time>2026-07-07T10:50:01.000Z</time>
      </trkpt>
      <trkpt lat="45.82858" lon="1.92743">
        <ele>770.8</ele>
        <time>2026-07-07T10:50:02.000Z</time>
      </trkpt>
      <trkpt lat="45.82858" lon="1.92743">
        <ele>770.8</ele>
        <time>2026-07-07T10:50:03.000Z</time>
      </trkpt>
      <trkpt lat="45.82858" lon="1.92743">
        <ele>770.8</ele>
        <time>2026-07-07T10:50:04.000Z</time>
      </trkpt>
      <trkpt lat="45.82858" lon="1.92743">
        <ele>770.8</ele>
        <time>2026-07-07T10:50:05.000Z</time>
      </trkpt>
      <trkpt lat="45.82858" lon="1.92743">
        <ele>770.8</ele>
        <time>2026-07-07T10:50:06.000Z</time>
      </trkpt>
      <trkpt lat="45.82858" lon="1.92743">
        <ele>770.8</ele>
        <time>2026-07-07T10:50:07.000Z</time>
      </trkpt>
      <trkpt lat="45.82858" lon="1.92743">
        <ele>770.8</ele>
        <time>2026-07-07T10:50:08.000Z</time>
      </trkpt>
      <trkpt lat="45.82858" lon="1.92743">
        <ele>770.8</ele>
        <time>2026-07-07T10:50:09.000Z</time>
      </trkpt>
      <trkpt lat="45.82858" lon="1.92743">
        <ele>770.8</ele>
        <time>2026-07-07T10:50:10.000Z</time>
      </trkpt>
      <trkpt lat="45.82858" lon="1.92743">
        <ele>770.8</ele>
        <time>2026-07-07T10:50:11.000Z</time>
      </trkpt>
      <trkpt lat="45.82858" lon="1.92743">
        <ele>770.9</ele>
        <time>2026-07-07T10:50:12.000Z</time>
      </trkpt>
      <trkpt lat="45.82858" lon="1.92743">
        <ele>770.9</ele>
        <time>2026-07-07T10:50:13.000Z</time>
      </trkpt>
      <trkpt lat="45.82858" lon="1.92743">
        <ele>770.9</ele>
        <time>2026-07-07T10:50:14.000Z</time>
      </trkpt>
      <trkpt lat="45.82858" lon="1.92743">
        <ele>770.9</ele>
        <time>2026-07-07T10:50:15.000Z</time>
      </trkpt>
      <trkpt lat="45.82858" lon="1.92743">
        <ele>770.9</ele>
        <time>2026-07-07T10:50:16.000Z</time>
      </trkpt>
      <trkpt lat="45.82858" lon="1.92743">
        <ele>770.9</ele>
        <time>2026-07-07T10:50:17.000Z</time>
      </trkpt>
      <trkpt lat="45.82858" lon="1.92743">
        <ele>770.9</ele>
        <time>2026-07-07T10:50:18.000Z</time>
      </trkpt>
      <trkpt lat="45.82858" lon="1.92743">
        <ele>770.9</ele>
        <time>2026-07-07T10:50:19.000Z</time>
      </trkpt>
      <trkpt lat="45.82858" lon="1.92743">
        <ele>770.9</ele>
        <time>2026-07-07T10:50:20.000Z</time>
      </trkpt>
      <trkpt lat="45.82858" lon="1.92743">
        <ele>770.9</ele>
        <time>2026-07-07T10:50:21.000Z</time>
      </trkpt>
      <trkpt lat="45.82858" lon="1.92743">
        <ele>770.9</ele>
        <time>2026-07-07T10:50:22.000Z</time>
      </trkpt>
      <trkpt lat="45.82858" lon="1.92743">
        <ele>770.9</ele>
        <time>2026-07-07T10:50:23.000Z</time>
      </trkpt>
      <trkpt lat="45.82858" lon="1.92743">
        <ele>770.9</ele>
        <time>2026-07-07T10:50:24.000Z</time>
      </trkpt>
      <trkpt lat="45.82858" lon="1.92743">
        <ele>770.9</ele>
        <time>2026-07-07T10:50:25.000Z</time>
      </trkpt>
      <trkpt lat="45.82858" lon="1.92743">
        <ele>770.9</ele>
        <time>2026-07-07T10:50:26.000Z</time>
      </trkpt>
      <trkpt lat="45.82858" lon="1.92743">
        <ele>770.9</ele>
        <time>2026-07-07T10:50:27.000Z</time>
      </trkpt>
      <trkpt lat="45.82858" lon="1.92743">
        <ele>770.9</ele>
        <time>2026-07-07T10:50:28.000Z</time>
      </trkpt>
      <trkpt lat="45.82858" lon="1.92743">
        <ele>770.9</ele>
        <time>2026-07-07T10:50:29.000Z</time>
      </trkpt>
      <trkpt lat="45.82858" lon="1.92743">
        <ele>770.9</ele>
        <time>2026-07-07T10:50:30.000Z</time>
      </trkpt>
      <trkpt lat="45.82858" lon="1.92743">
        <ele>770.9</ele>
        <time>2026-07-07T10:50:31.000Z</time>
      </trkpt>
      <trkpt lat="45.82858" lon="1.92743">
        <ele>770.9</ele>
        <time>2026-07-07T10:50:32.000Z</time>
      </trkpt>
      <trkpt lat="45.82858" lon="1.92743">
        <ele>770.9</ele>
        <time>2026-07-07T10:50:33.000Z</time>
      </trkpt>
      <trkpt lat="45.82858" lon="1.92743">
        <ele>770.9</ele>
        <time>2026-07-07T10:50:34.000Z</time>
      </trkpt>
      <trkpt lat="45.82858" lon="1.92743">
        <ele>770.9</ele>
        <time>2026-07-07T10:50:35.000Z</time>
      </trkpt>
      <trkpt lat="45.82858" lon="1.92743">
        <ele>770.9</ele>
        <time>2026-07-07T10:50:36.000Z</time>
      </trkpt>
      <trkpt lat="45.82858" lon="1.92743">
        <ele>770.9</ele>
        <time>2026-07-07T10:50:37.000Z</time>
      </trkpt>
      <trkpt lat="45.82858" lon="1.92743">
        <ele>771</ele>
        <time>2026-07-07T10:50:38.000Z</time>
      </trkpt>
      <trkpt lat="45.82858" lon="1.92743">
        <ele>771</ele>
        <time>2026-07-07T10:50:39.000Z</time>
      </trkpt>
      <trkpt lat="45.82858" lon="1.92743">
        <ele>771</ele>
        <time>2026-07-07T10:50:40.000Z</time>
      </trkpt>
      <trkpt lat="45.82858" lon="1.92743">
        <ele>771</ele>
        <time>2026-07-07T10:50:41.000Z</time>
      </trkpt>
      <trkpt lat="45.82858" lon="1.92743">
        <ele>771</ele>
        <time>2026-07-07T10:50:42.000Z</time>
      </trkpt>
      <trkpt lat="45.82858" lon="1.92743">
        <ele>771</ele>
        <time>2026-07-07T10:50:43.000Z</time>
      </trkpt>
      <trkpt lat="45.82858" lon="1.92743">
        <ele>771</ele>
        <time>2026-07-07T10:50:44.000Z</time>
      </trkpt>
      <trkpt lat="45.82858" lon="1.92743">
        <ele>771</ele>
        <time>2026-07-07T10:50:45.000Z</time>
      </trkpt>
      <trkpt lat="45.82858" lon="1.92743">
        <ele>771</ele>
        <time>2026-07-07T10:50:46.000Z</time>
      </trkpt>
      <trkpt lat="45.82858" lon="1.92743">
        <ele>771</ele>
        <time>2026-07-07T10:50:47.000Z</time>
      </trkpt>
      <trkpt lat="45.82858" lon="1.92743">
        <ele>771</ele>
        <time>2026-07-07T10:50:48.000Z</time>
      </trkpt>
      <trkpt lat="45.82858" lon="1.92743">
        <ele>771</ele>
        <time>2026-07-07T10:50:49.000Z</time>
      </trkpt>
      <trkpt lat="45.82858" lon="1.92743">
        <ele>771</ele>
        <time>2026-07-07T10:50:50.000Z</time>
      </trkpt>
      <trkpt lat="45.82858" lon="1.92743">
        <ele>771</ele>
        <time>2026-07-07T10:50:51.000Z</time>
      </trkpt>
      <trkpt lat="45.82858" lon="1.92743">
        <ele>771</ele>
        <time>2026-07-07T10:50:52.000Z</time>
      </trkpt>
      <trkpt lat="45.82858" lon="1.92743">
        <ele>771</ele>
        <time>2026-07-07T10:50:53.000Z</time>
      </trkpt>
      <trkpt lat="45.82858" lon="1.92743">
        <ele>771</ele>
        <time>2026-07-07T10:50:54.000Z</time>
      </trkpt>
      <trkpt lat="45.82858" lon="1.92743">
        <ele>771</ele>
        <time>2026-07-07T10:50:55.000Z</time>
      </trkpt>
      <trkpt lat="45.82858" lon="1.92743">
        <ele>771</ele>
        <time>2026-07-07T10:50:56.000Z</time>
      </trkpt>
      <trkpt lat="45.82858" lon="1.92743">
        <ele>771</ele>
        <time>2026-07-07T10:50:57.000Z</time>
      </trkpt>
      <trkpt lat="45.82858" lon="1.92743">
        <ele>771</ele>
        <time>2026-07-07T10:50:58.000Z</time>
      </trkpt>
      <trkpt lat="45.82858" lon="1.92743">
        <ele>771</ele>
        <time>2026-07-07T10:50:59.000Z</time>
      </trkpt>
      <trkpt lat="45.82858" lon="1.92743">
        <ele>771</ele>
        <time>2026-07-07T10:51:00.000Z</time>
      </trkpt>
      <trkpt lat="45.82858" lon="1.92743">
        <ele>771</ele>
        <time>2026-07-07T10:51:01.000Z</time>
      </trkpt>
      <trkpt lat="45.82858" lon="1.92743">
        <ele>771</ele>
        <time>2026-07-07T10:51:02.000Z</time>
      </trkpt>
      <trkpt lat="45.82858" lon="1.92743">
        <ele>771</ele>
        <time>2026-07-07T10:51:03.000Z</time>
      </trkpt>
      <trkpt lat="45.82858" lon="1.92743">
        <ele>771</ele>
        <time>2026-07-07T10:51:04.000Z</time>
      </trkpt>
      <trkpt lat="45.82858" lon="1.92743">
        <ele>771</ele>
        <time>2026-07-07T10:51:05.000Z</time>
      </trkpt>
      <trkpt lat="45.82858" lon="1.92743">
        <ele>771</ele>
        <time>2026-07-07T10:51:06.000Z</time>
      </trkpt>
      <trkpt lat="45.82858" lon="1.92743">
        <ele>771</ele>
        <time>2026-07-07T10:51:07.000Z</time>
      </trkpt>
      <trkpt lat="45.82858" lon="1.92743">
        <ele>771</ele>
        <time>2026-07-07T10:51:08.000Z</time>
      </trkpt>
      <trkpt lat="45.82858" lon="1.92743">
        <ele>771</ele>
        <time>2026-07-07T10:51:09.000Z</time>
      </trkpt>
      <trkpt lat="45.82858" lon="1.92743">
        <ele>771</ele>
        <time>2026-07-07T10:51:10.000Z</time>
      </trkpt>
      <trkpt lat="45.82858" lon="1.92743">
        <ele>771.1</ele>
        <time>2026-07-07T10:51:11.000Z</time>
      </trkpt>
      <trkpt lat="45.82858" lon="1.92743">
        <ele>771.1</ele>
        <time>2026-07-07T10:51:12.000Z</time>
      </trkpt>
      <trkpt lat="45.82858" lon="1.92743">
        <ele>771.1</ele>
        <time>2026-07-07T10:51:13.000Z</time>
      </trkpt>
      <trkpt lat="45.82858" lon="1.92743">
        <ele>771.1</ele>
        <time>2026-07-07T10:51:14.000Z</time>
      </trkpt>
      <trkpt lat="45.82858" lon="1.92743">
        <ele>771.1</ele>
        <time>2026-07-07T10:51:15.000Z</time>
      </trkpt>
      <trkpt lat="45.82858" lon="1.92743">
        <ele>771.1</ele>
        <time>2026-07-07T10:51:16.000Z</time>
      </trkpt>
      <trkpt lat="45.82858" lon="1.92743">
        <ele>771.1</ele>
        <time>2026-07-07T10:51:17.000Z</time>
      </trkpt>
      <trkpt lat="45.82858" lon="1.92743">
        <ele>771.1</ele>
        <time>2026-07-07T10:51:18.000Z</time>
      </trkpt>
      <trkpt lat="45.82858" lon="1.92743">
        <ele>771.1</ele>
        <time>2026-07-07T10:51:19.000Z</time>
      </trkpt>
      <trkpt lat="45.82858" lon="1.92743">
        <ele>771.1</ele>
        <time>2026-07-07T10:51:20.000Z</time>
      </trkpt>
      <trkpt lat="45.82858" lon="1.92743">
        <ele>771.1</ele>
        <time>2026-07-07T10:51:21.000Z</time>
      </trkpt>
      <trkpt lat="45.82858" lon="1.92743">
        <ele>771.2</ele>
        <time>2026-07-07T10:51:22.000Z</time>
      </trkpt>
      <trkpt lat="45.82858" lon="1.92743">
        <ele>771.2</ele>
        <time>2026-07-07T10:51:23.000Z</time>
      </trkpt>
      <trkpt lat="45.82858" lon="1.92743">
        <ele>771.2</ele>
        <time>2026-07-07T10:51:24.000Z</time>
      </trkpt>
      <trkpt lat="45.82858" lon="1.92743">
        <ele>771.2</ele>
        <time>2026-07-07T10:51:25.000Z</time>
      </trkpt>
      <trkpt lat="45.82858" lon="1.92743">
        <ele>771.2</ele>
        <time>2026-07-07T10:51:26.000Z</time>
      </trkpt>
      <trkpt lat="45.82858" lon="1.92743">
        <ele>771.2</ele>
        <time>2026-07-07T10:51:27.000Z</time>
      </trkpt>
      <trkpt lat="45.82858" lon="1.92743">
        <ele>771.2</ele>
        <time>2026-07-07T10:51:28.000Z</time>
      </trkpt>
      <trkpt lat="45.82858" lon="1.92743">
        <ele>771.2</ele>
        <time>2026-07-07T10:51:29.000Z</time>
      </trkpt>
      <trkpt lat="45.82858" lon="1.92743">
        <ele>771.2</ele>
        <time>2026-07-07T10:51:30.000Z</time>
      </trkpt>
      <trkpt lat="45.82858" lon="1.92743">
        <ele>771.2</ele>
        <time>2026-07-07T10:51:31.000Z</time>
      </trkpt>
      <trkpt lat="45.82858" lon="1.92743">
        <ele>771.2</ele>
        <time>2026-07-07T10:51:32.000Z</time>
      </trkpt>
      <trkpt lat="45.82858" lon="1.92743">
        <ele>771.2</ele>
        <time>2026-07-07T10:51:33.000Z</time>
      </trkpt>
      <trkpt lat="45.82858" lon="1.92743">
        <ele>771.2</ele>
        <time>2026-07-07T10:51:34.000Z</time>
      </trkpt>
      <trkpt lat="45.82858" lon="1.92743">
        <ele>771.2</ele>
        <time>2026-07-07T10:51:35.000Z</time>
      </trkpt>
      <trkpt lat="45.82858" lon="1.92743">
        <ele>771.2</ele>
        <time>2026-07-07T10:51:36.000Z</time>
      </trkpt>
      <trkpt lat="45.82858" lon="1.92743">
        <ele>771.2</ele>
        <time>2026-07-07T10:51:37.000Z</time>
      </trkpt>
      <trkpt lat="45.82858" lon="1.92743">
        <ele>771.2</ele>
        <time>2026-07-07T10:51:38.000Z</time>
      </trkpt>
      <trkpt lat="45.82858" lon="1.92743">
        <ele>771.2</ele>
        <time>2026-07-07T10:51:39.000Z</time>
      </trkpt>
      <trkpt lat="45.82858" lon="1.92743">
        <ele>771.2</ele>
        <time>2026-07-07T10:51:40.000Z</time>
      </trkpt>
      <trkpt lat="45.82858" lon="1.92743">
        <ele>771.2</ele>
        <time>2026-07-07T10:51:41.000Z</time>
      </trkpt>
      <trkpt lat="45.82858" lon="1.92743">
        <ele>771.3</ele>
        <time>2026-07-07T10:51:42.000Z</time>
      </trkpt>
      <trkpt lat="45.82858" lon="1.92743">
        <ele>771.3</ele>
        <time>2026-07-07T10:51:43.000Z</time>
      </trkpt>
      <trkpt lat="45.82858" lon="1.92743">
        <ele>771.3</ele>
        <time>2026-07-07T10:51:44.000Z</time>
      </trkpt>
      <trkpt lat="45.82858" lon="1.92743">
        <ele>771.3</ele>
        <time>2026-07-07T10:51:45.000Z</time>
      </trkpt>
      <trkpt lat="45.82858" lon="1.92743">
        <ele>771.3</ele>
        <time>2026-07-07T10:51:46.000Z</time>
      </trkpt>
      <trkpt lat="45.82858" lon="1.92743">
        <ele>771.3</ele>
        <time>2026-07-07T10:51:47.000Z</time>
      </trkpt>
      <trkpt lat="45.82858" lon="1.92743">
        <ele>771.3</ele>
        <time>2026-07-07T10:51:48.000Z</time>
      </trkpt>
      <trkpt lat="45.82858" lon="1.92743">
        <ele>771.3</ele>
        <time>2026-07-07T10:51:49.000Z</time>
      </trkpt>
      <trkpt lat="45.82858" lon="1.92743">
        <ele>771.3</ele>
        <time>2026-07-07T10:51:50.000Z</time>
      </trkpt>
      <trkpt lat="45.82858" lon="1.92743">
        <ele>771.3</ele>
        <time>2026-07-07T10:51:51.000Z</time>
      </trkpt>
      <trkpt lat="45.82858" lon="1.92743">
        <ele>771.3</ele>
        <time>2026-07-07T10:51:52.000Z</time>
      </trkpt>
      <trkpt lat="45.82858" lon="1.92743">
        <ele>771.3</ele>
        <time>2026-07-07T10:51:53.000Z</time>
      </trkpt>
      <trkpt lat="45.82858" lon="1.92743">
        <ele>771.3</ele>
        <time>2026-07-07T10:51:54.000Z</time>
      </trkpt>
      <trkpt lat="45.82858" lon="1.92743">
        <ele>771.3</ele>
        <time>2026-07-07T10:51:55.000Z</time>
      </trkpt>
      <trkpt lat="45.82858" lon="1.92743">
        <ele>771.3</ele>
        <time>2026-07-07T10:51:56.000Z</time>
      </trkpt>
      <trkpt lat="45.82858" lon="1.92743">
        <ele>771.3</ele>
        <time>2026-07-07T10:51:57.000Z</time>
      </trkpt>
      <trkpt lat="45.82858" lon="1.92743">
        <ele>771.3</ele>
        <time>2026-07-07T10:51:58.000Z</time>
      </trkpt>
      <trkpt lat="45.82858" lon="1.92743">
        <ele>771.3</ele>
        <time>2026-07-07T10:51:59.000Z</time>
      </trkpt>
      <trkpt lat="45.82858" lon="1.92743">
        <ele>771.3</ele>
        <time>2026-07-07T10:52:00.000Z</time>
      </trkpt>
      <trkpt lat="45.82858" lon="1.92743">
        <ele>771.3</ele>
        <time>2026-07-07T10:52:01.000Z</time>
      </trkpt>
      <trkpt lat="45.82858" lon="1.92743">
        <ele>771.3</ele>
        <time>2026-07-07T10:52:02.000Z</time>
      </trkpt>
      <trkpt lat="45.82858" lon="1.92743">
        <ele>771.3</ele>
        <time>2026-07-07T10:52:03.000Z</time>
      </trkpt>
      <trkpt lat="45.82858" lon="1.92743">
        <ele>771.3</ele>
        <time>2026-07-07T10:52:04.000Z</time>
      </trkpt>
      <trkpt lat="45.82858" lon="1.92743">
        <ele>771.3</ele>
        <time>2026-07-07T10:52:05.000Z</time>
      </trkpt>
      <trkpt lat="45.82858" lon="1.92743">
        <ele>771.3</ele>
        <time>2026-07-07T10:52:06.000Z</time>
      </trkpt>
      <trkpt lat="45.82858" lon="1.92743">
        <ele>771.3</ele>
        <time>2026-07-07T10:52:07.000Z</time>
      </trkpt>
      <trkpt lat="45.82858" lon="1.92743">
        <ele>771.3</ele>
        <time>2026-07-07T10:52:08.000Z</time>
      </trkpt>
      <trkpt lat="45.82858" lon="1.92743">
        <ele>771.3</ele>
        <time>2026-07-07T10:52:09.000Z</time>
      </trkpt>
      <trkpt lat="45.82858" lon="1.92743">
        <ele>771.4</ele>
        <time>2026-07-07T10:52:10.000Z</time>
      </trkpt>
      <trkpt lat="45.82858" lon="1.92743">
        <ele>771.4</ele>
        <time>2026-07-07T10:52:11.000Z</time>
      </trkpt>
      <trkpt lat="45.82858" lon="1.92743">
        <ele>771.4</ele>
        <time>2026-07-07T10:52:12.000Z</time>
      </trkpt>
      <trkpt lat="45.82858" lon="1.92743">
        <ele>771.4</ele>
        <time>2026-07-07T10:52:13.000Z</time>
      </trkpt>
      <trkpt lat="45.82858" lon="1.92743">
        <ele>771.4</ele>
        <time>2026-07-07T10:52:14.000Z</time>
      </trkpt>
      <trkpt lat="45.82858" lon="1.92743">
        <ele>771.4</ele>
        <time>2026-07-07T10:52:15.000Z</time>
      </trkpt>
      <trkpt lat="45.82858" lon="1.92743">
        <ele>771.4</ele>
        <time>2026-07-07T10:52:16.000Z</time>
      </trkpt>
      <trkpt lat="45.82858" lon="1.92743">
        <ele>771.4</ele>
        <time>2026-07-07T10:52:17.000Z</time>
      </trkpt>
      <trkpt lat="45.82858" lon="1.92743">
        <ele>771.4</ele>
        <time>2026-07-07T10:52:18.000Z</time>
      </trkpt>
      <trkpt lat="45.82858" lon="1.92743">
        <ele>771.4</ele>
        <time>2026-07-07T10:52:19.000Z</time>
      </trkpt>
      <trkpt lat="45.82858" lon="1.92743">
        <ele>771.4</ele>
        <time>2026-07-07T10:52:20.000Z</time>
      </trkpt>
      <trkpt lat="45.82858" lon="1.92743">
        <ele>771.4</ele>
        <time>2026-07-07T10:52:21.000Z</time>
      </trkpt>
      <trkpt lat="45.82858" lon="1.92743">
        <ele>771.4</ele>
        <time>2026-07-07T10:52:22.000Z</time>
      </trkpt>
      <trkpt lat="45.82858" lon="1.92743">
        <ele>771.4</ele>
        <time>2026-07-07T10:52:23.000Z</time>
      </trkpt>
      <trkpt lat="45.82858" lon="1.92743">
        <ele>771.4</ele>
        <time>2026-07-07T10:52:24.000Z</time>
      </trkpt>
      <trkpt lat="45.82858" lon="1.92743">
        <ele>771.4</ele>
        <time>2026-07-07T10:52:25.000Z</time>
      </trkpt>
      <trkpt lat="45.82858" lon="1.92743">
        <ele>771.4</ele>
        <time>2026-07-07T10:52:26.000Z</time>
      </trkpt>
      <trkpt lat="45.82858" lon="1.92743">
        <ele>771.4</ele>
        <time>2026-07-07T10:52:27.000Z</time>
      </trkpt>
      <trkpt lat="45.82858" lon="1.92743">
        <ele>771.4</ele>
        <time>2026-07-07T10:52:28.000Z</time>
      </trkpt>
      <trkpt lat="45.82858" lon="1.92743">
        <ele>771.4</ele>
        <time>2026-07-07T10:52:29.000Z</time>
      </trkpt>
      <trkpt lat="45.82858" lon="1.92743">
        <ele>771.4</ele>
        <time>2026-07-07T10:52:30.000Z</time>
      </trkpt>
      <trkpt lat="45.82858" lon="1.92743">
        <ele>771.4</ele>
        <time>2026-07-07T10:52:31.000Z</time>
      </trkpt>
      <trkpt lat="45.82858" lon="1.92743">
        <ele>771.4</ele>
        <time>2026-07-07T10:52:32.000Z</time>
      </trkpt>
      <trkpt lat="45.82858" lon="1.92743">
        <ele>771.4</ele>
        <time>2026-07-07T10:52:33.000Z</time>
      </trkpt>
      <trkpt lat="45.82858" lon="1.92743">
        <ele>771.4</ele>
        <time>2026-07-07T10:52:34.000Z</time>
      </trkpt>
      <trkpt lat="45.82858" lon="1.92743">
        <ele>771.4</ele>
        <time>2026-07-07T10:52:35.000Z</time>
      </trkpt>
      <trkpt lat="45.82858" lon="1.92743">
        <ele>771.4</ele>
        <time>2026-07-07T10:52:36.000Z</time>
      </trkpt>
      <trkpt lat="45.82858" lon="1.92743">
        <ele>771.4</ele>
        <time>2026-07-07T10:52:37.000Z</time>
      </trkpt>
      <trkpt lat="45.82858" lon="1.92743">
        <ele>771.4</ele>
        <time>2026-07-07T10:52:38.000Z</time>
      </trkpt>
      <trkpt lat="45.82858" lon="1.92743">
        <ele>771.4</ele>
        <time>2026-07-07T10:52:39.000Z</time>
      </trkpt>
      <trkpt lat="45.82858" lon="1.92743">
        <ele>771.4</ele>
        <time>2026-07-07T10:52:40.000Z</time>
      </trkpt>
      <trkpt lat="45.82858" lon="1.92743">
        <ele>771.4</ele>
        <time>2026-07-07T10:52:41.000Z</time>
      </trkpt>
      <trkpt lat="45.82858" lon="1.92743">
        <ele>771.4</ele>
        <time>2026-07-07T10:52:42.000Z</time>
      </trkpt>
      <trkpt lat="45.82858" lon="1.92743">
        <ele>771.4</ele>
        <time>2026-07-07T10:52:43.000Z</time>
      </trkpt>
      <trkpt lat="45.82858" lon="1.92743">
        <ele>771.4</ele>
        <time>2026-07-07T10:52:44.000Z</time>
      </trkpt>
      <trkpt lat="45.82858" lon="1.92744">
        <ele>771.4</ele>
        <time>2026-07-07T10:52:45.000Z</time>
      </trkpt>
      <trkpt lat="45.82858" lon="1.92744">
        <ele>771.4</ele>
        <time>2026-07-07T10:52:46.000Z</time>
      </trkpt>
      <trkpt lat="45.82858" lon="1.92744">
        <ele>771.4</ele>
        <time>2026-07-07T10:52:47.000Z</time>
      </trkpt>
      <trkpt lat="45.82858" lon="1.92744">
        <ele>771.4</ele>
        <time>2026-07-07T10:52:48.000Z</time>
      </trkpt>
      <trkpt lat="45.82858" lon="1.92744">
        <ele>771.4</ele>
        <time>2026-07-07T10:52:49.000Z</time>
      </trkpt>
      <trkpt lat="45.82858" lon="1.92744">
        <ele>771.4</ele>
        <time>2026-07-07T10:52:50.000Z</time>
      </trkpt>
      <trkpt lat="45.82858" lon="1.92744">
        <ele>771.4</ele>
        <time>2026-07-07T10:52:51.000Z</time>
      </trkpt>
      <trkpt lat="45.82858" lon="1.92744">
        <ele>771.5</ele>
        <time>2026-07-07T10:52:52.000Z</time>
      </trkpt>
      <trkpt lat="45.82858" lon="1.92744">
        <ele>771.5</ele>
        <time>2026-07-07T10:52:53.000Z</time>
      </trkpt>
      <trkpt lat="45.82858" lon="1.92744">
        <ele>771.5</ele>
        <time>2026-07-07T10:52:54.000Z</time>
      </trkpt>
      <trkpt lat="45.82858" lon="1.92744">
        <ele>771.5</ele>
        <time>2026-07-07T10:52:55.000Z</time>
      </trkpt>
      <trkpt lat="45.82858" lon="1.92744">
        <ele>771.5</ele>
        <time>2026-07-07T10:52:56.000Z</time>
      </trkpt>
      <trkpt lat="45.82858" lon="1.92744">
        <ele>771.5</ele>
        <time>2026-07-07T10:52:57.000Z</time>
      </trkpt>
      <trkpt lat="45.82858" lon="1.92744">
        <ele>771.5</ele>
        <time>2026-07-07T10:52:58.000Z</time>
      </trkpt>
      <trkpt lat="45.82858" lon="1.92744">
        <ele>771.5</ele>
        <time>2026-07-07T10:52:59.000Z</time>
      </trkpt>
      <trkpt lat="45.82858" lon="1.92744">
        <ele>771.5</ele>
        <time>2026-07-07T10:53:00.000Z</time>
      </trkpt>
      <trkpt lat="45.82858" lon="1.92744">
        <ele>771.5</ele>
        <time>2026-07-07T10:53:01.000Z</time>
      </trkpt>
      <trkpt lat="45.82858" lon="1.92744">
        <ele>771.5</ele>
        <time>2026-07-07T10:53:02.000Z</time>
      </trkpt>
      <trkpt lat="45.82858" lon="1.92744">
        <ele>771.5</ele>
        <time>2026-07-07T10:53:03.000Z</time>
      </trkpt>
      <trkpt lat="45.82858" lon="1.92744">
        <ele>771.5</ele>
        <time>2026-07-07T10:53:04.000Z</time>
      </trkpt>
      <trkpt lat="45.82858" lon="1.92744">
        <ele>771.5</ele>
        <time>2026-07-07T10:53:05.000Z</time>
      </trkpt>
      <trkpt lat="45.82858" lon="1.92744">
        <ele>771.5</ele>
        <time>2026-07-07T10:53:06.000Z</time>
      </trkpt>
      <trkpt lat="45.82858" lon="1.92744">
        <ele>771.6</ele>
        <time>2026-07-07T10:53:07.000Z</time>
      </trkpt>
      <trkpt lat="45.82858" lon="1.92744">
        <ele>771.6</ele>
        <time>2026-07-07T10:53:08.000Z</time>
      </trkpt>
      <trkpt lat="45.82858" lon="1.92744">
        <ele>771.6</ele>
        <time>2026-07-07T10:53:09.000Z</time>
      </trkpt>
      <trkpt lat="45.82858" lon="1.92744">
        <ele>771.6</ele>
        <time>2026-07-07T10:53:10.000Z</time>
      </trkpt>
      <trkpt lat="45.82858" lon="1.92744">
        <ele>771.6</ele>
        <time>2026-07-07T10:53:11.000Z</time>
      </trkpt>
      <trkpt lat="45.82858" lon="1.92744">
        <ele>771.6</ele>
        <time>2026-07-07T10:53:12.000Z</time>
      </trkpt>
      <trkpt lat="45.82858" lon="1.92744">
        <ele>771.6</ele>
        <time>2026-07-07T10:53:13.000Z</time>
      </trkpt>
      <trkpt lat="45.82858" lon="1.92744">
        <ele>771.6</ele>
        <time>2026-07-07T10:53:14.000Z</time>
      </trkpt>
      <trkpt lat="45.82858" lon="1.92744">
        <ele>771.6</ele>
        <time>2026-07-07T10:53:15.000Z</time>
      </trkpt>
      <trkpt lat="45.82858" lon="1.92744">
        <ele>771.6</ele>
        <time>2026-07-07T10:53:16.000Z</time>
      </trkpt>
      <trkpt lat="45.82858" lon="1.92744">
        <ele>771.6</ele>
        <time>2026-07-07T10:53:17.000Z</time>
      </trkpt>
      <trkpt lat="45.82858" lon="1.92744">
        <ele>771.6</ele>
        <time>2026-07-07T10:53:18.000Z</time>
      </trkpt>
      <trkpt lat="45.82858" lon="1.92744">
        <ele>771.6</ele>
        <time>2026-07-07T10:53:19.000Z</time>
      </trkpt>
      <trkpt lat="45.82858" lon="1.92744">
        <ele>771.6</ele>
        <time>2026-07-07T10:53:20.000Z</time>
      </trkpt>
      <trkpt lat="45.82858" lon="1.92744">
        <ele>771.6</ele>
        <time>2026-07-07T10:53:21.000Z</time>
      </trkpt>
      <trkpt lat="45.82858" lon="1.92744">
        <ele>771.6</ele>
        <time>2026-07-07T10:53:22.000Z</time>
      </trkpt>
      <trkpt lat="45.82858" lon="1.92744">
        <ele>771.6</ele>
        <time>2026-07-07T10:53:23.000Z</time>
      </trkpt>
      <trkpt lat="45.82858" lon="1.92744">
        <ele>771.6</ele>
        <time>2026-07-07T10:53:24.000Z</time>
      </trkpt>
      <trkpt lat="45.82858" lon="1.92744">
        <ele>771.6</ele>
        <time>2026-07-07T10:53:25.000Z</time>
      </trkpt>
      <trkpt lat="45.82858" lon="1.92744">
        <ele>771.6</ele>
        <time>2026-07-07T10:53:26.000Z</time>
      </trkpt>
      <trkpt lat="45.82858" lon="1.92744">
        <ele>771.6</ele>
        <time>2026-07-07T10:53:27.000Z</time>
      </trkpt>
      <trkpt lat="45.82858" lon="1.92744">
        <ele>771.6</ele>
        <time>2026-07-07T10:53:28.000Z</time>
      </trkpt>
      <trkpt lat="45.82858" lon="1.92744">
        <ele>771.6</ele>
        <time>2026-07-07T10:53:29.000Z</time>
      </trkpt>
      <trkpt lat="45.82858" lon="1.92744">
        <ele>771.6</ele>
        <time>2026-07-07T10:53:30.000Z</time>
      </trkpt>
      <trkpt lat="45.82858" lon="1.92744">
        <ele>771.6</ele>
        <time>2026-07-07T10:53:31.000Z</time>
      </trkpt>
      <trkpt lat="45.82858" lon="1.92744">
        <ele>771.6</ele>
        <time>2026-07-07T10:53:32.000Z</time>
      </trkpt>
      <trkpt lat="45.82858" lon="1.92744">
        <ele>771.6</ele>
        <time>2026-07-07T10:53:33.000Z</time>
      </trkpt>
      <trkpt lat="45.82858" lon="1.92744">
        <ele>771.6</ele>
        <time>2026-07-07T10:53:34.000Z</time>
      </trkpt>
      <trkpt lat="45.82858" lon="1.92744">
        <ele>771.6</ele>
        <time>2026-07-07T10:53:35.000Z</time>
      </trkpt>
      <trkpt lat="45.82858" lon="1.92744">
        <ele>771.6</ele>
        <time>2026-07-07T10:53:36.000Z</time>
      </trkpt>
      <trkpt lat="45.82858" lon="1.92744">
        <ele>771.6</ele>
        <time>2026-07-07T10:53:37.000Z</time>
      </trkpt>
      <trkpt lat="45.82858" lon="1.92744">
        <ele>771.6</ele>
        <time>2026-07-07T10:53:38.000Z</time>
      </trkpt>
      <trkpt lat="45.82858" lon="1.92744">
        <ele>771.6</ele>
        <time>2026-07-07T10:53:39.000Z</time>
      </trkpt>
      <trkpt lat="45.82858" lon="1.92744">
        <ele>771.6</ele>
        <time>2026-07-07T10:53:40.000Z</time>
      </trkpt>
      <trkpt lat="45.82858" lon="1.92744">
        <ele>771.6</ele>
        <time>2026-07-07T10:53:41.000Z</time>
      </trkpt>
      <trkpt lat="45.82858" lon="1.92744">
        <ele>771.6</ele>
        <time>2026-07-07T10:53:42.000Z</time>
      </trkpt>
      <trkpt lat="45.82858" lon="1.92744">
        <ele>771.6</ele>
        <time>2026-07-07T10:53:43.000Z</time>
      </trkpt>
      <trkpt lat="45.82858" lon="1.92744">
        <ele>771.6</ele>
        <time>2026-07-07T10:53:44.000Z</time>
      </trkpt>
      <trkpt lat="45.82858" lon="1.92744">
        <ele>771.6</ele>
        <time>2026-07-07T10:53:45.000Z</time>
      </trkpt>
      <trkpt lat="45.82858" lon="1.92744">
        <ele>771.6</ele>
        <time>2026-07-07T10:53:46.000Z</time>
      </trkpt>
      <trkpt lat="45.82858" lon="1.92744">
        <ele>771.6</ele>
        <time>2026-07-07T10:53:47.000Z</time>
      </trkpt>
      <trkpt lat="45.82858" lon="1.92744">
        <ele>771.6</ele>
        <time>2026-07-07T10:53:48.000Z</time>
      </trkpt>
      <trkpt lat="45.82858" lon="1.92744">
        <ele>771.6</ele>
        <time>2026-07-07T10:53:49.000Z</time>
      </trkpt>
      <trkpt lat="45.82858" lon="1.92744">
        <ele>771.6</ele>
        <time>2026-07-07T10:53:50.000Z</time>
      </trkpt>
      <trkpt lat="45.82858" lon="1.92744">
        <ele>771.6</ele>
        <time>2026-07-07T10:53:51.000Z</time>
      </trkpt>
      <trkpt lat="45.82858" lon="1.92744">
        <ele>771.6</ele>
        <time>2026-07-07T10:53:52.000Z</time>
      </trkpt>
      <trkpt lat="45.82858" lon="1.92744">
        <ele>771.6</ele>
        <time>2026-07-07T10:53:53.000Z</time>
      </trkpt>
      <trkpt lat="45.82858" lon="1.92744">
        <ele>771.6</ele>
        <time>2026-07-07T10:53:54.000Z</time>
      </trkpt>
      <trkpt lat="45.82858" lon="1.92744">
        <ele>771.6</ele>
        <time>2026-07-07T10:53:55.000Z</time>
      </trkpt>
      <trkpt lat="45.82858" lon="1.92744">
        <ele>771.6</ele>
        <time>2026-07-07T10:53:56.000Z</time>
      </trkpt>
      <trkpt lat="45.82858" lon="1.92744">
        <ele>771.6</ele>
        <time>2026-07-07T10:53:57.000Z</time>
      </trkpt>
      <trkpt lat="45.82858" lon="1.92744">
        <ele>771.6</ele>
        <time>2026-07-07T10:53:58.000Z</time>
      </trkpt>
      <trkpt lat="45.82858" lon="1.92744">
        <ele>771.6</ele>
        <time>2026-07-07T10:53:59.000Z</time>
      </trkpt>
      <trkpt lat="45.82858" lon="1.92744">
        <ele>771.6</ele>
        <time>2026-07-07T10:54:00.000Z</time>
      </trkpt>
      <trkpt lat="45.82858" lon="1.92744">
        <ele>771.6</ele>
        <time>2026-07-07T10:54:01.000Z</time>
      </trkpt>
      <trkpt lat="45.82858" lon="1.92744">
        <ele>771.6</ele>
        <time>2026-07-07T10:54:02.000Z</time>
      </trkpt>
      <trkpt lat="45.82858" lon="1.92744">
        <ele>771.6</ele>
        <time>2026-07-07T10:54:03.000Z</time>
      </trkpt>
      <trkpt lat="45.82858" lon="1.92744">
        <ele>771.6</ele>
        <time>2026-07-07T10:54:04.000Z</time>
      </trkpt>
      <trkpt lat="45.82858" lon="1.92744">
        <ele>771.6</ele>
        <time>2026-07-07T10:54:05.000Z</time>
      </trkpt>
      <trkpt lat="45.82858" lon="1.92744">
        <ele>771.6</ele>
        <time>2026-07-07T10:54:06.000Z</time>
      </trkpt>
      <trkpt lat="45.82858" lon="1.92744">
        <ele>771.6</ele>
        <time>2026-07-07T10:54:07.000Z</time>
      </trkpt>
      <trkpt lat="45.82858" lon="1.92744">
        <ele>771.6</ele>
        <time>2026-07-07T10:54:08.000Z</time>
      </trkpt>
      <trkpt lat="45.82858" lon="1.92744">
        <ele>771.6</ele>
        <time>2026-07-07T10:54:09.000Z</time>
      </trkpt>
      <trkpt lat="45.82858" lon="1.92744">
        <ele>771.6</ele>
        <time>2026-07-07T10:54:10.000Z</time>
      </trkpt>
      <trkpt lat="45.82858" lon="1.92744">
        <ele>771.7</ele>
        <time>2026-07-07T10:54:11.000Z</time>
      </trkpt>
      <trkpt lat="45.82858" lon="1.92744">
        <ele>771.7</ele>
        <time>2026-07-07T10:54:12.000Z</time>
      </trkpt>
      <trkpt lat="45.82858" lon="1.92744">
        <ele>771.7</ele>
        <time>2026-07-07T10:54:13.000Z</time>
      </trkpt>
      <trkpt lat="45.82858" lon="1.92744">
        <ele>771.7</ele>
        <time>2026-07-07T10:54:14.000Z</time>
      </trkpt>
      <trkpt lat="45.82858" lon="1.92744">
        <ele>771.7</ele>
        <time>2026-07-07T10:54:15.000Z</time>
      </trkpt>
      <trkpt lat="45.82858" lon="1.92744">
        <ele>771.7</ele>
        <time>2026-07-07T10:54:16.000Z</time>
      </trkpt>
      <trkpt lat="45.82858" lon="1.92744">
        <ele>771.7</ele>
        <time>2026-07-07T10:54:17.000Z</time>
      </trkpt>
      <trkpt lat="45.82858" lon="1.92744">
        <ele>771.6</ele>
        <time>2026-07-07T10:54:18.000Z</time>
      </trkpt>
      <trkpt lat="45.82858" lon="1.92744">
        <ele>771.6</ele>
        <time>2026-07-07T10:54:19.000Z</time>
      </trkpt>
      <trkpt lat="45.82858" lon="1.92744">
        <ele>771.6</ele>
        <time>2026-07-07T10:54:20.000Z</time>
      </trkpt>
      <trkpt lat="45.82858" lon="1.92744">
        <ele>771.6</ele>
        <time>2026-07-07T10:54:21.000Z</time>
      </trkpt>
      <trkpt lat="45.82858" lon="1.92744">
        <ele>771.6</ele>
        <time>2026-07-07T10:54:22.000Z</time>
      </trkpt>
      <trkpt lat="45.82858" lon="1.92744">
        <ele>771.6</ele>
        <time>2026-07-07T10:54:23.000Z</time>
      </trkpt>
      <trkpt lat="45.82858" lon="1.92744">
        <ele>771.6</ele>
        <time>2026-07-07T10:54:24.000Z</time>
      </trkpt>
      <trkpt lat="45.82858" lon="1.92744">
        <ele>771.6</ele>
        <time>2026-07-07T10:54:25.000Z</time>
      </trkpt>
      <trkpt lat="45.82858" lon="1.92744">
        <ele>771.6</ele>
        <time>2026-07-07T10:54:26.000Z</time>
      </trkpt>
      <trkpt lat="45.82858" lon="1.92744">
        <ele>771.6</ele>
        <time>2026-07-07T10:54:27.000Z</time>
      </trkpt>
      <trkpt lat="45.82858" lon="1.92744">
        <ele>771.6</ele>
        <time>2026-07-07T10:54:28.000Z</time>
      </trkpt>
      <trkpt lat="45.82858" lon="1.92744">
        <ele>771.6</ele>
        <time>2026-07-07T10:54:29.000Z</time>
      </trkpt>
      <trkpt lat="45.82858" lon="1.92744">
        <ele>771.6</ele>
        <time>2026-07-07T10:54:30.000Z</time>
      </trkpt>
      <trkpt lat="45.82858" lon="1.92744">
        <ele>771.6</ele>
        <time>2026-07-07T10:54:31.000Z</time>
      </trkpt>
      <trkpt lat="45.82858" lon="1.92744">
        <ele>771.6</ele>
        <time>2026-07-07T10:54:32.000Z</time>
      </trkpt>
      <trkpt lat="45.82858" lon="1.92744">
        <ele>771.6</ele>
        <time>2026-07-07T10:54:33.000Z</time>
      </trkpt>
      <trkpt lat="45.82858" lon="1.92744">
        <ele>771.6</ele>
        <time>2026-07-07T10:54:34.000Z</time>
      </trkpt>
      <trkpt lat="45.82858" lon="1.92744">
        <ele>771.6</ele>
        <time>2026-07-07T10:54:35.000Z</time>
      </trkpt>
      <trkpt lat="45.82858" lon="1.92744">
        <ele>771.6</ele>
        <time>2026-07-07T10:54:36.000Z</time>
      </trkpt>
      <trkpt lat="45.82858" lon="1.92744">
        <ele>771.6</ele>
        <time>2026-07-07T10:54:37.000Z</time>
      </trkpt>
      <trkpt lat="45.82858" lon="1.92744">
        <ele>771.6</ele>
        <time>2026-07-07T10:54:38.000Z</time>
      </trkpt>
      <trkpt lat="45.82858" lon="1.92744">
        <ele>771.6</ele>
        <time>2026-07-07T10:54:39.000Z</time>
      </trkpt>
      <trkpt lat="45.82858" lon="1.92744">
        <ele>771.6</ele>
        <time>2026-07-07T10:54:40.000Z</time>
      </trkpt>
      <trkpt lat="45.82858" lon="1.92744">
        <ele>771.7</ele>
        <time>2026-07-07T10:54:41.000Z</time>
      </trkpt>
      <trkpt lat="45.82858" lon="1.92744">
        <ele>771.7</ele>
        <time>2026-07-07T10:54:42.000Z</time>
      </trkpt>
      <trkpt lat="45.82858" lon="1.92744">
        <ele>771.7</ele>
        <time>2026-07-07T10:54:43.000Z</time>
      </trkpt>
      <trkpt lat="45.82858" lon="1.92744">
        <ele>771.7</ele>
        <time>2026-07-07T10:54:44.000Z</time>
      </trkpt>
      <trkpt lat="45.82858" lon="1.92744">
        <ele>771.7</ele>
        <time>2026-07-07T10:54:45.000Z</time>
      </trkpt>
      <trkpt lat="45.82858" lon="1.92744">
        <ele>771.7</ele>
        <time>2026-07-07T10:54:46.000Z</time>
      </trkpt>
      <trkpt lat="45.82858" lon="1.92744">
        <ele>771.7</ele>
        <time>2026-07-07T10:54:47.000Z</time>
      </trkpt>
      <trkpt lat="45.82858" lon="1.92744">
        <ele>771.7</ele>
        <time>2026-07-07T10:54:48.000Z</time>
      </trkpt>
      <trkpt lat="45.82858" lon="1.92744">
        <ele>771.7</ele>
        <time>2026-07-07T10:54:49.000Z</time>
      </trkpt>
      <trkpt lat="45.82858" lon="1.92744">
        <ele>771.7</ele>
        <time>2026-07-07T10:54:50.000Z</time>
      </trkpt>
      <trkpt lat="45.82858" lon="1.92744">
        <ele>771.7</ele>
        <time>2026-07-07T10:54:51.000Z</time>
      </trkpt>
      <trkpt lat="45.82858" lon="1.92744">
        <ele>771.7</ele>
        <time>2026-07-07T10:54:52.000Z</time>
      </trkpt>
      <trkpt lat="45.82858" lon="1.92744">
        <ele>771.7</ele>
        <time>2026-07-07T10:54:53.000Z</time>
      </trkpt>
      <trkpt lat="45.82858" lon="1.92744">
        <ele>771.7</ele>
        <time>2026-07-07T10:54:54.000Z</time>
      </trkpt>
      <trkpt lat="45.82858" lon="1.92744">
        <ele>771.7</ele>
        <time>2026-07-07T10:54:55.000Z</time>
      </trkpt>
      <trkpt lat="45.82858" lon="1.92743">
        <ele>771.7</ele>
        <time>2026-07-07T10:54:56.000Z</time>
      </trkpt>
      <trkpt lat="45.82858" lon="1.92743">
        <ele>771.7</ele>
        <time>2026-07-07T10:54:57.000Z</time>
      </trkpt>
      <trkpt lat="45.82858" lon="1.92743">
        <ele>771.7</ele>
        <time>2026-07-07T10:54:58.000Z</time>
      </trkpt>
      <trkpt lat="45.82858" lon="1.92743">
        <ele>771.7</ele>
        <time>2026-07-07T10:54:59.000Z</time>
      </trkpt>
      <trkpt lat="45.82858" lon="1.92743">
        <ele>771.7</ele>
        <time>2026-07-07T10:55:00.000Z</time>
      </trkpt>
      <trkpt lat="45.82858" lon="1.92743">
        <ele>771.7</ele>
        <time>2026-07-07T10:55:01.000Z</time>
      </trkpt>
      <trkpt lat="45.82858" lon="1.92743">
        <ele>771.7</ele>
        <time>2026-07-07T10:55:02.000Z</time>
      </trkpt>
      <trkpt lat="45.82858" lon="1.92743">
        <ele>771.7</ele>
        <time>2026-07-07T10:55:03.000Z</time>
      </trkpt>
      <trkpt lat="45.82858" lon="1.92743">
        <ele>771.7</ele>
        <time>2026-07-07T10:55:04.000Z</time>
      </trkpt>
      <trkpt lat="45.82858" lon="1.92743">
        <ele>771.7</ele>
        <time>2026-07-07T10:55:05.000Z</time>
      </trkpt>
      <trkpt lat="45.82858" lon="1.92743">
        <ele>771.7</ele>
        <time>2026-07-07T10:55:06.000Z</time>
      </trkpt>
      <trkpt lat="45.82858" lon="1.92743">
        <ele>771.7</ele>
        <time>2026-07-07T10:55:07.000Z</time>
      </trkpt>
      <trkpt lat="45.82858" lon="1.92743">
        <ele>771.7</ele>
        <time>2026-07-07T10:55:08.000Z</time>
      </trkpt>
      <trkpt lat="45.82858" lon="1.92743">
        <ele>771.7</ele>
        <time>2026-07-07T10:55:09.000Z</time>
      </trkpt>
      <trkpt lat="45.82858" lon="1.92743">
        <ele>771.7</ele>
        <time>2026-07-07T10:55:10.000Z</time>
      </trkpt>
      <trkpt lat="45.82858" lon="1.92743">
        <ele>771.7</ele>
        <time>2026-07-07T10:55:11.000Z</time>
      </trkpt>
      <trkpt lat="45.82858" lon="1.92743">
        <ele>771.7</ele>
        <time>2026-07-07T10:55:12.000Z</time>
      </trkpt>
      <trkpt lat="45.82858" lon="1.92743">
        <ele>771.7</ele>
        <time>2026-07-07T10:55:13.000Z</time>
      </trkpt>
      <trkpt lat="45.82858" lon="1.92743">
        <ele>771.7</ele>
        <time>2026-07-07T10:55:14.000Z</time>
      </trkpt>
      <trkpt lat="45.82858" lon="1.92743">
        <ele>771.7</ele>
        <time>2026-07-07T10:55:15.000Z</time>
      </trkpt>
      <trkpt lat="45.82858" lon="1.92743">
        <ele>771.7</ele>
        <time>2026-07-07T10:55:16.000Z</time>
      </trkpt>
      <trkpt lat="45.82858" lon="1.92743">
        <ele>771.7</ele>
        <time>2026-07-07T10:55:17.000Z</time>
      </trkpt>
      <trkpt lat="45.82858" lon="1.92743">
        <ele>771.7</ele>
        <time>2026-07-07T10:55:18.000Z</time>
      </trkpt>
      <trkpt lat="45.82858" lon="1.92743">
        <ele>771.7</ele>
        <time>2026-07-07T10:55:19.000Z</time>
      </trkpt>
      <trkpt lat="45.82858" lon="1.92743">
        <ele>771.7</ele>
        <time>2026-07-07T10:55:20.000Z</time>
      </trkpt>
      <trkpt lat="45.82858" lon="1.92743">
        <ele>771.7</ele>
        <time>2026-07-07T10:55:21.000Z</time>
      </trkpt>
      <trkpt lat="45.82858" lon="1.92743">
        <ele>771.7</ele>
        <time>2026-07-07T10:55:22.000Z</time>
      </trkpt>
      <trkpt lat="45.82858" lon="1.92743">
        <ele>771.7</ele>
        <time>2026-07-07T10:55:23.000Z</time>
      </trkpt>
      <trkpt lat="45.82858" lon="1.92743">
        <ele>771.7</ele>
        <time>2026-07-07T10:55:24.000Z</time>
      </trkpt>
      <trkpt lat="45.82858" lon="1.92743">
        <ele>771.7</ele>
        <time>2026-07-07T10:55:25.000Z</time>
      </trkpt>
      <trkpt lat="45.82858" lon="1.92743">
        <ele>771.7</ele>
        <time>2026-07-07T10:55:26.000Z</time>
      </trkpt>
      <trkpt lat="45.82858" lon="1.92743">
        <ele>771.7</ele>
        <time>2026-07-07T10:55:27.000Z</time>
      </trkpt>
      <trkpt lat="45.82858" lon="1.92743">
        <ele>771.7</ele>
        <time>2026-07-07T10:55:28.000Z</time>
      </trkpt>
      <trkpt lat="45.82858" lon="1.92743">
        <ele>771.7</ele>
        <time>2026-07-07T10:55:29.000Z</time>
      </trkpt>
      <trkpt lat="45.82858" lon="1.92743">
        <ele>771.7</ele>
        <time>2026-07-07T10:55:30.000Z</time>
      </trkpt>
      <trkpt lat="45.82858" lon="1.92743">
        <ele>771.7</ele>
        <time>2026-07-07T10:55:31.000Z</time>
      </trkpt>
      <trkpt lat="45.82858" lon="1.92743">
        <ele>771.7</ele>
        <time>2026-07-07T10:55:32.000Z</time>
      </trkpt>
      <trkpt lat="45.82858" lon="1.92743">
        <ele>771.7</ele>
        <time>2026-07-07T10:55:33.000Z</time>
      </trkpt>
      <trkpt lat="45.82858" lon="1.92743">
        <ele>771.7</ele>
        <time>2026-07-07T10:55:34.000Z</time>
      </trkpt>
      <trkpt lat="45.82858" lon="1.92743">
        <ele>771.7</ele>
        <time>2026-07-07T10:55:35.000Z</time>
      </trkpt>
      <trkpt lat="45.82858" lon="1.92743">
        <ele>771.8</ele>
        <time>2026-07-07T10:55:36.000Z</time>
      </trkpt>
      <trkpt lat="45.82858" lon="1.92743">
        <ele>771.8</ele>
        <time>2026-07-07T10:55:37.000Z</time>
      </trkpt>
      <trkpt lat="45.82858" lon="1.92743">
        <ele>771.8</ele>
        <time>2026-07-07T10:55:38.000Z</time>
      </trkpt>
      <trkpt lat="45.82858" lon="1.92743">
        <ele>771.8</ele>
        <time>2026-07-07T10:55:39.000Z</time>
      </trkpt>
      <trkpt lat="45.82858" lon="1.92743">
        <ele>771.8</ele>
        <time>2026-07-07T10:55:40.000Z</time>
      </trkpt>
      <trkpt lat="45.82858" lon="1.92743">
        <ele>771.8</ele>
        <time>2026-07-07T10:55:41.000Z</time>
      </trkpt>
      <trkpt lat="45.82858" lon="1.92743">
        <ele>771.8</ele>
        <time>2026-07-07T10:55:42.000Z</time>
      </trkpt>
      <trkpt lat="45.82858" lon="1.92743">
        <ele>771.8</ele>
        <time>2026-07-07T10:55:43.000Z</time>
      </trkpt>
      <trkpt lat="45.82858" lon="1.92743">
        <ele>771.8</ele>
        <time>2026-07-07T10:55:44.000Z</time>
      </trkpt>
      <trkpt lat="45.82858" lon="1.92743">
        <ele>771.8</ele>
        <time>2026-07-07T10:55:45.000Z</time>
      </trkpt>
      <trkpt lat="45.82858" lon="1.92743">
        <ele>771.8</ele>
        <time>2026-07-07T10:55:46.000Z</time>
      </trkpt>
      <trkpt lat="45.82858" lon="1.92743">
        <ele>771.8</ele>
        <time>2026-07-07T10:55:47.000Z</time>
      </trkpt>
      <trkpt lat="45.82858" lon="1.92743">
        <ele>771.8</ele>
        <time>2026-07-07T10:55:48.000Z</time>
      </trkpt>
      <trkpt lat="45.82858" lon="1.92743">
        <ele>771.8</ele>
        <time>2026-07-07T10:55:49.000Z</time>
      </trkpt>
      <trkpt lat="45.82858" lon="1.92743">
        <ele>771.8</ele>
        <time>2026-07-07T10:55:50.000Z</time>
      </trkpt>
      <trkpt lat="45.82858" lon="1.92743">
        <ele>771.8</ele>
        <time>2026-07-07T10:55:51.000Z</time>
      </trkpt>
      <trkpt lat="45.82858" lon="1.92743">
        <ele>771.8</ele>
        <time>2026-07-07T10:55:52.000Z</time>
      </trkpt>
      <trkpt lat="45.82858" lon="1.92743">
        <ele>771.8</ele>
        <time>2026-07-07T10:55:53.000Z</time>
      </trkpt>
      <trkpt lat="45.82858" lon="1.92743">
        <ele>771.8</ele>
        <time>2026-07-07T10:55:54.000Z</time>
      </trkpt>
      <trkpt lat="45.82858" lon="1.92743">
        <ele>771.8</ele>
        <time>2026-07-07T10:55:55.000Z</time>
      </trkpt>
      <trkpt lat="45.82858" lon="1.92743">
        <ele>771.8</ele>
        <time>2026-07-07T10:55:56.000Z</time>
      </trkpt>
      <trkpt lat="45.82858" lon="1.92743">
        <ele>771.8</ele>
        <time>2026-07-07T10:55:57.000Z</time>
      </trkpt>
      <trkpt lat="45.82858" lon="1.92743">
        <ele>771.8</ele>
        <time>2026-07-07T10:55:58.000Z</time>
      </trkpt>
      <trkpt lat="45.82858" lon="1.92743">
        <ele>771.8</ele>
        <time>2026-07-07T10:55:59.000Z</time>
      </trkpt>
      <trkpt lat="45.82858" lon="1.92743">
        <ele>771.8</ele>
        <time>2026-07-07T10:56:00.000Z</time>
      </trkpt>
      <trkpt lat="45.82858" lon="1.92743">
        <ele>771.8</ele>
        <time>2026-07-07T10:56:01.000Z</time>
      </trkpt>
      <trkpt lat="45.82858" lon="1.92743">
        <ele>771.8</ele>
        <time>2026-07-07T10:56:02.000Z</time>
      </trkpt>
      <trkpt lat="45.82858" lon="1.92743">
        <ele>771.8</ele>
        <time>2026-07-07T10:56:03.000Z</time>
      </trkpt>
      <trkpt lat="45.82858" lon="1.92743">
        <ele>771.8</ele>
        <time>2026-07-07T10:56:04.000Z</time>
      </trkpt>
      <trkpt lat="45.82858" lon="1.92743">
        <ele>771.8</ele>
        <time>2026-07-07T10:56:05.000Z</time>
      </trkpt>
      <trkpt lat="45.82858" lon="1.92743">
        <ele>771.8</ele>
        <time>2026-07-07T10:56:06.000Z</time>
      </trkpt>
      <trkpt lat="45.82858" lon="1.92743">
        <ele>771.8</ele>
        <time>2026-07-07T10:56:07.000Z</time>
      </trkpt>
      <trkpt lat="45.82858" lon="1.92743">
        <ele>771.8</ele>
        <time>2026-07-07T10:56:08.000Z</time>
      </trkpt>
      <trkpt lat="45.82858" lon="1.92743">
        <ele>771.8</ele>
        <time>2026-07-07T10:56:09.000Z</time>
      </trkpt>
      <trkpt lat="45.82858" lon="1.92743">
        <ele>771.8</ele>
        <time>2026-07-07T10:56:10.000Z</time>
      </trkpt>
      <trkpt lat="45.82858" lon="1.92743">
        <ele>771.8</ele>
        <time>2026-07-07T10:56:11.000Z</time>
      </trkpt>
      <trkpt lat="45.82858" lon="1.92743">
        <ele>771.8</ele>
        <time>2026-07-07T10:56:12.000Z</time>
      </trkpt>
      <trkpt lat="45.82858" lon="1.92743">
        <ele>771.7</ele>
        <time>2026-07-07T10:56:13.000Z</time>
      </trkpt>
      <trkpt lat="45.82858" lon="1.92743">
        <ele>771.7</ele>
        <time>2026-07-07T10:56:14.000Z</time>
      </trkpt>
      <trkpt lat="45.82858" lon="1.92743">
        <ele>771.7</ele>
        <time>2026-07-07T10:56:15.000Z</time>
      </trkpt>
      <trkpt lat="45.82858" lon="1.92743">
        <ele>771.7</ele>
        <time>2026-07-07T10:56:16.000Z</time>
      </trkpt>
      <trkpt lat="45.82858" lon="1.92743">
        <ele>771.7</ele>
        <time>2026-07-07T10:56:17.000Z</time>
      </trkpt>
      <trkpt lat="45.82858" lon="1.92743">
        <ele>771.7</ele>
        <time>2026-07-07T10:56:18.000Z</time>
      </trkpt>
      <trkpt lat="45.82858" lon="1.92743">
        <ele>771.7</ele>
        <time>2026-07-07T10:56:19.000Z</time>
      </trkpt>
      <trkpt lat="45.82858" lon="1.92743">
        <ele>771.7</ele>
        <time>2026-07-07T10:56:20.000Z</time>
      </trkpt>
      <trkpt lat="45.82858" lon="1.92743">
        <ele>771.7</ele>
        <time>2026-07-07T10:56:21.000Z</time>
      </trkpt>
      <trkpt lat="45.82858" lon="1.92743">
        <ele>771.7</ele>
        <time>2026-07-07T10:56:22.000Z</time>
      </trkpt>
      <trkpt lat="45.82858" lon="1.92743">
        <ele>771.7</ele>
        <time>2026-07-07T10:56:23.000Z</time>
      </trkpt>
      <trkpt lat="45.82858" lon="1.92743">
        <ele>771.7</ele>
        <time>2026-07-07T10:56:24.000Z</time>
      </trkpt>
      <trkpt lat="45.82858" lon="1.92743">
        <ele>771.7</ele>
        <time>2026-07-07T10:56:25.000Z</time>
      </trkpt>
      <trkpt lat="45.82858" lon="1.92743">
        <ele>771.7</ele>
        <time>2026-07-07T10:56:26.000Z</time>
      </trkpt>
      <trkpt lat="45.82858" lon="1.92743">
        <ele>771.7</ele>
        <time>2026-07-07T10:56:27.000Z</time>
      </trkpt>
      <trkpt lat="45.82858" lon="1.92743">
        <ele>771.7</ele>
        <time>2026-07-07T10:56:28.000Z</time>
      </trkpt>
      <trkpt lat="45.82858" lon="1.92743">
        <ele>771.7</ele>
        <time>2026-07-07T10:56:29.000Z</time>
      </trkpt>
      <trkpt lat="45.82858" lon="1.92743">
        <ele>771.7</ele>
        <time>2026-07-07T10:56:30.000Z</time>
      </trkpt>
      <trkpt lat="45.82858" lon="1.92743">
        <ele>771.7</ele>
        <time>2026-07-07T10:56:31.000Z</time>
      </trkpt>
      <trkpt lat="45.82858" lon="1.92743">
        <ele>771.7</ele>
        <time>2026-07-07T10:56:32.000Z</time>
      </trkpt>
      <trkpt lat="45.82858" lon="1.92743">
        <ele>771.7</ele>
        <time>2026-07-07T10:56:33.000Z</time>
      </trkpt>
      <trkpt lat="45.82858" lon="1.92743">
        <ele>771.7</ele>
        <time>2026-07-07T10:56:34.000Z</time>
      </trkpt>
      <trkpt lat="45.82858" lon="1.92743">
        <ele>771.8</ele>
        <time>2026-07-07T10:56:35.000Z</time>
      </trkpt>
      <trkpt lat="45.82858" lon="1.92744">
        <ele>771.8</ele>
        <time>2026-07-07T10:56:36.000Z</time>
      </trkpt>
      <trkpt lat="45.82858" lon="1.92744">
        <ele>771.8</ele>
        <time>2026-07-07T10:56:37.000Z</time>
      </trkpt>
      <trkpt lat="45.82858" lon="1.92744">
        <ele>771.8</ele>
        <time>2026-07-07T10:56:38.000Z</time>
      </trkpt>
      <trkpt lat="45.82858" lon="1.92744">
        <ele>771.8</ele>
        <time>2026-07-07T10:56:39.000Z</time>
      </trkpt>
      <trkpt lat="45.82858" lon="1.92744">
        <ele>771.8</ele>
        <time>2026-07-07T10:56:40.000Z</time>
      </trkpt>
      <trkpt lat="45.82858" lon="1.92744">
        <ele>771.8</ele>
        <time>2026-07-07T10:56:41.000Z</time>
      </trkpt>
      <trkpt lat="45.82858" lon="1.92744">
        <ele>771.8</ele>
        <time>2026-07-07T10:56:42.000Z</time>
      </trkpt>
      <trkpt lat="45.82858" lon="1.92744">
        <ele>771.8</ele>
        <time>2026-07-07T10:56:43.000Z</time>
      </trkpt>
      <trkpt lat="45.82858" lon="1.92744">
        <ele>771.8</ele>
        <time>2026-07-07T10:56:44.000Z</time>
      </trkpt>
      <trkpt lat="45.82858" lon="1.92744">
        <ele>771.8</ele>
        <time>2026-07-07T10:56:45.000Z</time>
      </trkpt>
      <trkpt lat="45.82858" lon="1.92744">
        <ele>771.8</ele>
        <time>2026-07-07T10:56:46.000Z</time>
      </trkpt>
      <trkpt lat="45.82858" lon="1.92744">
        <ele>771.8</ele>
        <time>2026-07-07T10:56:47.000Z</time>
      </trkpt>
      <trkpt lat="45.82858" lon="1.92744">
        <ele>771.8</ele>
        <time>2026-07-07T10:56:48.000Z</time>
      </trkpt>
      <trkpt lat="45.82858" lon="1.92744">
        <ele>771.8</ele>
        <time>2026-07-07T10:56:49.000Z</time>
      </trkpt>
      <trkpt lat="45.82858" lon="1.92744">
        <ele>771.8</ele>
        <time>2026-07-07T10:56:50.000Z</time>
      </trkpt>
      <trkpt lat="45.82858" lon="1.92743">
        <ele>771.8</ele>
        <time>2026-07-07T10:56:51.000Z</time>
      </trkpt>
      <trkpt lat="45.82858" lon="1.92743">
        <ele>771.8</ele>
        <time>2026-07-07T10:56:52.000Z</time>
      </trkpt>
      <trkpt lat="45.82858" lon="1.92743">
        <ele>771.8</ele>
        <time>2026-07-07T10:56:53.000Z</time>
      </trkpt>
      <trkpt lat="45.82858" lon="1.92743">
        <ele>771.8</ele>
        <time>2026-07-07T10:56:54.000Z</time>
      </trkpt>
      <trkpt lat="45.82858" lon="1.92743">
        <ele>771.8</ele>
        <time>2026-07-07T10:56:55.000Z</time>
      </trkpt>
      <trkpt lat="45.82858" lon="1.92743">
        <ele>771.8</ele>
        <time>2026-07-07T10:56:56.000Z</time>
      </trkpt>
      <trkpt lat="45.82858" lon="1.92743">
        <ele>771.8</ele>
        <time>2026-07-07T10:56:57.000Z</time>
      </trkpt>
      <trkpt lat="45.82858" lon="1.92743">
        <ele>771.8</ele>
        <time>2026-07-07T10:56:58.000Z</time>
      </trkpt>
      <trkpt lat="45.82858" lon="1.92743">
        <ele>771.8</ele>
        <time>2026-07-07T10:56:59.000Z</time>
      </trkpt>
      <trkpt lat="45.82858" lon="1.92743">
        <ele>771.8</ele>
        <time>2026-07-07T10:57:00.000Z</time>
      </trkpt>
      <trkpt lat="45.82858" lon="1.92743">
        <ele>771.8</ele>
        <time>2026-07-07T10:57:01.000Z</time>
      </trkpt>
      <trkpt lat="45.82858" lon="1.92743">
        <ele>771.8</ele>
        <time>2026-07-07T10:57:02.000Z</time>
      </trkpt>
      <trkpt lat="45.82858" lon="1.92743">
        <ele>771.8</ele>
        <time>2026-07-07T10:57:03.000Z</time>
      </trkpt>
      <trkpt lat="45.82858" lon="1.92743">
        <ele>771.8</ele>
        <time>2026-07-07T10:57:04.000Z</time>
      </trkpt>
      <trkpt lat="45.82858" lon="1.92743">
        <ele>771.8</ele>
        <time>2026-07-07T10:57:05.000Z</time>
      </trkpt>
      <trkpt lat="45.82858" lon="1.92743">
        <ele>771.7</ele>
        <time>2026-07-07T10:57:06.000Z</time>
      </trkpt>
      <trkpt lat="45.82858" lon="1.92743">
        <ele>771.7</ele>
        <time>2026-07-07T10:57:07.000Z</time>
      </trkpt>
      <trkpt lat="45.82858" lon="1.92743">
        <ele>771.7</ele>
        <time>2026-07-07T10:57:08.000Z</time>
      </trkpt>
      <trkpt lat="45.82858" lon="1.92743">
        <ele>771.7</ele>
        <time>2026-07-07T10:57:09.000Z</time>
      </trkpt>
      <trkpt lat="45.82858" lon="1.92743">
        <ele>771.7</ele>
        <time>2026-07-07T10:57:10.000Z</time>
      </trkpt>
      <trkpt lat="45.82858" lon="1.92743">
        <ele>771.7</ele>
        <time>2026-07-07T10:57:11.000Z</time>
      </trkpt>
      <trkpt lat="45.82858" lon="1.92743">
        <ele>771.7</ele>
        <time>2026-07-07T10:57:12.000Z</time>
      </trkpt>
      <trkpt lat="45.82858" lon="1.92743">
        <ele>771.7</ele>
        <time>2026-07-07T10:57:13.000Z</time>
      </trkpt>
      <trkpt lat="45.82858" lon="1.92743">
        <ele>771.7</ele>
        <time>2026-07-07T10:57:14.000Z</time>
      </trkpt>
      <trkpt lat="45.82858" lon="1.92743">
        <ele>771.7</ele>
        <time>2026-07-07T10:57:15.000Z</time>
      </trkpt>
      <trkpt lat="45.82858" lon="1.92743">
        <ele>771.7</ele>
        <time>2026-07-07T10:57:16.000Z</time>
      </trkpt>
      <trkpt lat="45.82858" lon="1.92743">
        <ele>771.7</ele>
        <time>2026-07-07T10:57:17.000Z</time>
      </trkpt>
      <trkpt lat="45.82858" lon="1.92743">
        <ele>771.7</ele>
        <time>2026-07-07T10:57:18.000Z</time>
      </trkpt>
      <trkpt lat="45.82858" lon="1.92744">
        <ele>771.7</ele>
        <time>2026-07-07T10:57:19.000Z</time>
      </trkpt>
      <trkpt lat="45.82858" lon="1.92744">
        <ele>771.7</ele>
        <time>2026-07-07T10:57:20.000Z</time>
      </trkpt>
      <trkpt lat="45.82858" lon="1.92744">
        <ele>771.8</ele>
        <time>2026-07-07T10:57:21.000Z</time>
      </trkpt>
      <trkpt lat="45.82858" lon="1.92744">
        <ele>771.8</ele>
        <time>2026-07-07T10:57:22.000Z</time>
      </trkpt>
      <trkpt lat="45.82858" lon="1.92744">
        <ele>771.8</ele>
        <time>2026-07-07T10:57:23.000Z</time>
      </trkpt>
      <trkpt lat="45.82858" lon="1.92744">
        <ele>771.8</ele>
        <time>2026-07-07T10:57:24.000Z</time>
      </trkpt>
      <trkpt lat="45.82858" lon="1.92744">
        <ele>771.8</ele>
        <time>2026-07-07T10:57:25.000Z</time>
      </trkpt>
      <trkpt lat="45.82858" lon="1.92744">
        <ele>771.8</ele>
        <time>2026-07-07T10:57:26.000Z</time>
      </trkpt>
      <trkpt lat="45.82858" lon="1.92744">
        <ele>771.8</ele>
        <time>2026-07-07T10:57:27.000Z</time>
      </trkpt>
      <trkpt lat="45.82858" lon="1.92744">
        <ele>771.8</ele>
        <time>2026-07-07T10:57:28.000Z</time>
      </trkpt>
      <trkpt lat="45.82858" lon="1.92744">
        <ele>772</ele>
        <time>2026-07-07T10:57:29.000Z</time>
      </trkpt>
      <trkpt lat="45.82858" lon="1.92744">
        <ele>772.5</ele>
        <time>2026-07-07T10:57:30.000Z</time>
      </trkpt>
      <trkpt lat="45.82858" lon="1.92744">
        <ele>772.4</ele>
        <time>2026-07-07T10:57:31.000Z</time>
      </trkpt>
      <trkpt lat="45.82858" lon="1.92744">
        <ele>772.5</ele>
        <time>2026-07-07T10:57:32.000Z</time>
      </trkpt>
      <trkpt lat="45.82858" lon="1.92744">
        <ele>772.5</ele>
        <time>2026-07-07T10:57:33.000Z</time>
      </trkpt>
      <trkpt lat="45.82858" lon="1.92744">
        <ele>772.5</ele>
        <time>2026-07-07T10:57:34.000Z</time>
      </trkpt>
      <trkpt lat="45.82858" lon="1.92744">
        <ele>772.5</ele>
        <time>2026-07-07T10:57:35.000Z</time>
      </trkpt>
      <trkpt lat="45.82858" lon="1.92744">
        <ele>772.5</ele>
        <time>2026-07-07T10:57:36.000Z</time>
      </trkpt>
      <trkpt lat="45.82858" lon="1.92744">
        <ele>772.5</ele>
        <time>2026-07-07T10:57:37.000Z</time>
      </trkpt>
      <trkpt lat="45.82858" lon="1.92744">
        <ele>772.5</ele>
        <time>2026-07-07T10:57:38.000Z</time>
      </trkpt>
      <trkpt lat="45.82858" lon="1.92744">
        <ele>772.5</ele>
        <time>2026-07-07T10:57:39.000Z</time>
      </trkpt>
      <trkpt lat="45.82858" lon="1.92744">
        <ele>772.5</ele>
        <time>2026-07-07T10:57:40.000Z</time>
      </trkpt>
      <trkpt lat="45.82858" lon="1.92744">
        <ele>772.5</ele>
        <time>2026-07-07T10:57:41.000Z</time>
      </trkpt>
      <trkpt lat="45.82858" lon="1.92744">
        <ele>772.5</ele>
        <time>2026-07-07T10:57:42.000Z</time>
      </trkpt>
      <trkpt lat="45.82858" lon="1.92744">
        <ele>772.5</ele>
        <time>2026-07-07T10:57:43.000Z</time>
      </trkpt>
      <trkpt lat="45.82858" lon="1.92744">
        <ele>772.5</ele>
        <time>2026-07-07T10:57:44.000Z</time>
      </trkpt>
      <trkpt lat="45.82858" lon="1.92744">
        <ele>772.5</ele>
        <time>2026-07-07T10:57:45.000Z</time>
      </trkpt>
      <trkpt lat="45.82858" lon="1.92744">
        <ele>772.5</ele>
        <time>2026-07-07T10:57:46.000Z</time>
      </trkpt>
      <trkpt lat="45.82858" lon="1.92744">
        <ele>772.5</ele>
        <time>2026-07-07T10:57:47.000Z</time>
      </trkpt>
      <trkpt lat="45.82858" lon="1.92744">
        <ele>772.5</ele>
        <time>2026-07-07T10:57:48.000Z</time>
      </trkpt>
      <trkpt lat="45.82858" lon="1.92744">
        <ele>772.5</ele>
        <time>2026-07-07T10:57:49.000Z</time>
      </trkpt>
      <trkpt lat="45.82858" lon="1.92744">
        <ele>772.5</ele>
        <time>2026-07-07T10:57:50.000Z</time>
      </trkpt>
      <trkpt lat="45.82858" lon="1.92744">
        <ele>772.5</ele>
        <time>2026-07-07T10:57:51.000Z</time>
      </trkpt>
      <trkpt lat="45.82858" lon="1.92744">
        <ele>772.5</ele>
        <time>2026-07-07T10:57:52.000Z</time>
      </trkpt>
      <trkpt lat="45.82858" lon="1.92744">
        <ele>772.5</ele>
        <time>2026-07-07T10:57:53.000Z</time>
      </trkpt>
      <trkpt lat="45.82858" lon="1.92744">
        <ele>772.5</ele>
        <time>2026-07-07T10:57:54.000Z</time>
      </trkpt>
      <trkpt lat="45.82858" lon="1.92744">
        <ele>772.5</ele>
        <time>2026-07-07T10:57:55.000Z</time>
      </trkpt>
      <trkpt lat="45.82858" lon="1.92744">
        <ele>772.5</ele>
        <time>2026-07-07T10:57:56.000Z</time>
      </trkpt>
      <trkpt lat="45.82858" lon="1.92744">
        <ele>772.5</ele>
        <time>2026-07-07T10:57:57.000Z</time>
      </trkpt>
      <trkpt lat="45.82858" lon="1.92744">
        <ele>772.5</ele>
        <time>2026-07-07T10:57:58.000Z</time>
      </trkpt>
      <trkpt lat="45.82858" lon="1.92744">
        <ele>772.5</ele>
        <time>2026-07-07T10:57:59.000Z</time>
      </trkpt>
      <trkpt lat="45.82858" lon="1.92744">
        <ele>772.5</ele>
        <time>2026-07-07T10:58:00.000Z</time>
      </trkpt>
      <trkpt lat="45.82858" lon="1.92744">
        <ele>772.5</ele>
        <time>2026-07-07T10:58:01.000Z</time>
      </trkpt>
      <trkpt lat="45.82858" lon="1.92744">
        <ele>772.5</ele>
        <time>2026-07-07T10:58:02.000Z</time>
      </trkpt>
      <trkpt lat="45.82858" lon="1.92744">
        <ele>772.5</ele>
        <time>2026-07-07T10:58:03.000Z</time>
      </trkpt>
      <trkpt lat="45.82858" lon="1.92744">
        <ele>772.5</ele>
        <time>2026-07-07T10:58:04.000Z</time>
      </trkpt>
      <trkpt lat="45.82858" lon="1.92744">
        <ele>772.5</ele>
        <time>2026-07-07T10:58:05.000Z</time>
      </trkpt>
      <trkpt lat="45.82858" lon="1.92744">
        <ele>773</ele>
        <time>2026-07-07T10:58:06.000Z</time>
      </trkpt>
      <trkpt lat="45.82859" lon="1.92744">
        <ele>773.3</ele>
        <time>2026-07-07T10:58:07.000Z</time>
      </trkpt>
      <trkpt lat="45.82859" lon="1.92745">
        <ele>773.3</ele>
        <time>2026-07-07T10:58:08.000Z</time>
      </trkpt>
      <trkpt lat="45.82859" lon="1.92745">
        <ele>773.3</ele>
        <time>2026-07-07T10:58:09.000Z</time>
      </trkpt>
      <trkpt lat="45.82859" lon="1.92745">
        <ele>773.3</ele>
        <time>2026-07-07T10:58:10.000Z</time>
      </trkpt>
      <trkpt lat="45.82859" lon="1.92745">
        <ele>773.3</ele>
        <time>2026-07-07T10:58:11.000Z</time>
      </trkpt>
      <trkpt lat="45.82859" lon="1.92745">
        <ele>773.3</ele>
        <time>2026-07-07T10:58:12.000Z</time>
      </trkpt>
      <trkpt lat="45.82859" lon="1.92745">
        <ele>773.6</ele>
        <time>2026-07-07T10:58:13.000Z</time>
      </trkpt>
      <trkpt lat="45.82859" lon="1.92744">
        <ele>773.4</ele>
        <time>2026-07-07T10:58:14.000Z</time>
      </trkpt>
      <trkpt lat="45.82859" lon="1.92744">
        <ele>773.4</ele>
        <time>2026-07-07T10:58:15.000Z</time>
      </trkpt>
      <trkpt lat="45.82859" lon="1.92745">
        <ele>773.4</ele>
        <time>2026-07-07T10:58:16.000Z</time>
      </trkpt>
      <trkpt lat="45.82859" lon="1.92745">
        <ele>773.4</ele>
        <time>2026-07-07T10:58:17.000Z</time>
      </trkpt>
      <trkpt lat="45.82859" lon="1.92745">
        <ele>773.4</ele>
        <time>2026-07-07T10:58:18.000Z</time>
      </trkpt>
      <trkpt lat="45.82859" lon="1.92745">
        <ele>773.4</ele>
        <time>2026-07-07T10:58:19.000Z</time>
      </trkpt>
      <trkpt lat="45.82859" lon="1.92745">
        <ele>773.4</ele>
        <time>2026-07-07T10:58:20.000Z</time>
      </trkpt>
      <trkpt lat="45.82859" lon="1.92745">
        <ele>773.4</ele>
        <time>2026-07-07T10:58:21.000Z</time>
      </trkpt>
      <trkpt lat="45.82859" lon="1.92745">
        <ele>773.4</ele>
        <time>2026-07-07T10:58:22.000Z</time>
      </trkpt>
      <trkpt lat="45.82859" lon="1.92745">
        <ele>773.4</ele>
        <time>2026-07-07T10:58:23.000Z</time>
      </trkpt>
      <trkpt lat="45.82859" lon="1.92745">
        <ele>773.4</ele>
        <time>2026-07-07T10:58:24.000Z</time>
      </trkpt>
      <trkpt lat="45.82859" lon="1.92745">
        <ele>773.4</ele>
        <time>2026-07-07T10:58:25.000Z</time>
      </trkpt>
      <trkpt lat="45.82859" lon="1.92745">
        <ele>773.4</ele>
        <time>2026-07-07T10:58:26.000Z</time>
      </trkpt>
      <trkpt lat="45.82859" lon="1.92745">
        <ele>773.4</ele>
        <time>2026-07-07T10:58:27.000Z</time>
      </trkpt>
      <trkpt lat="45.82859" lon="1.92745">
        <ele>773.4</ele>
        <time>2026-07-07T10:58:28.000Z</time>
      </trkpt>
      <trkpt lat="45.82859" lon="1.92745">
        <ele>773.4</ele>
        <time>2026-07-07T10:58:29.000Z</time>
      </trkpt>
      <trkpt lat="45.82859" lon="1.92744">
        <ele>773.4</ele>
        <time>2026-07-07T10:58:30.000Z</time>
      </trkpt>
      <trkpt lat="45.82859" lon="1.92744">
        <ele>773.4</ele>
        <time>2026-07-07T10:58:31.000Z</time>
      </trkpt>
      <trkpt lat="45.82859" lon="1.92744">
        <ele>773.4</ele>
        <time>2026-07-07T10:58:32.000Z</time>
      </trkpt>
      <trkpt lat="45.82859" lon="1.92744">
        <ele>773.4</ele>
        <time>2026-07-07T10:58:33.000Z</time>
      </trkpt>
      <trkpt lat="45.82859" lon="1.92744">
        <ele>773.4</ele>
        <time>2026-07-07T10:58:34.000Z</time>
      </trkpt>
      <trkpt lat="45.82859" lon="1.92744">
        <ele>773.4</ele>
        <time>2026-07-07T10:58:35.000Z</time>
      </trkpt>
      <trkpt lat="45.82859" lon="1.92744">
        <ele>773.4</ele>
        <time>2026-07-07T10:58:36.000Z</time>
      </trkpt>
      <trkpt lat="45.82859" lon="1.92744">
        <ele>773.4</ele>
        <time>2026-07-07T10:58:37.000Z</time>
      </trkpt>
      <trkpt lat="45.82859" lon="1.92744">
        <ele>773.4</ele>
        <time>2026-07-07T10:58:38.000Z</time>
      </trkpt>
      <trkpt lat="45.82859" lon="1.92744">
        <ele>773.4</ele>
        <time>2026-07-07T10:58:39.000Z</time>
      </trkpt>
      <trkpt lat="45.82859" lon="1.92744">
        <ele>773.4</ele>
        <time>2026-07-07T10:58:40.000Z</time>
      </trkpt>
      <trkpt lat="45.82859" lon="1.92745">
        <ele>773.4</ele>
        <time>2026-07-07T10:58:41.000Z</time>
      </trkpt>
      <trkpt lat="45.82859" lon="1.92745">
        <ele>773.4</ele>
        <time>2026-07-07T10:58:42.000Z</time>
      </trkpt>
      <trkpt lat="45.82859" lon="1.92745">
        <ele>773.4</ele>
        <time>2026-07-07T10:58:43.000Z</time>
      </trkpt>
      <trkpt lat="45.82859" lon="1.92745">
        <ele>773.4</ele>
        <time>2026-07-07T10:58:44.000Z</time>
      </trkpt>
      <trkpt lat="45.82859" lon="1.92745">
        <ele>773.4</ele>
        <time>2026-07-07T10:58:45.000Z</time>
      </trkpt>
      <trkpt lat="45.82859" lon="1.92745">
        <ele>773.4</ele>
        <time>2026-07-07T10:58:46.000Z</time>
      </trkpt>
      <trkpt lat="45.82859" lon="1.92745">
        <ele>773.6</ele>
        <time>2026-07-07T10:58:47.000Z</time>
      </trkpt>
      <trkpt lat="45.82859" lon="1.92745">
        <ele>773.9</ele>
        <time>2026-07-07T10:58:48.000Z</time>
      </trkpt>
      <trkpt lat="45.82859" lon="1.92745">
        <ele>773.8</ele>
        <time>2026-07-07T10:58:49.000Z</time>
      </trkpt>
      <trkpt lat="45.82859" lon="1.92745">
        <ele>773.5</ele>
        <time>2026-07-07T10:58:50.000Z</time>
      </trkpt>
      <trkpt lat="45.82859" lon="1.92745">
        <ele>773.5</ele>
        <time>2026-07-07T10:58:51.000Z</time>
      </trkpt>
      <trkpt lat="45.82859" lon="1.92746">
        <ele>773.5</ele>
        <time>2026-07-07T10:58:52.000Z</time>
      </trkpt>
      <trkpt lat="45.82859" lon="1.92746">
        <ele>773.5</ele>
        <time>2026-07-07T10:58:53.000Z</time>
      </trkpt>
      <trkpt lat="45.82859" lon="1.92746">
        <ele>773.5</ele>
        <time>2026-07-07T10:58:54.000Z</time>
      </trkpt>
      <trkpt lat="45.82859" lon="1.92746">
        <ele>773.5</ele>
        <time>2026-07-07T10:58:55.000Z</time>
      </trkpt>
      <trkpt lat="45.82859" lon="1.92746">
        <ele>773.1</ele>
        <time>2026-07-07T10:58:56.000Z</time>
      </trkpt>
      <trkpt lat="45.82859" lon="1.92746">
        <ele>773.1</ele>
        <time>2026-07-07T10:58:57.000Z</time>
      </trkpt>
      <trkpt lat="45.82859" lon="1.92746">
        <ele>773.1</ele>
        <time>2026-07-07T10:58:58.000Z</time>
      </trkpt>
      <trkpt lat="45.82859" lon="1.92746">
        <ele>773.1</ele>
        <time>2026-07-07T10:58:59.000Z</time>
      </trkpt>
      <trkpt lat="45.82859" lon="1.92746">
        <ele>773.1</ele>
        <time>2026-07-07T10:59:00.000Z</time>
      </trkpt>
      <trkpt lat="45.82859" lon="1.92746">
        <ele>773.1</ele>
        <time>2026-07-07T10:59:01.000Z</time>
      </trkpt>
      <trkpt lat="45.82859" lon="1.92746">
        <ele>773.1</ele>
        <time>2026-07-07T10:59:02.000Z</time>
      </trkpt>
      <trkpt lat="45.82859" lon="1.92746">
        <ele>773.1</ele>
        <time>2026-07-07T10:59:03.000Z</time>
      </trkpt>
      <trkpt lat="45.8286" lon="1.92746">
        <ele>773.8</ele>
        <time>2026-07-07T10:59:04.000Z</time>
      </trkpt>
      <trkpt lat="45.8286" lon="1.92746">
        <ele>773.8</ele>
        <time>2026-07-07T10:59:05.000Z</time>
      </trkpt>
      <trkpt lat="45.8286" lon="1.92746">
        <ele>773.8</ele>
        <time>2026-07-07T10:59:06.000Z</time>
      </trkpt>
      <trkpt lat="45.8286" lon="1.92746">
        <ele>773.8</ele>
        <time>2026-07-07T10:59:07.000Z</time>
      </trkpt>
      <trkpt lat="45.8286" lon="1.92746">
        <ele>773.8</ele>
        <time>2026-07-07T10:59:08.000Z</time>
      </trkpt>
      <trkpt lat="45.8286" lon="1.92746">
        <ele>773.8</ele>
        <time>2026-07-07T10:59:09.000Z</time>
      </trkpt>
      <trkpt lat="45.8286" lon="1.92746">
        <ele>773.8</ele>
        <time>2026-07-07T10:59:10.000Z</time>
      </trkpt>
      <trkpt lat="45.8286" lon="1.92746">
        <ele>773.8</ele>
        <time>2026-07-07T10:59:11.000Z</time>
      </trkpt>
      <trkpt lat="45.8286" lon="1.92746">
        <ele>773.8</ele>
        <time>2026-07-07T10:59:12.000Z</time>
      </trkpt>
      <trkpt lat="45.8286" lon="1.92746">
        <ele>773.8</ele>
        <time>2026-07-07T10:59:13.000Z</time>
      </trkpt>
      <trkpt lat="45.8286" lon="1.92746">
        <ele>773.8</ele>
        <time>2026-07-07T10:59:14.000Z</time>
      </trkpt>
      <trkpt lat="45.8286" lon="1.92746">
        <ele>773.8</ele>
        <time>2026-07-07T10:59:15.000Z</time>
      </trkpt>
      <trkpt lat="45.8286" lon="1.92746">
        <ele>773.8</ele>
        <time>2026-07-07T10:59:16.000Z</time>
      </trkpt>
      <trkpt lat="45.8286" lon="1.92746">
        <ele>773.8</ele>
        <time>2026-07-07T10:59:17.000Z</time>
      </trkpt>
      <trkpt lat="45.8286" lon="1.92746">
        <ele>773.8</ele>
        <time>2026-07-07T10:59:18.000Z</time>
      </trkpt>
      <trkpt lat="45.8286" lon="1.92746">
        <ele>773.8</ele>
        <time>2026-07-07T10:59:19.000Z</time>
      </trkpt>
      <trkpt lat="45.8286" lon="1.92746">
        <ele>773.8</ele>
        <time>2026-07-07T10:59:20.000Z</time>
      </trkpt>
      <trkpt lat="45.8286" lon="1.92746">
        <ele>773.8</ele>
        <time>2026-07-07T10:59:21.000Z</time>
      </trkpt>
      <trkpt lat="45.8286" lon="1.92746">
        <ele>773.8</ele>
        <time>2026-07-07T10:59:22.000Z</time>
      </trkpt>
      <trkpt lat="45.8286" lon="1.92746">
        <ele>773.8</ele>
        <time>2026-07-07T10:59:23.000Z</time>
      </trkpt>
      <trkpt lat="45.8286" lon="1.92746">
        <ele>773.8</ele>
        <time>2026-07-07T10:59:24.000Z</time>
      </trkpt>
      <trkpt lat="45.8286" lon="1.92746">
        <ele>773.8</ele>
        <time>2026-07-07T10:59:25.000Z</time>
      </trkpt>
      <trkpt lat="45.8286" lon="1.92746">
        <ele>773.8</ele>
        <time>2026-07-07T10:59:26.000Z</time>
      </trkpt>
      <trkpt lat="45.8286" lon="1.92746">
        <ele>773.8</ele>
        <time>2026-07-07T10:59:27.000Z</time>
      </trkpt>
      <trkpt lat="45.8286" lon="1.92746">
        <ele>773.8</ele>
        <time>2026-07-07T10:59:28.000Z</time>
      </trkpt>
      <trkpt lat="45.8286" lon="1.92746">
        <ele>773.8</ele>
        <time>2026-07-07T10:59:29.000Z</time>
      </trkpt>
      <trkpt lat="45.8286" lon="1.92746">
        <ele>773.8</ele>
        <time>2026-07-07T10:59:30.000Z</time>
      </trkpt>
      <trkpt lat="45.8286" lon="1.92746">
        <ele>773.8</ele>
        <time>2026-07-07T10:59:31.000Z</time>
      </trkpt>
      <trkpt lat="45.8286" lon="1.92746">
        <ele>773.8</ele>
        <time>2026-07-07T10:59:32.000Z</time>
      </trkpt>
      <trkpt lat="45.8286" lon="1.92746">
        <ele>773.8</ele>
        <time>2026-07-07T10:59:33.000Z</time>
      </trkpt>
      <trkpt lat="45.8286" lon="1.92746">
        <ele>773.8</ele>
        <time>2026-07-07T10:59:34.000Z</time>
      </trkpt>
      <trkpt lat="45.8286" lon="1.92746">
        <ele>773.8</ele>
        <time>2026-07-07T10:59:35.000Z</time>
      </trkpt>
      <trkpt lat="45.8286" lon="1.92746">
        <ele>773.8</ele>
        <time>2026-07-07T10:59:36.000Z</time>
      </trkpt>
      <trkpt lat="45.8286" lon="1.92746">
        <ele>773.8</ele>
        <time>2026-07-07T10:59:37.000Z</time>
      </trkpt>
      <trkpt lat="45.8286" lon="1.92746">
        <ele>773.8</ele>
        <time>2026-07-07T10:59:38.000Z</time>
      </trkpt>
      <trkpt lat="45.8286" lon="1.92746">
        <ele>773.8</ele>
        <time>2026-07-07T10:59:39.000Z</time>
      </trkpt>
      <trkpt lat="45.8286" lon="1.92746">
        <ele>773.8</ele>
        <time>2026-07-07T10:59:40.000Z</time>
      </trkpt>
      <trkpt lat="45.8286" lon="1.92746">
        <ele>773.8</ele>
        <time>2026-07-07T10:59:41.000Z</time>
      </trkpt>
      <trkpt lat="45.8286" lon="1.92746">
        <ele>773.8</ele>
        <time>2026-07-07T10:59:42.000Z</time>
      </trkpt>
      <trkpt lat="45.8286" lon="1.92746">
        <ele>773.8</ele>
        <time>2026-07-07T10:59:43.000Z</time>
      </trkpt>
      <trkpt lat="45.8286" lon="1.92746">
        <ele>773.8</ele>
        <time>2026-07-07T10:59:44.000Z</time>
      </trkpt>
      <trkpt lat="45.8286" lon="1.92746">
        <ele>773.8</ele>
        <time>2026-07-07T10:59:45.000Z</time>
      </trkpt>
      <trkpt lat="45.8286" lon="1.92746">
        <ele>773.8</ele>
        <time>2026-07-07T10:59:46.000Z</time>
      </trkpt>
      <trkpt lat="45.8286" lon="1.92746">
        <ele>773.8</ele>
        <time>2026-07-07T10:59:47.000Z</time>
      </trkpt>
      <trkpt lat="45.8286" lon="1.92746">
        <ele>773.8</ele>
        <time>2026-07-07T10:59:48.000Z</time>
      </trkpt>
      <trkpt lat="45.8286" lon="1.92746">
        <ele>773.8</ele>
        <time>2026-07-07T10:59:49.000Z</time>
      </trkpt>
      <trkpt lat="45.8286" lon="1.92746">
        <ele>773.9</ele>
        <time>2026-07-07T10:59:50.000Z</time>
      </trkpt>
      <trkpt lat="45.8286" lon="1.92746">
        <ele>773.9</ele>
        <time>2026-07-07T10:59:51.000Z</time>
      </trkpt>
      <trkpt lat="45.8286" lon="1.92746">
        <ele>773.9</ele>
        <time>2026-07-07T10:59:52.000Z</time>
      </trkpt>
      <trkpt lat="45.8286" lon="1.92746">
        <ele>773.9</ele>
        <time>2026-07-07T10:59:53.000Z</time>
      </trkpt>
      <trkpt lat="45.8286" lon="1.92746">
        <ele>773.9</ele>
        <time>2026-07-07T10:59:54.000Z</time>
      </trkpt>
      <trkpt lat="45.8286" lon="1.92746">
        <ele>773.9</ele>
        <time>2026-07-07T10:59:55.000Z</time>
      </trkpt>
      <trkpt lat="45.8286" lon="1.92746">
        <ele>773.9</ele>
        <time>2026-07-07T10:59:56.000Z</time>
      </trkpt>
      <trkpt lat="45.8286" lon="1.92746">
        <ele>773.9</ele>
        <time>2026-07-07T10:59:57.000Z</time>
      </trkpt>
      <trkpt lat="45.8286" lon="1.92746">
        <ele>773.9</ele>
        <time>2026-07-07T10:59:58.000Z</time>
      </trkpt>
      <trkpt lat="45.8286" lon="1.92746">
        <ele>773.9</ele>
        <time>2026-07-07T10:59:59.000Z</time>
      </trkpt>
      <trkpt lat="45.8286" lon="1.92746">
        <ele>773.9</ele>
        <time>2026-07-07T11:00:00.000Z</time>
      </trkpt>
      <trkpt lat="45.8286" lon="1.92746">
        <ele>773.9</ele>
        <time>2026-07-07T11:00:01.000Z</time>
      </trkpt>
      <trkpt lat="45.8286" lon="1.92746">
        <ele>773.9</ele>
        <time>2026-07-07T11:00:02.000Z</time>
      </trkpt>
      <trkpt lat="45.8286" lon="1.92746">
        <ele>773.9</ele>
        <time>2026-07-07T11:00:03.000Z</time>
      </trkpt>
      <trkpt lat="45.8286" lon="1.92746">
        <ele>773.9</ele>
        <time>2026-07-07T11:00:04.000Z</time>
      </trkpt>
      <trkpt lat="45.8286" lon="1.92746">
        <ele>773.9</ele>
        <time>2026-07-07T11:00:05.000Z</time>
      </trkpt>
      <trkpt lat="45.8286" lon="1.92746">
        <ele>773.9</ele>
        <time>2026-07-07T11:00:06.000Z</time>
      </trkpt>
      <trkpt lat="45.8286" lon="1.92746">
        <ele>773.9</ele>
        <time>2026-07-07T11:00:07.000Z</time>
      </trkpt>
      <trkpt lat="45.8286" lon="1.92746">
        <ele>773.9</ele>
        <time>2026-07-07T11:00:08.000Z</time>
      </trkpt>
      <trkpt lat="45.8286" lon="1.92746">
        <ele>773.9</ele>
        <time>2026-07-07T11:00:09.000Z</time>
      </trkpt>
      <trkpt lat="45.8286" lon="1.92746">
        <ele>773.9</ele>
        <time>2026-07-07T11:00:10.000Z</time>
      </trkpt>
      <trkpt lat="45.8286" lon="1.92746">
        <ele>773.9</ele>
        <time>2026-07-07T11:00:11.000Z</time>
      </trkpt>
      <trkpt lat="45.8286" lon="1.92746">
        <ele>773.9</ele>
        <time>2026-07-07T11:00:12.000Z</time>
      </trkpt>
      <trkpt lat="45.8286" lon="1.92746">
        <ele>773.9</ele>
        <time>2026-07-07T11:00:13.000Z</time>
      </trkpt>
      <trkpt lat="45.8286" lon="1.92746">
        <ele>773.9</ele>
        <time>2026-07-07T11:00:14.000Z</time>
      </trkpt>
      <trkpt lat="45.8286" lon="1.92746">
        <ele>773.9</ele>
        <time>2026-07-07T11:00:15.000Z</time>
      </trkpt>
      <trkpt lat="45.8286" lon="1.92746">
        <ele>773.9</ele>
        <time>2026-07-07T11:00:16.000Z</time>
      </trkpt>
      <trkpt lat="45.8286" lon="1.92746">
        <ele>773.9</ele>
        <time>2026-07-07T11:00:17.000Z</time>
      </trkpt>
      <trkpt lat="45.8286" lon="1.92746">
        <ele>773.9</ele>
        <time>2026-07-07T11:00:18.000Z</time>
      </trkpt>
      <trkpt lat="45.8286" lon="1.92746">
        <ele>773.9</ele>
        <time>2026-07-07T11:00:19.000Z</time>
      </trkpt>
      <trkpt lat="45.8286" lon="1.92746">
        <ele>773.9</ele>
        <time>2026-07-07T11:00:20.000Z</time>
      </trkpt>
      <trkpt lat="45.8286" lon="1.92746">
        <ele>773.9</ele>
        <time>2026-07-07T11:00:21.000Z</time>
      </trkpt>
      <trkpt lat="45.8286" lon="1.92746">
        <ele>773.9</ele>
        <time>2026-07-07T11:00:22.000Z</time>
      </trkpt>
      <trkpt lat="45.8286" lon="1.92746">
        <ele>773.9</ele>
        <time>2026-07-07T11:00:23.000Z</time>
      </trkpt>
      <trkpt lat="45.8286" lon="1.92746">
        <ele>773.9</ele>
        <time>2026-07-07T11:00:24.000Z</time>
      </trkpt>
      <trkpt lat="45.8286" lon="1.92746">
        <ele>773.9</ele>
        <time>2026-07-07T11:00:25.000Z</time>
      </trkpt>
      <trkpt lat="45.8286" lon="1.92746">
        <ele>773.9</ele>
        <time>2026-07-07T11:00:26.000Z</time>
      </trkpt>
      <trkpt lat="45.8286" lon="1.92746">
        <ele>773.9</ele>
        <time>2026-07-07T11:00:27.000Z</time>
      </trkpt>
      <trkpt lat="45.8286" lon="1.92746">
        <ele>773.9</ele>
        <time>2026-07-07T11:00:28.000Z</time>
      </trkpt>
      <trkpt lat="45.8286" lon="1.92746">
        <ele>773.9</ele>
        <time>2026-07-07T11:00:29.000Z</time>
      </trkpt>
      <trkpt lat="45.8286" lon="1.92746">
        <ele>773.9</ele>
        <time>2026-07-07T11:00:30.000Z</time>
      </trkpt>
      <trkpt lat="45.8286" lon="1.92746">
        <ele>773.9</ele>
        <time>2026-07-07T11:00:31.000Z</time>
      </trkpt>
      <trkpt lat="45.8286" lon="1.92746">
        <ele>773.9</ele>
        <time>2026-07-07T11:00:32.000Z</time>
      </trkpt>
      <trkpt lat="45.8286" lon="1.92746">
        <ele>773.9</ele>
        <time>2026-07-07T11:00:33.000Z</time>
      </trkpt>
      <trkpt lat="45.8286" lon="1.92746">
        <ele>773.9</ele>
        <time>2026-07-07T11:00:34.000Z</time>
      </trkpt>
      <trkpt lat="45.8286" lon="1.92746">
        <ele>773.9</ele>
        <time>2026-07-07T11:00:35.000Z</time>
      </trkpt>
      <trkpt lat="45.8286" lon="1.92746">
        <ele>773.9</ele>
        <time>2026-07-07T11:00:36.000Z</time>
      </trkpt>
      <trkpt lat="45.8286" lon="1.92746">
        <ele>773.9</ele>
        <time>2026-07-07T11:00:37.000Z</time>
      </trkpt>
      <trkpt lat="45.8286" lon="1.92746">
        <ele>773.9</ele>
        <time>2026-07-07T11:00:38.000Z</time>
      </trkpt>
      <trkpt lat="45.8286" lon="1.92746">
        <ele>773.9</ele>
        <time>2026-07-07T11:00:39.000Z</time>
      </trkpt>
      <trkpt lat="45.8286" lon="1.92746">
        <ele>773.9</ele>
        <time>2026-07-07T11:00:40.000Z</time>
      </trkpt>
      <trkpt lat="45.8286" lon="1.92746">
        <ele>773.9</ele>
        <time>2026-07-07T11:00:41.000Z</time>
      </trkpt>
      <trkpt lat="45.8286" lon="1.92746">
        <ele>773.9</ele>
        <time>2026-07-07T11:00:42.000Z</time>
      </trkpt>
      <trkpt lat="45.8286" lon="1.92746">
        <ele>773.9</ele>
        <time>2026-07-07T11:00:43.000Z</time>
      </trkpt>
      <trkpt lat="45.8286" lon="1.92746">
        <ele>773.9</ele>
        <time>2026-07-07T11:00:44.000Z</time>
      </trkpt>
      <trkpt lat="45.8286" lon="1.92746">
        <ele>773.9</ele>
        <time>2026-07-07T11:00:45.000Z</time>
      </trkpt>
      <trkpt lat="45.8286" lon="1.92746">
        <ele>773.9</ele>
        <time>2026-07-07T11:00:46.000Z</time>
      </trkpt>
      <trkpt lat="45.8286" lon="1.92746">
        <ele>773.9</ele>
        <time>2026-07-07T11:00:47.000Z</time>
      </trkpt>
      <trkpt lat="45.8286" lon="1.92746">
        <ele>773.9</ele>
        <time>2026-07-07T11:00:48.000Z</time>
      </trkpt>
      <trkpt lat="45.8286" lon="1.92746">
        <ele>773.9</ele>
        <time>2026-07-07T11:00:49.000Z</time>
      </trkpt>
      <trkpt lat="45.8286" lon="1.92746">
        <ele>773.9</ele>
        <time>2026-07-07T11:00:50.000Z</time>
      </trkpt>
      <trkpt lat="45.8286" lon="1.92746">
        <ele>773.9</ele>
        <time>2026-07-07T11:00:51.000Z</time>
      </trkpt>
      <trkpt lat="45.8286" lon="1.92746">
        <ele>773.9</ele>
        <time>2026-07-07T11:00:52.000Z</time>
      </trkpt>
      <trkpt lat="45.8286" lon="1.92746">
        <ele>773.9</ele>
        <time>2026-07-07T11:00:53.000Z</time>
      </trkpt>
      <trkpt lat="45.8286" lon="1.92746">
        <ele>773.9</ele>
        <time>2026-07-07T11:00:54.000Z</time>
      </trkpt>
      <trkpt lat="45.8286" lon="1.92746">
        <ele>773.9</ele>
        <time>2026-07-07T11:00:55.000Z</time>
      </trkpt>
      <trkpt lat="45.8286" lon="1.92746">
        <ele>773.9</ele>
        <time>2026-07-07T11:00:56.000Z</time>
      </trkpt>
      <trkpt lat="45.8286" lon="1.92746">
        <ele>773.9</ele>
        <time>2026-07-07T11:00:57.000Z</time>
      </trkpt>
      <trkpt lat="45.8286" lon="1.92746">
        <ele>773.9</ele>
        <time>2026-07-07T11:00:58.000Z</time>
      </trkpt>
      <trkpt lat="45.8286" lon="1.92746">
        <ele>773.9</ele>
        <time>2026-07-07T11:00:59.000Z</time>
      </trkpt>
      <trkpt lat="45.8286" lon="1.92746">
        <ele>773.9</ele>
        <time>2026-07-07T11:01:00.000Z</time>
      </trkpt>
      <trkpt lat="45.8286" lon="1.92746">
        <ele>773.9</ele>
        <time>2026-07-07T11:01:01.000Z</time>
      </trkpt>
      <trkpt lat="45.8286" lon="1.92746">
        <ele>773.9</ele>
        <time>2026-07-07T11:01:02.000Z</time>
      </trkpt>
      <trkpt lat="45.8286" lon="1.92746">
        <ele>773.9</ele>
        <time>2026-07-07T11:01:03.000Z</time>
      </trkpt>
      <trkpt lat="45.8286" lon="1.92746">
        <ele>774</ele>
        <time>2026-07-07T11:01:04.000Z</time>
      </trkpt>
      <trkpt lat="45.8286" lon="1.92746">
        <ele>774</ele>
        <time>2026-07-07T11:01:05.000Z</time>
      </trkpt>
      <trkpt lat="45.8286" lon="1.92746">
        <ele>774</ele>
        <time>2026-07-07T11:01:06.000Z</time>
      </trkpt>
      <trkpt lat="45.8286" lon="1.92746">
        <ele>774</ele>
        <time>2026-07-07T11:01:07.000Z</time>
      </trkpt>
      <trkpt lat="45.8286" lon="1.92746">
        <ele>774</ele>
        <time>2026-07-07T11:01:08.000Z</time>
      </trkpt>
      <trkpt lat="45.8286" lon="1.92746">
        <ele>774</ele>
        <time>2026-07-07T11:01:09.000Z</time>
      </trkpt>
      <trkpt lat="45.8286" lon="1.92746">
        <ele>774</ele>
        <time>2026-07-07T11:01:10.000Z</time>
      </trkpt>
      <trkpt lat="45.8286" lon="1.92746">
        <ele>774</ele>
        <time>2026-07-07T11:01:11.000Z</time>
      </trkpt>
      <trkpt lat="45.8286" lon="1.92746">
        <ele>774</ele>
        <time>2026-07-07T11:01:12.000Z</time>
      </trkpt>
      <trkpt lat="45.8286" lon="1.92746">
        <ele>774</ele>
        <time>2026-07-07T11:01:13.000Z</time>
      </trkpt>
      <trkpt lat="45.8286" lon="1.92746">
        <ele>774</ele>
        <time>2026-07-07T11:01:14.000Z</time>
      </trkpt>
      <trkpt lat="45.8286" lon="1.92746">
        <ele>774</ele>
        <time>2026-07-07T11:01:15.000Z</time>
      </trkpt>
      <trkpt lat="45.8286" lon="1.92746">
        <ele>774</ele>
        <time>2026-07-07T11:01:16.000Z</time>
      </trkpt>
      <trkpt lat="45.8286" lon="1.92746">
        <ele>774</ele>
        <time>2026-07-07T11:01:17.000Z</time>
      </trkpt>
      <trkpt lat="45.8286" lon="1.92746">
        <ele>774</ele>
        <time>2026-07-07T11:01:18.000Z</time>
      </trkpt>
      <trkpt lat="45.8286" lon="1.92746">
        <ele>774</ele>
        <time>2026-07-07T11:01:19.000Z</time>
      </trkpt>
      <trkpt lat="45.8286" lon="1.92746">
        <ele>774</ele>
        <time>2026-07-07T11:01:20.000Z</time>
      </trkpt>
      <trkpt lat="45.8286" lon="1.92746">
        <ele>774</ele>
        <time>2026-07-07T11:01:21.000Z</time>
      </trkpt>
      <trkpt lat="45.8286" lon="1.92746">
        <ele>774</ele>
        <time>2026-07-07T11:01:22.000Z</time>
      </trkpt>
      <trkpt lat="45.8286" lon="1.92746">
        <ele>774</ele>
        <time>2026-07-07T11:01:23.000Z</time>
      </trkpt>
      <trkpt lat="45.8286" lon="1.92746">
        <ele>774.1</ele>
        <time>2026-07-07T11:01:24.000Z</time>
      </trkpt>
      <trkpt lat="45.8286" lon="1.92746">
        <ele>774.1</ele>
        <time>2026-07-07T11:01:25.000Z</time>
      </trkpt>
      <trkpt lat="45.8286" lon="1.92746">
        <ele>774.1</ele>
        <time>2026-07-07T11:01:26.000Z</time>
      </trkpt>
      <trkpt lat="45.8286" lon="1.92746">
        <ele>774.1</ele>
        <time>2026-07-07T11:01:27.000Z</time>
      </trkpt>
      <trkpt lat="45.8286" lon="1.92746">
        <ele>774.1</ele>
        <time>2026-07-07T11:01:28.000Z</time>
      </trkpt>
      <trkpt lat="45.8286" lon="1.92746">
        <ele>774.1</ele>
        <time>2026-07-07T11:01:29.000Z</time>
      </trkpt>
      <trkpt lat="45.8286" lon="1.92746">
        <ele>774.1</ele>
        <time>2026-07-07T11:01:30.000Z</time>
      </trkpt>
      <trkpt lat="45.8286" lon="1.92746">
        <ele>774.1</ele>
        <time>2026-07-07T11:01:31.000Z</time>
      </trkpt>
      <trkpt lat="45.8286" lon="1.92746">
        <ele>774.1</ele>
        <time>2026-07-07T11:01:32.000Z</time>
      </trkpt>
      <trkpt lat="45.8286" lon="1.92746">
        <ele>774.1</ele>
        <time>2026-07-07T11:01:33.000Z</time>
      </trkpt>
      <trkpt lat="45.8286" lon="1.92746">
        <ele>774.1</ele>
        <time>2026-07-07T11:01:34.000Z</time>
      </trkpt>
      <trkpt lat="45.8286" lon="1.92746">
        <ele>774.1</ele>
        <time>2026-07-07T11:01:35.000Z</time>
      </trkpt>
      <trkpt lat="45.8286" lon="1.92746">
        <ele>774.1</ele>
        <time>2026-07-07T11:01:36.000Z</time>
      </trkpt>
      <trkpt lat="45.8286" lon="1.92746">
        <ele>774.1</ele>
        <time>2026-07-07T11:01:37.000Z</time>
      </trkpt>
      <trkpt lat="45.8286" lon="1.92746">
        <ele>774.1</ele>
        <time>2026-07-07T11:01:38.000Z</time>
      </trkpt>
      <trkpt lat="45.8286" lon="1.92746">
        <ele>774.1</ele>
        <time>2026-07-07T11:01:39.000Z</time>
      </trkpt>
      <trkpt lat="45.8286" lon="1.92746">
        <ele>774.1</ele>
        <time>2026-07-07T11:01:40.000Z</time>
      </trkpt>
      <trkpt lat="45.8286" lon="1.92746">
        <ele>774.1</ele>
        <time>2026-07-07T11:01:41.000Z</time>
      </trkpt>
      <trkpt lat="45.8286" lon="1.92746">
        <ele>774.1</ele>
        <time>2026-07-07T11:01:42.000Z</time>
      </trkpt>
      <trkpt lat="45.8286" lon="1.92746">
        <ele>774.1</ele>
        <time>2026-07-07T11:01:43.000Z</time>
      </trkpt>
      <trkpt lat="45.8286" lon="1.92746">
        <ele>774.1</ele>
        <time>2026-07-07T11:01:44.000Z</time>
      </trkpt>
      <trkpt lat="45.8286" lon="1.92746">
        <ele>774.1</ele>
        <time>2026-07-07T11:01:45.000Z</time>
      </trkpt>
      <trkpt lat="45.8286" lon="1.92746">
        <ele>774.1</ele>
        <time>2026-07-07T11:01:46.000Z</time>
      </trkpt>
      <trkpt lat="45.8286" lon="1.92746">
        <ele>774.1</ele>
        <time>2026-07-07T11:01:47.000Z</time>
      </trkpt>
      <trkpt lat="45.8286" lon="1.92746">
        <ele>774.1</ele>
        <time>2026-07-07T11:01:48.000Z</time>
      </trkpt>
      <trkpt lat="45.8286" lon="1.92746">
        <ele>774.1</ele>
        <time>2026-07-07T11:01:49.000Z</time>
      </trkpt>
      <trkpt lat="45.8286" lon="1.92746">
        <ele>774.1</ele>
        <time>2026-07-07T11:01:50.000Z</time>
      </trkpt>
      <trkpt lat="45.8286" lon="1.92746">
        <ele>774.1</ele>
        <time>2026-07-07T11:01:51.000Z</time>
      </trkpt>
      <trkpt lat="45.8286" lon="1.92746">
        <ele>774.1</ele>
        <time>2026-07-07T11:01:52.000Z</time>
      </trkpt>
      <trkpt lat="45.8286" lon="1.92746">
        <ele>774.1</ele>
        <time>2026-07-07T11:01:53.000Z</time>
      </trkpt>
      <trkpt lat="45.8286" lon="1.92746">
        <ele>774.1</ele>
        <time>2026-07-07T11:01:54.000Z</time>
      </trkpt>
      <trkpt lat="45.8286" lon="1.92746">
        <ele>774.1</ele>
        <time>2026-07-07T11:01:55.000Z</time>
      </trkpt>
      <trkpt lat="45.8286" lon="1.92746">
        <ele>774.1</ele>
        <time>2026-07-07T11:01:56.000Z</time>
      </trkpt>
      <trkpt lat="45.8286" lon="1.92746">
        <ele>774.1</ele>
        <time>2026-07-07T11:01:57.000Z</time>
      </trkpt>
      <trkpt lat="45.8286" lon="1.92746">
        <ele>774.1</ele>
        <time>2026-07-07T11:01:58.000Z</time>
      </trkpt>
      <trkpt lat="45.8286" lon="1.92746">
        <ele>774.1</ele>
        <time>2026-07-07T11:01:59.000Z</time>
      </trkpt>
      <trkpt lat="45.8286" lon="1.92746">
        <ele>774.1</ele>
        <time>2026-07-07T11:02:00.000Z</time>
      </trkpt>
      <trkpt lat="45.8286" lon="1.92746">
        <ele>774.1</ele>
        <time>2026-07-07T11:02:01.000Z</time>
      </trkpt>
      <trkpt lat="45.8286" lon="1.92746">
        <ele>774.1</ele>
        <time>2026-07-07T11:02:02.000Z</time>
      </trkpt>
      <trkpt lat="45.8286" lon="1.92746">
        <ele>774.1</ele>
        <time>2026-07-07T11:02:03.000Z</time>
      </trkpt>
      <trkpt lat="45.8286" lon="1.92746">
        <ele>774.1</ele>
        <time>2026-07-07T11:02:04.000Z</time>
      </trkpt>
      <trkpt lat="45.8286" lon="1.92746">
        <ele>774.1</ele>
        <time>2026-07-07T11:02:05.000Z</time>
      </trkpt>
      <trkpt lat="45.8286" lon="1.92746">
        <ele>774.1</ele>
        <time>2026-07-07T11:02:06.000Z</time>
      </trkpt>
      <trkpt lat="45.8286" lon="1.92746">
        <ele>774.1</ele>
        <time>2026-07-07T11:02:07.000Z</time>
      </trkpt>
      <trkpt lat="45.8286" lon="1.92746">
        <ele>774.1</ele>
        <time>2026-07-07T11:02:08.000Z</time>
      </trkpt>
      <trkpt lat="45.8286" lon="1.92746">
        <ele>774.1</ele>
        <time>2026-07-07T11:02:09.000Z</time>
      </trkpt>
      <trkpt lat="45.8286" lon="1.92746">
        <ele>774.1</ele>
        <time>2026-07-07T11:02:10.000Z</time>
      </trkpt>
      <trkpt lat="45.8286" lon="1.92746">
        <ele>774.1</ele>
        <time>2026-07-07T11:02:11.000Z</time>
      </trkpt>
      <trkpt lat="45.8286" lon="1.92746">
        <ele>774.1</ele>
        <time>2026-07-07T11:02:12.000Z</time>
      </trkpt>
      <trkpt lat="45.8286" lon="1.92746">
        <ele>774.1</ele>
        <time>2026-07-07T11:02:13.000Z</time>
      </trkpt>
      <trkpt lat="45.8286" lon="1.92746">
        <ele>774.1</ele>
        <time>2026-07-07T11:02:14.000Z</time>
      </trkpt>
      <trkpt lat="45.8286" lon="1.92746">
        <ele>774.1</ele>
        <time>2026-07-07T11:02:15.000Z</time>
      </trkpt>
      <trkpt lat="45.8286" lon="1.92746">
        <ele>774.1</ele>
        <time>2026-07-07T11:02:16.000Z</time>
      </trkpt>
      <trkpt lat="45.8286" lon="1.92746">
        <ele>774.1</ele>
        <time>2026-07-07T11:02:17.000Z</time>
      </trkpt>
      <trkpt lat="45.8286" lon="1.92746">
        <ele>774.1</ele>
        <time>2026-07-07T11:02:18.000Z</time>
      </trkpt>
      <trkpt lat="45.8286" lon="1.92746">
        <ele>774.1</ele>
        <time>2026-07-07T11:02:19.000Z</time>
      </trkpt>
      <trkpt lat="45.8286" lon="1.92746">
        <ele>774.1</ele>
        <time>2026-07-07T11:02:20.000Z</time>
      </trkpt>
      <trkpt lat="45.8286" lon="1.92746">
        <ele>774.1</ele>
        <time>2026-07-07T11:02:21.000Z</time>
      </trkpt>
      <trkpt lat="45.8286" lon="1.92746">
        <ele>774.1</ele>
        <time>2026-07-07T11:02:22.000Z</time>
      </trkpt>
      <trkpt lat="45.8286" lon="1.92746">
        <ele>774.1</ele>
        <time>2026-07-07T11:02:23.000Z</time>
      </trkpt>
      <trkpt lat="45.8286" lon="1.92746">
        <ele>774.1</ele>
        <time>2026-07-07T11:02:24.000Z</time>
      </trkpt>
      <trkpt lat="45.8286" lon="1.92746">
        <ele>774.1</ele>
        <time>2026-07-07T11:02:25.000Z</time>
      </trkpt>
      <trkpt lat="45.8286" lon="1.92746">
        <ele>774.1</ele>
        <time>2026-07-07T11:02:26.000Z</time>
      </trkpt>
      <trkpt lat="45.8286" lon="1.92746">
        <ele>774.1</ele>
        <time>2026-07-07T11:02:27.000Z</time>
      </trkpt>
      <trkpt lat="45.8286" lon="1.92746">
        <ele>774.1</ele>
        <time>2026-07-07T11:02:28.000Z</time>
      </trkpt>
      <trkpt lat="45.8286" lon="1.92746">
        <ele>774.1</ele>
        <time>2026-07-07T11:02:29.000Z</time>
      </trkpt>
      <trkpt lat="45.8286" lon="1.92746">
        <ele>774.1</ele>
        <time>2026-07-07T11:02:30.000Z</time>
      </trkpt>
      <trkpt lat="45.8286" lon="1.92746">
        <ele>774.1</ele>
        <time>2026-07-07T11:02:31.000Z</time>
      </trkpt>
      <trkpt lat="45.8286" lon="1.92746">
        <ele>774.1</ele>
        <time>2026-07-07T11:02:32.000Z</time>
      </trkpt>
      <trkpt lat="45.8286" lon="1.92746">
        <ele>774.1</ele>
        <time>2026-07-07T11:02:33.000Z</time>
      </trkpt>
      <trkpt lat="45.8286" lon="1.92746">
        <ele>774.2</ele>
        <time>2026-07-07T11:02:34.000Z</time>
      </trkpt>
      <trkpt lat="45.8286" lon="1.92746">
        <ele>774.2</ele>
        <time>2026-07-07T11:02:35.000Z</time>
      </trkpt>
      <trkpt lat="45.8286" lon="1.92746">
        <ele>774.2</ele>
        <time>2026-07-07T11:02:36.000Z</time>
      </trkpt>
      <trkpt lat="45.8286" lon="1.92746">
        <ele>774.2</ele>
        <time>2026-07-07T11:02:37.000Z</time>
      </trkpt>
      <trkpt lat="45.8286" lon="1.92746">
        <ele>774.2</ele>
        <time>2026-07-07T11:02:38.000Z</time>
      </trkpt>
      <trkpt lat="45.8286" lon="1.92746">
        <ele>774.2</ele>
        <time>2026-07-07T11:02:39.000Z</time>
      </trkpt>
      <trkpt lat="45.8286" lon="1.92746">
        <ele>774.2</ele>
        <time>2026-07-07T11:02:40.000Z</time>
      </trkpt>
      <trkpt lat="45.8286" lon="1.92746">
        <ele>774.2</ele>
        <time>2026-07-07T11:02:41.000Z</time>
      </trkpt>
      <trkpt lat="45.8286" lon="1.92746">
        <ele>774.2</ele>
        <time>2026-07-07T11:02:42.000Z</time>
      </trkpt>
      <trkpt lat="45.8286" lon="1.92746">
        <ele>774.2</ele>
        <time>2026-07-07T11:02:43.000Z</time>
      </trkpt>
      <trkpt lat="45.8286" lon="1.92746">
        <ele>774.2</ele>
        <time>2026-07-07T11:02:44.000Z</time>
      </trkpt>
      <trkpt lat="45.8286" lon="1.92746">
        <ele>774.2</ele>
        <time>2026-07-07T11:02:45.000Z</time>
      </trkpt>
      <trkpt lat="45.8286" lon="1.92746">
        <ele>774.2</ele>
        <time>2026-07-07T11:02:46.000Z</time>
      </trkpt>
      <trkpt lat="45.8286" lon="1.92746">
        <ele>774.2</ele>
        <time>2026-07-07T11:02:47.000Z</time>
      </trkpt>
      <trkpt lat="45.8286" lon="1.92746">
        <ele>774.2</ele>
        <time>2026-07-07T11:02:48.000Z</time>
      </trkpt>
      <trkpt lat="45.8286" lon="1.92746">
        <ele>774.2</ele>
        <time>2026-07-07T11:02:49.000Z</time>
      </trkpt>
      <trkpt lat="45.8286" lon="1.92746">
        <ele>774.2</ele>
        <time>2026-07-07T11:02:50.000Z</time>
      </trkpt>
      <trkpt lat="45.8286" lon="1.92746">
        <ele>774.2</ele>
        <time>2026-07-07T11:02:51.000Z</time>
      </trkpt>
      <trkpt lat="45.8286" lon="1.92746">
        <ele>774.2</ele>
        <time>2026-07-07T11:02:52.000Z</time>
      </trkpt>
      <trkpt lat="45.8286" lon="1.92746">
        <ele>774.2</ele>
        <time>2026-07-07T11:02:53.000Z</time>
      </trkpt>
      <trkpt lat="45.8286" lon="1.92746">
        <ele>774.2</ele>
        <time>2026-07-07T11:02:54.000Z</time>
      </trkpt>
      <trkpt lat="45.8286" lon="1.92746">
        <ele>774.2</ele>
        <time>2026-07-07T11:02:55.000Z</time>
      </trkpt>
      <trkpt lat="45.8286" lon="1.92746">
        <ele>774.2</ele>
        <time>2026-07-07T11:02:56.000Z</time>
      </trkpt>
      <trkpt lat="45.8286" lon="1.92746">
        <ele>774.3</ele>
        <time>2026-07-07T11:02:57.000Z</time>
      </trkpt>
      <trkpt lat="45.8286" lon="1.92746">
        <ele>774.3</ele>
        <time>2026-07-07T11:02:58.000Z</time>
      </trkpt>
      <trkpt lat="45.8286" lon="1.92746">
        <ele>774.3</ele>
        <time>2026-07-07T11:02:59.000Z</time>
      </trkpt>
      <trkpt lat="45.8286" lon="1.92746">
        <ele>774.3</ele>
        <time>2026-07-07T11:03:00.000Z</time>
      </trkpt>
      <trkpt lat="45.8286" lon="1.92746">
        <ele>774.3</ele>
        <time>2026-07-07T11:03:01.000Z</time>
      </trkpt>
      <trkpt lat="45.8286" lon="1.92746">
        <ele>774.3</ele>
        <time>2026-07-07T11:03:02.000Z</time>
      </trkpt>
      <trkpt lat="45.8286" lon="1.92746">
        <ele>774.3</ele>
        <time>2026-07-07T11:03:03.000Z</time>
      </trkpt>
      <trkpt lat="45.8286" lon="1.92746">
        <ele>774.3</ele>
        <time>2026-07-07T11:03:04.000Z</time>
      </trkpt>
      <trkpt lat="45.8286" lon="1.92746">
        <ele>774.3</ele>
        <time>2026-07-07T11:03:05.000Z</time>
      </trkpt>
      <trkpt lat="45.8286" lon="1.92746">
        <ele>774.2</ele>
        <time>2026-07-07T11:03:06.000Z</time>
      </trkpt>
      <trkpt lat="45.8286" lon="1.92746">
        <ele>774.2</ele>
        <time>2026-07-07T11:03:07.000Z</time>
      </trkpt>
      <trkpt lat="45.8286" lon="1.92746">
        <ele>774.2</ele>
        <time>2026-07-07T11:03:08.000Z</time>
      </trkpt>
      <trkpt lat="45.8286" lon="1.92746">
        <ele>774.2</ele>
        <time>2026-07-07T11:03:09.000Z</time>
      </trkpt>
      <trkpt lat="45.8286" lon="1.92746">
        <ele>774.2</ele>
        <time>2026-07-07T11:03:10.000Z</time>
      </trkpt>
      <trkpt lat="45.8286" lon="1.92746">
        <ele>774.2</ele>
        <time>2026-07-07T11:03:11.000Z</time>
      </trkpt>
      <trkpt lat="45.8286" lon="1.92746">
        <ele>774.2</ele>
        <time>2026-07-07T11:03:12.000Z</time>
      </trkpt>
      <trkpt lat="45.8286" lon="1.92746">
        <ele>774.2</ele>
        <time>2026-07-07T11:03:13.000Z</time>
      </trkpt>
      <trkpt lat="45.8286" lon="1.92746">
        <ele>774.2</ele>
        <time>2026-07-07T11:03:14.000Z</time>
      </trkpt>
      <trkpt lat="45.8286" lon="1.92746">
        <ele>774.2</ele>
        <time>2026-07-07T11:03:15.000Z</time>
      </trkpt>
      <trkpt lat="45.8286" lon="1.92746">
        <ele>774.2</ele>
        <time>2026-07-07T11:03:16.000Z</time>
      </trkpt>
      <trkpt lat="45.8286" lon="1.92746">
        <ele>774.2</ele>
        <time>2026-07-07T11:03:17.000Z</time>
      </trkpt>
      <trkpt lat="45.8286" lon="1.92746">
        <ele>774.2</ele>
        <time>2026-07-07T11:03:18.000Z</time>
      </trkpt>
      <trkpt lat="45.8286" lon="1.92746">
        <ele>774.2</ele>
        <time>2026-07-07T11:03:19.000Z</time>
      </trkpt>
      <trkpt lat="45.8286" lon="1.92746">
        <ele>774.2</ele>
        <time>2026-07-07T11:03:20.000Z</time>
      </trkpt>
      <trkpt lat="45.8286" lon="1.92746">
        <ele>774.2</ele>
        <time>2026-07-07T11:03:21.000Z</time>
      </trkpt>
      <trkpt lat="45.8286" lon="1.92746">
        <ele>774.2</ele>
        <time>2026-07-07T11:03:22.000Z</time>
      </trkpt>
      <trkpt lat="45.8286" lon="1.92746">
        <ele>774.2</ele>
        <time>2026-07-07T11:03:23.000Z</time>
      </trkpt>
      <trkpt lat="45.8286" lon="1.92746">
        <ele>774.2</ele>
        <time>2026-07-07T11:03:24.000Z</time>
      </trkpt>
      <trkpt lat="45.8286" lon="1.92746">
        <ele>774.2</ele>
        <time>2026-07-07T11:03:25.000Z</time>
      </trkpt>
      <trkpt lat="45.8286" lon="1.92746">
        <ele>774.2</ele>
        <time>2026-07-07T11:03:26.000Z</time>
      </trkpt>
      <trkpt lat="45.8286" lon="1.92746">
        <ele>774.2</ele>
        <time>2026-07-07T11:03:27.000Z</time>
      </trkpt>
      <trkpt lat="45.8286" lon="1.92746">
        <ele>774.2</ele>
        <time>2026-07-07T11:03:28.000Z</time>
      </trkpt>
      <trkpt lat="45.8286" lon="1.92746">
        <ele>774.2</ele>
        <time>2026-07-07T11:03:29.000Z</time>
      </trkpt>
      <trkpt lat="45.8286" lon="1.92746">
        <ele>774.2</ele>
        <time>2026-07-07T11:03:30.000Z</time>
      </trkpt>
      <trkpt lat="45.8286" lon="1.92746">
        <ele>774.2</ele>
        <time>2026-07-07T11:03:31.000Z</time>
      </trkpt>
      <trkpt lat="45.8286" lon="1.92746">
        <ele>774.2</ele>
        <time>2026-07-07T11:03:32.000Z</time>
      </trkpt>
      <trkpt lat="45.8286" lon="1.92746">
        <ele>774.2</ele>
        <time>2026-07-07T11:03:33.000Z</time>
      </trkpt>
      <trkpt lat="45.8286" lon="1.92746">
        <ele>774.2</ele>
        <time>2026-07-07T11:03:34.000Z</time>
      </trkpt>
      <trkpt lat="45.8286" lon="1.92746">
        <ele>774.2</ele>
        <time>2026-07-07T11:03:35.000Z</time>
      </trkpt>
      <trkpt lat="45.8286" lon="1.92746">
        <ele>774.2</ele>
        <time>2026-07-07T11:03:36.000Z</time>
      </trkpt>
      <trkpt lat="45.8286" lon="1.92746">
        <ele>774.2</ele>
        <time>2026-07-07T11:03:37.000Z</time>
      </trkpt>
      <trkpt lat="45.8286" lon="1.92746">
        <ele>774.2</ele>
        <time>2026-07-07T11:03:38.000Z</time>
      </trkpt>
      <trkpt lat="45.8286" lon="1.92746">
        <ele>774.2</ele>
        <time>2026-07-07T11:03:39.000Z</time>
      </trkpt>
      <trkpt lat="45.8286" lon="1.92746">
        <ele>774.2</ele>
        <time>2026-07-07T11:03:40.000Z</time>
      </trkpt>
      <trkpt lat="45.8286" lon="1.92746">
        <ele>774.2</ele>
        <time>2026-07-07T11:03:41.000Z</time>
      </trkpt>
      <trkpt lat="45.8286" lon="1.92746">
        <ele>774.2</ele>
        <time>2026-07-07T11:03:42.000Z</time>
      </trkpt>
      <trkpt lat="45.8286" lon="1.92746">
        <ele>774.2</ele>
        <time>2026-07-07T11:03:43.000Z</time>
      </trkpt>
      <trkpt lat="45.8286" lon="1.92746">
        <ele>774.2</ele>
        <time>2026-07-07T11:03:44.000Z</time>
      </trkpt>
      <trkpt lat="45.8286" lon="1.92746">
        <ele>774.2</ele>
        <time>2026-07-07T11:03:45.000Z</time>
      </trkpt>
      <trkpt lat="45.8286" lon="1.92746">
        <ele>774.2</ele>
        <time>2026-07-07T11:03:46.000Z</time>
      </trkpt>
      <trkpt lat="45.8286" lon="1.92746">
        <ele>774.2</ele>
        <time>2026-07-07T11:03:47.000Z</time>
      </trkpt>
      <trkpt lat="45.8286" lon="1.92746">
        <ele>774.2</ele>
        <time>2026-07-07T11:03:48.000Z</time>
      </trkpt>
      <trkpt lat="45.8286" lon="1.92746">
        <ele>774.2</ele>
        <time>2026-07-07T11:03:49.000Z</time>
      </trkpt>
      <trkpt lat="45.8286" lon="1.92746">
        <ele>774.2</ele>
        <time>2026-07-07T11:03:50.000Z</time>
      </trkpt>
      <trkpt lat="45.8286" lon="1.92746">
        <ele>774.2</ele>
        <time>2026-07-07T11:03:51.000Z</time>
      </trkpt>
      <trkpt lat="45.8286" lon="1.92746">
        <ele>774.2</ele>
        <time>2026-07-07T11:03:52.000Z</time>
      </trkpt>
      <trkpt lat="45.8286" lon="1.92746">
        <ele>774.2</ele>
        <time>2026-07-07T11:03:53.000Z</time>
      </trkpt>
      <trkpt lat="45.8286" lon="1.92746">
        <ele>774.2</ele>
        <time>2026-07-07T11:03:54.000Z</time>
      </trkpt>
      <trkpt lat="45.8286" lon="1.92746">
        <ele>774.2</ele>
        <time>2026-07-07T11:03:55.000Z</time>
      </trkpt>
      <trkpt lat="45.8286" lon="1.92746">
        <ele>774.2</ele>
        <time>2026-07-07T11:03:56.000Z</time>
      </trkpt>
      <trkpt lat="45.8286" lon="1.92746">
        <ele>774.2</ele>
        <time>2026-07-07T11:03:57.000Z</time>
      </trkpt>
      <trkpt lat="45.8286" lon="1.92746">
        <ele>774.2</ele>
        <time>2026-07-07T11:03:58.000Z</time>
      </trkpt>
      <trkpt lat="45.8286" lon="1.92746">
        <ele>774.2</ele>
        <time>2026-07-07T11:03:59.000Z</time>
      </trkpt>
      <trkpt lat="45.8286" lon="1.92746">
        <ele>774.2</ele>
        <time>2026-07-07T11:04:00.000Z</time>
      </trkpt>
      <trkpt lat="45.8286" lon="1.92746">
        <ele>774.2</ele>
        <time>2026-07-07T11:04:01.000Z</time>
      </trkpt>
      <trkpt lat="45.8286" lon="1.92746">
        <ele>774.2</ele>
        <time>2026-07-07T11:04:02.000Z</time>
      </trkpt>
      <trkpt lat="45.8286" lon="1.92746">
        <ele>774.2</ele>
        <time>2026-07-07T11:04:03.000Z</time>
      </trkpt>
      <trkpt lat="45.8286" lon="1.92746">
        <ele>774.2</ele>
        <time>2026-07-07T11:04:04.000Z</time>
      </trkpt>
      <trkpt lat="45.8286" lon="1.92746">
        <ele>774.2</ele>
        <time>2026-07-07T11:04:05.000Z</time>
      </trkpt>
      <trkpt lat="45.8286" lon="1.92746">
        <ele>774.2</ele>
        <time>2026-07-07T11:04:06.000Z</time>
      </trkpt>
      <trkpt lat="45.8286" lon="1.92746">
        <ele>774.3</ele>
        <time>2026-07-07T11:04:07.000Z</time>
      </trkpt>
      <trkpt lat="45.8286" lon="1.92746">
        <ele>774.3</ele>
        <time>2026-07-07T11:04:08.000Z</time>
      </trkpt>
      <trkpt lat="45.8286" lon="1.92746">
        <ele>774.3</ele>
        <time>2026-07-07T11:04:09.000Z</time>
      </trkpt>
      <trkpt lat="45.8286" lon="1.92746">
        <ele>774.3</ele>
        <time>2026-07-07T11:04:10.000Z</time>
      </trkpt>
      <trkpt lat="45.8286" lon="1.92746">
        <ele>774.3</ele>
        <time>2026-07-07T11:04:11.000Z</time>
      </trkpt>
      <trkpt lat="45.8286" lon="1.92746">
        <ele>774.3</ele>
        <time>2026-07-07T11:04:12.000Z</time>
      </trkpt>
      <trkpt lat="45.8286" lon="1.92746">
        <ele>774.3</ele>
        <time>2026-07-07T11:04:13.000Z</time>
      </trkpt>
      <trkpt lat="45.8286" lon="1.92746">
        <ele>774.3</ele>
        <time>2026-07-07T11:04:14.000Z</time>
      </trkpt>
      <trkpt lat="45.8286" lon="1.92746">
        <ele>774.3</ele>
        <time>2026-07-07T11:04:15.000Z</time>
      </trkpt>
      <trkpt lat="45.8286" lon="1.92746">
        <ele>774.3</ele>
        <time>2026-07-07T11:04:16.000Z</time>
      </trkpt>
      <trkpt lat="45.8286" lon="1.92746">
        <ele>774.3</ele>
        <time>2026-07-07T11:04:17.000Z</time>
      </trkpt>
      <trkpt lat="45.8286" lon="1.92746">
        <ele>774.3</ele>
        <time>2026-07-07T11:04:18.000Z</time>
      </trkpt>
      <trkpt lat="45.8286" lon="1.92746">
        <ele>774.3</ele>
        <time>2026-07-07T11:04:19.000Z</time>
      </trkpt>
      <trkpt lat="45.8286" lon="1.92746">
        <ele>774.3</ele>
        <time>2026-07-07T11:04:20.000Z</time>
      </trkpt>
      <trkpt lat="45.8286" lon="1.92746">
        <ele>774.3</ele>
        <time>2026-07-07T11:04:21.000Z</time>
      </trkpt>
      <trkpt lat="45.8286" lon="1.92746">
        <ele>774.3</ele>
        <time>2026-07-07T11:04:22.000Z</time>
      </trkpt>
      <trkpt lat="45.8286" lon="1.92746">
        <ele>774.3</ele>
        <time>2026-07-07T11:04:23.000Z</time>
      </trkpt>
      <trkpt lat="45.8286" lon="1.92746">
        <ele>774.3</ele>
        <time>2026-07-07T11:04:24.000Z</time>
      </trkpt>
      <trkpt lat="45.8286" lon="1.92746">
        <ele>774.3</ele>
        <time>2026-07-07T11:04:25.000Z</time>
      </trkpt>
      <trkpt lat="45.8286" lon="1.92746">
        <ele>774.3</ele>
        <time>2026-07-07T11:04:26.000Z</time>
      </trkpt>
      <trkpt lat="45.8286" lon="1.92746">
        <ele>774.3</ele>
        <time>2026-07-07T11:04:27.000Z</time>
      </trkpt>
      <trkpt lat="45.8286" lon="1.92746">
        <ele>774.3</ele>
        <time>2026-07-07T11:04:28.000Z</time>
      </trkpt>
      <trkpt lat="45.8286" lon="1.92746">
        <ele>774.3</ele>
        <time>2026-07-07T11:04:29.000Z</time>
      </trkpt>
      <trkpt lat="45.8286" lon="1.92746">
        <ele>774.3</ele>
        <time>2026-07-07T11:04:30.000Z</time>
      </trkpt>
      <trkpt lat="45.8286" lon="1.92746">
        <ele>774.3</ele>
        <time>2026-07-07T11:04:31.000Z</time>
      </trkpt>
      <trkpt lat="45.8286" lon="1.92746">
        <ele>774.3</ele>
        <time>2026-07-07T11:04:32.000Z</time>
      </trkpt>
      <trkpt lat="45.8286" lon="1.92746">
        <ele>774.3</ele>
        <time>2026-07-07T11:04:33.000Z</time>
      </trkpt>
      <trkpt lat="45.8286" lon="1.92746">
        <ele>774.3</ele>
        <time>2026-07-07T11:04:34.000Z</time>
      </trkpt>
      <trkpt lat="45.8286" lon="1.92746">
        <ele>774.3</ele>
        <time>2026-07-07T11:04:35.000Z</time>
      </trkpt>
      <trkpt lat="45.8286" lon="1.92746">
        <ele>774.3</ele>
        <time>2026-07-07T11:04:36.000Z</time>
      </trkpt>
      <trkpt lat="45.8286" lon="1.92746">
        <ele>774.3</ele>
        <time>2026-07-07T11:04:37.000Z</time>
      </trkpt>
      <trkpt lat="45.8286" lon="1.92746">
        <ele>774.3</ele>
        <time>2026-07-07T11:04:38.000Z</time>
      </trkpt>
      <trkpt lat="45.8286" lon="1.92746">
        <ele>774.3</ele>
        <time>2026-07-07T11:04:39.000Z</time>
      </trkpt>
      <trkpt lat="45.8286" lon="1.92746">
        <ele>774.3</ele>
        <time>2026-07-07T11:04:40.000Z</time>
      </trkpt>
      <trkpt lat="45.8286" lon="1.92746">
        <ele>774.3</ele>
        <time>2026-07-07T11:04:41.000Z</time>
      </trkpt>
      <trkpt lat="45.8286" lon="1.92746">
        <ele>774.3</ele>
        <time>2026-07-07T11:04:42.000Z</time>
      </trkpt>
      <trkpt lat="45.8286" lon="1.92746">
        <ele>774.3</ele>
        <time>2026-07-07T11:04:43.000Z</time>
      </trkpt>
      <trkpt lat="45.8286" lon="1.92746">
        <ele>774.3</ele>
        <time>2026-07-07T11:04:44.000Z</time>
      </trkpt>
      <trkpt lat="45.8286" lon="1.92746">
        <ele>774.3</ele>
        <time>2026-07-07T11:04:45.000Z</time>
      </trkpt>
      <trkpt lat="45.8286" lon="1.92746">
        <ele>774.3</ele>
        <time>2026-07-07T11:04:46.000Z</time>
      </trkpt>
      <trkpt lat="45.8286" lon="1.92746">
        <ele>774.3</ele>
        <time>2026-07-07T11:04:47.000Z</time>
      </trkpt>
      <trkpt lat="45.8286" lon="1.92746">
        <ele>774.3</ele>
        <time>2026-07-07T11:04:48.000Z</time>
      </trkpt>
      <trkpt lat="45.8286" lon="1.92746">
        <ele>774.3</ele>
        <time>2026-07-07T11:04:49.000Z</time>
      </trkpt>
      <trkpt lat="45.8286" lon="1.92746">
        <ele>774.3</ele>
        <time>2026-07-07T11:04:50.000Z</time>
      </trkpt>
      <trkpt lat="45.8286" lon="1.92746">
        <ele>774.3</ele>
        <time>2026-07-07T11:04:51.000Z</time>
      </trkpt>
      <trkpt lat="45.8286" lon="1.92746">
        <ele>774.3</ele>
        <time>2026-07-07T11:04:52.000Z</time>
      </trkpt>
      <trkpt lat="45.8286" lon="1.92746">
        <ele>774.3</ele>
        <time>2026-07-07T11:04:53.000Z</time>
      </trkpt>
      <trkpt lat="45.8286" lon="1.92746">
        <ele>774.3</ele>
        <time>2026-07-07T11:04:54.000Z</time>
      </trkpt>
      <trkpt lat="45.8286" lon="1.92746">
        <ele>774.3</ele>
        <time>2026-07-07T11:04:55.000Z</time>
      </trkpt>
      <trkpt lat="45.8286" lon="1.92746">
        <ele>774.3</ele>
        <time>2026-07-07T11:04:56.000Z</time>
      </trkpt>
      <trkpt lat="45.8286" lon="1.92746">
        <ele>774.3</ele>
        <time>2026-07-07T11:04:57.000Z</time>
      </trkpt>
      <trkpt lat="45.8286" lon="1.92746">
        <ele>774.3</ele>
        <time>2026-07-07T11:04:58.000Z</time>
      </trkpt>
      <trkpt lat="45.8286" lon="1.92746">
        <ele>774.3</ele>
        <time>2026-07-07T11:04:59.000Z</time>
      </trkpt>
      <trkpt lat="45.8286" lon="1.92746">
        <ele>774.3</ele>
        <time>2026-07-07T11:05:00.000Z</time>
      </trkpt>
      <trkpt lat="45.8286" lon="1.92746">
        <ele>774.3</ele>
        <time>2026-07-07T11:05:01.000Z</time>
      </trkpt>
      <trkpt lat="45.8286" lon="1.92746">
        <ele>774.3</ele>
        <time>2026-07-07T11:05:02.000Z</time>
      </trkpt>
      <trkpt lat="45.8286" lon="1.92746">
        <ele>774.3</ele>
        <time>2026-07-07T11:05:03.000Z</time>
      </trkpt>
      <trkpt lat="45.8286" lon="1.92746">
        <ele>774.3</ele>
        <time>2026-07-07T11:05:04.000Z</time>
      </trkpt>
      <trkpt lat="45.8286" lon="1.92746">
        <ele>774.3</ele>
        <time>2026-07-07T11:05:05.000Z</time>
      </trkpt>
      <trkpt lat="45.8286" lon="1.92746">
        <ele>774.3</ele>
        <time>2026-07-07T11:05:06.000Z</time>
      </trkpt>
      <trkpt lat="45.8286" lon="1.92746">
        <ele>774.3</ele>
        <time>2026-07-07T11:05:07.000Z</time>
      </trkpt>
      <trkpt lat="45.8286" lon="1.92746">
        <ele>774.3</ele>
        <time>2026-07-07T11:05:08.000Z</time>
      </trkpt>
      <trkpt lat="45.8286" lon="1.92746">
        <ele>774.3</ele>
        <time>2026-07-07T11:05:09.000Z</time>
      </trkpt>
      <trkpt lat="45.8286" lon="1.92746">
        <ele>774.3</ele>
        <time>2026-07-07T11:05:10.000Z</time>
      </trkpt>
      <trkpt lat="45.8286" lon="1.92746">
        <ele>774.3</ele>
        <time>2026-07-07T11:05:11.000Z</time>
      </trkpt>
      <trkpt lat="45.8286" lon="1.92746">
        <ele>774.3</ele>
        <time>2026-07-07T11:05:12.000Z</time>
      </trkpt>
      <trkpt lat="45.8286" lon="1.92746">
        <ele>774.3</ele>
        <time>2026-07-07T11:05:13.000Z</time>
      </trkpt>
      <trkpt lat="45.8286" lon="1.92746">
        <ele>774.3</ele>
        <time>2026-07-07T11:05:14.000Z</time>
      </trkpt>
      <trkpt lat="45.8286" lon="1.92746">
        <ele>774.3</ele>
        <time>2026-07-07T11:05:15.000Z</time>
      </trkpt>
      <trkpt lat="45.8286" lon="1.92746">
        <ele>774.3</ele>
        <time>2026-07-07T11:05:16.000Z</time>
      </trkpt>
      <trkpt lat="45.8286" lon="1.92746">
        <ele>774.3</ele>
        <time>2026-07-07T11:05:17.000Z</time>
      </trkpt>
      <trkpt lat="45.8286" lon="1.92746">
        <ele>774.3</ele>
        <time>2026-07-07T11:05:18.000Z</time>
      </trkpt>
      <trkpt lat="45.8286" lon="1.92746">
        <ele>774.3</ele>
        <time>2026-07-07T11:05:19.000Z</time>
      </trkpt>
      <trkpt lat="45.8286" lon="1.92746">
        <ele>774.3</ele>
        <time>2026-07-07T11:05:20.000Z</time>
      </trkpt>
      <trkpt lat="45.8286" lon="1.92746">
        <ele>774.3</ele>
        <time>2026-07-07T11:05:21.000Z</time>
      </trkpt>
      <trkpt lat="45.8286" lon="1.92746">
        <ele>774.3</ele>
        <time>2026-07-07T11:05:22.000Z</time>
      </trkpt>
      <trkpt lat="45.8286" lon="1.92746">
        <ele>774.3</ele>
        <time>2026-07-07T11:05:23.000Z</time>
      </trkpt>
      <trkpt lat="45.8286" lon="1.92745">
        <ele>774.3</ele>
        <time>2026-07-07T11:05:24.000Z</time>
      </trkpt>
      <trkpt lat="45.8286" lon="1.92745">
        <ele>774.3</ele>
        <time>2026-07-07T11:05:25.000Z</time>
      </trkpt>
      <trkpt lat="45.8286" lon="1.92745">
        <ele>774.3</ele>
        <time>2026-07-07T11:05:26.000Z</time>
      </trkpt>
      <trkpt lat="45.8286" lon="1.92745">
        <ele>774.3</ele>
        <time>2026-07-07T11:05:27.000Z</time>
      </trkpt>
      <trkpt lat="45.8286" lon="1.92745">
        <ele>774.3</ele>
        <time>2026-07-07T11:05:28.000Z</time>
      </trkpt>
      <trkpt lat="45.8286" lon="1.92745">
        <ele>774.2</ele>
        <time>2026-07-07T11:05:29.000Z</time>
      </trkpt>
      <trkpt lat="45.8286" lon="1.92745">
        <ele>774.2</ele>
        <time>2026-07-07T11:05:30.000Z</time>
      </trkpt>
      <trkpt lat="45.8286" lon="1.92745">
        <ele>774.2</ele>
        <time>2026-07-07T11:05:31.000Z</time>
      </trkpt>
      <trkpt lat="45.8286" lon="1.92745">
        <ele>774.2</ele>
        <time>2026-07-07T11:05:32.000Z</time>
      </trkpt>
      <trkpt lat="45.8286" lon="1.92745">
        <ele>774.2</ele>
        <time>2026-07-07T11:05:33.000Z</time>
      </trkpt>
      <trkpt lat="45.8286" lon="1.92745">
        <ele>774.2</ele>
        <time>2026-07-07T11:05:34.000Z</time>
      </trkpt>
      <trkpt lat="45.8286" lon="1.92745">
        <ele>774.2</ele>
        <time>2026-07-07T11:05:35.000Z</time>
      </trkpt>
      <trkpt lat="45.8286" lon="1.92745">
        <ele>774.2</ele>
        <time>2026-07-07T11:05:36.000Z</time>
      </trkpt>
      <trkpt lat="45.8286" lon="1.92745">
        <ele>774.2</ele>
        <time>2026-07-07T11:05:37.000Z</time>
      </trkpt>
      <trkpt lat="45.8286" lon="1.92745">
        <ele>774.2</ele>
        <time>2026-07-07T11:05:38.000Z</time>
      </trkpt>
      <trkpt lat="45.8286" lon="1.92745">
        <ele>774.2</ele>
        <time>2026-07-07T11:05:39.000Z</time>
      </trkpt>
      <trkpt lat="45.8286" lon="1.92745">
        <ele>774.2</ele>
        <time>2026-07-07T11:05:40.000Z</time>
      </trkpt>
      <trkpt lat="45.8286" lon="1.92745">
        <ele>774.2</ele>
        <time>2026-07-07T11:05:41.000Z</time>
      </trkpt>
      <trkpt lat="45.8286" lon="1.92745">
        <ele>774.2</ele>
        <time>2026-07-07T11:05:42.000Z</time>
      </trkpt>
      <trkpt lat="45.8286" lon="1.92745">
        <ele>774.2</ele>
        <time>2026-07-07T11:05:43.000Z</time>
      </trkpt>
      <trkpt lat="45.8286" lon="1.92745">
        <ele>774.2</ele>
        <time>2026-07-07T11:05:44.000Z</time>
      </trkpt>
      <trkpt lat="45.8286" lon="1.92745">
        <ele>774.2</ele>
        <time>2026-07-07T11:05:45.000Z</time>
      </trkpt>
      <trkpt lat="45.8286" lon="1.92745">
        <ele>774.2</ele>
        <time>2026-07-07T11:05:46.000Z</time>
      </trkpt>
      <trkpt lat="45.8286" lon="1.92745">
        <ele>774.3</ele>
        <time>2026-07-07T11:05:47.000Z</time>
      </trkpt>
      <trkpt lat="45.8286" lon="1.92745">
        <ele>774.3</ele>
        <time>2026-07-07T11:05:48.000Z</time>
      </trkpt>
      <trkpt lat="45.8286" lon="1.92745">
        <ele>774.3</ele>
        <time>2026-07-07T11:05:49.000Z</time>
      </trkpt>
      <trkpt lat="45.8286" lon="1.92745">
        <ele>774.2</ele>
        <time>2026-07-07T11:05:50.000Z</time>
      </trkpt>
      <trkpt lat="45.8286" lon="1.92745">
        <ele>774.2</ele>
        <time>2026-07-07T11:05:51.000Z</time>
      </trkpt>
      <trkpt lat="45.8286" lon="1.92745">
        <ele>774.2</ele>
        <time>2026-07-07T11:05:52.000Z</time>
      </trkpt>
      <trkpt lat="45.8286" lon="1.92745">
        <ele>774.2</ele>
        <time>2026-07-07T11:05:53.000Z</time>
      </trkpt>
      <trkpt lat="45.8286" lon="1.92745">
        <ele>774.2</ele>
        <time>2026-07-07T11:05:54.000Z</time>
      </trkpt>
      <trkpt lat="45.8286" lon="1.92745">
        <ele>774.2</ele>
        <time>2026-07-07T11:05:55.000Z</time>
      </trkpt>
      <trkpt lat="45.8286" lon="1.92745">
        <ele>774.2</ele>
        <time>2026-07-07T11:05:56.000Z</time>
      </trkpt>
      <trkpt lat="45.8286" lon="1.92745">
        <ele>774.2</ele>
        <time>2026-07-07T11:05:57.000Z</time>
      </trkpt>
      <trkpt lat="45.8286" lon="1.92745">
        <ele>774.2</ele>
        <time>2026-07-07T11:05:58.000Z</time>
      </trkpt>
      <trkpt lat="45.8286" lon="1.92745">
        <ele>774.2</ele>
        <time>2026-07-07T11:05:59.000Z</time>
      </trkpt>
      <trkpt lat="45.8286" lon="1.92745">
        <ele>774.2</ele>
        <time>2026-07-07T11:06:00.000Z</time>
      </trkpt>
      <trkpt lat="45.8286" lon="1.92745">
        <ele>774.2</ele>
        <time>2026-07-07T11:06:01.000Z</time>
      </trkpt>
      <trkpt lat="45.8286" lon="1.92745">
        <ele>774.2</ele>
        <time>2026-07-07T11:06:02.000Z</time>
      </trkpt>
      <trkpt lat="45.8286" lon="1.92745">
        <ele>774.2</ele>
        <time>2026-07-07T11:06:03.000Z</time>
      </trkpt>
      <trkpt lat="45.8286" lon="1.92745">
        <ele>774.2</ele>
        <time>2026-07-07T11:06:04.000Z</time>
      </trkpt>
      <trkpt lat="45.8286" lon="1.92745">
        <ele>774.2</ele>
        <time>2026-07-07T11:06:05.000Z</time>
      </trkpt>
      <trkpt lat="45.8286" lon="1.92745">
        <ele>774.2</ele>
        <time>2026-07-07T11:06:06.000Z</time>
      </trkpt>
      <trkpt lat="45.8286" lon="1.92745">
        <ele>774.2</ele>
        <time>2026-07-07T11:06:07.000Z</time>
      </trkpt>
      <trkpt lat="45.8286" lon="1.92745">
        <ele>774.2</ele>
        <time>2026-07-07T11:06:08.000Z</time>
      </trkpt>
      <trkpt lat="45.8286" lon="1.92745">
        <ele>774.2</ele>
        <time>2026-07-07T11:06:09.000Z</time>
      </trkpt>
      <trkpt lat="45.8286" lon="1.92745">
        <ele>774.2</ele>
        <time>2026-07-07T11:06:10.000Z</time>
      </trkpt>
      <trkpt lat="45.8286" lon="1.92745">
        <ele>774.2</ele>
        <time>2026-07-07T11:06:11.000Z</time>
      </trkpt>
      <trkpt lat="45.8286" lon="1.92745">
        <ele>774.3</ele>
        <time>2026-07-07T11:06:12.000Z</time>
      </trkpt>
      <trkpt lat="45.8286" lon="1.92745">
        <ele>774.3</ele>
        <time>2026-07-07T11:06:13.000Z</time>
      </trkpt>
      <trkpt lat="45.8286" lon="1.92745">
        <ele>774.3</ele>
        <time>2026-07-07T11:06:14.000Z</time>
      </trkpt>
      <trkpt lat="45.8286" lon="1.92745">
        <ele>774.3</ele>
        <time>2026-07-07T11:06:15.000Z</time>
      </trkpt>
      <trkpt lat="45.8286" lon="1.92745">
        <ele>774.3</ele>
        <time>2026-07-07T11:06:16.000Z</time>
      </trkpt>
      <trkpt lat="45.8286" lon="1.92745">
        <ele>774.3</ele>
        <time>2026-07-07T11:06:17.000Z</time>
      </trkpt>
      <trkpt lat="45.8286" lon="1.92745">
        <ele>774.3</ele>
        <time>2026-07-07T11:06:18.000Z</time>
      </trkpt>
      <trkpt lat="45.8286" lon="1.92745">
        <ele>774.3</ele>
        <time>2026-07-07T11:06:19.000Z</time>
      </trkpt>
      <trkpt lat="45.8286" lon="1.92745">
        <ele>774.3</ele>
        <time>2026-07-07T11:06:20.000Z</time>
      </trkpt>
      <trkpt lat="45.8286" lon="1.92745">
        <ele>774.3</ele>
        <time>2026-07-07T11:06:21.000Z</time>
      </trkpt>
      <trkpt lat="45.8286" lon="1.92745">
        <ele>774.4</ele>
        <time>2026-07-07T11:06:22.000Z</time>
      </trkpt>
      <trkpt lat="45.8286" lon="1.92745">
        <ele>774.4</ele>
        <time>2026-07-07T11:06:23.000Z</time>
      </trkpt>
      <trkpt lat="45.8286" lon="1.92745">
        <ele>774.4</ele>
        <time>2026-07-07T11:06:24.000Z</time>
      </trkpt>
      <trkpt lat="45.8286" lon="1.92745">
        <ele>774.4</ele>
        <time>2026-07-07T11:06:25.000Z</time>
      </trkpt>
      <trkpt lat="45.8286" lon="1.92745">
        <ele>774.4</ele>
        <time>2026-07-07T11:06:26.000Z</time>
      </trkpt>
      <trkpt lat="45.8286" lon="1.92745">
        <ele>774.4</ele>
        <time>2026-07-07T11:06:27.000Z</time>
      </trkpt>
      <trkpt lat="45.8286" lon="1.92745">
        <ele>774.4</ele>
        <time>2026-07-07T11:06:28.000Z</time>
      </trkpt>
      <trkpt lat="45.8286" lon="1.92745">
        <ele>774.4</ele>
        <time>2026-07-07T11:06:29.000Z</time>
      </trkpt>
      <trkpt lat="45.8286" lon="1.92745">
        <ele>774.4</ele>
        <time>2026-07-07T11:06:30.000Z</time>
      </trkpt>
      <trkpt lat="45.8286" lon="1.92745">
        <ele>774.4</ele>
        <time>2026-07-07T11:06:31.000Z</time>
      </trkpt>
      <trkpt lat="45.8286" lon="1.92745">
        <ele>774.4</ele>
        <time>2026-07-07T11:06:32.000Z</time>
      </trkpt>
      <trkpt lat="45.8286" lon="1.92745">
        <ele>774.3</ele>
        <time>2026-07-07T11:06:33.000Z</time>
      </trkpt>
      <trkpt lat="45.8286" lon="1.92745">
        <ele>774.3</ele>
        <time>2026-07-07T11:06:34.000Z</time>
      </trkpt>
      <trkpt lat="45.8286" lon="1.92745">
        <ele>774.3</ele>
        <time>2026-07-07T11:06:35.000Z</time>
      </trkpt>
      <trkpt lat="45.8286" lon="1.92745">
        <ele>774.3</ele>
        <time>2026-07-07T11:06:36.000Z</time>
      </trkpt>
      <trkpt lat="45.8286" lon="1.92745">
        <ele>774.3</ele>
        <time>2026-07-07T11:06:37.000Z</time>
      </trkpt>
      <trkpt lat="45.8286" lon="1.92745">
        <ele>774.3</ele>
        <time>2026-07-07T11:06:38.000Z</time>
      </trkpt>
      <trkpt lat="45.8286" lon="1.92745">
        <ele>774.3</ele>
        <time>2026-07-07T11:06:39.000Z</time>
      </trkpt>
      <trkpt lat="45.8286" lon="1.92745">
        <ele>774.4</ele>
        <time>2026-07-07T11:06:40.000Z</time>
      </trkpt>
      <trkpt lat="45.8286" lon="1.92745">
        <ele>774.4</ele>
        <time>2026-07-07T11:06:41.000Z</time>
      </trkpt>
      <trkpt lat="45.8286" lon="1.92745">
        <ele>774.4</ele>
        <time>2026-07-07T11:06:42.000Z</time>
      </trkpt>
      <trkpt lat="45.8286" lon="1.92745">
        <ele>774.4</ele>
        <time>2026-07-07T11:06:43.000Z</time>
      </trkpt>
      <trkpt lat="45.8286" lon="1.92745">
        <ele>774.4</ele>
        <time>2026-07-07T11:06:44.000Z</time>
      </trkpt>
      <trkpt lat="45.8286" lon="1.92745">
        <ele>774.4</ele>
        <time>2026-07-07T11:06:45.000Z</time>
      </trkpt>
      <trkpt lat="45.8286" lon="1.92745">
        <ele>774.4</ele>
        <time>2026-07-07T11:06:46.000Z</time>
      </trkpt>
      <trkpt lat="45.8286" lon="1.92745">
        <ele>774.4</ele>
        <time>2026-07-07T11:06:47.000Z</time>
      </trkpt>
      <trkpt lat="45.8286" lon="1.92745">
        <ele>774.4</ele>
        <time>2026-07-07T11:06:48.000Z</time>
      </trkpt>
      <trkpt lat="45.8286" lon="1.92745">
        <ele>774.4</ele>
        <time>2026-07-07T11:06:49.000Z</time>
      </trkpt>
      <trkpt lat="45.8286" lon="1.92745">
        <ele>774.4</ele>
        <time>2026-07-07T11:06:50.000Z</time>
      </trkpt>
      <trkpt lat="45.8286" lon="1.92745">
        <ele>774.4</ele>
        <time>2026-07-07T11:06:51.000Z</time>
      </trkpt>
      <trkpt lat="45.8286" lon="1.92745">
        <ele>774.4</ele>
        <time>2026-07-07T11:06:52.000Z</time>
      </trkpt>
      <trkpt lat="45.8286" lon="1.92745">
        <ele>774.4</ele>
        <time>2026-07-07T11:06:53.000Z</time>
      </trkpt>
      <trkpt lat="45.8286" lon="1.92745">
        <ele>774.4</ele>
        <time>2026-07-07T11:06:54.000Z</time>
      </trkpt>
      <trkpt lat="45.8286" lon="1.92745">
        <ele>774.4</ele>
        <time>2026-07-07T11:06:55.000Z</time>
      </trkpt>
      <trkpt lat="45.8286" lon="1.92745">
        <ele>774.4</ele>
        <time>2026-07-07T11:06:56.000Z</time>
      </trkpt>
      <trkpt lat="45.8286" lon="1.92745">
        <ele>774.4</ele>
        <time>2026-07-07T11:06:57.000Z</time>
      </trkpt>
      <trkpt lat="45.8286" lon="1.92745">
        <ele>774.4</ele>
        <time>2026-07-07T11:06:58.000Z</time>
      </trkpt>
      <trkpt lat="45.8286" lon="1.92745">
        <ele>774.4</ele>
        <time>2026-07-07T11:06:59.000Z</time>
      </trkpt>
      <trkpt lat="45.8286" lon="1.92745">
        <ele>774.4</ele>
        <time>2026-07-07T11:07:00.000Z</time>
      </trkpt>
      <trkpt lat="45.8286" lon="1.92745">
        <ele>774.4</ele>
        <time>2026-07-07T11:07:01.000Z</time>
      </trkpt>
      <trkpt lat="45.8286" lon="1.92745">
        <ele>774.4</ele>
        <time>2026-07-07T11:07:02.000Z</time>
      </trkpt>
      <trkpt lat="45.8286" lon="1.92745">
        <ele>774.3</ele>
        <time>2026-07-07T11:07:03.000Z</time>
      </trkpt>
      <trkpt lat="45.8286" lon="1.92745">
        <ele>774.3</ele>
        <time>2026-07-07T11:07:04.000Z</time>
      </trkpt>
      <trkpt lat="45.8286" lon="1.92745">
        <ele>774.3</ele>
        <time>2026-07-07T11:07:05.000Z</time>
      </trkpt>
      <trkpt lat="45.8286" lon="1.92745">
        <ele>774.3</ele>
        <time>2026-07-07T11:07:06.000Z</time>
      </trkpt>
      <trkpt lat="45.8286" lon="1.92745">
        <ele>774.3</ele>
        <time>2026-07-07T11:07:07.000Z</time>
      </trkpt>
      <trkpt lat="45.8286" lon="1.92745">
        <ele>774.3</ele>
        <time>2026-07-07T11:07:08.000Z</time>
      </trkpt>
      <trkpt lat="45.8286" lon="1.92745">
        <ele>774.3</ele>
        <time>2026-07-07T11:07:09.000Z</time>
      </trkpt>
      <trkpt lat="45.8286" lon="1.92745">
        <ele>774.3</ele>
        <time>2026-07-07T11:07:10.000Z</time>
      </trkpt>
      <trkpt lat="45.8286" lon="1.92745">
        <ele>774.3</ele>
        <time>2026-07-07T11:07:11.000Z</time>
      </trkpt>
      <trkpt lat="45.8286" lon="1.92745">
        <ele>774.3</ele>
        <time>2026-07-07T11:07:12.000Z</time>
      </trkpt>
      <trkpt lat="45.8286" lon="1.92745">
        <ele>774.3</ele>
        <time>2026-07-07T11:07:13.000Z</time>
      </trkpt>
      <trkpt lat="45.8286" lon="1.92745">
        <ele>774.3</ele>
        <time>2026-07-07T11:07:14.000Z</time>
      </trkpt>
      <trkpt lat="45.8286" lon="1.92745">
        <ele>774.3</ele>
        <time>2026-07-07T11:07:15.000Z</time>
      </trkpt>
      <trkpt lat="45.8286" lon="1.92745">
        <ele>774.3</ele>
        <time>2026-07-07T11:07:16.000Z</time>
      </trkpt>
      <trkpt lat="45.8286" lon="1.92745">
        <ele>774.3</ele>
        <time>2026-07-07T11:07:17.000Z</time>
      </trkpt>
      <trkpt lat="45.8286" lon="1.92745">
        <ele>774.3</ele>
        <time>2026-07-07T11:07:18.000Z</time>
      </trkpt>
      <trkpt lat="45.8286" lon="1.92745">
        <ele>774.3</ele>
        <time>2026-07-07T11:07:19.000Z</time>
      </trkpt>
      <trkpt lat="45.8286" lon="1.92745">
        <ele>774.3</ele>
        <time>2026-07-07T11:07:20.000Z</time>
      </trkpt>
      <trkpt lat="45.8286" lon="1.92745">
        <ele>774.3</ele>
        <time>2026-07-07T11:07:21.000Z</time>
      </trkpt>
      <trkpt lat="45.8286" lon="1.92745">
        <ele>774.3</ele>
        <time>2026-07-07T11:07:22.000Z</time>
      </trkpt>
      <trkpt lat="45.8286" lon="1.92745">
        <ele>774.3</ele>
        <time>2026-07-07T11:07:23.000Z</time>
      </trkpt>
      <trkpt lat="45.8286" lon="1.92745">
        <ele>774.3</ele>
        <time>2026-07-07T11:07:24.000Z</time>
      </trkpt>
      <trkpt lat="45.8286" lon="1.92745">
        <ele>774.3</ele>
        <time>2026-07-07T11:07:25.000Z</time>
      </trkpt>
      <trkpt lat="45.8286" lon="1.92745">
        <ele>774.3</ele>
        <time>2026-07-07T11:07:26.000Z</time>
      </trkpt>
      <trkpt lat="45.8286" lon="1.92745">
        <ele>774.3</ele>
        <time>2026-07-07T11:07:27.000Z</time>
      </trkpt>
      <trkpt lat="45.8286" lon="1.92745">
        <ele>774.3</ele>
        <time>2026-07-07T11:07:28.000Z</time>
      </trkpt>
      <trkpt lat="45.8286" lon="1.92745">
        <ele>774.3</ele>
        <time>2026-07-07T11:07:29.000Z</time>
      </trkpt>
      <trkpt lat="45.8286" lon="1.92745">
        <ele>774.3</ele>
        <time>2026-07-07T11:07:30.000Z</time>
      </trkpt>
      <trkpt lat="45.8286" lon="1.92745">
        <ele>774.3</ele>
        <time>2026-07-07T11:07:31.000Z</time>
      </trkpt>
      <trkpt lat="45.8286" lon="1.92745">
        <ele>774.3</ele>
        <time>2026-07-07T11:07:32.000Z</time>
      </trkpt>
      <trkpt lat="45.8286" lon="1.92745">
        <ele>774.3</ele>
        <time>2026-07-07T11:07:33.000Z</time>
      </trkpt>
      <trkpt lat="45.8286" lon="1.92745">
        <ele>774.3</ele>
        <time>2026-07-07T11:07:34.000Z</time>
      </trkpt>
      <trkpt lat="45.8286" lon="1.92745">
        <ele>774.3</ele>
        <time>2026-07-07T11:07:35.000Z</time>
      </trkpt>
      <trkpt lat="45.8286" lon="1.92745">
        <ele>774.3</ele>
        <time>2026-07-07T11:07:36.000Z</time>
      </trkpt>
      <trkpt lat="45.8286" lon="1.92745">
        <ele>774.5</ele>
        <time>2026-07-07T11:07:37.000Z</time>
      </trkpt>
      <trkpt lat="45.8286" lon="1.92745">
        <ele>774.2</ele>
        <time>2026-07-07T11:07:38.000Z</time>
      </trkpt>
      <trkpt lat="45.8286" lon="1.92745">
        <ele>774.2</ele>
        <time>2026-07-07T11:07:39.000Z</time>
      </trkpt>
      <trkpt lat="45.8286" lon="1.92745">
        <ele>774.2</ele>
        <time>2026-07-07T11:07:40.000Z</time>
      </trkpt>
      <trkpt lat="45.8286" lon="1.92745">
        <ele>774.2</ele>
        <time>2026-07-07T11:07:41.000Z</time>
      </trkpt>
      <trkpt lat="45.8286" lon="1.92745">
        <ele>774.2</ele>
        <time>2026-07-07T11:07:42.000Z</time>
      </trkpt>
      <trkpt lat="45.8286" lon="1.92745">
        <ele>774.2</ele>
        <time>2026-07-07T11:07:43.000Z</time>
      </trkpt>
      <trkpt lat="45.8286" lon="1.92745">
        <ele>774.1</ele>
        <time>2026-07-07T11:07:44.000Z</time>
      </trkpt>
      <trkpt lat="45.8286" lon="1.92745">
        <ele>774.1</ele>
        <time>2026-07-07T11:07:45.000Z</time>
      </trkpt>
      <trkpt lat="45.8286" lon="1.92745">
        <ele>774.1</ele>
        <time>2026-07-07T11:07:46.000Z</time>
      </trkpt>
      <trkpt lat="45.8286" lon="1.92745">
        <ele>774.1</ele>
        <time>2026-07-07T11:07:47.000Z</time>
      </trkpt>
      <trkpt lat="45.8286" lon="1.92745">
        <ele>774.1</ele>
        <time>2026-07-07T11:07:48.000Z</time>
      </trkpt>
      <trkpt lat="45.8286" lon="1.92745">
        <ele>774.1</ele>
        <time>2026-07-07T11:07:49.000Z</time>
      </trkpt>
      <trkpt lat="45.8286" lon="1.92745">
        <ele>774.1</ele>
        <time>2026-07-07T11:07:50.000Z</time>
      </trkpt>
      <trkpt lat="45.8286" lon="1.92745">
        <ele>774.1</ele>
        <time>2026-07-07T11:07:51.000Z</time>
      </trkpt>
      <trkpt lat="45.8286" lon="1.92745">
        <ele>774.1</ele>
        <time>2026-07-07T11:07:52.000Z</time>
      </trkpt>
      <trkpt lat="45.8286" lon="1.92745">
        <ele>774.1</ele>
        <time>2026-07-07T11:07:53.000Z</time>
      </trkpt>
      <trkpt lat="45.8286" lon="1.92745">
        <ele>774.1</ele>
        <time>2026-07-07T11:07:54.000Z</time>
      </trkpt>
      <trkpt lat="45.8286" lon="1.92745">
        <ele>774.1</ele>
        <time>2026-07-07T11:07:55.000Z</time>
      </trkpt>
      <trkpt lat="45.8286" lon="1.92745">
        <ele>774.1</ele>
        <time>2026-07-07T11:07:56.000Z</time>
      </trkpt>
      <trkpt lat="45.8286" lon="1.92745">
        <ele>774.1</ele>
        <time>2026-07-07T11:07:57.000Z</time>
      </trkpt>
      <trkpt lat="45.8286" lon="1.92745">
        <ele>774.1</ele>
        <time>2026-07-07T11:07:58.000Z</time>
      </trkpt>
      <trkpt lat="45.8286" lon="1.92745">
        <ele>774.1</ele>
        <time>2026-07-07T11:07:59.000Z</time>
      </trkpt>
      <trkpt lat="45.8286" lon="1.92745">
        <ele>774.1</ele>
        <time>2026-07-07T11:08:00.000Z</time>
      </trkpt>
      <trkpt lat="45.8286" lon="1.92745">
        <ele>774.1</ele>
        <time>2026-07-07T11:08:01.000Z</time>
      </trkpt>
      <trkpt lat="45.8286" lon="1.92745">
        <ele>774.1</ele>
        <time>2026-07-07T11:08:02.000Z</time>
      </trkpt>
      <trkpt lat="45.8286" lon="1.92745">
        <ele>774.1</ele>
        <time>2026-07-07T11:08:03.000Z</time>
      </trkpt>
      <trkpt lat="45.8286" lon="1.92745">
        <ele>774.1</ele>
        <time>2026-07-07T11:08:04.000Z</time>
      </trkpt>
      <trkpt lat="45.8286" lon="1.92745">
        <ele>774.1</ele>
        <time>2026-07-07T11:08:05.000Z</time>
      </trkpt>
      <trkpt lat="45.8286" lon="1.92745">
        <ele>774.1</ele>
        <time>2026-07-07T11:08:06.000Z</time>
      </trkpt>
      <trkpt lat="45.8286" lon="1.92745">
        <ele>774.1</ele>
        <time>2026-07-07T11:08:07.000Z</time>
      </trkpt>
      <trkpt lat="45.8286" lon="1.92745">
        <ele>774.1</ele>
        <time>2026-07-07T11:08:08.000Z</time>
      </trkpt>
      <trkpt lat="45.8286" lon="1.92745">
        <ele>774.1</ele>
        <time>2026-07-07T11:08:09.000Z</time>
      </trkpt>
      <trkpt lat="45.8286" lon="1.92745">
        <ele>774.1</ele>
        <time>2026-07-07T11:08:10.000Z</time>
      </trkpt>
      <trkpt lat="45.8286" lon="1.92745">
        <ele>774.1</ele>
        <time>2026-07-07T11:08:11.000Z</time>
      </trkpt>
      <trkpt lat="45.8286" lon="1.92745">
        <ele>774.2</ele>
        <time>2026-07-07T11:08:12.000Z</time>
      </trkpt>
      <trkpt lat="45.8286" lon="1.92745">
        <ele>774.2</ele>
        <time>2026-07-07T11:08:13.000Z</time>
      </trkpt>
      <trkpt lat="45.8286" lon="1.92745">
        <ele>774.2</ele>
        <time>2026-07-07T11:08:14.000Z</time>
      </trkpt>
      <trkpt lat="45.8286" lon="1.92745">
        <ele>774.1</ele>
        <time>2026-07-07T11:08:15.000Z</time>
      </trkpt>
      <trkpt lat="45.8286" lon="1.92745">
        <ele>774.1</ele>
        <time>2026-07-07T11:08:16.000Z</time>
      </trkpt>
      <trkpt lat="45.8286" lon="1.92745">
        <ele>774.2</ele>
        <time>2026-07-07T11:08:17.000Z</time>
      </trkpt>
      <trkpt lat="45.8286" lon="1.92745">
        <ele>774.2</ele>
        <time>2026-07-07T11:08:18.000Z</time>
      </trkpt>
      <trkpt lat="45.8286" lon="1.92745">
        <ele>774.2</ele>
        <time>2026-07-07T11:08:19.000Z</time>
      </trkpt>
      <trkpt lat="45.8286" lon="1.92745">
        <ele>774.2</ele>
        <time>2026-07-07T11:08:20.000Z</time>
      </trkpt>
      <trkpt lat="45.8286" lon="1.92745">
        <ele>774.2</ele>
        <time>2026-07-07T11:08:21.000Z</time>
      </trkpt>
      <trkpt lat="45.8286" lon="1.92745">
        <ele>774.2</ele>
        <time>2026-07-07T11:08:22.000Z</time>
      </trkpt>
      <trkpt lat="45.8286" lon="1.92745">
        <ele>774.2</ele>
        <time>2026-07-07T11:08:23.000Z</time>
      </trkpt>
      <trkpt lat="45.8286" lon="1.92745">
        <ele>774.2</ele>
        <time>2026-07-07T11:08:24.000Z</time>
      </trkpt>
      <trkpt lat="45.8286" lon="1.92745">
        <ele>774.2</ele>
        <time>2026-07-07T11:08:25.000Z</time>
      </trkpt>
      <trkpt lat="45.8286" lon="1.92745">
        <ele>774.2</ele>
        <time>2026-07-07T11:08:26.000Z</time>
      </trkpt>
      <trkpt lat="45.8286" lon="1.92745">
        <ele>774.2</ele>
        <time>2026-07-07T11:08:27.000Z</time>
      </trkpt>
      <trkpt lat="45.8286" lon="1.92745">
        <ele>774.2</ele>
        <time>2026-07-07T11:08:28.000Z</time>
      </trkpt>
      <trkpt lat="45.8286" lon="1.92745">
        <ele>774.2</ele>
        <time>2026-07-07T11:08:29.000Z</time>
      </trkpt>
      <trkpt lat="45.8286" lon="1.92745">
        <ele>774.2</ele>
        <time>2026-07-07T11:08:30.000Z</time>
      </trkpt>
      <trkpt lat="45.8286" lon="1.92745">
        <ele>774.2</ele>
        <time>2026-07-07T11:08:31.000Z</time>
      </trkpt>
      <trkpt lat="45.8286" lon="1.92745">
        <ele>774.2</ele>
        <time>2026-07-07T11:08:32.000Z</time>
      </trkpt>
      <trkpt lat="45.8286" lon="1.92745">
        <ele>774.2</ele>
        <time>2026-07-07T11:08:33.000Z</time>
      </trkpt>
      <trkpt lat="45.8286" lon="1.92745">
        <ele>774.2</ele>
        <time>2026-07-07T11:08:34.000Z</time>
      </trkpt>
      <trkpt lat="45.8286" lon="1.92745">
        <ele>774.2</ele>
        <time>2026-07-07T11:08:35.000Z</time>
      </trkpt>
      <trkpt lat="45.8286" lon="1.92745">
        <ele>774.2</ele>
        <time>2026-07-07T11:08:36.000Z</time>
      </trkpt>
      <trkpt lat="45.8286" lon="1.92745">
        <ele>774.2</ele>
        <time>2026-07-07T11:08:37.000Z</time>
      </trkpt>
      <trkpt lat="45.8286" lon="1.92745">
        <ele>774.2</ele>
        <time>2026-07-07T11:08:38.000Z</time>
      </trkpt>
      <trkpt lat="45.8286" lon="1.92745">
        <ele>774.2</ele>
        <time>2026-07-07T11:08:39.000Z</time>
      </trkpt>
      <trkpt lat="45.8286" lon="1.92745">
        <ele>774.2</ele>
        <time>2026-07-07T11:08:40.000Z</time>
      </trkpt>
      <trkpt lat="45.8286" lon="1.92745">
        <ele>774.3</ele>
        <time>2026-07-07T11:08:41.000Z</time>
      </trkpt>
      <trkpt lat="45.8286" lon="1.92745">
        <ele>774.3</ele>
        <time>2026-07-07T11:08:42.000Z</time>
      </trkpt>
      <trkpt lat="45.8286" lon="1.92745">
        <ele>774.3</ele>
        <time>2026-07-07T11:08:43.000Z</time>
      </trkpt>
      <trkpt lat="45.8286" lon="1.92745">
        <ele>774.3</ele>
        <time>2026-07-07T11:08:44.000Z</time>
      </trkpt>
      <trkpt lat="45.8286" lon="1.92745">
        <ele>774.3</ele>
        <time>2026-07-07T11:08:45.000Z</time>
      </trkpt>
      <trkpt lat="45.8286" lon="1.92745">
        <ele>774.3</ele>
        <time>2026-07-07T11:08:46.000Z</time>
      </trkpt>
      <trkpt lat="45.8286" lon="1.92745">
        <ele>774.3</ele>
        <time>2026-07-07T11:08:47.000Z</time>
      </trkpt>
      <trkpt lat="45.8286" lon="1.92745">
        <ele>774.3</ele>
        <time>2026-07-07T11:08:48.000Z</time>
      </trkpt>
      <trkpt lat="45.8286" lon="1.92745">
        <ele>774.3</ele>
        <time>2026-07-07T11:08:49.000Z</time>
      </trkpt>
      <trkpt lat="45.8286" lon="1.92745">
        <ele>774.3</ele>
        <time>2026-07-07T11:08:50.000Z</time>
      </trkpt>
      <trkpt lat="45.8286" lon="1.92745">
        <ele>774.3</ele>
        <time>2026-07-07T11:08:51.000Z</time>
      </trkpt>
      <trkpt lat="45.8286" lon="1.92745">
        <ele>774.3</ele>
        <time>2026-07-07T11:08:52.000Z</time>
      </trkpt>
      <trkpt lat="45.8286" lon="1.92745">
        <ele>774.3</ele>
        <time>2026-07-07T11:08:53.000Z</time>
      </trkpt>
      <trkpt lat="45.8286" lon="1.92745">
        <ele>774.3</ele>
        <time>2026-07-07T11:08:54.000Z</time>
      </trkpt>
      <trkpt lat="45.8286" lon="1.92745">
        <ele>774.3</ele>
        <time>2026-07-07T11:08:55.000Z</time>
      </trkpt>
      <trkpt lat="45.8286" lon="1.92745">
        <ele>774.3</ele>
        <time>2026-07-07T11:08:56.000Z</time>
      </trkpt>
      <trkpt lat="45.8286" lon="1.92745">
        <ele>774.3</ele>
        <time>2026-07-07T11:08:57.000Z</time>
      </trkpt>
      <trkpt lat="45.8286" lon="1.92745">
        <ele>774.4</ele>
        <time>2026-07-07T11:08:58.000Z</time>
      </trkpt>
      <trkpt lat="45.8286" lon="1.92745">
        <ele>774.4</ele>
        <time>2026-07-07T11:08:59.000Z</time>
      </trkpt>
      <trkpt lat="45.8286" lon="1.92745">
        <ele>774.4</ele>
        <time>2026-07-07T11:09:00.000Z</time>
      </trkpt>
      <trkpt lat="45.8286" lon="1.92745">
        <ele>774.4</ele>
        <time>2026-07-07T11:09:01.000Z</time>
      </trkpt>
      <trkpt lat="45.8286" lon="1.92745">
        <ele>774.4</ele>
        <time>2026-07-07T11:09:02.000Z</time>
      </trkpt>
      <trkpt lat="45.8286" lon="1.92745">
        <ele>774.4</ele>
        <time>2026-07-07T11:09:03.000Z</time>
      </trkpt>
      <trkpt lat="45.8286" lon="1.92745">
        <ele>774.4</ele>
        <time>2026-07-07T11:09:04.000Z</time>
      </trkpt>
      <trkpt lat="45.8286" lon="1.92745">
        <ele>774.4</ele>
        <time>2026-07-07T11:09:05.000Z</time>
      </trkpt>
      <trkpt lat="45.8286" lon="1.92745">
        <ele>774.4</ele>
        <time>2026-07-07T11:09:06.000Z</time>
      </trkpt>
      <trkpt lat="45.8286" lon="1.92745">
        <ele>774.4</ele>
        <time>2026-07-07T11:09:07.000Z</time>
      </trkpt>
      <trkpt lat="45.8286" lon="1.92745">
        <ele>774.4</ele>
        <time>2026-07-07T11:09:08.000Z</time>
      </trkpt>
      <trkpt lat="45.8286" lon="1.92745">
        <ele>774.4</ele>
        <time>2026-07-07T11:09:09.000Z</time>
      </trkpt>
      <trkpt lat="45.8286" lon="1.92745">
        <ele>774.4</ele>
        <time>2026-07-07T11:09:10.000Z</time>
      </trkpt>
      <trkpt lat="45.8286" lon="1.92745">
        <ele>774.4</ele>
        <time>2026-07-07T11:09:11.000Z</time>
      </trkpt>
      <trkpt lat="45.8286" lon="1.92745">
        <ele>774.5</ele>
        <time>2026-07-07T11:09:12.000Z</time>
      </trkpt>
      <trkpt lat="45.8286" lon="1.92745">
        <ele>774.4</ele>
        <time>2026-07-07T11:09:13.000Z</time>
      </trkpt>
      <trkpt lat="45.8286" lon="1.92745">
        <ele>774.5</ele>
        <time>2026-07-07T11:09:14.000Z</time>
      </trkpt>
      <trkpt lat="45.8286" lon="1.92745">
        <ele>774.5</ele>
        <time>2026-07-07T11:09:15.000Z</time>
      </trkpt>
      <trkpt lat="45.8286" lon="1.92745">
        <ele>774.5</ele>
        <time>2026-07-07T11:09:16.000Z</time>
      </trkpt>
      <trkpt lat="45.8286" lon="1.92745">
        <ele>774.5</ele>
        <time>2026-07-07T11:09:17.000Z</time>
      </trkpt>
      <trkpt lat="45.8286" lon="1.92745">
        <ele>774.5</ele>
        <time>2026-07-07T11:09:18.000Z</time>
      </trkpt>
      <trkpt lat="45.8286" lon="1.92745">
        <ele>774.5</ele>
        <time>2026-07-07T11:09:19.000Z</time>
      </trkpt>
      <trkpt lat="45.8286" lon="1.92745">
        <ele>774.5</ele>
        <time>2026-07-07T11:09:20.000Z</time>
      </trkpt>
      <trkpt lat="45.8286" lon="1.92745">
        <ele>774.5</ele>
        <time>2026-07-07T11:09:21.000Z</time>
      </trkpt>
      <trkpt lat="45.8286" lon="1.92745">
        <ele>774.5</ele>
        <time>2026-07-07T11:09:22.000Z</time>
      </trkpt>
      <trkpt lat="45.8286" lon="1.92745">
        <ele>774.5</ele>
        <time>2026-07-07T11:09:23.000Z</time>
      </trkpt>
      <trkpt lat="45.8286" lon="1.92745">
        <ele>774.5</ele>
        <time>2026-07-07T11:09:24.000Z</time>
      </trkpt>
      <trkpt lat="45.8286" lon="1.92745">
        <ele>774.5</ele>
        <time>2026-07-07T11:09:25.000Z</time>
      </trkpt>
      <trkpt lat="45.8286" lon="1.92745">
        <ele>774.5</ele>
        <time>2026-07-07T11:09:26.000Z</time>
      </trkpt>
      <trkpt lat="45.8286" lon="1.92745">
        <ele>774.5</ele>
        <time>2026-07-07T11:09:27.000Z</time>
      </trkpt>
      <trkpt lat="45.8286" lon="1.92745">
        <ele>774.5</ele>
        <time>2026-07-07T11:09:28.000Z</time>
      </trkpt>
      <trkpt lat="45.8286" lon="1.92745">
        <ele>774.5</ele>
        <time>2026-07-07T11:09:29.000Z</time>
      </trkpt>
      <trkpt lat="45.8286" lon="1.92745">
        <ele>774.5</ele>
        <time>2026-07-07T11:09:30.000Z</time>
      </trkpt>
      <trkpt lat="45.8286" lon="1.92745">
        <ele>774.5</ele>
        <time>2026-07-07T11:09:31.000Z</time>
      </trkpt>
      <trkpt lat="45.8286" lon="1.92745">
        <ele>774.5</ele>
        <time>2026-07-07T11:09:32.000Z</time>
      </trkpt>
      <trkpt lat="45.8286" lon="1.92745">
        <ele>774.5</ele>
        <time>2026-07-07T11:09:33.000Z</time>
      </trkpt>
      <trkpt lat="45.8286" lon="1.92745">
        <ele>774.6</ele>
        <time>2026-07-07T11:09:34.000Z</time>
      </trkpt>
      <trkpt lat="45.8286" lon="1.92745">
        <ele>774.6</ele>
        <time>2026-07-07T11:09:35.000Z</time>
      </trkpt>
      <trkpt lat="45.8286" lon="1.92745">
        <ele>774.6</ele>
        <time>2026-07-07T11:09:36.000Z</time>
      </trkpt>
      <trkpt lat="45.8286" lon="1.92745">
        <ele>774.6</ele>
        <time>2026-07-07T11:09:37.000Z</time>
      </trkpt>
      <trkpt lat="45.8286" lon="1.92745">
        <ele>774.6</ele>
        <time>2026-07-07T11:09:38.000Z</time>
      </trkpt>
      <trkpt lat="45.8286" lon="1.92745">
        <ele>774.6</ele>
        <time>2026-07-07T11:09:39.000Z</time>
      </trkpt>
      <trkpt lat="45.8286" lon="1.92745">
        <ele>774.6</ele>
        <time>2026-07-07T11:09:40.000Z</time>
      </trkpt>
      <trkpt lat="45.8286" lon="1.92745">
        <ele>774.6</ele>
        <time>2026-07-07T11:09:41.000Z</time>
      </trkpt>
      <trkpt lat="45.8286" lon="1.92745">
        <ele>774.6</ele>
        <time>2026-07-07T11:09:42.000Z</time>
      </trkpt>
      <trkpt lat="45.8286" lon="1.92745">
        <ele>774.6</ele>
        <time>2026-07-07T11:09:43.000Z</time>
      </trkpt>
      <trkpt lat="45.8286" lon="1.92745">
        <ele>774.6</ele>
        <time>2026-07-07T11:09:44.000Z</time>
      </trkpt>
      <trkpt lat="45.8286" lon="1.92745">
        <ele>774.6</ele>
        <time>2026-07-07T11:09:45.000Z</time>
      </trkpt>
      <trkpt lat="45.8286" lon="1.92745">
        <ele>774.6</ele>
        <time>2026-07-07T11:09:46.000Z</time>
      </trkpt>
      <trkpt lat="45.8286" lon="1.92745">
        <ele>774.6</ele>
        <time>2026-07-07T11:09:47.000Z</time>
      </trkpt>
      <trkpt lat="45.8286" lon="1.92745">
        <ele>774.6</ele>
        <time>2026-07-07T11:09:48.000Z</time>
      </trkpt>
      <trkpt lat="45.8286" lon="1.92745">
        <ele>774.6</ele>
        <time>2026-07-07T11:09:49.000Z</time>
      </trkpt>
      <trkpt lat="45.8286" lon="1.92745">
        <ele>774.5</ele>
        <time>2026-07-07T11:09:50.000Z</time>
      </trkpt>
      <trkpt lat="45.8286" lon="1.92745">
        <ele>774.6</ele>
        <time>2026-07-07T11:09:51.000Z</time>
      </trkpt>
      <trkpt lat="45.8286" lon="1.92745">
        <ele>774.6</ele>
        <time>2026-07-07T11:09:52.000Z</time>
      </trkpt>
      <trkpt lat="45.8286" lon="1.92745">
        <ele>774.6</ele>
        <time>2026-07-07T11:09:53.000Z</time>
      </trkpt>
      <trkpt lat="45.8286" lon="1.92745">
        <ele>774.6</ele>
        <time>2026-07-07T11:09:54.000Z</time>
      </trkpt>
      <trkpt lat="45.8286" lon="1.92745">
        <ele>774.6</ele>
        <time>2026-07-07T11:09:55.000Z</time>
      </trkpt>
      <trkpt lat="45.8286" lon="1.92745">
        <ele>774.6</ele>
        <time>2026-07-07T11:09:56.000Z</time>
      </trkpt>
      <trkpt lat="45.8286" lon="1.92745">
        <ele>774.6</ele>
        <time>2026-07-07T11:09:57.000Z</time>
      </trkpt>
      <trkpt lat="45.8286" lon="1.92745">
        <ele>774.6</ele>
        <time>2026-07-07T11:09:58.000Z</time>
      </trkpt>
      <trkpt lat="45.8286" lon="1.92745">
        <ele>774.6</ele>
        <time>2026-07-07T11:09:59.000Z</time>
      </trkpt>
      <trkpt lat="45.8286" lon="1.92745">
        <ele>774.6</ele>
        <time>2026-07-07T11:10:00.000Z</time>
      </trkpt>
      <trkpt lat="45.8286" lon="1.92745">
        <ele>774.6</ele>
        <time>2026-07-07T11:10:01.000Z</time>
      </trkpt>
      <trkpt lat="45.8286" lon="1.92745">
        <ele>774.6</ele>
        <time>2026-07-07T11:10:02.000Z</time>
      </trkpt>
      <trkpt lat="45.8286" lon="1.92745">
        <ele>774.6</ele>
        <time>2026-07-07T11:10:03.000Z</time>
      </trkpt>
      <trkpt lat="45.8286" lon="1.92745">
        <ele>774.6</ele>
        <time>2026-07-07T11:10:04.000Z</time>
      </trkpt>
      <trkpt lat="45.8286" lon="1.92745">
        <ele>774.6</ele>
        <time>2026-07-07T11:10:05.000Z</time>
      </trkpt>
      <trkpt lat="45.8286" lon="1.92745">
        <ele>774.6</ele>
        <time>2026-07-07T11:10:06.000Z</time>
      </trkpt>
      <trkpt lat="45.8286" lon="1.92745">
        <ele>774.6</ele>
        <time>2026-07-07T11:10:07.000Z</time>
      </trkpt>
      <trkpt lat="45.8286" lon="1.92745">
        <ele>774.6</ele>
        <time>2026-07-07T11:10:08.000Z</time>
      </trkpt>
      <trkpt lat="45.8286" lon="1.92745">
        <ele>774.6</ele>
        <time>2026-07-07T11:10:09.000Z</time>
      </trkpt>
      <trkpt lat="45.8286" lon="1.92745">
        <ele>774.6</ele>
        <time>2026-07-07T11:10:10.000Z</time>
      </trkpt>
      <trkpt lat="45.8286" lon="1.92745">
        <ele>774.6</ele>
        <time>2026-07-07T11:10:11.000Z</time>
      </trkpt>
      <trkpt lat="45.8286" lon="1.92745">
        <ele>774.6</ele>
        <time>2026-07-07T11:10:12.000Z</time>
      </trkpt>
      <trkpt lat="45.8286" lon="1.92745">
        <ele>774.6</ele>
        <time>2026-07-07T11:10:13.000Z</time>
      </trkpt>
      <trkpt lat="45.8286" lon="1.92745">
        <ele>774.6</ele>
        <time>2026-07-07T11:10:14.000Z</time>
      </trkpt>
      <trkpt lat="45.8286" lon="1.92745">
        <ele>774.6</ele>
        <time>2026-07-07T11:10:15.000Z</time>
      </trkpt>
      <trkpt lat="45.8286" lon="1.92745">
        <ele>774.6</ele>
        <time>2026-07-07T11:10:16.000Z</time>
      </trkpt>
      <trkpt lat="45.8286" lon="1.92745">
        <ele>774.7</ele>
        <time>2026-07-07T11:10:17.000Z</time>
      </trkpt>
      <trkpt lat="45.8286" lon="1.92745">
        <ele>774.7</ele>
        <time>2026-07-07T11:10:18.000Z</time>
      </trkpt>
      <trkpt lat="45.8286" lon="1.92745">
        <ele>774.6</ele>
        <time>2026-07-07T11:10:19.000Z</time>
      </trkpt>
      <trkpt lat="45.8286" lon="1.92745">
        <ele>774.6</ele>
        <time>2026-07-07T11:10:20.000Z</time>
      </trkpt>
      <trkpt lat="45.8286" lon="1.92745">
        <ele>774.6</ele>
        <time>2026-07-07T11:10:21.000Z</time>
      </trkpt>
      <trkpt lat="45.8286" lon="1.92745">
        <ele>774.7</ele>
        <time>2026-07-07T11:10:22.000Z</time>
      </trkpt>
      <trkpt lat="45.8286" lon="1.92745">
        <ele>774.7</ele>
        <time>2026-07-07T11:10:23.000Z</time>
      </trkpt>
      <trkpt lat="45.8286" lon="1.92745">
        <ele>774.7</ele>
        <time>2026-07-07T11:10:24.000Z</time>
      </trkpt>
      <trkpt lat="45.8286" lon="1.92745">
        <ele>774.7</ele>
        <time>2026-07-07T11:10:25.000Z</time>
      </trkpt>
      <trkpt lat="45.8286" lon="1.92745">
        <ele>774.7</ele>
        <time>2026-07-07T11:10:26.000Z</time>
      </trkpt>
      <trkpt lat="45.8286" lon="1.92745">
        <ele>774.7</ele>
        <time>2026-07-07T11:10:27.000Z</time>
      </trkpt>
      <trkpt lat="45.8286" lon="1.92745">
        <ele>774.6</ele>
        <time>2026-07-07T11:10:28.000Z</time>
      </trkpt>
      <trkpt lat="45.8286" lon="1.92745">
        <ele>774.6</ele>
        <time>2026-07-07T11:10:29.000Z</time>
      </trkpt>
      <trkpt lat="45.8286" lon="1.92745">
        <ele>774.6</ele>
        <time>2026-07-07T11:10:30.000Z</time>
      </trkpt>
      <trkpt lat="45.8286" lon="1.92745">
        <ele>774.6</ele>
        <time>2026-07-07T11:10:31.000Z</time>
      </trkpt>
      <trkpt lat="45.8286" lon="1.92745">
        <ele>774.6</ele>
        <time>2026-07-07T11:10:32.000Z</time>
      </trkpt>
      <trkpt lat="45.8286" lon="1.92745">
        <ele>774.6</ele>
        <time>2026-07-07T11:10:33.000Z</time>
      </trkpt>
      <trkpt lat="45.8286" lon="1.92745">
        <ele>774.6</ele>
        <time>2026-07-07T11:10:34.000Z</time>
      </trkpt>
      <trkpt lat="45.8286" lon="1.92745">
        <ele>774.6</ele>
        <time>2026-07-07T11:10:35.000Z</time>
      </trkpt>
      <trkpt lat="45.8286" lon="1.92745">
        <ele>774.6</ele>
        <time>2026-07-07T11:10:36.000Z</time>
      </trkpt>
      <trkpt lat="45.8286" lon="1.92745">
        <ele>774.6</ele>
        <time>2026-07-07T11:10:37.000Z</time>
      </trkpt>
      <trkpt lat="45.8286" lon="1.92745">
        <ele>774.6</ele>
        <time>2026-07-07T11:10:38.000Z</time>
      </trkpt>
      <trkpt lat="45.8286" lon="1.92745">
        <ele>774.6</ele>
        <time>2026-07-07T11:10:39.000Z</time>
      </trkpt>
      <trkpt lat="45.8286" lon="1.92745">
        <ele>774.6</ele>
        <time>2026-07-07T11:10:40.000Z</time>
      </trkpt>
      <trkpt lat="45.8286" lon="1.92745">
        <ele>774.6</ele>
        <time>2026-07-07T11:10:41.000Z</time>
      </trkpt>
      <trkpt lat="45.8286" lon="1.92745">
        <ele>774.6</ele>
        <time>2026-07-07T11:10:42.000Z</time>
      </trkpt>
      <trkpt lat="45.8286" lon="1.92745">
        <ele>774.6</ele>
        <time>2026-07-07T11:10:43.000Z</time>
      </trkpt>
      <trkpt lat="45.8286" lon="1.92745">
        <ele>774.6</ele>
        <time>2026-07-07T11:10:44.000Z</time>
      </trkpt>
      <trkpt lat="45.8286" lon="1.92745">
        <ele>774.6</ele>
        <time>2026-07-07T11:10:45.000Z</time>
      </trkpt>
      <trkpt lat="45.8286" lon="1.92745">
        <ele>774.6</ele>
        <time>2026-07-07T11:10:46.000Z</time>
      </trkpt>
      <trkpt lat="45.8286" lon="1.92745">
        <ele>774.6</ele>
        <time>2026-07-07T11:10:47.000Z</time>
      </trkpt>
      <trkpt lat="45.8286" lon="1.92745">
        <ele>774.6</ele>
        <time>2026-07-07T11:10:48.000Z</time>
      </trkpt>
      <trkpt lat="45.8286" lon="1.92745">
        <ele>774.6</ele>
        <time>2026-07-07T11:10:49.000Z</time>
      </trkpt>
      <trkpt lat="45.8286" lon="1.92745">
        <ele>774.6</ele>
        <time>2026-07-07T11:10:50.000Z</time>
      </trkpt>
      <trkpt lat="45.8286" lon="1.92745">
        <ele>774.6</ele>
        <time>2026-07-07T11:10:51.000Z</time>
      </trkpt>
      <trkpt lat="45.8286" lon="1.92745">
        <ele>774.6</ele>
        <time>2026-07-07T11:10:52.000Z</time>
      </trkpt>
      <trkpt lat="45.8286" lon="1.92745">
        <ele>774.6</ele>
        <time>2026-07-07T11:10:53.000Z</time>
      </trkpt>
      <trkpt lat="45.8286" lon="1.92745">
        <ele>774.6</ele>
        <time>2026-07-07T11:10:54.000Z</time>
      </trkpt>
      <trkpt lat="45.8286" lon="1.92745">
        <ele>774.6</ele>
        <time>2026-07-07T11:10:55.000Z</time>
      </trkpt>
      <trkpt lat="45.8286" lon="1.92745">
        <ele>774.6</ele>
        <time>2026-07-07T11:10:56.000Z</time>
      </trkpt>
      <trkpt lat="45.8286" lon="1.92745">
        <ele>774.6</ele>
        <time>2026-07-07T11:10:57.000Z</time>
      </trkpt>
      <trkpt lat="45.8286" lon="1.92745">
        <ele>774.6</ele>
        <time>2026-07-07T11:10:58.000Z</time>
      </trkpt>
      <trkpt lat="45.8286" lon="1.92745">
        <ele>774.6</ele>
        <time>2026-07-07T11:10:59.000Z</time>
      </trkpt>
      <trkpt lat="45.8286" lon="1.92745">
        <ele>774.6</ele>
        <time>2026-07-07T11:11:00.000Z</time>
      </trkpt>
      <trkpt lat="45.8286" lon="1.92745">
        <ele>774.6</ele>
        <time>2026-07-07T11:11:01.000Z</time>
      </trkpt>
      <trkpt lat="45.8286" lon="1.92745">
        <ele>774.6</ele>
        <time>2026-07-07T11:11:02.000Z</time>
      </trkpt>
      <trkpt lat="45.8286" lon="1.92745">
        <ele>774.6</ele>
        <time>2026-07-07T11:11:03.000Z</time>
      </trkpt>
      <trkpt lat="45.8286" lon="1.92745">
        <ele>774.6</ele>
        <time>2026-07-07T11:11:04.000Z</time>
      </trkpt>
      <trkpt lat="45.8286" lon="1.92745">
        <ele>774.6</ele>
        <time>2026-07-07T11:11:05.000Z</time>
      </trkpt>
      <trkpt lat="45.8286" lon="1.92745">
        <ele>774.6</ele>
        <time>2026-07-07T11:11:06.000Z</time>
      </trkpt>
      <trkpt lat="45.8286" lon="1.92745">
        <ele>774.6</ele>
        <time>2026-07-07T11:11:07.000Z</time>
      </trkpt>
      <trkpt lat="45.8286" lon="1.92745">
        <ele>774.6</ele>
        <time>2026-07-07T11:11:08.000Z</time>
      </trkpt>
      <trkpt lat="45.8286" lon="1.92745">
        <ele>774.6</ele>
        <time>2026-07-07T11:11:09.000Z</time>
      </trkpt>
      <trkpt lat="45.8286" lon="1.92745">
        <ele>774.6</ele>
        <time>2026-07-07T11:11:10.000Z</time>
      </trkpt>
      <trkpt lat="45.8286" lon="1.92745">
        <ele>774.6</ele>
        <time>2026-07-07T11:11:11.000Z</time>
      </trkpt>
      <trkpt lat="45.8286" lon="1.92745">
        <ele>774.6</ele>
        <time>2026-07-07T11:11:12.000Z</time>
      </trkpt>
      <trkpt lat="45.8286" lon="1.92745">
        <ele>774.6</ele>
        <time>2026-07-07T11:11:13.000Z</time>
      </trkpt>
      <trkpt lat="45.8286" lon="1.92745">
        <ele>774.6</ele>
        <time>2026-07-07T11:11:14.000Z</time>
      </trkpt>
      <trkpt lat="45.8286" lon="1.92745">
        <ele>774.6</ele>
        <time>2026-07-07T11:11:15.000Z</time>
      </trkpt>
      <trkpt lat="45.8286" lon="1.92745">
        <ele>774.6</ele>
        <time>2026-07-07T11:11:16.000Z</time>
      </trkpt>
      <trkpt lat="45.8286" lon="1.92745">
        <ele>774.6</ele>
        <time>2026-07-07T11:11:17.000Z</time>
      </trkpt>
      <trkpt lat="45.8286" lon="1.92745">
        <ele>774.6</ele>
        <time>2026-07-07T11:11:18.000Z</time>
      </trkpt>
      <trkpt lat="45.8286" lon="1.92745">
        <ele>774.6</ele>
        <time>2026-07-07T11:11:19.000Z</time>
      </trkpt>
      <trkpt lat="45.8286" lon="1.92745">
        <ele>774.6</ele>
        <time>2026-07-07T11:11:20.000Z</time>
      </trkpt>
      <trkpt lat="45.8286" lon="1.92745">
        <ele>774.6</ele>
        <time>2026-07-07T11:11:21.000Z</time>
      </trkpt>
      <trkpt lat="45.8286" lon="1.92745">
        <ele>774.6</ele>
        <time>2026-07-07T11:11:22.000Z</time>
      </trkpt>
      <trkpt lat="45.8286" lon="1.92745">
        <ele>774.6</ele>
        <time>2026-07-07T11:11:23.000Z</time>
      </trkpt>
      <trkpt lat="45.8286" lon="1.92745">
        <ele>774.6</ele>
        <time>2026-07-07T11:11:24.000Z</time>
      </trkpt>
      <trkpt lat="45.8286" lon="1.92745">
        <ele>774.6</ele>
        <time>2026-07-07T11:11:25.000Z</time>
      </trkpt>
      <trkpt lat="45.8286" lon="1.92745">
        <ele>774.6</ele>
        <time>2026-07-07T11:11:26.000Z</time>
      </trkpt>
      <trkpt lat="45.8286" lon="1.92745">
        <ele>774.6</ele>
        <time>2026-07-07T11:11:27.000Z</time>
      </trkpt>
      <trkpt lat="45.8286" lon="1.92745">
        <ele>774.6</ele>
        <time>2026-07-07T11:11:28.000Z</time>
      </trkpt>
      <trkpt lat="45.8286" lon="1.92745">
        <ele>774.6</ele>
        <time>2026-07-07T11:11:29.000Z</time>
      </trkpt>
      <trkpt lat="45.8286" lon="1.92745">
        <ele>774.6</ele>
        <time>2026-07-07T11:11:30.000Z</time>
      </trkpt>
      <trkpt lat="45.8286" lon="1.92745">
        <ele>774.6</ele>
        <time>2026-07-07T11:11:31.000Z</time>
      </trkpt>
      <trkpt lat="45.8286" lon="1.92745">
        <ele>774.6</ele>
        <time>2026-07-07T11:11:32.000Z</time>
      </trkpt>
      <trkpt lat="45.8286" lon="1.92745">
        <ele>774.6</ele>
        <time>2026-07-07T11:11:33.000Z</time>
      </trkpt>
      <trkpt lat="45.8286" lon="1.92745">
        <ele>774.6</ele>
        <time>2026-07-07T11:11:34.000Z</time>
      </trkpt>
      <trkpt lat="45.8286" lon="1.92745">
        <ele>774.6</ele>
        <time>2026-07-07T11:11:35.000Z</time>
      </trkpt>
      <trkpt lat="45.8286" lon="1.92745">
        <ele>774.6</ele>
        <time>2026-07-07T11:11:36.000Z</time>
      </trkpt>
      <trkpt lat="45.8286" lon="1.92745">
        <ele>774.6</ele>
        <time>2026-07-07T11:11:37.000Z</time>
      </trkpt>
      <trkpt lat="45.8286" lon="1.92745">
        <ele>774.6</ele>
        <time>2026-07-07T11:11:38.000Z</time>
      </trkpt>
      <trkpt lat="45.8286" lon="1.92745">
        <ele>774.6</ele>
        <time>2026-07-07T11:11:39.000Z</time>
      </trkpt>
      <trkpt lat="45.8286" lon="1.92745">
        <ele>774.6</ele>
        <time>2026-07-07T11:11:40.000Z</time>
      </trkpt>
      <trkpt lat="45.8286" lon="1.92745">
        <ele>774.6</ele>
        <time>2026-07-07T11:11:41.000Z</time>
      </trkpt>
      <trkpt lat="45.8286" lon="1.92745">
        <ele>774.6</ele>
        <time>2026-07-07T11:11:42.000Z</time>
      </trkpt>
      <trkpt lat="45.8286" lon="1.92745">
        <ele>774.6</ele>
        <time>2026-07-07T11:11:43.000Z</time>
      </trkpt>
      <trkpt lat="45.8286" lon="1.92745">
        <ele>774.6</ele>
        <time>2026-07-07T11:11:44.000Z</time>
      </trkpt>
      <trkpt lat="45.8286" lon="1.92745">
        <ele>774.6</ele>
        <time>2026-07-07T11:11:45.000Z</time>
      </trkpt>
      <trkpt lat="45.8286" lon="1.92745">
        <ele>774.6</ele>
        <time>2026-07-07T11:11:46.000Z</time>
      </trkpt>
      <trkpt lat="45.8286" lon="1.92745">
        <ele>774.6</ele>
        <time>2026-07-07T11:11:47.000Z</time>
      </trkpt>
      <trkpt lat="45.8286" lon="1.92745">
        <ele>774.6</ele>
        <time>2026-07-07T11:11:48.000Z</time>
      </trkpt>
      <trkpt lat="45.8286" lon="1.92745">
        <ele>774.6</ele>
        <time>2026-07-07T11:11:49.000Z</time>
      </trkpt>
      <trkpt lat="45.8286" lon="1.92745">
        <ele>774.6</ele>
        <time>2026-07-07T11:11:50.000Z</time>
      </trkpt>
      <trkpt lat="45.8286" lon="1.92745">
        <ele>774.6</ele>
        <time>2026-07-07T11:11:51.000Z</time>
      </trkpt>
      <trkpt lat="45.8286" lon="1.92745">
        <ele>774.6</ele>
        <time>2026-07-07T11:11:52.000Z</time>
      </trkpt>
      <trkpt lat="45.8286" lon="1.92745">
        <ele>774.6</ele>
        <time>2026-07-07T11:11:53.000Z</time>
      </trkpt>
      <trkpt lat="45.8286" lon="1.92745">
        <ele>774.6</ele>
        <time>2026-07-07T11:11:54.000Z</time>
      </trkpt>
      <trkpt lat="45.8286" lon="1.92745">
        <ele>774.6</ele>
        <time>2026-07-07T11:11:55.000Z</time>
      </trkpt>
      <trkpt lat="45.8286" lon="1.92745">
        <ele>774.6</ele>
        <time>2026-07-07T11:11:56.000Z</time>
      </trkpt>
      <trkpt lat="45.8286" lon="1.92745">
        <ele>774.6</ele>
        <time>2026-07-07T11:11:57.000Z</time>
      </trkpt>
      <trkpt lat="45.8286" lon="1.92745">
        <ele>774.6</ele>
        <time>2026-07-07T11:11:58.000Z</time>
      </trkpt>
      <trkpt lat="45.8286" lon="1.92745">
        <ele>774.6</ele>
        <time>2026-07-07T11:11:59.000Z</time>
      </trkpt>
      <trkpt lat="45.8286" lon="1.92745">
        <ele>774.6</ele>
        <time>2026-07-07T11:12:00.000Z</time>
      </trkpt>
      <trkpt lat="45.8286" lon="1.92745">
        <ele>774.6</ele>
        <time>2026-07-07T11:12:01.000Z</time>
      </trkpt>
      <trkpt lat="45.8286" lon="1.92745">
        <ele>774.6</ele>
        <time>2026-07-07T11:12:02.000Z</time>
      </trkpt>
      <trkpt lat="45.8286" lon="1.92745">
        <ele>774.6</ele>
        <time>2026-07-07T11:12:03.000Z</time>
      </trkpt>
      <trkpt lat="45.8286" lon="1.92745">
        <ele>774.6</ele>
        <time>2026-07-07T11:12:04.000Z</time>
      </trkpt>
      <trkpt lat="45.8286" lon="1.92745">
        <ele>774.6</ele>
        <time>2026-07-07T11:12:05.000Z</time>
      </trkpt>
      <trkpt lat="45.8286" lon="1.92745">
        <ele>774.6</ele>
        <time>2026-07-07T11:12:06.000Z</time>
      </trkpt>
      <trkpt lat="45.8286" lon="1.92745">
        <ele>774.6</ele>
        <time>2026-07-07T11:12:07.000Z</time>
      </trkpt>
      <trkpt lat="45.8286" lon="1.92744">
        <ele>774.9</ele>
        <time>2026-07-07T11:12:08.000Z</time>
      </trkpt>
      <trkpt lat="45.8286" lon="1.92744">
        <ele>774.9</ele>
        <time>2026-07-07T11:12:09.000Z</time>
      </trkpt>
      <trkpt lat="45.8286" lon="1.92744">
        <ele>774.9</ele>
        <time>2026-07-07T11:12:10.000Z</time>
      </trkpt>
      <trkpt lat="45.8286" lon="1.92744">
        <ele>774.9</ele>
        <time>2026-07-07T11:12:11.000Z</time>
      </trkpt>
      <trkpt lat="45.8286" lon="1.92744">
        <ele>774.9</ele>
        <time>2026-07-07T11:12:12.000Z</time>
      </trkpt>
      <trkpt lat="45.8286" lon="1.92744">
        <ele>774.9</ele>
        <time>2026-07-07T11:12:13.000Z</time>
      </trkpt>
      <trkpt lat="45.8286" lon="1.92744">
        <ele>774.9</ele>
        <time>2026-07-07T11:12:14.000Z</time>
      </trkpt>
      <trkpt lat="45.8286" lon="1.92744">
        <ele>774.9</ele>
        <time>2026-07-07T11:12:15.000Z</time>
      </trkpt>
      <trkpt lat="45.8286" lon="1.92744">
        <ele>774.9</ele>
        <time>2026-07-07T11:12:16.000Z</time>
      </trkpt>
      <trkpt lat="45.8286" lon="1.92744">
        <ele>774.9</ele>
        <time>2026-07-07T11:12:17.000Z</time>
      </trkpt>
      <trkpt lat="45.8286" lon="1.92744">
        <ele>774.9</ele>
        <time>2026-07-07T11:12:18.000Z</time>
      </trkpt>
      <trkpt lat="45.8286" lon="1.92744">
        <ele>774.9</ele>
        <time>2026-07-07T11:12:19.000Z</time>
      </trkpt>
      <trkpt lat="45.8286" lon="1.92744">
        <ele>774.9</ele>
        <time>2026-07-07T11:12:20.000Z</time>
      </trkpt>
      <trkpt lat="45.8286" lon="1.92744">
        <ele>775</ele>
        <time>2026-07-07T11:12:21.000Z</time>
      </trkpt>
      <trkpt lat="45.8286" lon="1.92744">
        <ele>775</ele>
        <time>2026-07-07T11:12:22.000Z</time>
      </trkpt>
      <trkpt lat="45.8286" lon="1.92744">
        <ele>775</ele>
        <time>2026-07-07T11:12:23.000Z</time>
      </trkpt>
      <trkpt lat="45.8286" lon="1.92744">
        <ele>775</ele>
        <time>2026-07-07T11:12:24.000Z</time>
      </trkpt>
      <trkpt lat="45.8286" lon="1.92744">
        <ele>775</ele>
        <time>2026-07-07T11:12:25.000Z</time>
      </trkpt>
      <trkpt lat="45.8286" lon="1.92744">
        <ele>775</ele>
        <time>2026-07-07T11:12:26.000Z</time>
      </trkpt>
      <trkpt lat="45.8286" lon="1.92744">
        <ele>775</ele>
        <time>2026-07-07T11:12:27.000Z</time>
      </trkpt>
      <trkpt lat="45.8286" lon="1.92744">
        <ele>775</ele>
        <time>2026-07-07T11:12:28.000Z</time>
      </trkpt>
      <trkpt lat="45.8286" lon="1.92744">
        <ele>775</ele>
        <time>2026-07-07T11:12:29.000Z</time>
      </trkpt>
      <trkpt lat="45.8286" lon="1.92744">
        <ele>775</ele>
        <time>2026-07-07T11:12:30.000Z</time>
      </trkpt>
      <trkpt lat="45.8286" lon="1.92744">
        <ele>775</ele>
        <time>2026-07-07T11:12:31.000Z</time>
      </trkpt>
      <trkpt lat="45.8286" lon="1.92744">
        <ele>775</ele>
        <time>2026-07-07T11:12:32.000Z</time>
      </trkpt>
      <trkpt lat="45.8286" lon="1.92744">
        <ele>775</ele>
        <time>2026-07-07T11:12:33.000Z</time>
      </trkpt>
      <trkpt lat="45.8286" lon="1.92744">
        <ele>775</ele>
        <time>2026-07-07T11:12:34.000Z</time>
      </trkpt>
      <trkpt lat="45.8286" lon="1.92744">
        <ele>775</ele>
        <time>2026-07-07T11:12:35.000Z</time>
      </trkpt>
      <trkpt lat="45.8286" lon="1.92744">
        <ele>775</ele>
        <time>2026-07-07T11:12:36.000Z</time>
      </trkpt>
      <trkpt lat="45.8286" lon="1.92744">
        <ele>775</ele>
        <time>2026-07-07T11:12:37.000Z</time>
      </trkpt>
      <trkpt lat="45.8286" lon="1.92744">
        <ele>775</ele>
        <time>2026-07-07T11:12:38.000Z</time>
      </trkpt>
      <trkpt lat="45.8286" lon="1.92744">
        <ele>775</ele>
        <time>2026-07-07T11:12:39.000Z</time>
      </trkpt>
      <trkpt lat="45.8286" lon="1.92744">
        <ele>775</ele>
        <time>2026-07-07T11:12:40.000Z</time>
      </trkpt>
      <trkpt lat="45.8286" lon="1.92744">
        <ele>775</ele>
        <time>2026-07-07T11:12:41.000Z</time>
      </trkpt>
      <trkpt lat="45.8286" lon="1.92744">
        <ele>775</ele>
        <time>2026-07-07T11:12:42.000Z</time>
      </trkpt>
      <trkpt lat="45.8286" lon="1.92744">
        <ele>775</ele>
        <time>2026-07-07T11:12:43.000Z</time>
      </trkpt>
      <trkpt lat="45.8286" lon="1.92744">
        <ele>775</ele>
        <time>2026-07-07T11:12:44.000Z</time>
      </trkpt>
      <trkpt lat="45.8286" lon="1.92744">
        <ele>775</ele>
        <time>2026-07-07T11:12:45.000Z</time>
      </trkpt>
      <trkpt lat="45.8286" lon="1.92744">
        <ele>775</ele>
        <time>2026-07-07T11:12:46.000Z</time>
      </trkpt>
      <trkpt lat="45.8286" lon="1.92744">
        <ele>775</ele>
        <time>2026-07-07T11:12:47.000Z</time>
      </trkpt>
      <trkpt lat="45.8286" lon="1.92744">
        <ele>775</ele>
        <time>2026-07-07T11:12:48.000Z</time>
      </trkpt>
      <trkpt lat="45.8286" lon="1.92744">
        <ele>775</ele>
        <time>2026-07-07T11:12:49.000Z</time>
      </trkpt>
      <trkpt lat="45.8286" lon="1.92744">
        <ele>775</ele>
        <time>2026-07-07T11:12:50.000Z</time>
      </trkpt>
      <trkpt lat="45.8286" lon="1.92744">
        <ele>775</ele>
        <time>2026-07-07T11:12:51.000Z</time>
      </trkpt>
      <trkpt lat="45.8286" lon="1.92744">
        <ele>775</ele>
        <time>2026-07-07T11:12:52.000Z</time>
      </trkpt>
      <trkpt lat="45.8286" lon="1.92744">
        <ele>775</ele>
        <time>2026-07-07T11:12:53.000Z</time>
      </trkpt>
      <trkpt lat="45.8286" lon="1.92744">
        <ele>775</ele>
        <time>2026-07-07T11:12:54.000Z</time>
      </trkpt>
      <trkpt lat="45.8286" lon="1.92744">
        <ele>775</ele>
        <time>2026-07-07T11:12:55.000Z</time>
      </trkpt>
      <trkpt lat="45.8286" lon="1.92744">
        <ele>775.1</ele>
        <time>2026-07-07T11:12:56.000Z</time>
      </trkpt>
      <trkpt lat="45.8286" lon="1.92744">
        <ele>775.1</ele>
        <time>2026-07-07T11:12:57.000Z</time>
      </trkpt>
      <trkpt lat="45.8286" lon="1.92744">
        <ele>775.1</ele>
        <time>2026-07-07T11:12:58.000Z</time>
      </trkpt>
      <trkpt lat="45.8286" lon="1.92744">
        <ele>775.1</ele>
        <time>2026-07-07T11:12:59.000Z</time>
      </trkpt>
      <trkpt lat="45.8286" lon="1.92744">
        <ele>775.1</ele>
        <time>2026-07-07T11:13:00.000Z</time>
      </trkpt>
      <trkpt lat="45.8286" lon="1.92744">
        <ele>775.1</ele>
        <time>2026-07-07T11:13:01.000Z</time>
      </trkpt>
      <trkpt lat="45.8286" lon="1.92744">
        <ele>775.1</ele>
        <time>2026-07-07T11:13:02.000Z</time>
      </trkpt>
      <trkpt lat="45.8286" lon="1.92744">
        <ele>775.1</ele>
        <time>2026-07-07T11:13:03.000Z</time>
      </trkpt>
      <trkpt lat="45.8286" lon="1.92744">
        <ele>775.1</ele>
        <time>2026-07-07T11:13:04.000Z</time>
      </trkpt>
      <trkpt lat="45.8286" lon="1.92744">
        <ele>775.1</ele>
        <time>2026-07-07T11:13:05.000Z</time>
      </trkpt>
      <trkpt lat="45.8286" lon="1.92744">
        <ele>775.1</ele>
        <time>2026-07-07T11:13:06.000Z</time>
      </trkpt>
      <trkpt lat="45.8286" lon="1.92744">
        <ele>775.1</ele>
        <time>2026-07-07T11:13:07.000Z</time>
      </trkpt>
      <trkpt lat="45.8286" lon="1.92744">
        <ele>775.1</ele>
        <time>2026-07-07T11:13:08.000Z</time>
      </trkpt>
      <trkpt lat="45.8286" lon="1.92744">
        <ele>775.1</ele>
        <time>2026-07-07T11:13:09.000Z</time>
      </trkpt>
      <trkpt lat="45.8286" lon="1.92744">
        <ele>775.1</ele>
        <time>2026-07-07T11:13:10.000Z</time>
      </trkpt>
      <trkpt lat="45.8286" lon="1.92744">
        <ele>775.1</ele>
        <time>2026-07-07T11:13:11.000Z</time>
      </trkpt>
      <trkpt lat="45.8286" lon="1.92744">
        <ele>775.1</ele>
        <time>2026-07-07T11:13:12.000Z</time>
      </trkpt>
      <trkpt lat="45.8286" lon="1.92744">
        <ele>775.1</ele>
        <time>2026-07-07T11:13:13.000Z</time>
      </trkpt>
      <trkpt lat="45.8286" lon="1.92744">
        <ele>775.1</ele>
        <time>2026-07-07T11:13:14.000Z</time>
      </trkpt>
      <trkpt lat="45.8286" lon="1.92744">
        <ele>775.1</ele>
        <time>2026-07-07T11:13:15.000Z</time>
      </trkpt>
      <trkpt lat="45.8286" lon="1.92744">
        <ele>775.1</ele>
        <time>2026-07-07T11:13:16.000Z</time>
      </trkpt>
      <trkpt lat="45.8286" lon="1.92744">
        <ele>775.1</ele>
        <time>2026-07-07T11:13:17.000Z</time>
      </trkpt>
      <trkpt lat="45.8286" lon="1.92744">
        <ele>775.1</ele>
        <time>2026-07-07T11:13:18.000Z</time>
      </trkpt>
      <trkpt lat="45.8286" lon="1.92744">
        <ele>775.2</ele>
        <time>2026-07-07T11:13:19.000Z</time>
      </trkpt>
      <trkpt lat="45.8286" lon="1.92744">
        <ele>775.2</ele>
        <time>2026-07-07T11:13:20.000Z</time>
      </trkpt>
      <trkpt lat="45.8286" lon="1.92744">
        <ele>775.2</ele>
        <time>2026-07-07T11:13:21.000Z</time>
      </trkpt>
      <trkpt lat="45.8286" lon="1.92744">
        <ele>775.2</ele>
        <time>2026-07-07T11:13:22.000Z</time>
      </trkpt>
      <trkpt lat="45.8286" lon="1.92744">
        <ele>775.2</ele>
        <time>2026-07-07T11:13:23.000Z</time>
      </trkpt>
      <trkpt lat="45.8286" lon="1.92744">
        <ele>775.2</ele>
        <time>2026-07-07T11:13:24.000Z</time>
      </trkpt>
      <trkpt lat="45.82861" lon="1.92744">
        <ele>775.2</ele>
        <time>2026-07-07T11:13:25.000Z</time>
      </trkpt>
      <trkpt lat="45.82861" lon="1.92744">
        <ele>775.2</ele>
        <time>2026-07-07T11:13:26.000Z</time>
      </trkpt>
      <trkpt lat="45.82861" lon="1.92744">
        <ele>775.2</ele>
        <time>2026-07-07T11:13:27.000Z</time>
      </trkpt>
      <trkpt lat="45.8286" lon="1.92744">
        <ele>775.2</ele>
        <time>2026-07-07T11:13:28.000Z</time>
      </trkpt>
      <trkpt lat="45.8286" lon="1.92744">
        <ele>775.2</ele>
        <time>2026-07-07T11:13:29.000Z</time>
      </trkpt>
      <trkpt lat="45.8286" lon="1.92744">
        <ele>775.2</ele>
        <time>2026-07-07T11:13:30.000Z</time>
      </trkpt>
      <trkpt lat="45.8286" lon="1.92744">
        <ele>775.2</ele>
        <time>2026-07-07T11:13:31.000Z</time>
      </trkpt>
      <trkpt lat="45.8286" lon="1.92744">
        <ele>775.2</ele>
        <time>2026-07-07T11:13:32.000Z</time>
      </trkpt>
      <trkpt lat="45.8286" lon="1.92744">
        <ele>775.2</ele>
        <time>2026-07-07T11:13:33.000Z</time>
      </trkpt>
      <trkpt lat="45.8286" lon="1.92744">
        <ele>775.2</ele>
        <time>2026-07-07T11:13:34.000Z</time>
      </trkpt>
      <trkpt lat="45.8286" lon="1.92744">
        <ele>775.2</ele>
        <time>2026-07-07T11:13:35.000Z</time>
      </trkpt>
      <trkpt lat="45.8286" lon="1.92744">
        <ele>775.2</ele>
        <time>2026-07-07T11:13:36.000Z</time>
      </trkpt>
      <trkpt lat="45.8286" lon="1.92744">
        <ele>775.2</ele>
        <time>2026-07-07T11:13:37.000Z</time>
      </trkpt>
      <trkpt lat="45.8286" lon="1.92744">
        <ele>775.2</ele>
        <time>2026-07-07T11:13:38.000Z</time>
      </trkpt>
      <trkpt lat="45.8286" lon="1.92744">
        <ele>775.2</ele>
        <time>2026-07-07T11:13:39.000Z</time>
      </trkpt>
      <trkpt lat="45.8286" lon="1.92744">
        <ele>775.2</ele>
        <time>2026-07-07T11:13:40.000Z</time>
      </trkpt>
      <trkpt lat="45.8286" lon="1.92744">
        <ele>775.2</ele>
        <time>2026-07-07T11:13:41.000Z</time>
      </trkpt>
      <trkpt lat="45.8286" lon="1.92744">
        <ele>775.2</ele>
        <time>2026-07-07T11:13:42.000Z</time>
      </trkpt>
      <trkpt lat="45.8286" lon="1.92744">
        <ele>775.2</ele>
        <time>2026-07-07T11:13:43.000Z</time>
      </trkpt>
      <trkpt lat="45.8286" lon="1.92744">
        <ele>775.2</ele>
        <time>2026-07-07T11:13:44.000Z</time>
      </trkpt>
      <trkpt lat="45.8286" lon="1.92744">
        <ele>775.2</ele>
        <time>2026-07-07T11:13:45.000Z</time>
      </trkpt>
      <trkpt lat="45.8286" lon="1.92744">
        <ele>775.2</ele>
        <time>2026-07-07T11:13:46.000Z</time>
      </trkpt>
      <trkpt lat="45.8286" lon="1.92744">
        <ele>775.2</ele>
        <time>2026-07-07T11:13:47.000Z</time>
      </trkpt>
      <trkpt lat="45.8286" lon="1.92744">
        <ele>775.2</ele>
        <time>2026-07-07T11:13:48.000Z</time>
      </trkpt>
      <trkpt lat="45.8286" lon="1.92744">
        <ele>775.2</ele>
        <time>2026-07-07T11:13:49.000Z</time>
      </trkpt>
      <trkpt lat="45.8286" lon="1.92744">
        <ele>775.3</ele>
        <time>2026-07-07T11:13:50.000Z</time>
      </trkpt>
      <trkpt lat="45.8286" lon="1.92744">
        <ele>775.3</ele>
        <time>2026-07-07T11:13:51.000Z</time>
      </trkpt>
      <trkpt lat="45.8286" lon="1.92744">
        <ele>775.3</ele>
        <time>2026-07-07T11:13:52.000Z</time>
      </trkpt>
      <trkpt lat="45.8286" lon="1.92744">
        <ele>775.3</ele>
        <time>2026-07-07T11:13:53.000Z</time>
      </trkpt>
      <trkpt lat="45.8286" lon="1.92744">
        <ele>775.3</ele>
        <time>2026-07-07T11:13:54.000Z</time>
      </trkpt>
      <trkpt lat="45.8286" lon="1.92744">
        <ele>775.3</ele>
        <time>2026-07-07T11:13:55.000Z</time>
      </trkpt>
      <trkpt lat="45.8286" lon="1.92744">
        <ele>775.3</ele>
        <time>2026-07-07T11:13:56.000Z</time>
      </trkpt>
      <trkpt lat="45.8286" lon="1.92744">
        <ele>775.3</ele>
        <time>2026-07-07T11:13:57.000Z</time>
      </trkpt>
      <trkpt lat="45.8286" lon="1.92744">
        <ele>775.3</ele>
        <time>2026-07-07T11:13:58.000Z</time>
      </trkpt>
      <trkpt lat="45.8286" lon="1.92744">
        <ele>775.3</ele>
        <time>2026-07-07T11:13:59.000Z</time>
      </trkpt>
      <trkpt lat="45.8286" lon="1.92744">
        <ele>775.3</ele>
        <time>2026-07-07T11:14:00.000Z</time>
      </trkpt>
      <trkpt lat="45.8286" lon="1.92744">
        <ele>775.3</ele>
        <time>2026-07-07T11:14:01.000Z</time>
      </trkpt>
      <trkpt lat="45.8286" lon="1.92744">
        <ele>775.3</ele>
        <time>2026-07-07T11:14:02.000Z</time>
      </trkpt>
      <trkpt lat="45.8286" lon="1.92744">
        <ele>775.3</ele>
        <time>2026-07-07T11:14:03.000Z</time>
      </trkpt>
      <trkpt lat="45.8286" lon="1.92744">
        <ele>775.3</ele>
        <time>2026-07-07T11:14:04.000Z</time>
      </trkpt>
      <trkpt lat="45.8286" lon="1.92744">
        <ele>775.3</ele>
        <time>2026-07-07T11:14:05.000Z</time>
      </trkpt>
      <trkpt lat="45.8286" lon="1.92744">
        <ele>775.3</ele>
        <time>2026-07-07T11:14:06.000Z</time>
      </trkpt>
      <trkpt lat="45.82861" lon="1.92744">
        <ele>775.3</ele>
        <time>2026-07-07T11:14:07.000Z</time>
      </trkpt>
      <trkpt lat="45.82861" lon="1.92744">
        <ele>775.3</ele>
        <time>2026-07-07T11:14:08.000Z</time>
      </trkpt>
      <trkpt lat="45.82861" lon="1.92744">
        <ele>775.4</ele>
        <time>2026-07-07T11:14:09.000Z</time>
      </trkpt>
      <trkpt lat="45.82861" lon="1.92744">
        <ele>775.4</ele>
        <time>2026-07-07T11:14:10.000Z</time>
      </trkpt>
      <trkpt lat="45.82861" lon="1.92744">
        <ele>775.4</ele>
        <time>2026-07-07T11:14:11.000Z</time>
      </trkpt>
      <trkpt lat="45.82861" lon="1.92744">
        <ele>775.4</ele>
        <time>2026-07-07T11:14:12.000Z</time>
      </trkpt>
      <trkpt lat="45.82861" lon="1.92744">
        <ele>775.4</ele>
        <time>2026-07-07T11:14:13.000Z</time>
      </trkpt>
      <trkpt lat="45.82861" lon="1.92744">
        <ele>775.4</ele>
        <time>2026-07-07T11:14:14.000Z</time>
      </trkpt>
      <trkpt lat="45.82861" lon="1.92744">
        <ele>775.4</ele>
        <time>2026-07-07T11:14:15.000Z</time>
      </trkpt>
      <trkpt lat="45.82861" lon="1.92744">
        <ele>775.4</ele>
        <time>2026-07-07T11:14:16.000Z</time>
      </trkpt>
      <trkpt lat="45.82861" lon="1.92744">
        <ele>775.4</ele>
        <time>2026-07-07T11:14:17.000Z</time>
      </trkpt>
      <trkpt lat="45.82861" lon="1.92744">
        <ele>775.4</ele>
        <time>2026-07-07T11:14:18.000Z</time>
      </trkpt>
      <trkpt lat="45.82861" lon="1.92744">
        <ele>775.4</ele>
        <time>2026-07-07T11:14:19.000Z</time>
      </trkpt>
      <trkpt lat="45.82861" lon="1.92744">
        <ele>775.4</ele>
        <time>2026-07-07T11:14:20.000Z</time>
      </trkpt>
      <trkpt lat="45.82861" lon="1.92744">
        <ele>775.4</ele>
        <time>2026-07-07T11:14:21.000Z</time>
      </trkpt>
      <trkpt lat="45.82861" lon="1.92744">
        <ele>775.4</ele>
        <time>2026-07-07T11:14:22.000Z</time>
      </trkpt>
      <trkpt lat="45.82861" lon="1.92744">
        <ele>775.4</ele>
        <time>2026-07-07T11:14:23.000Z</time>
      </trkpt>
      <trkpt lat="45.82861" lon="1.92744">
        <ele>775.4</ele>
        <time>2026-07-07T11:14:24.000Z</time>
      </trkpt>
      <trkpt lat="45.82861" lon="1.92744">
        <ele>775.4</ele>
        <time>2026-07-07T11:14:25.000Z</time>
      </trkpt>
      <trkpt lat="45.82861" lon="1.92744">
        <ele>775.4</ele>
        <time>2026-07-07T11:14:26.000Z</time>
      </trkpt>
      <trkpt lat="45.82861" lon="1.92744">
        <ele>775.4</ele>
        <time>2026-07-07T11:14:27.000Z</time>
      </trkpt>
      <trkpt lat="45.82861" lon="1.92744">
        <ele>775.4</ele>
        <time>2026-07-07T11:14:28.000Z</time>
      </trkpt>
      <trkpt lat="45.82861" lon="1.92744">
        <ele>775.4</ele>
        <time>2026-07-07T11:14:29.000Z</time>
      </trkpt>
      <trkpt lat="45.82861" lon="1.92744">
        <ele>775.4</ele>
        <time>2026-07-07T11:14:30.000Z</time>
      </trkpt>
      <trkpt lat="45.82861" lon="1.92744">
        <ele>775.4</ele>
        <time>2026-07-07T11:14:31.000Z</time>
      </trkpt>
      <trkpt lat="45.82861" lon="1.92744">
        <ele>775.4</ele>
        <time>2026-07-07T11:14:32.000Z</time>
      </trkpt>
      <trkpt lat="45.82861" lon="1.92744">
        <ele>775.4</ele>
        <time>2026-07-07T11:14:33.000Z</time>
      </trkpt>
      <trkpt lat="45.82861" lon="1.92744">
        <ele>775.4</ele>
        <time>2026-07-07T11:14:34.000Z</time>
      </trkpt>
      <trkpt lat="45.82861" lon="1.92744">
        <ele>775.4</ele>
        <time>2026-07-07T11:14:35.000Z</time>
      </trkpt>
      <trkpt lat="45.82861" lon="1.92744">
        <ele>775.4</ele>
        <time>2026-07-07T11:14:36.000Z</time>
      </trkpt>
      <trkpt lat="45.82861" lon="1.92744">
        <ele>775.4</ele>
        <time>2026-07-07T11:14:37.000Z</time>
      </trkpt>
      <trkpt lat="45.82861" lon="1.92744">
        <ele>775.4</ele>
        <time>2026-07-07T11:14:38.000Z</time>
      </trkpt>
      <trkpt lat="45.82861" lon="1.92744">
        <ele>775.4</ele>
        <time>2026-07-07T11:14:39.000Z</time>
      </trkpt>
      <trkpt lat="45.82861" lon="1.92744">
        <ele>775.4</ele>
        <time>2026-07-07T11:14:40.000Z</time>
      </trkpt>
      <trkpt lat="45.82861" lon="1.92744">
        <ele>775.4</ele>
        <time>2026-07-07T11:14:41.000Z</time>
      </trkpt>
      <trkpt lat="45.82861" lon="1.92744">
        <ele>775.4</ele>
        <time>2026-07-07T11:14:42.000Z</time>
      </trkpt>
      <trkpt lat="45.82861" lon="1.92744">
        <ele>775.4</ele>
        <time>2026-07-07T11:14:43.000Z</time>
      </trkpt>
      <trkpt lat="45.82861" lon="1.92744">
        <ele>775.4</ele>
        <time>2026-07-07T11:14:44.000Z</time>
      </trkpt>
      <trkpt lat="45.82861" lon="1.92744">
        <ele>775.4</ele>
        <time>2026-07-07T11:14:45.000Z</time>
      </trkpt>
      <trkpt lat="45.82861" lon="1.92744">
        <ele>775.4</ele>
        <time>2026-07-07T11:14:46.000Z</time>
      </trkpt>
      <trkpt lat="45.82861" lon="1.92744">
        <ele>775.4</ele>
        <time>2026-07-07T11:14:47.000Z</time>
      </trkpt>
      <trkpt lat="45.82861" lon="1.92744">
        <ele>775.4</ele>
        <time>2026-07-07T11:14:48.000Z</time>
      </trkpt>
      <trkpt lat="45.82861" lon="1.92744">
        <ele>775.4</ele>
        <time>2026-07-07T11:14:49.000Z</time>
      </trkpt>
      <trkpt lat="45.82861" lon="1.92744">
        <ele>775.4</ele>
        <time>2026-07-07T11:14:50.000Z</time>
      </trkpt>
      <trkpt lat="45.82861" lon="1.92744">
        <ele>775.4</ele>
        <time>2026-07-07T11:14:51.000Z</time>
      </trkpt>
      <trkpt lat="45.82861" lon="1.92744">
        <ele>775.4</ele>
        <time>2026-07-07T11:14:52.000Z</time>
      </trkpt>
      <trkpt lat="45.82861" lon="1.92744">
        <ele>775.4</ele>
        <time>2026-07-07T11:14:53.000Z</time>
      </trkpt>
      <trkpt lat="45.82861" lon="1.92744">
        <ele>775.4</ele>
        <time>2026-07-07T11:14:54.000Z</time>
      </trkpt>
      <trkpt lat="45.82861" lon="1.92744">
        <ele>775.4</ele>
        <time>2026-07-07T11:14:55.000Z</time>
      </trkpt>
      <trkpt lat="45.82861" lon="1.92744">
        <ele>775.4</ele>
        <time>2026-07-07T11:14:56.000Z</time>
      </trkpt>
      <trkpt lat="45.82861" lon="1.92744">
        <ele>775.4</ele>
        <time>2026-07-07T11:14:57.000Z</time>
      </trkpt>
      <trkpt lat="45.82861" lon="1.92744">
        <ele>775.4</ele>
        <time>2026-07-07T11:14:58.000Z</time>
      </trkpt>
      <trkpt lat="45.82861" lon="1.92744">
        <ele>775.4</ele>
        <time>2026-07-07T11:14:59.000Z</time>
      </trkpt>
      <trkpt lat="45.82861" lon="1.92744">
        <ele>775.3</ele>
        <time>2026-07-07T11:15:00.000Z</time>
      </trkpt>
      <trkpt lat="45.82861" lon="1.92744">
        <ele>775.2</ele>
        <time>2026-07-07T11:15:01.000Z</time>
      </trkpt>
      <trkpt lat="45.82861" lon="1.92744">
        <ele>775.2</ele>
        <time>2026-07-07T11:15:02.000Z</time>
      </trkpt>
      <trkpt lat="45.82861" lon="1.92744">
        <ele>775.2</ele>
        <time>2026-07-07T11:15:03.000Z</time>
      </trkpt>
      <trkpt lat="45.82861" lon="1.92744">
        <ele>775.2</ele>
        <time>2026-07-07T11:15:04.000Z</time>
      </trkpt>
      <trkpt lat="45.82861" lon="1.92744">
        <ele>775.2</ele>
        <time>2026-07-07T11:15:05.000Z</time>
      </trkpt>
      <trkpt lat="45.82861" lon="1.92744">
        <ele>775.2</ele>
        <time>2026-07-07T11:15:06.000Z</time>
      </trkpt>
      <trkpt lat="45.82861" lon="1.92744">
        <ele>775.2</ele>
        <time>2026-07-07T11:15:07.000Z</time>
      </trkpt>
      <trkpt lat="45.82861" lon="1.92744">
        <ele>775.2</ele>
        <time>2026-07-07T11:15:08.000Z</time>
      </trkpt>
      <trkpt lat="45.82861" lon="1.92744">
        <ele>775.2</ele>
        <time>2026-07-07T11:15:09.000Z</time>
      </trkpt>
      <trkpt lat="45.82861" lon="1.92744">
        <ele>775.2</ele>
        <time>2026-07-07T11:15:10.000Z</time>
      </trkpt>
      <trkpt lat="45.82861" lon="1.92744">
        <ele>775.2</ele>
        <time>2026-07-07T11:15:11.000Z</time>
      </trkpt>
      <trkpt lat="45.82861" lon="1.92744">
        <ele>775.2</ele>
        <time>2026-07-07T11:15:12.000Z</time>
      </trkpt>
      <trkpt lat="45.82861" lon="1.92744">
        <ele>775.2</ele>
        <time>2026-07-07T11:15:13.000Z</time>
      </trkpt>
      <trkpt lat="45.82861" lon="1.92744">
        <ele>775.2</ele>
        <time>2026-07-07T11:15:14.000Z</time>
      </trkpt>
      <trkpt lat="45.82861" lon="1.92744">
        <ele>775.2</ele>
        <time>2026-07-07T11:15:15.000Z</time>
      </trkpt>
      <trkpt lat="45.82861" lon="1.92744">
        <ele>775.2</ele>
        <time>2026-07-07T11:15:16.000Z</time>
      </trkpt>
      <trkpt lat="45.82861" lon="1.92744">
        <ele>775.2</ele>
        <time>2026-07-07T11:15:17.000Z</time>
      </trkpt>
      <trkpt lat="45.82861" lon="1.92744">
        <ele>775.2</ele>
        <time>2026-07-07T11:15:18.000Z</time>
      </trkpt>
      <trkpt lat="45.82861" lon="1.92744">
        <ele>775.2</ele>
        <time>2026-07-07T11:15:19.000Z</time>
      </trkpt>
      <trkpt lat="45.82861" lon="1.92744">
        <ele>775.2</ele>
        <time>2026-07-07T11:15:20.000Z</time>
      </trkpt>
      <trkpt lat="45.82861" lon="1.92744">
        <ele>775.2</ele>
        <time>2026-07-07T11:15:21.000Z</time>
      </trkpt>
      <trkpt lat="45.82861" lon="1.92744">
        <ele>775.2</ele>
        <time>2026-07-07T11:15:22.000Z</time>
      </trkpt>
      <trkpt lat="45.82861" lon="1.92744">
        <ele>775.2</ele>
        <time>2026-07-07T11:15:23.000Z</time>
      </trkpt>
      <trkpt lat="45.82861" lon="1.92744">
        <ele>775.2</ele>
        <time>2026-07-07T11:15:24.000Z</time>
      </trkpt>
      <trkpt lat="45.82861" lon="1.92744">
        <ele>775.2</ele>
        <time>2026-07-07T11:15:25.000Z</time>
      </trkpt>
      <trkpt lat="45.82861" lon="1.92744">
        <ele>775.2</ele>
        <time>2026-07-07T11:15:26.000Z</time>
      </trkpt>
      <trkpt lat="45.82861" lon="1.92744">
        <ele>775.2</ele>
        <time>2026-07-07T11:15:27.000Z</time>
      </trkpt>
      <trkpt lat="45.82861" lon="1.92744">
        <ele>775.2</ele>
        <time>2026-07-07T11:15:28.000Z</time>
      </trkpt>
      <trkpt lat="45.82861" lon="1.92744">
        <ele>775.2</ele>
        <time>2026-07-07T11:15:29.000Z</time>
      </trkpt>
      <trkpt lat="45.82861" lon="1.92744">
        <ele>775.2</ele>
        <time>2026-07-07T11:15:30.000Z</time>
      </trkpt>
      <trkpt lat="45.82861" lon="1.92744">
        <ele>775.2</ele>
        <time>2026-07-07T11:15:31.000Z</time>
      </trkpt>
      <trkpt lat="45.82861" lon="1.92744">
        <ele>775.2</ele>
        <time>2026-07-07T11:15:32.000Z</time>
      </trkpt>
      <trkpt lat="45.82861" lon="1.92744">
        <ele>775.2</ele>
        <time>2026-07-07T11:15:33.000Z</time>
      </trkpt>
      <trkpt lat="45.82861" lon="1.92744">
        <ele>775.2</ele>
        <time>2026-07-07T11:15:34.000Z</time>
      </trkpt>
      <trkpt lat="45.82861" lon="1.92744">
        <ele>775.2</ele>
        <time>2026-07-07T11:15:35.000Z</time>
      </trkpt>
      <trkpt lat="45.82861" lon="1.92744">
        <ele>775.2</ele>
        <time>2026-07-07T11:15:36.000Z</time>
      </trkpt>
      <trkpt lat="45.82861" lon="1.92744">
        <ele>775.2</ele>
        <time>2026-07-07T11:15:37.000Z</time>
      </trkpt>
      <trkpt lat="45.82861" lon="1.92744">
        <ele>775.2</ele>
        <time>2026-07-07T11:15:38.000Z</time>
      </trkpt>
      <trkpt lat="45.82861" lon="1.92744">
        <ele>775.2</ele>
        <time>2026-07-07T11:15:39.000Z</time>
      </trkpt>
      <trkpt lat="45.82861" lon="1.92744">
        <ele>775.2</ele>
        <time>2026-07-07T11:15:40.000Z</time>
      </trkpt>
      <trkpt lat="45.82861" lon="1.92744">
        <ele>775.2</ele>
        <time>2026-07-07T11:15:41.000Z</time>
      </trkpt>
      <trkpt lat="45.82861" lon="1.92744">
        <ele>775.2</ele>
        <time>2026-07-07T11:15:42.000Z</time>
      </trkpt>
      <trkpt lat="45.82861" lon="1.92744">
        <ele>775.2</ele>
        <time>2026-07-07T11:15:43.000Z</time>
      </trkpt>
      <trkpt lat="45.82861" lon="1.92744">
        <ele>775.2</ele>
        <time>2026-07-07T11:15:44.000Z</time>
      </trkpt>
      <trkpt lat="45.82861" lon="1.92744">
        <ele>775.2</ele>
        <time>2026-07-07T11:15:45.000Z</time>
      </trkpt>
      <trkpt lat="45.82861" lon="1.92744">
        <ele>775.2</ele>
        <time>2026-07-07T11:15:46.000Z</time>
      </trkpt>
      <trkpt lat="45.82861" lon="1.92744">
        <ele>775.2</ele>
        <time>2026-07-07T11:15:47.000Z</time>
      </trkpt>
      <trkpt lat="45.82861" lon="1.92744">
        <ele>775.2</ele>
        <time>2026-07-07T11:15:48.000Z</time>
      </trkpt>
      <trkpt lat="45.82861" lon="1.92744">
        <ele>775.2</ele>
        <time>2026-07-07T11:15:49.000Z</time>
      </trkpt>
      <trkpt lat="45.82861" lon="1.92744">
        <ele>775.2</ele>
        <time>2026-07-07T11:15:50.000Z</time>
      </trkpt>
      <trkpt lat="45.82861" lon="1.92744">
        <ele>775.2</ele>
        <time>2026-07-07T11:15:51.000Z</time>
      </trkpt>
      <trkpt lat="45.82861" lon="1.92744">
        <ele>775.2</ele>
        <time>2026-07-07T11:15:52.000Z</time>
      </trkpt>
      <trkpt lat="45.82861" lon="1.92744">
        <ele>775.2</ele>
        <time>2026-07-07T11:15:53.000Z</time>
      </trkpt>
      <trkpt lat="45.82861" lon="1.92744">
        <ele>775.2</ele>
        <time>2026-07-07T11:15:54.000Z</time>
      </trkpt>
      <trkpt lat="45.82861" lon="1.92744">
        <ele>775.2</ele>
        <time>2026-07-07T11:15:55.000Z</time>
      </trkpt>
      <trkpt lat="45.82861" lon="1.92744">
        <ele>775.2</ele>
        <time>2026-07-07T11:15:56.000Z</time>
      </trkpt>
      <trkpt lat="45.82861" lon="1.92744">
        <ele>775.3</ele>
        <time>2026-07-07T11:15:57.000Z</time>
      </trkpt>
      <trkpt lat="45.82861" lon="1.92744">
        <ele>775.3</ele>
        <time>2026-07-07T11:15:58.000Z</time>
      </trkpt>
      <trkpt lat="45.82861" lon="1.92744">
        <ele>775.3</ele>
        <time>2026-07-07T11:15:59.000Z</time>
      </trkpt>
      <trkpt lat="45.82861" lon="1.92744">
        <ele>775.3</ele>
        <time>2026-07-07T11:16:00.000Z</time>
      </trkpt>
      <trkpt lat="45.82861" lon="1.92744">
        <ele>775.3</ele>
        <time>2026-07-07T11:16:01.000Z</time>
      </trkpt>
      <trkpt lat="45.82861" lon="1.92744">
        <ele>775.3</ele>
        <time>2026-07-07T11:16:02.000Z</time>
      </trkpt>
      <trkpt lat="45.82861" lon="1.92744">
        <ele>775.3</ele>
        <time>2026-07-07T11:16:03.000Z</time>
      </trkpt>
      <trkpt lat="45.82861" lon="1.92744">
        <ele>775.3</ele>
        <time>2026-07-07T11:16:04.000Z</time>
      </trkpt>
      <trkpt lat="45.82861" lon="1.92744">
        <ele>775.3</ele>
        <time>2026-07-07T11:16:05.000Z</time>
      </trkpt>
      <trkpt lat="45.82861" lon="1.92744">
        <ele>775.3</ele>
        <time>2026-07-07T11:16:06.000Z</time>
      </trkpt>
      <trkpt lat="45.82861" lon="1.92744">
        <ele>775.3</ele>
        <time>2026-07-07T11:16:07.000Z</time>
      </trkpt>
      <trkpt lat="45.82861" lon="1.92744">
        <ele>775.3</ele>
        <time>2026-07-07T11:16:08.000Z</time>
      </trkpt>
      <trkpt lat="45.82861" lon="1.92744">
        <ele>775.3</ele>
        <time>2026-07-07T11:16:09.000Z</time>
      </trkpt>
      <trkpt lat="45.82861" lon="1.92744">
        <ele>775.3</ele>
        <time>2026-07-07T11:16:10.000Z</time>
      </trkpt>
      <trkpt lat="45.82861" lon="1.92744">
        <ele>775.3</ele>
        <time>2026-07-07T11:16:11.000Z</time>
      </trkpt>
      <trkpt lat="45.82861" lon="1.92744">
        <ele>775.3</ele>
        <time>2026-07-07T11:16:12.000Z</time>
      </trkpt>
      <trkpt lat="45.82861" lon="1.92744">
        <ele>775.3</ele>
        <time>2026-07-07T11:16:13.000Z</time>
      </trkpt>
      <trkpt lat="45.82861" lon="1.92744">
        <ele>775.3</ele>
        <time>2026-07-07T11:16:14.000Z</time>
      </trkpt>
      <trkpt lat="45.82861" lon="1.92744">
        <ele>775.3</ele>
        <time>2026-07-07T11:16:15.000Z</time>
      </trkpt>
      <trkpt lat="45.82861" lon="1.92744">
        <ele>775.3</ele>
        <time>2026-07-07T11:16:16.000Z</time>
      </trkpt>
      <trkpt lat="45.82861" lon="1.92744">
        <ele>775.3</ele>
        <time>2026-07-07T11:16:17.000Z</time>
      </trkpt>
      <trkpt lat="45.82861" lon="1.92744">
        <ele>775.3</ele>
        <time>2026-07-07T11:16:18.000Z</time>
      </trkpt>
      <trkpt lat="45.82861" lon="1.92744">
        <ele>775.3</ele>
        <time>2026-07-07T11:16:19.000Z</time>
      </trkpt>
      <trkpt lat="45.82861" lon="1.92744">
        <ele>775.3</ele>
        <time>2026-07-07T11:16:20.000Z</time>
      </trkpt>
      <trkpt lat="45.82861" lon="1.92744">
        <ele>775.3</ele>
        <time>2026-07-07T11:16:21.000Z</time>
      </trkpt>
      <trkpt lat="45.82861" lon="1.92744">
        <ele>775.3</ele>
        <time>2026-07-07T11:16:22.000Z</time>
      </trkpt>
      <trkpt lat="45.82861" lon="1.92744">
        <ele>775.3</ele>
        <time>2026-07-07T11:16:23.000Z</time>
      </trkpt>
      <trkpt lat="45.82861" lon="1.92744">
        <ele>775.3</ele>
        <time>2026-07-07T11:16:24.000Z</time>
      </trkpt>
      <trkpt lat="45.82861" lon="1.92744">
        <ele>775.3</ele>
        <time>2026-07-07T11:16:25.000Z</time>
      </trkpt>
      <trkpt lat="45.82861" lon="1.92744">
        <ele>775.3</ele>
        <time>2026-07-07T11:16:26.000Z</time>
      </trkpt>
      <trkpt lat="45.82861" lon="1.92744">
        <ele>775.3</ele>
        <time>2026-07-07T11:16:27.000Z</time>
      </trkpt>
      <trkpt lat="45.82861" lon="1.92744">
        <ele>775.3</ele>
        <time>2026-07-07T11:16:28.000Z</time>
      </trkpt>
      <trkpt lat="45.82861" lon="1.92744">
        <ele>775.3</ele>
        <time>2026-07-07T11:16:29.000Z</time>
      </trkpt>
      <trkpt lat="45.82861" lon="1.92744">
        <ele>775.3</ele>
        <time>2026-07-07T11:16:30.000Z</time>
      </trkpt>
      <trkpt lat="45.82861" lon="1.92744">
        <ele>775.3</ele>
        <time>2026-07-07T11:16:31.000Z</time>
      </trkpt>
      <trkpt lat="45.82861" lon="1.92744">
        <ele>775.3</ele>
        <time>2026-07-07T11:16:32.000Z</time>
      </trkpt>
      <trkpt lat="45.82861" lon="1.92744">
        <ele>775.3</ele>
        <time>2026-07-07T11:16:33.000Z</time>
      </trkpt>
      <trkpt lat="45.82861" lon="1.92744">
        <ele>775.3</ele>
        <time>2026-07-07T11:16:34.000Z</time>
      </trkpt>
      <trkpt lat="45.82861" lon="1.92744">
        <ele>775.3</ele>
        <time>2026-07-07T11:16:35.000Z</time>
      </trkpt>
      <trkpt lat="45.82861" lon="1.92744">
        <ele>775.3</ele>
        <time>2026-07-07T11:16:36.000Z</time>
      </trkpt>
      <trkpt lat="45.82861" lon="1.92744">
        <ele>775.3</ele>
        <time>2026-07-07T11:16:37.000Z</time>
      </trkpt>
      <trkpt lat="45.82861" lon="1.92744">
        <ele>775.3</ele>
        <time>2026-07-07T11:16:38.000Z</time>
      </trkpt>
      <trkpt lat="45.82861" lon="1.92744">
        <ele>775.3</ele>
        <time>2026-07-07T11:16:39.000Z</time>
      </trkpt>
      <trkpt lat="45.82861" lon="1.92744">
        <ele>775.3</ele>
        <time>2026-07-07T11:16:40.000Z</time>
      </trkpt>
      <trkpt lat="45.82861" lon="1.92744">
        <ele>775.3</ele>
        <time>2026-07-07T11:16:41.000Z</time>
      </trkpt>
      <trkpt lat="45.82861" lon="1.92744">
        <ele>775.3</ele>
        <time>2026-07-07T11:16:42.000Z</time>
      </trkpt>
      <trkpt lat="45.82861" lon="1.92744">
        <ele>775.3</ele>
        <time>2026-07-07T11:16:43.000Z</time>
      </trkpt>
      <trkpt lat="45.82861" lon="1.92744">
        <ele>775.3</ele>
        <time>2026-07-07T11:16:44.000Z</time>
      </trkpt>
      <trkpt lat="45.82861" lon="1.92744">
        <ele>775.3</ele>
        <time>2026-07-07T11:16:45.000Z</time>
      </trkpt>
      <trkpt lat="45.82861" lon="1.92744">
        <ele>775.3</ele>
        <time>2026-07-07T11:16:46.000Z</time>
      </trkpt>
      <trkpt lat="45.82861" lon="1.92744">
        <ele>775.3</ele>
        <time>2026-07-07T11:16:47.000Z</time>
      </trkpt>
      <trkpt lat="45.82861" lon="1.92744">
        <ele>775.3</ele>
        <time>2026-07-07T11:16:48.000Z</time>
      </trkpt>
      <trkpt lat="45.82861" lon="1.92744">
        <ele>775.3</ele>
        <time>2026-07-07T11:16:49.000Z</time>
      </trkpt>
      <trkpt lat="45.82861" lon="1.92744">
        <ele>775.3</ele>
        <time>2026-07-07T11:16:50.000Z</time>
      </trkpt>
      <trkpt lat="45.82861" lon="1.92744">
        <ele>775.3</ele>
        <time>2026-07-07T11:16:51.000Z</time>
      </trkpt>
      <trkpt lat="45.82861" lon="1.92744">
        <ele>775.3</ele>
        <time>2026-07-07T11:16:52.000Z</time>
      </trkpt>
      <trkpt lat="45.82861" lon="1.92744">
        <ele>775.3</ele>
        <time>2026-07-07T11:16:53.000Z</time>
      </trkpt>
      <trkpt lat="45.82861" lon="1.92744">
        <ele>775.3</ele>
        <time>2026-07-07T11:16:54.000Z</time>
      </trkpt>
      <trkpt lat="45.82861" lon="1.92744">
        <ele>775.3</ele>
        <time>2026-07-07T11:16:55.000Z</time>
      </trkpt>
      <trkpt lat="45.82861" lon="1.92744">
        <ele>775.3</ele>
        <time>2026-07-07T11:16:56.000Z</time>
      </trkpt>
      <trkpt lat="45.82861" lon="1.92744">
        <ele>775.3</ele>
        <time>2026-07-07T11:16:57.000Z</time>
      </trkpt>
      <trkpt lat="45.82861" lon="1.92744">
        <ele>775.3</ele>
        <time>2026-07-07T11:16:58.000Z</time>
      </trkpt>
      <trkpt lat="45.82861" lon="1.92744">
        <ele>775.3</ele>
        <time>2026-07-07T11:16:59.000Z</time>
      </trkpt>
      <trkpt lat="45.82861" lon="1.92744">
        <ele>775.3</ele>
        <time>2026-07-07T11:17:00.000Z</time>
      </trkpt>
      <trkpt lat="45.82861" lon="1.92744">
        <ele>775.3</ele>
        <time>2026-07-07T11:17:01.000Z</time>
      </trkpt>
      <trkpt lat="45.82861" lon="1.92744">
        <ele>775.3</ele>
        <time>2026-07-07T11:17:02.000Z</time>
      </trkpt>
      <trkpt lat="45.82861" lon="1.92744">
        <ele>775.3</ele>
        <time>2026-07-07T11:17:03.000Z</time>
      </trkpt>
      <trkpt lat="45.82861" lon="1.92744">
        <ele>775.3</ele>
        <time>2026-07-07T11:17:04.000Z</time>
      </trkpt>
      <trkpt lat="45.82861" lon="1.92744">
        <ele>775.3</ele>
        <time>2026-07-07T11:17:05.000Z</time>
      </trkpt>
      <trkpt lat="45.82861" lon="1.92744">
        <ele>775.3</ele>
        <time>2026-07-07T11:17:06.000Z</time>
      </trkpt>
      <trkpt lat="45.82861" lon="1.92744">
        <ele>775.3</ele>
        <time>2026-07-07T11:17:07.000Z</time>
      </trkpt>
      <trkpt lat="45.82861" lon="1.92744">
        <ele>775.3</ele>
        <time>2026-07-07T11:17:08.000Z</time>
      </trkpt>
      <trkpt lat="45.82861" lon="1.92744">
        <ele>775.3</ele>
        <time>2026-07-07T11:17:09.000Z</time>
      </trkpt>
      <trkpt lat="45.82861" lon="1.92744">
        <ele>775.3</ele>
        <time>2026-07-07T11:17:10.000Z</time>
      </trkpt>
      <trkpt lat="45.82861" lon="1.92744">
        <ele>775.3</ele>
        <time>2026-07-07T11:17:11.000Z</time>
      </trkpt>
      <trkpt lat="45.82861" lon="1.92744">
        <ele>775.3</ele>
        <time>2026-07-07T11:17:12.000Z</time>
      </trkpt>
      <trkpt lat="45.82861" lon="1.92744">
        <ele>775.3</ele>
        <time>2026-07-07T11:17:13.000Z</time>
      </trkpt>
      <trkpt lat="45.82861" lon="1.92744">
        <ele>775.3</ele>
        <time>2026-07-07T11:17:14.000Z</time>
      </trkpt>
      <trkpt lat="45.82861" lon="1.92744">
        <ele>775.3</ele>
        <time>2026-07-07T11:17:15.000Z</time>
      </trkpt>
      <trkpt lat="45.82861" lon="1.92744">
        <ele>775.3</ele>
        <time>2026-07-07T11:17:16.000Z</time>
      </trkpt>
      <trkpt lat="45.82861" lon="1.92744">
        <ele>775.3</ele>
        <time>2026-07-07T11:17:17.000Z</time>
      </trkpt>
      <trkpt lat="45.82861" lon="1.92744">
        <ele>775.3</ele>
        <time>2026-07-07T11:17:18.000Z</time>
      </trkpt>
      <trkpt lat="45.82861" lon="1.92744">
        <ele>775.3</ele>
        <time>2026-07-07T11:17:19.000Z</time>
      </trkpt>
      <trkpt lat="45.82861" lon="1.92744">
        <ele>775.3</ele>
        <time>2026-07-07T11:17:20.000Z</time>
      </trkpt>
      <trkpt lat="45.82861" lon="1.92744">
        <ele>775.4</ele>
        <time>2026-07-07T11:17:21.000Z</time>
      </trkpt>
      <trkpt lat="45.82861" lon="1.92744">
        <ele>775.4</ele>
        <time>2026-07-07T11:17:22.000Z</time>
      </trkpt>
      <trkpt lat="45.82861" lon="1.92744">
        <ele>775.4</ele>
        <time>2026-07-07T11:17:23.000Z</time>
      </trkpt>
      <trkpt lat="45.82861" lon="1.92744">
        <ele>775.4</ele>
        <time>2026-07-07T11:17:24.000Z</time>
      </trkpt>
      <trkpt lat="45.82861" lon="1.92744">
        <ele>775.4</ele>
        <time>2026-07-07T11:17:25.000Z</time>
      </trkpt>
      <trkpt lat="45.82861" lon="1.92744">
        <ele>775.4</ele>
        <time>2026-07-07T11:17:26.000Z</time>
      </trkpt>
      <trkpt lat="45.82861" lon="1.92744">
        <ele>775.4</ele>
        <time>2026-07-07T11:17:27.000Z</time>
      </trkpt>
      <trkpt lat="45.82861" lon="1.92744">
        <ele>775.4</ele>
        <time>2026-07-07T11:17:28.000Z</time>
      </trkpt>
      <trkpt lat="45.82861" lon="1.92744">
        <ele>775.4</ele>
        <time>2026-07-07T11:17:29.000Z</time>
      </trkpt>
      <trkpt lat="45.82861" lon="1.92744">
        <ele>775.4</ele>
        <time>2026-07-07T11:17:30.000Z</time>
      </trkpt>
      <trkpt lat="45.82861" lon="1.92744">
        <ele>775.4</ele>
        <time>2026-07-07T11:17:31.000Z</time>
      </trkpt>
      <trkpt lat="45.82861" lon="1.92744">
        <ele>775.4</ele>
        <time>2026-07-07T11:17:32.000Z</time>
      </trkpt>
      <trkpt lat="45.82861" lon="1.92744">
        <ele>775.4</ele>
        <time>2026-07-07T11:17:33.000Z</time>
      </trkpt>
      <trkpt lat="45.82861" lon="1.92744">
        <ele>775.4</ele>
        <time>2026-07-07T11:17:34.000Z</time>
      </trkpt>
      <trkpt lat="45.82861" lon="1.92744">
        <ele>775.4</ele>
        <time>2026-07-07T11:17:35.000Z</time>
      </trkpt>
      <trkpt lat="45.82861" lon="1.92744">
        <ele>775.4</ele>
        <time>2026-07-07T11:17:36.000Z</time>
      </trkpt>
      <trkpt lat="45.82861" lon="1.92744">
        <ele>775.4</ele>
        <time>2026-07-07T11:17:37.000Z</time>
      </trkpt>
      <trkpt lat="45.82861" lon="1.92744">
        <ele>775.4</ele>
        <time>2026-07-07T11:17:38.000Z</time>
      </trkpt>
      <trkpt lat="45.82861" lon="1.92744">
        <ele>775.4</ele>
        <time>2026-07-07T11:17:39.000Z</time>
      </trkpt>
      <trkpt lat="45.82861" lon="1.92744">
        <ele>775.4</ele>
        <time>2026-07-07T11:17:40.000Z</time>
      </trkpt>
      <trkpt lat="45.82861" lon="1.92744">
        <ele>775.4</ele>
        <time>2026-07-07T11:17:41.000Z</time>
      </trkpt>
      <trkpt lat="45.82861" lon="1.92744">
        <ele>775.4</ele>
        <time>2026-07-07T11:17:42.000Z</time>
      </trkpt>
      <trkpt lat="45.82861" lon="1.92744">
        <ele>775.4</ele>
        <time>2026-07-07T11:17:43.000Z</time>
      </trkpt>
      <trkpt lat="45.82861" lon="1.92744">
        <ele>775.4</ele>
        <time>2026-07-07T11:17:44.000Z</time>
      </trkpt>
      <trkpt lat="45.82861" lon="1.92744">
        <ele>775.4</ele>
        <time>2026-07-07T11:17:45.000Z</time>
      </trkpt>
      <trkpt lat="45.82861" lon="1.92744">
        <ele>775.4</ele>
        <time>2026-07-07T11:17:46.000Z</time>
      </trkpt>
      <trkpt lat="45.82861" lon="1.92744">
        <ele>775.4</ele>
        <time>2026-07-07T11:17:47.000Z</time>
      </trkpt>
      <trkpt lat="45.82861" lon="1.92744">
        <ele>775.4</ele>
        <time>2026-07-07T11:17:48.000Z</time>
      </trkpt>
      <trkpt lat="45.82861" lon="1.92744">
        <ele>775.4</ele>
        <time>2026-07-07T11:17:49.000Z</time>
      </trkpt>
      <trkpt lat="45.82861" lon="1.92744">
        <ele>775.4</ele>
        <time>2026-07-07T11:17:50.000Z</time>
      </trkpt>
      <trkpt lat="45.82861" lon="1.92744">
        <ele>775.4</ele>
        <time>2026-07-07T11:17:51.000Z</time>
      </trkpt>
      <trkpt lat="45.82861" lon="1.92744">
        <ele>775.4</ele>
        <time>2026-07-07T11:17:52.000Z</time>
      </trkpt>
      <trkpt lat="45.82861" lon="1.92744">
        <ele>775.4</ele>
        <time>2026-07-07T11:17:53.000Z</time>
      </trkpt>
      <trkpt lat="45.82861" lon="1.92744">
        <ele>775.4</ele>
        <time>2026-07-07T11:17:54.000Z</time>
      </trkpt>
      <trkpt lat="45.82861" lon="1.92744">
        <ele>775.4</ele>
        <time>2026-07-07T11:17:55.000Z</time>
      </trkpt>
      <trkpt lat="45.82861" lon="1.92744">
        <ele>775.4</ele>
        <time>2026-07-07T11:17:56.000Z</time>
      </trkpt>
      <trkpt lat="45.82861" lon="1.92744">
        <ele>775.4</ele>
        <time>2026-07-07T11:17:57.000Z</time>
      </trkpt>
      <trkpt lat="45.82861" lon="1.92744">
        <ele>775.4</ele>
        <time>2026-07-07T11:17:58.000Z</time>
      </trkpt>
      <trkpt lat="45.82861" lon="1.92744">
        <ele>775.4</ele>
        <time>2026-07-07T11:17:59.000Z</time>
      </trkpt>
      <trkpt lat="45.82861" lon="1.92744">
        <ele>775.4</ele>
        <time>2026-07-07T11:18:00.000Z</time>
      </trkpt>
      <trkpt lat="45.82861" lon="1.92744">
        <ele>775.4</ele>
        <time>2026-07-07T11:18:01.000Z</time>
      </trkpt>
      <trkpt lat="45.82861" lon="1.92744">
        <ele>775.4</ele>
        <time>2026-07-07T11:18:02.000Z</time>
      </trkpt>
      <trkpt lat="45.82861" lon="1.92744">
        <ele>775.4</ele>
        <time>2026-07-07T11:18:03.000Z</time>
      </trkpt>
      <trkpt lat="45.82861" lon="1.92744">
        <ele>775.4</ele>
        <time>2026-07-07T11:18:04.000Z</time>
      </trkpt>
      <trkpt lat="45.82861" lon="1.92744">
        <ele>775.4</ele>
        <time>2026-07-07T11:18:05.000Z</time>
      </trkpt>
      <trkpt lat="45.82861" lon="1.92744">
        <ele>775.4</ele>
        <time>2026-07-07T11:18:06.000Z</time>
      </trkpt>
      <trkpt lat="45.82861" lon="1.92744">
        <ele>775.4</ele>
        <time>2026-07-07T11:18:07.000Z</time>
      </trkpt>
      <trkpt lat="45.82861" lon="1.92744">
        <ele>775.4</ele>
        <time>2026-07-07T11:18:08.000Z</time>
      </trkpt>
      <trkpt lat="45.82861" lon="1.92744">
        <ele>775.4</ele>
        <time>2026-07-07T11:18:09.000Z</time>
      </trkpt>
      <trkpt lat="45.82861" lon="1.92744">
        <ele>775.4</ele>
        <time>2026-07-07T11:18:10.000Z</time>
      </trkpt>
      <trkpt lat="45.82861" lon="1.92744">
        <ele>775.4</ele>
        <time>2026-07-07T11:18:11.000Z</time>
      </trkpt>
      <trkpt lat="45.82861" lon="1.92744">
        <ele>775.4</ele>
        <time>2026-07-07T11:18:12.000Z</time>
      </trkpt>
      <trkpt lat="45.82861" lon="1.92744">
        <ele>775.4</ele>
        <time>2026-07-07T11:18:13.000Z</time>
      </trkpt>
      <trkpt lat="45.82861" lon="1.92744">
        <ele>775.4</ele>
        <time>2026-07-07T11:18:14.000Z</time>
      </trkpt>
      <trkpt lat="45.82861" lon="1.92744">
        <ele>775.4</ele>
        <time>2026-07-07T11:18:15.000Z</time>
      </trkpt>
      <trkpt lat="45.82861" lon="1.92744">
        <ele>775.4</ele>
        <time>2026-07-07T11:18:16.000Z</time>
      </trkpt>
      <trkpt lat="45.82861" lon="1.92744">
        <ele>775.4</ele>
        <time>2026-07-07T11:18:17.000Z</time>
      </trkpt>
      <trkpt lat="45.82861" lon="1.92744">
        <ele>775.4</ele>
        <time>2026-07-07T11:18:18.000Z</time>
      </trkpt>
      <trkpt lat="45.82861" lon="1.92744">
        <ele>775.4</ele>
        <time>2026-07-07T11:18:19.000Z</time>
      </trkpt>
      <trkpt lat="45.82861" lon="1.92744">
        <ele>775.4</ele>
        <time>2026-07-07T11:18:20.000Z</time>
      </trkpt>
      <trkpt lat="45.82861" lon="1.92744">
        <ele>775.4</ele>
        <time>2026-07-07T11:18:21.000Z</time>
      </trkpt>
      <trkpt lat="45.82861" lon="1.92744">
        <ele>775.4</ele>
        <time>2026-07-07T11:18:22.000Z</time>
      </trkpt>
      <trkpt lat="45.82861" lon="1.92744">
        <ele>775.4</ele>
        <time>2026-07-07T11:18:23.000Z</time>
      </trkpt>
      <trkpt lat="45.82861" lon="1.92744">
        <ele>775.4</ele>
        <time>2026-07-07T11:18:24.000Z</time>
      </trkpt>
      <trkpt lat="45.82861" lon="1.92744">
        <ele>775.4</ele>
        <time>2026-07-07T11:18:25.000Z</time>
      </trkpt>
      <trkpt lat="45.82861" lon="1.92744">
        <ele>775.4</ele>
        <time>2026-07-07T11:18:26.000Z</time>
      </trkpt>
      <trkpt lat="45.82861" lon="1.92744">
        <ele>775.4</ele>
        <time>2026-07-07T11:18:27.000Z</time>
      </trkpt>
      <trkpt lat="45.82861" lon="1.92744">
        <ele>775.4</ele>
        <time>2026-07-07T11:18:28.000Z</time>
      </trkpt>
      <trkpt lat="45.82861" lon="1.92744">
        <ele>775.4</ele>
        <time>2026-07-07T11:18:29.000Z</time>
      </trkpt>
      <trkpt lat="45.82861" lon="1.92744">
        <ele>775.4</ele>
        <time>2026-07-07T11:18:30.000Z</time>
      </trkpt>
      <trkpt lat="45.82861" lon="1.92744">
        <ele>775.4</ele>
        <time>2026-07-07T11:18:31.000Z</time>
      </trkpt>
      <trkpt lat="45.82861" lon="1.92744">
        <ele>775.4</ele>
        <time>2026-07-07T11:18:32.000Z</time>
      </trkpt>
      <trkpt lat="45.82861" lon="1.92744">
        <ele>775.4</ele>
        <time>2026-07-07T11:18:33.000Z</time>
      </trkpt>
      <trkpt lat="45.82861" lon="1.92744">
        <ele>775.4</ele>
        <time>2026-07-07T11:18:34.000Z</time>
      </trkpt>
      <trkpt lat="45.82861" lon="1.92744">
        <ele>775.4</ele>
        <time>2026-07-07T11:18:35.000Z</time>
      </trkpt>
      <trkpt lat="45.82861" lon="1.92744">
        <ele>775.4</ele>
        <time>2026-07-07T11:18:36.000Z</time>
      </trkpt>
      <trkpt lat="45.82861" lon="1.92744">
        <ele>775.4</ele>
        <time>2026-07-07T11:18:37.000Z</time>
      </trkpt>
      <trkpt lat="45.82861" lon="1.92744">
        <ele>775.4</ele>
        <time>2026-07-07T11:18:38.000Z</time>
      </trkpt>
      <trkpt lat="45.82861" lon="1.92744">
        <ele>775.4</ele>
        <time>2026-07-07T11:18:39.000Z</time>
      </trkpt>
      <trkpt lat="45.82861" lon="1.92744">
        <ele>775.4</ele>
        <time>2026-07-07T11:18:40.000Z</time>
      </trkpt>
      <trkpt lat="45.82861" lon="1.92744">
        <ele>775.4</ele>
        <time>2026-07-07T11:18:41.000Z</time>
      </trkpt>
      <trkpt lat="45.82861" lon="1.92744">
        <ele>775.4</ele>
        <time>2026-07-07T11:18:42.000Z</time>
      </trkpt>
      <trkpt lat="45.82861" lon="1.92744">
        <ele>775.4</ele>
        <time>2026-07-07T11:18:43.000Z</time>
      </trkpt>
      <trkpt lat="45.82861" lon="1.92744">
        <ele>775.4</ele>
        <time>2026-07-07T11:18:44.000Z</time>
      </trkpt>
      <trkpt lat="45.82861" lon="1.92744">
        <ele>775.4</ele>
        <time>2026-07-07T11:18:45.000Z</time>
      </trkpt>
      <trkpt lat="45.82861" lon="1.92744">
        <ele>775.4</ele>
        <time>2026-07-07T11:18:46.000Z</time>
      </trkpt>
      <trkpt lat="45.82861" lon="1.92744">
        <ele>775.4</ele>
        <time>2026-07-07T11:18:47.000Z</time>
      </trkpt>
      <trkpt lat="45.82861" lon="1.92744">
        <ele>775.4</ele>
        <time>2026-07-07T11:18:48.000Z</time>
      </trkpt>
      <trkpt lat="45.82861" lon="1.92744">
        <ele>775.4</ele>
        <time>2026-07-07T11:18:49.000Z</time>
      </trkpt>
      <trkpt lat="45.82861" lon="1.92744">
        <ele>775.4</ele>
        <time>2026-07-07T11:18:50.000Z</time>
      </trkpt>
      <trkpt lat="45.82861" lon="1.92744">
        <ele>775.4</ele>
        <time>2026-07-07T11:18:51.000Z</time>
      </trkpt>
      <trkpt lat="45.82861" lon="1.92744">
        <ele>775.4</ele>
        <time>2026-07-07T11:18:52.000Z</time>
      </trkpt>
      <trkpt lat="45.82861" lon="1.92744">
        <ele>775.4</ele>
        <time>2026-07-07T11:18:53.000Z</time>
      </trkpt>
      <trkpt lat="45.82861" lon="1.92744">
        <ele>775.4</ele>
        <time>2026-07-07T11:18:54.000Z</time>
      </trkpt>
      <trkpt lat="45.82861" lon="1.92744">
        <ele>775.4</ele>
        <time>2026-07-07T11:18:55.000Z</time>
      </trkpt>
      <trkpt lat="45.82861" lon="1.92744">
        <ele>775.4</ele>
        <time>2026-07-07T11:18:56.000Z</time>
      </trkpt>
      <trkpt lat="45.82861" lon="1.92744">
        <ele>775.4</ele>
        <time>2026-07-07T11:18:57.000Z</time>
      </trkpt>
      <trkpt lat="45.82861" lon="1.92744">
        <ele>775.4</ele>
        <time>2026-07-07T11:18:58.000Z</time>
      </trkpt>
      <trkpt lat="45.82861" lon="1.92744">
        <ele>775.4</ele>
        <time>2026-07-07T11:18:59.000Z</time>
      </trkpt>
      <trkpt lat="45.82861" lon="1.92744">
        <ele>775.4</ele>
        <time>2026-07-07T11:19:00.000Z</time>
      </trkpt>
      <trkpt lat="45.82861" lon="1.92744">
        <ele>775.4</ele>
        <time>2026-07-07T11:19:01.000Z</time>
      </trkpt>
      <trkpt lat="45.82861" lon="1.92744">
        <ele>775.4</ele>
        <time>2026-07-07T11:19:02.000Z</time>
      </trkpt>
      <trkpt lat="45.82861" lon="1.92744">
        <ele>775.4</ele>
        <time>2026-07-07T11:19:03.000Z</time>
      </trkpt>
      <trkpt lat="45.82861" lon="1.92744">
        <ele>775.4</ele>
        <time>2026-07-07T11:19:04.000Z</time>
      </trkpt>
      <trkpt lat="45.82861" lon="1.92744">
        <ele>775.4</ele>
        <time>2026-07-07T11:19:05.000Z</time>
      </trkpt>
      <trkpt lat="45.82861" lon="1.92744">
        <ele>775.4</ele>
        <time>2026-07-07T11:19:06.000Z</time>
      </trkpt>
      <trkpt lat="45.82861" lon="1.92744">
        <ele>775.4</ele>
        <time>2026-07-07T11:19:07.000Z</time>
      </trkpt>
      <trkpt lat="45.82861" lon="1.92744">
        <ele>775.4</ele>
        <time>2026-07-07T11:19:08.000Z</time>
      </trkpt>
      <trkpt lat="45.82861" lon="1.92744">
        <ele>775.4</ele>
        <time>2026-07-07T11:19:09.000Z</time>
      </trkpt>
      <trkpt lat="45.82861" lon="1.92744">
        <ele>775.4</ele>
        <time>2026-07-07T11:19:10.000Z</time>
      </trkpt>
      <trkpt lat="45.82861" lon="1.92744">
        <ele>775.4</ele>
        <time>2026-07-07T11:19:11.000Z</time>
      </trkpt>
      <trkpt lat="45.82861" lon="1.92744">
        <ele>775.4</ele>
        <time>2026-07-07T11:19:12.000Z</time>
      </trkpt>
      <trkpt lat="45.82861" lon="1.92744">
        <ele>775.4</ele>
        <time>2026-07-07T11:19:13.000Z</time>
      </trkpt>
      <trkpt lat="45.8286" lon="1.92744">
        <ele>775.4</ele>
        <time>2026-07-07T11:19:14.000Z</time>
      </trkpt>
      <trkpt lat="45.8286" lon="1.92744">
        <ele>775.4</ele>
        <time>2026-07-07T11:19:15.000Z</time>
      </trkpt>
      <trkpt lat="45.8286" lon="1.92744">
        <ele>775.4</ele>
        <time>2026-07-07T11:19:16.000Z</time>
      </trkpt>
      <trkpt lat="45.8286" lon="1.92744">
        <ele>775.4</ele>
        <time>2026-07-07T11:19:17.000Z</time>
      </trkpt>
      <trkpt lat="45.8286" lon="1.92744">
        <ele>775.4</ele>
        <time>2026-07-07T11:19:18.000Z</time>
      </trkpt>
      <trkpt lat="45.8286" lon="1.92744">
        <ele>775.4</ele>
        <time>2026-07-07T11:19:19.000Z</time>
      </trkpt>
      <trkpt lat="45.8286" lon="1.92744">
        <ele>775.4</ele>
        <time>2026-07-07T11:19:20.000Z</time>
      </trkpt>
      <trkpt lat="45.8286" lon="1.92744">
        <ele>775.4</ele>
        <time>2026-07-07T11:19:21.000Z</time>
      </trkpt>
      <trkpt lat="45.8286" lon="1.92744">
        <ele>775.4</ele>
        <time>2026-07-07T11:19:22.000Z</time>
      </trkpt>
      <trkpt lat="45.8286" lon="1.92744">
        <ele>775.4</ele>
        <time>2026-07-07T11:19:23.000Z</time>
      </trkpt>
      <trkpt lat="45.8286" lon="1.92744">
        <ele>775.4</ele>
        <time>2026-07-07T11:19:24.000Z</time>
      </trkpt>
      <trkpt lat="45.8286" lon="1.92744">
        <ele>775.4</ele>
        <time>2026-07-07T11:19:25.000Z</time>
      </trkpt>
      <trkpt lat="45.8286" lon="1.92744">
        <ele>775.4</ele>
        <time>2026-07-07T11:19:26.000Z</time>
      </trkpt>
      <trkpt lat="45.8286" lon="1.92744">
        <ele>775.5</ele>
        <time>2026-07-07T11:19:27.000Z</time>
      </trkpt>
      <trkpt lat="45.8286" lon="1.92744">
        <ele>775.5</ele>
        <time>2026-07-07T11:19:28.000Z</time>
      </trkpt>
      <trkpt lat="45.8286" lon="1.92744">
        <ele>775.5</ele>
        <time>2026-07-07T11:19:29.000Z</time>
      </trkpt>
      <trkpt lat="45.8286" lon="1.92744">
        <ele>775.5</ele>
        <time>2026-07-07T11:19:30.000Z</time>
      </trkpt>
      <trkpt lat="45.8286" lon="1.92744">
        <ele>775.5</ele>
        <time>2026-07-07T11:19:31.000Z</time>
      </trkpt>
      <trkpt lat="45.8286" lon="1.92744">
        <ele>775.5</ele>
        <time>2026-07-07T11:19:32.000Z</time>
      </trkpt>
      <trkpt lat="45.8286" lon="1.92744">
        <ele>775.5</ele>
        <time>2026-07-07T11:19:33.000Z</time>
      </trkpt>
      <trkpt lat="45.8286" lon="1.92744">
        <ele>775.5</ele>
        <time>2026-07-07T11:19:34.000Z</time>
      </trkpt>
      <trkpt lat="45.8286" lon="1.92744">
        <ele>775.5</ele>
        <time>2026-07-07T11:19:35.000Z</time>
      </trkpt>
      <trkpt lat="45.8286" lon="1.92744">
        <ele>775.5</ele>
        <time>2026-07-07T11:19:36.000Z</time>
      </trkpt>
      <trkpt lat="45.8286" lon="1.92744">
        <ele>775.5</ele>
        <time>2026-07-07T11:19:37.000Z</time>
      </trkpt>
      <trkpt lat="45.8286" lon="1.92744">
        <ele>775.5</ele>
        <time>2026-07-07T11:19:38.000Z</time>
      </trkpt>
      <trkpt lat="45.8286" lon="1.92744">
        <ele>775.5</ele>
        <time>2026-07-07T11:19:39.000Z</time>
      </trkpt>
      <trkpt lat="45.8286" lon="1.92744">
        <ele>775.5</ele>
        <time>2026-07-07T11:19:40.000Z</time>
      </trkpt>
      <trkpt lat="45.8286" lon="1.92744">
        <ele>775.5</ele>
        <time>2026-07-07T11:19:41.000Z</time>
      </trkpt>
      <trkpt lat="45.8286" lon="1.92744">
        <ele>775.5</ele>
        <time>2026-07-07T11:19:42.000Z</time>
      </trkpt>
      <trkpt lat="45.8286" lon="1.92744">
        <ele>775.5</ele>
        <time>2026-07-07T11:19:43.000Z</time>
      </trkpt>
      <trkpt lat="45.8286" lon="1.92744">
        <ele>775.5</ele>
        <time>2026-07-07T11:19:44.000Z</time>
      </trkpt>
      <trkpt lat="45.8286" lon="1.92744">
        <ele>775.5</ele>
        <time>2026-07-07T11:19:45.000Z</time>
      </trkpt>
      <trkpt lat="45.8286" lon="1.92744">
        <ele>775.5</ele>
        <time>2026-07-07T11:19:46.000Z</time>
      </trkpt>
      <trkpt lat="45.8286" lon="1.92744">
        <ele>775.5</ele>
        <time>2026-07-07T11:19:47.000Z</time>
      </trkpt>
      <trkpt lat="45.8286" lon="1.92744">
        <ele>775.5</ele>
        <time>2026-07-07T11:19:48.000Z</time>
      </trkpt>
      <trkpt lat="45.8286" lon="1.92744">
        <ele>775.5</ele>
        <time>2026-07-07T11:19:49.000Z</time>
      </trkpt>
      <trkpt lat="45.8286" lon="1.92744">
        <ele>775.5</ele>
        <time>2026-07-07T11:19:50.000Z</time>
      </trkpt>
      <trkpt lat="45.8286" lon="1.92744">
        <ele>775.5</ele>
        <time>2026-07-07T11:19:51.000Z</time>
      </trkpt>
      <trkpt lat="45.8286" lon="1.92744">
        <ele>775.5</ele>
        <time>2026-07-07T11:19:52.000Z</time>
      </trkpt>
      <trkpt lat="45.8286" lon="1.92744">
        <ele>775.5</ele>
        <time>2026-07-07T11:19:53.000Z</time>
      </trkpt>
      <trkpt lat="45.8286" lon="1.92744">
        <ele>775.5</ele>
        <time>2026-07-07T11:19:54.000Z</time>
      </trkpt>
      <trkpt lat="45.8286" lon="1.92744">
        <ele>775.5</ele>
        <time>2026-07-07T11:19:55.000Z</time>
      </trkpt>
      <trkpt lat="45.8286" lon="1.92744">
        <ele>775.5</ele>
        <time>2026-07-07T11:19:56.000Z</time>
      </trkpt>
      <trkpt lat="45.8286" lon="1.92744">
        <ele>775.5</ele>
        <time>2026-07-07T11:19:57.000Z</time>
      </trkpt>
      <trkpt lat="45.8286" lon="1.92744">
        <ele>775.5</ele>
        <time>2026-07-07T11:19:58.000Z</time>
      </trkpt>
      <trkpt lat="45.8286" lon="1.92744">
        <ele>775.5</ele>
        <time>2026-07-07T11:19:59.000Z</time>
      </trkpt>
      <trkpt lat="45.8286" lon="1.92744">
        <ele>775.5</ele>
        <time>2026-07-07T11:20:00.000Z</time>
      </trkpt>
      <trkpt lat="45.8286" lon="1.92744">
        <ele>775.5</ele>
        <time>2026-07-07T11:20:01.000Z</time>
      </trkpt>
      <trkpt lat="45.8286" lon="1.92744">
        <ele>775.5</ele>
        <time>2026-07-07T11:20:02.000Z</time>
      </trkpt>
      <trkpt lat="45.8286" lon="1.92744">
        <ele>775.5</ele>
        <time>2026-07-07T11:20:03.000Z</time>
      </trkpt>
      <trkpt lat="45.8286" lon="1.92744">
        <ele>775.5</ele>
        <time>2026-07-07T11:20:04.000Z</time>
      </trkpt>
      <trkpt lat="45.8286" lon="1.92744">
        <ele>775.5</ele>
        <time>2026-07-07T11:20:05.000Z</time>
      </trkpt>
      <trkpt lat="45.8286" lon="1.92744">
        <ele>775.5</ele>
        <time>2026-07-07T11:20:06.000Z</time>
      </trkpt>
      <trkpt lat="45.8286" lon="1.92744">
        <ele>775.5</ele>
        <time>2026-07-07T11:20:07.000Z</time>
      </trkpt>
      <trkpt lat="45.8286" lon="1.92744">
        <ele>775.5</ele>
        <time>2026-07-07T11:20:08.000Z</time>
      </trkpt>
      <trkpt lat="45.8286" lon="1.92744">
        <ele>775.5</ele>
        <time>2026-07-07T11:20:09.000Z</time>
      </trkpt>
      <trkpt lat="45.8286" lon="1.92744">
        <ele>775.5</ele>
        <time>2026-07-07T11:20:10.000Z</time>
      </trkpt>
      <trkpt lat="45.8286" lon="1.92744">
        <ele>775.5</ele>
        <time>2026-07-07T11:20:11.000Z</time>
      </trkpt>
      <trkpt lat="45.8286" lon="1.92744">
        <ele>775.5</ele>
        <time>2026-07-07T11:20:12.000Z</time>
      </trkpt>
      <trkpt lat="45.8286" lon="1.92744">
        <ele>775.5</ele>
        <time>2026-07-07T11:20:13.000Z</time>
      </trkpt>
      <trkpt lat="45.8286" lon="1.92744">
        <ele>775.5</ele>
        <time>2026-07-07T11:20:14.000Z</time>
      </trkpt>
      <trkpt lat="45.8286" lon="1.92744">
        <ele>775.5</ele>
        <time>2026-07-07T11:20:15.000Z</time>
      </trkpt>
      <trkpt lat="45.8286" lon="1.92744">
        <ele>775.5</ele>
        <time>2026-07-07T11:20:16.000Z</time>
      </trkpt>
      <trkpt lat="45.8286" lon="1.92744">
        <ele>775.5</ele>
        <time>2026-07-07T11:20:17.000Z</time>
      </trkpt>
      <trkpt lat="45.8286" lon="1.92744">
        <ele>775.5</ele>
        <time>2026-07-07T11:20:18.000Z</time>
      </trkpt>
      <trkpt lat="45.8286" lon="1.92744">
        <ele>775.5</ele>
        <time>2026-07-07T11:20:19.000Z</time>
      </trkpt>
      <trkpt lat="45.8286" lon="1.92744">
        <ele>775.5</ele>
        <time>2026-07-07T11:20:20.000Z</time>
      </trkpt>
      <trkpt lat="45.8286" lon="1.92744">
        <ele>775.5</ele>
        <time>2026-07-07T11:20:21.000Z</time>
      </trkpt>
      <trkpt lat="45.8286" lon="1.92744">
        <ele>775.5</ele>
        <time>2026-07-07T11:20:22.000Z</time>
      </trkpt>
      <trkpt lat="45.8286" lon="1.92744">
        <ele>775.5</ele>
        <time>2026-07-07T11:20:23.000Z</time>
      </trkpt>
      <trkpt lat="45.8286" lon="1.92744">
        <ele>775.5</ele>
        <time>2026-07-07T11:20:24.000Z</time>
      </trkpt>
      <trkpt lat="45.8286" lon="1.92744">
        <ele>775.5</ele>
        <time>2026-07-07T11:20:25.000Z</time>
      </trkpt>
      <trkpt lat="45.8286" lon="1.92744">
        <ele>775.5</ele>
        <time>2026-07-07T11:20:26.000Z</time>
      </trkpt>
      <trkpt lat="45.8286" lon="1.92744">
        <ele>775.5</ele>
        <time>2026-07-07T11:20:27.000Z</time>
      </trkpt>
      <trkpt lat="45.8286" lon="1.92744">
        <ele>775.5</ele>
        <time>2026-07-07T11:20:28.000Z</time>
      </trkpt>
      <trkpt lat="45.8286" lon="1.92744">
        <ele>775.5</ele>
        <time>2026-07-07T11:20:29.000Z</time>
      </trkpt>
      <trkpt lat="45.8286" lon="1.92744">
        <ele>775.5</ele>
        <time>2026-07-07T11:20:30.000Z</time>
      </trkpt>
      <trkpt lat="45.8286" lon="1.92744">
        <ele>775.5</ele>
        <time>2026-07-07T11:20:31.000Z</time>
      </trkpt>
      <trkpt lat="45.8286" lon="1.92744">
        <ele>775.5</ele>
        <time>2026-07-07T11:20:32.000Z</time>
      </trkpt>
      <trkpt lat="45.8286" lon="1.92744">
        <ele>775.5</ele>
        <time>2026-07-07T11:20:33.000Z</time>
      </trkpt>
      <trkpt lat="45.8286" lon="1.92744">
        <ele>775.5</ele>
        <time>2026-07-07T11:20:34.000Z</time>
      </trkpt>
      <trkpt lat="45.8286" lon="1.92744">
        <ele>775.5</ele>
        <time>2026-07-07T11:20:35.000Z</time>
      </trkpt>
      <trkpt lat="45.8286" lon="1.92744">
        <ele>775.8</ele>
        <time>2026-07-07T11:20:36.000Z</time>
      </trkpt>
      <trkpt lat="45.8286" lon="1.92744">
        <ele>776</ele>
        <time>2026-07-07T11:20:37.000Z</time>
      </trkpt>
      <trkpt lat="45.8286" lon="1.92743">
        <ele>775.6</ele>
        <time>2026-07-07T11:20:38.000Z</time>
      </trkpt>
      <trkpt lat="45.82859" lon="1.92743">
        <ele>775.8</ele>
        <time>2026-07-07T11:20:39.000Z</time>
      </trkpt>
      <trkpt lat="45.82859" lon="1.92742">
        <ele>775.8</ele>
        <time>2026-07-07T11:20:40.000Z</time>
      </trkpt>
      <trkpt lat="45.82859" lon="1.92742">
        <ele>775.9</ele>
        <time>2026-07-07T11:20:41.000Z</time>
      </trkpt>
      <trkpt lat="45.82858" lon="1.92743">
        <ele>775.9</ele>
        <time>2026-07-07T11:20:42.000Z</time>
      </trkpt>
      <trkpt lat="45.82857" lon="1.92744">
        <ele>775.7</ele>
        <time>2026-07-07T11:20:43.000Z</time>
      </trkpt>
      <trkpt lat="45.82857" lon="1.92745">
        <ele>776.5</ele>
        <time>2026-07-07T11:20:44.000Z</time>
      </trkpt>
      <trkpt lat="45.82858" lon="1.92745">
        <ele>777.1</ele>
        <time>2026-07-07T11:20:45.000Z</time>
      </trkpt>
      <trkpt lat="45.82859" lon="1.92745">
        <ele>777.6</ele>
        <time>2026-07-07T11:20:46.000Z</time>
      </trkpt>
      <trkpt lat="45.82859" lon="1.92745">
        <ele>777.6</ele>
        <time>2026-07-07T11:20:47.000Z</time>
      </trkpt>
      <trkpt lat="45.82859" lon="1.92745">
        <ele>777.6</ele>
        <time>2026-07-07T11:20:48.000Z</time>
      </trkpt>
      <trkpt lat="45.82859" lon="1.92745">
        <ele>777.6</ele>
        <time>2026-07-07T11:20:49.000Z</time>
      </trkpt>
      <trkpt lat="45.82859" lon="1.92745">
        <ele>777.6</ele>
        <time>2026-07-07T11:20:50.000Z</time>
      </trkpt>
      <trkpt lat="45.82859" lon="1.92745">
        <ele>777.6</ele>
        <time>2026-07-07T11:20:51.000Z</time>
      </trkpt>
      <trkpt lat="45.82859" lon="1.92745">
        <ele>777.6</ele>
        <time>2026-07-07T11:20:52.000Z</time>
      </trkpt>
      <trkpt lat="45.82859" lon="1.92745">
        <ele>777.7</ele>
        <time>2026-07-07T11:20:53.000Z</time>
      </trkpt>
      <trkpt lat="45.8286" lon="1.92746">
        <ele>778.3</ele>
        <time>2026-07-07T11:20:54.000Z</time>
      </trkpt>
      <trkpt lat="45.82861" lon="1.92746">
        <ele>779</ele>
        <time>2026-07-07T11:20:55.000Z</time>
      </trkpt>
      <trkpt lat="45.82861" lon="1.92746">
        <ele>778.7</ele>
        <time>2026-07-07T11:20:56.000Z</time>
      </trkpt>
      <trkpt lat="45.82862" lon="1.92746">
        <ele>779.2</ele>
        <time>2026-07-07T11:20:57.000Z</time>
      </trkpt>
      <trkpt lat="45.82863" lon="1.92745">
        <ele>779.4</ele>
        <time>2026-07-07T11:20:58.000Z</time>
      </trkpt>
      <trkpt lat="45.82864" lon="1.92745">
        <ele>778.9</ele>
        <time>2026-07-07T11:20:59.000Z</time>
      </trkpt>
      <trkpt lat="45.82864" lon="1.92746">
        <ele>779</ele>
        <time>2026-07-07T11:21:00.000Z</time>
      </trkpt>
      <trkpt lat="45.82865" lon="1.92746">
        <ele>778.9</ele>
        <time>2026-07-07T11:21:01.000Z</time>
      </trkpt>
      <trkpt lat="45.82865" lon="1.92746">
        <ele>778.6</ele>
        <time>2026-07-07T11:21:02.000Z</time>
      </trkpt>
      <trkpt lat="45.82865" lon="1.92747">
        <ele>778.5</ele>
        <time>2026-07-07T11:21:03.000Z</time>
      </trkpt>
      <trkpt lat="45.82865" lon="1.92747">
        <ele>778.1</ele>
        <time>2026-07-07T11:21:04.000Z</time>
      </trkpt>
      <trkpt lat="45.82864" lon="1.92748">
        <ele>778.3</ele>
        <time>2026-07-07T11:21:05.000Z</time>
      </trkpt>
      <trkpt lat="45.82864" lon="1.92748">
        <ele>778.3</ele>
        <time>2026-07-07T11:21:06.000Z</time>
      </trkpt>
      <trkpt lat="45.82864" lon="1.92748">
        <ele>778.3</ele>
        <time>2026-07-07T11:21:07.000Z</time>
      </trkpt>
      <trkpt lat="45.82864" lon="1.92748">
        <ele>778.3</ele>
        <time>2026-07-07T11:21:08.000Z</time>
      </trkpt>
      <trkpt lat="45.82864" lon="1.92748">
        <ele>778.3</ele>
        <time>2026-07-07T11:21:09.000Z</time>
      </trkpt>
      <trkpt lat="45.82864" lon="1.92748">
        <ele>778.3</ele>
        <time>2026-07-07T11:21:10.000Z</time>
      </trkpt>
      <trkpt lat="45.82864" lon="1.92748">
        <ele>778.3</ele>
        <time>2026-07-07T11:21:11.000Z</time>
      </trkpt>
      <trkpt lat="45.82864" lon="1.92748">
        <ele>778.3</ele>
        <time>2026-07-07T11:21:12.000Z</time>
      </trkpt>
      <trkpt lat="45.82864" lon="1.92748">
        <ele>778.3</ele>
        <time>2026-07-07T11:21:13.000Z</time>
      </trkpt>
      <trkpt lat="45.82864" lon="1.92748">
        <ele>778.3</ele>
        <time>2026-07-07T11:21:14.000Z</time>
      </trkpt>
      <trkpt lat="45.82864" lon="1.92748">
        <ele>778.3</ele>
        <time>2026-07-07T11:21:15.000Z</time>
      </trkpt>
      <trkpt lat="45.82864" lon="1.92748">
        <ele>778.3</ele>
        <time>2026-07-07T11:21:16.000Z</time>
      </trkpt>
      <trkpt lat="45.82864" lon="1.92748">
        <ele>778.3</ele>
        <time>2026-07-07T11:21:17.000Z</time>
      </trkpt>
      <trkpt lat="45.82864" lon="1.92748">
        <ele>778.3</ele>
        <time>2026-07-07T11:21:18.000Z</time>
      </trkpt>
      <trkpt lat="45.82864" lon="1.92748">
        <ele>778.3</ele>
        <time>2026-07-07T11:21:19.000Z</time>
      </trkpt>
      <trkpt lat="45.82864" lon="1.92748">
        <ele>778.3</ele>
        <time>2026-07-07T11:21:20.000Z</time>
      </trkpt>
      <trkpt lat="45.82864" lon="1.92748">
        <ele>778.3</ele>
        <time>2026-07-07T11:21:21.000Z</time>
      </trkpt>
      <trkpt lat="45.82864" lon="1.92748">
        <ele>778.3</ele>
        <time>2026-07-07T11:21:22.000Z</time>
      </trkpt>
      <trkpt lat="45.82864" lon="1.92748">
        <ele>778.3</ele>
        <time>2026-07-07T11:21:23.000Z</time>
      </trkpt>
      <trkpt lat="45.82864" lon="1.92748">
        <ele>778.3</ele>
        <time>2026-07-07T11:21:24.000Z</time>
      </trkpt>
      <trkpt lat="45.82864" lon="1.92748">
        <ele>778.3</ele>
        <time>2026-07-07T11:21:25.000Z</time>
      </trkpt>
      <trkpt lat="45.82864" lon="1.92748">
        <ele>778.2</ele>
        <time>2026-07-07T11:21:26.000Z</time>
      </trkpt>
      <trkpt lat="45.82864" lon="1.92748">
        <ele>778.2</ele>
        <time>2026-07-07T11:21:27.000Z</time>
      </trkpt>
      <trkpt lat="45.82864" lon="1.92748">
        <ele>778.2</ele>
        <time>2026-07-07T11:21:28.000Z</time>
      </trkpt>
      <trkpt lat="45.82864" lon="1.92748">
        <ele>778.2</ele>
        <time>2026-07-07T11:21:29.000Z</time>
      </trkpt>
      <trkpt lat="45.82864" lon="1.92748">
        <ele>778.2</ele>
        <time>2026-07-07T11:21:30.000Z</time>
      </trkpt>
      <trkpt lat="45.82864" lon="1.92748">
        <ele>778.2</ele>
        <time>2026-07-07T11:21:31.000Z</time>
      </trkpt>
      <trkpt lat="45.82864" lon="1.92748">
        <ele>778.2</ele>
        <time>2026-07-07T11:21:32.000Z</time>
      </trkpt>
      <trkpt lat="45.82864" lon="1.92748">
        <ele>778.2</ele>
        <time>2026-07-07T11:21:33.000Z</time>
      </trkpt>
      <trkpt lat="45.82864" lon="1.92748">
        <ele>778.2</ele>
        <time>2026-07-07T11:21:34.000Z</time>
      </trkpt>
      <trkpt lat="45.82864" lon="1.92748">
        <ele>778.2</ele>
        <time>2026-07-07T11:21:35.000Z</time>
      </trkpt>
      <trkpt lat="45.82864" lon="1.92748">
        <ele>778.2</ele>
        <time>2026-07-07T11:21:36.000Z</time>
      </trkpt>
      <trkpt lat="45.82864" lon="1.92748">
        <ele>778.2</ele>
        <time>2026-07-07T11:21:37.000Z</time>
      </trkpt>
      <trkpt lat="45.82864" lon="1.92748">
        <ele>778.2</ele>
        <time>2026-07-07T11:21:38.000Z</time>
      </trkpt>
      <trkpt lat="45.82864" lon="1.92748">
        <ele>778.2</ele>
        <time>2026-07-07T11:21:39.000Z</time>
      </trkpt>
      <trkpt lat="45.82864" lon="1.92748">
        <ele>778.2</ele>
        <time>2026-07-07T11:21:40.000Z</time>
      </trkpt>
      <trkpt lat="45.82864" lon="1.92748">
        <ele>778.2</ele>
        <time>2026-07-07T11:21:41.000Z</time>
      </trkpt>
      <trkpt lat="45.82864" lon="1.92748">
        <ele>778.2</ele>
        <time>2026-07-07T11:21:42.000Z</time>
      </trkpt>
      <trkpt lat="45.82864" lon="1.92748">
        <ele>778.2</ele>
        <time>2026-07-07T11:21:43.000Z</time>
      </trkpt>
      <trkpt lat="45.82864" lon="1.92748">
        <ele>778.2</ele>
        <time>2026-07-07T11:21:44.000Z</time>
      </trkpt>
      <trkpt lat="45.82864" lon="1.92748">
        <ele>778.2</ele>
        <time>2026-07-07T11:21:45.000Z</time>
      </trkpt>
      <trkpt lat="45.82864" lon="1.92748">
        <ele>778.2</ele>
        <time>2026-07-07T11:21:46.000Z</time>
      </trkpt>
      <trkpt lat="45.82864" lon="1.92748">
        <ele>778.2</ele>
        <time>2026-07-07T11:21:47.000Z</time>
      </trkpt>
      <trkpt lat="45.82864" lon="1.92748">
        <ele>778.2</ele>
        <time>2026-07-07T11:21:48.000Z</time>
      </trkpt>
      <trkpt lat="45.82864" lon="1.92748">
        <ele>778.2</ele>
        <time>2026-07-07T11:21:49.000Z</time>
      </trkpt>
      <trkpt lat="45.82864" lon="1.92748">
        <ele>778.2</ele>
        <time>2026-07-07T11:21:50.000Z</time>
      </trkpt>
      <trkpt lat="45.82864" lon="1.92748">
        <ele>778.2</ele>
        <time>2026-07-07T11:21:51.000Z</time>
      </trkpt>
      <trkpt lat="45.82864" lon="1.92748">
        <ele>778.2</ele>
        <time>2026-07-07T11:21:52.000Z</time>
      </trkpt>
      <trkpt lat="45.82864" lon="1.92748">
        <ele>778.2</ele>
        <time>2026-07-07T11:21:53.000Z</time>
      </trkpt>
      <trkpt lat="45.82864" lon="1.92748">
        <ele>778.1</ele>
        <time>2026-07-07T11:21:54.000Z</time>
      </trkpt>
      <trkpt lat="45.82864" lon="1.92748">
        <ele>778.1</ele>
        <time>2026-07-07T11:21:55.000Z</time>
      </trkpt>
      <trkpt lat="45.82864" lon="1.92748">
        <ele>778.1</ele>
        <time>2026-07-07T11:21:56.000Z</time>
      </trkpt>
      <trkpt lat="45.82864" lon="1.92748">
        <ele>778.2</ele>
        <time>2026-07-07T11:21:57.000Z</time>
      </trkpt>
      <trkpt lat="45.82864" lon="1.92748">
        <ele>778.2</ele>
        <time>2026-07-07T11:21:58.000Z</time>
      </trkpt>
      <trkpt lat="45.82864" lon="1.92748">
        <ele>778.2</ele>
        <time>2026-07-07T11:21:59.000Z</time>
      </trkpt>
      <trkpt lat="45.82864" lon="1.92748">
        <ele>778.2</ele>
        <time>2026-07-07T11:22:00.000Z</time>
      </trkpt>
      <trkpt lat="45.82864" lon="1.92748">
        <ele>778.2</ele>
        <time>2026-07-07T11:22:01.000Z</time>
      </trkpt>
      <trkpt lat="45.82864" lon="1.92748">
        <ele>778.2</ele>
        <time>2026-07-07T11:22:02.000Z</time>
      </trkpt>
      <trkpt lat="45.82864" lon="1.92748">
        <ele>778.2</ele>
        <time>2026-07-07T11:22:03.000Z</time>
      </trkpt>
      <trkpt lat="45.82864" lon="1.92748">
        <ele>778.2</ele>
        <time>2026-07-07T11:22:04.000Z</time>
      </trkpt>
      <trkpt lat="45.82864" lon="1.92748">
        <ele>778.1</ele>
        <time>2026-07-07T11:22:05.000Z</time>
      </trkpt>
      <trkpt lat="45.82864" lon="1.92748">
        <ele>778.1</ele>
        <time>2026-07-07T11:22:06.000Z</time>
      </trkpt>
      <trkpt lat="45.82864" lon="1.92748">
        <ele>778.1</ele>
        <time>2026-07-07T11:22:07.000Z</time>
      </trkpt>
      <trkpt lat="45.82864" lon="1.92748">
        <ele>778.1</ele>
        <time>2026-07-07T11:22:08.000Z</time>
      </trkpt>
      <trkpt lat="45.82864" lon="1.92748">
        <ele>778.1</ele>
        <time>2026-07-07T11:22:09.000Z</time>
      </trkpt>
      <trkpt lat="45.82864" lon="1.92748">
        <ele>778.1</ele>
        <time>2026-07-07T11:22:10.000Z</time>
      </trkpt>
      <trkpt lat="45.82864" lon="1.92748">
        <ele>778.1</ele>
        <time>2026-07-07T11:22:11.000Z</time>
      </trkpt>
      <trkpt lat="45.82864" lon="1.92748">
        <ele>778.1</ele>
        <time>2026-07-07T11:22:12.000Z</time>
      </trkpt>
      <trkpt lat="45.82864" lon="1.92748">
        <ele>778.1</ele>
        <time>2026-07-07T11:22:13.000Z</time>
      </trkpt>
      <trkpt lat="45.82864" lon="1.92748">
        <ele>778.1</ele>
        <time>2026-07-07T11:22:14.000Z</time>
      </trkpt>
      <trkpt lat="45.82864" lon="1.92748">
        <ele>778.1</ele>
        <time>2026-07-07T11:22:15.000Z</time>
      </trkpt>
      <trkpt lat="45.82864" lon="1.92748">
        <ele>778.1</ele>
        <time>2026-07-07T11:22:16.000Z</time>
      </trkpt>
      <trkpt lat="45.82864" lon="1.92748">
        <ele>778.1</ele>
        <time>2026-07-07T11:22:17.000Z</time>
      </trkpt>
      <trkpt lat="45.82864" lon="1.92748">
        <ele>778.1</ele>
        <time>2026-07-07T11:22:18.000Z</time>
      </trkpt>
      <trkpt lat="45.82864" lon="1.92748">
        <ele>778.2</ele>
        <time>2026-07-07T11:22:19.000Z</time>
      </trkpt>
      <trkpt lat="45.82864" lon="1.92748">
        <ele>778.2</ele>
        <time>2026-07-07T11:22:20.000Z</time>
      </trkpt>
      <trkpt lat="45.82864" lon="1.92748">
        <ele>778.2</ele>
        <time>2026-07-07T11:22:21.000Z</time>
      </trkpt>
      <trkpt lat="45.82864" lon="1.92748">
        <ele>778.2</ele>
        <time>2026-07-07T11:22:22.000Z</time>
      </trkpt>
      <trkpt lat="45.82864" lon="1.92748">
        <ele>778.2</ele>
        <time>2026-07-07T11:22:23.000Z</time>
      </trkpt>
      <trkpt lat="45.82864" lon="1.92748">
        <ele>778.2</ele>
        <time>2026-07-07T11:22:24.000Z</time>
      </trkpt>
      <trkpt lat="45.82864" lon="1.92748">
        <ele>778.1</ele>
        <time>2026-07-07T11:22:25.000Z</time>
      </trkpt>
      <trkpt lat="45.82864" lon="1.92748">
        <ele>778.1</ele>
        <time>2026-07-07T11:22:26.000Z</time>
      </trkpt>
      <trkpt lat="45.82864" lon="1.92748">
        <ele>778.1</ele>
        <time>2026-07-07T11:22:27.000Z</time>
      </trkpt>
      <trkpt lat="45.82864" lon="1.92748">
        <ele>778.1</ele>
        <time>2026-07-07T11:22:28.000Z</time>
      </trkpt>
      <trkpt lat="45.82864" lon="1.92748">
        <ele>778.1</ele>
        <time>2026-07-07T11:22:29.000Z</time>
      </trkpt>
      <trkpt lat="45.82864" lon="1.92748">
        <ele>778.1</ele>
        <time>2026-07-07T11:22:30.000Z</time>
      </trkpt>
      <trkpt lat="45.82864" lon="1.92748">
        <ele>778.1</ele>
        <time>2026-07-07T11:22:31.000Z</time>
      </trkpt>
      <trkpt lat="45.82864" lon="1.92748">
        <ele>778.1</ele>
        <time>2026-07-07T11:22:32.000Z</time>
      </trkpt>
      <trkpt lat="45.82864" lon="1.92748">
        <ele>778.1</ele>
        <time>2026-07-07T11:22:33.000Z</time>
      </trkpt>
      <trkpt lat="45.82864" lon="1.92748">
        <ele>778.1</ele>
        <time>2026-07-07T11:22:34.000Z</time>
      </trkpt>
      <trkpt lat="45.82864" lon="1.92748">
        <ele>778.1</ele>
        <time>2026-07-07T11:22:35.000Z</time>
      </trkpt>
      <trkpt lat="45.82864" lon="1.92748">
        <ele>778.1</ele>
        <time>2026-07-07T11:22:36.000Z</time>
      </trkpt>
      <trkpt lat="45.82864" lon="1.92748">
        <ele>778.1</ele>
        <time>2026-07-07T11:22:37.000Z</time>
      </trkpt>
      <trkpt lat="45.82864" lon="1.92748">
        <ele>778.1</ele>
        <time>2026-07-07T11:22:38.000Z</time>
      </trkpt>
      <trkpt lat="45.82864" lon="1.92748">
        <ele>778.1</ele>
        <time>2026-07-07T11:22:39.000Z</time>
      </trkpt>
      <trkpt lat="45.82864" lon="1.92748">
        <ele>778.1</ele>
        <time>2026-07-07T11:22:40.000Z</time>
      </trkpt>
      <trkpt lat="45.82864" lon="1.92748">
        <ele>778.1</ele>
        <time>2026-07-07T11:22:41.000Z</time>
      </trkpt>
      <trkpt lat="45.82864" lon="1.92748">
        <ele>778.1</ele>
        <time>2026-07-07T11:22:42.000Z</time>
      </trkpt>
      <trkpt lat="45.82864" lon="1.92748">
        <ele>778.1</ele>
        <time>2026-07-07T11:22:43.000Z</time>
      </trkpt>
      <trkpt lat="45.82864" lon="1.92748">
        <ele>778.1</ele>
        <time>2026-07-07T11:22:44.000Z</time>
      </trkpt>
      <trkpt lat="45.82864" lon="1.92748">
        <ele>778.1</ele>
        <time>2026-07-07T11:22:45.000Z</time>
      </trkpt>
      <trkpt lat="45.82864" lon="1.92748">
        <ele>778.1</ele>
        <time>2026-07-07T11:22:46.000Z</time>
      </trkpt>
      <trkpt lat="45.82864" lon="1.92748">
        <ele>778.1</ele>
        <time>2026-07-07T11:22:47.000Z</time>
      </trkpt>
      <trkpt lat="45.82864" lon="1.92748">
        <ele>778.1</ele>
        <time>2026-07-07T11:22:48.000Z</time>
      </trkpt>
      <trkpt lat="45.82864" lon="1.92748">
        <ele>778.1</ele>
        <time>2026-07-07T11:22:49.000Z</time>
      </trkpt>
      <trkpt lat="45.82864" lon="1.92748">
        <ele>778.2</ele>
        <time>2026-07-07T11:22:50.000Z</time>
      </trkpt>
      <trkpt lat="45.82864" lon="1.92748">
        <ele>778.2</ele>
        <time>2026-07-07T11:22:51.000Z</time>
      </trkpt>
      <trkpt lat="45.82864" lon="1.92748">
        <ele>778.2</ele>
        <time>2026-07-07T11:22:52.000Z</time>
      </trkpt>
      <trkpt lat="45.82864" lon="1.92748">
        <ele>778.2</ele>
        <time>2026-07-07T11:22:53.000Z</time>
      </trkpt>
      <trkpt lat="45.82864" lon="1.92748">
        <ele>778.2</ele>
        <time>2026-07-07T11:22:54.000Z</time>
      </trkpt>
      <trkpt lat="45.82864" lon="1.92748">
        <ele>778.2</ele>
        <time>2026-07-07T11:22:55.000Z</time>
      </trkpt>
      <trkpt lat="45.82864" lon="1.92748">
        <ele>778.2</ele>
        <time>2026-07-07T11:22:56.000Z</time>
      </trkpt>
      <trkpt lat="45.82864" lon="1.92748">
        <ele>778.2</ele>
        <time>2026-07-07T11:22:57.000Z</time>
      </trkpt>
      <trkpt lat="45.82864" lon="1.92748">
        <ele>778.2</ele>
        <time>2026-07-07T11:22:58.000Z</time>
      </trkpt>
      <trkpt lat="45.82864" lon="1.92748">
        <ele>778.2</ele>
        <time>2026-07-07T11:22:59.000Z</time>
      </trkpt>
      <trkpt lat="45.82864" lon="1.92748">
        <ele>778.2</ele>
        <time>2026-07-07T11:23:00.000Z</time>
      </trkpt>
      <trkpt lat="45.82864" lon="1.92748">
        <ele>778.2</ele>
        <time>2026-07-07T11:23:01.000Z</time>
      </trkpt>
      <trkpt lat="45.82864" lon="1.92748">
        <ele>778.1</ele>
        <time>2026-07-07T11:23:02.000Z</time>
      </trkpt>
      <trkpt lat="45.82864" lon="1.92748">
        <ele>778.1</ele>
        <time>2026-07-07T11:23:03.000Z</time>
      </trkpt>
      <trkpt lat="45.82864" lon="1.92748">
        <ele>778.1</ele>
        <time>2026-07-07T11:23:04.000Z</time>
      </trkpt>
      <trkpt lat="45.82864" lon="1.92748">
        <ele>778.2</ele>
        <time>2026-07-07T11:23:05.000Z</time>
      </trkpt>
      <trkpt lat="45.82864" lon="1.92748">
        <ele>778.2</ele>
        <time>2026-07-07T11:23:06.000Z</time>
      </trkpt>
      <trkpt lat="45.82864" lon="1.92748">
        <ele>778.1</ele>
        <time>2026-07-07T11:23:07.000Z</time>
      </trkpt>
      <trkpt lat="45.82864" lon="1.92748">
        <ele>778.2</ele>
        <time>2026-07-07T11:23:08.000Z</time>
      </trkpt>
      <trkpt lat="45.82864" lon="1.92748">
        <ele>778.1</ele>
        <time>2026-07-07T11:23:09.000Z</time>
      </trkpt>
      <trkpt lat="45.82864" lon="1.92748">
        <ele>778.1</ele>
        <time>2026-07-07T11:23:10.000Z</time>
      </trkpt>
      <trkpt lat="45.82864" lon="1.92748">
        <ele>778.2</ele>
        <time>2026-07-07T11:23:11.000Z</time>
      </trkpt>
      <trkpt lat="45.82864" lon="1.92748">
        <ele>778.2</ele>
        <time>2026-07-07T11:23:12.000Z</time>
      </trkpt>
      <trkpt lat="45.82864" lon="1.92748">
        <ele>778.2</ele>
        <time>2026-07-07T11:23:13.000Z</time>
      </trkpt>
      <trkpt lat="45.82864" lon="1.92748">
        <ele>778.2</ele>
        <time>2026-07-07T11:23:14.000Z</time>
      </trkpt>
      <trkpt lat="45.82864" lon="1.92748">
        <ele>778.2</ele>
        <time>2026-07-07T11:23:15.000Z</time>
      </trkpt>
      <trkpt lat="45.82864" lon="1.92748">
        <ele>778.2</ele>
        <time>2026-07-07T11:23:16.000Z</time>
      </trkpt>
      <trkpt lat="45.82864" lon="1.92748">
        <ele>778.1</ele>
        <time>2026-07-07T11:23:17.000Z</time>
      </trkpt>
      <trkpt lat="45.82864" lon="1.92748">
        <ele>778.1</ele>
        <time>2026-07-07T11:23:18.000Z</time>
      </trkpt>
      <trkpt lat="45.82864" lon="1.92748">
        <ele>778.1</ele>
        <time>2026-07-07T11:23:19.000Z</time>
      </trkpt>
      <trkpt lat="45.82864" lon="1.92748">
        <ele>778.1</ele>
        <time>2026-07-07T11:23:20.000Z</time>
      </trkpt>
      <trkpt lat="45.82864" lon="1.92748">
        <ele>778.1</ele>
        <time>2026-07-07T11:23:21.000Z</time>
      </trkpt>
      <trkpt lat="45.82864" lon="1.92748">
        <ele>778.1</ele>
        <time>2026-07-07T11:23:22.000Z</time>
      </trkpt>
      <trkpt lat="45.82864" lon="1.92748">
        <ele>778.1</ele>
        <time>2026-07-07T11:23:23.000Z</time>
      </trkpt>
      <trkpt lat="45.82864" lon="1.92748">
        <ele>778.1</ele>
        <time>2026-07-07T11:23:24.000Z</time>
      </trkpt>
      <trkpt lat="45.82864" lon="1.92748">
        <ele>778.1</ele>
        <time>2026-07-07T11:23:25.000Z</time>
      </trkpt>
      <trkpt lat="45.82864" lon="1.92748">
        <ele>778.1</ele>
        <time>2026-07-07T11:23:26.000Z</time>
      </trkpt>
      <trkpt lat="45.82864" lon="1.92748">
        <ele>778.1</ele>
        <time>2026-07-07T11:23:27.000Z</time>
      </trkpt>
      <trkpt lat="45.82864" lon="1.92748">
        <ele>778.1</ele>
        <time>2026-07-07T11:23:28.000Z</time>
      </trkpt>
      <trkpt lat="45.82864" lon="1.92748">
        <ele>778.2</ele>
        <time>2026-07-07T11:23:29.000Z</time>
      </trkpt>
      <trkpt lat="45.82864" lon="1.92748">
        <ele>778.2</ele>
        <time>2026-07-07T11:23:30.000Z</time>
      </trkpt>
      <trkpt lat="45.82864" lon="1.92748">
        <ele>778.2</ele>
        <time>2026-07-07T11:23:31.000Z</time>
      </trkpt>
      <trkpt lat="45.82864" lon="1.92748">
        <ele>778.2</ele>
        <time>2026-07-07T11:23:32.000Z</time>
      </trkpt>
      <trkpt lat="45.82864" lon="1.92748">
        <ele>778.2</ele>
        <time>2026-07-07T11:23:33.000Z</time>
      </trkpt>
      <trkpt lat="45.82864" lon="1.92748">
        <ele>778.2</ele>
        <time>2026-07-07T11:23:34.000Z</time>
      </trkpt>
      <trkpt lat="45.82864" lon="1.92748">
        <ele>778.2</ele>
        <time>2026-07-07T11:23:35.000Z</time>
      </trkpt>
      <trkpt lat="45.82864" lon="1.92748">
        <ele>778.1</ele>
        <time>2026-07-07T11:23:36.000Z</time>
      </trkpt>
      <trkpt lat="45.82864" lon="1.92748">
        <ele>778.1</ele>
        <time>2026-07-07T11:23:37.000Z</time>
      </trkpt>
      <trkpt lat="45.82864" lon="1.92748">
        <ele>778.1</ele>
        <time>2026-07-07T11:23:38.000Z</time>
      </trkpt>
      <trkpt lat="45.82864" lon="1.92748">
        <ele>778.1</ele>
        <time>2026-07-07T11:23:39.000Z</time>
      </trkpt>
      <trkpt lat="45.82864" lon="1.92748">
        <ele>778.1</ele>
        <time>2026-07-07T11:23:40.000Z</time>
      </trkpt>
      <trkpt lat="45.82864" lon="1.92748">
        <ele>778.1</ele>
        <time>2026-07-07T11:23:41.000Z</time>
      </trkpt>
      <trkpt lat="45.82864" lon="1.92748">
        <ele>778.1</ele>
        <time>2026-07-07T11:23:42.000Z</time>
      </trkpt>
      <trkpt lat="45.82864" lon="1.92748">
        <ele>778.1</ele>
        <time>2026-07-07T11:23:43.000Z</time>
      </trkpt>
      <trkpt lat="45.82864" lon="1.92748">
        <ele>778.1</ele>
        <time>2026-07-07T11:23:44.000Z</time>
      </trkpt>
      <trkpt lat="45.82864" lon="1.92748">
        <ele>778.1</ele>
        <time>2026-07-07T11:23:45.000Z</time>
      </trkpt>
      <trkpt lat="45.82864" lon="1.92748">
        <ele>778.1</ele>
        <time>2026-07-07T11:23:46.000Z</time>
      </trkpt>
      <trkpt lat="45.82864" lon="1.92748">
        <ele>778.1</ele>
        <time>2026-07-07T11:23:47.000Z</time>
      </trkpt>
      <trkpt lat="45.82864" lon="1.92748">
        <ele>778.1</ele>
        <time>2026-07-07T11:23:48.000Z</time>
      </trkpt>
      <trkpt lat="45.82864" lon="1.92748">
        <ele>778.1</ele>
        <time>2026-07-07T11:23:49.000Z</time>
      </trkpt>
      <trkpt lat="45.82864" lon="1.92748">
        <ele>778.2</ele>
        <time>2026-07-07T11:23:50.000Z</time>
      </trkpt>
      <trkpt lat="45.82864" lon="1.92748">
        <ele>778.2</ele>
        <time>2026-07-07T11:23:51.000Z</time>
      </trkpt>
      <trkpt lat="45.82864" lon="1.92748">
        <ele>778.2</ele>
        <time>2026-07-07T11:23:52.000Z</time>
      </trkpt>
      <trkpt lat="45.82864" lon="1.92748">
        <ele>778.2</ele>
        <time>2026-07-07T11:23:53.000Z</time>
      </trkpt>
      <trkpt lat="45.82864" lon="1.92748">
        <ele>778.2</ele>
        <time>2026-07-07T11:23:54.000Z</time>
      </trkpt>
      <trkpt lat="45.82864" lon="1.92748">
        <ele>778.2</ele>
        <time>2026-07-07T11:23:55.000Z</time>
      </trkpt>
      <trkpt lat="45.82864" lon="1.92748">
        <ele>778.2</ele>
        <time>2026-07-07T11:23:56.000Z</time>
      </trkpt>
      <trkpt lat="45.82864" lon="1.92748">
        <ele>778.2</ele>
        <time>2026-07-07T11:23:57.000Z</time>
      </trkpt>
      <trkpt lat="45.82864" lon="1.92748">
        <ele>778.2</ele>
        <time>2026-07-07T11:23:58.000Z</time>
      </trkpt>
      <trkpt lat="45.82864" lon="1.92748">
        <ele>778.2</ele>
        <time>2026-07-07T11:23:59.000Z</time>
      </trkpt>
      <trkpt lat="45.82864" lon="1.92748">
        <ele>778.2</ele>
        <time>2026-07-07T11:24:00.000Z</time>
      </trkpt>
      <trkpt lat="45.82864" lon="1.92748">
        <ele>778.2</ele>
        <time>2026-07-07T11:24:01.000Z</time>
      </trkpt>
      <trkpt lat="45.82864" lon="1.92748">
        <ele>778.2</ele>
        <time>2026-07-07T11:24:02.000Z</time>
      </trkpt>
      <trkpt lat="45.82864" lon="1.92748">
        <ele>778.2</ele>
        <time>2026-07-07T11:24:03.000Z</time>
      </trkpt>
      <trkpt lat="45.82864" lon="1.92748">
        <ele>778.2</ele>
        <time>2026-07-07T11:24:04.000Z</time>
      </trkpt>
      <trkpt lat="45.82864" lon="1.92748">
        <ele>778.2</ele>
        <time>2026-07-07T11:24:05.000Z</time>
      </trkpt>
      <trkpt lat="45.82864" lon="1.92748">
        <ele>778.2</ele>
        <time>2026-07-07T11:24:06.000Z</time>
      </trkpt>
      <trkpt lat="45.82864" lon="1.92748">
        <ele>778.2</ele>
        <time>2026-07-07T11:24:07.000Z</time>
      </trkpt>
      <trkpt lat="45.82864" lon="1.92748">
        <ele>778.2</ele>
        <time>2026-07-07T11:24:08.000Z</time>
      </trkpt>
      <trkpt lat="45.82864" lon="1.92748">
        <ele>778.2</ele>
        <time>2026-07-07T11:24:09.000Z</time>
      </trkpt>
      <trkpt lat="45.82864" lon="1.92748">
        <ele>778.2</ele>
        <time>2026-07-07T11:24:10.000Z</time>
      </trkpt>
      <trkpt lat="45.82864" lon="1.92748">
        <ele>778.2</ele>
        <time>2026-07-07T11:24:11.000Z</time>
      </trkpt>
      <trkpt lat="45.82864" lon="1.92748">
        <ele>778.2</ele>
        <time>2026-07-07T11:24:12.000Z</time>
      </trkpt>
      <trkpt lat="45.82864" lon="1.92748">
        <ele>778.2</ele>
        <time>2026-07-07T11:24:13.000Z</time>
      </trkpt>
      <trkpt lat="45.82864" lon="1.92748">
        <ele>778.2</ele>
        <time>2026-07-07T11:24:14.000Z</time>
      </trkpt>
      <trkpt lat="45.82864" lon="1.92748">
        <ele>778.2</ele>
        <time>2026-07-07T11:24:15.000Z</time>
      </trkpt>
      <trkpt lat="45.82864" lon="1.92748">
        <ele>778.2</ele>
        <time>2026-07-07T11:24:16.000Z</time>
      </trkpt>
      <trkpt lat="45.82864" lon="1.92748">
        <ele>778.2</ele>
        <time>2026-07-07T11:24:17.000Z</time>
      </trkpt>
      <trkpt lat="45.82864" lon="1.92748">
        <ele>778.2</ele>
        <time>2026-07-07T11:24:18.000Z</time>
      </trkpt>
      <trkpt lat="45.82864" lon="1.92748">
        <ele>778.2</ele>
        <time>2026-07-07T11:24:19.000Z</time>
      </trkpt>
      <trkpt lat="45.82864" lon="1.92748">
        <ele>778.3</ele>
        <time>2026-07-07T11:24:20.000Z</time>
      </trkpt>
      <trkpt lat="45.82864" lon="1.92748">
        <ele>778.3</ele>
        <time>2026-07-07T11:24:21.000Z</time>
      </trkpt>
      <trkpt lat="45.82864" lon="1.92748">
        <ele>778.3</ele>
        <time>2026-07-07T11:24:22.000Z</time>
      </trkpt>
      <trkpt lat="45.82864" lon="1.92748">
        <ele>778.3</ele>
        <time>2026-07-07T11:24:23.000Z</time>
      </trkpt>
      <trkpt lat="45.82864" lon="1.92748">
        <ele>778.3</ele>
        <time>2026-07-07T11:24:24.000Z</time>
      </trkpt>
      <trkpt lat="45.82864" lon="1.92748">
        <ele>778.3</ele>
        <time>2026-07-07T11:24:25.000Z</time>
      </trkpt>
      <trkpt lat="45.82864" lon="1.92748">
        <ele>778.2</ele>
        <time>2026-07-07T11:24:26.000Z</time>
      </trkpt>
      <trkpt lat="45.82864" lon="1.92748">
        <ele>778.2</ele>
        <time>2026-07-07T11:24:27.000Z</time>
      </trkpt>
      <trkpt lat="45.82864" lon="1.92748">
        <ele>778.2</ele>
        <time>2026-07-07T11:24:28.000Z</time>
      </trkpt>
      <trkpt lat="45.82864" lon="1.92748">
        <ele>778.2</ele>
        <time>2026-07-07T11:24:29.000Z</time>
      </trkpt>
      <trkpt lat="45.82864" lon="1.92748">
        <ele>778.2</ele>
        <time>2026-07-07T11:24:30.000Z</time>
      </trkpt>
      <trkpt lat="45.82864" lon="1.92748">
        <ele>778.3</ele>
        <time>2026-07-07T11:24:31.000Z</time>
      </trkpt>
      <trkpt lat="45.82864" lon="1.92748">
        <ele>778.3</ele>
        <time>2026-07-07T11:24:32.000Z</time>
      </trkpt>
      <trkpt lat="45.82864" lon="1.92748">
        <ele>778.3</ele>
        <time>2026-07-07T11:24:33.000Z</time>
      </trkpt>
      <trkpt lat="45.82864" lon="1.92748">
        <ele>778.3</ele>
        <time>2026-07-07T11:24:34.000Z</time>
      </trkpt>
      <trkpt lat="45.82864" lon="1.92748">
        <ele>778.3</ele>
        <time>2026-07-07T11:24:35.000Z</time>
      </trkpt>
      <trkpt lat="45.82864" lon="1.92748">
        <ele>778.3</ele>
        <time>2026-07-07T11:24:36.000Z</time>
      </trkpt>
      <trkpt lat="45.82864" lon="1.92748">
        <ele>778.3</ele>
        <time>2026-07-07T11:24:37.000Z</time>
      </trkpt>
      <trkpt lat="45.82864" lon="1.92748">
        <ele>778.3</ele>
        <time>2026-07-07T11:24:38.000Z</time>
      </trkpt>
      <trkpt lat="45.82864" lon="1.92748">
        <ele>778.3</ele>
        <time>2026-07-07T11:24:39.000Z</time>
      </trkpt>
      <trkpt lat="45.82864" lon="1.92748">
        <ele>778.3</ele>
        <time>2026-07-07T11:24:40.000Z</time>
      </trkpt>
      <trkpt lat="45.82864" lon="1.92748">
        <ele>778.3</ele>
        <time>2026-07-07T11:24:41.000Z</time>
      </trkpt>
      <trkpt lat="45.82864" lon="1.92748">
        <ele>778.3</ele>
        <time>2026-07-07T11:24:42.000Z</time>
      </trkpt>
      <trkpt lat="45.82864" lon="1.92748">
        <ele>778.3</ele>
        <time>2026-07-07T11:24:43.000Z</time>
      </trkpt>
      <trkpt lat="45.82864" lon="1.92748">
        <ele>778.3</ele>
        <time>2026-07-07T11:24:44.000Z</time>
      </trkpt>
      <trkpt lat="45.82864" lon="1.92748">
        <ele>778.3</ele>
        <time>2026-07-07T11:24:45.000Z</time>
      </trkpt>
      <trkpt lat="45.82864" lon="1.92748">
        <ele>778.3</ele>
        <time>2026-07-07T11:24:46.000Z</time>
      </trkpt>
      <trkpt lat="45.82864" lon="1.92748">
        <ele>778.3</ele>
        <time>2026-07-07T11:24:47.000Z</time>
      </trkpt>
      <trkpt lat="45.82864" lon="1.92748">
        <ele>778.3</ele>
        <time>2026-07-07T11:24:48.000Z</time>
      </trkpt>
      <trkpt lat="45.82864" lon="1.92748">
        <ele>778.3</ele>
        <time>2026-07-07T11:24:49.000Z</time>
      </trkpt>
      <trkpt lat="45.82864" lon="1.92748">
        <ele>778.3</ele>
        <time>2026-07-07T11:24:50.000Z</time>
      </trkpt>
      <trkpt lat="45.82864" lon="1.92748">
        <ele>778.3</ele>
        <time>2026-07-07T11:24:51.000Z</time>
      </trkpt>
      <trkpt lat="45.82864" lon="1.92748">
        <ele>778.4</ele>
        <time>2026-07-07T11:24:52.000Z</time>
      </trkpt>
      <trkpt lat="45.82864" lon="1.92748">
        <ele>778.4</ele>
        <time>2026-07-07T11:24:53.000Z</time>
      </trkpt>
      <trkpt lat="45.82864" lon="1.92748">
        <ele>778.4</ele>
        <time>2026-07-07T11:24:54.000Z</time>
      </trkpt>
      <trkpt lat="45.82864" lon="1.92748">
        <ele>778.4</ele>
        <time>2026-07-07T11:24:55.000Z</time>
      </trkpt>
      <trkpt lat="45.82864" lon="1.92748">
        <ele>778.4</ele>
        <time>2026-07-07T11:24:56.000Z</time>
      </trkpt>
      <trkpt lat="45.82864" lon="1.92748">
        <ele>778.4</ele>
        <time>2026-07-07T11:24:57.000Z</time>
      </trkpt>
      <trkpt lat="45.82864" lon="1.92748">
        <ele>778.4</ele>
        <time>2026-07-07T11:24:58.000Z</time>
      </trkpt>
      <trkpt lat="45.82864" lon="1.92748">
        <ele>778.4</ele>
        <time>2026-07-07T11:24:59.000Z</time>
      </trkpt>
      <trkpt lat="45.82864" lon="1.92748">
        <ele>778.4</ele>
        <time>2026-07-07T11:25:00.000Z</time>
      </trkpt>
      <trkpt lat="45.82864" lon="1.92748">
        <ele>778.4</ele>
        <time>2026-07-07T11:25:01.000Z</time>
      </trkpt>
      <trkpt lat="45.82864" lon="1.92748">
        <ele>778.4</ele>
        <time>2026-07-07T11:25:02.000Z</time>
      </trkpt>
      <trkpt lat="45.82864" lon="1.92748">
        <ele>778.4</ele>
        <time>2026-07-07T11:25:03.000Z</time>
      </trkpt>
      <trkpt lat="45.82864" lon="1.92748">
        <ele>778.4</ele>
        <time>2026-07-07T11:25:04.000Z</time>
      </trkpt>
      <trkpt lat="45.82864" lon="1.92748">
        <ele>778.4</ele>
        <time>2026-07-07T11:25:05.000Z</time>
      </trkpt>
      <trkpt lat="45.82864" lon="1.92748">
        <ele>778.4</ele>
        <time>2026-07-07T11:25:06.000Z</time>
      </trkpt>
      <trkpt lat="45.82864" lon="1.92748">
        <ele>778.4</ele>
        <time>2026-07-07T11:25:07.000Z</time>
      </trkpt>
      <trkpt lat="45.82864" lon="1.92748">
        <ele>778.4</ele>
        <time>2026-07-07T11:25:08.000Z</time>
      </trkpt>
      <trkpt lat="45.82864" lon="1.92748">
        <ele>778.5</ele>
        <time>2026-07-07T11:25:09.000Z</time>
      </trkpt>
      <trkpt lat="45.82864" lon="1.92748">
        <ele>778.5</ele>
        <time>2026-07-07T11:25:10.000Z</time>
      </trkpt>
      <trkpt lat="45.82864" lon="1.92748">
        <ele>778.5</ele>
        <time>2026-07-07T11:25:11.000Z</time>
      </trkpt>
      <trkpt lat="45.82864" lon="1.92748">
        <ele>778.5</ele>
        <time>2026-07-07T11:25:12.000Z</time>
      </trkpt>
      <trkpt lat="45.82864" lon="1.92748">
        <ele>778.5</ele>
        <time>2026-07-07T11:25:13.000Z</time>
      </trkpt>
      <trkpt lat="45.82864" lon="1.92748">
        <ele>778.5</ele>
        <time>2026-07-07T11:25:14.000Z</time>
      </trkpt>
      <trkpt lat="45.82864" lon="1.92748">
        <ele>778.5</ele>
        <time>2026-07-07T11:25:15.000Z</time>
      </trkpt>
      <trkpt lat="45.82864" lon="1.92748">
        <ele>778.5</ele>
        <time>2026-07-07T11:25:16.000Z</time>
      </trkpt>
      <trkpt lat="45.82864" lon="1.92748">
        <ele>778.5</ele>
        <time>2026-07-07T11:25:17.000Z</time>
      </trkpt>
      <trkpt lat="45.82864" lon="1.92748">
        <ele>778.5</ele>
        <time>2026-07-07T11:25:18.000Z</time>
      </trkpt>
      <trkpt lat="45.82864" lon="1.92748">
        <ele>778.5</ele>
        <time>2026-07-07T11:25:19.000Z</time>
      </trkpt>
      <trkpt lat="45.82864" lon="1.92748">
        <ele>778.5</ele>
        <time>2026-07-07T11:25:20.000Z</time>
      </trkpt>
      <trkpt lat="45.82864" lon="1.92748">
        <ele>778.5</ele>
        <time>2026-07-07T11:25:21.000Z</time>
      </trkpt>
      <trkpt lat="45.82864" lon="1.92748">
        <ele>778.5</ele>
        <time>2026-07-07T11:25:22.000Z</time>
      </trkpt>
      <trkpt lat="45.82864" lon="1.92748">
        <ele>778.5</ele>
        <time>2026-07-07T11:25:23.000Z</time>
      </trkpt>
      <trkpt lat="45.82864" lon="1.92748">
        <ele>778.5</ele>
        <time>2026-07-07T11:25:24.000Z</time>
      </trkpt>
      <trkpt lat="45.82864" lon="1.92748">
        <ele>778.5</ele>
        <time>2026-07-07T11:25:25.000Z</time>
      </trkpt>
      <trkpt lat="45.82864" lon="1.92748">
        <ele>778.5</ele>
        <time>2026-07-07T11:25:26.000Z</time>
      </trkpt>
      <trkpt lat="45.82864" lon="1.92748">
        <ele>778.5</ele>
        <time>2026-07-07T11:25:27.000Z</time>
      </trkpt>
      <trkpt lat="45.82864" lon="1.92748">
        <ele>778.5</ele>
        <time>2026-07-07T11:25:28.000Z</time>
      </trkpt>
      <trkpt lat="45.82864" lon="1.92748">
        <ele>778.5</ele>
        <time>2026-07-07T11:25:29.000Z</time>
      </trkpt>
      <trkpt lat="45.82864" lon="1.92748">
        <ele>778.5</ele>
        <time>2026-07-07T11:25:30.000Z</time>
      </trkpt>
      <trkpt lat="45.82864" lon="1.92748">
        <ele>778.5</ele>
        <time>2026-07-07T11:25:31.000Z</time>
      </trkpt>
      <trkpt lat="45.82864" lon="1.92748">
        <ele>778.5</ele>
        <time>2026-07-07T11:25:32.000Z</time>
      </trkpt>
      <trkpt lat="45.82864" lon="1.92748">
        <ele>778.5</ele>
        <time>2026-07-07T11:25:33.000Z</time>
      </trkpt>
      <trkpt lat="45.82864" lon="1.92748">
        <ele>778.5</ele>
        <time>2026-07-07T11:25:34.000Z</time>
      </trkpt>
      <trkpt lat="45.82864" lon="1.92748">
        <ele>778.5</ele>
        <time>2026-07-07T11:25:35.000Z</time>
      </trkpt>
      <trkpt lat="45.82864" lon="1.92748">
        <ele>778.5</ele>
        <time>2026-07-07T11:25:36.000Z</time>
      </trkpt>
      <trkpt lat="45.82864" lon="1.92748">
        <ele>778.5</ele>
        <time>2026-07-07T11:25:37.000Z</time>
      </trkpt>
      <trkpt lat="45.82864" lon="1.92748">
        <ele>778.5</ele>
        <time>2026-07-07T11:25:38.000Z</time>
      </trkpt>
      <trkpt lat="45.82864" lon="1.92748">
        <ele>778.5</ele>
        <time>2026-07-07T11:25:39.000Z</time>
      </trkpt>
      <trkpt lat="45.82864" lon="1.92748">
        <ele>778.5</ele>
        <time>2026-07-07T11:25:40.000Z</time>
      </trkpt>
      <trkpt lat="45.82864" lon="1.92748">
        <ele>778.5</ele>
        <time>2026-07-07T11:25:41.000Z</time>
      </trkpt>
      <trkpt lat="45.82864" lon="1.92748">
        <ele>778.5</ele>
        <time>2026-07-07T11:25:42.000Z</time>
      </trkpt>
      <trkpt lat="45.82864" lon="1.92748">
        <ele>778.5</ele>
        <time>2026-07-07T11:25:43.000Z</time>
      </trkpt>
      <trkpt lat="45.82864" lon="1.92748">
        <ele>778.5</ele>
        <time>2026-07-07T11:25:44.000Z</time>
      </trkpt>
      <trkpt lat="45.82864" lon="1.92748">
        <ele>778.5</ele>
        <time>2026-07-07T11:25:45.000Z</time>
      </trkpt>
      <trkpt lat="45.82864" lon="1.92748">
        <ele>778.5</ele>
        <time>2026-07-07T11:25:46.000Z</time>
      </trkpt>
      <trkpt lat="45.82864" lon="1.92748">
        <ele>778.5</ele>
        <time>2026-07-07T11:25:47.000Z</time>
      </trkpt>
      <trkpt lat="45.82864" lon="1.92748">
        <ele>778.5</ele>
        <time>2026-07-07T11:25:48.000Z</time>
      </trkpt>
      <trkpt lat="45.82864" lon="1.92748">
        <ele>778.6</ele>
        <time>2026-07-07T11:25:49.000Z</time>
      </trkpt>
      <trkpt lat="45.82864" lon="1.92748">
        <ele>778.6</ele>
        <time>2026-07-07T11:25:50.000Z</time>
      </trkpt>
      <trkpt lat="45.82864" lon="1.92748">
        <ele>778.6</ele>
        <time>2026-07-07T11:25:51.000Z</time>
      </trkpt>
      <trkpt lat="45.82864" lon="1.92748">
        <ele>778.6</ele>
        <time>2026-07-07T11:25:52.000Z</time>
      </trkpt>
      <trkpt lat="45.82864" lon="1.92748">
        <ele>778.6</ele>
        <time>2026-07-07T11:25:53.000Z</time>
      </trkpt>
      <trkpt lat="45.82864" lon="1.92748">
        <ele>778.6</ele>
        <time>2026-07-07T11:25:54.000Z</time>
      </trkpt>
      <trkpt lat="45.82864" lon="1.92748">
        <ele>778.6</ele>
        <time>2026-07-07T11:25:55.000Z</time>
      </trkpt>
      <trkpt lat="45.82864" lon="1.92748">
        <ele>778.6</ele>
        <time>2026-07-07T11:25:56.000Z</time>
      </trkpt>
      <trkpt lat="45.82864" lon="1.92748">
        <ele>778.6</ele>
        <time>2026-07-07T11:25:57.000Z</time>
      </trkpt>
      <trkpt lat="45.82864" lon="1.92748">
        <ele>778.6</ele>
        <time>2026-07-07T11:25:58.000Z</time>
      </trkpt>
      <trkpt lat="45.82864" lon="1.92748">
        <ele>778.6</ele>
        <time>2026-07-07T11:25:59.000Z</time>
      </trkpt>
      <trkpt lat="45.82864" lon="1.92748">
        <ele>778.6</ele>
        <time>2026-07-07T11:26:00.000Z</time>
      </trkpt>
      <trkpt lat="45.82864" lon="1.92748">
        <ele>778.6</ele>
        <time>2026-07-07T11:26:01.000Z</time>
      </trkpt>
      <trkpt lat="45.82864" lon="1.92748">
        <ele>778.6</ele>
        <time>2026-07-07T11:26:02.000Z</time>
      </trkpt>
      <trkpt lat="45.82864" lon="1.92748">
        <ele>778.6</ele>
        <time>2026-07-07T11:26:03.000Z</time>
      </trkpt>
      <trkpt lat="45.82864" lon="1.92748">
        <ele>778.6</ele>
        <time>2026-07-07T11:26:04.000Z</time>
      </trkpt>
      <trkpt lat="45.82864" lon="1.92748">
        <ele>778.6</ele>
        <time>2026-07-07T11:26:05.000Z</time>
      </trkpt>
      <trkpt lat="45.82864" lon="1.92748">
        <ele>778.6</ele>
        <time>2026-07-07T11:26:06.000Z</time>
      </trkpt>
      <trkpt lat="45.82864" lon="1.92748">
        <ele>778.6</ele>
        <time>2026-07-07T11:26:07.000Z</time>
      </trkpt>
      <trkpt lat="45.82864" lon="1.92748">
        <ele>778.6</ele>
        <time>2026-07-07T11:26:08.000Z</time>
      </trkpt>
      <trkpt lat="45.82864" lon="1.92748">
        <ele>778.6</ele>
        <time>2026-07-07T11:26:09.000Z</time>
      </trkpt>
      <trkpt lat="45.82864" lon="1.92748">
        <ele>778.6</ele>
        <time>2026-07-07T11:26:10.000Z</time>
      </trkpt>
      <trkpt lat="45.82864" lon="1.92748">
        <ele>778.6</ele>
        <time>2026-07-07T11:26:11.000Z</time>
      </trkpt>
      <trkpt lat="45.82864" lon="1.92748">
        <ele>778.6</ele>
        <time>2026-07-07T11:26:12.000Z</time>
      </trkpt>
      <trkpt lat="45.82864" lon="1.92748">
        <ele>778.6</ele>
        <time>2026-07-07T11:26:13.000Z</time>
      </trkpt>
      <trkpt lat="45.82864" lon="1.92748">
        <ele>778.6</ele>
        <time>2026-07-07T11:26:14.000Z</time>
      </trkpt>
      <trkpt lat="45.82864" lon="1.92748">
        <ele>778.6</ele>
        <time>2026-07-07T11:26:15.000Z</time>
      </trkpt>
      <trkpt lat="45.82864" lon="1.92748">
        <ele>778.6</ele>
        <time>2026-07-07T11:26:16.000Z</time>
      </trkpt>
      <trkpt lat="45.82864" lon="1.92748">
        <ele>778.6</ele>
        <time>2026-07-07T11:26:17.000Z</time>
      </trkpt>
      <trkpt lat="45.82864" lon="1.92748">
        <ele>778.6</ele>
        <time>2026-07-07T11:26:18.000Z</time>
      </trkpt>
      <trkpt lat="45.82864" lon="1.92748">
        <ele>778.6</ele>
        <time>2026-07-07T11:26:19.000Z</time>
      </trkpt>
      <trkpt lat="45.82864" lon="1.92748">
        <ele>778.6</ele>
        <time>2026-07-07T11:26:20.000Z</time>
      </trkpt>
      <trkpt lat="45.82864" lon="1.92748">
        <ele>778.6</ele>
        <time>2026-07-07T11:26:21.000Z</time>
      </trkpt>
      <trkpt lat="45.82864" lon="1.92748">
        <ele>778.6</ele>
        <time>2026-07-07T11:26:22.000Z</time>
      </trkpt>
      <trkpt lat="45.82864" lon="1.92748">
        <ele>778.6</ele>
        <time>2026-07-07T11:26:23.000Z</time>
      </trkpt>
      <trkpt lat="45.82864" lon="1.92748">
        <ele>778.6</ele>
        <time>2026-07-07T11:26:24.000Z</time>
      </trkpt>
      <trkpt lat="45.82864" lon="1.92748">
        <ele>778.6</ele>
        <time>2026-07-07T11:26:25.000Z</time>
      </trkpt>
      <trkpt lat="45.82864" lon="1.92748">
        <ele>778.6</ele>
        <time>2026-07-07T11:26:26.000Z</time>
      </trkpt>
      <trkpt lat="45.82864" lon="1.92748">
        <ele>778.6</ele>
        <time>2026-07-07T11:26:27.000Z</time>
      </trkpt>
      <trkpt lat="45.82864" lon="1.92748">
        <ele>778.6</ele>
        <time>2026-07-07T11:26:28.000Z</time>
      </trkpt>
      <trkpt lat="45.82864" lon="1.92748">
        <ele>778.6</ele>
        <time>2026-07-07T11:26:29.000Z</time>
      </trkpt>
      <trkpt lat="45.82864" lon="1.92748">
        <ele>778.6</ele>
        <time>2026-07-07T11:26:30.000Z</time>
      </trkpt>
      <trkpt lat="45.82864" lon="1.92748">
        <ele>778.6</ele>
        <time>2026-07-07T11:26:31.000Z</time>
      </trkpt>
      <trkpt lat="45.82864" lon="1.92748">
        <ele>778.8</ele>
        <time>2026-07-07T11:26:32.000Z</time>
      </trkpt>
      <trkpt lat="45.82864" lon="1.92748">
        <ele>778.9</ele>
        <time>2026-07-07T11:26:33.000Z</time>
      </trkpt>
      <trkpt lat="45.82864" lon="1.92748">
        <ele>778.7</ele>
        <time>2026-07-07T11:26:34.000Z</time>
      </trkpt>
      <trkpt lat="45.82864" lon="1.92748">
        <ele>778.8</ele>
        <time>2026-07-07T11:26:35.000Z</time>
      </trkpt>
      <trkpt lat="45.82864" lon="1.92748">
        <ele>778.8</ele>
        <time>2026-07-07T11:26:36.000Z</time>
      </trkpt>
      <trkpt lat="45.82864" lon="1.92748">
        <ele>778.8</ele>
        <time>2026-07-07T11:26:37.000Z</time>
      </trkpt>
      <trkpt lat="45.82864" lon="1.92748">
        <ele>778.8</ele>
        <time>2026-07-07T11:26:38.000Z</time>
      </trkpt>
      <trkpt lat="45.82864" lon="1.92748">
        <ele>778.7</ele>
        <time>2026-07-07T11:26:39.000Z</time>
      </trkpt>
      <trkpt lat="45.82864" lon="1.92748">
        <ele>778.7</ele>
        <time>2026-07-07T11:26:40.000Z</time>
      </trkpt>
      <trkpt lat="45.82864" lon="1.92748">
        <ele>778.7</ele>
        <time>2026-07-07T11:26:41.000Z</time>
      </trkpt>
      <trkpt lat="45.82864" lon="1.92748">
        <ele>778.7</ele>
        <time>2026-07-07T11:26:42.000Z</time>
      </trkpt>
      <trkpt lat="45.82864" lon="1.92748">
        <ele>778.7</ele>
        <time>2026-07-07T11:26:43.000Z</time>
      </trkpt>
      <trkpt lat="45.82864" lon="1.92748">
        <ele>778.7</ele>
        <time>2026-07-07T11:26:44.000Z</time>
      </trkpt>
      <trkpt lat="45.82864" lon="1.92748">
        <ele>778.7</ele>
        <time>2026-07-07T11:26:45.000Z</time>
      </trkpt>
      <trkpt lat="45.82864" lon="1.92748">
        <ele>778.7</ele>
        <time>2026-07-07T11:26:46.000Z</time>
      </trkpt>
      <trkpt lat="45.82864" lon="1.92748">
        <ele>778.7</ele>
        <time>2026-07-07T11:26:47.000Z</time>
      </trkpt>
      <trkpt lat="45.82864" lon="1.92748">
        <ele>778.7</ele>
        <time>2026-07-07T11:26:48.000Z</time>
      </trkpt>
      <trkpt lat="45.82864" lon="1.92748">
        <ele>778.8</ele>
        <time>2026-07-07T11:26:49.000Z</time>
      </trkpt>
      <trkpt lat="45.82864" lon="1.92748">
        <ele>778.8</ele>
        <time>2026-07-07T11:26:50.000Z</time>
      </trkpt>
      <trkpt lat="45.82864" lon="1.92748">
        <ele>778.8</ele>
        <time>2026-07-07T11:26:51.000Z</time>
      </trkpt>
      <trkpt lat="45.82864" lon="1.92748">
        <ele>778.8</ele>
        <time>2026-07-07T11:26:52.000Z</time>
      </trkpt>
      <trkpt lat="45.82864" lon="1.92748">
        <ele>778.8</ele>
        <time>2026-07-07T11:26:53.000Z</time>
      </trkpt>
      <trkpt lat="45.82864" lon="1.92748">
        <ele>778.8</ele>
        <time>2026-07-07T11:26:54.000Z</time>
      </trkpt>
      <trkpt lat="45.82864" lon="1.92748">
        <ele>778.8</ele>
        <time>2026-07-07T11:26:55.000Z</time>
      </trkpt>
      <trkpt lat="45.82864" lon="1.92748">
        <ele>778.8</ele>
        <time>2026-07-07T11:26:56.000Z</time>
      </trkpt>
      <trkpt lat="45.82864" lon="1.92748">
        <ele>778.8</ele>
        <time>2026-07-07T11:26:57.000Z</time>
      </trkpt>
      <trkpt lat="45.82864" lon="1.92748">
        <ele>778.8</ele>
        <time>2026-07-07T11:26:58.000Z</time>
      </trkpt>
      <trkpt lat="45.82864" lon="1.92748">
        <ele>778.8</ele>
        <time>2026-07-07T11:26:59.000Z</time>
      </trkpt>
      <trkpt lat="45.82864" lon="1.92748">
        <ele>778.8</ele>
        <time>2026-07-07T11:27:00.000Z</time>
      </trkpt>
      <trkpt lat="45.82864" lon="1.92748">
        <ele>778.8</ele>
        <time>2026-07-07T11:27:01.000Z</time>
      </trkpt>
      <trkpt lat="45.82864" lon="1.92748">
        <ele>778.8</ele>
        <time>2026-07-07T11:27:02.000Z</time>
      </trkpt>
      <trkpt lat="45.82864" lon="1.92748">
        <ele>778.8</ele>
        <time>2026-07-07T11:27:03.000Z</time>
      </trkpt>
      <trkpt lat="45.82864" lon="1.92748">
        <ele>778.8</ele>
        <time>2026-07-07T11:27:04.000Z</time>
      </trkpt>
      <trkpt lat="45.82864" lon="1.92748">
        <ele>778.8</ele>
        <time>2026-07-07T11:27:05.000Z</time>
      </trkpt>
      <trkpt lat="45.82864" lon="1.92748">
        <ele>778.8</ele>
        <time>2026-07-07T11:27:06.000Z</time>
      </trkpt>
      <trkpt lat="45.82864" lon="1.92748">
        <ele>778.8</ele>
        <time>2026-07-07T11:27:07.000Z</time>
      </trkpt>
      <trkpt lat="45.82864" lon="1.92748">
        <ele>778.8</ele>
        <time>2026-07-07T11:27:08.000Z</time>
      </trkpt>
      <trkpt lat="45.82864" lon="1.92748">
        <ele>778.8</ele>
        <time>2026-07-07T11:27:09.000Z</time>
      </trkpt>
      <trkpt lat="45.82864" lon="1.92748">
        <ele>778.8</ele>
        <time>2026-07-07T11:27:10.000Z</time>
      </trkpt>
      <trkpt lat="45.82864" lon="1.92748">
        <ele>778.8</ele>
        <time>2026-07-07T11:27:11.000Z</time>
      </trkpt>
      <trkpt lat="45.82864" lon="1.92748">
        <ele>778.8</ele>
        <time>2026-07-07T11:27:12.000Z</time>
      </trkpt>
      <trkpt lat="45.82864" lon="1.92748">
        <ele>778.8</ele>
        <time>2026-07-07T11:27:13.000Z</time>
      </trkpt>
      <trkpt lat="45.82864" lon="1.92748">
        <ele>778.8</ele>
        <time>2026-07-07T11:27:14.000Z</time>
      </trkpt>
      <trkpt lat="45.82864" lon="1.92748">
        <ele>778.8</ele>
        <time>2026-07-07T11:27:15.000Z</time>
      </trkpt>
      <trkpt lat="45.82864" lon="1.92748">
        <ele>778.8</ele>
        <time>2026-07-07T11:27:16.000Z</time>
      </trkpt>
      <trkpt lat="45.82864" lon="1.92748">
        <ele>778.8</ele>
        <time>2026-07-07T11:27:17.000Z</time>
      </trkpt>
      <trkpt lat="45.82864" lon="1.92748">
        <ele>778.8</ele>
        <time>2026-07-07T11:27:18.000Z</time>
      </trkpt>
      <trkpt lat="45.82864" lon="1.92748">
        <ele>778.8</ele>
        <time>2026-07-07T11:27:19.000Z</time>
      </trkpt>
      <trkpt lat="45.82864" lon="1.92748">
        <ele>778.8</ele>
        <time>2026-07-07T11:27:20.000Z</time>
      </trkpt>
      <trkpt lat="45.82864" lon="1.92748">
        <ele>778.8</ele>
        <time>2026-07-07T11:27:21.000Z</time>
      </trkpt>
      <trkpt lat="45.82864" lon="1.92748">
        <ele>778.8</ele>
        <time>2026-07-07T11:27:22.000Z</time>
      </trkpt>
      <trkpt lat="45.82864" lon="1.92748">
        <ele>778.8</ele>
        <time>2026-07-07T11:27:23.000Z</time>
      </trkpt>
      <trkpt lat="45.82864" lon="1.92748">
        <ele>778.8</ele>
        <time>2026-07-07T11:27:24.000Z</time>
      </trkpt>
      <trkpt lat="45.82864" lon="1.92748">
        <ele>778.8</ele>
        <time>2026-07-07T11:27:25.000Z</time>
      </trkpt>
      <trkpt lat="45.82864" lon="1.92748">
        <ele>778.8</ele>
        <time>2026-07-07T11:27:26.000Z</time>
      </trkpt>
      <trkpt lat="45.82864" lon="1.92748">
        <ele>778.8</ele>
        <time>2026-07-07T11:27:27.000Z</time>
      </trkpt>
      <trkpt lat="45.82864" lon="1.92748">
        <ele>778.8</ele>
        <time>2026-07-07T11:27:28.000Z</time>
      </trkpt>
      <trkpt lat="45.82864" lon="1.92748">
        <ele>778.8</ele>
        <time>2026-07-07T11:27:29.000Z</time>
      </trkpt>
      <trkpt lat="45.82864" lon="1.92748">
        <ele>778.8</ele>
        <time>2026-07-07T11:27:30.000Z</time>
      </trkpt>
      <trkpt lat="45.82864" lon="1.92748">
        <ele>778.8</ele>
        <time>2026-07-07T11:27:31.000Z</time>
      </trkpt>
      <trkpt lat="45.82864" lon="1.92748">
        <ele>778.8</ele>
        <time>2026-07-07T11:27:32.000Z</time>
      </trkpt>
      <trkpt lat="45.82864" lon="1.92748">
        <ele>778.8</ele>
        <time>2026-07-07T11:27:33.000Z</time>
      </trkpt>
      <trkpt lat="45.82864" lon="1.92748">
        <ele>778.8</ele>
        <time>2026-07-07T11:27:34.000Z</time>
      </trkpt>
      <trkpt lat="45.82864" lon="1.92748">
        <ele>778.8</ele>
        <time>2026-07-07T11:27:35.000Z</time>
      </trkpt>
      <trkpt lat="45.82864" lon="1.92748">
        <ele>778.8</ele>
        <time>2026-07-07T11:27:36.000Z</time>
      </trkpt>
      <trkpt lat="45.82864" lon="1.92748">
        <ele>778.8</ele>
        <time>2026-07-07T11:27:37.000Z</time>
      </trkpt>
      <trkpt lat="45.82864" lon="1.92748">
        <ele>778.8</ele>
        <time>2026-07-07T11:27:38.000Z</time>
      </trkpt>
      <trkpt lat="45.82864" lon="1.92748">
        <ele>778.8</ele>
        <time>2026-07-07T11:27:39.000Z</time>
      </trkpt>
      <trkpt lat="45.82864" lon="1.92748">
        <ele>778.8</ele>
        <time>2026-07-07T11:27:40.000Z</time>
      </trkpt>
      <trkpt lat="45.82864" lon="1.92748">
        <ele>778.8</ele>
        <time>2026-07-07T11:27:41.000Z</time>
      </trkpt>
      <trkpt lat="45.82864" lon="1.92748">
        <ele>778.8</ele>
        <time>2026-07-07T11:27:42.000Z</time>
      </trkpt>
      <trkpt lat="45.82864" lon="1.92748">
        <ele>778.8</ele>
        <time>2026-07-07T11:27:43.000Z</time>
      </trkpt>
      <trkpt lat="45.82864" lon="1.92748">
        <ele>778.8</ele>
        <time>2026-07-07T11:27:44.000Z</time>
      </trkpt>
      <trkpt lat="45.82864" lon="1.92748">
        <ele>778.8</ele>
        <time>2026-07-07T11:27:45.000Z</time>
      </trkpt>
      <trkpt lat="45.82864" lon="1.92748">
        <ele>778.8</ele>
        <time>2026-07-07T11:27:46.000Z</time>
      </trkpt>
      <trkpt lat="45.82864" lon="1.92748">
        <ele>778.8</ele>
        <time>2026-07-07T11:27:47.000Z</time>
      </trkpt>
      <trkpt lat="45.82864" lon="1.92748">
        <ele>778.8</ele>
        <time>2026-07-07T11:27:48.000Z</time>
      </trkpt>
      <trkpt lat="45.82864" lon="1.92748">
        <ele>778.8</ele>
        <time>2026-07-07T11:27:49.000Z</time>
      </trkpt>
      <trkpt lat="45.82864" lon="1.92748">
        <ele>778.9</ele>
        <time>2026-07-07T11:27:50.000Z</time>
      </trkpt>
      <trkpt lat="45.82864" lon="1.92748">
        <ele>778.9</ele>
        <time>2026-07-07T11:27:51.000Z</time>
      </trkpt>
      <trkpt lat="45.82864" lon="1.92748">
        <ele>778.9</ele>
        <time>2026-07-07T11:27:52.000Z</time>
      </trkpt>
      <trkpt lat="45.82864" lon="1.92748">
        <ele>778.9</ele>
        <time>2026-07-07T11:27:53.000Z</time>
      </trkpt>
      <trkpt lat="45.82864" lon="1.92748">
        <ele>778.9</ele>
        <time>2026-07-07T11:27:54.000Z</time>
      </trkpt>
      <trkpt lat="45.82864" lon="1.92748">
        <ele>778.9</ele>
        <time>2026-07-07T11:27:55.000Z</time>
      </trkpt>
      <trkpt lat="45.82864" lon="1.92748">
        <ele>778.9</ele>
        <time>2026-07-07T11:27:56.000Z</time>
      </trkpt>
      <trkpt lat="45.82864" lon="1.92748">
        <ele>778.9</ele>
        <time>2026-07-07T11:27:57.000Z</time>
      </trkpt>
      <trkpt lat="45.82864" lon="1.92748">
        <ele>778.9</ele>
        <time>2026-07-07T11:27:58.000Z</time>
      </trkpt>
      <trkpt lat="45.82864" lon="1.92748">
        <ele>778.9</ele>
        <time>2026-07-07T11:27:59.000Z</time>
      </trkpt>
      <trkpt lat="45.82864" lon="1.92748">
        <ele>778.9</ele>
        <time>2026-07-07T11:28:00.000Z</time>
      </trkpt>
      <trkpt lat="45.82864" lon="1.92748">
        <ele>778.9</ele>
        <time>2026-07-07T11:28:01.000Z</time>
      </trkpt>
      <trkpt lat="45.82864" lon="1.92748">
        <ele>778.9</ele>
        <time>2026-07-07T11:28:02.000Z</time>
      </trkpt>
      <trkpt lat="45.82864" lon="1.92748">
        <ele>778.9</ele>
        <time>2026-07-07T11:28:03.000Z</time>
      </trkpt>
      <trkpt lat="45.82864" lon="1.92748">
        <ele>778.9</ele>
        <time>2026-07-07T11:28:04.000Z</time>
      </trkpt>
      <trkpt lat="45.82864" lon="1.92748">
        <ele>778.9</ele>
        <time>2026-07-07T11:28:05.000Z</time>
      </trkpt>
      <trkpt lat="45.82864" lon="1.92748">
        <ele>778.9</ele>
        <time>2026-07-07T11:28:06.000Z</time>
      </trkpt>
      <trkpt lat="45.82864" lon="1.92748">
        <ele>778.9</ele>
        <time>2026-07-07T11:28:07.000Z</time>
      </trkpt>
      <trkpt lat="45.82864" lon="1.92748">
        <ele>778.9</ele>
        <time>2026-07-07T11:28:08.000Z</time>
      </trkpt>
      <trkpt lat="45.82864" lon="1.92748">
        <ele>778.9</ele>
        <time>2026-07-07T11:28:09.000Z</time>
      </trkpt>
      <trkpt lat="45.82864" lon="1.92748">
        <ele>778.9</ele>
        <time>2026-07-07T11:28:10.000Z</time>
      </trkpt>
      <trkpt lat="45.82864" lon="1.92748">
        <ele>778.9</ele>
        <time>2026-07-07T11:28:11.000Z</time>
      </trkpt>
      <trkpt lat="45.82864" lon="1.92748">
        <ele>778.9</ele>
        <time>2026-07-07T11:28:12.000Z</time>
      </trkpt>
      <trkpt lat="45.82864" lon="1.92748">
        <ele>778.9</ele>
        <time>2026-07-07T11:28:13.000Z</time>
      </trkpt>
      <trkpt lat="45.82864" lon="1.92748">
        <ele>778.9</ele>
        <time>2026-07-07T11:28:14.000Z</time>
      </trkpt>
      <trkpt lat="45.82864" lon="1.92748">
        <ele>778.9</ele>
        <time>2026-07-07T11:28:15.000Z</time>
      </trkpt>
      <trkpt lat="45.82864" lon="1.92748">
        <ele>778.9</ele>
        <time>2026-07-07T11:28:16.000Z</time>
      </trkpt>
      <trkpt lat="45.82864" lon="1.92748">
        <ele>778.9</ele>
        <time>2026-07-07T11:28:17.000Z</time>
      </trkpt>
      <trkpt lat="45.82864" lon="1.92748">
        <ele>779</ele>
        <time>2026-07-07T11:28:18.000Z</time>
      </trkpt>
      <trkpt lat="45.82864" lon="1.92748">
        <ele>779</ele>
        <time>2026-07-07T11:28:19.000Z</time>
      </trkpt>
      <trkpt lat="45.82864" lon="1.92748">
        <ele>779</ele>
        <time>2026-07-07T11:28:20.000Z</time>
      </trkpt>
      <trkpt lat="45.82864" lon="1.92748">
        <ele>779</ele>
        <time>2026-07-07T11:28:21.000Z</time>
      </trkpt>
      <trkpt lat="45.82864" lon="1.92748">
        <ele>779</ele>
        <time>2026-07-07T11:28:22.000Z</time>
      </trkpt>
      <trkpt lat="45.82864" lon="1.92748">
        <ele>779</ele>
        <time>2026-07-07T11:28:23.000Z</time>
      </trkpt>
      <trkpt lat="45.82864" lon="1.92748">
        <ele>779</ele>
        <time>2026-07-07T11:28:24.000Z</time>
      </trkpt>
      <trkpt lat="45.82864" lon="1.92748">
        <ele>779</ele>
        <time>2026-07-07T11:28:25.000Z</time>
      </trkpt>
      <trkpt lat="45.82864" lon="1.92748">
        <ele>779</ele>
        <time>2026-07-07T11:28:26.000Z</time>
      </trkpt>
      <trkpt lat="45.82864" lon="1.92748">
        <ele>779</ele>
        <time>2026-07-07T11:28:27.000Z</time>
      </trkpt>
      <trkpt lat="45.82864" lon="1.92748">
        <ele>779</ele>
        <time>2026-07-07T11:28:28.000Z</time>
      </trkpt>
      <trkpt lat="45.82864" lon="1.92748">
        <ele>779</ele>
        <time>2026-07-07T11:28:29.000Z</time>
      </trkpt>
      <trkpt lat="45.82864" lon="1.92748">
        <ele>779</ele>
        <time>2026-07-07T11:28:30.000Z</time>
      </trkpt>
      <trkpt lat="45.82864" lon="1.92748">
        <ele>779</ele>
        <time>2026-07-07T11:28:31.000Z</time>
      </trkpt>
      <trkpt lat="45.82864" lon="1.92748">
        <ele>779</ele>
        <time>2026-07-07T11:28:32.000Z</time>
      </trkpt>
      <trkpt lat="45.82864" lon="1.92748">
        <ele>779</ele>
        <time>2026-07-07T11:28:33.000Z</time>
      </trkpt>
      <trkpt lat="45.82864" lon="1.92748">
        <ele>779</ele>
        <time>2026-07-07T11:28:34.000Z</time>
      </trkpt>
      <trkpt lat="45.82864" lon="1.92748">
        <ele>779</ele>
        <time>2026-07-07T11:28:35.000Z</time>
      </trkpt>
      <trkpt lat="45.82864" lon="1.92748">
        <ele>779</ele>
        <time>2026-07-07T11:28:36.000Z</time>
      </trkpt>
      <trkpt lat="45.82864" lon="1.92748">
        <ele>779</ele>
        <time>2026-07-07T11:28:37.000Z</time>
      </trkpt>
      <trkpt lat="45.82864" lon="1.92748">
        <ele>779</ele>
        <time>2026-07-07T11:28:38.000Z</time>
      </trkpt>
      <trkpt lat="45.82864" lon="1.92748">
        <ele>779</ele>
        <time>2026-07-07T11:28:39.000Z</time>
      </trkpt>
      <trkpt lat="45.82864" lon="1.92748">
        <ele>779</ele>
        <time>2026-07-07T11:28:40.000Z</time>
      </trkpt>
      <trkpt lat="45.82864" lon="1.92748">
        <ele>779</ele>
        <time>2026-07-07T11:28:41.000Z</time>
      </trkpt>
      <trkpt lat="45.82864" lon="1.92748">
        <ele>779</ele>
        <time>2026-07-07T11:28:42.000Z</time>
      </trkpt>
      <trkpt lat="45.82864" lon="1.92748">
        <ele>779</ele>
        <time>2026-07-07T11:28:43.000Z</time>
      </trkpt>
      <trkpt lat="45.82864" lon="1.92748">
        <ele>779</ele>
        <time>2026-07-07T11:28:44.000Z</time>
      </trkpt>
      <trkpt lat="45.82864" lon="1.92748">
        <ele>779</ele>
        <time>2026-07-07T11:28:45.000Z</time>
      </trkpt>
      <trkpt lat="45.82864" lon="1.92748">
        <ele>779</ele>
        <time>2026-07-07T11:28:46.000Z</time>
      </trkpt>
      <trkpt lat="45.82864" lon="1.92748">
        <ele>779</ele>
        <time>2026-07-07T11:28:47.000Z</time>
      </trkpt>
      <trkpt lat="45.82864" lon="1.92748">
        <ele>779</ele>
        <time>2026-07-07T11:28:48.000Z</time>
      </trkpt>
      <trkpt lat="45.82864" lon="1.92748">
        <ele>779</ele>
        <time>2026-07-07T11:28:49.000Z</time>
      </trkpt>
      <trkpt lat="45.82864" lon="1.92748">
        <ele>779</ele>
        <time>2026-07-07T11:28:50.000Z</time>
      </trkpt>
      <trkpt lat="45.82864" lon="1.92748">
        <ele>779</ele>
        <time>2026-07-07T11:28:51.000Z</time>
      </trkpt>
      <trkpt lat="45.82864" lon="1.92748">
        <ele>779</ele>
        <time>2026-07-07T11:28:52.000Z</time>
      </trkpt>
      <trkpt lat="45.82864" lon="1.92748">
        <ele>779</ele>
        <time>2026-07-07T11:28:53.000Z</time>
      </trkpt>
      <trkpt lat="45.82864" lon="1.92748">
        <ele>779</ele>
        <time>2026-07-07T11:28:54.000Z</time>
      </trkpt>
      <trkpt lat="45.82864" lon="1.92748">
        <ele>779</ele>
        <time>2026-07-07T11:28:55.000Z</time>
      </trkpt>
      <trkpt lat="45.82864" lon="1.92748">
        <ele>779</ele>
        <time>2026-07-07T11:28:56.000Z</time>
      </trkpt>
      <trkpt lat="45.82864" lon="1.92748">
        <ele>779</ele>
        <time>2026-07-07T11:28:57.000Z</time>
      </trkpt>
      <trkpt lat="45.82864" lon="1.92748">
        <ele>779</ele>
        <time>2026-07-07T11:28:58.000Z</time>
      </trkpt>
      <trkpt lat="45.82864" lon="1.92748">
        <ele>779</ele>
        <time>2026-07-07T11:28:59.000Z</time>
      </trkpt>
      <trkpt lat="45.82864" lon="1.92748">
        <ele>779</ele>
        <time>2026-07-07T11:29:00.000Z</time>
      </trkpt>
      <trkpt lat="45.82864" lon="1.92748">
        <ele>779.1</ele>
        <time>2026-07-07T11:29:01.000Z</time>
      </trkpt>
      <trkpt lat="45.82864" lon="1.92748">
        <ele>779.1</ele>
        <time>2026-07-07T11:29:02.000Z</time>
      </trkpt>
      <trkpt lat="45.82864" lon="1.92748">
        <ele>779</ele>
        <time>2026-07-07T11:29:03.000Z</time>
      </trkpt>
      <trkpt lat="45.82864" lon="1.92748">
        <ele>779</ele>
        <time>2026-07-07T11:29:04.000Z</time>
      </trkpt>
      <trkpt lat="45.82864" lon="1.92748">
        <ele>779</ele>
        <time>2026-07-07T11:29:05.000Z</time>
      </trkpt>
      <trkpt lat="45.82864" lon="1.92748">
        <ele>779.1</ele>
        <time>2026-07-07T11:29:06.000Z</time>
      </trkpt>
      <trkpt lat="45.82864" lon="1.92748">
        <ele>779.1</ele>
        <time>2026-07-07T11:29:07.000Z</time>
      </trkpt>
      <trkpt lat="45.82864" lon="1.92748">
        <ele>779.1</ele>
        <time>2026-07-07T11:29:08.000Z</time>
      </trkpt>
      <trkpt lat="45.82864" lon="1.92748">
        <ele>779.1</ele>
        <time>2026-07-07T11:29:09.000Z</time>
      </trkpt>
      <trkpt lat="45.82864" lon="1.92748">
        <ele>779.1</ele>
        <time>2026-07-07T11:29:10.000Z</time>
      </trkpt>
      <trkpt lat="45.82863" lon="1.92748">
        <ele>779.1</ele>
        <time>2026-07-07T11:29:11.000Z</time>
      </trkpt>
      <trkpt lat="45.82863" lon="1.92748">
        <ele>779.1</ele>
        <time>2026-07-07T11:29:12.000Z</time>
      </trkpt>
      <trkpt lat="45.82863" lon="1.92748">
        <ele>779.1</ele>
        <time>2026-07-07T11:29:13.000Z</time>
      </trkpt>
      <trkpt lat="45.82863" lon="1.92748">
        <ele>779.1</ele>
        <time>2026-07-07T11:29:14.000Z</time>
      </trkpt>
      <trkpt lat="45.82863" lon="1.92748">
        <ele>779.1</ele>
        <time>2026-07-07T11:29:15.000Z</time>
      </trkpt>
      <trkpt lat="45.82863" lon="1.92748">
        <ele>779.1</ele>
        <time>2026-07-07T11:29:16.000Z</time>
      </trkpt>
      <trkpt lat="45.82863" lon="1.92748">
        <ele>779.1</ele>
        <time>2026-07-07T11:29:17.000Z</time>
      </trkpt>
      <trkpt lat="45.82863" lon="1.92748">
        <ele>779.1</ele>
        <time>2026-07-07T11:29:18.000Z</time>
      </trkpt>
      <trkpt lat="45.82863" lon="1.92748">
        <ele>779.1</ele>
        <time>2026-07-07T11:29:19.000Z</time>
      </trkpt>
      <trkpt lat="45.82863" lon="1.92748">
        <ele>779.1</ele>
        <time>2026-07-07T11:29:20.000Z</time>
      </trkpt>
      <trkpt lat="45.82863" lon="1.92748">
        <ele>779.1</ele>
        <time>2026-07-07T11:29:21.000Z</time>
      </trkpt>
      <trkpt lat="45.82863" lon="1.92748">
        <ele>779.1</ele>
        <time>2026-07-07T11:29:22.000Z</time>
      </trkpt>
      <trkpt lat="45.82863" lon="1.92748">
        <ele>779.1</ele>
        <time>2026-07-07T11:29:23.000Z</time>
      </trkpt>
      <trkpt lat="45.82863" lon="1.92748">
        <ele>779.1</ele>
        <time>2026-07-07T11:29:24.000Z</time>
      </trkpt>
      <trkpt lat="45.82863" lon="1.92748">
        <ele>779.1</ele>
        <time>2026-07-07T11:29:25.000Z</time>
      </trkpt>
      <trkpt lat="45.82863" lon="1.92748">
        <ele>779.1</ele>
        <time>2026-07-07T11:29:26.000Z</time>
      </trkpt>
      <trkpt lat="45.82863" lon="1.92748">
        <ele>779.1</ele>
        <time>2026-07-07T11:29:27.000Z</time>
      </trkpt>
      <trkpt lat="45.82863" lon="1.92748">
        <ele>779.2</ele>
        <time>2026-07-07T11:29:28.000Z</time>
      </trkpt>
      <trkpt lat="45.82863" lon="1.92748">
        <ele>779.2</ele>
        <time>2026-07-07T11:29:29.000Z</time>
      </trkpt>
      <trkpt lat="45.82863" lon="1.92748">
        <ele>779.2</ele>
        <time>2026-07-07T11:29:30.000Z</time>
      </trkpt>
      <trkpt lat="45.82863" lon="1.92748">
        <ele>779.2</ele>
        <time>2026-07-07T11:29:31.000Z</time>
      </trkpt>
      <trkpt lat="45.82863" lon="1.92748">
        <ele>779.2</ele>
        <time>2026-07-07T11:29:32.000Z</time>
      </trkpt>
      <trkpt lat="45.82863" lon="1.92748">
        <ele>779.2</ele>
        <time>2026-07-07T11:29:33.000Z</time>
      </trkpt>
      <trkpt lat="45.82863" lon="1.92748">
        <ele>779.2</ele>
        <time>2026-07-07T11:29:34.000Z</time>
      </trkpt>
      <trkpt lat="45.82863" lon="1.92748">
        <ele>779.2</ele>
        <time>2026-07-07T11:29:35.000Z</time>
      </trkpt>
      <trkpt lat="45.82863" lon="1.92748">
        <ele>779.2</ele>
        <time>2026-07-07T11:29:36.000Z</time>
      </trkpt>
      <trkpt lat="45.82863" lon="1.92748">
        <ele>779.2</ele>
        <time>2026-07-07T11:29:37.000Z</time>
      </trkpt>
      <trkpt lat="45.82863" lon="1.92748">
        <ele>779.2</ele>
        <time>2026-07-07T11:29:38.000Z</time>
      </trkpt>
      <trkpt lat="45.82863" lon="1.92748">
        <ele>779.3</ele>
        <time>2026-07-07T11:29:39.000Z</time>
      </trkpt>
      <trkpt lat="45.82863" lon="1.92748">
        <ele>779.3</ele>
        <time>2026-07-07T11:29:40.000Z</time>
      </trkpt>
      <trkpt lat="45.82863" lon="1.92748">
        <ele>779.3</ele>
        <time>2026-07-07T11:29:41.000Z</time>
      </trkpt>
      <trkpt lat="45.82863" lon="1.92748">
        <ele>779.3</ele>
        <time>2026-07-07T11:29:42.000Z</time>
      </trkpt>
      <trkpt lat="45.82863" lon="1.92748">
        <ele>779.3</ele>
        <time>2026-07-07T11:29:43.000Z</time>
      </trkpt>
      <trkpt lat="45.82863" lon="1.92748">
        <ele>779.3</ele>
        <time>2026-07-07T11:29:44.000Z</time>
      </trkpt>
      <trkpt lat="45.82863" lon="1.92748">
        <ele>779.3</ele>
        <time>2026-07-07T11:29:45.000Z</time>
      </trkpt>
      <trkpt lat="45.82863" lon="1.92748">
        <ele>779.3</ele>
        <time>2026-07-07T11:29:46.000Z</time>
      </trkpt>
      <trkpt lat="45.82863" lon="1.92748">
        <ele>779.3</ele>
        <time>2026-07-07T11:29:47.000Z</time>
      </trkpt>
      <trkpt lat="45.82863" lon="1.92748">
        <ele>779.3</ele>
        <time>2026-07-07T11:29:48.000Z</time>
      </trkpt>
      <trkpt lat="45.82863" lon="1.92748">
        <ele>779.3</ele>
        <time>2026-07-07T11:29:49.000Z</time>
      </trkpt>
      <trkpt lat="45.82863" lon="1.92748">
        <ele>779.4</ele>
        <time>2026-07-07T11:29:50.000Z</time>
      </trkpt>
      <trkpt lat="45.82863" lon="1.92748">
        <ele>779.4</ele>
        <time>2026-07-07T11:29:51.000Z</time>
      </trkpt>
      <trkpt lat="45.82863" lon="1.92748">
        <ele>779.4</ele>
        <time>2026-07-07T11:29:52.000Z</time>
      </trkpt>
      <trkpt lat="45.82863" lon="1.92748">
        <ele>779.4</ele>
        <time>2026-07-07T11:29:53.000Z</time>
      </trkpt>
      <trkpt lat="45.82863" lon="1.92748">
        <ele>779.4</ele>
        <time>2026-07-07T11:29:54.000Z</time>
      </trkpt>
      <trkpt lat="45.82863" lon="1.92748">
        <ele>779.4</ele>
        <time>2026-07-07T11:29:55.000Z</time>
      </trkpt>
      <trkpt lat="45.82863" lon="1.92748">
        <ele>779.4</ele>
        <time>2026-07-07T11:29:56.000Z</time>
      </trkpt>
      <trkpt lat="45.82863" lon="1.92748">
        <ele>779.4</ele>
        <time>2026-07-07T11:29:57.000Z</time>
      </trkpt>
      <trkpt lat="45.82863" lon="1.92748">
        <ele>779.4</ele>
        <time>2026-07-07T11:29:58.000Z</time>
      </trkpt>
      <trkpt lat="45.82863" lon="1.92748">
        <ele>779.4</ele>
        <time>2026-07-07T11:29:59.000Z</time>
      </trkpt>
      <trkpt lat="45.82863" lon="1.92748">
        <ele>779.4</ele>
        <time>2026-07-07T11:30:00.000Z</time>
      </trkpt>
      <trkpt lat="45.82863" lon="1.92748">
        <ele>779.4</ele>
        <time>2026-07-07T11:30:01.000Z</time>
      </trkpt>
      <trkpt lat="45.82863" lon="1.92748">
        <ele>779.4</ele>
        <time>2026-07-07T11:30:02.000Z</time>
      </trkpt>
      <trkpt lat="45.82863" lon="1.92748">
        <ele>779.4</ele>
        <time>2026-07-07T11:30:03.000Z</time>
      </trkpt>
      <trkpt lat="45.82863" lon="1.92748">
        <ele>779.4</ele>
        <time>2026-07-07T11:30:04.000Z</time>
      </trkpt>
      <trkpt lat="45.82863" lon="1.92748">
        <ele>779.4</ele>
        <time>2026-07-07T11:30:05.000Z</time>
      </trkpt>
      <trkpt lat="45.82863" lon="1.92748">
        <ele>779.4</ele>
        <time>2026-07-07T11:30:06.000Z</time>
      </trkpt>
      <trkpt lat="45.82863" lon="1.92748">
        <ele>779.4</ele>
        <time>2026-07-07T11:30:07.000Z</time>
      </trkpt>
      <trkpt lat="45.82863" lon="1.92748">
        <ele>779.4</ele>
        <time>2026-07-07T11:30:08.000Z</time>
      </trkpt>
      <trkpt lat="45.82863" lon="1.92748">
        <ele>779.4</ele>
        <time>2026-07-07T11:30:09.000Z</time>
      </trkpt>
      <trkpt lat="45.82863" lon="1.92748">
        <ele>779.4</ele>
        <time>2026-07-07T11:30:10.000Z</time>
      </trkpt>
      <trkpt lat="45.82863" lon="1.92748">
        <ele>779.4</ele>
        <time>2026-07-07T11:30:11.000Z</time>
      </trkpt>
      <trkpt lat="45.82863" lon="1.92748">
        <ele>779.4</ele>
        <time>2026-07-07T11:30:12.000Z</time>
      </trkpt>
      <trkpt lat="45.82863" lon="1.92748">
        <ele>779.4</ele>
        <time>2026-07-07T11:30:13.000Z</time>
      </trkpt>
      <trkpt lat="45.82863" lon="1.92748">
        <ele>779.4</ele>
        <time>2026-07-07T11:30:14.000Z</time>
      </trkpt>
      <trkpt lat="45.82863" lon="1.92748">
        <ele>779.4</ele>
        <time>2026-07-07T11:30:15.000Z</time>
      </trkpt>
      <trkpt lat="45.82863" lon="1.92748">
        <ele>779.5</ele>
        <time>2026-07-07T11:30:16.000Z</time>
      </trkpt>
      <trkpt lat="45.82863" lon="1.92748">
        <ele>779.5</ele>
        <time>2026-07-07T11:30:17.000Z</time>
      </trkpt>
      <trkpt lat="45.82863" lon="1.92748">
        <ele>779.5</ele>
        <time>2026-07-07T11:30:18.000Z</time>
      </trkpt>
      <trkpt lat="45.82863" lon="1.92748">
        <ele>779.5</ele>
        <time>2026-07-07T11:30:19.000Z</time>
      </trkpt>
      <trkpt lat="45.82863" lon="1.92748">
        <ele>779.5</ele>
        <time>2026-07-07T11:30:20.000Z</time>
      </trkpt>
      <trkpt lat="45.82863" lon="1.92748">
        <ele>779.5</ele>
        <time>2026-07-07T11:30:21.000Z</time>
      </trkpt>
      <trkpt lat="45.82863" lon="1.92748">
        <ele>779.5</ele>
        <time>2026-07-07T11:30:22.000Z</time>
      </trkpt>
      <trkpt lat="45.82863" lon="1.92748">
        <ele>779.5</ele>
        <time>2026-07-07T11:30:23.000Z</time>
      </trkpt>
      <trkpt lat="45.82863" lon="1.92748">
        <ele>779.5</ele>
        <time>2026-07-07T11:30:24.000Z</time>
      </trkpt>
      <trkpt lat="45.82863" lon="1.92748">
        <ele>779.5</ele>
        <time>2026-07-07T11:30:25.000Z</time>
      </trkpt>
      <trkpt lat="45.82863" lon="1.92748">
        <ele>779.5</ele>
        <time>2026-07-07T11:30:26.000Z</time>
      </trkpt>
      <trkpt lat="45.82863" lon="1.92748">
        <ele>779.5</ele>
        <time>2026-07-07T11:30:27.000Z</time>
      </trkpt>
      <trkpt lat="45.82863" lon="1.92748">
        <ele>779.5</ele>
        <time>2026-07-07T11:30:28.000Z</time>
      </trkpt>
      <trkpt lat="45.82863" lon="1.92748">
        <ele>779.5</ele>
        <time>2026-07-07T11:30:29.000Z</time>
      </trkpt>
      <trkpt lat="45.82863" lon="1.92748">
        <ele>779.5</ele>
        <time>2026-07-07T11:30:30.000Z</time>
      </trkpt>
      <trkpt lat="45.82863" lon="1.92748">
        <ele>779.5</ele>
        <time>2026-07-07T11:30:31.000Z</time>
      </trkpt>
      <trkpt lat="45.82863" lon="1.92748">
        <ele>779.5</ele>
        <time>2026-07-07T11:30:32.000Z</time>
      </trkpt>
      <trkpt lat="45.82863" lon="1.92748">
        <ele>779.5</ele>
        <time>2026-07-07T11:30:33.000Z</time>
      </trkpt>
      <trkpt lat="45.82863" lon="1.92748">
        <ele>779.5</ele>
        <time>2026-07-07T11:30:34.000Z</time>
      </trkpt>
      <trkpt lat="45.82863" lon="1.92748">
        <ele>779.5</ele>
        <time>2026-07-07T11:30:35.000Z</time>
      </trkpt>
      <trkpt lat="45.82863" lon="1.92748">
        <ele>779.5</ele>
        <time>2026-07-07T11:30:36.000Z</time>
      </trkpt>
      <trkpt lat="45.82863" lon="1.92748">
        <ele>779.5</ele>
        <time>2026-07-07T11:30:37.000Z</time>
      </trkpt>
      <trkpt lat="45.82863" lon="1.92748">
        <ele>779.5</ele>
        <time>2026-07-07T11:30:38.000Z</time>
      </trkpt>
      <trkpt lat="45.82863" lon="1.92748">
        <ele>779.5</ele>
        <time>2026-07-07T11:30:39.000Z</time>
      </trkpt>
      <trkpt lat="45.82863" lon="1.92748">
        <ele>779.5</ele>
        <time>2026-07-07T11:30:40.000Z</time>
      </trkpt>
      <trkpt lat="45.82863" lon="1.92748">
        <ele>779.5</ele>
        <time>2026-07-07T11:30:41.000Z</time>
      </trkpt>
      <trkpt lat="45.82863" lon="1.92748">
        <ele>779.5</ele>
        <time>2026-07-07T11:30:42.000Z</time>
      </trkpt>
      <trkpt lat="45.82863" lon="1.92748">
        <ele>779.5</ele>
        <time>2026-07-07T11:30:43.000Z</time>
      </trkpt>
      <trkpt lat="45.82863" lon="1.92748">
        <ele>779.5</ele>
        <time>2026-07-07T11:30:44.000Z</time>
      </trkpt>
      <trkpt lat="45.82863" lon="1.92748">
        <ele>779.5</ele>
        <time>2026-07-07T11:30:45.000Z</time>
      </trkpt>
      <trkpt lat="45.82863" lon="1.92748">
        <ele>779.5</ele>
        <time>2026-07-07T11:30:46.000Z</time>
      </trkpt>
      <trkpt lat="45.82863" lon="1.92748">
        <ele>779.5</ele>
        <time>2026-07-07T11:30:47.000Z</time>
      </trkpt>
      <trkpt lat="45.82863" lon="1.92748">
        <ele>779.5</ele>
        <time>2026-07-07T11:30:48.000Z</time>
      </trkpt>
      <trkpt lat="45.82863" lon="1.92748">
        <ele>779.5</ele>
        <time>2026-07-07T11:30:49.000Z</time>
      </trkpt>
      <trkpt lat="45.82863" lon="1.92748">
        <ele>779.5</ele>
        <time>2026-07-07T11:30:50.000Z</time>
      </trkpt>
      <trkpt lat="45.82863" lon="1.92748">
        <ele>779.5</ele>
        <time>2026-07-07T11:30:51.000Z</time>
      </trkpt>
      <trkpt lat="45.82863" lon="1.92748">
        <ele>779.5</ele>
        <time>2026-07-07T11:30:52.000Z</time>
      </trkpt>
      <trkpt lat="45.82863" lon="1.92748">
        <ele>779.5</ele>
        <time>2026-07-07T11:30:53.000Z</time>
      </trkpt>
      <trkpt lat="45.82863" lon="1.92748">
        <ele>779.5</ele>
        <time>2026-07-07T11:30:54.000Z</time>
      </trkpt>
      <trkpt lat="45.82863" lon="1.92748">
        <ele>779.5</ele>
        <time>2026-07-07T11:30:55.000Z</time>
      </trkpt>
      <trkpt lat="45.82863" lon="1.92748">
        <ele>779.5</ele>
        <time>2026-07-07T11:30:56.000Z</time>
      </trkpt>
      <trkpt lat="45.82863" lon="1.92748">
        <ele>779.5</ele>
        <time>2026-07-07T11:30:57.000Z</time>
      </trkpt>
      <trkpt lat="45.82863" lon="1.92748">
        <ele>779.5</ele>
        <time>2026-07-07T11:30:58.000Z</time>
      </trkpt>
      <trkpt lat="45.82863" lon="1.92748">
        <ele>779.5</ele>
        <time>2026-07-07T11:30:59.000Z</time>
      </trkpt>
      <trkpt lat="45.82863" lon="1.92748">
        <ele>779.5</ele>
        <time>2026-07-07T11:31:00.000Z</time>
      </trkpt>
      <trkpt lat="45.82863" lon="1.92748">
        <ele>779.6</ele>
        <time>2026-07-07T11:31:01.000Z</time>
      </trkpt>
      <trkpt lat="45.82863" lon="1.92748">
        <ele>779.6</ele>
        <time>2026-07-07T11:31:02.000Z</time>
      </trkpt>
      <trkpt lat="45.82863" lon="1.92748">
        <ele>779.6</ele>
        <time>2026-07-07T11:31:03.000Z</time>
      </trkpt>
      <trkpt lat="45.82863" lon="1.92748">
        <ele>779.6</ele>
        <time>2026-07-07T11:31:04.000Z</time>
      </trkpt>
      <trkpt lat="45.82863" lon="1.92748">
        <ele>779.6</ele>
        <time>2026-07-07T11:31:05.000Z</time>
      </trkpt>
      <trkpt lat="45.82863" lon="1.92748">
        <ele>779.6</ele>
        <time>2026-07-07T11:31:06.000Z</time>
      </trkpt>
      <trkpt lat="45.82863" lon="1.92748">
        <ele>779.6</ele>
        <time>2026-07-07T11:31:07.000Z</time>
      </trkpt>
      <trkpt lat="45.82863" lon="1.92748">
        <ele>779.6</ele>
        <time>2026-07-07T11:31:08.000Z</time>
      </trkpt>
      <trkpt lat="45.82863" lon="1.92748">
        <ele>779.6</ele>
        <time>2026-07-07T11:31:09.000Z</time>
      </trkpt>
      <trkpt lat="45.82863" lon="1.92748">
        <ele>779.6</ele>
        <time>2026-07-07T11:31:10.000Z</time>
      </trkpt>
      <trkpt lat="45.82863" lon="1.92748">
        <ele>779.6</ele>
        <time>2026-07-07T11:31:11.000Z</time>
      </trkpt>
      <trkpt lat="45.82863" lon="1.92748">
        <ele>779.6</ele>
        <time>2026-07-07T11:31:12.000Z</time>
      </trkpt>
      <trkpt lat="45.82863" lon="1.92748">
        <ele>779.6</ele>
        <time>2026-07-07T11:31:13.000Z</time>
      </trkpt>
      <trkpt lat="45.82863" lon="1.92748">
        <ele>779.6</ele>
        <time>2026-07-07T11:31:14.000Z</time>
      </trkpt>
      <trkpt lat="45.82863" lon="1.92748">
        <ele>779.6</ele>
        <time>2026-07-07T11:31:15.000Z</time>
      </trkpt>
      <trkpt lat="45.82863" lon="1.92748">
        <ele>779.6</ele>
        <time>2026-07-07T11:31:16.000Z</time>
      </trkpt>
      <trkpt lat="45.82863" lon="1.92748">
        <ele>779.6</ele>
        <time>2026-07-07T11:31:17.000Z</time>
      </trkpt>
      <trkpt lat="45.82863" lon="1.92748">
        <ele>779.6</ele>
        <time>2026-07-07T11:31:18.000Z</time>
      </trkpt>
      <trkpt lat="45.82863" lon="1.92748">
        <ele>779.6</ele>
        <time>2026-07-07T11:31:19.000Z</time>
      </trkpt>
      <trkpt lat="45.82863" lon="1.92748">
        <ele>779.6</ele>
        <time>2026-07-07T11:31:20.000Z</time>
      </trkpt>
      <trkpt lat="45.82863" lon="1.92748">
        <ele>779.6</ele>
        <time>2026-07-07T11:31:21.000Z</time>
      </trkpt>
      <trkpt lat="45.82863" lon="1.92748">
        <ele>779.6</ele>
        <time>2026-07-07T11:31:22.000Z</time>
      </trkpt>
      <trkpt lat="45.82863" lon="1.92748">
        <ele>779.6</ele>
        <time>2026-07-07T11:31:23.000Z</time>
      </trkpt>
      <trkpt lat="45.82863" lon="1.92748">
        <ele>779.6</ele>
        <time>2026-07-07T11:31:24.000Z</time>
      </trkpt>
      <trkpt lat="45.82863" lon="1.92748">
        <ele>779.6</ele>
        <time>2026-07-07T11:31:25.000Z</time>
      </trkpt>
      <trkpt lat="45.82863" lon="1.92748">
        <ele>779.6</ele>
        <time>2026-07-07T11:31:26.000Z</time>
      </trkpt>
      <trkpt lat="45.82863" lon="1.92748">
        <ele>779.6</ele>
        <time>2026-07-07T11:31:27.000Z</time>
      </trkpt>
      <trkpt lat="45.82863" lon="1.92748">
        <ele>779.6</ele>
        <time>2026-07-07T11:31:28.000Z</time>
      </trkpt>
      <trkpt lat="45.82863" lon="1.92748">
        <ele>779.6</ele>
        <time>2026-07-07T11:31:29.000Z</time>
      </trkpt>
      <trkpt lat="45.82863" lon="1.92748">
        <ele>779.6</ele>
        <time>2026-07-07T11:31:30.000Z</time>
      </trkpt>
      <trkpt lat="45.82863" lon="1.92748">
        <ele>779.6</ele>
        <time>2026-07-07T11:31:31.000Z</time>
      </trkpt>
      <trkpt lat="45.82863" lon="1.92748">
        <ele>779.6</ele>
        <time>2026-07-07T11:31:32.000Z</time>
      </trkpt>
      <trkpt lat="45.82863" lon="1.92748">
        <ele>779.6</ele>
        <time>2026-07-07T11:31:33.000Z</time>
      </trkpt>
      <trkpt lat="45.82863" lon="1.92748">
        <ele>779.6</ele>
        <time>2026-07-07T11:31:34.000Z</time>
      </trkpt>
      <trkpt lat="45.82863" lon="1.92748">
        <ele>779.6</ele>
        <time>2026-07-07T11:31:35.000Z</time>
      </trkpt>
      <trkpt lat="45.82863" lon="1.92748">
        <ele>779.6</ele>
        <time>2026-07-07T11:31:36.000Z</time>
      </trkpt>
      <trkpt lat="45.82863" lon="1.92748">
        <ele>779.6</ele>
        <time>2026-07-07T11:31:37.000Z</time>
      </trkpt>
      <trkpt lat="45.82863" lon="1.92748">
        <ele>779.6</ele>
        <time>2026-07-07T11:31:38.000Z</time>
      </trkpt>
      <trkpt lat="45.82863" lon="1.92748">
        <ele>779.6</ele>
        <time>2026-07-07T11:31:39.000Z</time>
      </trkpt>
      <trkpt lat="45.82863" lon="1.92748">
        <ele>779.6</ele>
        <time>2026-07-07T11:31:40.000Z</time>
      </trkpt>
      <trkpt lat="45.82863" lon="1.92748">
        <ele>779.6</ele>
        <time>2026-07-07T11:31:41.000Z</time>
      </trkpt>
      <trkpt lat="45.82863" lon="1.92748">
        <ele>779.6</ele>
        <time>2026-07-07T11:31:42.000Z</time>
      </trkpt>
      <trkpt lat="45.82863" lon="1.92748">
        <ele>779.6</ele>
        <time>2026-07-07T11:31:43.000Z</time>
      </trkpt>
      <trkpt lat="45.82863" lon="1.92748">
        <ele>779.6</ele>
        <time>2026-07-07T11:31:44.000Z</time>
      </trkpt>
      <trkpt lat="45.82863" lon="1.92748">
        <ele>779.6</ele>
        <time>2026-07-07T11:31:45.000Z</time>
      </trkpt>
      <trkpt lat="45.82863" lon="1.92748">
        <ele>779.6</ele>
        <time>2026-07-07T11:31:46.000Z</time>
      </trkpt>
      <trkpt lat="45.82863" lon="1.92748">
        <ele>779.6</ele>
        <time>2026-07-07T11:31:47.000Z</time>
      </trkpt>
      <trkpt lat="45.82863" lon="1.92748">
        <ele>779.7</ele>
        <time>2026-07-07T11:31:48.000Z</time>
      </trkpt>
      <trkpt lat="45.82863" lon="1.92748">
        <ele>779.7</ele>
        <time>2026-07-07T11:31:49.000Z</time>
      </trkpt>
      <trkpt lat="45.82863" lon="1.92748">
        <ele>779.7</ele>
        <time>2026-07-07T11:31:50.000Z</time>
      </trkpt>
      <trkpt lat="45.82863" lon="1.92748">
        <ele>779.7</ele>
        <time>2026-07-07T11:31:51.000Z</time>
      </trkpt>
      <trkpt lat="45.82863" lon="1.92748">
        <ele>779.7</ele>
        <time>2026-07-07T11:31:52.000Z</time>
      </trkpt>
      <trkpt lat="45.82863" lon="1.92748">
        <ele>779.7</ele>
        <time>2026-07-07T11:31:53.000Z</time>
      </trkpt>
      <trkpt lat="45.82863" lon="1.92748">
        <ele>779.7</ele>
        <time>2026-07-07T11:31:54.000Z</time>
      </trkpt>
      <trkpt lat="45.82863" lon="1.92748">
        <ele>779.7</ele>
        <time>2026-07-07T11:31:55.000Z</time>
      </trkpt>
      <trkpt lat="45.82863" lon="1.92748">
        <ele>779.7</ele>
        <time>2026-07-07T11:31:56.000Z</time>
      </trkpt>
      <trkpt lat="45.82863" lon="1.92748">
        <ele>779.7</ele>
        <time>2026-07-07T11:31:57.000Z</time>
      </trkpt>
      <trkpt lat="45.82863" lon="1.92748">
        <ele>779.7</ele>
        <time>2026-07-07T11:31:58.000Z</time>
      </trkpt>
      <trkpt lat="45.82863" lon="1.92748">
        <ele>779.7</ele>
        <time>2026-07-07T11:31:59.000Z</time>
      </trkpt>
      <trkpt lat="45.82863" lon="1.92748">
        <ele>779.7</ele>
        <time>2026-07-07T11:32:00.000Z</time>
      </trkpt>
      <trkpt lat="45.82863" lon="1.92748">
        <ele>779.7</ele>
        <time>2026-07-07T11:32:01.000Z</time>
      </trkpt>
      <trkpt lat="45.82863" lon="1.92748">
        <ele>779.7</ele>
        <time>2026-07-07T11:32:02.000Z</time>
      </trkpt>
      <trkpt lat="45.82863" lon="1.92748">
        <ele>779.7</ele>
        <time>2026-07-07T11:32:03.000Z</time>
      </trkpt>
      <trkpt lat="45.82863" lon="1.92748">
        <ele>779.7</ele>
        <time>2026-07-07T11:32:04.000Z</time>
      </trkpt>
      <trkpt lat="45.82863" lon="1.92748">
        <ele>779.7</ele>
        <time>2026-07-07T11:32:05.000Z</time>
      </trkpt>
      <trkpt lat="45.82863" lon="1.92748">
        <ele>779.7</ele>
        <time>2026-07-07T11:32:06.000Z</time>
      </trkpt>
      <trkpt lat="45.82863" lon="1.92748">
        <ele>779.7</ele>
        <time>2026-07-07T11:32:07.000Z</time>
      </trkpt>
      <trkpt lat="45.82863" lon="1.92748">
        <ele>779.7</ele>
        <time>2026-07-07T11:32:08.000Z</time>
      </trkpt>
      <trkpt lat="45.82863" lon="1.92748">
        <ele>779.7</ele>
        <time>2026-07-07T11:32:09.000Z</time>
      </trkpt>
      <trkpt lat="45.82863" lon="1.92748">
        <ele>779.7</ele>
        <time>2026-07-07T11:32:10.000Z</time>
      </trkpt>
      <trkpt lat="45.82863" lon="1.92748">
        <ele>779.7</ele>
        <time>2026-07-07T11:32:11.000Z</time>
      </trkpt>
      <trkpt lat="45.82863" lon="1.92748">
        <ele>779.7</ele>
        <time>2026-07-07T11:32:12.000Z</time>
      </trkpt>
      <trkpt lat="45.82863" lon="1.92748">
        <ele>779.7</ele>
        <time>2026-07-07T11:32:13.000Z</time>
      </trkpt>
      <trkpt lat="45.82863" lon="1.92748">
        <ele>779.7</ele>
        <time>2026-07-07T11:32:14.000Z</time>
      </trkpt>
      <trkpt lat="45.82863" lon="1.92748">
        <ele>779.7</ele>
        <time>2026-07-07T11:32:15.000Z</time>
      </trkpt>
      <trkpt lat="45.82863" lon="1.92748">
        <ele>779.7</ele>
        <time>2026-07-07T11:32:16.000Z</time>
      </trkpt>
      <trkpt lat="45.82863" lon="1.92748">
        <ele>779.7</ele>
        <time>2026-07-07T11:32:17.000Z</time>
      </trkpt>
      <trkpt lat="45.82863" lon="1.92748">
        <ele>779.7</ele>
        <time>2026-07-07T11:32:18.000Z</time>
      </trkpt>
      <trkpt lat="45.82863" lon="1.92748">
        <ele>779.7</ele>
        <time>2026-07-07T11:32:19.000Z</time>
      </trkpt>
      <trkpt lat="45.82863" lon="1.92748">
        <ele>779.7</ele>
        <time>2026-07-07T11:32:20.000Z</time>
      </trkpt>
      <trkpt lat="45.82863" lon="1.92748">
        <ele>779.7</ele>
        <time>2026-07-07T11:32:21.000Z</time>
      </trkpt>
      <trkpt lat="45.82863" lon="1.92748">
        <ele>779.7</ele>
        <time>2026-07-07T11:32:22.000Z</time>
      </trkpt>
      <trkpt lat="45.82863" lon="1.92748">
        <ele>779.7</ele>
        <time>2026-07-07T11:32:23.000Z</time>
      </trkpt>
      <trkpt lat="45.82863" lon="1.92748">
        <ele>779.7</ele>
        <time>2026-07-07T11:32:24.000Z</time>
      </trkpt>
      <trkpt lat="45.82863" lon="1.92748">
        <ele>779.7</ele>
        <time>2026-07-07T11:32:25.000Z</time>
      </trkpt>
      <trkpt lat="45.82863" lon="1.92748">
        <ele>779.7</ele>
        <time>2026-07-07T11:32:26.000Z</time>
      </trkpt>
      <trkpt lat="45.82863" lon="1.92748">
        <ele>779.7</ele>
        <time>2026-07-07T11:32:27.000Z</time>
      </trkpt>
      <trkpt lat="45.82863" lon="1.92748">
        <ele>779.7</ele>
        <time>2026-07-07T11:32:28.000Z</time>
      </trkpt>
      <trkpt lat="45.82863" lon="1.92748">
        <ele>779.7</ele>
        <time>2026-07-07T11:32:29.000Z</time>
      </trkpt>
      <trkpt lat="45.82863" lon="1.92748">
        <ele>779.7</ele>
        <time>2026-07-07T11:32:30.000Z</time>
      </trkpt>
      <trkpt lat="45.82863" lon="1.92748">
        <ele>779.7</ele>
        <time>2026-07-07T11:32:31.000Z</time>
      </trkpt>
      <trkpt lat="45.82863" lon="1.92748">
        <ele>779.7</ele>
        <time>2026-07-07T11:32:32.000Z</time>
      </trkpt>
      <trkpt lat="45.82863" lon="1.92748">
        <ele>779.6</ele>
        <time>2026-07-07T11:32:33.000Z</time>
      </trkpt>
      <trkpt lat="45.82863" lon="1.92748">
        <ele>779.6</ele>
        <time>2026-07-07T11:32:34.000Z</time>
      </trkpt>
      <trkpt lat="45.82863" lon="1.92748">
        <ele>779.6</ele>
        <time>2026-07-07T11:32:35.000Z</time>
      </trkpt>
      <trkpt lat="45.82863" lon="1.92748">
        <ele>779.6</ele>
        <time>2026-07-07T11:32:36.000Z</time>
      </trkpt>
      <trkpt lat="45.82863" lon="1.92748">
        <ele>779.6</ele>
        <time>2026-07-07T11:32:37.000Z</time>
      </trkpt>
      <trkpt lat="45.82863" lon="1.92748">
        <ele>779.6</ele>
        <time>2026-07-07T11:32:38.000Z</time>
      </trkpt>
      <trkpt lat="45.82863" lon="1.92748">
        <ele>779.6</ele>
        <time>2026-07-07T11:32:39.000Z</time>
      </trkpt>
      <trkpt lat="45.82863" lon="1.92748">
        <ele>779.6</ele>
        <time>2026-07-07T11:32:40.000Z</time>
      </trkpt>
      <trkpt lat="45.82863" lon="1.92748">
        <ele>779.6</ele>
        <time>2026-07-07T11:32:41.000Z</time>
      </trkpt>
      <trkpt lat="45.82863" lon="1.92748">
        <ele>779.6</ele>
        <time>2026-07-07T11:32:42.000Z</time>
      </trkpt>
      <trkpt lat="45.82863" lon="1.92748">
        <ele>779.6</ele>
        <time>2026-07-07T11:32:43.000Z</time>
      </trkpt>
      <trkpt lat="45.82863" lon="1.92748">
        <ele>779.6</ele>
        <time>2026-07-07T11:32:44.000Z</time>
      </trkpt>
      <trkpt lat="45.82863" lon="1.92748">
        <ele>779.6</ele>
        <time>2026-07-07T11:32:45.000Z</time>
      </trkpt>
      <trkpt lat="45.82863" lon="1.92748">
        <ele>779.6</ele>
        <time>2026-07-07T11:32:46.000Z</time>
      </trkpt>
      <trkpt lat="45.82863" lon="1.92748">
        <ele>779.7</ele>
        <time>2026-07-07T11:32:47.000Z</time>
      </trkpt>
      <trkpt lat="45.82863" lon="1.92748">
        <ele>779.7</ele>
        <time>2026-07-07T11:32:48.000Z</time>
      </trkpt>
      <trkpt lat="45.82863" lon="1.92748">
        <ele>779.7</ele>
        <time>2026-07-07T11:32:49.000Z</time>
      </trkpt>
      <trkpt lat="45.82863" lon="1.92748">
        <ele>779.7</ele>
        <time>2026-07-07T11:32:50.000Z</time>
      </trkpt>
      <trkpt lat="45.82863" lon="1.92748">
        <ele>779.7</ele>
        <time>2026-07-07T11:32:51.000Z</time>
      </trkpt>
      <trkpt lat="45.82863" lon="1.92748">
        <ele>779.7</ele>
        <time>2026-07-07T11:32:52.000Z</time>
      </trkpt>
      <trkpt lat="45.82863" lon="1.92748">
        <ele>779.7</ele>
        <time>2026-07-07T11:32:53.000Z</time>
      </trkpt>
      <trkpt lat="45.82863" lon="1.92748">
        <ele>779.7</ele>
        <time>2026-07-07T11:32:54.000Z</time>
      </trkpt>
      <trkpt lat="45.82863" lon="1.92748">
        <ele>779.7</ele>
        <time>2026-07-07T11:32:55.000Z</time>
      </trkpt>
      <trkpt lat="45.82863" lon="1.92747">
        <ele>779.7</ele>
        <time>2026-07-07T11:32:56.000Z</time>
      </trkpt>
      <trkpt lat="45.82863" lon="1.92747">
        <ele>779.7</ele>
        <time>2026-07-07T11:32:57.000Z</time>
      </trkpt>
      <trkpt lat="45.82863" lon="1.92747">
        <ele>779.7</ele>
        <time>2026-07-07T11:32:58.000Z</time>
      </trkpt>
      <trkpt lat="45.82863" lon="1.92747">
        <ele>779.7</ele>
        <time>2026-07-07T11:32:59.000Z</time>
      </trkpt>
      <trkpt lat="45.82863" lon="1.92747">
        <ele>779.7</ele>
        <time>2026-07-07T11:33:00.000Z</time>
      </trkpt>
      <trkpt lat="45.82863" lon="1.92747">
        <ele>779.7</ele>
        <time>2026-07-07T11:33:01.000Z</time>
      </trkpt>
      <trkpt lat="45.82863" lon="1.92747">
        <ele>779.7</ele>
        <time>2026-07-07T11:33:02.000Z</time>
      </trkpt>
      <trkpt lat="45.82863" lon="1.92747">
        <ele>779.7</ele>
        <time>2026-07-07T11:33:03.000Z</time>
      </trkpt>
      <trkpt lat="45.82863" lon="1.92747">
        <ele>779.7</ele>
        <time>2026-07-07T11:33:04.000Z</time>
      </trkpt>
      <trkpt lat="45.82863" lon="1.92747">
        <ele>779.7</ele>
        <time>2026-07-07T11:33:05.000Z</time>
      </trkpt>
      <trkpt lat="45.82863" lon="1.92747">
        <ele>779.7</ele>
        <time>2026-07-07T11:33:06.000Z</time>
      </trkpt>
      <trkpt lat="45.82863" lon="1.92747">
        <ele>779.7</ele>
        <time>2026-07-07T11:33:07.000Z</time>
      </trkpt>
      <trkpt lat="45.82863" lon="1.92747">
        <ele>779.7</ele>
        <time>2026-07-07T11:33:08.000Z</time>
      </trkpt>
      <trkpt lat="45.82863" lon="1.92747">
        <ele>779.7</ele>
        <time>2026-07-07T11:33:09.000Z</time>
      </trkpt>
      <trkpt lat="45.82863" lon="1.92747">
        <ele>779.7</ele>
        <time>2026-07-07T11:33:10.000Z</time>
      </trkpt>
      <trkpt lat="45.82863" lon="1.92747">
        <ele>779.6</ele>
        <time>2026-07-07T11:33:11.000Z</time>
      </trkpt>
      <trkpt lat="45.82863" lon="1.92747">
        <ele>779.6</ele>
        <time>2026-07-07T11:33:12.000Z</time>
      </trkpt>
      <trkpt lat="45.82863" lon="1.92747">
        <ele>779.6</ele>
        <time>2026-07-07T11:33:13.000Z</time>
      </trkpt>
      <trkpt lat="45.82863" lon="1.92747">
        <ele>779.6</ele>
        <time>2026-07-07T11:33:14.000Z</time>
      </trkpt>
      <trkpt lat="45.82863" lon="1.92747">
        <ele>779.6</ele>
        <time>2026-07-07T11:33:15.000Z</time>
      </trkpt>
      <trkpt lat="45.82863" lon="1.92747">
        <ele>779.6</ele>
        <time>2026-07-07T11:33:16.000Z</time>
      </trkpt>
      <trkpt lat="45.82863" lon="1.92747">
        <ele>779.6</ele>
        <time>2026-07-07T11:33:17.000Z</time>
      </trkpt>
      <trkpt lat="45.82863" lon="1.92747">
        <ele>779.6</ele>
        <time>2026-07-07T11:33:18.000Z</time>
      </trkpt>
      <trkpt lat="45.82863" lon="1.92747">
        <ele>779.6</ele>
        <time>2026-07-07T11:33:19.000Z</time>
      </trkpt>
      <trkpt lat="45.82863" lon="1.92747">
        <ele>779.6</ele>
        <time>2026-07-07T11:33:20.000Z</time>
      </trkpt>
      <trkpt lat="45.82863" lon="1.92747">
        <ele>779.6</ele>
        <time>2026-07-07T11:33:21.000Z</time>
      </trkpt>
      <trkpt lat="45.82863" lon="1.92747">
        <ele>779.6</ele>
        <time>2026-07-07T11:33:22.000Z</time>
      </trkpt>
      <trkpt lat="45.82863" lon="1.92747">
        <ele>779.6</ele>
        <time>2026-07-07T11:33:23.000Z</time>
      </trkpt>
      <trkpt lat="45.82863" lon="1.92747">
        <ele>779.6</ele>
        <time>2026-07-07T11:33:24.000Z</time>
      </trkpt>
      <trkpt lat="45.82863" lon="1.92747">
        <ele>779.6</ele>
        <time>2026-07-07T11:33:25.000Z</time>
      </trkpt>
      <trkpt lat="45.82863" lon="1.92747">
        <ele>779.6</ele>
        <time>2026-07-07T11:33:26.000Z</time>
      </trkpt>
      <trkpt lat="45.82863" lon="1.92747">
        <ele>779.6</ele>
        <time>2026-07-07T11:33:27.000Z</time>
      </trkpt>
      <trkpt lat="45.82863" lon="1.92747">
        <ele>779.6</ele>
        <time>2026-07-07T11:33:28.000Z</time>
      </trkpt>
      <trkpt lat="45.82863" lon="1.92747">
        <ele>779.6</ele>
        <time>2026-07-07T11:33:29.000Z</time>
      </trkpt>
      <trkpt lat="45.82863" lon="1.92747">
        <ele>779.7</ele>
        <time>2026-07-07T11:33:30.000Z</time>
      </trkpt>
      <trkpt lat="45.82863" lon="1.92747">
        <ele>779.7</ele>
        <time>2026-07-07T11:33:31.000Z</time>
      </trkpt>
      <trkpt lat="45.82863" lon="1.92747">
        <ele>779.7</ele>
        <time>2026-07-07T11:33:32.000Z</time>
      </trkpt>
      <trkpt lat="45.82863" lon="1.92747">
        <ele>779.7</ele>
        <time>2026-07-07T11:33:33.000Z</time>
      </trkpt>
      <trkpt lat="45.82863" lon="1.92747">
        <ele>779.7</ele>
        <time>2026-07-07T11:33:34.000Z</time>
      </trkpt>
      <trkpt lat="45.82863" lon="1.92747">
        <ele>779.7</ele>
        <time>2026-07-07T11:33:35.000Z</time>
      </trkpt>
      <trkpt lat="45.82863" lon="1.92747">
        <ele>779.7</ele>
        <time>2026-07-07T11:33:36.000Z</time>
      </trkpt>
      <trkpt lat="45.82863" lon="1.92747">
        <ele>779.7</ele>
        <time>2026-07-07T11:33:37.000Z</time>
      </trkpt>
      <trkpt lat="45.82863" lon="1.92747">
        <ele>779.7</ele>
        <time>2026-07-07T11:33:38.000Z</time>
      </trkpt>
      <trkpt lat="45.82863" lon="1.92747">
        <ele>779.7</ele>
        <time>2026-07-07T11:33:39.000Z</time>
      </trkpt>
      <trkpt lat="45.82863" lon="1.92747">
        <ele>779.7</ele>
        <time>2026-07-07T11:33:40.000Z</time>
      </trkpt>
      <trkpt lat="45.82863" lon="1.92747">
        <ele>779.7</ele>
        <time>2026-07-07T11:33:41.000Z</time>
      </trkpt>
      <trkpt lat="45.82863" lon="1.92747">
        <ele>779.7</ele>
        <time>2026-07-07T11:33:42.000Z</time>
      </trkpt>
      <trkpt lat="45.82863" lon="1.92747">
        <ele>779.7</ele>
        <time>2026-07-07T11:33:43.000Z</time>
      </trkpt>
      <trkpt lat="45.82863" lon="1.92747">
        <ele>779.7</ele>
        <time>2026-07-07T11:33:44.000Z</time>
      </trkpt>
      <trkpt lat="45.82863" lon="1.92747">
        <ele>779.7</ele>
        <time>2026-07-07T11:33:45.000Z</time>
      </trkpt>
      <trkpt lat="45.82863" lon="1.92747">
        <ele>779.7</ele>
        <time>2026-07-07T11:33:46.000Z</time>
      </trkpt>
      <trkpt lat="45.82863" lon="1.92747">
        <ele>779.7</ele>
        <time>2026-07-07T11:33:47.000Z</time>
      </trkpt>
      <trkpt lat="45.82863" lon="1.92747">
        <ele>779.7</ele>
        <time>2026-07-07T11:33:48.000Z</time>
      </trkpt>
      <trkpt lat="45.82863" lon="1.92747">
        <ele>779.7</ele>
        <time>2026-07-07T11:33:49.000Z</time>
      </trkpt>
      <trkpt lat="45.82863" lon="1.92747">
        <ele>779.7</ele>
        <time>2026-07-07T11:33:50.000Z</time>
      </trkpt>
      <trkpt lat="45.82863" lon="1.92747">
        <ele>779.7</ele>
        <time>2026-07-07T11:33:51.000Z</time>
      </trkpt>
      <trkpt lat="45.82863" lon="1.92747">
        <ele>779.7</ele>
        <time>2026-07-07T11:33:52.000Z</time>
      </trkpt>
      <trkpt lat="45.82863" lon="1.92747">
        <ele>779.7</ele>
        <time>2026-07-07T11:33:53.000Z</time>
      </trkpt>
      <trkpt lat="45.82863" lon="1.92747">
        <ele>779.7</ele>
        <time>2026-07-07T11:33:54.000Z</time>
      </trkpt>
      <trkpt lat="45.82863" lon="1.92747">
        <ele>779.7</ele>
        <time>2026-07-07T11:33:55.000Z</time>
      </trkpt>
      <trkpt lat="45.82863" lon="1.92748">
        <ele>779.7</ele>
        <time>2026-07-07T11:33:56.000Z</time>
      </trkpt>
      <trkpt lat="45.82863" lon="1.92748">
        <ele>779.7</ele>
        <time>2026-07-07T11:33:57.000Z</time>
      </trkpt>
      <trkpt lat="45.82863" lon="1.92747">
        <ele>779.7</ele>
        <time>2026-07-07T11:33:58.000Z</time>
      </trkpt>
      <trkpt lat="45.82863" lon="1.92747">
        <ele>779.7</ele>
        <time>2026-07-07T11:33:59.000Z</time>
      </trkpt>
      <trkpt lat="45.82863" lon="1.92747">
        <ele>779.7</ele>
        <time>2026-07-07T11:34:00.000Z</time>
      </trkpt>
      <trkpt lat="45.82863" lon="1.92747">
        <ele>779.7</ele>
        <time>2026-07-07T11:34:01.000Z</time>
      </trkpt>
      <trkpt lat="45.82863" lon="1.92747">
        <ele>779.7</ele>
        <time>2026-07-07T11:34:02.000Z</time>
      </trkpt>
      <trkpt lat="45.82863" lon="1.92747">
        <ele>779.7</ele>
        <time>2026-07-07T11:34:03.000Z</time>
      </trkpt>
      <trkpt lat="45.82863" lon="1.92747">
        <ele>779.7</ele>
        <time>2026-07-07T11:34:04.000Z</time>
      </trkpt>
      <trkpt lat="45.82863" lon="1.92748">
        <ele>779.7</ele>
        <time>2026-07-07T11:34:05.000Z</time>
      </trkpt>
      <trkpt lat="45.82863" lon="1.92748">
        <ele>779.7</ele>
        <time>2026-07-07T11:34:06.000Z</time>
      </trkpt>
      <trkpt lat="45.82863" lon="1.92748">
        <ele>779.7</ele>
        <time>2026-07-07T11:34:07.000Z</time>
      </trkpt>
      <trkpt lat="45.82863" lon="1.92748">
        <ele>779.7</ele>
        <time>2026-07-07T11:34:08.000Z</time>
      </trkpt>
      <trkpt lat="45.82863" lon="1.92748">
        <ele>779.7</ele>
        <time>2026-07-07T11:34:09.000Z</time>
      </trkpt>
      <trkpt lat="45.82863" lon="1.92748">
        <ele>779.7</ele>
        <time>2026-07-07T11:34:10.000Z</time>
      </trkpt>
      <trkpt lat="45.82863" lon="1.92748">
        <ele>779.7</ele>
        <time>2026-07-07T11:34:11.000Z</time>
      </trkpt>
      <trkpt lat="45.82863" lon="1.92748">
        <ele>779.7</ele>
        <time>2026-07-07T11:34:12.000Z</time>
      </trkpt>
      <trkpt lat="45.82863" lon="1.92748">
        <ele>779.7</ele>
        <time>2026-07-07T11:34:13.000Z</time>
      </trkpt>
      <trkpt lat="45.82863" lon="1.92748">
        <ele>779.7</ele>
        <time>2026-07-07T11:34:14.000Z</time>
      </trkpt>
      <trkpt lat="45.82863" lon="1.92748">
        <ele>779.7</ele>
        <time>2026-07-07T11:34:15.000Z</time>
      </trkpt>
      <trkpt lat="45.82863" lon="1.92748">
        <ele>779.4</ele>
        <time>2026-07-07T11:34:16.000Z</time>
      </trkpt>
      <trkpt lat="45.82863" lon="1.92749">
        <ele>779.2</ele>
        <time>2026-07-07T11:34:17.000Z</time>
      </trkpt>
      <trkpt lat="45.82863" lon="1.92749">
        <ele>779.2</ele>
        <time>2026-07-07T11:34:18.000Z</time>
      </trkpt>
      <trkpt lat="45.82863" lon="1.92749">
        <ele>779.2</ele>
        <time>2026-07-07T11:34:19.000Z</time>
      </trkpt>
      <trkpt lat="45.82863" lon="1.92749">
        <ele>779.2</ele>
        <time>2026-07-07T11:34:20.000Z</time>
      </trkpt>
      <trkpt lat="45.82864" lon="1.92749">
        <ele>779.3</ele>
        <time>2026-07-07T11:34:21.000Z</time>
      </trkpt>
      <trkpt lat="45.82863" lon="1.92749">
        <ele>779.3</ele>
        <time>2026-07-07T11:34:22.000Z</time>
      </trkpt>
      <trkpt lat="45.82863" lon="1.92749">
        <ele>779.3</ele>
        <time>2026-07-07T11:34:23.000Z</time>
      </trkpt>
      <trkpt lat="45.82863" lon="1.92749">
        <ele>779.6</ele>
        <time>2026-07-07T11:34:24.000Z</time>
      </trkpt>
      <trkpt lat="45.82864" lon="1.92749">
        <ele>778.9</ele>
        <time>2026-07-07T11:34:25.000Z</time>
      </trkpt>
      <trkpt lat="45.82864" lon="1.92749">
        <ele>779</ele>
        <time>2026-07-07T11:34:26.000Z</time>
      </trkpt>
      <trkpt lat="45.82864" lon="1.92749">
        <ele>779.7</ele>
        <time>2026-07-07T11:34:27.000Z</time>
      </trkpt>
      <trkpt lat="45.82864" lon="1.9275">
        <ele>779.7</ele>
        <time>2026-07-07T11:34:28.000Z</time>
      </trkpt>
      <trkpt lat="45.82864" lon="1.9275">
        <ele>779.7</ele>
        <time>2026-07-07T11:34:29.000Z</time>
      </trkpt>
      <trkpt lat="45.82864" lon="1.9275">
        <ele>778.9</ele>
        <time>2026-07-07T11:34:30.000Z</time>
      </trkpt>
      <trkpt lat="45.82864" lon="1.9275">
        <ele>778.9</ele>
        <time>2026-07-07T11:34:31.000Z</time>
      </trkpt>
      <trkpt lat="45.82864" lon="1.9275">
        <ele>778.9</ele>
        <time>2026-07-07T11:34:32.000Z</time>
      </trkpt>
      <trkpt lat="45.82864" lon="1.9275">
        <ele>778.9</ele>
        <time>2026-07-07T11:34:33.000Z</time>
      </trkpt>
      <trkpt lat="45.82864" lon="1.9275">
        <ele>778.9</ele>
        <time>2026-07-07T11:34:34.000Z</time>
      </trkpt>
      <trkpt lat="45.82864" lon="1.9275">
        <ele>778.9</ele>
        <time>2026-07-07T11:34:35.000Z</time>
      </trkpt>
      <trkpt lat="45.82864" lon="1.9275">
        <ele>778.9</ele>
        <time>2026-07-07T11:34:36.000Z</time>
      </trkpt>
      <trkpt lat="45.82864" lon="1.9275">
        <ele>778.9</ele>
        <time>2026-07-07T11:34:37.000Z</time>
      </trkpt>
      <trkpt lat="45.82864" lon="1.9275">
        <ele>778.9</ele>
        <time>2026-07-07T11:34:38.000Z</time>
      </trkpt>
      <trkpt lat="45.82864" lon="1.9275">
        <ele>778.9</ele>
        <time>2026-07-07T11:34:39.000Z</time>
      </trkpt>
      <trkpt lat="45.82864" lon="1.9275">
        <ele>778.9</ele>
        <time>2026-07-07T11:34:40.000Z</time>
      </trkpt>
      <trkpt lat="45.82864" lon="1.9275">
        <ele>778.9</ele>
        <time>2026-07-07T11:34:41.000Z</time>
      </trkpt>
      <trkpt lat="45.82864" lon="1.9275">
        <ele>778.6</ele>
        <time>2026-07-07T11:34:42.000Z</time>
      </trkpt>
      <trkpt lat="45.82864" lon="1.9275">
        <ele>778.6</ele>
        <time>2026-07-07T11:34:43.000Z</time>
      </trkpt>
      <trkpt lat="45.82864" lon="1.9275">
        <ele>778.6</ele>
        <time>2026-07-07T11:34:44.000Z</time>
      </trkpt>
      <trkpt lat="45.82864" lon="1.9275">
        <ele>778.6</ele>
        <time>2026-07-07T11:34:45.000Z</time>
      </trkpt>
      <trkpt lat="45.82864" lon="1.9275">
        <ele>778.6</ele>
        <time>2026-07-07T11:34:46.000Z</time>
      </trkpt>
      <trkpt lat="45.82864" lon="1.9275">
        <ele>778.6</ele>
        <time>2026-07-07T11:34:47.000Z</time>
      </trkpt>
      <trkpt lat="45.82864" lon="1.9275">
        <ele>778.6</ele>
        <time>2026-07-07T11:34:48.000Z</time>
      </trkpt>
      <trkpt lat="45.82864" lon="1.9275">
        <ele>778.6</ele>
        <time>2026-07-07T11:34:49.000Z</time>
      </trkpt>
      <trkpt lat="45.82864" lon="1.9275">
        <ele>778.6</ele>
        <time>2026-07-07T11:34:50.000Z</time>
      </trkpt>
      <trkpt lat="45.82864" lon="1.9275">
        <ele>778.6</ele>
        <time>2026-07-07T11:34:51.000Z</time>
      </trkpt>
      <trkpt lat="45.82864" lon="1.9275">
        <ele>778.6</ele>
        <time>2026-07-07T11:34:52.000Z</time>
      </trkpt>
      <trkpt lat="45.82864" lon="1.9275">
        <ele>778.6</ele>
        <time>2026-07-07T11:34:53.000Z</time>
      </trkpt>
      <trkpt lat="45.82864" lon="1.9275">
        <ele>778.6</ele>
        <time>2026-07-07T11:34:54.000Z</time>
      </trkpt>
      <trkpt lat="45.82864" lon="1.9275">
        <ele>778.6</ele>
        <time>2026-07-07T11:34:55.000Z</time>
      </trkpt>
      <trkpt lat="45.82864" lon="1.9275">
        <ele>778.6</ele>
        <time>2026-07-07T11:34:56.000Z</time>
      </trkpt>
      <trkpt lat="45.82864" lon="1.9275">
        <ele>778.6</ele>
        <time>2026-07-07T11:34:57.000Z</time>
      </trkpt>
      <trkpt lat="45.82864" lon="1.9275">
        <ele>778.6</ele>
        <time>2026-07-07T11:34:58.000Z</time>
      </trkpt>
      <trkpt lat="45.82864" lon="1.9275">
        <ele>778.6</ele>
        <time>2026-07-07T11:34:59.000Z</time>
      </trkpt>
      <trkpt lat="45.82864" lon="1.9275">
        <ele>778.6</ele>
        <time>2026-07-07T11:35:00.000Z</time>
      </trkpt>
      <trkpt lat="45.82864" lon="1.9275">
        <ele>778.6</ele>
        <time>2026-07-07T11:35:01.000Z</time>
      </trkpt>
      <trkpt lat="45.82864" lon="1.9275">
        <ele>778.6</ele>
        <time>2026-07-07T11:35:02.000Z</time>
      </trkpt>
      <trkpt lat="45.82864" lon="1.9275">
        <ele>778.7</ele>
        <time>2026-07-07T11:35:03.000Z</time>
      </trkpt>
      <trkpt lat="45.82864" lon="1.9275">
        <ele>778.4</ele>
        <time>2026-07-07T11:35:04.000Z</time>
      </trkpt>
      <trkpt lat="45.82863" lon="1.92749">
        <ele>778.3</ele>
        <time>2026-07-07T11:35:05.000Z</time>
      </trkpt>
      <trkpt lat="45.82863" lon="1.92748">
        <ele>778.3</ele>
        <time>2026-07-07T11:35:06.000Z</time>
      </trkpt>
      <trkpt lat="45.82862" lon="1.92746">
        <ele>779</ele>
        <time>2026-07-07T11:35:07.000Z</time>
      </trkpt>
      <trkpt lat="45.82861" lon="1.92744">
        <ele>779.3</ele>
        <time>2026-07-07T11:35:08.000Z</time>
      </trkpt>
      <trkpt lat="45.8286" lon="1.92742">
        <ele>778.5</ele>
        <time>2026-07-07T11:35:09.000Z</time>
      </trkpt>
      <trkpt lat="45.82859" lon="1.92742">
        <ele>778.6</ele>
        <time>2026-07-07T11:35:10.000Z</time>
      </trkpt>
      <trkpt lat="45.82859" lon="1.92741">
        <ele>779.2</ele>
        <time>2026-07-07T11:35:11.000Z</time>
      </trkpt>
      <trkpt lat="45.82858" lon="1.92739">
        <ele>778.9</ele>
        <time>2026-07-07T11:35:12.000Z</time>
      </trkpt>
      <trkpt lat="45.82857" lon="1.92738">
        <ele>778.6</ele>
        <time>2026-07-07T11:35:13.000Z</time>
      </trkpt>
      <trkpt lat="45.82857" lon="1.92737">
        <ele>778.5</ele>
        <time>2026-07-07T11:35:14.000Z</time>
      </trkpt>
      <trkpt lat="45.82857" lon="1.92735">
        <ele>778.4</ele>
        <time>2026-07-07T11:35:15.000Z</time>
      </trkpt>
      <trkpt lat="45.82857" lon="1.92733">
        <ele>777.9</ele>
        <time>2026-07-07T11:35:16.000Z</time>
      </trkpt>
      <trkpt lat="45.82857" lon="1.92731">
        <ele>776.9</ele>
        <time>2026-07-07T11:35:17.000Z</time>
      </trkpt>
      <trkpt lat="45.82856" lon="1.9273">
        <ele>777</ele>
        <time>2026-07-07T11:35:18.000Z</time>
      </trkpt>
      <trkpt lat="45.82857" lon="1.92728">
        <ele>776.7</ele>
        <time>2026-07-07T11:35:19.000Z</time>
      </trkpt>
      <trkpt lat="45.82856" lon="1.92726">
        <ele>775.8</ele>
        <time>2026-07-07T11:35:20.000Z</time>
      </trkpt>
      <trkpt lat="45.82856" lon="1.92726">
        <ele>774.9</ele>
        <time>2026-07-07T11:35:21.000Z</time>
      </trkpt>
      <trkpt lat="45.82855" lon="1.92725">
        <ele>774.3</ele>
        <time>2026-07-07T11:35:22.000Z</time>
      </trkpt>
      <trkpt lat="45.82855" lon="1.92725">
        <ele>772.9</ele>
        <time>2026-07-07T11:35:23.000Z</time>
      </trkpt>
      <trkpt lat="45.82855" lon="1.92726">
        <ele>775.2</ele>
        <time>2026-07-07T11:35:24.000Z</time>
      </trkpt>
      <trkpt lat="45.82856" lon="1.92727">
        <ele>775.2</ele>
        <time>2026-07-07T11:35:25.000Z</time>
      </trkpt>
      <trkpt lat="45.82856" lon="1.92727">
        <ele>775.2</ele>
        <time>2026-07-07T11:35:26.000Z</time>
      </trkpt>
      <trkpt lat="45.82856" lon="1.92727">
        <ele>775.2</ele>
        <time>2026-07-07T11:35:27.000Z</time>
      </trkpt>
      <trkpt lat="45.82856" lon="1.92727">
        <ele>775.3</ele>
        <time>2026-07-07T11:35:28.000Z</time>
      </trkpt>
      <trkpt lat="45.82855" lon="1.92728">
        <ele>775.3</ele>
        <time>2026-07-07T11:35:29.000Z</time>
      </trkpt>
      <trkpt lat="45.82854" lon="1.92729">
        <ele>775</ele>
        <time>2026-07-07T11:35:30.000Z</time>
      </trkpt>
      <trkpt lat="45.82852" lon="1.92728">
        <ele>773.3</ele>
        <time>2026-07-07T11:35:31.000Z</time>
      </trkpt>
      <trkpt lat="45.82851" lon="1.92727">
        <ele>773</ele>
        <time>2026-07-07T11:35:32.000Z</time>
      </trkpt>
      <trkpt lat="45.8285" lon="1.92726">
        <ele>772.5</ele>
        <time>2026-07-07T11:35:33.000Z</time>
      </trkpt>
      <trkpt lat="45.82849" lon="1.92725">
        <ele>771.6</ele>
        <time>2026-07-07T11:35:34.000Z</time>
      </trkpt>
      <trkpt lat="45.82847" lon="1.92727">
        <ele>771.1</ele>
        <time>2026-07-07T11:35:35.000Z</time>
      </trkpt>
      <trkpt lat="45.82849" lon="1.92728">
        <ele>773.7</ele>
        <time>2026-07-07T11:35:36.000Z</time>
      </trkpt>
      <trkpt lat="45.82849" lon="1.92728">
        <ele>773.6</ele>
        <time>2026-07-07T11:35:37.000Z</time>
      </trkpt>
      <trkpt lat="45.82849" lon="1.92729">
        <ele>773.6</ele>
        <time>2026-07-07T11:35:38.000Z</time>
      </trkpt>
      <trkpt lat="45.82849" lon="1.92728">
        <ele>773.8</ele>
        <time>2026-07-07T11:35:39.000Z</time>
      </trkpt>
      <trkpt lat="45.82849" lon="1.92728">
        <ele>774.1</ele>
        <time>2026-07-07T11:35:40.000Z</time>
      </trkpt>
      <trkpt lat="45.8285" lon="1.92729">
        <ele>774</ele>
        <time>2026-07-07T11:35:41.000Z</time>
      </trkpt>
      <trkpt lat="45.8285" lon="1.92729">
        <ele>774.7</ele>
        <time>2026-07-07T11:35:42.000Z</time>
      </trkpt>
      <trkpt lat="45.82851" lon="1.9273">
        <ele>775.1</ele>
        <time>2026-07-07T11:35:43.000Z</time>
      </trkpt>
      <trkpt lat="45.82851" lon="1.92732">
        <ele>775.8</ele>
        <time>2026-07-07T11:35:44.000Z</time>
      </trkpt>
      <trkpt lat="45.82851" lon="1.92732">
        <ele>775.6</ele>
        <time>2026-07-07T11:35:45.000Z</time>
      </trkpt>
      <trkpt lat="45.82851" lon="1.92732">
        <ele>775.6</ele>
        <time>2026-07-07T11:35:46.000Z</time>
      </trkpt>
      <trkpt lat="45.82851" lon="1.92732">
        <ele>775.6</ele>
        <time>2026-07-07T11:35:47.000Z</time>
      </trkpt>
      <trkpt lat="45.82851" lon="1.92732">
        <ele>775.6</ele>
        <time>2026-07-07T11:35:48.000Z</time>
      </trkpt>
      <trkpt lat="45.82851" lon="1.92732">
        <ele>775.6</ele>
        <time>2026-07-07T11:35:49.000Z</time>
      </trkpt>
      <trkpt lat="45.82851" lon="1.92732">
        <ele>775.6</ele>
        <time>2026-07-07T11:35:50.000Z</time>
      </trkpt>
      <trkpt lat="45.82851" lon="1.92732">
        <ele>775.6</ele>
        <time>2026-07-07T11:35:51.000Z</time>
      </trkpt>
      <trkpt lat="45.82851" lon="1.92732">
        <ele>775.6</ele>
        <time>2026-07-07T11:35:52.000Z</time>
      </trkpt>
      <trkpt lat="45.82851" lon="1.92732">
        <ele>775.6</ele>
        <time>2026-07-07T11:35:53.000Z</time>
      </trkpt>
      <trkpt lat="45.82851" lon="1.9273">
        <ele>775.3</ele>
        <time>2026-07-07T11:35:54.000Z</time>
      </trkpt>
      <trkpt lat="45.82851" lon="1.92729">
        <ele>775.1</ele>
        <time>2026-07-07T11:35:55.000Z</time>
      </trkpt>
      <trkpt lat="45.82852" lon="1.92727">
        <ele>775</ele>
        <time>2026-07-07T11:35:56.000Z</time>
      </trkpt>
      <trkpt lat="45.82853" lon="1.92725">
        <ele>775.2</ele>
        <time>2026-07-07T11:35:57.000Z</time>
      </trkpt>
      <trkpt lat="45.82854" lon="1.92723">
        <ele>774.6</ele>
        <time>2026-07-07T11:35:58.000Z</time>
      </trkpt>
      <trkpt lat="45.82853" lon="1.92721">
        <ele>774.2</ele>
        <time>2026-07-07T11:35:59.000Z</time>
      </trkpt>
      <trkpt lat="45.82853" lon="1.92719">
        <ele>774</ele>
        <time>2026-07-07T11:36:00.000Z</time>
      </trkpt>
      <trkpt lat="45.82852" lon="1.92718">
        <ele>773.2</ele>
        <time>2026-07-07T11:36:01.000Z</time>
      </trkpt>
      <trkpt lat="45.82852" lon="1.92719">
        <ele>771.3</ele>
        <time>2026-07-07T11:36:02.000Z</time>
      </trkpt>
      <trkpt lat="45.82851" lon="1.9272">
        <ele>771.3</ele>
        <time>2026-07-07T11:36:03.000Z</time>
      </trkpt>
      <trkpt lat="45.82851" lon="1.9272">
        <ele>771.3</ele>
        <time>2026-07-07T11:36:04.000Z</time>
      </trkpt>
      <trkpt lat="45.82851" lon="1.9272">
        <ele>771.3</ele>
        <time>2026-07-07T11:36:05.000Z</time>
      </trkpt>
      <trkpt lat="45.82851" lon="1.9272">
        <ele>771.3</ele>
        <time>2026-07-07T11:36:06.000Z</time>
      </trkpt>
      <trkpt lat="45.82851" lon="1.9272">
        <ele>771.3</ele>
        <time>2026-07-07T11:36:07.000Z</time>
      </trkpt>
      <trkpt lat="45.82851" lon="1.9272">
        <ele>771.3</ele>
        <time>2026-07-07T11:36:08.000Z</time>
      </trkpt>
      <trkpt lat="45.82851" lon="1.9272">
        <ele>771.3</ele>
        <time>2026-07-07T11:36:09.000Z</time>
      </trkpt>
      <trkpt lat="45.82851" lon="1.9272">
        <ele>771.3</ele>
        <time>2026-07-07T11:36:10.000Z</time>
      </trkpt>
      <trkpt lat="45.82851" lon="1.9272">
        <ele>771.3</ele>
        <time>2026-07-07T11:36:11.000Z</time>
      </trkpt>
      <trkpt lat="45.82851" lon="1.9272">
        <ele>771.3</ele>
        <time>2026-07-07T11:36:12.000Z</time>
      </trkpt>
      <trkpt lat="45.82851" lon="1.9272">
        <ele>771.3</ele>
        <time>2026-07-07T11:36:13.000Z</time>
      </trkpt>
      <trkpt lat="45.82851" lon="1.9272">
        <ele>771.3</ele>
        <time>2026-07-07T11:36:14.000Z</time>
      </trkpt>
      <trkpt lat="45.82851" lon="1.9272">
        <ele>771.3</ele>
        <time>2026-07-07T11:36:15.000Z</time>
      </trkpt>
      <trkpt lat="45.82851" lon="1.9272">
        <ele>771.4</ele>
        <time>2026-07-07T11:36:16.000Z</time>
      </trkpt>
      <trkpt lat="45.82852" lon="1.9272">
        <ele>771.4</ele>
        <time>2026-07-07T11:36:17.000Z</time>
      </trkpt>
      <trkpt lat="45.82852" lon="1.9272">
        <ele>771.4</ele>
        <time>2026-07-07T11:36:18.000Z</time>
      </trkpt>
      <trkpt lat="45.82852" lon="1.9272">
        <ele>771.4</ele>
        <time>2026-07-07T11:36:19.000Z</time>
      </trkpt>
      <trkpt lat="45.82852" lon="1.9272">
        <ele>771.4</ele>
        <time>2026-07-07T11:36:20.000Z</time>
      </trkpt>
      <trkpt lat="45.82852" lon="1.9272">
        <ele>771.4</ele>
        <time>2026-07-07T11:36:21.000Z</time>
      </trkpt>
      <trkpt lat="45.82852" lon="1.9272">
        <ele>771.4</ele>
        <time>2026-07-07T11:36:22.000Z</time>
      </trkpt>
      <trkpt lat="45.82852" lon="1.9272">
        <ele>771.5</ele>
        <time>2026-07-07T11:36:23.000Z</time>
      </trkpt>
      <trkpt lat="45.82852" lon="1.9272">
        <ele>771.5</ele>
        <time>2026-07-07T11:36:24.000Z</time>
      </trkpt>
      <trkpt lat="45.82852" lon="1.9272">
        <ele>771.5</ele>
        <time>2026-07-07T11:36:25.000Z</time>
      </trkpt>
      <trkpt lat="45.82852" lon="1.9272">
        <ele>771.5</ele>
        <time>2026-07-07T11:36:26.000Z</time>
      </trkpt>
      <trkpt lat="45.82852" lon="1.9272">
        <ele>771.5</ele>
        <time>2026-07-07T11:36:27.000Z</time>
      </trkpt>
      <trkpt lat="45.82852" lon="1.9272">
        <ele>771.5</ele>
        <time>2026-07-07T11:36:28.000Z</time>
      </trkpt>
      <trkpt lat="45.82852" lon="1.9272">
        <ele>771.5</ele>
        <time>2026-07-07T11:36:29.000Z</time>
      </trkpt>
      <trkpt lat="45.82852" lon="1.9272">
        <ele>771.5</ele>
        <time>2026-07-07T11:36:30.000Z</time>
      </trkpt>
      <trkpt lat="45.82852" lon="1.92719">
        <ele>771.6</ele>
        <time>2026-07-07T11:36:31.000Z</time>
      </trkpt>
      <trkpt lat="45.82852" lon="1.92719">
        <ele>771.5</ele>
        <time>2026-07-07T11:36:32.000Z</time>
      </trkpt>
      <trkpt lat="45.82852" lon="1.92719">
        <ele>771.1</ele>
        <time>2026-07-07T11:36:33.000Z</time>
      </trkpt>
      <trkpt lat="45.82852" lon="1.9272">
        <ele>770.8</ele>
        <time>2026-07-07T11:36:34.000Z</time>
      </trkpt>
      <trkpt lat="45.82851" lon="1.92722">
        <ele>770.2</ele>
        <time>2026-07-07T11:36:35.000Z</time>
      </trkpt>
      <trkpt lat="45.82851" lon="1.92723">
        <ele>770.5</ele>
        <time>2026-07-07T11:36:36.000Z</time>
      </trkpt>
      <trkpt lat="45.82851" lon="1.92724">
        <ele>771.5</ele>
        <time>2026-07-07T11:36:37.000Z</time>
      </trkpt>
      <trkpt lat="45.82851" lon="1.92723">
        <ele>771.9</ele>
        <time>2026-07-07T11:36:38.000Z</time>
      </trkpt>
      <trkpt lat="45.82851" lon="1.92723">
        <ele>771.8</ele>
        <time>2026-07-07T11:36:39.000Z</time>
      </trkpt>
      <trkpt lat="45.82851" lon="1.92723">
        <ele>772.1</ele>
        <time>2026-07-07T11:36:40.000Z</time>
      </trkpt>
      <trkpt lat="45.82851" lon="1.92723">
        <ele>772.2</ele>
        <time>2026-07-07T11:36:41.000Z</time>
      </trkpt>
      <trkpt lat="45.82851" lon="1.92724">
        <ele>772.2</ele>
        <time>2026-07-07T11:36:42.000Z</time>
      </trkpt>
      <trkpt lat="45.82851" lon="1.92724">
        <ele>772.1</ele>
        <time>2026-07-07T11:36:43.000Z</time>
      </trkpt>
      <trkpt lat="45.8285" lon="1.92725">
        <ele>772.3</ele>
        <time>2026-07-07T11:36:44.000Z</time>
      </trkpt>
      <trkpt lat="45.8285" lon="1.92725">
        <ele>771.8</ele>
        <time>2026-07-07T11:36:45.000Z</time>
      </trkpt>
      <trkpt lat="45.82849" lon="1.92726">
        <ele>771.6</ele>
        <time>2026-07-07T11:36:46.000Z</time>
      </trkpt>
      <trkpt lat="45.82848" lon="1.92727">
        <ele>771.4</ele>
        <time>2026-07-07T11:36:47.000Z</time>
      </trkpt>
      <trkpt lat="45.82848" lon="1.92727">
        <ele>771.4</ele>
        <time>2026-07-07T11:36:48.000Z</time>
      </trkpt>
      <trkpt lat="45.82848" lon="1.92728">
        <ele>772.4</ele>
        <time>2026-07-07T11:36:49.000Z</time>
      </trkpt>
      <trkpt lat="45.82849" lon="1.92729">
        <ele>772.3</ele>
        <time>2026-07-07T11:36:50.000Z</time>
      </trkpt>
      <trkpt lat="45.82849" lon="1.92731">
        <ele>772.5</ele>
        <time>2026-07-07T11:36:51.000Z</time>
      </trkpt>
      <trkpt lat="45.8285" lon="1.92731">
        <ele>772.9</ele>
        <time>2026-07-07T11:36:52.000Z</time>
      </trkpt>
      <trkpt lat="45.82851" lon="1.92731">
        <ele>772.6</ele>
        <time>2026-07-07T11:36:53.000Z</time>
      </trkpt>
      <trkpt lat="45.8285" lon="1.9273">
        <ele>771.3</ele>
        <time>2026-07-07T11:36:54.000Z</time>
      </trkpt>
      <trkpt lat="45.82849" lon="1.92729">
        <ele>771.2</ele>
        <time>2026-07-07T11:36:55.000Z</time>
      </trkpt>
      <trkpt lat="45.82849" lon="1.92729">
        <ele>771.6</ele>
        <time>2026-07-07T11:36:56.000Z</time>
      </trkpt>
      <trkpt lat="45.82849" lon="1.92729">
        <ele>771.6</ele>
        <time>2026-07-07T11:36:57.000Z</time>
      </trkpt>
      <trkpt lat="45.82849" lon="1.92729">
        <ele>771.6</ele>
        <time>2026-07-07T11:36:58.000Z</time>
      </trkpt>
      <trkpt lat="45.82849" lon="1.92729">
        <ele>771.6</ele>
        <time>2026-07-07T11:36:59.000Z</time>
      </trkpt>
      <trkpt lat="45.82849" lon="1.92729">
        <ele>771.7</ele>
        <time>2026-07-07T11:37:00.000Z</time>
      </trkpt>
      <trkpt lat="45.82849" lon="1.92729">
        <ele>771.8</ele>
        <time>2026-07-07T11:37:01.000Z</time>
      </trkpt>
      <trkpt lat="45.82849" lon="1.92729">
        <ele>771.7</ele>
        <time>2026-07-07T11:37:02.000Z</time>
      </trkpt>
      <trkpt lat="45.82849" lon="1.92729">
        <ele>771.7</ele>
        <time>2026-07-07T11:37:03.000Z</time>
      </trkpt>
      <trkpt lat="45.82849" lon="1.92729">
        <ele>771.8</ele>
        <time>2026-07-07T11:37:04.000Z</time>
      </trkpt>
      <trkpt lat="45.82849" lon="1.92729">
        <ele>771.8</ele>
        <time>2026-07-07T11:37:05.000Z</time>
      </trkpt>
      <trkpt lat="45.82849" lon="1.92729">
        <ele>771.8</ele>
        <time>2026-07-07T11:37:06.000Z</time>
      </trkpt>
      <trkpt lat="45.82849" lon="1.92729">
        <ele>771.8</ele>
        <time>2026-07-07T11:37:07.000Z</time>
      </trkpt>
      <trkpt lat="45.82849" lon="1.92729">
        <ele>771.8</ele>
        <time>2026-07-07T11:37:08.000Z</time>
      </trkpt>
      <trkpt lat="45.82849" lon="1.92729">
        <ele>771.8</ele>
        <time>2026-07-07T11:37:09.000Z</time>
      </trkpt>
      <trkpt lat="45.82849" lon="1.92729">
        <ele>771.8</ele>
        <time>2026-07-07T11:37:10.000Z</time>
      </trkpt>
      <trkpt lat="45.82849" lon="1.9273">
        <ele>772.1</ele>
        <time>2026-07-07T11:37:11.000Z</time>
      </trkpt>
      <trkpt lat="45.8285" lon="1.9273">
        <ele>772</ele>
        <time>2026-07-07T11:37:12.000Z</time>
      </trkpt>
      <trkpt lat="45.8285" lon="1.9273">
        <ele>772</ele>
        <time>2026-07-07T11:37:13.000Z</time>
      </trkpt>
      <trkpt lat="45.8285" lon="1.9273">
        <ele>772</ele>
        <time>2026-07-07T11:37:14.000Z</time>
      </trkpt>
      <trkpt lat="45.8285" lon="1.9273">
        <ele>772</ele>
        <time>2026-07-07T11:37:15.000Z</time>
      </trkpt>
      <trkpt lat="45.8285" lon="1.9273">
        <ele>772.1</ele>
        <time>2026-07-07T11:37:16.000Z</time>
      </trkpt>
      <trkpt lat="45.82851" lon="1.9273">
        <ele>772.1</ele>
        <time>2026-07-07T11:37:17.000Z</time>
      </trkpt>
      <trkpt lat="45.82851" lon="1.9273">
        <ele>772.1</ele>
        <time>2026-07-07T11:37:18.000Z</time>
      </trkpt>
      <trkpt lat="45.82851" lon="1.9273">
        <ele>772.1</ele>
        <time>2026-07-07T11:37:19.000Z</time>
      </trkpt>
      <trkpt lat="45.82851" lon="1.9273">
        <ele>772.4</ele>
        <time>2026-07-07T11:37:20.000Z</time>
      </trkpt>
      <trkpt lat="45.8285" lon="1.9273">
        <ele>772.1</ele>
        <time>2026-07-07T11:37:21.000Z</time>
      </trkpt>
      <trkpt lat="45.8285" lon="1.9273">
        <ele>772.1</ele>
        <time>2026-07-07T11:37:22.000Z</time>
      </trkpt>
      <trkpt lat="45.8285" lon="1.9273">
        <ele>772.1</ele>
        <time>2026-07-07T11:37:23.000Z</time>
      </trkpt>
      <trkpt lat="45.8285" lon="1.9273">
        <ele>772.1</ele>
        <time>2026-07-07T11:37:24.000Z</time>
      </trkpt>
      <trkpt lat="45.8285" lon="1.9273">
        <ele>772.3</ele>
        <time>2026-07-07T11:37:25.000Z</time>
      </trkpt>
      <trkpt lat="45.8285" lon="1.9273">
        <ele>771.9</ele>
        <time>2026-07-07T11:37:26.000Z</time>
      </trkpt>
      <trkpt lat="45.8285" lon="1.9273">
        <ele>771.9</ele>
        <time>2026-07-07T11:37:27.000Z</time>
      </trkpt>
      <trkpt lat="45.82849" lon="1.9273">
        <ele>771.8</ele>
        <time>2026-07-07T11:37:28.000Z</time>
      </trkpt>
      <trkpt lat="45.82849" lon="1.9273">
        <ele>771.8</ele>
        <time>2026-07-07T11:37:29.000Z</time>
      </trkpt>
      <trkpt lat="45.82849" lon="1.9273">
        <ele>772.4</ele>
        <time>2026-07-07T11:37:30.000Z</time>
      </trkpt>
      <trkpt lat="45.82849" lon="1.9273">
        <ele>772.4</ele>
        <time>2026-07-07T11:37:31.000Z</time>
      </trkpt>
      <trkpt lat="45.82849" lon="1.9273">
        <ele>772.4</ele>
        <time>2026-07-07T11:37:32.000Z</time>
      </trkpt>
      <trkpt lat="45.82849" lon="1.9273">
        <ele>772.4</ele>
        <time>2026-07-07T11:37:33.000Z</time>
      </trkpt>
      <trkpt lat="45.82849" lon="1.9273">
        <ele>772.4</ele>
        <time>2026-07-07T11:37:34.000Z</time>
      </trkpt>
      <trkpt lat="45.82849" lon="1.9273">
        <ele>772.4</ele>
        <time>2026-07-07T11:37:35.000Z</time>
      </trkpt>
      <trkpt lat="45.82849" lon="1.9273">
        <ele>772.4</ele>
        <time>2026-07-07T11:37:36.000Z</time>
      </trkpt>
      <trkpt lat="45.82849" lon="1.9273">
        <ele>772.5</ele>
        <time>2026-07-07T11:37:37.000Z</time>
      </trkpt>
      <trkpt lat="45.8285" lon="1.9273">
        <ele>772.5</ele>
        <time>2026-07-07T11:37:38.000Z</time>
      </trkpt>
      <trkpt lat="45.82847" lon="1.9273">
        <ele>772.4</ele>
        <time>2026-07-07T11:37:39.000Z</time>
      </trkpt>
      <trkpt lat="45.82846" lon="1.9273">
        <ele>772</ele>
        <time>2026-07-07T11:37:40.000Z</time>
      </trkpt>
      <trkpt lat="45.82845" lon="1.92729">
        <ele>771.2</ele>
        <time>2026-07-07T11:37:41.000Z</time>
      </trkpt>
      <trkpt lat="45.82846" lon="1.92729">
        <ele>771.8</ele>
        <time>2026-07-07T11:37:42.000Z</time>
      </trkpt>
      <trkpt lat="45.82846" lon="1.92729">
        <ele>771.8</ele>
        <time>2026-07-07T11:37:43.000Z</time>
      </trkpt>
      <trkpt lat="45.82846" lon="1.92729">
        <ele>771.8</ele>
        <time>2026-07-07T11:37:44.000Z</time>
      </trkpt>
      <trkpt lat="45.82846" lon="1.92729">
        <ele>771.8</ele>
        <time>2026-07-07T11:37:45.000Z</time>
      </trkpt>
      <trkpt lat="45.82846" lon="1.92729">
        <ele>771.8</ele>
        <time>2026-07-07T11:37:46.000Z</time>
      </trkpt>
      <trkpt lat="45.82847" lon="1.92729">
        <ele>771.6</ele>
        <time>2026-07-07T11:37:47.000Z</time>
      </trkpt>
      <trkpt lat="45.82847" lon="1.9273">
        <ele>771.4</ele>
        <time>2026-07-07T11:37:48.000Z</time>
      </trkpt>
      <trkpt lat="45.82847" lon="1.9273">
        <ele>771.4</ele>
        <time>2026-07-07T11:37:49.000Z</time>
      </trkpt>
      <trkpt lat="45.82847" lon="1.9273">
        <ele>771.4</ele>
        <time>2026-07-07T11:37:50.000Z</time>
      </trkpt>
      <trkpt lat="45.82847" lon="1.9273">
        <ele>771.4</ele>
        <time>2026-07-07T11:37:51.000Z</time>
      </trkpt>
      <trkpt lat="45.82847" lon="1.9273">
        <ele>771.4</ele>
        <time>2026-07-07T11:37:52.000Z</time>
      </trkpt>
      <trkpt lat="45.82847" lon="1.92729">
        <ele>770.7</ele>
        <time>2026-07-07T11:37:53.000Z</time>
      </trkpt>
      <trkpt lat="45.82847" lon="1.92729">
        <ele>770.8</ele>
        <time>2026-07-07T11:37:54.000Z</time>
      </trkpt>
      <trkpt lat="45.82847" lon="1.9273">
        <ele>770.8</ele>
        <time>2026-07-07T11:37:55.000Z</time>
      </trkpt>
      <trkpt lat="45.82847" lon="1.9273">
        <ele>770.8</ele>
        <time>2026-07-07T11:37:56.000Z</time>
      </trkpt>
      <trkpt lat="45.82847" lon="1.9273">
        <ele>770.8</ele>
        <time>2026-07-07T11:37:57.000Z</time>
      </trkpt>
      <trkpt lat="45.82847" lon="1.9273">
        <ele>770.8</ele>
        <time>2026-07-07T11:37:58.000Z</time>
      </trkpt>
      <trkpt lat="45.82847" lon="1.9273">
        <ele>770.8</ele>
        <time>2026-07-07T11:37:59.000Z</time>
      </trkpt>
      <trkpt lat="45.82847" lon="1.9273">
        <ele>770.8</ele>
        <time>2026-07-07T11:38:00.000Z</time>
      </trkpt>
      <trkpt lat="45.82847" lon="1.92729">
        <ele>770.4</ele>
        <time>2026-07-07T11:38:01.000Z</time>
      </trkpt>
      <trkpt lat="45.82846" lon="1.92729">
        <ele>770.4</ele>
        <time>2026-07-07T11:38:02.000Z</time>
      </trkpt>
      <trkpt lat="45.82846" lon="1.92729">
        <ele>770.5</ele>
        <time>2026-07-07T11:38:03.000Z</time>
      </trkpt>
      <trkpt lat="45.82845" lon="1.92727">
        <ele>769.7</ele>
        <time>2026-07-07T11:38:04.000Z</time>
      </trkpt>
      <trkpt lat="45.82846" lon="1.92724">
        <ele>769</ele>
        <time>2026-07-07T11:38:05.000Z</time>
      </trkpt>
      <trkpt lat="45.8285" lon="1.92725">
        <ele>769.7</ele>
        <time>2026-07-07T11:38:06.000Z</time>
      </trkpt>
      <trkpt lat="45.82852" lon="1.92725">
        <ele>769.7</ele>
        <time>2026-07-07T11:38:07.000Z</time>
      </trkpt>
      <trkpt lat="45.82853" lon="1.92726">
        <ele>769.7</ele>
        <time>2026-07-07T11:38:08.000Z</time>
      </trkpt>
      <trkpt lat="45.82853" lon="1.92726">
        <ele>769.7</ele>
        <time>2026-07-07T11:38:09.000Z</time>
      </trkpt>
      <trkpt lat="45.82853" lon="1.92726">
        <ele>769.8</ele>
        <time>2026-07-07T11:38:10.000Z</time>
      </trkpt>
      <trkpt lat="45.82853" lon="1.92727">
        <ele>770.1</ele>
        <time>2026-07-07T11:38:11.000Z</time>
      </trkpt>
      <trkpt lat="45.82854" lon="1.92728">
        <ele>769.7</ele>
        <time>2026-07-07T11:38:12.000Z</time>
      </trkpt>
      <trkpt lat="45.82855" lon="1.92728">
        <ele>769.9</ele>
        <time>2026-07-07T11:38:13.000Z</time>
      </trkpt>
      <trkpt lat="45.82855" lon="1.92725">
        <ele>770</ele>
        <time>2026-07-07T11:38:14.000Z</time>
      </trkpt>
      <trkpt lat="45.82854" lon="1.92725">
        <ele>769.9</ele>
        <time>2026-07-07T11:38:15.000Z</time>
      </trkpt>
      <trkpt lat="45.82853" lon="1.92723">
        <ele>768.4</ele>
        <time>2026-07-07T11:38:16.000Z</time>
      </trkpt>
      <trkpt lat="45.82853" lon="1.92723">
        <ele>768.4</ele>
        <time>2026-07-07T11:38:17.000Z</time>
      </trkpt>
      <trkpt lat="45.82853" lon="1.92723">
        <ele>768.4</ele>
        <time>2026-07-07T11:38:18.000Z</time>
      </trkpt>
      <trkpt lat="45.82853" lon="1.92723">
        <ele>768.4</ele>
        <time>2026-07-07T11:38:19.000Z</time>
      </trkpt>
      <trkpt lat="45.82853" lon="1.92723">
        <ele>768.4</ele>
        <time>2026-07-07T11:38:20.000Z</time>
      </trkpt>
      <trkpt lat="45.82853" lon="1.92723">
        <ele>768.4</ele>
        <time>2026-07-07T11:38:21.000Z</time>
      </trkpt>
      <trkpt lat="45.82853" lon="1.92723">
        <ele>768.4</ele>
        <time>2026-07-07T11:38:22.000Z</time>
      </trkpt>
      <trkpt lat="45.82853" lon="1.92723">
        <ele>768.4</ele>
        <time>2026-07-07T11:38:23.000Z</time>
      </trkpt>
      <trkpt lat="45.82853" lon="1.92723">
        <ele>768.4</ele>
        <time>2026-07-07T11:38:24.000Z</time>
      </trkpt>
      <trkpt lat="45.82853" lon="1.92723">
        <ele>768.4</ele>
        <time>2026-07-07T11:38:25.000Z</time>
      </trkpt>
      <trkpt lat="45.82853" lon="1.92724">
        <ele>768.1</ele>
        <time>2026-07-07T11:38:26.000Z</time>
      </trkpt>
      <trkpt lat="45.82853" lon="1.92724">
        <ele>768.3</ele>
        <time>2026-07-07T11:38:27.000Z</time>
      </trkpt>
      <trkpt lat="45.82852" lon="1.9272">
        <ele>767.7</ele>
        <time>2026-07-07T11:38:28.000Z</time>
      </trkpt>
      <trkpt lat="45.82854" lon="1.92718">
        <ele>766.8</ele>
        <time>2026-07-07T11:38:29.000Z</time>
      </trkpt>
      <trkpt lat="45.82854" lon="1.92718">
        <ele>766.8</ele>
        <time>2026-07-07T11:38:30.000Z</time>
      </trkpt>
      <trkpt lat="45.82854" lon="1.92718">
        <ele>766.8</ele>
        <time>2026-07-07T11:38:31.000Z</time>
      </trkpt>
      <trkpt lat="45.82854" lon="1.92718">
        <ele>766.7</ele>
        <time>2026-07-07T11:38:32.000Z</time>
      </trkpt>
      <trkpt lat="45.82854" lon="1.92718">
        <ele>766.7</ele>
        <time>2026-07-07T11:38:33.000Z</time>
      </trkpt>
      <trkpt lat="45.82854" lon="1.92718">
        <ele>766.7</ele>
        <time>2026-07-07T11:38:34.000Z</time>
      </trkpt>
      <trkpt lat="45.82854" lon="1.92718">
        <ele>766.7</ele>
        <time>2026-07-07T11:38:35.000Z</time>
      </trkpt>
      <trkpt lat="45.82854" lon="1.92718">
        <ele>766.7</ele>
        <time>2026-07-07T11:38:36.000Z</time>
      </trkpt>
      <trkpt lat="45.82854" lon="1.92718">
        <ele>766.7</ele>
        <time>2026-07-07T11:38:37.000Z</time>
      </trkpt>
      <trkpt lat="45.82854" lon="1.92718">
        <ele>766.1</ele>
        <time>2026-07-07T11:38:38.000Z</time>
      </trkpt>
      <trkpt lat="45.82854" lon="1.92718">
        <ele>766.1</ele>
        <time>2026-07-07T11:38:39.000Z</time>
      </trkpt>
      <trkpt lat="45.82854" lon="1.92718">
        <ele>766</ele>
        <time>2026-07-07T11:38:40.000Z</time>
      </trkpt>
      <trkpt lat="45.82854" lon="1.92719">
        <ele>765.9</ele>
        <time>2026-07-07T11:38:41.000Z</time>
      </trkpt>
      <trkpt lat="45.82855" lon="1.92719">
        <ele>766.8</ele>
        <time>2026-07-07T11:38:42.000Z</time>
      </trkpt>
      <trkpt lat="45.82855" lon="1.9272">
        <ele>766.6</ele>
        <time>2026-07-07T11:38:43.000Z</time>
      </trkpt>
      <trkpt lat="45.82855" lon="1.92719">
        <ele>767.3</ele>
        <time>2026-07-07T11:38:44.000Z</time>
      </trkpt>
      <trkpt lat="45.82855" lon="1.92719">
        <ele>767.3</ele>
        <time>2026-07-07T11:38:45.000Z</time>
      </trkpt>
      <trkpt lat="45.82855" lon="1.92719">
        <ele>767.3</ele>
        <time>2026-07-07T11:38:46.000Z</time>
      </trkpt>
      <trkpt lat="45.82855" lon="1.92719">
        <ele>767.2</ele>
        <time>2026-07-07T11:38:47.000Z</time>
      </trkpt>
      <trkpt lat="45.82855" lon="1.9272">
        <ele>766.9</ele>
        <time>2026-07-07T11:38:48.000Z</time>
      </trkpt>
      <trkpt lat="45.82855" lon="1.9272">
        <ele>766.9</ele>
        <time>2026-07-07T11:38:49.000Z</time>
      </trkpt>
      <trkpt lat="45.82855" lon="1.92721">
        <ele>766.9</ele>
        <time>2026-07-07T11:38:50.000Z</time>
      </trkpt>
      <trkpt lat="45.82855" lon="1.92721">
        <ele>766.9</ele>
        <time>2026-07-07T11:38:51.000Z</time>
      </trkpt>
      <trkpt lat="45.82855" lon="1.92721">
        <ele>766.9</ele>
        <time>2026-07-07T11:38:52.000Z</time>
      </trkpt>
      <trkpt lat="45.82855" lon="1.92721">
        <ele>766.9</ele>
        <time>2026-07-07T11:38:53.000Z</time>
      </trkpt>
      <trkpt lat="45.82854" lon="1.92721">
        <ele>766.8</ele>
        <time>2026-07-07T11:38:54.000Z</time>
      </trkpt>
      <trkpt lat="45.82854" lon="1.92722">
        <ele>766.7</ele>
        <time>2026-07-07T11:38:55.000Z</time>
      </trkpt>
      <trkpt lat="45.82854" lon="1.92722">
        <ele>768</ele>
        <time>2026-07-07T11:38:56.000Z</time>
      </trkpt>
      <trkpt lat="45.82855" lon="1.92723">
        <ele>768</ele>
        <time>2026-07-07T11:38:57.000Z</time>
      </trkpt>
      <trkpt lat="45.82855" lon="1.92723">
        <ele>768</ele>
        <time>2026-07-07T11:38:58.000Z</time>
      </trkpt>
      <trkpt lat="45.82854" lon="1.92722">
        <ele>766.2</ele>
        <time>2026-07-07T11:38:59.000Z</time>
      </trkpt>
      <trkpt lat="45.82853" lon="1.92722">
        <ele>766.6</ele>
        <time>2026-07-07T11:39:00.000Z</time>
      </trkpt>
      <trkpt lat="45.82853" lon="1.92723">
        <ele>767.4</ele>
        <time>2026-07-07T11:39:01.000Z</time>
      </trkpt>
      <trkpt lat="45.82854" lon="1.92723">
        <ele>767.9</ele>
        <time>2026-07-07T11:39:02.000Z</time>
      </trkpt>
      <trkpt lat="45.82853" lon="1.92722">
        <ele>765.7</ele>
        <time>2026-07-07T11:39:03.000Z</time>
      </trkpt>
      <trkpt lat="45.82853" lon="1.92722">
        <ele>765.4</ele>
        <time>2026-07-07T11:39:04.000Z</time>
      </trkpt>
      <trkpt lat="45.82852" lon="1.92723">
        <ele>765.4</ele>
        <time>2026-07-07T11:39:05.000Z</time>
      </trkpt>
      <trkpt lat="45.82852" lon="1.92723">
        <ele>765.4</ele>
        <time>2026-07-07T11:39:06.000Z</time>
      </trkpt>
      <trkpt lat="45.82852" lon="1.92723">
        <ele>765.4</ele>
        <time>2026-07-07T11:39:07.000Z</time>
      </trkpt>
      <trkpt lat="45.82852" lon="1.92723">
        <ele>765.4</ele>
        <time>2026-07-07T11:39:08.000Z</time>
      </trkpt>
      <trkpt lat="45.82853" lon="1.92724">
        <ele>765.6</ele>
        <time>2026-07-07T11:39:09.000Z</time>
      </trkpt>
      <trkpt lat="45.82853" lon="1.92724">
        <ele>765.6</ele>
        <time>2026-07-07T11:39:10.000Z</time>
      </trkpt>
      <trkpt lat="45.82853" lon="1.92724">
        <ele>765.6</ele>
        <time>2026-07-07T11:39:11.000Z</time>
      </trkpt>
      <trkpt lat="45.82853" lon="1.92724">
        <ele>765.6</ele>
        <time>2026-07-07T11:39:12.000Z</time>
      </trkpt>
      <trkpt lat="45.82853" lon="1.92724">
        <ele>765.8</ele>
        <time>2026-07-07T11:39:13.000Z</time>
      </trkpt>
      <trkpt lat="45.82853" lon="1.92724">
        <ele>765.9</ele>
        <time>2026-07-07T11:39:14.000Z</time>
      </trkpt>
      <trkpt lat="45.82853" lon="1.92724">
        <ele>765.9</ele>
        <time>2026-07-07T11:39:15.000Z</time>
      </trkpt>
      <trkpt lat="45.82853" lon="1.92724">
        <ele>765.9</ele>
        <time>2026-07-07T11:39:16.000Z</time>
      </trkpt>
      <trkpt lat="45.82853" lon="1.92724">
        <ele>765.9</ele>
        <time>2026-07-07T11:39:17.000Z</time>
      </trkpt>
      <trkpt lat="45.82853" lon="1.92724">
        <ele>765.9</ele>
        <time>2026-07-07T11:39:18.000Z</time>
      </trkpt>
      <trkpt lat="45.82853" lon="1.92724">
        <ele>765.9</ele>
        <time>2026-07-07T11:39:19.000Z</time>
      </trkpt>
      <trkpt lat="45.82853" lon="1.92724">
        <ele>765.9</ele>
        <time>2026-07-07T11:39:20.000Z</time>
      </trkpt>
      <trkpt lat="45.82853" lon="1.92724">
        <ele>765.9</ele>
        <time>2026-07-07T11:39:21.000Z</time>
      </trkpt>
      <trkpt lat="45.82853" lon="1.92724">
        <ele>765.8</ele>
        <time>2026-07-07T11:39:22.000Z</time>
      </trkpt>
      <trkpt lat="45.82853" lon="1.92724">
        <ele>765.8</ele>
        <time>2026-07-07T11:39:23.000Z</time>
      </trkpt>
      <trkpt lat="45.82853" lon="1.92724">
        <ele>765.8</ele>
        <time>2026-07-07T11:39:24.000Z</time>
      </trkpt>
      <trkpt lat="45.82853" lon="1.92724">
        <ele>765.8</ele>
        <time>2026-07-07T11:39:25.000Z</time>
      </trkpt>
      <trkpt lat="45.82853" lon="1.92724">
        <ele>765.8</ele>
        <time>2026-07-07T11:39:26.000Z</time>
      </trkpt>
      <trkpt lat="45.82852" lon="1.92725">
        <ele>765.7</ele>
        <time>2026-07-07T11:39:27.000Z</time>
      </trkpt>
      <trkpt lat="45.82852" lon="1.92725">
        <ele>765.4</ele>
        <time>2026-07-07T11:39:28.000Z</time>
      </trkpt>
      <trkpt lat="45.82851" lon="1.92726">
        <ele>766.2</ele>
        <time>2026-07-07T11:39:29.000Z</time>
      </trkpt>
      <trkpt lat="45.82852" lon="1.92725">
        <ele>766.9</ele>
        <time>2026-07-07T11:39:30.000Z</time>
      </trkpt>
      <trkpt lat="45.82852" lon="1.92726">
        <ele>766.8</ele>
        <time>2026-07-07T11:39:31.000Z</time>
      </trkpt>
      <trkpt lat="45.82852" lon="1.92726">
        <ele>766.7</ele>
        <time>2026-07-07T11:39:32.000Z</time>
      </trkpt>
      <trkpt lat="45.82852" lon="1.92726">
        <ele>766.7</ele>
        <time>2026-07-07T11:39:33.000Z</time>
      </trkpt>
      <trkpt lat="45.82852" lon="1.92726">
        <ele>766.7</ele>
        <time>2026-07-07T11:39:34.000Z</time>
      </trkpt>
      <trkpt lat="45.82852" lon="1.92726">
        <ele>766.7</ele>
        <time>2026-07-07T11:39:35.000Z</time>
      </trkpt>
      <trkpt lat="45.82852" lon="1.92726">
        <ele>766.7</ele>
        <time>2026-07-07T11:39:36.000Z</time>
      </trkpt>
      <trkpt lat="45.82851" lon="1.92726">
        <ele>766.7</ele>
        <time>2026-07-07T11:39:37.000Z</time>
      </trkpt>
      <trkpt lat="45.82852" lon="1.92726">
        <ele>767.2</ele>
        <time>2026-07-07T11:39:38.000Z</time>
      </trkpt>
      <trkpt lat="45.82852" lon="1.92726">
        <ele>767.2</ele>
        <time>2026-07-07T11:39:39.000Z</time>
      </trkpt>
      <trkpt lat="45.82852" lon="1.92726">
        <ele>767.2</ele>
        <time>2026-07-07T11:39:40.000Z</time>
      </trkpt>
      <trkpt lat="45.82852" lon="1.92726">
        <ele>767.2</ele>
        <time>2026-07-07T11:39:41.000Z</time>
      </trkpt>
      <trkpt lat="45.82852" lon="1.92726">
        <ele>767.1</ele>
        <time>2026-07-07T11:39:42.000Z</time>
      </trkpt>
      <trkpt lat="45.82852" lon="1.92726">
        <ele>767.1</ele>
        <time>2026-07-07T11:39:43.000Z</time>
      </trkpt>
      <trkpt lat="45.82851" lon="1.92726">
        <ele>766.6</ele>
        <time>2026-07-07T11:39:44.000Z</time>
      </trkpt>
      <trkpt lat="45.82851" lon="1.92727">
        <ele>767.1</ele>
        <time>2026-07-07T11:39:45.000Z</time>
      </trkpt>
      <trkpt lat="45.82853" lon="1.92726">
        <ele>766.9</ele>
        <time>2026-07-07T11:39:46.000Z</time>
      </trkpt>
      <trkpt lat="45.82851" lon="1.92725">
        <ele>765.3</ele>
        <time>2026-07-07T11:39:47.000Z</time>
      </trkpt>
      <trkpt lat="45.82851" lon="1.92725">
        <ele>765.8</ele>
        <time>2026-07-07T11:39:48.000Z</time>
      </trkpt>
      <trkpt lat="45.8285" lon="1.92725">
        <ele>765.8</ele>
        <time>2026-07-07T11:39:49.000Z</time>
      </trkpt>
      <trkpt lat="45.8285" lon="1.92724">
        <ele>766</ele>
        <time>2026-07-07T11:39:50.000Z</time>
      </trkpt>
      <trkpt lat="45.8285" lon="1.92725">
        <ele>766</ele>
        <time>2026-07-07T11:39:51.000Z</time>
      </trkpt>
      <trkpt lat="45.8285" lon="1.92725">
        <ele>766</ele>
        <time>2026-07-07T11:39:52.000Z</time>
      </trkpt>
      <trkpt lat="45.8285" lon="1.92725">
        <ele>766</ele>
        <time>2026-07-07T11:39:53.000Z</time>
      </trkpt>
      <trkpt lat="45.8285" lon="1.92725">
        <ele>766</ele>
        <time>2026-07-07T11:39:54.000Z</time>
      </trkpt>
      <trkpt lat="45.8285" lon="1.92725">
        <ele>766</ele>
        <time>2026-07-07T11:39:55.000Z</time>
      </trkpt>
      <trkpt lat="45.82849" lon="1.92726">
        <ele>766.1</ele>
        <time>2026-07-07T11:39:56.000Z</time>
      </trkpt>
      <trkpt lat="45.82849" lon="1.92726">
        <ele>766.1</ele>
        <time>2026-07-07T11:39:57.000Z</time>
      </trkpt>
      <trkpt lat="45.82847" lon="1.92724">
        <ele>765</ele>
        <time>2026-07-07T11:39:58.000Z</time>
      </trkpt>
      <trkpt lat="45.82847" lon="1.9272">
        <ele>764</ele>
        <time>2026-07-07T11:39:59.000Z</time>
      </trkpt>
      <trkpt lat="45.82847" lon="1.92716">
        <ele>763</ele>
        <time>2026-07-07T11:40:00.000Z</time>
      </trkpt>
      <trkpt lat="45.82848" lon="1.92717">
        <ele>763.8</ele>
        <time>2026-07-07T11:40:01.000Z</time>
      </trkpt>
      <trkpt lat="45.82849" lon="1.92718">
        <ele>763.8</ele>
        <time>2026-07-07T11:40:02.000Z</time>
      </trkpt>
      <trkpt lat="45.82849" lon="1.92718">
        <ele>763.8</ele>
        <time>2026-07-07T11:40:03.000Z</time>
      </trkpt>
      <trkpt lat="45.82849" lon="1.92718">
        <ele>763.8</ele>
        <time>2026-07-07T11:40:04.000Z</time>
      </trkpt>
      <trkpt lat="45.82849" lon="1.92718">
        <ele>763.6</ele>
        <time>2026-07-07T11:40:05.000Z</time>
      </trkpt>
      <trkpt lat="45.82849" lon="1.92717">
        <ele>763.7</ele>
        <time>2026-07-07T11:40:06.000Z</time>
      </trkpt>
      <trkpt lat="45.82849" lon="1.92716">
        <ele>764.6</ele>
        <time>2026-07-07T11:40:07.000Z</time>
      </trkpt>
      <trkpt lat="45.8285" lon="1.92716">
        <ele>765.9</ele>
        <time>2026-07-07T11:40:08.000Z</time>
      </trkpt>
      <trkpt lat="45.8285" lon="1.92717">
        <ele>765.7</ele>
        <time>2026-07-07T11:40:09.000Z</time>
      </trkpt>
      <trkpt lat="45.8285" lon="1.92717">
        <ele>765.7</ele>
        <time>2026-07-07T11:40:10.000Z</time>
      </trkpt>
      <trkpt lat="45.8285" lon="1.92717">
        <ele>765.8</ele>
        <time>2026-07-07T11:40:11.000Z</time>
      </trkpt>
      <trkpt lat="45.8285" lon="1.92717">
        <ele>765.8</ele>
        <time>2026-07-07T11:40:12.000Z</time>
      </trkpt>
      <trkpt lat="45.8285" lon="1.92717">
        <ele>765.8</ele>
        <time>2026-07-07T11:40:13.000Z</time>
      </trkpt>
      <trkpt lat="45.8285" lon="1.92717">
        <ele>765.8</ele>
        <time>2026-07-07T11:40:14.000Z</time>
      </trkpt>
      <trkpt lat="45.8285" lon="1.92717">
        <ele>765.8</ele>
        <time>2026-07-07T11:40:15.000Z</time>
      </trkpt>
      <trkpt lat="45.8285" lon="1.92717">
        <ele>765.8</ele>
        <time>2026-07-07T11:40:16.000Z</time>
      </trkpt>
      <trkpt lat="45.8285" lon="1.92717">
        <ele>765.8</ele>
        <time>2026-07-07T11:40:17.000Z</time>
      </trkpt>
      <trkpt lat="45.8285" lon="1.92717">
        <ele>765.9</ele>
        <time>2026-07-07T11:40:18.000Z</time>
      </trkpt>
      <trkpt lat="45.8285" lon="1.92717">
        <ele>767.1</ele>
        <time>2026-07-07T11:40:19.000Z</time>
      </trkpt>
      <trkpt lat="45.82849" lon="1.92718">
        <ele>767.5</ele>
        <time>2026-07-07T11:40:20.000Z</time>
      </trkpt>
      <trkpt lat="45.82849" lon="1.92718">
        <ele>767.5</ele>
        <time>2026-07-07T11:40:21.000Z</time>
      </trkpt>
      <trkpt lat="45.82849" lon="1.92719">
        <ele>767.5</ele>
        <time>2026-07-07T11:40:22.000Z</time>
      </trkpt>
      <trkpt lat="45.82849" lon="1.92719">
        <ele>767.5</ele>
        <time>2026-07-07T11:40:23.000Z</time>
      </trkpt>
      <trkpt lat="45.82849" lon="1.92719">
        <ele>767.5</ele>
        <time>2026-07-07T11:40:24.000Z</time>
      </trkpt>
      <trkpt lat="45.82849" lon="1.92719">
        <ele>767.5</ele>
        <time>2026-07-07T11:40:25.000Z</time>
      </trkpt>
      <trkpt lat="45.82849" lon="1.92719">
        <ele>767.5</ele>
        <time>2026-07-07T11:40:26.000Z</time>
      </trkpt>
      <trkpt lat="45.82849" lon="1.92719">
        <ele>767.5</ele>
        <time>2026-07-07T11:40:27.000Z</time>
      </trkpt>
      <trkpt lat="45.82849" lon="1.92719">
        <ele>767.5</ele>
        <time>2026-07-07T11:40:28.000Z</time>
      </trkpt>
      <trkpt lat="45.82849" lon="1.92719">
        <ele>767.5</ele>
        <time>2026-07-07T11:40:29.000Z</time>
      </trkpt>
      <trkpt lat="45.82849" lon="1.92719">
        <ele>767.5</ele>
        <time>2026-07-07T11:40:30.000Z</time>
      </trkpt>
      <trkpt lat="45.82849" lon="1.92719">
        <ele>767.5</ele>
        <time>2026-07-07T11:40:31.000Z</time>
      </trkpt>
      <trkpt lat="45.82849" lon="1.92719">
        <ele>767.5</ele>
        <time>2026-07-07T11:40:32.000Z</time>
      </trkpt>
      <trkpt lat="45.82849" lon="1.92719">
        <ele>767.5</ele>
        <time>2026-07-07T11:40:33.000Z</time>
      </trkpt>
      <trkpt lat="45.82849" lon="1.92719">
        <ele>767.5</ele>
        <time>2026-07-07T11:40:34.000Z</time>
      </trkpt>
      <trkpt lat="45.82849" lon="1.92719">
        <ele>767.6</ele>
        <time>2026-07-07T11:40:35.000Z</time>
      </trkpt>
      <trkpt lat="45.82849" lon="1.92719">
        <ele>767.6</ele>
        <time>2026-07-07T11:40:36.000Z</time>
      </trkpt>
      <trkpt lat="45.82849" lon="1.92719">
        <ele>767.6</ele>
        <time>2026-07-07T11:40:37.000Z</time>
      </trkpt>
      <trkpt lat="45.82849" lon="1.92719">
        <ele>767.6</ele>
        <time>2026-07-07T11:40:38.000Z</time>
      </trkpt>
      <trkpt lat="45.82849" lon="1.92719">
        <ele>767.6</ele>
        <time>2026-07-07T11:40:39.000Z</time>
      </trkpt>
      <trkpt lat="45.82849" lon="1.92719">
        <ele>767.6</ele>
        <time>2026-07-07T11:40:40.000Z</time>
      </trkpt>
      <trkpt lat="45.82849" lon="1.92719">
        <ele>767.6</ele>
        <time>2026-07-07T11:40:41.000Z</time>
      </trkpt>
      <trkpt lat="45.82849" lon="1.92719">
        <ele>767.6</ele>
        <time>2026-07-07T11:40:42.000Z</time>
      </trkpt>
      <trkpt lat="45.82849" lon="1.92719">
        <ele>767.6</ele>
        <time>2026-07-07T11:40:43.000Z</time>
      </trkpt>
      <trkpt lat="45.82849" lon="1.92719">
        <ele>767.6</ele>
        <time>2026-07-07T11:40:44.000Z</time>
      </trkpt>
      <trkpt lat="45.82849" lon="1.92719">
        <ele>767.6</ele>
        <time>2026-07-07T11:40:45.000Z</time>
      </trkpt>
      <trkpt lat="45.82849" lon="1.92719">
        <ele>767.7</ele>
        <time>2026-07-07T11:40:46.000Z</time>
      </trkpt>
      <trkpt lat="45.82849" lon="1.9272">
        <ele>768</ele>
        <time>2026-07-07T11:40:47.000Z</time>
      </trkpt>
      <trkpt lat="45.82849" lon="1.9272">
        <ele>768.2</ele>
        <time>2026-07-07T11:40:48.000Z</time>
      </trkpt>
      <trkpt lat="45.82849" lon="1.92722">
        <ele>768.7</ele>
        <time>2026-07-07T11:40:49.000Z</time>
      </trkpt>
      <trkpt lat="45.82845" lon="1.92722">
        <ele>769.3</ele>
        <time>2026-07-07T11:40:50.000Z</time>
      </trkpt>
      <trkpt lat="45.82845" lon="1.92722">
        <ele>769.2</ele>
        <time>2026-07-07T11:40:51.000Z</time>
      </trkpt>
      <trkpt lat="45.82845" lon="1.92722">
        <ele>769.2</ele>
        <time>2026-07-07T11:40:52.000Z</time>
      </trkpt>
      <trkpt lat="45.82845" lon="1.92722">
        <ele>769.2</ele>
        <time>2026-07-07T11:40:53.000Z</time>
      </trkpt>
      <trkpt lat="45.82845" lon="1.92722">
        <ele>769.2</ele>
        <time>2026-07-07T11:40:54.000Z</time>
      </trkpt>
      <trkpt lat="45.82845" lon="1.92722">
        <ele>769.2</ele>
        <time>2026-07-07T11:40:55.000Z</time>
      </trkpt>
      <trkpt lat="45.82845" lon="1.92722">
        <ele>769.2</ele>
        <time>2026-07-07T11:40:56.000Z</time>
      </trkpt>
      <trkpt lat="45.82845" lon="1.92722">
        <ele>769</ele>
        <time>2026-07-07T11:40:57.000Z</time>
      </trkpt>
      <trkpt lat="45.82845" lon="1.92722">
        <ele>769</ele>
        <time>2026-07-07T11:40:58.000Z</time>
      </trkpt>
      <trkpt lat="45.82845" lon="1.92722">
        <ele>769</ele>
        <time>2026-07-07T11:40:59.000Z</time>
      </trkpt>
      <trkpt lat="45.82845" lon="1.92722">
        <ele>769</ele>
        <time>2026-07-07T11:41:00.000Z</time>
      </trkpt>
      <trkpt lat="45.82845" lon="1.92722">
        <ele>769</ele>
        <time>2026-07-07T11:41:01.000Z</time>
      </trkpt>
      <trkpt lat="45.82845" lon="1.92722">
        <ele>769</ele>
        <time>2026-07-07T11:41:02.000Z</time>
      </trkpt>
      <trkpt lat="45.82845" lon="1.92722">
        <ele>769</ele>
        <time>2026-07-07T11:41:03.000Z</time>
      </trkpt>
      <trkpt lat="45.82845" lon="1.92722">
        <ele>769</ele>
        <time>2026-07-07T11:41:04.000Z</time>
      </trkpt>
      <trkpt lat="45.82845" lon="1.92722">
        <ele>768.9</ele>
        <time>2026-07-07T11:41:05.000Z</time>
      </trkpt>
      <trkpt lat="45.82845" lon="1.92722">
        <ele>768.9</ele>
        <time>2026-07-07T11:41:06.000Z</time>
      </trkpt>
      <trkpt lat="45.82845" lon="1.92722">
        <ele>768.9</ele>
        <time>2026-07-07T11:41:07.000Z</time>
      </trkpt>
      <trkpt lat="45.82845" lon="1.92722">
        <ele>768.9</ele>
        <time>2026-07-07T11:41:08.000Z</time>
      </trkpt>
      <trkpt lat="45.82845" lon="1.92722">
        <ele>768.9</ele>
        <time>2026-07-07T11:41:09.000Z</time>
      </trkpt>
      <trkpt lat="45.82845" lon="1.92722">
        <ele>768.9</ele>
        <time>2026-07-07T11:41:10.000Z</time>
      </trkpt>
      <trkpt lat="45.82845" lon="1.92722">
        <ele>768.9</ele>
        <time>2026-07-07T11:41:11.000Z</time>
      </trkpt>
      <trkpt lat="45.82845" lon="1.92722">
        <ele>768.9</ele>
        <time>2026-07-07T11:41:12.000Z</time>
      </trkpt>
      <trkpt lat="45.82845" lon="1.92722">
        <ele>768.9</ele>
        <time>2026-07-07T11:41:13.000Z</time>
      </trkpt>
      <trkpt lat="45.82845" lon="1.92722">
        <ele>768.9</ele>
        <time>2026-07-07T11:41:14.000Z</time>
      </trkpt>
      <trkpt lat="45.82845" lon="1.92722">
        <ele>768.9</ele>
        <time>2026-07-07T11:41:15.000Z</time>
      </trkpt>
      <trkpt lat="45.82844" lon="1.92722">
        <ele>768.6</ele>
        <time>2026-07-07T11:41:16.000Z</time>
      </trkpt>
      <trkpt lat="45.82844" lon="1.92722">
        <ele>768.6</ele>
        <time>2026-07-07T11:41:17.000Z</time>
      </trkpt>
      <trkpt lat="45.82844" lon="1.92722">
        <ele>768.6</ele>
        <time>2026-07-07T11:41:18.000Z</time>
      </trkpt>
      <trkpt lat="45.82844" lon="1.92722">
        <ele>768.6</ele>
        <time>2026-07-07T11:41:19.000Z</time>
      </trkpt>
      <trkpt lat="45.82844" lon="1.92722">
        <ele>768.6</ele>
        <time>2026-07-07T11:41:20.000Z</time>
      </trkpt>
      <trkpt lat="45.82844" lon="1.92722">
        <ele>768.6</ele>
        <time>2026-07-07T11:41:21.000Z</time>
      </trkpt>
      <trkpt lat="45.82844" lon="1.92722">
        <ele>768.6</ele>
        <time>2026-07-07T11:41:22.000Z</time>
      </trkpt>
      <trkpt lat="45.82844" lon="1.92722">
        <ele>768.6</ele>
        <time>2026-07-07T11:41:23.000Z</time>
      </trkpt>
      <trkpt lat="45.82844" lon="1.92722">
        <ele>768.6</ele>
        <time>2026-07-07T11:41:24.000Z</time>
      </trkpt>
      <trkpt lat="45.82844" lon="1.92722">
        <ele>768.8</ele>
        <time>2026-07-07T11:41:25.000Z</time>
      </trkpt>
      <trkpt lat="45.82844" lon="1.92722">
        <ele>768.8</ele>
        <time>2026-07-07T11:41:26.000Z</time>
      </trkpt>
      <trkpt lat="45.82844" lon="1.92722">
        <ele>768.8</ele>
        <time>2026-07-07T11:41:27.000Z</time>
      </trkpt>
      <trkpt lat="45.82844" lon="1.92722">
        <ele>768.8</ele>
        <time>2026-07-07T11:41:28.000Z</time>
      </trkpt>
      <trkpt lat="45.82844" lon="1.92722">
        <ele>768.8</ele>
        <time>2026-07-07T11:41:29.000Z</time>
      </trkpt>
      <trkpt lat="45.82844" lon="1.92722">
        <ele>768.8</ele>
        <time>2026-07-07T11:41:30.000Z</time>
      </trkpt>
      <trkpt lat="45.82844" lon="1.92723">
        <ele>768.9</ele>
        <time>2026-07-07T11:41:31.000Z</time>
      </trkpt>
      <trkpt lat="45.82843" lon="1.92723">
        <ele>769.1</ele>
        <time>2026-07-07T11:41:32.000Z</time>
      </trkpt>
      <trkpt lat="45.82843" lon="1.92723">
        <ele>769.1</ele>
        <time>2026-07-07T11:41:33.000Z</time>
      </trkpt>
      <trkpt lat="45.82843" lon="1.92723">
        <ele>769.1</ele>
        <time>2026-07-07T11:41:34.000Z</time>
      </trkpt>
      <trkpt lat="45.82843" lon="1.92723">
        <ele>769.1</ele>
        <time>2026-07-07T11:41:35.000Z</time>
      </trkpt>
      <trkpt lat="45.82843" lon="1.92724">
        <ele>769.2</ele>
        <time>2026-07-07T11:41:36.000Z</time>
      </trkpt>
      <trkpt lat="45.82843" lon="1.92726">
        <ele>769.2</ele>
        <time>2026-07-07T11:41:37.000Z</time>
      </trkpt>
      <trkpt lat="45.82844" lon="1.92727">
        <ele>769</ele>
        <time>2026-07-07T11:41:38.000Z</time>
      </trkpt>
      <trkpt lat="45.82845" lon="1.92727">
        <ele>769</ele>
        <time>2026-07-07T11:41:39.000Z</time>
      </trkpt>
      <trkpt lat="45.82845" lon="1.92727">
        <ele>769.2</ele>
        <time>2026-07-07T11:41:40.000Z</time>
      </trkpt>
      <trkpt lat="45.82845" lon="1.92727">
        <ele>768.4</ele>
        <time>2026-07-07T11:41:41.000Z</time>
      </trkpt>
      <trkpt lat="45.82846" lon="1.92728">
        <ele>767.7</ele>
        <time>2026-07-07T11:41:42.000Z</time>
      </trkpt>
      <trkpt lat="45.82847" lon="1.92728">
        <ele>767.9</ele>
        <time>2026-07-07T11:41:43.000Z</time>
      </trkpt>
      <trkpt lat="45.82847" lon="1.92728">
        <ele>767.4</ele>
        <time>2026-07-07T11:41:44.000Z</time>
      </trkpt>
      <trkpt lat="45.82847" lon="1.92728">
        <ele>767.9</ele>
        <time>2026-07-07T11:41:45.000Z</time>
      </trkpt>
      <trkpt lat="45.82847" lon="1.92728">
        <ele>767.8</ele>
        <time>2026-07-07T11:41:46.000Z</time>
      </trkpt>
      <trkpt lat="45.82847" lon="1.92728">
        <ele>767.7</ele>
        <time>2026-07-07T11:41:47.000Z</time>
      </trkpt>
      <trkpt lat="45.82847" lon="1.92728">
        <ele>768.1</ele>
        <time>2026-07-07T11:41:48.000Z</time>
      </trkpt>
      <trkpt lat="45.82847" lon="1.92728">
        <ele>768.7</ele>
        <time>2026-07-07T11:41:49.000Z</time>
      </trkpt>
      <trkpt lat="45.82847" lon="1.92728">
        <ele>768.7</ele>
        <time>2026-07-07T11:41:50.000Z</time>
      </trkpt>
      <trkpt lat="45.82847" lon="1.92728">
        <ele>768.6</ele>
        <time>2026-07-07T11:41:51.000Z</time>
      </trkpt>
      <trkpt lat="45.82847" lon="1.92727">
        <ele>768.2</ele>
        <time>2026-07-07T11:41:52.000Z</time>
      </trkpt>
      <trkpt lat="45.82847" lon="1.92727">
        <ele>768.5</ele>
        <time>2026-07-07T11:41:53.000Z</time>
      </trkpt>
      <trkpt lat="45.82847" lon="1.92727">
        <ele>768.5</ele>
        <time>2026-07-07T11:41:54.000Z</time>
      </trkpt>
      <trkpt lat="45.82847" lon="1.92727">
        <ele>769</ele>
        <time>2026-07-07T11:41:55.000Z</time>
      </trkpt>
      <trkpt lat="45.82847" lon="1.92727">
        <ele>769</ele>
        <time>2026-07-07T11:41:56.000Z</time>
      </trkpt>
      <trkpt lat="45.82847" lon="1.92727">
        <ele>769</ele>
        <time>2026-07-07T11:41:57.000Z</time>
      </trkpt>
      <trkpt lat="45.82847" lon="1.92727">
        <ele>769</ele>
        <time>2026-07-07T11:41:58.000Z</time>
      </trkpt>
      <trkpt lat="45.82847" lon="1.92727">
        <ele>769</ele>
        <time>2026-07-07T11:41:59.000Z</time>
      </trkpt>
      <trkpt lat="45.82847" lon="1.92727">
        <ele>769</ele>
        <time>2026-07-07T11:42:00.000Z</time>
      </trkpt>
      <trkpt lat="45.82847" lon="1.92727">
        <ele>769</ele>
        <time>2026-07-07T11:42:01.000Z</time>
      </trkpt>
      <trkpt lat="45.82847" lon="1.92727">
        <ele>769</ele>
        <time>2026-07-07T11:42:02.000Z</time>
      </trkpt>
      <trkpt lat="45.82847" lon="1.92727">
        <ele>768.9</ele>
        <time>2026-07-07T11:42:03.000Z</time>
      </trkpt>
      <trkpt lat="45.82847" lon="1.92727">
        <ele>769</ele>
        <time>2026-07-07T11:42:04.000Z</time>
      </trkpt>
      <trkpt lat="45.82847" lon="1.92727">
        <ele>769</ele>
        <time>2026-07-07T11:42:05.000Z</time>
      </trkpt>
      <trkpt lat="45.82847" lon="1.92727">
        <ele>769</ele>
        <time>2026-07-07T11:42:06.000Z</time>
      </trkpt>
      <trkpt lat="45.82847" lon="1.92727">
        <ele>769</ele>
        <time>2026-07-07T11:42:07.000Z</time>
      </trkpt>
      <trkpt lat="45.82847" lon="1.92727">
        <ele>769.1</ele>
        <time>2026-07-07T11:42:08.000Z</time>
      </trkpt>
      <trkpt lat="45.82847" lon="1.92727">
        <ele>769.1</ele>
        <time>2026-07-07T11:42:09.000Z</time>
      </trkpt>
      <trkpt lat="45.82847" lon="1.92728">
        <ele>769.1</ele>
        <time>2026-07-07T11:42:10.000Z</time>
      </trkpt>
      <trkpt lat="45.82847" lon="1.92728">
        <ele>769.1</ele>
        <time>2026-07-07T11:42:11.000Z</time>
      </trkpt>
      <trkpt lat="45.82847" lon="1.92728">
        <ele>769.1</ele>
        <time>2026-07-07T11:42:12.000Z</time>
      </trkpt>
      <trkpt lat="45.82847" lon="1.92728">
        <ele>769.1</ele>
        <time>2026-07-07T11:42:13.000Z</time>
      </trkpt>
      <trkpt lat="45.82847" lon="1.92728">
        <ele>769.1</ele>
        <time>2026-07-07T11:42:14.000Z</time>
      </trkpt>
      <trkpt lat="45.82847" lon="1.92728">
        <ele>769.5</ele>
        <time>2026-07-07T11:42:15.000Z</time>
      </trkpt>
      <trkpt lat="45.82847" lon="1.92728">
        <ele>769.3</ele>
        <time>2026-07-07T11:42:16.000Z</time>
      </trkpt>
      <trkpt lat="45.82847" lon="1.92728">
        <ele>769.3</ele>
        <time>2026-07-07T11:42:17.000Z</time>
      </trkpt>
      <trkpt lat="45.82847" lon="1.92729">
        <ele>769.3</ele>
        <time>2026-07-07T11:42:18.000Z</time>
      </trkpt>
      <trkpt lat="45.82847" lon="1.92729">
        <ele>769.3</ele>
        <time>2026-07-07T11:42:19.000Z</time>
      </trkpt>
      <trkpt lat="45.82847" lon="1.92729">
        <ele>769.3</ele>
        <time>2026-07-07T11:42:20.000Z</time>
      </trkpt>
      <trkpt lat="45.82847" lon="1.92729">
        <ele>769.3</ele>
        <time>2026-07-07T11:42:21.000Z</time>
      </trkpt>
      <trkpt lat="45.82847" lon="1.92729">
        <ele>769.3</ele>
        <time>2026-07-07T11:42:22.000Z</time>
      </trkpt>
      <trkpt lat="45.82847" lon="1.92729">
        <ele>769.3</ele>
        <time>2026-07-07T11:42:23.000Z</time>
      </trkpt>
      <trkpt lat="45.82847" lon="1.92729">
        <ele>769.3</ele>
        <time>2026-07-07T11:42:24.000Z</time>
      </trkpt>
      <trkpt lat="45.82848" lon="1.92729">
        <ele>769.7</ele>
        <time>2026-07-07T11:42:25.000Z</time>
      </trkpt>
      <trkpt lat="45.82848" lon="1.92728">
        <ele>769.2</ele>
        <time>2026-07-07T11:42:26.000Z</time>
      </trkpt>
      <trkpt lat="45.82849" lon="1.92728">
        <ele>769.2</ele>
        <time>2026-07-07T11:42:27.000Z</time>
      </trkpt>
      <trkpt lat="45.82849" lon="1.92728">
        <ele>769.2</ele>
        <time>2026-07-07T11:42:28.000Z</time>
      </trkpt>
      <trkpt lat="45.82849" lon="1.92728">
        <ele>769.2</ele>
        <time>2026-07-07T11:42:29.000Z</time>
      </trkpt>
      <trkpt lat="45.82849" lon="1.92728">
        <ele>769.1</ele>
        <time>2026-07-07T11:42:30.000Z</time>
      </trkpt>
      <trkpt lat="45.82849" lon="1.92728">
        <ele>769.1</ele>
        <time>2026-07-07T11:42:31.000Z</time>
      </trkpt>
      <trkpt lat="45.82849" lon="1.92728">
        <ele>769.1</ele>
        <time>2026-07-07T11:42:32.000Z</time>
      </trkpt>
      <trkpt lat="45.82849" lon="1.92728">
        <ele>769.1</ele>
        <time>2026-07-07T11:42:33.000Z</time>
      </trkpt>
      <trkpt lat="45.82849" lon="1.92728">
        <ele>769.1</ele>
        <time>2026-07-07T11:42:34.000Z</time>
      </trkpt>
      <trkpt lat="45.82849" lon="1.92728">
        <ele>769.1</ele>
        <time>2026-07-07T11:42:35.000Z</time>
      </trkpt>
      <trkpt lat="45.82849" lon="1.92728">
        <ele>769.1</ele>
        <time>2026-07-07T11:42:36.000Z</time>
      </trkpt>
      <trkpt lat="45.82849" lon="1.92728">
        <ele>769.1</ele>
        <time>2026-07-07T11:42:37.000Z</time>
      </trkpt>
      <trkpt lat="45.82849" lon="1.92728">
        <ele>769.1</ele>
        <time>2026-07-07T11:42:38.000Z</time>
      </trkpt>
      <trkpt lat="45.82849" lon="1.92728">
        <ele>769.1</ele>
        <time>2026-07-07T11:42:39.000Z</time>
      </trkpt>
      <trkpt lat="45.82849" lon="1.92728">
        <ele>769.1</ele>
        <time>2026-07-07T11:42:40.000Z</time>
      </trkpt>
      <trkpt lat="45.82849" lon="1.92728">
        <ele>769.1</ele>
        <time>2026-07-07T11:42:41.000Z</time>
      </trkpt>
      <trkpt lat="45.82849" lon="1.92728">
        <ele>769.1</ele>
        <time>2026-07-07T11:42:42.000Z</time>
      </trkpt>
      <trkpt lat="45.82849" lon="1.92728">
        <ele>769.1</ele>
        <time>2026-07-07T11:42:43.000Z</time>
      </trkpt>
      <trkpt lat="45.82849" lon="1.92728">
        <ele>769.1</ele>
        <time>2026-07-07T11:42:44.000Z</time>
      </trkpt>
      <trkpt lat="45.82849" lon="1.92729">
        <ele>769.3</ele>
        <time>2026-07-07T11:42:45.000Z</time>
      </trkpt>
      <trkpt lat="45.82849" lon="1.92729">
        <ele>769.3</ele>
        <time>2026-07-07T11:42:46.000Z</time>
      </trkpt>
      <trkpt lat="45.82849" lon="1.92729">
        <ele>769.3</ele>
        <time>2026-07-07T11:42:47.000Z</time>
      </trkpt>
      <trkpt lat="45.82849" lon="1.92729">
        <ele>769.3</ele>
        <time>2026-07-07T11:42:48.000Z</time>
      </trkpt>
      <trkpt lat="45.82849" lon="1.92729">
        <ele>769.3</ele>
        <time>2026-07-07T11:42:49.000Z</time>
      </trkpt>
      <trkpt lat="45.82849" lon="1.92729">
        <ele>769.2</ele>
        <time>2026-07-07T11:42:50.000Z</time>
      </trkpt>
      <trkpt lat="45.82849" lon="1.92729">
        <ele>769.1</ele>
        <time>2026-07-07T11:42:51.000Z</time>
      </trkpt>
      <trkpt lat="45.82849" lon="1.92729">
        <ele>769.1</ele>
        <time>2026-07-07T11:42:52.000Z</time>
      </trkpt>
      <trkpt lat="45.82849" lon="1.92729">
        <ele>769.1</ele>
        <time>2026-07-07T11:42:53.000Z</time>
      </trkpt>
      <trkpt lat="45.82849" lon="1.92729">
        <ele>769.1</ele>
        <time>2026-07-07T11:42:54.000Z</time>
      </trkpt>
      <trkpt lat="45.82849" lon="1.92729">
        <ele>769.1</ele>
        <time>2026-07-07T11:42:55.000Z</time>
      </trkpt>
      <trkpt lat="45.82849" lon="1.92729">
        <ele>769.1</ele>
        <time>2026-07-07T11:42:56.000Z</time>
      </trkpt>
      <trkpt lat="45.82849" lon="1.92729">
        <ele>769.1</ele>
        <time>2026-07-07T11:42:57.000Z</time>
      </trkpt>
      <trkpt lat="45.82849" lon="1.92729">
        <ele>769.1</ele>
        <time>2026-07-07T11:42:58.000Z</time>
      </trkpt>
      <trkpt lat="45.82849" lon="1.92729">
        <ele>769.1</ele>
        <time>2026-07-07T11:42:59.000Z</time>
      </trkpt>
      <trkpt lat="45.82849" lon="1.92729">
        <ele>769.1</ele>
        <time>2026-07-07T11:43:00.000Z</time>
      </trkpt>
      <trkpt lat="45.82849" lon="1.92729">
        <ele>769.1</ele>
        <time>2026-07-07T11:43:01.000Z</time>
      </trkpt>
      <trkpt lat="45.82849" lon="1.92729">
        <ele>769.1</ele>
        <time>2026-07-07T11:43:02.000Z</time>
      </trkpt>
      <trkpt lat="45.82849" lon="1.92729">
        <ele>769.1</ele>
        <time>2026-07-07T11:43:03.000Z</time>
      </trkpt>
      <trkpt lat="45.82849" lon="1.92729">
        <ele>769.1</ele>
        <time>2026-07-07T11:43:04.000Z</time>
      </trkpt>
      <trkpt lat="45.82849" lon="1.92729">
        <ele>769.1</ele>
        <time>2026-07-07T11:43:05.000Z</time>
      </trkpt>
      <trkpt lat="45.82849" lon="1.92729">
        <ele>769.1</ele>
        <time>2026-07-07T11:43:06.000Z</time>
      </trkpt>
      <trkpt lat="45.82849" lon="1.92729">
        <ele>769.1</ele>
        <time>2026-07-07T11:43:07.000Z</time>
      </trkpt>
      <trkpt lat="45.82849" lon="1.92729">
        <ele>769.1</ele>
        <time>2026-07-07T11:43:08.000Z</time>
      </trkpt>
      <trkpt lat="45.82849" lon="1.92729">
        <ele>769.1</ele>
        <time>2026-07-07T11:43:09.000Z</time>
      </trkpt>
      <trkpt lat="45.82849" lon="1.92729">
        <ele>769.1</ele>
        <time>2026-07-07T11:43:10.000Z</time>
      </trkpt>
      <trkpt lat="45.82849" lon="1.92729">
        <ele>769.1</ele>
        <time>2026-07-07T11:43:11.000Z</time>
      </trkpt>
      <trkpt lat="45.8285" lon="1.92729">
        <ele>769.6</ele>
        <time>2026-07-07T11:43:12.000Z</time>
      </trkpt>
      <trkpt lat="45.82849" lon="1.92729">
        <ele>769.4</ele>
        <time>2026-07-07T11:43:13.000Z</time>
      </trkpt>
      <trkpt lat="45.82849" lon="1.92729">
        <ele>769.4</ele>
        <time>2026-07-07T11:43:14.000Z</time>
      </trkpt>
      <trkpt lat="45.82849" lon="1.92729">
        <ele>769.4</ele>
        <time>2026-07-07T11:43:15.000Z</time>
      </trkpt>
      <trkpt lat="45.82849" lon="1.9273">
        <ele>769</ele>
        <time>2026-07-07T11:43:16.000Z</time>
      </trkpt>
      <trkpt lat="45.82849" lon="1.9273">
        <ele>768.9</ele>
        <time>2026-07-07T11:43:17.000Z</time>
      </trkpt>
      <trkpt lat="45.82849" lon="1.9273">
        <ele>768.7</ele>
        <time>2026-07-07T11:43:18.000Z</time>
      </trkpt>
      <trkpt lat="45.82849" lon="1.9273">
        <ele>768.7</ele>
        <time>2026-07-07T11:43:19.000Z</time>
      </trkpt>
      <trkpt lat="45.82849" lon="1.9273">
        <ele>768.7</ele>
        <time>2026-07-07T11:43:20.000Z</time>
      </trkpt>
      <trkpt lat="45.82849" lon="1.9273">
        <ele>768.8</ele>
        <time>2026-07-07T11:43:21.000Z</time>
      </trkpt>
      <trkpt lat="45.82849" lon="1.9273">
        <ele>768.8</ele>
        <time>2026-07-07T11:43:22.000Z</time>
      </trkpt>
      <trkpt lat="45.82849" lon="1.92731">
        <ele>768.8</ele>
        <time>2026-07-07T11:43:23.000Z</time>
      </trkpt>
      <trkpt lat="45.82849" lon="1.92731">
        <ele>768.8</ele>
        <time>2026-07-07T11:43:24.000Z</time>
      </trkpt>
      <trkpt lat="45.82848" lon="1.92732">
        <ele>768.5</ele>
        <time>2026-07-07T11:43:25.000Z</time>
      </trkpt>
      <trkpt lat="45.82846" lon="1.92732">
        <ele>767.5</ele>
        <time>2026-07-07T11:43:26.000Z</time>
      </trkpt>
      <trkpt lat="45.82845" lon="1.92732">
        <ele>766.3</ele>
        <time>2026-07-07T11:43:27.000Z</time>
      </trkpt>
      <trkpt lat="45.82844" lon="1.92732">
        <ele>765.9</ele>
        <time>2026-07-07T11:43:28.000Z</time>
      </trkpt>
      <trkpt lat="45.82842" lon="1.92732">
        <ele>763.8</ele>
        <time>2026-07-07T11:43:29.000Z</time>
      </trkpt>
      <trkpt lat="45.8284" lon="1.92732">
        <ele>762.6</ele>
        <time>2026-07-07T11:43:30.000Z</time>
      </trkpt>
      <trkpt lat="45.82838" lon="1.92732">
        <ele>761.2</ele>
        <time>2026-07-07T11:43:31.000Z</time>
      </trkpt>
      <trkpt lat="45.82837" lon="1.9273">
        <ele>758.9</ele>
        <time>2026-07-07T11:43:32.000Z</time>
      </trkpt>
      <trkpt lat="45.82836" lon="1.92728">
        <ele>757.1</ele>
        <time>2026-07-07T11:43:33.000Z</time>
      </trkpt>
      <trkpt lat="45.82835" lon="1.92727">
        <ele>756.3</ele>
        <time>2026-07-07T11:43:34.000Z</time>
      </trkpt>
      <trkpt lat="45.82836" lon="1.92726">
        <ele>758.1</ele>
        <time>2026-07-07T11:43:35.000Z</time>
      </trkpt>
      <trkpt lat="45.82837" lon="1.92725">
        <ele>757.8</ele>
        <time>2026-07-07T11:43:36.000Z</time>
      </trkpt>
      <trkpt lat="45.82837" lon="1.92725">
        <ele>757.1</ele>
        <time>2026-07-07T11:43:37.000Z</time>
      </trkpt>
      <trkpt lat="45.82837" lon="1.92724">
        <ele>756.9</ele>
        <time>2026-07-07T11:43:38.000Z</time>
      </trkpt>
      <trkpt lat="45.82837" lon="1.92723">
        <ele>756.9</ele>
        <time>2026-07-07T11:43:39.000Z</time>
      </trkpt>
      <trkpt lat="45.82837" lon="1.92723">
        <ele>756.9</ele>
        <time>2026-07-07T11:43:40.000Z</time>
      </trkpt>
      <trkpt lat="45.82837" lon="1.92723">
        <ele>756.9</ele>
        <time>2026-07-07T11:43:41.000Z</time>
      </trkpt>
      <trkpt lat="45.82837" lon="1.92723">
        <ele>757</ele>
        <time>2026-07-07T11:43:42.000Z</time>
      </trkpt>
      <trkpt lat="45.82837" lon="1.92723">
        <ele>757</ele>
        <time>2026-07-07T11:43:43.000Z</time>
      </trkpt>
      <trkpt lat="45.82837" lon="1.92723">
        <ele>757</ele>
        <time>2026-07-07T11:43:44.000Z</time>
      </trkpt>
      <trkpt lat="45.82837" lon="1.92723">
        <ele>757.1</ele>
        <time>2026-07-07T11:43:45.000Z</time>
      </trkpt>
      <trkpt lat="45.82837" lon="1.92723">
        <ele>757.1</ele>
        <time>2026-07-07T11:43:46.000Z</time>
      </trkpt>
      <trkpt lat="45.82837" lon="1.92723">
        <ele>757.1</ele>
        <time>2026-07-07T11:43:47.000Z</time>
      </trkpt>
      <trkpt lat="45.82837" lon="1.92723">
        <ele>757.7</ele>
        <time>2026-07-07T11:43:48.000Z</time>
      </trkpt>
      <trkpt lat="45.82838" lon="1.92723">
        <ele>757.7</ele>
        <time>2026-07-07T11:43:49.000Z</time>
      </trkpt>
      <trkpt lat="45.82838" lon="1.92723">
        <ele>758.1</ele>
        <time>2026-07-07T11:43:50.000Z</time>
      </trkpt>
      <trkpt lat="45.82838" lon="1.92722">
        <ele>759.3</ele>
        <time>2026-07-07T11:43:51.000Z</time>
      </trkpt>
      <trkpt lat="45.82837" lon="1.92722">
        <ele>759.9</ele>
        <time>2026-07-07T11:43:52.000Z</time>
      </trkpt>
      <trkpt lat="45.82836" lon="1.92722">
        <ele>759.7</ele>
        <time>2026-07-07T11:43:53.000Z</time>
      </trkpt>
      <trkpt lat="45.82835" lon="1.92723">
        <ele>758.5</ele>
        <time>2026-07-07T11:43:54.000Z</time>
      </trkpt>
      <trkpt lat="45.82835" lon="1.92724">
        <ele>758.3</ele>
        <time>2026-07-07T11:43:55.000Z</time>
      </trkpt>
      <trkpt lat="45.82835" lon="1.92726">
        <ele>760</ele>
        <time>2026-07-07T11:43:56.000Z</time>
      </trkpt>
      <trkpt lat="45.82835" lon="1.92727">
        <ele>759.7</ele>
        <time>2026-07-07T11:43:57.000Z</time>
      </trkpt>
      <trkpt lat="45.82836" lon="1.92728">
        <ele>759.3</ele>
        <time>2026-07-07T11:43:58.000Z</time>
      </trkpt>
      <trkpt lat="45.82837" lon="1.92728">
        <ele>759.3</ele>
        <time>2026-07-07T11:43:59.000Z</time>
      </trkpt>
      <trkpt lat="45.82838" lon="1.92728">
        <ele>759.3</ele>
        <time>2026-07-07T11:44:00.000Z</time>
      </trkpt>
      <trkpt lat="45.82838" lon="1.9273">
        <ele>760.2</ele>
        <time>2026-07-07T11:44:01.000Z</time>
      </trkpt>
      <trkpt lat="45.82839" lon="1.92731">
        <ele>760.1</ele>
        <time>2026-07-07T11:44:02.000Z</time>
      </trkpt>
      <trkpt lat="45.82839" lon="1.92731">
        <ele>760.1</ele>
        <time>2026-07-07T11:44:03.000Z</time>
      </trkpt>
      <trkpt lat="45.82839" lon="1.92731">
        <ele>760.7</ele>
        <time>2026-07-07T11:44:04.000Z</time>
      </trkpt>
      <trkpt lat="45.8284" lon="1.92731">
        <ele>761.2</ele>
        <time>2026-07-07T11:44:05.000Z</time>
      </trkpt>
      <trkpt lat="45.82841" lon="1.92729">
        <ele>762.9</ele>
        <time>2026-07-07T11:44:06.000Z</time>
      </trkpt>
      <trkpt lat="45.82842" lon="1.92728">
        <ele>763.7</ele>
        <time>2026-07-07T11:44:07.000Z</time>
      </trkpt>
      <trkpt lat="45.82842" lon="1.9273">
        <ele>765.5</ele>
        <time>2026-07-07T11:44:08.000Z</time>
      </trkpt>
      <trkpt lat="45.82842" lon="1.92731">
        <ele>766.4</ele>
        <time>2026-07-07T11:44:09.000Z</time>
      </trkpt>
      <trkpt lat="45.82842" lon="1.92732">
        <ele>766.4</ele>
        <time>2026-07-07T11:44:10.000Z</time>
      </trkpt>
      <trkpt lat="45.82842" lon="1.92733">
        <ele>766.4</ele>
        <time>2026-07-07T11:44:11.000Z</time>
      </trkpt>
      <trkpt lat="45.82842" lon="1.92733">
        <ele>766.4</ele>
        <time>2026-07-07T11:44:12.000Z</time>
      </trkpt>
      <trkpt lat="45.82842" lon="1.92733">
        <ele>766.4</ele>
        <time>2026-07-07T11:44:13.000Z</time>
      </trkpt>
      <trkpt lat="45.82842" lon="1.92733">
        <ele>766.5</ele>
        <time>2026-07-07T11:44:14.000Z</time>
      </trkpt>
      <trkpt lat="45.82842" lon="1.92733">
        <ele>766.5</ele>
        <time>2026-07-07T11:44:15.000Z</time>
      </trkpt>
      <trkpt lat="45.82842" lon="1.92733">
        <ele>766.5</ele>
        <time>2026-07-07T11:44:16.000Z</time>
      </trkpt>
      <trkpt lat="45.82842" lon="1.92733">
        <ele>766.5</ele>
        <time>2026-07-07T11:44:17.000Z</time>
      </trkpt>
      <trkpt lat="45.82842" lon="1.92733">
        <ele>766.5</ele>
        <time>2026-07-07T11:44:18.000Z</time>
      </trkpt>
      <trkpt lat="45.82842" lon="1.92733">
        <ele>766.5</ele>
        <time>2026-07-07T11:44:19.000Z</time>
      </trkpt>
      <trkpt lat="45.82842" lon="1.92733">
        <ele>766.6</ele>
        <time>2026-07-07T11:44:20.000Z</time>
      </trkpt>
      <trkpt lat="45.82842" lon="1.92733">
        <ele>766.6</ele>
        <time>2026-07-07T11:44:21.000Z</time>
      </trkpt>
      <trkpt lat="45.82842" lon="1.92733">
        <ele>766.6</ele>
        <time>2026-07-07T11:44:22.000Z</time>
      </trkpt>
      <trkpt lat="45.82842" lon="1.92733">
        <ele>766.7</ele>
        <time>2026-07-07T11:44:23.000Z</time>
      </trkpt>
      <trkpt lat="45.82842" lon="1.92733">
        <ele>766.7</ele>
        <time>2026-07-07T11:44:24.000Z</time>
      </trkpt>
      <trkpt lat="45.82842" lon="1.92733">
        <ele>766.7</ele>
        <time>2026-07-07T11:44:25.000Z</time>
      </trkpt>
      <trkpt lat="45.82842" lon="1.92733">
        <ele>766.7</ele>
        <time>2026-07-07T11:44:26.000Z</time>
      </trkpt>
      <trkpt lat="45.82842" lon="1.92733">
        <ele>766.7</ele>
        <time>2026-07-07T11:44:27.000Z</time>
      </trkpt>
      <trkpt lat="45.82842" lon="1.92733">
        <ele>766.8</ele>
        <time>2026-07-07T11:44:28.000Z</time>
      </trkpt>
      <trkpt lat="45.82842" lon="1.92733">
        <ele>766.8</ele>
        <time>2026-07-07T11:44:29.000Z</time>
      </trkpt>
      <trkpt lat="45.82842" lon="1.92733">
        <ele>766.8</ele>
        <time>2026-07-07T11:44:30.000Z</time>
      </trkpt>
      <trkpt lat="45.82842" lon="1.92733">
        <ele>766.8</ele>
        <time>2026-07-07T11:44:31.000Z</time>
      </trkpt>
      <trkpt lat="45.82842" lon="1.92733">
        <ele>766.8</ele>
        <time>2026-07-07T11:44:32.000Z</time>
      </trkpt>
      <trkpt lat="45.82842" lon="1.92733">
        <ele>766.8</ele>
        <time>2026-07-07T11:44:33.000Z</time>
      </trkpt>
      <trkpt lat="45.82842" lon="1.92733">
        <ele>766.8</ele>
        <time>2026-07-07T11:44:34.000Z</time>
      </trkpt>
      <trkpt lat="45.82842" lon="1.92733">
        <ele>766.9</ele>
        <time>2026-07-07T11:44:35.000Z</time>
      </trkpt>
      <trkpt lat="45.82842" lon="1.92733">
        <ele>766.9</ele>
        <time>2026-07-07T11:44:36.000Z</time>
      </trkpt>
      <trkpt lat="45.82842" lon="1.92733">
        <ele>766.9</ele>
        <time>2026-07-07T11:44:37.000Z</time>
      </trkpt>
      <trkpt lat="45.82842" lon="1.92733">
        <ele>766.9</ele>
        <time>2026-07-07T11:44:38.000Z</time>
      </trkpt>
      <trkpt lat="45.82842" lon="1.92733">
        <ele>766.9</ele>
        <time>2026-07-07T11:44:39.000Z</time>
      </trkpt>
      <trkpt lat="45.82842" lon="1.92733">
        <ele>766.9</ele>
        <time>2026-07-07T11:44:40.000Z</time>
      </trkpt>
      <trkpt lat="45.82842" lon="1.92733">
        <ele>766.9</ele>
        <time>2026-07-07T11:44:41.000Z</time>
      </trkpt>
      <trkpt lat="45.82842" lon="1.92733">
        <ele>766.9</ele>
        <time>2026-07-07T11:44:42.000Z</time>
      </trkpt>
      <trkpt lat="45.82842" lon="1.92733">
        <ele>766.9</ele>
        <time>2026-07-07T11:44:43.000Z</time>
      </trkpt>
      <trkpt lat="45.82842" lon="1.92733">
        <ele>766.9</ele>
        <time>2026-07-07T11:44:44.000Z</time>
      </trkpt>
      <trkpt lat="45.82842" lon="1.92733">
        <ele>766.9</ele>
        <time>2026-07-07T11:44:45.000Z</time>
      </trkpt>
      <trkpt lat="45.82842" lon="1.92733">
        <ele>766.9</ele>
        <time>2026-07-07T11:44:46.000Z</time>
      </trkpt>
      <trkpt lat="45.82842" lon="1.92733">
        <ele>767.1</ele>
        <time>2026-07-07T11:44:47.000Z</time>
      </trkpt>
      <trkpt lat="45.82842" lon="1.92733">
        <ele>767.1</ele>
        <time>2026-07-07T11:44:48.000Z</time>
      </trkpt>
      <trkpt lat="45.82842" lon="1.92733">
        <ele>767.1</ele>
        <time>2026-07-07T11:44:49.000Z</time>
      </trkpt>
      <trkpt lat="45.82842" lon="1.92733">
        <ele>767</ele>
        <time>2026-07-07T11:44:50.000Z</time>
      </trkpt>
      <trkpt lat="45.82842" lon="1.92733">
        <ele>767</ele>
        <time>2026-07-07T11:44:51.000Z</time>
      </trkpt>
      <trkpt lat="45.82842" lon="1.92733">
        <ele>767</ele>
        <time>2026-07-07T11:44:52.000Z</time>
      </trkpt>
      <trkpt lat="45.82842" lon="1.92733">
        <ele>767</ele>
        <time>2026-07-07T11:44:53.000Z</time>
      </trkpt>
      <trkpt lat="45.82842" lon="1.92734">
        <ele>767.8</ele>
        <time>2026-07-07T11:44:54.000Z</time>
      </trkpt>
      <trkpt lat="45.82842" lon="1.92734">
        <ele>767.8</ele>
        <time>2026-07-07T11:44:55.000Z</time>
      </trkpt>
      <trkpt lat="45.82842" lon="1.92734">
        <ele>767.8</ele>
        <time>2026-07-07T11:44:56.000Z</time>
      </trkpt>
      <trkpt lat="45.82841" lon="1.92735">
        <ele>767.9</ele>
        <time>2026-07-07T11:44:57.000Z</time>
      </trkpt>
      <trkpt lat="45.82841" lon="1.92735">
        <ele>767.5</ele>
        <time>2026-07-07T11:44:58.000Z</time>
      </trkpt>
      <trkpt lat="45.82841" lon="1.92735">
        <ele>767.9</ele>
        <time>2026-07-07T11:44:59.000Z</time>
      </trkpt>
      <trkpt lat="45.82841" lon="1.92736">
        <ele>768.8</ele>
        <time>2026-07-07T11:45:00.000Z</time>
      </trkpt>
      <trkpt lat="45.82841" lon="1.92736">
        <ele>769.5</ele>
        <time>2026-07-07T11:45:01.000Z</time>
      </trkpt>
      <trkpt lat="45.82841" lon="1.92736">
        <ele>769.8</ele>
        <time>2026-07-07T11:45:02.000Z</time>
      </trkpt>
      <trkpt lat="45.8284" lon="1.92736">
        <ele>769.8</ele>
        <time>2026-07-07T11:45:03.000Z</time>
      </trkpt>
      <trkpt lat="45.8284" lon="1.92737">
        <ele>770.7</ele>
        <time>2026-07-07T11:45:04.000Z</time>
      </trkpt>
      <trkpt lat="45.8284" lon="1.92738">
        <ele>770.7</ele>
        <time>2026-07-07T11:45:05.000Z</time>
      </trkpt>
      <trkpt lat="45.8284" lon="1.92738">
        <ele>771.2</ele>
        <time>2026-07-07T11:45:06.000Z</time>
      </trkpt>
      <trkpt lat="45.82839" lon="1.92737">
        <ele>771.8</ele>
        <time>2026-07-07T11:45:07.000Z</time>
      </trkpt>
      <trkpt lat="45.8284" lon="1.92738">
        <ele>771.8</ele>
        <time>2026-07-07T11:45:08.000Z</time>
      </trkpt>
      <trkpt lat="45.8284" lon="1.92738">
        <ele>771.8</ele>
        <time>2026-07-07T11:45:09.000Z</time>
      </trkpt>
      <trkpt lat="45.8284" lon="1.92738">
        <ele>771.8</ele>
        <time>2026-07-07T11:45:10.000Z</time>
      </trkpt>
      <trkpt lat="45.8284" lon="1.92738">
        <ele>772.1</ele>
        <time>2026-07-07T11:45:11.000Z</time>
      </trkpt>
      <trkpt lat="45.8284" lon="1.92738">
        <ele>772.3</ele>
        <time>2026-07-07T11:45:12.000Z</time>
      </trkpt>
      <trkpt lat="45.8284" lon="1.92738">
        <ele>773.4</ele>
        <time>2026-07-07T11:45:13.000Z</time>
      </trkpt>
      <trkpt lat="45.8284" lon="1.92738">
        <ele>774.1</ele>
        <time>2026-07-07T11:45:14.000Z</time>
      </trkpt>
      <trkpt lat="45.8284" lon="1.92739">
        <ele>774.4</ele>
        <time>2026-07-07T11:45:15.000Z</time>
      </trkpt>
      <trkpt lat="45.82839" lon="1.92741">
        <ele>775.1</ele>
        <time>2026-07-07T11:45:16.000Z</time>
      </trkpt>
      <trkpt lat="45.82838" lon="1.92742">
        <ele>775.3</ele>
        <time>2026-07-07T11:45:17.000Z</time>
      </trkpt>
      <trkpt lat="45.82838" lon="1.92744">
        <ele>775.5</ele>
        <time>2026-07-07T11:45:18.000Z</time>
      </trkpt>
      <trkpt lat="45.82837" lon="1.92746">
        <ele>776.2</ele>
        <time>2026-07-07T11:45:19.000Z</time>
      </trkpt>
      <trkpt lat="45.82837" lon="1.92749">
        <ele>776.7</ele>
        <time>2026-07-07T11:45:20.000Z</time>
      </trkpt>
      <trkpt lat="45.82836" lon="1.92751">
        <ele>777</ele>
        <time>2026-07-07T11:45:21.000Z</time>
      </trkpt>
      <trkpt lat="45.82836" lon="1.92753">
        <ele>777.5</ele>
        <time>2026-07-07T11:45:22.000Z</time>
      </trkpt>
      <trkpt lat="45.82835" lon="1.92755">
        <ele>776.9</ele>
        <time>2026-07-07T11:45:23.000Z</time>
      </trkpt>
      <trkpt lat="45.82835" lon="1.92757">
        <ele>777.3</ele>
        <time>2026-07-07T11:45:24.000Z</time>
      </trkpt>
      <trkpt lat="45.82836" lon="1.92757">
        <ele>777</ele>
        <time>2026-07-07T11:45:25.000Z</time>
      </trkpt>
      <trkpt lat="45.82837" lon="1.92757">
        <ele>777.5</ele>
        <time>2026-07-07T11:45:26.000Z</time>
      </trkpt>
      <trkpt lat="45.82838" lon="1.92757">
        <ele>777.5</ele>
        <time>2026-07-07T11:45:27.000Z</time>
      </trkpt>
      <trkpt lat="45.82838" lon="1.92757">
        <ele>777.5</ele>
        <time>2026-07-07T11:45:28.000Z</time>
      </trkpt>
      <trkpt lat="45.82838" lon="1.92757">
        <ele>777.1</ele>
        <time>2026-07-07T11:45:29.000Z</time>
      </trkpt>
      <trkpt lat="45.82838" lon="1.92757">
        <ele>777.1</ele>
        <time>2026-07-07T11:45:30.000Z</time>
      </trkpt>
      <trkpt lat="45.82838" lon="1.92757">
        <ele>777.5</ele>
        <time>2026-07-07T11:45:31.000Z</time>
      </trkpt>
      <trkpt lat="45.82838" lon="1.92758">
        <ele>778.4</ele>
        <time>2026-07-07T11:45:32.000Z</time>
      </trkpt>
      <trkpt lat="45.82837" lon="1.9276">
        <ele>778.8</ele>
        <time>2026-07-07T11:45:33.000Z</time>
      </trkpt>
      <trkpt lat="45.82836" lon="1.92762">
        <ele>778.8</ele>
        <time>2026-07-07T11:45:34.000Z</time>
      </trkpt>
      <trkpt lat="45.82836" lon="1.92764">
        <ele>779.4</ele>
        <time>2026-07-07T11:45:35.000Z</time>
      </trkpt>
      <trkpt lat="45.82835" lon="1.92766">
        <ele>780.1</ele>
        <time>2026-07-07T11:45:36.000Z</time>
      </trkpt>
      <trkpt lat="45.82835" lon="1.92768">
        <ele>780.7</ele>
        <time>2026-07-07T11:45:37.000Z</time>
      </trkpt>
      <trkpt lat="45.82834" lon="1.9277">
        <ele>780.8</ele>
        <time>2026-07-07T11:45:38.000Z</time>
      </trkpt>
      <trkpt lat="45.82833" lon="1.92772">
        <ele>780.7</ele>
        <time>2026-07-07T11:45:39.000Z</time>
      </trkpt>
      <trkpt lat="45.82833" lon="1.92774">
        <ele>780.7</ele>
        <time>2026-07-07T11:45:40.000Z</time>
      </trkpt>
      <trkpt lat="45.82832" lon="1.92776">
        <ele>781</ele>
        <time>2026-07-07T11:45:41.000Z</time>
      </trkpt>
      <trkpt lat="45.82831" lon="1.92778">
        <ele>781.3</ele>
        <time>2026-07-07T11:45:42.000Z</time>
      </trkpt>
      <trkpt lat="45.8283" lon="1.9278">
        <ele>781.4</ele>
        <time>2026-07-07T11:45:43.000Z</time>
      </trkpt>
      <trkpt lat="45.82829" lon="1.92781">
        <ele>781.3</ele>
        <time>2026-07-07T11:45:44.000Z</time>
      </trkpt>
      <trkpt lat="45.82828" lon="1.92783">
        <ele>780.9</ele>
        <time>2026-07-07T11:45:45.000Z</time>
      </trkpt>
      <trkpt lat="45.82827" lon="1.92785">
        <ele>781.2</ele>
        <time>2026-07-07T11:45:46.000Z</time>
      </trkpt>
      <trkpt lat="45.82827" lon="1.92787">
        <ele>781.4</ele>
        <time>2026-07-07T11:45:47.000Z</time>
      </trkpt>
      <trkpt lat="45.82826" lon="1.92788">
        <ele>781.2</ele>
        <time>2026-07-07T11:45:48.000Z</time>
      </trkpt>
      <trkpt lat="45.82825" lon="1.9279">
        <ele>781</ele>
        <time>2026-07-07T11:45:49.000Z</time>
      </trkpt>
      <trkpt lat="45.82825" lon="1.92792">
        <ele>781.7</ele>
        <time>2026-07-07T11:45:50.000Z</time>
      </trkpt>
      <trkpt lat="45.82824" lon="1.92793">
        <ele>781.8</ele>
        <time>2026-07-07T11:45:51.000Z</time>
      </trkpt>
      <trkpt lat="45.82823" lon="1.92795">
        <ele>782.3</ele>
        <time>2026-07-07T11:45:52.000Z</time>
      </trkpt>
      <trkpt lat="45.82823" lon="1.92797">
        <ele>782.3</ele>
        <time>2026-07-07T11:45:53.000Z</time>
      </trkpt>
      <trkpt lat="45.82823" lon="1.92799">
        <ele>782.8</ele>
        <time>2026-07-07T11:45:54.000Z</time>
      </trkpt>
      <trkpt lat="45.82823" lon="1.92801">
        <ele>782.2</ele>
        <time>2026-07-07T11:45:55.000Z</time>
      </trkpt>
      <trkpt lat="45.82823" lon="1.92803">
        <ele>781.2</ele>
        <time>2026-07-07T11:45:56.000Z</time>
      </trkpt>
      <trkpt lat="45.82823" lon="1.92805">
        <ele>781.1</ele>
        <time>2026-07-07T11:45:57.000Z</time>
      </trkpt>
      <trkpt lat="45.82823" lon="1.92807">
        <ele>781.1</ele>
        <time>2026-07-07T11:45:58.000Z</time>
      </trkpt>
      <trkpt lat="45.82823" lon="1.92809">
        <ele>780.6</ele>
        <time>2026-07-07T11:45:59.000Z</time>
      </trkpt>
      <trkpt lat="45.82823" lon="1.92811">
        <ele>780.2</ele>
        <time>2026-07-07T11:46:00.000Z</time>
      </trkpt>
      <trkpt lat="45.82823" lon="1.92814">
        <ele>779.9</ele>
        <time>2026-07-07T11:46:01.000Z</time>
      </trkpt>
      <trkpt lat="45.82824" lon="1.92816">
        <ele>779.2</ele>
        <time>2026-07-07T11:46:02.000Z</time>
      </trkpt>
      <trkpt lat="45.82824" lon="1.92817">
        <ele>778.8</ele>
        <time>2026-07-07T11:46:03.000Z</time>
      </trkpt>
      <trkpt lat="45.82824" lon="1.92819">
        <ele>779.1</ele>
        <time>2026-07-07T11:46:04.000Z</time>
      </trkpt>
      <trkpt lat="45.82824" lon="1.9282">
        <ele>779.2</ele>
        <time>2026-07-07T11:46:05.000Z</time>
      </trkpt>
      <trkpt lat="45.82825" lon="1.92821">
        <ele>778.9</ele>
        <time>2026-07-07T11:46:06.000Z</time>
      </trkpt>
      <trkpt lat="45.82825" lon="1.92822">
        <ele>778.6</ele>
        <time>2026-07-07T11:46:07.000Z</time>
      </trkpt>
      <trkpt lat="45.82826" lon="1.92824">
        <ele>778.4</ele>
        <time>2026-07-07T11:46:08.000Z</time>
      </trkpt>
      <trkpt lat="45.82826" lon="1.92824">
        <ele>778.4</ele>
        <time>2026-07-07T11:46:09.000Z</time>
      </trkpt>
      <trkpt lat="45.82826" lon="1.92824">
        <ele>778.4</ele>
        <time>2026-07-07T11:46:10.000Z</time>
      </trkpt>
      <trkpt lat="45.82826" lon="1.92824">
        <ele>778.4</ele>
        <time>2026-07-07T11:46:11.000Z</time>
      </trkpt>
      <trkpt lat="45.82826" lon="1.92824">
        <ele>778.4</ele>
        <time>2026-07-07T11:46:12.000Z</time>
      </trkpt>
      <trkpt lat="45.82825" lon="1.92824">
        <ele>778.4</ele>
        <time>2026-07-07T11:46:13.000Z</time>
      </trkpt>
      <trkpt lat="45.82825" lon="1.92824">
        <ele>778.4</ele>
        <time>2026-07-07T11:46:14.000Z</time>
      </trkpt>
      <trkpt lat="45.82825" lon="1.92824">
        <ele>778.4</ele>
        <time>2026-07-07T11:46:15.000Z</time>
      </trkpt>
      <trkpt lat="45.82825" lon="1.92824">
        <ele>778.4</ele>
        <time>2026-07-07T11:46:16.000Z</time>
      </trkpt>
      <trkpt lat="45.82825" lon="1.92824">
        <ele>778.4</ele>
        <time>2026-07-07T11:46:17.000Z</time>
      </trkpt>
      <trkpt lat="45.82825" lon="1.92824">
        <ele>778.4</ele>
        <time>2026-07-07T11:46:18.000Z</time>
      </trkpt>
      <trkpt lat="45.82826" lon="1.92825">
        <ele>778.5</ele>
        <time>2026-07-07T11:46:19.000Z</time>
      </trkpt>
      <trkpt lat="45.82827" lon="1.92826">
        <ele>779.1</ele>
        <time>2026-07-07T11:46:20.000Z</time>
      </trkpt>
      <trkpt lat="45.82828" lon="1.92826">
        <ele>778.9</ele>
        <time>2026-07-07T11:46:21.000Z</time>
      </trkpt>
      <trkpt lat="45.82829" lon="1.92827">
        <ele>778.3</ele>
        <time>2026-07-07T11:46:22.000Z</time>
      </trkpt>
      <trkpt lat="45.82829" lon="1.92827">
        <ele>778.1</ele>
        <time>2026-07-07T11:46:23.000Z</time>
      </trkpt>
      <trkpt lat="45.82829" lon="1.92827">
        <ele>778</ele>
        <time>2026-07-07T11:46:24.000Z</time>
      </trkpt>
      <trkpt lat="45.82829" lon="1.92827">
        <ele>777.9</ele>
        <time>2026-07-07T11:46:25.000Z</time>
      </trkpt>
      <trkpt lat="45.82829" lon="1.92827">
        <ele>777.9</ele>
        <time>2026-07-07T11:46:26.000Z</time>
      </trkpt>
      <trkpt lat="45.82829" lon="1.92827">
        <ele>777.9</ele>
        <time>2026-07-07T11:46:27.000Z</time>
      </trkpt>
      <trkpt lat="45.82829" lon="1.92827">
        <ele>777.9</ele>
        <time>2026-07-07T11:46:28.000Z</time>
      </trkpt>
      <trkpt lat="45.82829" lon="1.92827">
        <ele>777.9</ele>
        <time>2026-07-07T11:46:29.000Z</time>
      </trkpt>
      <trkpt lat="45.82829" lon="1.92827">
        <ele>777.9</ele>
        <time>2026-07-07T11:46:30.000Z</time>
      </trkpt>
      <trkpt lat="45.82829" lon="1.92827">
        <ele>777.9</ele>
        <time>2026-07-07T11:46:31.000Z</time>
      </trkpt>
      <trkpt lat="45.82829" lon="1.92827">
        <ele>777.9</ele>
        <time>2026-07-07T11:46:32.000Z</time>
      </trkpt>
      <trkpt lat="45.82829" lon="1.92827">
        <ele>777.9</ele>
        <time>2026-07-07T11:46:33.000Z</time>
      </trkpt>
      <trkpt lat="45.82829" lon="1.92827">
        <ele>777.9</ele>
        <time>2026-07-07T11:46:34.000Z</time>
      </trkpt>
      <trkpt lat="45.82829" lon="1.92827">
        <ele>777.3</ele>
        <time>2026-07-07T11:46:35.000Z</time>
      </trkpt>
      <trkpt lat="45.8283" lon="1.92828">
        <ele>776.6</ele>
        <time>2026-07-07T11:46:36.000Z</time>
      </trkpt>
      <trkpt lat="45.82831" lon="1.92828">
        <ele>776.5</ele>
        <time>2026-07-07T11:46:37.000Z</time>
      </trkpt>
      <trkpt lat="45.82832" lon="1.92829">
        <ele>775.8</ele>
        <time>2026-07-07T11:46:38.000Z</time>
      </trkpt>
      <trkpt lat="45.82832" lon="1.9283">
        <ele>774.6</ele>
        <time>2026-07-07T11:46:39.000Z</time>
      </trkpt>
      <trkpt lat="45.82833" lon="1.92831">
        <ele>774.4</ele>
        <time>2026-07-07T11:46:40.000Z</time>
      </trkpt>
      <trkpt lat="45.82833" lon="1.92831">
        <ele>773.9</ele>
        <time>2026-07-07T11:46:41.000Z</time>
      </trkpt>
      <trkpt lat="45.82833" lon="1.92831">
        <ele>773.7</ele>
        <time>2026-07-07T11:46:42.000Z</time>
      </trkpt>
      <trkpt lat="45.82833" lon="1.92831">
        <ele>774.7</ele>
        <time>2026-07-07T11:46:43.000Z</time>
      </trkpt>
      <trkpt lat="45.82833" lon="1.92831">
        <ele>774.7</ele>
        <time>2026-07-07T11:46:44.000Z</time>
      </trkpt>
      <trkpt lat="45.82833" lon="1.92831">
        <ele>774.7</ele>
        <time>2026-07-07T11:46:45.000Z</time>
      </trkpt>
      <trkpt lat="45.82833" lon="1.92831">
        <ele>774.7</ele>
        <time>2026-07-07T11:46:46.000Z</time>
      </trkpt>
      <trkpt lat="45.82833" lon="1.92831">
        <ele>774.7</ele>
        <time>2026-07-07T11:46:47.000Z</time>
      </trkpt>
      <trkpt lat="45.82833" lon="1.92831">
        <ele>774.7</ele>
        <time>2026-07-07T11:46:48.000Z</time>
      </trkpt>
      <trkpt lat="45.82833" lon="1.92831">
        <ele>774.7</ele>
        <time>2026-07-07T11:46:49.000Z</time>
      </trkpt>
      <trkpt lat="45.82833" lon="1.92831">
        <ele>774.7</ele>
        <time>2026-07-07T11:46:50.000Z</time>
      </trkpt>
      <trkpt lat="45.82833" lon="1.92831">
        <ele>774.7</ele>
        <time>2026-07-07T11:46:51.000Z</time>
      </trkpt>
      <trkpt lat="45.82833" lon="1.92831">
        <ele>774.7</ele>
        <time>2026-07-07T11:46:52.000Z</time>
      </trkpt>
      <trkpt lat="45.82833" lon="1.92831">
        <ele>774.5</ele>
        <time>2026-07-07T11:46:53.000Z</time>
      </trkpt>
      <trkpt lat="45.82833" lon="1.92831">
        <ele>774.5</ele>
        <time>2026-07-07T11:46:54.000Z</time>
      </trkpt>
      <trkpt lat="45.82833" lon="1.9283">
        <ele>773.6</ele>
        <time>2026-07-07T11:46:55.000Z</time>
      </trkpt>
      <trkpt lat="45.82833" lon="1.92829">
        <ele>774</ele>
        <time>2026-07-07T11:46:56.000Z</time>
      </trkpt>
      <trkpt lat="45.82832" lon="1.92828">
        <ele>773.7</ele>
        <time>2026-07-07T11:46:57.000Z</time>
      </trkpt>
      <trkpt lat="45.82831" lon="1.92826">
        <ele>773.9</ele>
        <time>2026-07-07T11:46:58.000Z</time>
      </trkpt>
      <trkpt lat="45.82831" lon="1.92824">
        <ele>773.8</ele>
        <time>2026-07-07T11:46:59.000Z</time>
      </trkpt>
      <trkpt lat="45.8283" lon="1.92822">
        <ele>773.2</ele>
        <time>2026-07-07T11:47:00.000Z</time>
      </trkpt>
      <trkpt lat="45.8283" lon="1.9282">
        <ele>774.8</ele>
        <time>2026-07-07T11:47:01.000Z</time>
      </trkpt>
      <trkpt lat="45.82831" lon="1.9282">
        <ele>779.1</ele>
        <time>2026-07-07T11:47:02.000Z</time>
      </trkpt>
      <trkpt lat="45.82832" lon="1.92821">
        <ele>780.1</ele>
        <time>2026-07-07T11:47:03.000Z</time>
      </trkpt>
      <trkpt lat="45.82833" lon="1.92821">
        <ele>780.1</ele>
        <time>2026-07-07T11:47:04.000Z</time>
      </trkpt>
      <trkpt lat="45.82833" lon="1.92821">
        <ele>780.1</ele>
        <time>2026-07-07T11:47:05.000Z</time>
      </trkpt>
      <trkpt lat="45.82833" lon="1.92821">
        <ele>780.1</ele>
        <time>2026-07-07T11:47:06.000Z</time>
      </trkpt>
      <trkpt lat="45.82833" lon="1.92821">
        <ele>780.1</ele>
        <time>2026-07-07T11:47:07.000Z</time>
      </trkpt>
      <trkpt lat="45.82833" lon="1.92821">
        <ele>780.2</ele>
        <time>2026-07-07T11:47:08.000Z</time>
      </trkpt>
      <trkpt lat="45.82833" lon="1.92821">
        <ele>780.2</ele>
        <time>2026-07-07T11:47:09.000Z</time>
      </trkpt>
      <trkpt lat="45.82833" lon="1.92821">
        <ele>780.2</ele>
        <time>2026-07-07T11:47:10.000Z</time>
      </trkpt>
      <trkpt lat="45.82832" lon="1.92821">
        <ele>780.3</ele>
        <time>2026-07-07T11:47:11.000Z</time>
      </trkpt>
      <trkpt lat="45.82833" lon="1.92821">
        <ele>780.8</ele>
        <time>2026-07-07T11:47:12.000Z</time>
      </trkpt>
      <trkpt lat="45.82833" lon="1.92821">
        <ele>780.8</ele>
        <time>2026-07-07T11:47:13.000Z</time>
      </trkpt>
      <trkpt lat="45.82833" lon="1.92821">
        <ele>780.8</ele>
        <time>2026-07-07T11:47:14.000Z</time>
      </trkpt>
      <trkpt lat="45.82833" lon="1.92821">
        <ele>780.8</ele>
        <time>2026-07-07T11:47:15.000Z</time>
      </trkpt>
      <trkpt lat="45.82833" lon="1.92821">
        <ele>780.8</ele>
        <time>2026-07-07T11:47:16.000Z</time>
      </trkpt>
      <trkpt lat="45.82833" lon="1.92821">
        <ele>780.8</ele>
        <time>2026-07-07T11:47:17.000Z</time>
      </trkpt>
      <trkpt lat="45.82833" lon="1.92821">
        <ele>780.8</ele>
        <time>2026-07-07T11:47:18.000Z</time>
      </trkpt>
      <trkpt lat="45.82833" lon="1.92821">
        <ele>780.8</ele>
        <time>2026-07-07T11:47:19.000Z</time>
      </trkpt>
      <trkpt lat="45.82832" lon="1.92821">
        <ele>780.7</ele>
        <time>2026-07-07T11:47:20.000Z</time>
      </trkpt>
      <trkpt lat="45.82832" lon="1.92821">
        <ele>780.7</ele>
        <time>2026-07-07T11:47:21.000Z</time>
      </trkpt>
      <trkpt lat="45.82832" lon="1.92821">
        <ele>780.7</ele>
        <time>2026-07-07T11:47:22.000Z</time>
      </trkpt>
      <trkpt lat="45.82832" lon="1.92821">
        <ele>780.7</ele>
        <time>2026-07-07T11:47:23.000Z</time>
      </trkpt>
      <trkpt lat="45.82832" lon="1.92821">
        <ele>780.7</ele>
        <time>2026-07-07T11:47:24.000Z</time>
      </trkpt>
      <trkpt lat="45.82832" lon="1.92821">
        <ele>780.6</ele>
        <time>2026-07-07T11:47:25.000Z</time>
      </trkpt>
      <trkpt lat="45.82832" lon="1.92821">
        <ele>780.6</ele>
        <time>2026-07-07T11:47:26.000Z</time>
      </trkpt>
      <trkpt lat="45.82832" lon="1.92821">
        <ele>780.6</ele>
        <time>2026-07-07T11:47:27.000Z</time>
      </trkpt>
      <trkpt lat="45.82832" lon="1.92821">
        <ele>780.6</ele>
        <time>2026-07-07T11:47:28.000Z</time>
      </trkpt>
      <trkpt lat="45.82832" lon="1.92821">
        <ele>780.6</ele>
        <time>2026-07-07T11:47:29.000Z</time>
      </trkpt>
      <trkpt lat="45.82831" lon="1.92821">
        <ele>780.5</ele>
        <time>2026-07-07T11:47:30.000Z</time>
      </trkpt>
      <trkpt lat="45.8283" lon="1.9282">
        <ele>779.8</ele>
        <time>2026-07-07T11:47:31.000Z</time>
      </trkpt>
      <trkpt lat="45.82829" lon="1.92818">
        <ele>778.6</ele>
        <time>2026-07-07T11:47:32.000Z</time>
      </trkpt>
      <trkpt lat="45.82828" lon="1.92817">
        <ele>777.6</ele>
        <time>2026-07-07T11:47:33.000Z</time>
      </trkpt>
      <trkpt lat="45.82827" lon="1.92815">
        <ele>777.3</ele>
        <time>2026-07-07T11:47:34.000Z</time>
      </trkpt>
      <trkpt lat="45.82826" lon="1.92812">
        <ele>777.5</ele>
        <time>2026-07-07T11:47:35.000Z</time>
      </trkpt>
      <trkpt lat="45.82826" lon="1.9281">
        <ele>777.4</ele>
        <time>2026-07-07T11:47:36.000Z</time>
      </trkpt>
      <trkpt lat="45.82825" lon="1.92807">
        <ele>777</ele>
        <time>2026-07-07T11:47:37.000Z</time>
      </trkpt>
      <trkpt lat="45.82825" lon="1.92804">
        <ele>777.3</ele>
        <time>2026-07-07T11:47:38.000Z</time>
      </trkpt>
      <trkpt lat="45.82824" lon="1.92802">
        <ele>777.4</ele>
        <time>2026-07-07T11:47:39.000Z</time>
      </trkpt>
      <trkpt lat="45.82824" lon="1.92799">
        <ele>777.2</ele>
        <time>2026-07-07T11:47:40.000Z</time>
      </trkpt>
      <trkpt lat="45.82824" lon="1.92797">
        <ele>777</ele>
        <time>2026-07-07T11:47:41.000Z</time>
      </trkpt>
      <trkpt lat="45.82824" lon="1.92794">
        <ele>777.2</ele>
        <time>2026-07-07T11:47:42.000Z</time>
      </trkpt>
      <trkpt lat="45.82823" lon="1.92792">
        <ele>777.1</ele>
        <time>2026-07-07T11:47:43.000Z</time>
      </trkpt>
      <trkpt lat="45.82823" lon="1.92789">
        <ele>777.2</ele>
        <time>2026-07-07T11:47:44.000Z</time>
      </trkpt>
      <trkpt lat="45.82823" lon="1.92786">
        <ele>776.6</ele>
        <time>2026-07-07T11:47:45.000Z</time>
      </trkpt>
      <trkpt lat="45.82823" lon="1.92784">
        <ele>777</ele>
        <time>2026-07-07T11:47:46.000Z</time>
      </trkpt>
      <trkpt lat="45.82822" lon="1.92781">
        <ele>778.2</ele>
        <time>2026-07-07T11:47:47.000Z</time>
      </trkpt>
      <trkpt lat="45.82821" lon="1.92779">
        <ele>778.5</ele>
        <time>2026-07-07T11:47:48.000Z</time>
      </trkpt>
      <trkpt lat="45.82821" lon="1.92777">
        <ele>778.9</ele>
        <time>2026-07-07T11:47:49.000Z</time>
      </trkpt>
      <trkpt lat="45.82821" lon="1.92774">
        <ele>779.2</ele>
        <time>2026-07-07T11:47:50.000Z</time>
      </trkpt>
      <trkpt lat="45.82821" lon="1.92772">
        <ele>779.3</ele>
        <time>2026-07-07T11:47:51.000Z</time>
      </trkpt>
      <trkpt lat="45.82821" lon="1.9277">
        <ele>779.4</ele>
        <time>2026-07-07T11:47:52.000Z</time>
      </trkpt>
      <trkpt lat="45.8282" lon="1.92768">
        <ele>779.6</ele>
        <time>2026-07-07T11:47:53.000Z</time>
      </trkpt>
      <trkpt lat="45.82821" lon="1.92765">
        <ele>781.4</ele>
        <time>2026-07-07T11:47:54.000Z</time>
      </trkpt>
      <trkpt lat="45.82821" lon="1.92763">
        <ele>781.1</ele>
        <time>2026-07-07T11:47:55.000Z</time>
      </trkpt>
      <trkpt lat="45.82822" lon="1.92761">
        <ele>780.4</ele>
        <time>2026-07-07T11:47:56.000Z</time>
      </trkpt>
      <trkpt lat="45.82822" lon="1.92759">
        <ele>780.5</ele>
        <time>2026-07-07T11:47:57.000Z</time>
      </trkpt>
      <trkpt lat="45.82822" lon="1.92758">
        <ele>781.6</ele>
        <time>2026-07-07T11:47:58.000Z</time>
      </trkpt>
      <trkpt lat="45.82822" lon="1.92755">
        <ele>781.3</ele>
        <time>2026-07-07T11:47:59.000Z</time>
      </trkpt>
      <trkpt lat="45.82823" lon="1.92753">
        <ele>781.5</ele>
        <time>2026-07-07T11:48:00.000Z</time>
      </trkpt>
      <trkpt lat="45.82824" lon="1.92751">
        <ele>781.8</ele>
        <time>2026-07-07T11:48:01.000Z</time>
      </trkpt>
      <trkpt lat="45.82824" lon="1.92748">
        <ele>782.1</ele>
        <time>2026-07-07T11:48:02.000Z</time>
      </trkpt>
      <trkpt lat="45.82824" lon="1.92746">
        <ele>782.8</ele>
        <time>2026-07-07T11:48:03.000Z</time>
      </trkpt>
      <trkpt lat="45.82824" lon="1.92744">
        <ele>782.6</ele>
        <time>2026-07-07T11:48:04.000Z</time>
      </trkpt>
      <trkpt lat="45.82825" lon="1.92741">
        <ele>783.1</ele>
        <time>2026-07-07T11:48:05.000Z</time>
      </trkpt>
      <trkpt lat="45.82826" lon="1.92739">
        <ele>783.4</ele>
        <time>2026-07-07T11:48:06.000Z</time>
      </trkpt>
      <trkpt lat="45.82826" lon="1.92737">
        <ele>782.9</ele>
        <time>2026-07-07T11:48:07.000Z</time>
      </trkpt>
      <trkpt lat="45.82827" lon="1.92735">
        <ele>782.7</ele>
        <time>2026-07-07T11:48:08.000Z</time>
      </trkpt>
      <trkpt lat="45.82828" lon="1.92733">
        <ele>782.5</ele>
        <time>2026-07-07T11:48:09.000Z</time>
      </trkpt>
      <trkpt lat="45.82828" lon="1.92731">
        <ele>783.2</ele>
        <time>2026-07-07T11:48:10.000Z</time>
      </trkpt>
      <trkpt lat="45.82829" lon="1.92729">
        <ele>782.2</ele>
        <time>2026-07-07T11:48:11.000Z</time>
      </trkpt>
      <trkpt lat="45.8283" lon="1.92728">
        <ele>782.9</ele>
        <time>2026-07-07T11:48:12.000Z</time>
      </trkpt>
      <trkpt lat="45.82831" lon="1.92726">
        <ele>782.9</ele>
        <time>2026-07-07T11:48:13.000Z</time>
      </trkpt>
      <trkpt lat="45.82833" lon="1.92724">
        <ele>783.2</ele>
        <time>2026-07-07T11:48:14.000Z</time>
      </trkpt>
      <trkpt lat="45.82834" lon="1.92722">
        <ele>782.1</ele>
        <time>2026-07-07T11:48:15.000Z</time>
      </trkpt>
      <trkpt lat="45.82835" lon="1.9272">
        <ele>782.9</ele>
        <time>2026-07-07T11:48:16.000Z</time>
      </trkpt>
      <trkpt lat="45.82835" lon="1.92718">
        <ele>782.7</ele>
        <time>2026-07-07T11:48:17.000Z</time>
      </trkpt>
      <trkpt lat="45.82836" lon="1.92716">
        <ele>783.6</ele>
        <time>2026-07-07T11:48:18.000Z</time>
      </trkpt>
      <trkpt lat="45.82837" lon="1.92714">
        <ele>784.1</ele>
        <time>2026-07-07T11:48:19.000Z</time>
      </trkpt>
      <trkpt lat="45.82838" lon="1.92712">
        <ele>783.7</ele>
        <time>2026-07-07T11:48:20.000Z</time>
      </trkpt>
      <trkpt lat="45.82838" lon="1.9271">
        <ele>783.5</ele>
        <time>2026-07-07T11:48:21.000Z</time>
      </trkpt>
      <trkpt lat="45.82839" lon="1.92708">
        <ele>784</ele>
        <time>2026-07-07T11:48:22.000Z</time>
      </trkpt>
      <trkpt lat="45.8284" lon="1.92706">
        <ele>784</ele>
        <time>2026-07-07T11:48:23.000Z</time>
      </trkpt>
      <trkpt lat="45.82841" lon="1.92704">
        <ele>783.9</ele>
        <time>2026-07-07T11:48:24.000Z</time>
      </trkpt>
      <trkpt lat="45.82841" lon="1.92702">
        <ele>783.3</ele>
        <time>2026-07-07T11:48:25.000Z</time>
      </trkpt>
      <trkpt lat="45.82842" lon="1.927">
        <ele>782.3</ele>
        <time>2026-07-07T11:48:26.000Z</time>
      </trkpt>
      <trkpt lat="45.82843" lon="1.92698">
        <ele>781.8</ele>
        <time>2026-07-07T11:48:27.000Z</time>
      </trkpt>
      <trkpt lat="45.82843" lon="1.92696">
        <ele>782.2</ele>
        <time>2026-07-07T11:48:28.000Z</time>
      </trkpt>
      <trkpt lat="45.82844" lon="1.92694">
        <ele>782.2</ele>
        <time>2026-07-07T11:48:29.000Z</time>
      </trkpt>
      <trkpt lat="45.82844" lon="1.92692">
        <ele>782.2</ele>
        <time>2026-07-07T11:48:30.000Z</time>
      </trkpt>
      <trkpt lat="45.82845" lon="1.9269">
        <ele>782.1</ele>
        <time>2026-07-07T11:48:31.000Z</time>
      </trkpt>
      <trkpt lat="45.82846" lon="1.92688">
        <ele>782.5</ele>
        <time>2026-07-07T11:48:32.000Z</time>
      </trkpt>
      <trkpt lat="45.82847" lon="1.92686">
        <ele>783.1</ele>
        <time>2026-07-07T11:48:33.000Z</time>
      </trkpt>
      <trkpt lat="45.82848" lon="1.92684">
        <ele>783.2</ele>
        <time>2026-07-07T11:48:34.000Z</time>
      </trkpt>
      <trkpt lat="45.82849" lon="1.92682">
        <ele>782.7</ele>
        <time>2026-07-07T11:48:35.000Z</time>
      </trkpt>
      <trkpt lat="45.82851" lon="1.9268">
        <ele>782.6</ele>
        <time>2026-07-07T11:48:36.000Z</time>
      </trkpt>
      <trkpt lat="45.82852" lon="1.92678">
        <ele>783.3</ele>
        <time>2026-07-07T11:48:37.000Z</time>
      </trkpt>
      <trkpt lat="45.82853" lon="1.92677">
        <ele>783.4</ele>
        <time>2026-07-07T11:48:38.000Z</time>
      </trkpt>
      <trkpt lat="45.82854" lon="1.92675">
        <ele>783.4</ele>
        <time>2026-07-07T11:48:39.000Z</time>
      </trkpt>
      <trkpt lat="45.82855" lon="1.92673">
        <ele>783.8</ele>
        <time>2026-07-07T11:48:40.000Z</time>
      </trkpt>
      <trkpt lat="45.82857" lon="1.92672">
        <ele>783.7</ele>
        <time>2026-07-07T11:48:41.000Z</time>
      </trkpt>
      <trkpt lat="45.82858" lon="1.9267">
        <ele>783.4</ele>
        <time>2026-07-07T11:48:42.000Z</time>
      </trkpt>
      <trkpt lat="45.82859" lon="1.92668">
        <ele>783.2</ele>
        <time>2026-07-07T11:48:43.000Z</time>
      </trkpt>
      <trkpt lat="45.8286" lon="1.92667">
        <ele>782.7</ele>
        <time>2026-07-07T11:48:44.000Z</time>
      </trkpt>
      <trkpt lat="45.82861" lon="1.92665">
        <ele>782.2</ele>
        <time>2026-07-07T11:48:45.000Z</time>
      </trkpt>
      <trkpt lat="45.82862" lon="1.92664">
        <ele>782.6</ele>
        <time>2026-07-07T11:48:46.000Z</time>
      </trkpt>
      <trkpt lat="45.82864" lon="1.92662">
        <ele>782.3</ele>
        <time>2026-07-07T11:48:47.000Z</time>
      </trkpt>
      <trkpt lat="45.82865" lon="1.9266">
        <ele>782.9</ele>
        <time>2026-07-07T11:48:48.000Z</time>
      </trkpt>
      <trkpt lat="45.82866" lon="1.92658">
        <ele>782.6</ele>
        <time>2026-07-07T11:48:49.000Z</time>
      </trkpt>
      <trkpt lat="45.82868" lon="1.92656">
        <ele>782.2</ele>
        <time>2026-07-07T11:48:50.000Z</time>
      </trkpt>
      <trkpt lat="45.82869" lon="1.92654">
        <ele>781.6</ele>
        <time>2026-07-07T11:48:51.000Z</time>
      </trkpt>
      <trkpt lat="45.82871" lon="1.92653">
        <ele>782.6</ele>
        <time>2026-07-07T11:48:52.000Z</time>
      </trkpt>
      <trkpt lat="45.82872" lon="1.92651">
        <ele>782.4</ele>
        <time>2026-07-07T11:48:53.000Z</time>
      </trkpt>
      <trkpt lat="45.82873" lon="1.9265">
        <ele>781.8</ele>
        <time>2026-07-07T11:48:54.000Z</time>
      </trkpt>
      <trkpt lat="45.82874" lon="1.92649">
        <ele>783.6</ele>
        <time>2026-07-07T11:48:55.000Z</time>
      </trkpt>
      <trkpt lat="45.82874" lon="1.92648">
        <ele>783.1</ele>
        <time>2026-07-07T11:48:56.000Z</time>
      </trkpt>
      <trkpt lat="45.82875" lon="1.92647">
        <ele>782</ele>
        <time>2026-07-07T11:48:57.000Z</time>
      </trkpt>
      <trkpt lat="45.82876" lon="1.92646">
        <ele>782.3</ele>
        <time>2026-07-07T11:48:58.000Z</time>
      </trkpt>
      <trkpt lat="45.82878" lon="1.92645">
        <ele>781.5</ele>
        <time>2026-07-07T11:48:59.000Z</time>
      </trkpt>
      <trkpt lat="45.82879" lon="1.92644">
        <ele>780.9</ele>
        <time>2026-07-07T11:49:00.000Z</time>
      </trkpt>
      <trkpt lat="45.82881" lon="1.92643">
        <ele>781.2</ele>
        <time>2026-07-07T11:49:01.000Z</time>
      </trkpt>
      <trkpt lat="45.82882" lon="1.92641">
        <ele>781.1</ele>
        <time>2026-07-07T11:49:02.000Z</time>
      </trkpt>
      <trkpt lat="45.82883" lon="1.9264">
        <ele>781.5</ele>
        <time>2026-07-07T11:49:03.000Z</time>
      </trkpt>
      <trkpt lat="45.82884" lon="1.92639">
        <ele>781.1</ele>
        <time>2026-07-07T11:49:04.000Z</time>
      </trkpt>
      <trkpt lat="45.82885" lon="1.92639">
        <ele>782</ele>
        <time>2026-07-07T11:49:05.000Z</time>
      </trkpt>
      <trkpt lat="45.82887" lon="1.92639">
        <ele>781.5</ele>
        <time>2026-07-07T11:49:06.000Z</time>
      </trkpt>
      <trkpt lat="45.82888" lon="1.92638">
        <ele>781</ele>
        <time>2026-07-07T11:49:07.000Z</time>
      </trkpt>
      <trkpt lat="45.82889" lon="1.92637">
        <ele>781</ele>
        <time>2026-07-07T11:49:08.000Z</time>
      </trkpt>
      <trkpt lat="45.82891" lon="1.92637">
        <ele>782.5</ele>
        <time>2026-07-07T11:49:09.000Z</time>
      </trkpt>
      <trkpt lat="45.82892" lon="1.92635">
        <ele>783.2</ele>
        <time>2026-07-07T11:49:10.000Z</time>
      </trkpt>
      <trkpt lat="45.82894" lon="1.92635">
        <ele>783.9</ele>
        <time>2026-07-07T11:49:11.000Z</time>
      </trkpt>
      <trkpt lat="45.82895" lon="1.92634">
        <ele>783.3</ele>
        <time>2026-07-07T11:49:12.000Z</time>
      </trkpt>
      <trkpt lat="45.82896" lon="1.92633">
        <ele>783.5</ele>
        <time>2026-07-07T11:49:13.000Z</time>
      </trkpt>
      <trkpt lat="45.82897" lon="1.92632">
        <ele>782.9</ele>
        <time>2026-07-07T11:49:14.000Z</time>
      </trkpt>
      <trkpt lat="45.82899" lon="1.9263">
        <ele>782.6</ele>
        <time>2026-07-07T11:49:15.000Z</time>
      </trkpt>
      <trkpt lat="45.829" lon="1.92629">
        <ele>782.5</ele>
        <time>2026-07-07T11:49:16.000Z</time>
      </trkpt>
      <trkpt lat="45.82902" lon="1.92629">
        <ele>782.8</ele>
        <time>2026-07-07T11:49:17.000Z</time>
      </trkpt>
      <trkpt lat="45.82903" lon="1.92628">
        <ele>782.4</ele>
        <time>2026-07-07T11:49:18.000Z</time>
      </trkpt>
      <trkpt lat="45.82904" lon="1.92627">
        <ele>782.6</ele>
        <time>2026-07-07T11:49:19.000Z</time>
      </trkpt>
      <trkpt lat="45.82906" lon="1.92626">
        <ele>783.2</ele>
        <time>2026-07-07T11:49:20.000Z</time>
      </trkpt>
      <trkpt lat="45.82907" lon="1.92625">
        <ele>783</ele>
        <time>2026-07-07T11:49:21.000Z</time>
      </trkpt>
      <trkpt lat="45.82909" lon="1.92624">
        <ele>784</ele>
        <time>2026-07-07T11:49:22.000Z</time>
      </trkpt>
      <trkpt lat="45.8291" lon="1.92624">
        <ele>784.1</ele>
        <time>2026-07-07T11:49:23.000Z</time>
      </trkpt>
      <trkpt lat="45.82911" lon="1.92623">
        <ele>783.1</ele>
        <time>2026-07-07T11:49:24.000Z</time>
      </trkpt>
      <trkpt lat="45.82913" lon="1.92622">
        <ele>783.3</ele>
        <time>2026-07-07T11:49:25.000Z</time>
      </trkpt>
      <trkpt lat="45.82915" lon="1.9262">
        <ele>783</ele>
        <time>2026-07-07T11:49:26.000Z</time>
      </trkpt>
      <trkpt lat="45.82917" lon="1.92619">
        <ele>782.5</ele>
        <time>2026-07-07T11:49:27.000Z</time>
      </trkpt>
      <trkpt lat="45.8292" lon="1.92618">
        <ele>783.2</ele>
        <time>2026-07-07T11:49:28.000Z</time>
      </trkpt>
      <trkpt lat="45.82921" lon="1.92617">
        <ele>783.9</ele>
        <time>2026-07-07T11:49:29.000Z</time>
      </trkpt>
      <trkpt lat="45.82923" lon="1.92616">
        <ele>783.6</ele>
        <time>2026-07-07T11:49:30.000Z</time>
      </trkpt>
      <trkpt lat="45.82925" lon="1.92616">
        <ele>782.6</ele>
        <time>2026-07-07T11:49:31.000Z</time>
      </trkpt>
      <trkpt lat="45.82926" lon="1.92615">
        <ele>782.6</ele>
        <time>2026-07-07T11:49:32.000Z</time>
      </trkpt>
      <trkpt lat="45.82928" lon="1.92614">
        <ele>783.1</ele>
        <time>2026-07-07T11:49:33.000Z</time>
      </trkpt>
      <trkpt lat="45.8293" lon="1.92613">
        <ele>783.4</ele>
        <time>2026-07-07T11:49:34.000Z</time>
      </trkpt>
      <trkpt lat="45.82932" lon="1.92614">
        <ele>784.6</ele>
        <time>2026-07-07T11:49:35.000Z</time>
      </trkpt>
      <trkpt lat="45.82934" lon="1.92615">
        <ele>784.2</ele>
        <time>2026-07-07T11:49:36.000Z</time>
      </trkpt>
      <trkpt lat="45.82935" lon="1.92616">
        <ele>784</ele>
        <time>2026-07-07T11:49:37.000Z</time>
      </trkpt>
      <trkpt lat="45.82937" lon="1.92617">
        <ele>783.6</ele>
        <time>2026-07-07T11:49:38.000Z</time>
      </trkpt>
      <trkpt lat="45.82938" lon="1.92618">
        <ele>784.2</ele>
        <time>2026-07-07T11:49:39.000Z</time>
      </trkpt>
      <trkpt lat="45.8294" lon="1.9262">
        <ele>783.5</ele>
        <time>2026-07-07T11:49:40.000Z</time>
      </trkpt>
      <trkpt lat="45.82941" lon="1.9262">
        <ele>783.3</ele>
        <time>2026-07-07T11:49:41.000Z</time>
      </trkpt>
      <trkpt lat="45.82942" lon="1.92621">
        <ele>783</ele>
        <time>2026-07-07T11:49:42.000Z</time>
      </trkpt>
      <trkpt lat="45.82943" lon="1.92622">
        <ele>782.4</ele>
        <time>2026-07-07T11:49:43.000Z</time>
      </trkpt>
      <trkpt lat="45.82945" lon="1.92623">
        <ele>781.2</ele>
        <time>2026-07-07T11:49:44.000Z</time>
      </trkpt>
      <trkpt lat="45.82946" lon="1.92624">
        <ele>781.1</ele>
        <time>2026-07-07T11:49:45.000Z</time>
      </trkpt>
      <trkpt lat="45.82947" lon="1.92625">
        <ele>781.4</ele>
        <time>2026-07-07T11:49:46.000Z</time>
      </trkpt>
      <trkpt lat="45.82949" lon="1.92626">
        <ele>780.7</ele>
        <time>2026-07-07T11:49:47.000Z</time>
      </trkpt>
      <trkpt lat="45.82951" lon="1.92626">
        <ele>781.7</ele>
        <time>2026-07-07T11:49:48.000Z</time>
      </trkpt>
      <trkpt lat="45.82953" lon="1.92628">
        <ele>782.6</ele>
        <time>2026-07-07T11:49:49.000Z</time>
      </trkpt>
      <trkpt lat="45.82954" lon="1.92629">
        <ele>782.9</ele>
        <time>2026-07-07T11:49:50.000Z</time>
      </trkpt>
      <trkpt lat="45.82956" lon="1.9263">
        <ele>783.3</ele>
        <time>2026-07-07T11:49:51.000Z</time>
      </trkpt>
      <trkpt lat="45.82958" lon="1.92631">
        <ele>783.4</ele>
        <time>2026-07-07T11:49:52.000Z</time>
      </trkpt>
      <trkpt lat="45.82959" lon="1.92631">
        <ele>783.4</ele>
        <time>2026-07-07T11:49:53.000Z</time>
      </trkpt>
      <trkpt lat="45.82961" lon="1.92632">
        <ele>783.8</ele>
        <time>2026-07-07T11:49:54.000Z</time>
      </trkpt>
      <trkpt lat="45.82962" lon="1.92633">
        <ele>783.8</ele>
        <time>2026-07-07T11:49:55.000Z</time>
      </trkpt>
      <trkpt lat="45.82964" lon="1.92634">
        <ele>784.6</ele>
        <time>2026-07-07T11:49:56.000Z</time>
      </trkpt>
      <trkpt lat="45.82965" lon="1.92634">
        <ele>784.5</ele>
        <time>2026-07-07T11:49:57.000Z</time>
      </trkpt>
      <trkpt lat="45.82967" lon="1.92635">
        <ele>785.6</ele>
        <time>2026-07-07T11:49:58.000Z</time>
      </trkpt>
      <trkpt lat="45.82968" lon="1.92636">
        <ele>785.7</ele>
        <time>2026-07-07T11:49:59.000Z</time>
      </trkpt>
      <trkpt lat="45.8297" lon="1.92636">
        <ele>785.6</ele>
        <time>2026-07-07T11:50:00.000Z</time>
      </trkpt>
      <trkpt lat="45.82971" lon="1.92637">
        <ele>785.5</ele>
        <time>2026-07-07T11:50:01.000Z</time>
      </trkpt>
      <trkpt lat="45.82972" lon="1.92637">
        <ele>785.5</ele>
        <time>2026-07-07T11:50:02.000Z</time>
      </trkpt>
      <trkpt lat="45.82974" lon="1.92638">
        <ele>787</ele>
        <time>2026-07-07T11:50:03.000Z</time>
      </trkpt>
      <trkpt lat="45.82975" lon="1.92639">
        <ele>786.7</ele>
        <time>2026-07-07T11:50:04.000Z</time>
      </trkpt>
      <trkpt lat="45.82977" lon="1.92641">
        <ele>785.8</ele>
        <time>2026-07-07T11:50:05.000Z</time>
      </trkpt>
      <trkpt lat="45.82978" lon="1.92642">
        <ele>785.2</ele>
        <time>2026-07-07T11:50:06.000Z</time>
      </trkpt>
      <trkpt lat="45.82979" lon="1.92643">
        <ele>785.1</ele>
        <time>2026-07-07T11:50:07.000Z</time>
      </trkpt>
      <trkpt lat="45.82981" lon="1.92644">
        <ele>785.4</ele>
        <time>2026-07-07T11:50:08.000Z</time>
      </trkpt>
      <trkpt lat="45.82983" lon="1.92645">
        <ele>786</ele>
        <time>2026-07-07T11:50:09.000Z</time>
      </trkpt>
      <trkpt lat="45.82984" lon="1.92646">
        <ele>787.5</ele>
        <time>2026-07-07T11:50:10.000Z</time>
      </trkpt>
      <trkpt lat="45.82986" lon="1.92647">
        <ele>787.8</ele>
        <time>2026-07-07T11:50:11.000Z</time>
      </trkpt>
      <trkpt lat="45.82987" lon="1.92648">
        <ele>787</ele>
        <time>2026-07-07T11:50:12.000Z</time>
      </trkpt>
      <trkpt lat="45.82989" lon="1.92649">
        <ele>786.8</ele>
        <time>2026-07-07T11:50:13.000Z</time>
      </trkpt>
      <trkpt lat="45.8299" lon="1.92651">
        <ele>786.1</ele>
        <time>2026-07-07T11:50:14.000Z</time>
      </trkpt>
      <trkpt lat="45.82992" lon="1.92652">
        <ele>786.5</ele>
        <time>2026-07-07T11:50:15.000Z</time>
      </trkpt>
      <trkpt lat="45.82993" lon="1.92652">
        <ele>786.3</ele>
        <time>2026-07-07T11:50:16.000Z</time>
      </trkpt>
      <trkpt lat="45.82994" lon="1.92653">
        <ele>786.8</ele>
        <time>2026-07-07T11:50:17.000Z</time>
      </trkpt>
      <trkpt lat="45.82996" lon="1.92654">
        <ele>785.7</ele>
        <time>2026-07-07T11:50:18.000Z</time>
      </trkpt>
      <trkpt lat="45.82997" lon="1.92654">
        <ele>784.4</ele>
        <time>2026-07-07T11:50:19.000Z</time>
      </trkpt>
      <trkpt lat="45.82999" lon="1.92655">
        <ele>784.1</ele>
        <time>2026-07-07T11:50:20.000Z</time>
      </trkpt>
      <trkpt lat="45.83" lon="1.92655">
        <ele>783.9</ele>
        <time>2026-07-07T11:50:21.000Z</time>
      </trkpt>
      <trkpt lat="45.83002" lon="1.92656">
        <ele>783.4</ele>
        <time>2026-07-07T11:50:22.000Z</time>
      </trkpt>
      <trkpt lat="45.83003" lon="1.92656">
        <ele>782.5</ele>
        <time>2026-07-07T11:50:23.000Z</time>
      </trkpt>
      <trkpt lat="45.83005" lon="1.92657">
        <ele>782</ele>
        <time>2026-07-07T11:50:24.000Z</time>
      </trkpt>
      <trkpt lat="45.83006" lon="1.92657">
        <ele>781.9</ele>
        <time>2026-07-07T11:50:25.000Z</time>
      </trkpt>
      <trkpt lat="45.83008" lon="1.92657">
        <ele>781.2</ele>
        <time>2026-07-07T11:50:26.000Z</time>
      </trkpt>
      <trkpt lat="45.83009" lon="1.92657">
        <ele>781.1</ele>
        <time>2026-07-07T11:50:27.000Z</time>
      </trkpt>
      <trkpt lat="45.8301" lon="1.92657">
        <ele>781.1</ele>
        <time>2026-07-07T11:50:28.000Z</time>
      </trkpt>
      <trkpt lat="45.83011" lon="1.92656">
        <ele>780.4</ele>
        <time>2026-07-07T11:50:29.000Z</time>
      </trkpt>
      <trkpt lat="45.83013" lon="1.92656">
        <ele>780</ele>
        <time>2026-07-07T11:50:30.000Z</time>
      </trkpt>
      <trkpt lat="45.83014" lon="1.92656">
        <ele>780</ele>
        <time>2026-07-07T11:50:31.000Z</time>
      </trkpt>
      <trkpt lat="45.83015" lon="1.92656">
        <ele>779.8</ele>
        <time>2026-07-07T11:50:32.000Z</time>
      </trkpt>
      <trkpt lat="45.83017" lon="1.92655">
        <ele>779.5</ele>
        <time>2026-07-07T11:50:33.000Z</time>
      </trkpt>
      <trkpt lat="45.83018" lon="1.92657">
        <ele>780.3</ele>
        <time>2026-07-07T11:50:34.000Z</time>
      </trkpt>
      <trkpt lat="45.8302" lon="1.92657">
        <ele>780.2</ele>
        <time>2026-07-07T11:50:35.000Z</time>
      </trkpt>
      <trkpt lat="45.83021" lon="1.92657">
        <ele>780.2</ele>
        <time>2026-07-07T11:50:36.000Z</time>
      </trkpt>
      <trkpt lat="45.83023" lon="1.92658">
        <ele>780.4</ele>
        <time>2026-07-07T11:50:37.000Z</time>
      </trkpt>
      <trkpt lat="45.83024" lon="1.92657">
        <ele>780.3</ele>
        <time>2026-07-07T11:50:38.000Z</time>
      </trkpt>
      <trkpt lat="45.83026" lon="1.92658">
        <ele>780.3</ele>
        <time>2026-07-07T11:50:39.000Z</time>
      </trkpt>
      <trkpt lat="45.83028" lon="1.92659">
        <ele>778.5</ele>
        <time>2026-07-07T11:50:40.000Z</time>
      </trkpt>
      <trkpt lat="45.8303" lon="1.92659">
        <ele>778.2</ele>
        <time>2026-07-07T11:50:41.000Z</time>
      </trkpt>
      <trkpt lat="45.83032" lon="1.92659">
        <ele>777</ele>
        <time>2026-07-07T11:50:42.000Z</time>
      </trkpt>
      <trkpt lat="45.83034" lon="1.92659">
        <ele>777.1</ele>
        <time>2026-07-07T11:50:43.000Z</time>
      </trkpt>
      <trkpt lat="45.83036" lon="1.9266">
        <ele>779.3</ele>
        <time>2026-07-07T11:50:44.000Z</time>
      </trkpt>
      <trkpt lat="45.83038" lon="1.9266">
        <ele>779.7</ele>
        <time>2026-07-07T11:50:45.000Z</time>
      </trkpt>
      <trkpt lat="45.83039" lon="1.9266">
        <ele>780</ele>
        <time>2026-07-07T11:50:46.000Z</time>
      </trkpt>
      <trkpt lat="45.83041" lon="1.92659">
        <ele>781.9</ele>
        <time>2026-07-07T11:50:47.000Z</time>
      </trkpt>
      <trkpt lat="45.83043" lon="1.92659">
        <ele>782.5</ele>
        <time>2026-07-07T11:50:48.000Z</time>
      </trkpt>
      <trkpt lat="45.83045" lon="1.9266">
        <ele>782.6</ele>
        <time>2026-07-07T11:50:49.000Z</time>
      </trkpt>
      <trkpt lat="45.83047" lon="1.92659">
        <ele>782.4</ele>
        <time>2026-07-07T11:50:50.000Z</time>
      </trkpt>
      <trkpt lat="45.83049" lon="1.92659">
        <ele>782.8</ele>
        <time>2026-07-07T11:50:51.000Z</time>
      </trkpt>
      <trkpt lat="45.83051" lon="1.92659">
        <ele>782.3</ele>
        <time>2026-07-07T11:50:52.000Z</time>
      </trkpt>
      <trkpt lat="45.83053" lon="1.92659">
        <ele>783.4</ele>
        <time>2026-07-07T11:50:53.000Z</time>
      </trkpt>
      <trkpt lat="45.83054" lon="1.92659">
        <ele>783.5</ele>
        <time>2026-07-07T11:50:54.000Z</time>
      </trkpt>
      <trkpt lat="45.83056" lon="1.92659">
        <ele>784.4</ele>
        <time>2026-07-07T11:50:55.000Z</time>
      </trkpt>
      <trkpt lat="45.83058" lon="1.92659">
        <ele>785</ele>
        <time>2026-07-07T11:50:56.000Z</time>
      </trkpt>
      <trkpt lat="45.83059" lon="1.92659">
        <ele>785.3</ele>
        <time>2026-07-07T11:50:57.000Z</time>
      </trkpt>
      <trkpt lat="45.83061" lon="1.92659">
        <ele>786</ele>
        <time>2026-07-07T11:50:58.000Z</time>
      </trkpt>
      <trkpt lat="45.83063" lon="1.9266">
        <ele>787.4</ele>
        <time>2026-07-07T11:50:59.000Z</time>
      </trkpt>
      <trkpt lat="45.83064" lon="1.9266">
        <ele>786.9</ele>
        <time>2026-07-07T11:51:00.000Z</time>
      </trkpt>
      <trkpt lat="45.83066" lon="1.92661">
        <ele>786.9</ele>
        <time>2026-07-07T11:51:01.000Z</time>
      </trkpt>
      <trkpt lat="45.83068" lon="1.92661">
        <ele>785.7</ele>
        <time>2026-07-07T11:51:02.000Z</time>
      </trkpt>
      <trkpt lat="45.83069" lon="1.92661">
        <ele>786.4</ele>
        <time>2026-07-07T11:51:03.000Z</time>
      </trkpt>
      <trkpt lat="45.83071" lon="1.9266">
        <ele>785.5</ele>
        <time>2026-07-07T11:51:04.000Z</time>
      </trkpt>
      <trkpt lat="45.83074" lon="1.9266">
        <ele>785.7</ele>
        <time>2026-07-07T11:51:05.000Z</time>
      </trkpt>
      <trkpt lat="45.83076" lon="1.9266">
        <ele>784.9</ele>
        <time>2026-07-07T11:51:06.000Z</time>
      </trkpt>
      <trkpt lat="45.83078" lon="1.9266">
        <ele>784.2</ele>
        <time>2026-07-07T11:51:07.000Z</time>
      </trkpt>
      <trkpt lat="45.83079" lon="1.9266">
        <ele>785.8</ele>
        <time>2026-07-07T11:51:08.000Z</time>
      </trkpt>
      <trkpt lat="45.83081" lon="1.92661">
        <ele>786.6</ele>
        <time>2026-07-07T11:51:09.000Z</time>
      </trkpt>
      <trkpt lat="45.83083" lon="1.92661">
        <ele>786.3</ele>
        <time>2026-07-07T11:51:10.000Z</time>
      </trkpt>
      <trkpt lat="45.83084" lon="1.92661">
        <ele>785.1</ele>
        <time>2026-07-07T11:51:11.000Z</time>
      </trkpt>
      <trkpt lat="45.83086" lon="1.92661">
        <ele>785.7</ele>
        <time>2026-07-07T11:51:12.000Z</time>
      </trkpt>
      <trkpt lat="45.83087" lon="1.92662">
        <ele>786.9</ele>
        <time>2026-07-07T11:51:13.000Z</time>
      </trkpt>
      <trkpt lat="45.83089" lon="1.92663">
        <ele>787</ele>
        <time>2026-07-07T11:51:14.000Z</time>
      </trkpt>
      <trkpt lat="45.83091" lon="1.92664">
        <ele>787.4</ele>
        <time>2026-07-07T11:51:15.000Z</time>
      </trkpt>
      <trkpt lat="45.83092" lon="1.92665">
        <ele>787.2</ele>
        <time>2026-07-07T11:51:16.000Z</time>
      </trkpt>
      <trkpt lat="45.83094" lon="1.92666">
        <ele>787.1</ele>
        <time>2026-07-07T11:51:17.000Z</time>
      </trkpt>
      <trkpt lat="45.83095" lon="1.92667">
        <ele>787.4</ele>
        <time>2026-07-07T11:51:18.000Z</time>
      </trkpt>
      <trkpt lat="45.83097" lon="1.92667">
        <ele>788.1</ele>
        <time>2026-07-07T11:51:19.000Z</time>
      </trkpt>
      <trkpt lat="45.83098" lon="1.92669">
        <ele>789</ele>
        <time>2026-07-07T11:51:20.000Z</time>
      </trkpt>
      <trkpt lat="45.831" lon="1.9267">
        <ele>789.1</ele>
        <time>2026-07-07T11:51:21.000Z</time>
      </trkpt>
      <trkpt lat="45.83101" lon="1.92671">
        <ele>789.2</ele>
        <time>2026-07-07T11:51:22.000Z</time>
      </trkpt>
      <trkpt lat="45.83103" lon="1.92672">
        <ele>788.7</ele>
        <time>2026-07-07T11:51:23.000Z</time>
      </trkpt>
      <trkpt lat="45.83104" lon="1.92672">
        <ele>789.4</ele>
        <time>2026-07-07T11:51:24.000Z</time>
      </trkpt>
      <trkpt lat="45.83105" lon="1.92673">
        <ele>789.5</ele>
        <time>2026-07-07T11:51:25.000Z</time>
      </trkpt>
      <trkpt lat="45.83107" lon="1.92674">
        <ele>788.8</ele>
        <time>2026-07-07T11:51:26.000Z</time>
      </trkpt>
      <trkpt lat="45.83108" lon="1.92675">
        <ele>788.8</ele>
        <time>2026-07-07T11:51:27.000Z</time>
      </trkpt>
      <trkpt lat="45.83109" lon="1.92676">
        <ele>789.2</ele>
        <time>2026-07-07T11:51:28.000Z</time>
      </trkpt>
      <trkpt lat="45.83111" lon="1.92677">
        <ele>788.8</ele>
        <time>2026-07-07T11:51:29.000Z</time>
      </trkpt>
      <trkpt lat="45.83112" lon="1.92678">
        <ele>789.3</ele>
        <time>2026-07-07T11:51:30.000Z</time>
      </trkpt>
      <trkpt lat="45.83114" lon="1.92678">
        <ele>789.1</ele>
        <time>2026-07-07T11:51:31.000Z</time>
      </trkpt>
      <trkpt lat="45.83115" lon="1.92679">
        <ele>788.5</ele>
        <time>2026-07-07T11:51:32.000Z</time>
      </trkpt>
      <trkpt lat="45.83117" lon="1.9268">
        <ele>788.5</ele>
        <time>2026-07-07T11:51:33.000Z</time>
      </trkpt>
      <trkpt lat="45.83118" lon="1.92681">
        <ele>788.4</ele>
        <time>2026-07-07T11:51:34.000Z</time>
      </trkpt>
      <trkpt lat="45.83119" lon="1.92681">
        <ele>789</ele>
        <time>2026-07-07T11:51:35.000Z</time>
      </trkpt>
      <trkpt lat="45.83121" lon="1.9268">
        <ele>790.1</ele>
        <time>2026-07-07T11:51:36.000Z</time>
      </trkpt>
      <trkpt lat="45.83123" lon="1.92682">
        <ele>792.3</ele>
        <time>2026-07-07T11:51:37.000Z</time>
      </trkpt>
      <trkpt lat="45.83126" lon="1.92683">
        <ele>793</ele>
        <time>2026-07-07T11:51:38.000Z</time>
      </trkpt>
      <trkpt lat="45.83127" lon="1.92683">
        <ele>793.9</ele>
        <time>2026-07-07T11:51:39.000Z</time>
      </trkpt>
      <trkpt lat="45.83129" lon="1.92683">
        <ele>794.7</ele>
        <time>2026-07-07T11:51:40.000Z</time>
      </trkpt>
      <trkpt lat="45.8313" lon="1.92682">
        <ele>793.3</ele>
        <time>2026-07-07T11:51:41.000Z</time>
      </trkpt>
      <trkpt lat="45.83133" lon="1.92683">
        <ele>793.4</ele>
        <time>2026-07-07T11:51:42.000Z</time>
      </trkpt>
      <trkpt lat="45.83135" lon="1.92683">
        <ele>794.7</ele>
        <time>2026-07-07T11:51:43.000Z</time>
      </trkpt>
      <trkpt lat="45.83137" lon="1.92683">
        <ele>795.2</ele>
        <time>2026-07-07T11:51:44.000Z</time>
      </trkpt>
      <trkpt lat="45.83139" lon="1.92683">
        <ele>796.3</ele>
        <time>2026-07-07T11:51:45.000Z</time>
      </trkpt>
      <trkpt lat="45.8314" lon="1.92683">
        <ele>795.8</ele>
        <time>2026-07-07T11:51:46.000Z</time>
      </trkpt>
      <trkpt lat="45.83141" lon="1.92683">
        <ele>796.1</ele>
        <time>2026-07-07T11:51:47.000Z</time>
      </trkpt>
      <trkpt lat="45.83143" lon="1.92683">
        <ele>796.4</ele>
        <time>2026-07-07T11:51:48.000Z</time>
      </trkpt>
      <trkpt lat="45.83144" lon="1.92683">
        <ele>797.1</ele>
        <time>2026-07-07T11:51:49.000Z</time>
      </trkpt>
      <trkpt lat="45.83145" lon="1.92683">
        <ele>796.6</ele>
        <time>2026-07-07T11:51:50.000Z</time>
      </trkpt>
      <trkpt lat="45.83147" lon="1.92683">
        <ele>795.9</ele>
        <time>2026-07-07T11:51:51.000Z</time>
      </trkpt>
      <trkpt lat="45.83149" lon="1.92683">
        <ele>796.1</ele>
        <time>2026-07-07T11:51:52.000Z</time>
      </trkpt>
      <trkpt lat="45.8315" lon="1.92683">
        <ele>796.6</ele>
        <time>2026-07-07T11:51:53.000Z</time>
      </trkpt>
      <trkpt lat="45.83152" lon="1.92683">
        <ele>796.8</ele>
        <time>2026-07-07T11:51:54.000Z</time>
      </trkpt>
      <trkpt lat="45.83154" lon="1.92683">
        <ele>797.3</ele>
        <time>2026-07-07T11:51:55.000Z</time>
      </trkpt>
      <trkpt lat="45.83156" lon="1.92683">
        <ele>798</ele>
        <time>2026-07-07T11:51:56.000Z</time>
      </trkpt>
      <trkpt lat="45.83157" lon="1.92683">
        <ele>798.3</ele>
        <time>2026-07-07T11:51:57.000Z</time>
      </trkpt>
      <trkpt lat="45.83159" lon="1.92683">
        <ele>798.2</ele>
        <time>2026-07-07T11:51:58.000Z</time>
      </trkpt>
      <trkpt lat="45.8316" lon="1.92682">
        <ele>798.5</ele>
        <time>2026-07-07T11:51:59.000Z</time>
      </trkpt>
      <trkpt lat="45.83162" lon="1.92682">
        <ele>798.4</ele>
        <time>2026-07-07T11:52:00.000Z</time>
      </trkpt>
      <trkpt lat="45.83163" lon="1.92681">
        <ele>798.1</ele>
        <time>2026-07-07T11:52:01.000Z</time>
      </trkpt>
      <trkpt lat="45.83165" lon="1.92681">
        <ele>797.5</ele>
        <time>2026-07-07T11:52:02.000Z</time>
      </trkpt>
      <trkpt lat="45.83166" lon="1.92679">
        <ele>797.1</ele>
        <time>2026-07-07T11:52:03.000Z</time>
      </trkpt>
      <trkpt lat="45.83168" lon="1.92678">
        <ele>797.1</ele>
        <time>2026-07-07T11:52:04.000Z</time>
      </trkpt>
      <trkpt lat="45.83169" lon="1.92677">
        <ele>796.9</ele>
        <time>2026-07-07T11:52:05.000Z</time>
      </trkpt>
      <trkpt lat="45.8317" lon="1.92675">
        <ele>797.2</ele>
        <time>2026-07-07T11:52:06.000Z</time>
      </trkpt>
      <trkpt lat="45.83171" lon="1.92673">
        <ele>797</ele>
        <time>2026-07-07T11:52:07.000Z</time>
      </trkpt>
      <trkpt lat="45.83172" lon="1.92671">
        <ele>797</ele>
        <time>2026-07-07T11:52:08.000Z</time>
      </trkpt>
      <trkpt lat="45.83173" lon="1.92669">
        <ele>796.8</ele>
        <time>2026-07-07T11:52:09.000Z</time>
      </trkpt>
      <trkpt lat="45.83174" lon="1.92667">
        <ele>796.2</ele>
        <time>2026-07-07T11:52:10.000Z</time>
      </trkpt>
      <trkpt lat="45.83175" lon="1.92666">
        <ele>795.5</ele>
        <time>2026-07-07T11:52:11.000Z</time>
      </trkpt>
      <trkpt lat="45.83175" lon="1.92664">
        <ele>795.6</ele>
        <time>2026-07-07T11:52:12.000Z</time>
      </trkpt>
      <trkpt lat="45.83176" lon="1.92662">
        <ele>795.4</ele>
        <time>2026-07-07T11:52:13.000Z</time>
      </trkpt>
      <trkpt lat="45.83177" lon="1.9266">
        <ele>795</ele>
        <time>2026-07-07T11:52:14.000Z</time>
      </trkpt>
      <trkpt lat="45.83178" lon="1.92658">
        <ele>794.5</ele>
        <time>2026-07-07T11:52:15.000Z</time>
      </trkpt>
      <trkpt lat="45.83178" lon="1.92656">
        <ele>794.4</ele>
        <time>2026-07-07T11:52:16.000Z</time>
      </trkpt>
      <trkpt lat="45.83178" lon="1.92654">
        <ele>794.3</ele>
        <time>2026-07-07T11:52:17.000Z</time>
      </trkpt>
      <trkpt lat="45.83179" lon="1.92651">
        <ele>794.1</ele>
        <time>2026-07-07T11:52:18.000Z</time>
      </trkpt>
      <trkpt lat="45.83179" lon="1.92649">
        <ele>794</ele>
        <time>2026-07-07T11:52:19.000Z</time>
      </trkpt>
      <trkpt lat="45.83179" lon="1.92646">
        <ele>793.9</ele>
        <time>2026-07-07T11:52:20.000Z</time>
      </trkpt>
      <trkpt lat="45.83179" lon="1.92644">
        <ele>794.2</ele>
        <time>2026-07-07T11:52:21.000Z</time>
      </trkpt>
      <trkpt lat="45.83179" lon="1.92641">
        <ele>793.7</ele>
        <time>2026-07-07T11:52:22.000Z</time>
      </trkpt>
      <trkpt lat="45.83179" lon="1.92638">
        <ele>793.1</ele>
        <time>2026-07-07T11:52:23.000Z</time>
      </trkpt>
      <trkpt lat="45.8318" lon="1.92635">
        <ele>793.2</ele>
        <time>2026-07-07T11:52:24.000Z</time>
      </trkpt>
      <trkpt lat="45.8318" lon="1.92631">
        <ele>793.1</ele>
        <time>2026-07-07T11:52:25.000Z</time>
      </trkpt>
      <trkpt lat="45.8318" lon="1.92627">
        <ele>793.5</ele>
        <time>2026-07-07T11:52:26.000Z</time>
      </trkpt>
      <trkpt lat="45.8318" lon="1.92623">
        <ele>794</ele>
        <time>2026-07-07T11:52:27.000Z</time>
      </trkpt>
      <trkpt lat="45.83181" lon="1.9262">
        <ele>792.2</ele>
        <time>2026-07-07T11:52:28.000Z</time>
      </trkpt>
      <trkpt lat="45.83181" lon="1.92616">
        <ele>792.8</ele>
        <time>2026-07-07T11:52:29.000Z</time>
      </trkpt>
      <trkpt lat="45.83181" lon="1.92614">
        <ele>793.1</ele>
        <time>2026-07-07T11:52:30.000Z</time>
      </trkpt>
      <trkpt lat="45.83181" lon="1.92611">
        <ele>793.3</ele>
        <time>2026-07-07T11:52:31.000Z</time>
      </trkpt>
      <trkpt lat="45.83181" lon="1.92609">
        <ele>793</ele>
        <time>2026-07-07T11:52:32.000Z</time>
      </trkpt>
      <trkpt lat="45.83181" lon="1.92607">
        <ele>792.2</ele>
        <time>2026-07-07T11:52:33.000Z</time>
      </trkpt>
      <trkpt lat="45.83182" lon="1.92604">
        <ele>792.1</ele>
        <time>2026-07-07T11:52:34.000Z</time>
      </trkpt>
      <trkpt lat="45.83183" lon="1.92601">
        <ele>792.8</ele>
        <time>2026-07-07T11:52:35.000Z</time>
      </trkpt>
      <trkpt lat="45.83183" lon="1.92597">
        <ele>794.5</ele>
        <time>2026-07-07T11:52:36.000Z</time>
      </trkpt>
      <trkpt lat="45.83183" lon="1.92594">
        <ele>795.5</ele>
        <time>2026-07-07T11:52:37.000Z</time>
      </trkpt>
      <trkpt lat="45.83183" lon="1.92591">
        <ele>795</ele>
        <time>2026-07-07T11:52:38.000Z</time>
      </trkpt>
      <trkpt lat="45.83184" lon="1.92588">
        <ele>795.2</ele>
        <time>2026-07-07T11:52:39.000Z</time>
      </trkpt>
      <trkpt lat="45.83185" lon="1.92584">
        <ele>795.3</ele>
        <time>2026-07-07T11:52:40.000Z</time>
      </trkpt>
      <trkpt lat="45.83185" lon="1.92581">
        <ele>795.5</ele>
        <time>2026-07-07T11:52:41.000Z</time>
      </trkpt>
      <trkpt lat="45.83185" lon="1.92578">
        <ele>794.8</ele>
        <time>2026-07-07T11:52:42.000Z</time>
      </trkpt>
      <trkpt lat="45.83186" lon="1.92575">
        <ele>795.5</ele>
        <time>2026-07-07T11:52:43.000Z</time>
      </trkpt>
      <trkpt lat="45.83186" lon="1.92571">
        <ele>795.2</ele>
        <time>2026-07-07T11:52:44.000Z</time>
      </trkpt>
      <trkpt lat="45.83186" lon="1.92568">
        <ele>796.1</ele>
        <time>2026-07-07T11:52:45.000Z</time>
      </trkpt>
      <trkpt lat="45.83186" lon="1.92565">
        <ele>795.5</ele>
        <time>2026-07-07T11:52:46.000Z</time>
      </trkpt>
      <trkpt lat="45.83187" lon="1.92561">
        <ele>794.7</ele>
        <time>2026-07-07T11:52:47.000Z</time>
      </trkpt>
      <trkpt lat="45.83187" lon="1.92558">
        <ele>795.1</ele>
        <time>2026-07-07T11:52:48.000Z</time>
      </trkpt>
      <trkpt lat="45.83187" lon="1.92555">
        <ele>794.5</ele>
        <time>2026-07-07T11:52:49.000Z</time>
      </trkpt>
      <trkpt lat="45.83188" lon="1.92552">
        <ele>794.4</ele>
        <time>2026-07-07T11:52:50.000Z</time>
      </trkpt>
      <trkpt lat="45.83188" lon="1.92549">
        <ele>794.8</ele>
        <time>2026-07-07T11:52:51.000Z</time>
      </trkpt>
      <trkpt lat="45.83189" lon="1.92546">
        <ele>795</ele>
        <time>2026-07-07T11:52:52.000Z</time>
      </trkpt>
      <trkpt lat="45.83189" lon="1.92544">
        <ele>795</ele>
        <time>2026-07-07T11:52:53.000Z</time>
      </trkpt>
      <trkpt lat="45.83189" lon="1.92541">
        <ele>794.6</ele>
        <time>2026-07-07T11:52:54.000Z</time>
      </trkpt>
      <trkpt lat="45.8319" lon="1.92538">
        <ele>794</ele>
        <time>2026-07-07T11:52:55.000Z</time>
      </trkpt>
      <trkpt lat="45.8319" lon="1.92535">
        <ele>794.6</ele>
        <time>2026-07-07T11:52:56.000Z</time>
      </trkpt>
      <trkpt lat="45.8319" lon="1.92533">
        <ele>794.8</ele>
        <time>2026-07-07T11:52:57.000Z</time>
      </trkpt>
      <trkpt lat="45.8319" lon="1.9253">
        <ele>796.7</ele>
        <time>2026-07-07T11:52:58.000Z</time>
      </trkpt>
      <trkpt lat="45.8319" lon="1.92527">
        <ele>796.3</ele>
        <time>2026-07-07T11:52:59.000Z</time>
      </trkpt>
      <trkpt lat="45.8319" lon="1.92524">
        <ele>795.9</ele>
        <time>2026-07-07T11:53:00.000Z</time>
      </trkpt>
      <trkpt lat="45.8319" lon="1.92522">
        <ele>796.3</ele>
        <time>2026-07-07T11:53:01.000Z</time>
      </trkpt>
      <trkpt lat="45.8319" lon="1.92519">
        <ele>794.9</ele>
        <time>2026-07-07T11:53:02.000Z</time>
      </trkpt>
      <trkpt lat="45.8319" lon="1.92517">
        <ele>795</ele>
        <time>2026-07-07T11:53:03.000Z</time>
      </trkpt>
      <trkpt lat="45.8319" lon="1.92515">
        <ele>794.4</ele>
        <time>2026-07-07T11:53:04.000Z</time>
      </trkpt>
      <trkpt lat="45.8319" lon="1.92513">
        <ele>793.7</ele>
        <time>2026-07-07T11:53:05.000Z</time>
      </trkpt>
      <trkpt lat="45.83191" lon="1.92511">
        <ele>793.5</ele>
        <time>2026-07-07T11:53:06.000Z</time>
      </trkpt>
      <trkpt lat="45.83192" lon="1.92509">
        <ele>793.3</ele>
        <time>2026-07-07T11:53:07.000Z</time>
      </trkpt>
      <trkpt lat="45.83193" lon="1.92507">
        <ele>792.6</ele>
        <time>2026-07-07T11:53:08.000Z</time>
      </trkpt>
      <trkpt lat="45.83193" lon="1.92504">
        <ele>792.4</ele>
        <time>2026-07-07T11:53:09.000Z</time>
      </trkpt>
      <trkpt lat="45.83192" lon="1.92501">
        <ele>791.5</ele>
        <time>2026-07-07T11:53:10.000Z</time>
      </trkpt>
      <trkpt lat="45.83193" lon="1.92499">
        <ele>792.7</ele>
        <time>2026-07-07T11:53:11.000Z</time>
      </trkpt>
      <trkpt lat="45.83194" lon="1.92497">
        <ele>792.9</ele>
        <time>2026-07-07T11:53:12.000Z</time>
      </trkpt>
      <trkpt lat="45.83194" lon="1.92495">
        <ele>792</ele>
        <time>2026-07-07T11:53:13.000Z</time>
      </trkpt>
      <trkpt lat="45.83195" lon="1.92494">
        <ele>792.2</ele>
        <time>2026-07-07T11:53:14.000Z</time>
      </trkpt>
      <trkpt lat="45.83195" lon="1.92492">
        <ele>792.3</ele>
        <time>2026-07-07T11:53:15.000Z</time>
      </trkpt>
      <trkpt lat="45.83195" lon="1.9249">
        <ele>791</ele>
        <time>2026-07-07T11:53:16.000Z</time>
      </trkpt>
      <trkpt lat="45.83195" lon="1.92488">
        <ele>790.3</ele>
        <time>2026-07-07T11:53:17.000Z</time>
      </trkpt>
      <trkpt lat="45.83196" lon="1.92486">
        <ele>789.1</ele>
        <time>2026-07-07T11:53:18.000Z</time>
      </trkpt>
      <trkpt lat="45.83196" lon="1.92484">
        <ele>790.5</ele>
        <time>2026-07-07T11:53:19.000Z</time>
      </trkpt>
      <trkpt lat="45.83197" lon="1.92482">
        <ele>790.1</ele>
        <time>2026-07-07T11:53:20.000Z</time>
      </trkpt>
      <trkpt lat="45.83198" lon="1.9248">
        <ele>789.4</ele>
        <time>2026-07-07T11:53:21.000Z</time>
      </trkpt>
      <trkpt lat="45.83199" lon="1.92478">
        <ele>788.6</ele>
        <time>2026-07-07T11:53:22.000Z</time>
      </trkpt>
      <trkpt lat="45.83199" lon="1.92477">
        <ele>788.2</ele>
        <time>2026-07-07T11:53:23.000Z</time>
      </trkpt>
      <trkpt lat="45.832" lon="1.92475">
        <ele>788.7</ele>
        <time>2026-07-07T11:53:24.000Z</time>
      </trkpt>
      <trkpt lat="45.832" lon="1.92473">
        <ele>788.7</ele>
        <time>2026-07-07T11:53:25.000Z</time>
      </trkpt>
      <trkpt lat="45.832" lon="1.92471">
        <ele>789.1</ele>
        <time>2026-07-07T11:53:26.000Z</time>
      </trkpt>
      <trkpt lat="45.83201" lon="1.92469">
        <ele>788.1</ele>
        <time>2026-07-07T11:53:27.000Z</time>
      </trkpt>
      <trkpt lat="45.83201" lon="1.92467">
        <ele>788.2</ele>
        <time>2026-07-07T11:53:28.000Z</time>
      </trkpt>
      <trkpt lat="45.83202" lon="1.92465">
        <ele>788.2</ele>
        <time>2026-07-07T11:53:29.000Z</time>
      </trkpt>
      <trkpt lat="45.83202" lon="1.92463">
        <ele>787.4</ele>
        <time>2026-07-07T11:53:30.000Z</time>
      </trkpt>
      <trkpt lat="45.83203" lon="1.92461">
        <ele>786.9</ele>
        <time>2026-07-07T11:53:31.000Z</time>
      </trkpt>
      <trkpt lat="45.83203" lon="1.92458">
        <ele>787</ele>
        <time>2026-07-07T11:53:32.000Z</time>
      </trkpt>
      <trkpt lat="45.83204" lon="1.92456">
        <ele>786.5</ele>
        <time>2026-07-07T11:53:33.000Z</time>
      </trkpt>
      <trkpt lat="45.83204" lon="1.92454">
        <ele>785.7</ele>
        <time>2026-07-07T11:53:34.000Z</time>
      </trkpt>
      <trkpt lat="45.83204" lon="1.92452">
        <ele>785.3</ele>
        <time>2026-07-07T11:53:35.000Z</time>
      </trkpt>
      <trkpt lat="45.83205" lon="1.9245">
        <ele>784.2</ele>
        <time>2026-07-07T11:53:36.000Z</time>
      </trkpt>
      <trkpt lat="45.83205" lon="1.92448">
        <ele>782.9</ele>
        <time>2026-07-07T11:53:37.000Z</time>
      </trkpt>
      <trkpt lat="45.83206" lon="1.92446">
        <ele>782.9</ele>
        <time>2026-07-07T11:53:38.000Z</time>
      </trkpt>
      <trkpt lat="45.83206" lon="1.92444">
        <ele>782.8</ele>
        <time>2026-07-07T11:53:39.000Z</time>
      </trkpt>
      <trkpt lat="45.83207" lon="1.92442">
        <ele>782</ele>
        <time>2026-07-07T11:53:40.000Z</time>
      </trkpt>
      <trkpt lat="45.83207" lon="1.92439">
        <ele>783.1</ele>
        <time>2026-07-07T11:53:41.000Z</time>
      </trkpt>
      <trkpt lat="45.83207" lon="1.92435">
        <ele>782.3</ele>
        <time>2026-07-07T11:53:42.000Z</time>
      </trkpt>
      <trkpt lat="45.83207" lon="1.92432">
        <ele>784.3</ele>
        <time>2026-07-07T11:53:43.000Z</time>
      </trkpt>
      <trkpt lat="45.83208" lon="1.92429">
        <ele>784.2</ele>
        <time>2026-07-07T11:53:44.000Z</time>
      </trkpt>
      <trkpt lat="45.83208" lon="1.92427">
        <ele>783.6</ele>
        <time>2026-07-07T11:53:45.000Z</time>
      </trkpt>
      <trkpt lat="45.83209" lon="1.92425">
        <ele>782.8</ele>
        <time>2026-07-07T11:53:46.000Z</time>
      </trkpt>
      <trkpt lat="45.8321" lon="1.92423">
        <ele>782</ele>
        <time>2026-07-07T11:53:47.000Z</time>
      </trkpt>
      <trkpt lat="45.83211" lon="1.92421">
        <ele>782.1</ele>
        <time>2026-07-07T11:53:48.000Z</time>
      </trkpt>
      <trkpt lat="45.83212" lon="1.92419">
        <ele>781.8</ele>
        <time>2026-07-07T11:53:49.000Z</time>
      </trkpt>
      <trkpt lat="45.83212" lon="1.92417">
        <ele>781.2</ele>
        <time>2026-07-07T11:53:50.000Z</time>
      </trkpt>
      <trkpt lat="45.83213" lon="1.92415">
        <ele>781</ele>
        <time>2026-07-07T11:53:51.000Z</time>
      </trkpt>
      <trkpt lat="45.83213" lon="1.92413">
        <ele>780.4</ele>
        <time>2026-07-07T11:53:52.000Z</time>
      </trkpt>
      <trkpt lat="45.83214" lon="1.92411">
        <ele>780.6</ele>
        <time>2026-07-07T11:53:53.000Z</time>
      </trkpt>
      <trkpt lat="45.83215" lon="1.92409">
        <ele>780.8</ele>
        <time>2026-07-07T11:53:54.000Z</time>
      </trkpt>
      <trkpt lat="45.83216" lon="1.92408">
        <ele>781</ele>
        <time>2026-07-07T11:53:55.000Z</time>
      </trkpt>
      <trkpt lat="45.83216" lon="1.92406">
        <ele>780.9</ele>
        <time>2026-07-07T11:53:56.000Z</time>
      </trkpt>
      <trkpt lat="45.83217" lon="1.92404">
        <ele>781.4</ele>
        <time>2026-07-07T11:53:57.000Z</time>
      </trkpt>
      <trkpt lat="45.83218" lon="1.92402">
        <ele>781</ele>
        <time>2026-07-07T11:53:58.000Z</time>
      </trkpt>
      <trkpt lat="45.83219" lon="1.92401">
        <ele>780.7</ele>
        <time>2026-07-07T11:53:59.000Z</time>
      </trkpt>
      <trkpt lat="45.8322" lon="1.92399">
        <ele>780.3</ele>
        <time>2026-07-07T11:54:00.000Z</time>
      </trkpt>
      <trkpt lat="45.83222" lon="1.92398">
        <ele>780.6</ele>
        <time>2026-07-07T11:54:01.000Z</time>
      </trkpt>
      <trkpt lat="45.83223" lon="1.92396">
        <ele>779.8</ele>
        <time>2026-07-07T11:54:02.000Z</time>
      </trkpt>
      <trkpt lat="45.83224" lon="1.92395">
        <ele>779.5</ele>
        <time>2026-07-07T11:54:03.000Z</time>
      </trkpt>
      <trkpt lat="45.83226" lon="1.92394">
        <ele>780.1</ele>
        <time>2026-07-07T11:54:04.000Z</time>
      </trkpt>
      <trkpt lat="45.83227" lon="1.92393">
        <ele>780.6</ele>
        <time>2026-07-07T11:54:05.000Z</time>
      </trkpt>
      <trkpt lat="45.83229" lon="1.92393">
        <ele>780.3</ele>
        <time>2026-07-07T11:54:06.000Z</time>
      </trkpt>
      <trkpt lat="45.8323" lon="1.92392">
        <ele>779.1</ele>
        <time>2026-07-07T11:54:07.000Z</time>
      </trkpt>
      <trkpt lat="45.83231" lon="1.92391">
        <ele>778.8</ele>
        <time>2026-07-07T11:54:08.000Z</time>
      </trkpt>
      <trkpt lat="45.83232" lon="1.9239">
        <ele>778.2</ele>
        <time>2026-07-07T11:54:09.000Z</time>
      </trkpt>
      <trkpt lat="45.83234" lon="1.92389">
        <ele>777.6</ele>
        <time>2026-07-07T11:54:10.000Z</time>
      </trkpt>
      <trkpt lat="45.83235" lon="1.92389">
        <ele>777.6</ele>
        <time>2026-07-07T11:54:11.000Z</time>
      </trkpt>
      <trkpt lat="45.83237" lon="1.92388">
        <ele>777</ele>
        <time>2026-07-07T11:54:12.000Z</time>
      </trkpt>
      <trkpt lat="45.83239" lon="1.92387">
        <ele>777.9</ele>
        <time>2026-07-07T11:54:13.000Z</time>
      </trkpt>
      <trkpt lat="45.83241" lon="1.92386">
        <ele>776.8</ele>
        <time>2026-07-07T11:54:14.000Z</time>
      </trkpt>
      <trkpt lat="45.83242" lon="1.92385">
        <ele>776.9</ele>
        <time>2026-07-07T11:54:15.000Z</time>
      </trkpt>
      <trkpt lat="45.83244" lon="1.92384">
        <ele>776.1</ele>
        <time>2026-07-07T11:54:16.000Z</time>
      </trkpt>
      <trkpt lat="45.83245" lon="1.92383">
        <ele>775.7</ele>
        <time>2026-07-07T11:54:17.000Z</time>
      </trkpt>
      <trkpt lat="45.83247" lon="1.92383">
        <ele>777.2</ele>
        <time>2026-07-07T11:54:18.000Z</time>
      </trkpt>
      <trkpt lat="45.83249" lon="1.92382">
        <ele>776.9</ele>
        <time>2026-07-07T11:54:19.000Z</time>
      </trkpt>
      <trkpt lat="45.8325" lon="1.92382">
        <ele>777.2</ele>
        <time>2026-07-07T11:54:20.000Z</time>
      </trkpt>
      <trkpt lat="45.83252" lon="1.9238">
        <ele>777.1</ele>
        <time>2026-07-07T11:54:21.000Z</time>
      </trkpt>
      <trkpt lat="45.83255" lon="1.92379">
        <ele>777.4</ele>
        <time>2026-07-07T11:54:22.000Z</time>
      </trkpt>
      <trkpt lat="45.83256" lon="1.92378">
        <ele>777.2</ele>
        <time>2026-07-07T11:54:23.000Z</time>
      </trkpt>
      <trkpt lat="45.83258" lon="1.92377">
        <ele>777.2</ele>
        <time>2026-07-07T11:54:24.000Z</time>
      </trkpt>
      <trkpt lat="45.8326" lon="1.92377">
        <ele>779.1</ele>
        <time>2026-07-07T11:54:25.000Z</time>
      </trkpt>
      <trkpt lat="45.83261" lon="1.92376">
        <ele>779.6</ele>
        <time>2026-07-07T11:54:26.000Z</time>
      </trkpt>
      <trkpt lat="45.83263" lon="1.92375">
        <ele>779.7</ele>
        <time>2026-07-07T11:54:27.000Z</time>
      </trkpt>
      <trkpt lat="45.83265" lon="1.92374">
        <ele>779.7</ele>
        <time>2026-07-07T11:54:28.000Z</time>
      </trkpt>
      <trkpt lat="45.83266" lon="1.92373">
        <ele>779.2</ele>
        <time>2026-07-07T11:54:29.000Z</time>
      </trkpt>
      <trkpt lat="45.83268" lon="1.92372">
        <ele>779.1</ele>
        <time>2026-07-07T11:54:30.000Z</time>
      </trkpt>
      <trkpt lat="45.83269" lon="1.92372">
        <ele>779.1</ele>
        <time>2026-07-07T11:54:31.000Z</time>
      </trkpt>
      <trkpt lat="45.83271" lon="1.92371">
        <ele>779.3</ele>
        <time>2026-07-07T11:54:32.000Z</time>
      </trkpt>
      <trkpt lat="45.83272" lon="1.9237">
        <ele>778.5</ele>
        <time>2026-07-07T11:54:33.000Z</time>
      </trkpt>
      <trkpt lat="45.83274" lon="1.9237">
        <ele>778.3</ele>
        <time>2026-07-07T11:54:34.000Z</time>
      </trkpt>
      <trkpt lat="45.83276" lon="1.92369">
        <ele>778.5</ele>
        <time>2026-07-07T11:54:35.000Z</time>
      </trkpt>
      <trkpt lat="45.83277" lon="1.92368">
        <ele>778.4</ele>
        <time>2026-07-07T11:54:36.000Z</time>
      </trkpt>
      <trkpt lat="45.83279" lon="1.92367">
        <ele>778.7</ele>
        <time>2026-07-07T11:54:37.000Z</time>
      </trkpt>
      <trkpt lat="45.8328" lon="1.92365">
        <ele>779.3</ele>
        <time>2026-07-07T11:54:38.000Z</time>
      </trkpt>
      <trkpt lat="45.83281" lon="1.92364">
        <ele>779.8</ele>
        <time>2026-07-07T11:54:39.000Z</time>
      </trkpt>
      <trkpt lat="45.83283" lon="1.92363">
        <ele>779.1</ele>
        <time>2026-07-07T11:54:40.000Z</time>
      </trkpt>
      <trkpt lat="45.83284" lon="1.92362">
        <ele>778.7</ele>
        <time>2026-07-07T11:54:41.000Z</time>
      </trkpt>
      <trkpt lat="45.83286" lon="1.92361">
        <ele>777.2</ele>
        <time>2026-07-07T11:54:42.000Z</time>
      </trkpt>
      <trkpt lat="45.83287" lon="1.92359">
        <ele>776.4</ele>
        <time>2026-07-07T11:54:43.000Z</time>
      </trkpt>
      <trkpt lat="45.83288" lon="1.92358">
        <ele>776.4</ele>
        <time>2026-07-07T11:54:44.000Z</time>
      </trkpt>
      <trkpt lat="45.8329" lon="1.92356">
        <ele>775.9</ele>
        <time>2026-07-07T11:54:45.000Z</time>
      </trkpt>
      <trkpt lat="45.83291" lon="1.92354">
        <ele>775.7</ele>
        <time>2026-07-07T11:54:46.000Z</time>
      </trkpt>
      <trkpt lat="45.83292" lon="1.92352">
        <ele>776.4</ele>
        <time>2026-07-07T11:54:47.000Z</time>
      </trkpt>
      <trkpt lat="45.83293" lon="1.9235">
        <ele>775.7</ele>
        <time>2026-07-07T11:54:48.000Z</time>
      </trkpt>
      <trkpt lat="45.83295" lon="1.92347">
        <ele>776.2</ele>
        <time>2026-07-07T11:54:49.000Z</time>
      </trkpt>
      <trkpt lat="45.83296" lon="1.92343">
        <ele>777.1</ele>
        <time>2026-07-07T11:54:50.000Z</time>
      </trkpt>
      <trkpt lat="45.83297" lon="1.9234">
        <ele>777.7</ele>
        <time>2026-07-07T11:54:51.000Z</time>
      </trkpt>
      <trkpt lat="45.83299" lon="1.92338">
        <ele>778.1</ele>
        <time>2026-07-07T11:54:52.000Z</time>
      </trkpt>
      <trkpt lat="45.833" lon="1.92335">
        <ele>778.1</ele>
        <time>2026-07-07T11:54:53.000Z</time>
      </trkpt>
      <trkpt lat="45.83301" lon="1.92333">
        <ele>778.9</ele>
        <time>2026-07-07T11:54:54.000Z</time>
      </trkpt>
      <trkpt lat="45.83301" lon="1.9233">
        <ele>779.4</ele>
        <time>2026-07-07T11:54:55.000Z</time>
      </trkpt>
      <trkpt lat="45.83302" lon="1.92327">
        <ele>779.5</ele>
        <time>2026-07-07T11:54:56.000Z</time>
      </trkpt>
      <trkpt lat="45.83303" lon="1.92324">
        <ele>780.4</ele>
        <time>2026-07-07T11:54:57.000Z</time>
      </trkpt>
      <trkpt lat="45.83304" lon="1.92322">
        <ele>780.5</ele>
        <time>2026-07-07T11:54:58.000Z</time>
      </trkpt>
      <trkpt lat="45.83306" lon="1.92319">
        <ele>778.7</ele>
        <time>2026-07-07T11:54:59.000Z</time>
      </trkpt>
      <trkpt lat="45.83307" lon="1.92317">
        <ele>778.8</ele>
        <time>2026-07-07T11:55:00.000Z</time>
      </trkpt>
      <trkpt lat="45.83309" lon="1.92314">
        <ele>779.1</ele>
        <time>2026-07-07T11:55:01.000Z</time>
      </trkpt>
      <trkpt lat="45.8331" lon="1.92311">
        <ele>779.3</ele>
        <time>2026-07-07T11:55:02.000Z</time>
      </trkpt>
      <trkpt lat="45.83312" lon="1.92308">
        <ele>779</ele>
        <time>2026-07-07T11:55:03.000Z</time>
      </trkpt>
      <trkpt lat="45.83312" lon="1.92304">
        <ele>780.4</ele>
        <time>2026-07-07T11:55:04.000Z</time>
      </trkpt>
      <trkpt lat="45.83314" lon="1.92302">
        <ele>781</ele>
        <time>2026-07-07T11:55:05.000Z</time>
      </trkpt>
      <trkpt lat="45.83315" lon="1.923">
        <ele>781.1</ele>
        <time>2026-07-07T11:55:06.000Z</time>
      </trkpt>
      <trkpt lat="45.83316" lon="1.92297">
        <ele>780.8</ele>
        <time>2026-07-07T11:55:07.000Z</time>
      </trkpt>
      <trkpt lat="45.83318" lon="1.92295">
        <ele>781.1</ele>
        <time>2026-07-07T11:55:08.000Z</time>
      </trkpt>
      <trkpt lat="45.8332" lon="1.92293">
        <ele>781.4</ele>
        <time>2026-07-07T11:55:09.000Z</time>
      </trkpt>
      <trkpt lat="45.83321" lon="1.92291">
        <ele>780.5</ele>
        <time>2026-07-07T11:55:10.000Z</time>
      </trkpt>
      <trkpt lat="45.83322" lon="1.92289">
        <ele>779.4</ele>
        <time>2026-07-07T11:55:11.000Z</time>
      </trkpt>
      <trkpt lat="45.83324" lon="1.92287">
        <ele>779.2</ele>
        <time>2026-07-07T11:55:12.000Z</time>
      </trkpt>
      <trkpt lat="45.83325" lon="1.92285">
        <ele>780.3</ele>
        <time>2026-07-07T11:55:13.000Z</time>
      </trkpt>
      <trkpt lat="45.83325" lon="1.92283">
        <ele>780</ele>
        <time>2026-07-07T11:55:14.000Z</time>
      </trkpt>
      <trkpt lat="45.83325" lon="1.92281">
        <ele>778.5</ele>
        <time>2026-07-07T11:55:15.000Z</time>
      </trkpt>
      <trkpt lat="45.83326" lon="1.92279">
        <ele>778.3</ele>
        <time>2026-07-07T11:55:16.000Z</time>
      </trkpt>
      <trkpt lat="45.83326" lon="1.92277">
        <ele>779.1</ele>
        <time>2026-07-07T11:55:17.000Z</time>
      </trkpt>
      <trkpt lat="45.83326" lon="1.92275">
        <ele>777.8</ele>
        <time>2026-07-07T11:55:18.000Z</time>
      </trkpt>
      <trkpt lat="45.83327" lon="1.92273">
        <ele>776.8</ele>
        <time>2026-07-07T11:55:19.000Z</time>
      </trkpt>
      <trkpt lat="45.83328" lon="1.92271">
        <ele>775.9</ele>
        <time>2026-07-07T11:55:20.000Z</time>
      </trkpt>
      <trkpt lat="45.83329" lon="1.9227">
        <ele>775.5</ele>
        <time>2026-07-07T11:55:21.000Z</time>
      </trkpt>
      <trkpt lat="45.8333" lon="1.92268">
        <ele>776</ele>
        <time>2026-07-07T11:55:22.000Z</time>
      </trkpt>
      <trkpt lat="45.83331" lon="1.92266">
        <ele>775.9</ele>
        <time>2026-07-07T11:55:23.000Z</time>
      </trkpt>
      <trkpt lat="45.83332" lon="1.92264">
        <ele>774.6</ele>
        <time>2026-07-07T11:55:24.000Z</time>
      </trkpt>
      <trkpt lat="45.83333" lon="1.92263">
        <ele>774.3</ele>
        <time>2026-07-07T11:55:25.000Z</time>
      </trkpt>
      <trkpt lat="45.83333" lon="1.92261">
        <ele>775</ele>
        <time>2026-07-07T11:55:26.000Z</time>
      </trkpt>
      <trkpt lat="45.83334" lon="1.92259">
        <ele>774.3</ele>
        <time>2026-07-07T11:55:27.000Z</time>
      </trkpt>
      <trkpt lat="45.83335" lon="1.92258">
        <ele>773.9</ele>
        <time>2026-07-07T11:55:28.000Z</time>
      </trkpt>
      <trkpt lat="45.83336" lon="1.92256">
        <ele>773.4</ele>
        <time>2026-07-07T11:55:29.000Z</time>
      </trkpt>
      <trkpt lat="45.83337" lon="1.92254">
        <ele>773.1</ele>
        <time>2026-07-07T11:55:30.000Z</time>
      </trkpt>
      <trkpt lat="45.83338" lon="1.92252">
        <ele>772.6</ele>
        <time>2026-07-07T11:55:31.000Z</time>
      </trkpt>
      <trkpt lat="45.83339" lon="1.92251">
        <ele>772.5</ele>
        <time>2026-07-07T11:55:32.000Z</time>
      </trkpt>
      <trkpt lat="45.8334" lon="1.92249">
        <ele>773</ele>
        <time>2026-07-07T11:55:33.000Z</time>
      </trkpt>
      <trkpt lat="45.83341" lon="1.92248">
        <ele>773.5</ele>
        <time>2026-07-07T11:55:34.000Z</time>
      </trkpt>
      <trkpt lat="45.83342" lon="1.92247">
        <ele>773.2</ele>
        <time>2026-07-07T11:55:35.000Z</time>
      </trkpt>
      <trkpt lat="45.83343" lon="1.92245">
        <ele>773</ele>
        <time>2026-07-07T11:55:36.000Z</time>
      </trkpt>
      <trkpt lat="45.83344" lon="1.92244">
        <ele>772.8</ele>
        <time>2026-07-07T11:55:37.000Z</time>
      </trkpt>
      <trkpt lat="45.83345" lon="1.92243">
        <ele>773.2</ele>
        <time>2026-07-07T11:55:38.000Z</time>
      </trkpt>
      <trkpt lat="45.83346" lon="1.92242">
        <ele>773.3</ele>
        <time>2026-07-07T11:55:39.000Z</time>
      </trkpt>
      <trkpt lat="45.83348" lon="1.92241">
        <ele>773.5</ele>
        <time>2026-07-07T11:55:40.000Z</time>
      </trkpt>
      <trkpt lat="45.83349" lon="1.92239">
        <ele>773.7</ele>
        <time>2026-07-07T11:55:41.000Z</time>
      </trkpt>
      <trkpt lat="45.83349" lon="1.92237">
        <ele>773.5</ele>
        <time>2026-07-07T11:55:42.000Z</time>
      </trkpt>
      <trkpt lat="45.83351" lon="1.92235">
        <ele>773.2</ele>
        <time>2026-07-07T11:55:43.000Z</time>
      </trkpt>
      <trkpt lat="45.83352" lon="1.92234">
        <ele>772.8</ele>
        <time>2026-07-07T11:55:44.000Z</time>
      </trkpt>
      <trkpt lat="45.83353" lon="1.92232">
        <ele>773.4</ele>
        <time>2026-07-07T11:55:45.000Z</time>
      </trkpt>
      <trkpt lat="45.83354" lon="1.9223">
        <ele>774</ele>
        <time>2026-07-07T11:55:46.000Z</time>
      </trkpt>
      <trkpt lat="45.83355" lon="1.92229">
        <ele>773.7</ele>
        <time>2026-07-07T11:55:47.000Z</time>
      </trkpt>
      <trkpt lat="45.83356" lon="1.92227">
        <ele>773.4</ele>
        <time>2026-07-07T11:55:48.000Z</time>
      </trkpt>
      <trkpt lat="45.83358" lon="1.92226">
        <ele>773.6</ele>
        <time>2026-07-07T11:55:49.000Z</time>
      </trkpt>
      <trkpt lat="45.83359" lon="1.92225">
        <ele>774.7</ele>
        <time>2026-07-07T11:55:50.000Z</time>
      </trkpt>
      <trkpt lat="45.83361" lon="1.92224">
        <ele>775.3</ele>
        <time>2026-07-07T11:55:51.000Z</time>
      </trkpt>
      <trkpt lat="45.83363" lon="1.92222">
        <ele>774.7</ele>
        <time>2026-07-07T11:55:52.000Z</time>
      </trkpt>
      <trkpt lat="45.83362" lon="1.92225">
        <ele>778.5</ele>
        <time>2026-07-07T11:55:53.000Z</time>
      </trkpt>
      <trkpt lat="45.83362" lon="1.92225">
        <ele>778.2</ele>
        <time>2026-07-07T11:55:54.000Z</time>
      </trkpt>
      <trkpt lat="45.83363" lon="1.92225">
        <ele>777.9</ele>
        <time>2026-07-07T11:55:55.000Z</time>
      </trkpt>
      <trkpt lat="45.83364" lon="1.92224">
        <ele>776.9</ele>
        <time>2026-07-07T11:55:56.000Z</time>
      </trkpt>
      <trkpt lat="45.83366" lon="1.92223">
        <ele>776.1</ele>
        <time>2026-07-07T11:55:57.000Z</time>
      </trkpt>
      <trkpt lat="45.83367" lon="1.92222">
        <ele>776.1</ele>
        <time>2026-07-07T11:55:58.000Z</time>
      </trkpt>
      <trkpt lat="45.83369" lon="1.92221">
        <ele>775.5</ele>
        <time>2026-07-07T11:55:59.000Z</time>
      </trkpt>
      <trkpt lat="45.8337" lon="1.92219">
        <ele>775.1</ele>
        <time>2026-07-07T11:56:00.000Z</time>
      </trkpt>
      <trkpt lat="45.83371" lon="1.92218">
        <ele>775</ele>
        <time>2026-07-07T11:56:01.000Z</time>
      </trkpt>
      <trkpt lat="45.83373" lon="1.92218">
        <ele>775</ele>
        <time>2026-07-07T11:56:02.000Z</time>
      </trkpt>
      <trkpt lat="45.83374" lon="1.92217">
        <ele>774.9</ele>
        <time>2026-07-07T11:56:03.000Z</time>
      </trkpt>
      <trkpt lat="45.83376" lon="1.92215">
        <ele>774.7</ele>
        <time>2026-07-07T11:56:04.000Z</time>
      </trkpt>
      <trkpt lat="45.83377" lon="1.92214">
        <ele>774.2</ele>
        <time>2026-07-07T11:56:05.000Z</time>
      </trkpt>
      <trkpt lat="45.83379" lon="1.92213">
        <ele>774.5</ele>
        <time>2026-07-07T11:56:06.000Z</time>
      </trkpt>
      <trkpt lat="45.8338" lon="1.92211">
        <ele>774.8</ele>
        <time>2026-07-07T11:56:07.000Z</time>
      </trkpt>
      <trkpt lat="45.83382" lon="1.9221">
        <ele>774.8</ele>
        <time>2026-07-07T11:56:08.000Z</time>
      </trkpt>
      <trkpt lat="45.83383" lon="1.92209">
        <ele>774.8</ele>
        <time>2026-07-07T11:56:09.000Z</time>
      </trkpt>
      <trkpt lat="45.83384" lon="1.92207">
        <ele>774.7</ele>
        <time>2026-07-07T11:56:10.000Z</time>
      </trkpt>
      <trkpt lat="45.83386" lon="1.92206">
        <ele>775.3</ele>
        <time>2026-07-07T11:56:11.000Z</time>
      </trkpt>
      <trkpt lat="45.83387" lon="1.92205">
        <ele>775.4</ele>
        <time>2026-07-07T11:56:12.000Z</time>
      </trkpt>
      <trkpt lat="45.83389" lon="1.92204">
        <ele>775.6</ele>
        <time>2026-07-07T11:56:13.000Z</time>
      </trkpt>
      <trkpt lat="45.8339" lon="1.92202">
        <ele>775.7</ele>
        <time>2026-07-07T11:56:14.000Z</time>
      </trkpt>
      <trkpt lat="45.83392" lon="1.92201">
        <ele>775.6</ele>
        <time>2026-07-07T11:56:15.000Z</time>
      </trkpt>
      <trkpt lat="45.83393" lon="1.922">
        <ele>775.9</ele>
        <time>2026-07-07T11:56:16.000Z</time>
      </trkpt>
      <trkpt lat="45.83394" lon="1.92199">
        <ele>776.1</ele>
        <time>2026-07-07T11:56:17.000Z</time>
      </trkpt>
      <trkpt lat="45.83396" lon="1.92198">
        <ele>776.3</ele>
        <time>2026-07-07T11:56:18.000Z</time>
      </trkpt>
      <trkpt lat="45.83397" lon="1.92197">
        <ele>776.3</ele>
        <time>2026-07-07T11:56:19.000Z</time>
      </trkpt>
      <trkpt lat="45.83399" lon="1.92196">
        <ele>776.5</ele>
        <time>2026-07-07T11:56:20.000Z</time>
      </trkpt>
      <trkpt lat="45.834" lon="1.92195">
        <ele>777.3</ele>
        <time>2026-07-07T11:56:21.000Z</time>
      </trkpt>
      <trkpt lat="45.83402" lon="1.92194">
        <ele>777.5</ele>
        <time>2026-07-07T11:56:22.000Z</time>
      </trkpt>
      <trkpt lat="45.83403" lon="1.92192">
        <ele>777.6</ele>
        <time>2026-07-07T11:56:23.000Z</time>
      </trkpt>
      <trkpt lat="45.83404" lon="1.92191">
        <ele>777.4</ele>
        <time>2026-07-07T11:56:24.000Z</time>
      </trkpt>
      <trkpt lat="45.83406" lon="1.9219">
        <ele>777.2</ele>
        <time>2026-07-07T11:56:25.000Z</time>
      </trkpt>
      <trkpt lat="45.83407" lon="1.92189">
        <ele>777.3</ele>
        <time>2026-07-07T11:56:26.000Z</time>
      </trkpt>
      <trkpt lat="45.83409" lon="1.92188">
        <ele>777.6</ele>
        <time>2026-07-07T11:56:27.000Z</time>
      </trkpt>
      <trkpt lat="45.8341" lon="1.92187">
        <ele>777.4</ele>
        <time>2026-07-07T11:56:28.000Z</time>
      </trkpt>
      <trkpt lat="45.83412" lon="1.92185">
        <ele>778.1</ele>
        <time>2026-07-07T11:56:29.000Z</time>
      </trkpt>
      <trkpt lat="45.83413" lon="1.92184">
        <ele>777.7</ele>
        <time>2026-07-07T11:56:30.000Z</time>
      </trkpt>
      <trkpt lat="45.83414" lon="1.92183">
        <ele>777.7</ele>
        <time>2026-07-07T11:56:31.000Z</time>
      </trkpt>
      <trkpt lat="45.83416" lon="1.92182">
        <ele>778</ele>
        <time>2026-07-07T11:56:32.000Z</time>
      </trkpt>
      <trkpt lat="45.83417" lon="1.9218">
        <ele>777.7</ele>
        <time>2026-07-07T11:56:33.000Z</time>
      </trkpt>
      <trkpt lat="45.83419" lon="1.92179">
        <ele>777.7</ele>
        <time>2026-07-07T11:56:34.000Z</time>
      </trkpt>
      <trkpt lat="45.8342" lon="1.92178">
        <ele>777.6</ele>
        <time>2026-07-07T11:56:35.000Z</time>
      </trkpt>
      <trkpt lat="45.83421" lon="1.92177">
        <ele>777.8</ele>
        <time>2026-07-07T11:56:36.000Z</time>
      </trkpt>
      <trkpt lat="45.83423" lon="1.92176">
        <ele>777.5</ele>
        <time>2026-07-07T11:56:37.000Z</time>
      </trkpt>
      <trkpt lat="45.83424" lon="1.92174">
        <ele>777.2</ele>
        <time>2026-07-07T11:56:38.000Z</time>
      </trkpt>
      <trkpt lat="45.83425" lon="1.92173">
        <ele>776.7</ele>
        <time>2026-07-07T11:56:39.000Z</time>
      </trkpt>
      <trkpt lat="45.83427" lon="1.92172">
        <ele>777.3</ele>
        <time>2026-07-07T11:56:40.000Z</time>
      </trkpt>
      <trkpt lat="45.83428" lon="1.9217">
        <ele>778</ele>
        <time>2026-07-07T11:56:41.000Z</time>
      </trkpt>
      <trkpt lat="45.83429" lon="1.92169">
        <ele>778.2</ele>
        <time>2026-07-07T11:56:42.000Z</time>
      </trkpt>
      <trkpt lat="45.83431" lon="1.92168">
        <ele>778</ele>
        <time>2026-07-07T11:56:43.000Z</time>
      </trkpt>
      <trkpt lat="45.83432" lon="1.92167">
        <ele>777.7</ele>
        <time>2026-07-07T11:56:44.000Z</time>
      </trkpt>
      <trkpt lat="45.83433" lon="1.92165">
        <ele>777.8</ele>
        <time>2026-07-07T11:56:45.000Z</time>
      </trkpt>
      <trkpt lat="45.83434" lon="1.92164">
        <ele>777.9</ele>
        <time>2026-07-07T11:56:46.000Z</time>
      </trkpt>
      <trkpt lat="45.83436" lon="1.92163">
        <ele>777.4</ele>
        <time>2026-07-07T11:56:47.000Z</time>
      </trkpt>
      <trkpt lat="45.83437" lon="1.92161">
        <ele>777.7</ele>
        <time>2026-07-07T11:56:48.000Z</time>
      </trkpt>
      <trkpt lat="45.83438" lon="1.92159">
        <ele>777.4</ele>
        <time>2026-07-07T11:56:49.000Z</time>
      </trkpt>
      <trkpt lat="45.8344" lon="1.92158">
        <ele>777.3</ele>
        <time>2026-07-07T11:56:50.000Z</time>
      </trkpt>
      <trkpt lat="45.83441" lon="1.92156">
        <ele>777.2</ele>
        <time>2026-07-07T11:56:51.000Z</time>
      </trkpt>
      <trkpt lat="45.83442" lon="1.92154">
        <ele>776.9</ele>
        <time>2026-07-07T11:56:52.000Z</time>
      </trkpt>
      <trkpt lat="45.83443" lon="1.92153">
        <ele>776.6</ele>
        <time>2026-07-07T11:56:53.000Z</time>
      </trkpt>
      <trkpt lat="45.83443" lon="1.9215">
        <ele>776.4</ele>
        <time>2026-07-07T11:56:54.000Z</time>
      </trkpt>
      <trkpt lat="45.83445" lon="1.92149">
        <ele>776.2</ele>
        <time>2026-07-07T11:56:55.000Z</time>
      </trkpt>
      <trkpt lat="45.83446" lon="1.92147">
        <ele>776</ele>
        <time>2026-07-07T11:56:56.000Z</time>
      </trkpt>
      <trkpt lat="45.83447" lon="1.92145">
        <ele>775.9</ele>
        <time>2026-07-07T11:56:57.000Z</time>
      </trkpt>
      <trkpt lat="45.83448" lon="1.92143">
        <ele>775.6</ele>
        <time>2026-07-07T11:56:58.000Z</time>
      </trkpt>
      <trkpt lat="45.83449" lon="1.9214">
        <ele>775.4</ele>
        <time>2026-07-07T11:56:59.000Z</time>
      </trkpt>
      <trkpt lat="45.83449" lon="1.92138">
        <ele>775.6</ele>
        <time>2026-07-07T11:57:00.000Z</time>
      </trkpt>
      <trkpt lat="45.8345" lon="1.92135">
        <ele>775</ele>
        <time>2026-07-07T11:57:01.000Z</time>
      </trkpt>
      <trkpt lat="45.8345" lon="1.92132">
        <ele>774.7</ele>
        <time>2026-07-07T11:57:02.000Z</time>
      </trkpt>
      <trkpt lat="45.8345" lon="1.92129">
        <ele>774.7</ele>
        <time>2026-07-07T11:57:03.000Z</time>
      </trkpt>
      <trkpt lat="45.83451" lon="1.92125">
        <ele>776.8</ele>
        <time>2026-07-07T11:57:04.000Z</time>
      </trkpt>
      <trkpt lat="45.83451" lon="1.92123">
        <ele>777.3</ele>
        <time>2026-07-07T11:57:05.000Z</time>
      </trkpt>
      <trkpt lat="45.83452" lon="1.9212">
        <ele>777.6</ele>
        <time>2026-07-07T11:57:06.000Z</time>
      </trkpt>
      <trkpt lat="45.83451" lon="1.92118">
        <ele>777</ele>
        <time>2026-07-07T11:57:07.000Z</time>
      </trkpt>
      <trkpt lat="45.83452" lon="1.92116">
        <ele>776.4</ele>
        <time>2026-07-07T11:57:08.000Z</time>
      </trkpt>
      <trkpt lat="45.83452" lon="1.92113">
        <ele>775.8</ele>
        <time>2026-07-07T11:57:09.000Z</time>
      </trkpt>
      <trkpt lat="45.83452" lon="1.92111">
        <ele>775.5</ele>
        <time>2026-07-07T11:57:10.000Z</time>
      </trkpt>
      <trkpt lat="45.83452" lon="1.92109">
        <ele>775.3</ele>
        <time>2026-07-07T11:57:11.000Z</time>
      </trkpt>
      <trkpt lat="45.83452" lon="1.92107">
        <ele>774.2</ele>
        <time>2026-07-07T11:57:12.000Z</time>
      </trkpt>
      <trkpt lat="45.83452" lon="1.92105">
        <ele>773.8</ele>
        <time>2026-07-07T11:57:13.000Z</time>
      </trkpt>
      <trkpt lat="45.83451" lon="1.92102">
        <ele>773.8</ele>
        <time>2026-07-07T11:57:14.000Z</time>
      </trkpt>
      <trkpt lat="45.83451" lon="1.92099">
        <ele>773.3</ele>
        <time>2026-07-07T11:57:15.000Z</time>
      </trkpt>
      <trkpt lat="45.8345" lon="1.92096">
        <ele>773.2</ele>
        <time>2026-07-07T11:57:16.000Z</time>
      </trkpt>
      <trkpt lat="45.83449" lon="1.92094">
        <ele>772</ele>
        <time>2026-07-07T11:57:17.000Z</time>
      </trkpt>
      <trkpt lat="45.83449" lon="1.92092">
        <ele>772</ele>
        <time>2026-07-07T11:57:18.000Z</time>
      </trkpt>
      <trkpt lat="45.83449" lon="1.9209">
        <ele>771.1</ele>
        <time>2026-07-07T11:57:19.000Z</time>
      </trkpt>
      <trkpt lat="45.83448" lon="1.92087">
        <ele>769.9</ele>
        <time>2026-07-07T11:57:20.000Z</time>
      </trkpt>
      <trkpt lat="45.83447" lon="1.92085">
        <ele>769.8</ele>
        <time>2026-07-07T11:57:21.000Z</time>
      </trkpt>
      <trkpt lat="45.83447" lon="1.92083">
        <ele>769.9</ele>
        <time>2026-07-07T11:57:22.000Z</time>
      </trkpt>
      <trkpt lat="45.83446" lon="1.92081">
        <ele>770</ele>
        <time>2026-07-07T11:57:23.000Z</time>
      </trkpt>
      <trkpt lat="45.83445" lon="1.92079">
        <ele>768.9</ele>
        <time>2026-07-07T11:57:24.000Z</time>
      </trkpt>
      <trkpt lat="45.83444" lon="1.92076">
        <ele>769</ele>
        <time>2026-07-07T11:57:25.000Z</time>
      </trkpt>
      <trkpt lat="45.83443" lon="1.92074">
        <ele>768.5</ele>
        <time>2026-07-07T11:57:26.000Z</time>
      </trkpt>
      <trkpt lat="45.83442" lon="1.92071">
        <ele>767.3</ele>
        <time>2026-07-07T11:57:27.000Z</time>
      </trkpt>
      <trkpt lat="45.83442" lon="1.92069">
        <ele>766.2</ele>
        <time>2026-07-07T11:57:28.000Z</time>
      </trkpt>
      <trkpt lat="45.83442" lon="1.92067">
        <ele>765.6</ele>
        <time>2026-07-07T11:57:29.000Z</time>
      </trkpt>
      <trkpt lat="45.83442" lon="1.92066">
        <ele>765.2</ele>
        <time>2026-07-07T11:57:30.000Z</time>
      </trkpt>
      <trkpt lat="45.83441" lon="1.92064">
        <ele>764.9</ele>
        <time>2026-07-07T11:57:31.000Z</time>
      </trkpt>
      <trkpt lat="45.8344" lon="1.92062">
        <ele>764.9</ele>
        <time>2026-07-07T11:57:32.000Z</time>
      </trkpt>
      <trkpt lat="45.8344" lon="1.9206">
        <ele>765.6</ele>
        <time>2026-07-07T11:57:33.000Z</time>
      </trkpt>
      <trkpt lat="45.8344" lon="1.92058">
        <ele>765.8</ele>
        <time>2026-07-07T11:57:34.000Z</time>
      </trkpt>
      <trkpt lat="45.8344" lon="1.92055">
        <ele>765.2</ele>
        <time>2026-07-07T11:57:35.000Z</time>
      </trkpt>
      <trkpt lat="45.8344" lon="1.92053">
        <ele>764.7</ele>
        <time>2026-07-07T11:57:36.000Z</time>
      </trkpt>
      <trkpt lat="45.83439" lon="1.92051">
        <ele>764.1</ele>
        <time>2026-07-07T11:57:37.000Z</time>
      </trkpt>
      <trkpt lat="45.83438" lon="1.92048">
        <ele>763.7</ele>
        <time>2026-07-07T11:57:38.000Z</time>
      </trkpt>
      <trkpt lat="45.83438" lon="1.92045">
        <ele>762.7</ele>
        <time>2026-07-07T11:57:39.000Z</time>
      </trkpt>
      <trkpt lat="45.83438" lon="1.92043">
        <ele>762.8</ele>
        <time>2026-07-07T11:57:40.000Z</time>
      </trkpt>
      <trkpt lat="45.83439" lon="1.92041">
        <ele>763.2</ele>
        <time>2026-07-07T11:57:41.000Z</time>
      </trkpt>
      <trkpt lat="45.83439" lon="1.92039">
        <ele>762.9</ele>
        <time>2026-07-07T11:57:42.000Z</time>
      </trkpt>
      <trkpt lat="45.83439" lon="1.92036">
        <ele>762.6</ele>
        <time>2026-07-07T11:57:43.000Z</time>
      </trkpt>
      <trkpt lat="45.83439" lon="1.92033">
        <ele>762</ele>
        <time>2026-07-07T11:57:44.000Z</time>
      </trkpt>
      <trkpt lat="45.8344" lon="1.92031">
        <ele>762.4</ele>
        <time>2026-07-07T11:57:45.000Z</time>
      </trkpt>
      <trkpt lat="45.8344" lon="1.92029">
        <ele>762.3</ele>
        <time>2026-07-07T11:57:46.000Z</time>
      </trkpt>
      <trkpt lat="45.8344" lon="1.92026">
        <ele>762.5</ele>
        <time>2026-07-07T11:57:47.000Z</time>
      </trkpt>
      <trkpt lat="45.8344" lon="1.92023">
        <ele>761.9</ele>
        <time>2026-07-07T11:57:48.000Z</time>
      </trkpt>
      <trkpt lat="45.8344" lon="1.92021">
        <ele>761.8</ele>
        <time>2026-07-07T11:57:49.000Z</time>
      </trkpt>
      <trkpt lat="45.83442" lon="1.92018">
        <ele>760.3</ele>
        <time>2026-07-07T11:57:50.000Z</time>
      </trkpt>
      <trkpt lat="45.83443" lon="1.92017">
        <ele>760.1</ele>
        <time>2026-07-07T11:57:51.000Z</time>
      </trkpt>
      <trkpt lat="45.83445" lon="1.92015">
        <ele>760.6</ele>
        <time>2026-07-07T11:57:52.000Z</time>
      </trkpt>
      <trkpt lat="45.83445" lon="1.92013">
        <ele>760.8</ele>
        <time>2026-07-07T11:57:53.000Z</time>
      </trkpt>
      <trkpt lat="45.83446" lon="1.92011">
        <ele>760.6</ele>
        <time>2026-07-07T11:57:54.000Z</time>
      </trkpt>
      <trkpt lat="45.83447" lon="1.92009">
        <ele>760.5</ele>
        <time>2026-07-07T11:57:55.000Z</time>
      </trkpt>
      <trkpt lat="45.83448" lon="1.92007">
        <ele>760.5</ele>
        <time>2026-07-07T11:57:56.000Z</time>
      </trkpt>
      <trkpt lat="45.83448" lon="1.92004">
        <ele>761.4</ele>
        <time>2026-07-07T11:57:57.000Z</time>
      </trkpt>
      <trkpt lat="45.83448" lon="1.92001">
        <ele>761.2</ele>
        <time>2026-07-07T11:57:58.000Z</time>
      </trkpt>
      <trkpt lat="45.83449" lon="1.91998">
        <ele>760.5</ele>
        <time>2026-07-07T11:57:59.000Z</time>
      </trkpt>
      <trkpt lat="45.8345" lon="1.91996">
        <ele>760.2</ele>
        <time>2026-07-07T11:58:00.000Z</time>
      </trkpt>
      <trkpt lat="45.8345" lon="1.91994">
        <ele>760.2</ele>
        <time>2026-07-07T11:58:01.000Z</time>
      </trkpt>
      <trkpt lat="45.8345" lon="1.91993">
        <ele>760.1</ele>
        <time>2026-07-07T11:58:02.000Z</time>
      </trkpt>
      <trkpt lat="45.83452" lon="1.91992">
        <ele>758.4</ele>
        <time>2026-07-07T11:58:03.000Z</time>
      </trkpt>
      <trkpt lat="45.83453" lon="1.9199">
        <ele>758.4</ele>
        <time>2026-07-07T11:58:04.000Z</time>
      </trkpt>
      <trkpt lat="45.83455" lon="1.91988">
        <ele>757.8</ele>
        <time>2026-07-07T11:58:05.000Z</time>
      </trkpt>
      <trkpt lat="45.83456" lon="1.91985">
        <ele>757.5</ele>
        <time>2026-07-07T11:58:06.000Z</time>
      </trkpt>
      <trkpt lat="45.83457" lon="1.91984">
        <ele>758.6</ele>
        <time>2026-07-07T11:58:07.000Z</time>
      </trkpt>
      <trkpt lat="45.83458" lon="1.91982">
        <ele>757.8</ele>
        <time>2026-07-07T11:58:08.000Z</time>
      </trkpt>
      <trkpt lat="45.83458" lon="1.91981">
        <ele>758.3</ele>
        <time>2026-07-07T11:58:09.000Z</time>
      </trkpt>
      <trkpt lat="45.83459" lon="1.91979">
        <ele>758.3</ele>
        <time>2026-07-07T11:58:10.000Z</time>
      </trkpt>
      <trkpt lat="45.8346" lon="1.91978">
        <ele>759.1</ele>
        <time>2026-07-07T11:58:11.000Z</time>
      </trkpt>
      <trkpt lat="45.83461" lon="1.91977">
        <ele>759.3</ele>
        <time>2026-07-07T11:58:12.000Z</time>
      </trkpt>
      <trkpt lat="45.83462" lon="1.91975">
        <ele>758.9</ele>
        <time>2026-07-07T11:58:13.000Z</time>
      </trkpt>
      <trkpt lat="45.83462" lon="1.91973">
        <ele>758.3</ele>
        <time>2026-07-07T11:58:14.000Z</time>
      </trkpt>
      <trkpt lat="45.83462" lon="1.91971">
        <ele>758.2</ele>
        <time>2026-07-07T11:58:15.000Z</time>
      </trkpt>
      <trkpt lat="45.83463" lon="1.9197">
        <ele>757.5</ele>
        <time>2026-07-07T11:58:16.000Z</time>
      </trkpt>
      <trkpt lat="45.83463" lon="1.91968">
        <ele>757</ele>
        <time>2026-07-07T11:58:17.000Z</time>
      </trkpt>
      <trkpt lat="45.83464" lon="1.91966">
        <ele>756.5</ele>
        <time>2026-07-07T11:58:18.000Z</time>
      </trkpt>
      <trkpt lat="45.83465" lon="1.91965">
        <ele>756.6</ele>
        <time>2026-07-07T11:58:19.000Z</time>
      </trkpt>
      <trkpt lat="45.83466" lon="1.91963">
        <ele>755.2</ele>
        <time>2026-07-07T11:58:20.000Z</time>
      </trkpt>
      <trkpt lat="45.83467" lon="1.91961">
        <ele>755.3</ele>
        <time>2026-07-07T11:58:21.000Z</time>
      </trkpt>
      <trkpt lat="45.83467" lon="1.91959">
        <ele>755.4</ele>
        <time>2026-07-07T11:58:22.000Z</time>
      </trkpt>
      <trkpt lat="45.83468" lon="1.91957">
        <ele>755.9</ele>
        <time>2026-07-07T11:58:23.000Z</time>
      </trkpt>
      <trkpt lat="45.83469" lon="1.91955">
        <ele>755.9</ele>
        <time>2026-07-07T11:58:24.000Z</time>
      </trkpt>
      <trkpt lat="45.8347" lon="1.91953">
        <ele>755.2</ele>
        <time>2026-07-07T11:58:25.000Z</time>
      </trkpt>
      <trkpt lat="45.83471" lon="1.91951">
        <ele>755.8</ele>
        <time>2026-07-07T11:58:26.000Z</time>
      </trkpt>
      <trkpt lat="45.83472" lon="1.91949">
        <ele>756.3</ele>
        <time>2026-07-07T11:58:27.000Z</time>
      </trkpt>
      <trkpt lat="45.83473" lon="1.91947">
        <ele>756.3</ele>
        <time>2026-07-07T11:58:28.000Z</time>
      </trkpt>
      <trkpt lat="45.83473" lon="1.91945">
        <ele>756.6</ele>
        <time>2026-07-07T11:58:29.000Z</time>
      </trkpt>
      <trkpt lat="45.83475" lon="1.91942">
        <ele>755</ele>
        <time>2026-07-07T11:58:30.000Z</time>
      </trkpt>
      <trkpt lat="45.83476" lon="1.91938">
        <ele>756.9</ele>
        <time>2026-07-07T11:58:31.000Z</time>
      </trkpt>
      <trkpt lat="45.83477" lon="1.91936">
        <ele>758</ele>
        <time>2026-07-07T11:58:32.000Z</time>
      </trkpt>
      <trkpt lat="45.83479" lon="1.91935">
        <ele>759.2</ele>
        <time>2026-07-07T11:58:33.000Z</time>
      </trkpt>
      <trkpt lat="45.83481" lon="1.91934">
        <ele>760.4</ele>
        <time>2026-07-07T11:58:34.000Z</time>
      </trkpt>
      <trkpt lat="45.83482" lon="1.91932">
        <ele>761.1</ele>
        <time>2026-07-07T11:58:35.000Z</time>
      </trkpt>
      <trkpt lat="45.83483" lon="1.9193">
        <ele>760.9</ele>
        <time>2026-07-07T11:58:36.000Z</time>
      </trkpt>
      <trkpt lat="45.83484" lon="1.91928">
        <ele>761.6</ele>
        <time>2026-07-07T11:58:37.000Z</time>
      </trkpt>
      <trkpt lat="45.83484" lon="1.91926">
        <ele>761.5</ele>
        <time>2026-07-07T11:58:38.000Z</time>
      </trkpt>
      <trkpt lat="45.83485" lon="1.91924">
        <ele>761.2</ele>
        <time>2026-07-07T11:58:39.000Z</time>
      </trkpt>
      <trkpt lat="45.83486" lon="1.91923">
        <ele>761.3</ele>
        <time>2026-07-07T11:58:40.000Z</time>
      </trkpt>
      <trkpt lat="45.83487" lon="1.91921">
        <ele>761.7</ele>
        <time>2026-07-07T11:58:41.000Z</time>
      </trkpt>
      <trkpt lat="45.83488" lon="1.91919">
        <ele>761.8</ele>
        <time>2026-07-07T11:58:42.000Z</time>
      </trkpt>
      <trkpt lat="45.83488" lon="1.91918">
        <ele>761.5</ele>
        <time>2026-07-07T11:58:43.000Z</time>
      </trkpt>
      <trkpt lat="45.83489" lon="1.91915">
        <ele>761.2</ele>
        <time>2026-07-07T11:58:44.000Z</time>
      </trkpt>
      <trkpt lat="45.83489" lon="1.91913">
        <ele>761.4</ele>
        <time>2026-07-07T11:58:45.000Z</time>
      </trkpt>
      <trkpt lat="45.83489" lon="1.91911">
        <ele>761</ele>
        <time>2026-07-07T11:58:46.000Z</time>
      </trkpt>
      <trkpt lat="45.8349" lon="1.91908">
        <ele>760.9</ele>
        <time>2026-07-07T11:58:47.000Z</time>
      </trkpt>
      <trkpt lat="45.8349" lon="1.91906">
        <ele>761</ele>
        <time>2026-07-07T11:58:48.000Z</time>
      </trkpt>
      <trkpt lat="45.8349" lon="1.91904">
        <ele>761.3</ele>
        <time>2026-07-07T11:58:49.000Z</time>
      </trkpt>
      <trkpt lat="45.8349" lon="1.91902">
        <ele>760.4</ele>
        <time>2026-07-07T11:58:50.000Z</time>
      </trkpt>
      <trkpt lat="45.8349" lon="1.91899">
        <ele>759.9</ele>
        <time>2026-07-07T11:58:51.000Z</time>
      </trkpt>
      <trkpt lat="45.8349" lon="1.91897">
        <ele>760.5</ele>
        <time>2026-07-07T11:58:52.000Z</time>
      </trkpt>
      <trkpt lat="45.83489" lon="1.91895">
        <ele>760.2</ele>
        <time>2026-07-07T11:58:53.000Z</time>
      </trkpt>
      <trkpt lat="45.83488" lon="1.91893">
        <ele>760</ele>
        <time>2026-07-07T11:58:54.000Z</time>
      </trkpt>
      <trkpt lat="45.83488" lon="1.91891">
        <ele>760.1</ele>
        <time>2026-07-07T11:58:55.000Z</time>
      </trkpt>
      <trkpt lat="45.83487" lon="1.91888">
        <ele>760.1</ele>
        <time>2026-07-07T11:58:56.000Z</time>
      </trkpt>
      <trkpt lat="45.83486" lon="1.91886">
        <ele>759.8</ele>
        <time>2026-07-07T11:58:57.000Z</time>
      </trkpt>
      <trkpt lat="45.83485" lon="1.91886">
        <ele>759.4</ele>
        <time>2026-07-07T11:58:58.000Z</time>
      </trkpt>
      <trkpt lat="45.83485" lon="1.91887">
        <ele>759.4</ele>
        <time>2026-07-07T11:58:59.000Z</time>
      </trkpt>
      <trkpt lat="45.83484" lon="1.91886">
        <ele>759</ele>
        <time>2026-07-07T11:59:00.000Z</time>
      </trkpt>
      <trkpt lat="45.83483" lon="1.91886">
        <ele>759.1</ele>
        <time>2026-07-07T11:59:01.000Z</time>
      </trkpt>
      <trkpt lat="45.83483" lon="1.91886">
        <ele>758.5</ele>
        <time>2026-07-07T11:59:02.000Z</time>
      </trkpt>
      <trkpt lat="45.83483" lon="1.91886">
        <ele>758.4</ele>
        <time>2026-07-07T11:59:03.000Z</time>
      </trkpt>
      <trkpt lat="45.83484" lon="1.91886">
        <ele>758.4</ele>
        <time>2026-07-07T11:59:04.000Z</time>
      </trkpt>
      <trkpt lat="45.83484" lon="1.91886">
        <ele>758.4</ele>
        <time>2026-07-07T11:59:05.000Z</time>
      </trkpt>
      <trkpt lat="45.83483" lon="1.91887">
        <ele>758.5</ele>
        <time>2026-07-07T11:59:06.000Z</time>
      </trkpt>
      <trkpt lat="45.83483" lon="1.91888">
        <ele>758.3</ele>
        <time>2026-07-07T11:59:07.000Z</time>
      </trkpt>
      <trkpt lat="45.83483" lon="1.91888">
        <ele>758</ele>
        <time>2026-07-07T11:59:08.000Z</time>
      </trkpt>
      <trkpt lat="45.83483" lon="1.91889">
        <ele>757.6</ele>
        <time>2026-07-07T11:59:09.000Z</time>
      </trkpt>
      <trkpt lat="45.83483" lon="1.9189">
        <ele>757.2</ele>
        <time>2026-07-07T11:59:10.000Z</time>
      </trkpt>
      <trkpt lat="45.83479" lon="1.9189">
        <ele>756.6</ele>
        <time>2026-07-07T11:59:11.000Z</time>
      </trkpt>
      <trkpt lat="45.83478" lon="1.9189">
        <ele>756.5</ele>
        <time>2026-07-07T11:59:12.000Z</time>
      </trkpt>
      <trkpt lat="45.83478" lon="1.9189">
        <ele>756.5</ele>
        <time>2026-07-07T11:59:13.000Z</time>
      </trkpt>
      <trkpt lat="45.83478" lon="1.9189">
        <ele>756.5</ele>
        <time>2026-07-07T11:59:14.000Z</time>
      </trkpt>
      <trkpt lat="45.83478" lon="1.91891">
        <ele>756.4</ele>
        <time>2026-07-07T11:59:15.000Z</time>
      </trkpt>
      <trkpt lat="45.83478" lon="1.91893">
        <ele>756.6</ele>
        <time>2026-07-07T11:59:16.000Z</time>
      </trkpt>
      <trkpt lat="45.83478" lon="1.91895">
        <ele>757</ele>
        <time>2026-07-07T11:59:17.000Z</time>
      </trkpt>
      <trkpt lat="45.83477" lon="1.91897">
        <ele>757.5</ele>
        <time>2026-07-07T11:59:18.000Z</time>
      </trkpt>
      <trkpt lat="45.83476" lon="1.91898">
        <ele>757.4</ele>
        <time>2026-07-07T11:59:19.000Z</time>
      </trkpt>
      <trkpt lat="45.83475" lon="1.919">
        <ele>757.8</ele>
        <time>2026-07-07T11:59:20.000Z</time>
      </trkpt>
      <trkpt lat="45.83474" lon="1.91901">
        <ele>757.5</ele>
        <time>2026-07-07T11:59:21.000Z</time>
      </trkpt>
      <trkpt lat="45.83474" lon="1.91903">
        <ele>757.7</ele>
        <time>2026-07-07T11:59:22.000Z</time>
      </trkpt>
      <trkpt lat="45.83473" lon="1.91905">
        <ele>759.3</ele>
        <time>2026-07-07T11:59:23.000Z</time>
      </trkpt>
      <trkpt lat="45.83473" lon="1.91907">
        <ele>760.2</ele>
        <time>2026-07-07T11:59:24.000Z</time>
      </trkpt>
      <trkpt lat="45.83471" lon="1.91909">
        <ele>761.4</ele>
        <time>2026-07-07T11:59:25.000Z</time>
      </trkpt>
      <trkpt lat="45.83471" lon="1.91911">
        <ele>761.5</ele>
        <time>2026-07-07T11:59:26.000Z</time>
      </trkpt>
      <trkpt lat="45.8347" lon="1.91912">
        <ele>761.3</ele>
        <time>2026-07-07T11:59:27.000Z</time>
      </trkpt>
      <trkpt lat="45.83468" lon="1.91915">
        <ele>760.6</ele>
        <time>2026-07-07T11:59:28.000Z</time>
      </trkpt>
      <trkpt lat="45.83467" lon="1.91917">
        <ele>761.4</ele>
        <time>2026-07-07T11:59:29.000Z</time>
      </trkpt>
      <trkpt lat="45.83465" lon="1.91917">
        <ele>762.4</ele>
        <time>2026-07-07T11:59:30.000Z</time>
      </trkpt>
      <trkpt lat="45.83463" lon="1.91918">
        <ele>762.8</ele>
        <time>2026-07-07T11:59:31.000Z</time>
      </trkpt>
      <trkpt lat="45.83461" lon="1.91918">
        <ele>763.4</ele>
        <time>2026-07-07T11:59:32.000Z</time>
      </trkpt>
      <trkpt lat="45.83459" lon="1.91917">
        <ele>763.8</ele>
        <time>2026-07-07T11:59:33.000Z</time>
      </trkpt>
      <trkpt lat="45.83458" lon="1.91915">
        <ele>763.2</ele>
        <time>2026-07-07T11:59:34.000Z</time>
      </trkpt>
      <trkpt lat="45.83457" lon="1.91914">
        <ele>763.1</ele>
        <time>2026-07-07T11:59:35.000Z</time>
      </trkpt>
      <trkpt lat="45.83456" lon="1.91912">
        <ele>763.1</ele>
        <time>2026-07-07T11:59:36.000Z</time>
      </trkpt>
      <trkpt lat="45.83455" lon="1.9191">
        <ele>763.2</ele>
        <time>2026-07-07T11:59:37.000Z</time>
      </trkpt>
      <trkpt lat="45.83454" lon="1.91909">
        <ele>764.4</ele>
        <time>2026-07-07T11:59:38.000Z</time>
      </trkpt>
      <trkpt lat="45.83452" lon="1.91907">
        <ele>765.5</ele>
        <time>2026-07-07T11:59:39.000Z</time>
      </trkpt>
      <trkpt lat="45.83452" lon="1.91907">
        <ele>765.1</ele>
        <time>2026-07-07T11:59:40.000Z</time>
      </trkpt>
      <trkpt lat="45.83452" lon="1.91907">
        <ele>765.1</ele>
        <time>2026-07-07T11:59:41.000Z</time>
      </trkpt>
      <trkpt lat="45.83452" lon="1.91907">
        <ele>765.1</ele>
        <time>2026-07-07T11:59:42.000Z</time>
      </trkpt>
      <trkpt lat="45.83452" lon="1.91907">
        <ele>765.1</ele>
        <time>2026-07-07T11:59:43.000Z</time>
      </trkpt>
      <trkpt lat="45.83452" lon="1.91907">
        <ele>765.1</ele>
        <time>2026-07-07T11:59:44.000Z</time>
      </trkpt>
      <trkpt lat="45.83452" lon="1.91907">
        <ele>765.1</ele>
        <time>2026-07-07T11:59:45.000Z</time>
      </trkpt>
      <trkpt lat="45.83452" lon="1.91907">
        <ele>765.1</ele>
        <time>2026-07-07T11:59:46.000Z</time>
      </trkpt>
      <trkpt lat="45.83451" lon="1.91905">
        <ele>764.5</ele>
        <time>2026-07-07T11:59:47.000Z</time>
      </trkpt>
      <trkpt lat="45.83449" lon="1.91904">
        <ele>764.8</ele>
        <time>2026-07-07T11:59:48.000Z</time>
      </trkpt>
      <trkpt lat="45.83449" lon="1.91903">
        <ele>764.6</ele>
        <time>2026-07-07T11:59:49.000Z</time>
      </trkpt>
      <trkpt lat="45.83448" lon="1.91902">
        <ele>764.9</ele>
        <time>2026-07-07T11:59:50.000Z</time>
      </trkpt>
      <trkpt lat="45.83448" lon="1.91902">
        <ele>764.9</ele>
        <time>2026-07-07T11:59:51.000Z</time>
      </trkpt>
      <trkpt lat="45.83447" lon="1.91901">
        <ele>763.4</ele>
        <time>2026-07-07T11:59:52.000Z</time>
      </trkpt>
      <trkpt lat="45.83447" lon="1.91901">
        <ele>760.5</ele>
        <time>2026-07-07T11:59:53.000Z</time>
      </trkpt>
      <trkpt lat="45.83447" lon="1.919">
        <ele>757.2</ele>
        <time>2026-07-07T11:59:54.000Z</time>
      </trkpt>
      <trkpt lat="45.83446" lon="1.91899">
        <ele>755.3</ele>
        <time>2026-07-07T11:59:55.000Z</time>
      </trkpt>
      <trkpt lat="45.83447" lon="1.91897">
        <ele>749.6</ele>
        <time>2026-07-07T11:59:56.000Z</time>
      </trkpt>
      <trkpt lat="45.83448" lon="1.91895">
        <ele>747.5</ele>
        <time>2026-07-07T11:59:57.000Z</time>
      </trkpt>
      <trkpt lat="45.8345" lon="1.91894">
        <ele>743.9</ele>
        <time>2026-07-07T11:59:58.000Z</time>
      </trkpt>
      <trkpt lat="45.83452" lon="1.91893">
        <ele>742.5</ele>
        <time>2026-07-07T11:59:59.000Z</time>
      </trkpt>
      <trkpt lat="45.83455" lon="1.91893">
        <ele>741.3</ele>
        <time>2026-07-07T12:00:00.000Z</time>
      </trkpt>
      <trkpt lat="45.83457" lon="1.91894">
        <ele>740.7</ele>
        <time>2026-07-07T12:00:01.000Z</time>
      </trkpt>
      <trkpt lat="45.83459" lon="1.91894">
        <ele>739.9</ele>
        <time>2026-07-07T12:00:02.000Z</time>
      </trkpt>
      <trkpt lat="45.83461" lon="1.91893">
        <ele>739.6</ele>
        <time>2026-07-07T12:00:03.000Z</time>
      </trkpt>
      <trkpt lat="45.83463" lon="1.91893">
        <ele>740</ele>
        <time>2026-07-07T12:00:04.000Z</time>
      </trkpt>
      <trkpt lat="45.83465" lon="1.91893">
        <ele>741.6</ele>
        <time>2026-07-07T12:00:05.000Z</time>
      </trkpt>
      <trkpt lat="45.83467" lon="1.91893">
        <ele>742.6</ele>
        <time>2026-07-07T12:00:06.000Z</time>
      </trkpt>
      <trkpt lat="45.83469" lon="1.91893">
        <ele>743.7</ele>
        <time>2026-07-07T12:00:07.000Z</time>
      </trkpt>
      <trkpt lat="45.83471" lon="1.91892">
        <ele>745</ele>
        <time>2026-07-07T12:00:08.000Z</time>
      </trkpt>
      <trkpt lat="45.83473" lon="1.91891">
        <ele>744.8</ele>
        <time>2026-07-07T12:00:09.000Z</time>
      </trkpt>
      <trkpt lat="45.83476" lon="1.91891">
        <ele>746.3</ele>
        <time>2026-07-07T12:00:10.000Z</time>
      </trkpt>
      <trkpt lat="45.83478" lon="1.91891">
        <ele>746.3</ele>
        <time>2026-07-07T12:00:11.000Z</time>
      </trkpt>
      <trkpt lat="45.83481" lon="1.91892">
        <ele>746.7</ele>
        <time>2026-07-07T12:00:12.000Z</time>
      </trkpt>
      <trkpt lat="45.83483" lon="1.91893">
        <ele>747.2</ele>
        <time>2026-07-07T12:00:13.000Z</time>
      </trkpt>
      <trkpt lat="45.83484" lon="1.91894">
        <ele>747.5</ele>
        <time>2026-07-07T12:00:14.000Z</time>
      </trkpt>
      <trkpt lat="45.83486" lon="1.91895">
        <ele>748</ele>
        <time>2026-07-07T12:00:15.000Z</time>
      </trkpt>
      <trkpt lat="45.83488" lon="1.91896">
        <ele>748.9</ele>
        <time>2026-07-07T12:00:16.000Z</time>
      </trkpt>
      <trkpt lat="45.8349" lon="1.91897">
        <ele>750</ele>
        <time>2026-07-07T12:00:17.000Z</time>
      </trkpt>
      <trkpt lat="45.83492" lon="1.91898">
        <ele>751.2</ele>
        <time>2026-07-07T12:00:18.000Z</time>
      </trkpt>
      <trkpt lat="45.83494" lon="1.91898">
        <ele>751.7</ele>
        <time>2026-07-07T12:00:19.000Z</time>
      </trkpt>
      <trkpt lat="45.83496" lon="1.91899">
        <ele>752.7</ele>
        <time>2026-07-07T12:00:20.000Z</time>
      </trkpt>
      <trkpt lat="45.83498" lon="1.91898">
        <ele>753.5</ele>
        <time>2026-07-07T12:00:21.000Z</time>
      </trkpt>
      <trkpt lat="45.835" lon="1.91898">
        <ele>754.4</ele>
        <time>2026-07-07T12:00:22.000Z</time>
      </trkpt>
      <trkpt lat="45.83502" lon="1.91898">
        <ele>754.8</ele>
        <time>2026-07-07T12:00:23.000Z</time>
      </trkpt>
      <trkpt lat="45.83505" lon="1.91897">
        <ele>755.7</ele>
        <time>2026-07-07T12:00:24.000Z</time>
      </trkpt>
      <trkpt lat="45.83507" lon="1.91896">
        <ele>756.5</ele>
        <time>2026-07-07T12:00:25.000Z</time>
      </trkpt>
      <trkpt lat="45.8351" lon="1.91895">
        <ele>757.1</ele>
        <time>2026-07-07T12:00:26.000Z</time>
      </trkpt>
      <trkpt lat="45.83512" lon="1.91894">
        <ele>757.3</ele>
        <time>2026-07-07T12:00:27.000Z</time>
      </trkpt>
      <trkpt lat="45.83514" lon="1.91893">
        <ele>757.7</ele>
        <time>2026-07-07T12:00:28.000Z</time>
      </trkpt>
      <trkpt lat="45.83516" lon="1.91891">
        <ele>758.3</ele>
        <time>2026-07-07T12:00:29.000Z</time>
      </trkpt>
      <trkpt lat="45.83518" lon="1.91889">
        <ele>759.5</ele>
        <time>2026-07-07T12:00:30.000Z</time>
      </trkpt>
      <trkpt lat="45.83519" lon="1.91888">
        <ele>762.7</ele>
        <time>2026-07-07T12:00:31.000Z</time>
      </trkpt>
      <trkpt lat="45.8352" lon="1.91886">
        <ele>763.6</ele>
        <time>2026-07-07T12:00:32.000Z</time>
      </trkpt>
      <trkpt lat="45.83522" lon="1.91885">
        <ele>764.7</ele>
        <time>2026-07-07T12:00:33.000Z</time>
      </trkpt>
      <trkpt lat="45.83523" lon="1.91883">
        <ele>764.9</ele>
        <time>2026-07-07T12:00:34.000Z</time>
      </trkpt>
      <trkpt lat="45.83525" lon="1.91882">
        <ele>764.7</ele>
        <time>2026-07-07T12:00:35.000Z</time>
      </trkpt>
      <trkpt lat="45.83526" lon="1.91881">
        <ele>765.5</ele>
        <time>2026-07-07T12:00:36.000Z</time>
      </trkpt>
      <trkpt lat="45.83528" lon="1.91881">
        <ele>765.9</ele>
        <time>2026-07-07T12:00:37.000Z</time>
      </trkpt>
      <trkpt lat="45.8353" lon="1.9188">
        <ele>766.7</ele>
        <time>2026-07-07T12:00:38.000Z</time>
      </trkpt>
      <trkpt lat="45.83531" lon="1.91878">
        <ele>768.2</ele>
        <time>2026-07-07T12:00:39.000Z</time>
      </trkpt>
      <trkpt lat="45.83533" lon="1.91875">
        <ele>769.8</ele>
        <time>2026-07-07T12:00:40.000Z</time>
      </trkpt>
      <trkpt lat="45.83535" lon="1.91873">
        <ele>770.6</ele>
        <time>2026-07-07T12:00:41.000Z</time>
      </trkpt>
      <trkpt lat="45.83537" lon="1.9187">
        <ele>770.9</ele>
        <time>2026-07-07T12:00:42.000Z</time>
      </trkpt>
      <trkpt lat="45.83537" lon="1.91868">
        <ele>771.7</ele>
        <time>2026-07-07T12:00:43.000Z</time>
      </trkpt>
      <trkpt lat="45.83538" lon="1.91865">
        <ele>773</ele>
        <time>2026-07-07T12:00:44.000Z</time>
      </trkpt>
      <trkpt lat="45.83539" lon="1.91862">
        <ele>772.9</ele>
        <time>2026-07-07T12:00:45.000Z</time>
      </trkpt>
      <trkpt lat="45.83541" lon="1.91857">
        <ele>771.6</ele>
        <time>2026-07-07T12:00:46.000Z</time>
      </trkpt>
      <trkpt lat="45.83543" lon="1.91853">
        <ele>770.1</ele>
        <time>2026-07-07T12:00:47.000Z</time>
      </trkpt>
      <trkpt lat="45.83546" lon="1.91848">
        <ele>768.9</ele>
        <time>2026-07-07T12:00:48.000Z</time>
      </trkpt>
      <trkpt lat="45.83548" lon="1.91843">
        <ele>769.4</ele>
        <time>2026-07-07T12:00:49.000Z</time>
      </trkpt>
      <trkpt lat="45.8355" lon="1.91838">
        <ele>769.1</ele>
        <time>2026-07-07T12:00:50.000Z</time>
      </trkpt>
      <trkpt lat="45.83551" lon="1.91834">
        <ele>770.6</ele>
        <time>2026-07-07T12:00:51.000Z</time>
      </trkpt>
      <trkpt lat="45.83553" lon="1.91829">
        <ele>771.3</ele>
        <time>2026-07-07T12:00:52.000Z</time>
      </trkpt>
      <trkpt lat="45.83556" lon="1.91824">
        <ele>771.4</ele>
        <time>2026-07-07T12:00:53.000Z</time>
      </trkpt>
      <trkpt lat="45.8356" lon="1.91816">
        <ele>772.5</ele>
        <time>2026-07-07T12:00:54.000Z</time>
      </trkpt>
      <trkpt lat="45.83562" lon="1.91808">
        <ele>772.8</ele>
        <time>2026-07-07T12:00:55.000Z</time>
      </trkpt>
      <trkpt lat="45.83565" lon="1.91803">
        <ele>775.3</ele>
        <time>2026-07-07T12:00:56.000Z</time>
      </trkpt>
      <trkpt lat="45.83568" lon="1.91799">
        <ele>775.3</ele>
        <time>2026-07-07T12:00:57.000Z</time>
      </trkpt>
      <trkpt lat="45.8357" lon="1.91795">
        <ele>776.5</ele>
        <time>2026-07-07T12:00:58.000Z</time>
      </trkpt>
      <trkpt lat="45.83573" lon="1.91791">
        <ele>776.8</ele>
        <time>2026-07-07T12:00:59.000Z</time>
      </trkpt>
      <trkpt lat="45.83575" lon="1.91787">
        <ele>777.5</ele>
        <time>2026-07-07T12:01:00.000Z</time>
      </trkpt>
      <trkpt lat="45.83579" lon="1.91781">
        <ele>776.8</ele>
        <time>2026-07-07T12:01:01.000Z</time>
      </trkpt>
      <trkpt lat="45.83582" lon="1.91776">
        <ele>778</ele>
        <time>2026-07-07T12:01:02.000Z</time>
      </trkpt>
      <trkpt lat="45.83585" lon="1.91771">
        <ele>778.9</ele>
        <time>2026-07-07T12:01:03.000Z</time>
      </trkpt>
      <trkpt lat="45.83588" lon="1.91768">
        <ele>781</ele>
        <time>2026-07-07T12:01:04.000Z</time>
      </trkpt>
      <trkpt lat="45.83591" lon="1.91764">
        <ele>782.6</ele>
        <time>2026-07-07T12:01:05.000Z</time>
      </trkpt>
      <trkpt lat="45.83594" lon="1.91759">
        <ele>783.3</ele>
        <time>2026-07-07T12:01:06.000Z</time>
      </trkpt>
      <trkpt lat="45.83596" lon="1.91755">
        <ele>782.8</ele>
        <time>2026-07-07T12:01:07.000Z</time>
      </trkpt>
      <trkpt lat="45.83598" lon="1.9175">
        <ele>783</ele>
        <time>2026-07-07T12:01:08.000Z</time>
      </trkpt>
      <trkpt lat="45.83601" lon="1.91744">
        <ele>783.1</ele>
        <time>2026-07-07T12:01:09.000Z</time>
      </trkpt>
      <trkpt lat="45.83604" lon="1.91739">
        <ele>783.9</ele>
        <time>2026-07-07T12:01:10.000Z</time>
      </trkpt>
      <trkpt lat="45.83608" lon="1.91734">
        <ele>783.8</ele>
        <time>2026-07-07T12:01:11.000Z</time>
      </trkpt>
      <trkpt lat="45.83611" lon="1.91729">
        <ele>784.1</ele>
        <time>2026-07-07T12:01:12.000Z</time>
      </trkpt>
      <trkpt lat="45.83613" lon="1.91725">
        <ele>783.9</ele>
        <time>2026-07-07T12:01:13.000Z</time>
      </trkpt>
      <trkpt lat="45.83616" lon="1.91721">
        <ele>786.3</ele>
        <time>2026-07-07T12:01:14.000Z</time>
      </trkpt>
      <trkpt lat="45.83618" lon="1.91718">
        <ele>787.1</ele>
        <time>2026-07-07T12:01:15.000Z</time>
      </trkpt>
      <trkpt lat="45.83622" lon="1.91715">
        <ele>788.9</ele>
        <time>2026-07-07T12:01:16.000Z</time>
      </trkpt>
      <trkpt lat="45.83627" lon="1.91713">
        <ele>790.4</ele>
        <time>2026-07-07T12:01:17.000Z</time>
      </trkpt>
      <trkpt lat="45.83631" lon="1.9171">
        <ele>792.9</ele>
        <time>2026-07-07T12:01:18.000Z</time>
      </trkpt>
      <trkpt lat="45.83634" lon="1.91709">
        <ele>792.9</ele>
        <time>2026-07-07T12:01:19.000Z</time>
      </trkpt>
      <trkpt lat="45.83637" lon="1.91706">
        <ele>793.9</ele>
        <time>2026-07-07T12:01:20.000Z</time>
      </trkpt>
      <trkpt lat="45.83641" lon="1.91705">
        <ele>793.6</ele>
        <time>2026-07-07T12:01:21.000Z</time>
      </trkpt>
      <trkpt lat="45.83645" lon="1.91705">
        <ele>792.6</ele>
        <time>2026-07-07T12:01:22.000Z</time>
      </trkpt>
      <trkpt lat="45.83649" lon="1.91705">
        <ele>791.8</ele>
        <time>2026-07-07T12:01:23.000Z</time>
      </trkpt>
      <trkpt lat="45.83652" lon="1.91705">
        <ele>793.1</ele>
        <time>2026-07-07T12:01:24.000Z</time>
      </trkpt>
      <trkpt lat="45.83656" lon="1.91705">
        <ele>793</ele>
        <time>2026-07-07T12:01:25.000Z</time>
      </trkpt>
      <trkpt lat="45.8366" lon="1.91703">
        <ele>791.9</ele>
        <time>2026-07-07T12:01:26.000Z</time>
      </trkpt>
      <trkpt lat="45.83664" lon="1.91702">
        <ele>792.8</ele>
        <time>2026-07-07T12:01:27.000Z</time>
      </trkpt>
      <trkpt lat="45.83668" lon="1.91699">
        <ele>793</ele>
        <time>2026-07-07T12:01:28.000Z</time>
      </trkpt>
      <trkpt lat="45.83672" lon="1.91698">
        <ele>793.5</ele>
        <time>2026-07-07T12:01:29.000Z</time>
      </trkpt>
      <trkpt lat="45.83675" lon="1.91696">
        <ele>793.9</ele>
        <time>2026-07-07T12:01:30.000Z</time>
      </trkpt>
      <trkpt lat="45.8368" lon="1.91696">
        <ele>794.5</ele>
        <time>2026-07-07T12:01:31.000Z</time>
      </trkpt>
      <trkpt lat="45.83684" lon="1.91697">
        <ele>794.3</ele>
        <time>2026-07-07T12:01:32.000Z</time>
      </trkpt>
      <trkpt lat="45.83688" lon="1.91695">
        <ele>793.8</ele>
        <time>2026-07-07T12:01:33.000Z</time>
      </trkpt>
      <trkpt lat="45.83691" lon="1.91692">
        <ele>794.6</ele>
        <time>2026-07-07T12:01:34.000Z</time>
      </trkpt>
      <trkpt lat="45.83694" lon="1.91689">
        <ele>794.1</ele>
        <time>2026-07-07T12:01:35.000Z</time>
      </trkpt>
      <trkpt lat="45.83697" lon="1.91685">
        <ele>794.5</ele>
        <time>2026-07-07T12:01:36.000Z</time>
      </trkpt>
      <trkpt lat="45.837" lon="1.9168">
        <ele>795.1</ele>
        <time>2026-07-07T12:01:37.000Z</time>
      </trkpt>
      <trkpt lat="45.83704" lon="1.91674">
        <ele>795.2</ele>
        <time>2026-07-07T12:01:38.000Z</time>
      </trkpt>
      <trkpt lat="45.83706" lon="1.91668">
        <ele>795.8</ele>
        <time>2026-07-07T12:01:39.000Z</time>
      </trkpt>
      <trkpt lat="45.83709" lon="1.91662">
        <ele>795.2</ele>
        <time>2026-07-07T12:01:40.000Z</time>
      </trkpt>
      <trkpt lat="45.83712" lon="1.91655">
        <ele>795.5</ele>
        <time>2026-07-07T12:01:41.000Z</time>
      </trkpt>
      <trkpt lat="45.83714" lon="1.91649">
        <ele>797.2</ele>
        <time>2026-07-07T12:01:42.000Z</time>
      </trkpt>
      <trkpt lat="45.83717" lon="1.91643">
        <ele>797.5</ele>
        <time>2026-07-07T12:01:43.000Z</time>
      </trkpt>
      <trkpt lat="45.8372" lon="1.91634">
        <ele>796.4</ele>
        <time>2026-07-07T12:01:44.000Z</time>
      </trkpt>
      <trkpt lat="45.83723" lon="1.91625">
        <ele>796</ele>
        <time>2026-07-07T12:01:45.000Z</time>
      </trkpt>
      <trkpt lat="45.83725" lon="1.91617">
        <ele>796.3</ele>
        <time>2026-07-07T12:01:46.000Z</time>
      </trkpt>
      <trkpt lat="45.83727" lon="1.9161">
        <ele>796.8</ele>
        <time>2026-07-07T12:01:47.000Z</time>
      </trkpt>
      <trkpt lat="45.83729" lon="1.91604">
        <ele>797.8</ele>
        <time>2026-07-07T12:01:48.000Z</time>
      </trkpt>
      <trkpt lat="45.83731" lon="1.916">
        <ele>797.1</ele>
        <time>2026-07-07T12:01:49.000Z</time>
      </trkpt>
      <trkpt lat="45.83732" lon="1.91595">
        <ele>796.6</ele>
        <time>2026-07-07T12:01:50.000Z</time>
      </trkpt>
      <trkpt lat="45.83733" lon="1.91591">
        <ele>796.4</ele>
        <time>2026-07-07T12:01:51.000Z</time>
      </trkpt>
      <trkpt lat="45.83735" lon="1.91587">
        <ele>795.8</ele>
        <time>2026-07-07T12:01:52.000Z</time>
      </trkpt>
      <trkpt lat="45.83737" lon="1.91582">
        <ele>793.4</ele>
        <time>2026-07-07T12:01:53.000Z</time>
      </trkpt>
      <trkpt lat="45.8374" lon="1.91578">
        <ele>792.3</ele>
        <time>2026-07-07T12:01:54.000Z</time>
      </trkpt>
      <trkpt lat="45.83744" lon="1.91572">
        <ele>791.9</ele>
        <time>2026-07-07T12:01:55.000Z</time>
      </trkpt>
      <trkpt lat="45.83748" lon="1.91567">
        <ele>792.8</ele>
        <time>2026-07-07T12:01:56.000Z</time>
      </trkpt>
      <trkpt lat="45.83751" lon="1.91562">
        <ele>793.6</ele>
        <time>2026-07-07T12:01:57.000Z</time>
      </trkpt>
      <trkpt lat="45.83753" lon="1.91561">
        <ele>795.8</ele>
        <time>2026-07-07T12:01:58.000Z</time>
      </trkpt>
      <trkpt lat="45.83754" lon="1.91557">
        <ele>795.1</ele>
        <time>2026-07-07T12:01:59.000Z</time>
      </trkpt>
      <trkpt lat="45.83756" lon="1.91553">
        <ele>794</ele>
        <time>2026-07-07T12:02:00.000Z</time>
      </trkpt>
      <trkpt lat="45.83757" lon="1.91551">
        <ele>792.6</ele>
        <time>2026-07-07T12:02:01.000Z</time>
      </trkpt>
      <trkpt lat="45.83759" lon="1.91549">
        <ele>791.8</ele>
        <time>2026-07-07T12:02:02.000Z</time>
      </trkpt>
      <trkpt lat="45.8376" lon="1.91546">
        <ele>791</ele>
        <time>2026-07-07T12:02:03.000Z</time>
      </trkpt>
      <trkpt lat="45.83762" lon="1.91544">
        <ele>791.7</ele>
        <time>2026-07-07T12:02:04.000Z</time>
      </trkpt>
      <trkpt lat="45.83763" lon="1.91541">
        <ele>789.1</ele>
        <time>2026-07-07T12:02:05.000Z</time>
      </trkpt>
      <trkpt lat="45.83763" lon="1.91538">
        <ele>789.2</ele>
        <time>2026-07-07T12:02:06.000Z</time>
      </trkpt>
      <trkpt lat="45.83763" lon="1.91534">
        <ele>788.8</ele>
        <time>2026-07-07T12:02:07.000Z</time>
      </trkpt>
      <trkpt lat="45.83764" lon="1.91531">
        <ele>788.3</ele>
        <time>2026-07-07T12:02:08.000Z</time>
      </trkpt>
      <trkpt lat="45.83765" lon="1.91528">
        <ele>787.2</ele>
        <time>2026-07-07T12:02:09.000Z</time>
      </trkpt>
      <trkpt lat="45.83767" lon="1.91525">
        <ele>787.2</ele>
        <time>2026-07-07T12:02:10.000Z</time>
      </trkpt>
      <trkpt lat="45.83768" lon="1.91523">
        <ele>787</ele>
        <time>2026-07-07T12:02:11.000Z</time>
      </trkpt>
      <trkpt lat="45.83769" lon="1.91521">
        <ele>786.4</ele>
        <time>2026-07-07T12:02:12.000Z</time>
      </trkpt>
      <trkpt lat="45.8377" lon="1.9152">
        <ele>786</ele>
        <time>2026-07-07T12:02:13.000Z</time>
      </trkpt>
      <trkpt lat="45.83771" lon="1.91519">
        <ele>785.8</ele>
        <time>2026-07-07T12:02:14.000Z</time>
      </trkpt>
      <trkpt lat="45.83772" lon="1.91518">
        <ele>786.4</ele>
        <time>2026-07-07T12:02:15.000Z</time>
      </trkpt>
      <trkpt lat="45.83773" lon="1.91517">
        <ele>786.2</ele>
        <time>2026-07-07T12:02:16.000Z</time>
      </trkpt>
      <trkpt lat="45.83774" lon="1.91515">
        <ele>786.3</ele>
        <time>2026-07-07T12:02:17.000Z</time>
      </trkpt>
      <trkpt lat="45.83775" lon="1.91515">
        <ele>786.1</ele>
        <time>2026-07-07T12:02:18.000Z</time>
      </trkpt>
      <trkpt lat="45.83776" lon="1.91514">
        <ele>785.7</ele>
        <time>2026-07-07T12:02:19.000Z</time>
      </trkpt>
      <trkpt lat="45.83777" lon="1.91513">
        <ele>785.5</ele>
        <time>2026-07-07T12:02:20.000Z</time>
      </trkpt>
      <trkpt lat="45.83778" lon="1.91512">
        <ele>784.9</ele>
        <time>2026-07-07T12:02:21.000Z</time>
      </trkpt>
      <trkpt lat="45.83779" lon="1.91511">
        <ele>784.5</ele>
        <time>2026-07-07T12:02:22.000Z</time>
      </trkpt>
      <trkpt lat="45.8378" lon="1.9151">
        <ele>783.7</ele>
        <time>2026-07-07T12:02:23.000Z</time>
      </trkpt>
      <trkpt lat="45.83781" lon="1.91508">
        <ele>783.5</ele>
        <time>2026-07-07T12:02:24.000Z</time>
      </trkpt>
      <trkpt lat="45.83782" lon="1.91507">
        <ele>783.4</ele>
        <time>2026-07-07T12:02:25.000Z</time>
      </trkpt>
      <trkpt lat="45.83783" lon="1.91506">
        <ele>783.4</ele>
        <time>2026-07-07T12:02:26.000Z</time>
      </trkpt>
      <trkpt lat="45.83785" lon="1.91505">
        <ele>783.3</ele>
        <time>2026-07-07T12:02:27.000Z</time>
      </trkpt>
      <trkpt lat="45.83786" lon="1.91504">
        <ele>782.9</ele>
        <time>2026-07-07T12:02:28.000Z</time>
      </trkpt>
      <trkpt lat="45.83787" lon="1.91502">
        <ele>782.6</ele>
        <time>2026-07-07T12:02:29.000Z</time>
      </trkpt>
      <trkpt lat="45.83788" lon="1.915">
        <ele>782.4</ele>
        <time>2026-07-07T12:02:30.000Z</time>
      </trkpt>
      <trkpt lat="45.83789" lon="1.91499">
        <ele>782.1</ele>
        <time>2026-07-07T12:02:31.000Z</time>
      </trkpt>
      <trkpt lat="45.8379" lon="1.91498">
        <ele>781.8</ele>
        <time>2026-07-07T12:02:32.000Z</time>
      </trkpt>
      <trkpt lat="45.83792" lon="1.91497">
        <ele>781.4</ele>
        <time>2026-07-07T12:02:33.000Z</time>
      </trkpt>
      <trkpt lat="45.83793" lon="1.91496">
        <ele>780.8</ele>
        <time>2026-07-07T12:02:34.000Z</time>
      </trkpt>
      <trkpt lat="45.83794" lon="1.91495">
        <ele>780.6</ele>
        <time>2026-07-07T12:02:35.000Z</time>
      </trkpt>
      <trkpt lat="45.83796" lon="1.91494">
        <ele>780.8</ele>
        <time>2026-07-07T12:02:36.000Z</time>
      </trkpt>
      <trkpt lat="45.83797" lon="1.91494">
        <ele>780.8</ele>
        <time>2026-07-07T12:02:37.000Z</time>
      </trkpt>
      <trkpt lat="45.83799" lon="1.91495">
        <ele>780.5</ele>
        <time>2026-07-07T12:02:38.000Z</time>
      </trkpt>
      <trkpt lat="45.838" lon="1.91495">
        <ele>780.2</ele>
        <time>2026-07-07T12:02:39.000Z</time>
      </trkpt>
      <trkpt lat="45.83801" lon="1.91495">
        <ele>780.2</ele>
        <time>2026-07-07T12:02:40.000Z</time>
      </trkpt>
      <trkpt lat="45.83803" lon="1.91495">
        <ele>780.1</ele>
        <time>2026-07-07T12:02:41.000Z</time>
      </trkpt>
      <trkpt lat="45.83804" lon="1.91495">
        <ele>779.6</ele>
        <time>2026-07-07T12:02:42.000Z</time>
      </trkpt>
      <trkpt lat="45.83806" lon="1.91496">
        <ele>779.2</ele>
        <time>2026-07-07T12:02:43.000Z</time>
      </trkpt>
      <trkpt lat="45.83807" lon="1.91497">
        <ele>778.6</ele>
        <time>2026-07-07T12:02:44.000Z</time>
      </trkpt>
      <trkpt lat="45.83808" lon="1.91498">
        <ele>778.1</ele>
        <time>2026-07-07T12:02:45.000Z</time>
      </trkpt>
      <trkpt lat="45.8381" lon="1.91499">
        <ele>778.2</ele>
        <time>2026-07-07T12:02:46.000Z</time>
      </trkpt>
      <trkpt lat="45.83812" lon="1.915">
        <ele>777.6</ele>
        <time>2026-07-07T12:02:47.000Z</time>
      </trkpt>
      <trkpt lat="45.83814" lon="1.915">
        <ele>777.5</ele>
        <time>2026-07-07T12:02:48.000Z</time>
      </trkpt>
      <trkpt lat="45.83815" lon="1.91501">
        <ele>777.2</ele>
        <time>2026-07-07T12:02:49.000Z</time>
      </trkpt>
      <trkpt lat="45.83816" lon="1.91501">
        <ele>777.6</ele>
        <time>2026-07-07T12:02:50.000Z</time>
      </trkpt>
      <trkpt lat="45.83817" lon="1.91502">
        <ele>777.2</ele>
        <time>2026-07-07T12:02:51.000Z</time>
      </trkpt>
      <trkpt lat="45.83819" lon="1.91502">
        <ele>777.3</ele>
        <time>2026-07-07T12:02:52.000Z</time>
      </trkpt>
      <trkpt lat="45.8382" lon="1.91503">
        <ele>777.5</ele>
        <time>2026-07-07T12:02:53.000Z</time>
      </trkpt>
      <trkpt lat="45.83821" lon="1.91503">
        <ele>777.2</ele>
        <time>2026-07-07T12:02:54.000Z</time>
      </trkpt>
      <trkpt lat="45.83822" lon="1.91503">
        <ele>777.3</ele>
        <time>2026-07-07T12:02:55.000Z</time>
      </trkpt>
      <trkpt lat="45.83824" lon="1.91504">
        <ele>777.1</ele>
        <time>2026-07-07T12:02:56.000Z</time>
      </trkpt>
      <trkpt lat="45.83825" lon="1.91505">
        <ele>777.2</ele>
        <time>2026-07-07T12:02:57.000Z</time>
      </trkpt>
      <trkpt lat="45.83827" lon="1.91505">
        <ele>776.8</ele>
        <time>2026-07-07T12:02:58.000Z</time>
      </trkpt>
      <trkpt lat="45.83828" lon="1.91506">
        <ele>776.8</ele>
        <time>2026-07-07T12:02:59.000Z</time>
      </trkpt>
      <trkpt lat="45.8383" lon="1.91506">
        <ele>776.8</ele>
        <time>2026-07-07T12:03:00.000Z</time>
      </trkpt>
      <trkpt lat="45.83831" lon="1.91507">
        <ele>777</ele>
        <time>2026-07-07T12:03:01.000Z</time>
      </trkpt>
      <trkpt lat="45.83833" lon="1.91507">
        <ele>776.8</ele>
        <time>2026-07-07T12:03:02.000Z</time>
      </trkpt>
      <trkpt lat="45.83834" lon="1.91508">
        <ele>776.2</ele>
        <time>2026-07-07T12:03:03.000Z</time>
      </trkpt>
      <trkpt lat="45.83836" lon="1.91508">
        <ele>776.4</ele>
        <time>2026-07-07T12:03:04.000Z</time>
      </trkpt>
      <trkpt lat="45.83837" lon="1.91508">
        <ele>776.3</ele>
        <time>2026-07-07T12:03:05.000Z</time>
      </trkpt>
      <trkpt lat="45.83839" lon="1.91509">
        <ele>776.4</ele>
        <time>2026-07-07T12:03:06.000Z</time>
      </trkpt>
      <trkpt lat="45.83841" lon="1.91509">
        <ele>777.1</ele>
        <time>2026-07-07T12:03:07.000Z</time>
      </trkpt>
      <trkpt lat="45.83842" lon="1.9151">
        <ele>777.7</ele>
        <time>2026-07-07T12:03:08.000Z</time>
      </trkpt>
      <trkpt lat="45.83844" lon="1.9151">
        <ele>776.9</ele>
        <time>2026-07-07T12:03:09.000Z</time>
      </trkpt>
      <trkpt lat="45.83845" lon="1.91511">
        <ele>777.1</ele>
        <time>2026-07-07T12:03:10.000Z</time>
      </trkpt>
      <trkpt lat="45.83847" lon="1.91512">
        <ele>777.3</ele>
        <time>2026-07-07T12:03:11.000Z</time>
      </trkpt>
      <trkpt lat="45.83848" lon="1.91513">
        <ele>777.2</ele>
        <time>2026-07-07T12:03:12.000Z</time>
      </trkpt>
      <trkpt lat="45.83849" lon="1.91514">
        <ele>776.7</ele>
        <time>2026-07-07T12:03:13.000Z</time>
      </trkpt>
      <trkpt lat="45.83851" lon="1.91515">
        <ele>777.3</ele>
        <time>2026-07-07T12:03:14.000Z</time>
      </trkpt>
      <trkpt lat="45.83852" lon="1.91516">
        <ele>776.3</ele>
        <time>2026-07-07T12:03:15.000Z</time>
      </trkpt>
      <trkpt lat="45.83855" lon="1.91516">
        <ele>775.3</ele>
        <time>2026-07-07T12:03:16.000Z</time>
      </trkpt>
      <trkpt lat="45.83857" lon="1.91516">
        <ele>775.6</ele>
        <time>2026-07-07T12:03:17.000Z</time>
      </trkpt>
      <trkpt lat="45.83859" lon="1.91517">
        <ele>775</ele>
        <time>2026-07-07T12:03:18.000Z</time>
      </trkpt>
      <trkpt lat="45.83861" lon="1.91517">
        <ele>774.8</ele>
        <time>2026-07-07T12:03:19.000Z</time>
      </trkpt>
      <trkpt lat="45.83863" lon="1.91518">
        <ele>775</ele>
        <time>2026-07-07T12:03:20.000Z</time>
      </trkpt>
      <trkpt lat="45.83864" lon="1.91518">
        <ele>774.8</ele>
        <time>2026-07-07T12:03:21.000Z</time>
      </trkpt>
      <trkpt lat="45.83866" lon="1.91518">
        <ele>775.1</ele>
        <time>2026-07-07T12:03:22.000Z</time>
      </trkpt>
      <trkpt lat="45.83868" lon="1.91518">
        <ele>775</ele>
        <time>2026-07-07T12:03:23.000Z</time>
      </trkpt>
      <trkpt lat="45.8387" lon="1.91519">
        <ele>775.1</ele>
        <time>2026-07-07T12:03:24.000Z</time>
      </trkpt>
      <trkpt lat="45.83873" lon="1.91519">
        <ele>775.1</ele>
        <time>2026-07-07T12:03:25.000Z</time>
      </trkpt>
      <trkpt lat="45.83875" lon="1.9152">
        <ele>776.4</ele>
        <time>2026-07-07T12:03:26.000Z</time>
      </trkpt>
      <trkpt lat="45.83876" lon="1.9152">
        <ele>778</ele>
        <time>2026-07-07T12:03:27.000Z</time>
      </trkpt>
      <trkpt lat="45.83878" lon="1.9152">
        <ele>778.4</ele>
        <time>2026-07-07T12:03:28.000Z</time>
      </trkpt>
      <trkpt lat="45.8388" lon="1.9152">
        <ele>779.2</ele>
        <time>2026-07-07T12:03:29.000Z</time>
      </trkpt>
      <trkpt lat="45.83881" lon="1.9152">
        <ele>777.9</ele>
        <time>2026-07-07T12:03:30.000Z</time>
      </trkpt>
      <trkpt lat="45.83882" lon="1.9152">
        <ele>778.4</ele>
        <time>2026-07-07T12:03:31.000Z</time>
      </trkpt>
      <trkpt lat="45.83884" lon="1.91521">
        <ele>779.8</ele>
        <time>2026-07-07T12:03:32.000Z</time>
      </trkpt>
      <trkpt lat="45.83885" lon="1.91522">
        <ele>779.8</ele>
        <time>2026-07-07T12:03:33.000Z</time>
      </trkpt>
      <trkpt lat="45.83886" lon="1.91522">
        <ele>779.3</ele>
        <time>2026-07-07T12:03:34.000Z</time>
      </trkpt>
      <trkpt lat="45.83887" lon="1.91522">
        <ele>778.3</ele>
        <time>2026-07-07T12:03:35.000Z</time>
      </trkpt>
      <trkpt lat="45.83889" lon="1.91521">
        <ele>778.4</ele>
        <time>2026-07-07T12:03:36.000Z</time>
      </trkpt>
      <trkpt lat="45.8389" lon="1.91522">
        <ele>778.3</ele>
        <time>2026-07-07T12:03:37.000Z</time>
      </trkpt>
      <trkpt lat="45.83891" lon="1.91522">
        <ele>778.1</ele>
        <time>2026-07-07T12:03:38.000Z</time>
      </trkpt>
      <trkpt lat="45.83892" lon="1.91522">
        <ele>778.5</ele>
        <time>2026-07-07T12:03:39.000Z</time>
      </trkpt>
      <trkpt lat="45.83893" lon="1.91523">
        <ele>778.1</ele>
        <time>2026-07-07T12:03:40.000Z</time>
      </trkpt>
      <trkpt lat="45.83895" lon="1.91523">
        <ele>778.9</ele>
        <time>2026-07-07T12:03:41.000Z</time>
      </trkpt>
      <trkpt lat="45.83896" lon="1.91523">
        <ele>778.6</ele>
        <time>2026-07-07T12:03:42.000Z</time>
      </trkpt>
      <trkpt lat="45.83896" lon="1.91524">
        <ele>778.6</ele>
        <time>2026-07-07T12:03:43.000Z</time>
      </trkpt>
      <trkpt lat="45.83897" lon="1.91524">
        <ele>778.6</ele>
        <time>2026-07-07T12:03:44.000Z</time>
      </trkpt>
      <trkpt lat="45.83898" lon="1.91524">
        <ele>777.3</ele>
        <time>2026-07-07T12:03:45.000Z</time>
      </trkpt>
      <trkpt lat="45.83899" lon="1.91525">
        <ele>777.2</ele>
        <time>2026-07-07T12:03:46.000Z</time>
      </trkpt>
      <trkpt lat="45.83901" lon="1.91525">
        <ele>778.7</ele>
        <time>2026-07-07T12:03:47.000Z</time>
      </trkpt>
      <trkpt lat="45.83902" lon="1.91525">
        <ele>777.9</ele>
        <time>2026-07-07T12:03:48.000Z</time>
      </trkpt>
      <trkpt lat="45.83903" lon="1.91524">
        <ele>778.2</ele>
        <time>2026-07-07T12:03:49.000Z</time>
      </trkpt>
      <trkpt lat="45.83904" lon="1.91524">
        <ele>778.9</ele>
        <time>2026-07-07T12:03:50.000Z</time>
      </trkpt>
      <trkpt lat="45.83906" lon="1.91524">
        <ele>778.7</ele>
        <time>2026-07-07T12:03:51.000Z</time>
      </trkpt>
      <trkpt lat="45.83908" lon="1.91524">
        <ele>778.9</ele>
        <time>2026-07-07T12:03:52.000Z</time>
      </trkpt>
      <trkpt lat="45.83909" lon="1.91523">
        <ele>778.5</ele>
        <time>2026-07-07T12:03:53.000Z</time>
      </trkpt>
      <trkpt lat="45.8391" lon="1.91523">
        <ele>779</ele>
        <time>2026-07-07T12:03:54.000Z</time>
      </trkpt>
      <trkpt lat="45.83912" lon="1.91524">
        <ele>777.9</ele>
        <time>2026-07-07T12:03:55.000Z</time>
      </trkpt>
      <trkpt lat="45.83914" lon="1.91523">
        <ele>777.2</ele>
        <time>2026-07-07T12:03:56.000Z</time>
      </trkpt>
      <trkpt lat="45.83916" lon="1.91523">
        <ele>776.3</ele>
        <time>2026-07-07T12:03:57.000Z</time>
      </trkpt>
      <trkpt lat="45.83917" lon="1.91523">
        <ele>775.9</ele>
        <time>2026-07-07T12:03:58.000Z</time>
      </trkpt>
      <trkpt lat="45.83919" lon="1.91523">
        <ele>775.6</ele>
        <time>2026-07-07T12:03:59.000Z</time>
      </trkpt>
      <trkpt lat="45.83921" lon="1.91524">
        <ele>775.7</ele>
        <time>2026-07-07T12:04:00.000Z</time>
      </trkpt>
      <trkpt lat="45.83922" lon="1.91523">
        <ele>774.4</ele>
        <time>2026-07-07T12:04:01.000Z</time>
      </trkpt>
      <trkpt lat="45.83924" lon="1.91523">
        <ele>773.8</ele>
        <time>2026-07-07T12:04:02.000Z</time>
      </trkpt>
      <trkpt lat="45.83925" lon="1.91524">
        <ele>774</ele>
        <time>2026-07-07T12:04:03.000Z</time>
      </trkpt>
      <trkpt lat="45.83927" lon="1.91524">
        <ele>774.1</ele>
        <time>2026-07-07T12:04:04.000Z</time>
      </trkpt>
      <trkpt lat="45.83929" lon="1.91524">
        <ele>774.3</ele>
        <time>2026-07-07T12:04:05.000Z</time>
      </trkpt>
      <trkpt lat="45.83932" lon="1.91523">
        <ele>774.4</ele>
        <time>2026-07-07T12:04:06.000Z</time>
      </trkpt>
      <trkpt lat="45.83934" lon="1.91522">
        <ele>773.8</ele>
        <time>2026-07-07T12:04:07.000Z</time>
      </trkpt>
      <trkpt lat="45.83936" lon="1.9152">
        <ele>773.1</ele>
        <time>2026-07-07T12:04:08.000Z</time>
      </trkpt>
      <trkpt lat="45.83939" lon="1.91519">
        <ele>773.1</ele>
        <time>2026-07-07T12:04:09.000Z</time>
      </trkpt>
      <trkpt lat="45.8394" lon="1.91518">
        <ele>773.7</ele>
        <time>2026-07-07T12:04:10.000Z</time>
      </trkpt>
      <trkpt lat="45.8394" lon="1.91513">
        <ele>773.9</ele>
        <time>2026-07-07T12:04:11.000Z</time>
      </trkpt>
      <trkpt lat="45.83941" lon="1.91509">
        <ele>774.3</ele>
        <time>2026-07-07T12:04:12.000Z</time>
      </trkpt>
      <trkpt lat="45.83942" lon="1.91505">
        <ele>774.5</ele>
        <time>2026-07-07T12:04:13.000Z</time>
      </trkpt>
      <trkpt lat="45.83943" lon="1.91502">
        <ele>774.8</ele>
        <time>2026-07-07T12:04:14.000Z</time>
      </trkpt>
      <trkpt lat="45.83944" lon="1.91499">
        <ele>776</ele>
        <time>2026-07-07T12:04:15.000Z</time>
      </trkpt>
      <trkpt lat="45.83944" lon="1.91496">
        <ele>776.1</ele>
        <time>2026-07-07T12:04:16.000Z</time>
      </trkpt>
      <trkpt lat="45.83944" lon="1.91495">
        <ele>776.2</ele>
        <time>2026-07-07T12:04:17.000Z</time>
      </trkpt>
      <trkpt lat="45.83944" lon="1.91494">
        <ele>775.4</ele>
        <time>2026-07-07T12:04:18.000Z</time>
      </trkpt>
      <trkpt lat="45.83944" lon="1.91492">
        <ele>776.2</ele>
        <time>2026-07-07T12:04:19.000Z</time>
      </trkpt>
      <trkpt lat="45.83944" lon="1.9149">
        <ele>776.4</ele>
        <time>2026-07-07T12:04:20.000Z</time>
      </trkpt>
      <trkpt lat="45.83945" lon="1.91489">
        <ele>776.3</ele>
        <time>2026-07-07T12:04:21.000Z</time>
      </trkpt>
      <trkpt lat="45.83945" lon="1.91487">
        <ele>774.7</ele>
        <time>2026-07-07T12:04:22.000Z</time>
      </trkpt>
      <trkpt lat="45.83946" lon="1.91486">
        <ele>774</ele>
        <time>2026-07-07T12:04:23.000Z</time>
      </trkpt>
      <trkpt lat="45.83946" lon="1.91484">
        <ele>773.2</ele>
        <time>2026-07-07T12:04:24.000Z</time>
      </trkpt>
      <trkpt lat="45.83947" lon="1.91483">
        <ele>773.2</ele>
        <time>2026-07-07T12:04:25.000Z</time>
      </trkpt>
      <trkpt lat="45.83947" lon="1.91482">
        <ele>773.1</ele>
        <time>2026-07-07T12:04:26.000Z</time>
      </trkpt>
      <trkpt lat="45.83947" lon="1.9148">
        <ele>773.2</ele>
        <time>2026-07-07T12:04:27.000Z</time>
      </trkpt>
      <trkpt lat="45.83947" lon="1.91479">
        <ele>773.5</ele>
        <time>2026-07-07T12:04:28.000Z</time>
      </trkpt>
      <trkpt lat="45.83947" lon="1.91477">
        <ele>773.4</ele>
        <time>2026-07-07T12:04:29.000Z</time>
      </trkpt>
      <trkpt lat="45.83948" lon="1.91475">
        <ele>773.2</ele>
        <time>2026-07-07T12:04:30.000Z</time>
      </trkpt>
      <trkpt lat="45.83948" lon="1.91473">
        <ele>773.4</ele>
        <time>2026-07-07T12:04:31.000Z</time>
      </trkpt>
      <trkpt lat="45.83948" lon="1.91471">
        <ele>773.3</ele>
        <time>2026-07-07T12:04:32.000Z</time>
      </trkpt>
      <trkpt lat="45.83948" lon="1.91469">
        <ele>773.8</ele>
        <time>2026-07-07T12:04:33.000Z</time>
      </trkpt>
      <trkpt lat="45.83948" lon="1.91467">
        <ele>774.1</ele>
        <time>2026-07-07T12:04:34.000Z</time>
      </trkpt>
      <trkpt lat="45.83948" lon="1.91465">
        <ele>774.4</ele>
        <time>2026-07-07T12:04:35.000Z</time>
      </trkpt>
      <trkpt lat="45.83948" lon="1.91464">
        <ele>774.6</ele>
        <time>2026-07-07T12:04:36.000Z</time>
      </trkpt>
      <trkpt lat="45.83948" lon="1.91461">
        <ele>773.7</ele>
        <time>2026-07-07T12:04:37.000Z</time>
      </trkpt>
      <trkpt lat="45.83948" lon="1.9146">
        <ele>773.6</ele>
        <time>2026-07-07T12:04:38.000Z</time>
      </trkpt>
      <trkpt lat="45.83948" lon="1.91458">
        <ele>774.5</ele>
        <time>2026-07-07T12:04:39.000Z</time>
      </trkpt>
      <trkpt lat="45.83947" lon="1.91456">
        <ele>774.7</ele>
        <time>2026-07-07T12:04:40.000Z</time>
      </trkpt>
      <trkpt lat="45.83947" lon="1.91454">
        <ele>774.9</ele>
        <time>2026-07-07T12:04:41.000Z</time>
      </trkpt>
      <trkpt lat="45.83946" lon="1.91452">
        <ele>774.8</ele>
        <time>2026-07-07T12:04:42.000Z</time>
      </trkpt>
      <trkpt lat="45.83946" lon="1.91449">
        <ele>775</ele>
        <time>2026-07-07T12:04:43.000Z</time>
      </trkpt>
      <trkpt lat="45.83948" lon="1.91447">
        <ele>774.5</ele>
        <time>2026-07-07T12:04:44.000Z</time>
      </trkpt>
      <trkpt lat="45.83948" lon="1.91444">
        <ele>774.3</ele>
        <time>2026-07-07T12:04:45.000Z</time>
      </trkpt>
      <trkpt lat="45.83947" lon="1.91442">
        <ele>774</ele>
        <time>2026-07-07T12:04:46.000Z</time>
      </trkpt>
      <trkpt lat="45.83947" lon="1.9144">
        <ele>773.9</ele>
        <time>2026-07-07T12:04:47.000Z</time>
      </trkpt>
      <trkpt lat="45.83946" lon="1.91437">
        <ele>774.3</ele>
        <time>2026-07-07T12:04:48.000Z</time>
      </trkpt>
      <trkpt lat="45.83946" lon="1.91435">
        <ele>774.7</ele>
        <time>2026-07-07T12:04:49.000Z</time>
      </trkpt>
      <trkpt lat="45.83946" lon="1.91432">
        <ele>774.5</ele>
        <time>2026-07-07T12:04:50.000Z</time>
      </trkpt>
      <trkpt lat="45.83945" lon="1.9143">
        <ele>774.2</ele>
        <time>2026-07-07T12:04:51.000Z</time>
      </trkpt>
      <trkpt lat="45.83945" lon="1.91427">
        <ele>774.7</ele>
        <time>2026-07-07T12:04:52.000Z</time>
      </trkpt>
      <trkpt lat="45.83945" lon="1.91425">
        <ele>774.7</ele>
        <time>2026-07-07T12:04:53.000Z</time>
      </trkpt>
      <trkpt lat="45.83944" lon="1.91423">
        <ele>774.4</ele>
        <time>2026-07-07T12:04:54.000Z</time>
      </trkpt>
      <trkpt lat="45.83944" lon="1.91421">
        <ele>774.3</ele>
        <time>2026-07-07T12:04:55.000Z</time>
      </trkpt>
      <trkpt lat="45.83944" lon="1.91419">
        <ele>775</ele>
        <time>2026-07-07T12:04:56.000Z</time>
      </trkpt>
      <trkpt lat="45.83943" lon="1.91417">
        <ele>775.8</ele>
        <time>2026-07-07T12:04:57.000Z</time>
      </trkpt>
      <trkpt lat="45.83944" lon="1.91415">
        <ele>776</ele>
        <time>2026-07-07T12:04:58.000Z</time>
      </trkpt>
      <trkpt lat="45.83943" lon="1.91413">
        <ele>776.2</ele>
        <time>2026-07-07T12:04:59.000Z</time>
      </trkpt>
      <trkpt lat="45.83943" lon="1.91412">
        <ele>775.6</ele>
        <time>2026-07-07T12:05:00.000Z</time>
      </trkpt>
      <trkpt lat="45.83943" lon="1.91409">
        <ele>774.6</ele>
        <time>2026-07-07T12:05:01.000Z</time>
      </trkpt>
      <trkpt lat="45.83942" lon="1.91406">
        <ele>774.8</ele>
        <time>2026-07-07T12:05:02.000Z</time>
      </trkpt>
      <trkpt lat="45.83942" lon="1.91404">
        <ele>774.3</ele>
        <time>2026-07-07T12:05:03.000Z</time>
      </trkpt>
      <trkpt lat="45.83942" lon="1.91401">
        <ele>773.7</ele>
        <time>2026-07-07T12:05:04.000Z</time>
      </trkpt>
      <trkpt lat="45.83941" lon="1.91399">
        <ele>773.4</ele>
        <time>2026-07-07T12:05:05.000Z</time>
      </trkpt>
      <trkpt lat="45.83941" lon="1.91396">
        <ele>773.4</ele>
        <time>2026-07-07T12:05:06.000Z</time>
      </trkpt>
      <trkpt lat="45.83941" lon="1.91394">
        <ele>773.4</ele>
        <time>2026-07-07T12:05:07.000Z</time>
      </trkpt>
      <trkpt lat="45.8394" lon="1.91391">
        <ele>773.5</ele>
        <time>2026-07-07T12:05:08.000Z</time>
      </trkpt>
      <trkpt lat="45.8394" lon="1.91388">
        <ele>775.4</ele>
        <time>2026-07-07T12:05:09.000Z</time>
      </trkpt>
      <trkpt lat="45.8394" lon="1.91384">
        <ele>775.3</ele>
        <time>2026-07-07T12:05:10.000Z</time>
      </trkpt>
      <trkpt lat="45.8394" lon="1.91381">
        <ele>775</ele>
        <time>2026-07-07T12:05:11.000Z</time>
      </trkpt>
      <trkpt lat="45.8394" lon="1.91379">
        <ele>774.9</ele>
        <time>2026-07-07T12:05:12.000Z</time>
      </trkpt>
      <trkpt lat="45.8394" lon="1.91376">
        <ele>774.4</ele>
        <time>2026-07-07T12:05:13.000Z</time>
      </trkpt>
      <trkpt lat="45.83941" lon="1.91374">
        <ele>773.7</ele>
        <time>2026-07-07T12:05:14.000Z</time>
      </trkpt>
      <trkpt lat="45.83941" lon="1.91372">
        <ele>772.9</ele>
        <time>2026-07-07T12:05:15.000Z</time>
      </trkpt>
      <trkpt lat="45.83942" lon="1.9137">
        <ele>772.4</ele>
        <time>2026-07-07T12:05:16.000Z</time>
      </trkpt>
      <trkpt lat="45.83942" lon="1.91368">
        <ele>771.9</ele>
        <time>2026-07-07T12:05:17.000Z</time>
      </trkpt>
      <trkpt lat="45.83943" lon="1.91366">
        <ele>771.4</ele>
        <time>2026-07-07T12:05:18.000Z</time>
      </trkpt>
      <trkpt lat="45.83943" lon="1.91364">
        <ele>770.9</ele>
        <time>2026-07-07T12:05:19.000Z</time>
      </trkpt>
      <trkpt lat="45.83943" lon="1.91362">
        <ele>770.2</ele>
        <time>2026-07-07T12:05:20.000Z</time>
      </trkpt>
      <trkpt lat="45.83943" lon="1.9136">
        <ele>769.9</ele>
        <time>2026-07-07T12:05:21.000Z</time>
      </trkpt>
      <trkpt lat="45.83944" lon="1.91358">
        <ele>769.2</ele>
        <time>2026-07-07T12:05:22.000Z</time>
      </trkpt>
      <trkpt lat="45.83944" lon="1.91356">
        <ele>769.2</ele>
        <time>2026-07-07T12:05:23.000Z</time>
      </trkpt>
      <trkpt lat="45.83945" lon="1.91354">
        <ele>768.7</ele>
        <time>2026-07-07T12:05:24.000Z</time>
      </trkpt>
      <trkpt lat="45.83945" lon="1.91352">
        <ele>768.3</ele>
        <time>2026-07-07T12:05:25.000Z</time>
      </trkpt>
      <trkpt lat="45.83946" lon="1.91349">
        <ele>767.8</ele>
        <time>2026-07-07T12:05:26.000Z</time>
      </trkpt>
      <trkpt lat="45.83947" lon="1.91347">
        <ele>767.7</ele>
        <time>2026-07-07T12:05:27.000Z</time>
      </trkpt>
      <trkpt lat="45.83947" lon="1.91345">
        <ele>767</ele>
        <time>2026-07-07T12:05:28.000Z</time>
      </trkpt>
      <trkpt lat="45.83947" lon="1.91343">
        <ele>766.5</ele>
        <time>2026-07-07T12:05:29.000Z</time>
      </trkpt>
      <trkpt lat="45.83947" lon="1.91341">
        <ele>766.6</ele>
        <time>2026-07-07T12:05:30.000Z</time>
      </trkpt>
      <trkpt lat="45.83948" lon="1.91339">
        <ele>766.7</ele>
        <time>2026-07-07T12:05:31.000Z</time>
      </trkpt>
      <trkpt lat="45.83948" lon="1.91337">
        <ele>766.8</ele>
        <time>2026-07-07T12:05:32.000Z</time>
      </trkpt>
      <trkpt lat="45.83948" lon="1.91334">
        <ele>766.8</ele>
        <time>2026-07-07T12:05:33.000Z</time>
      </trkpt>
      <trkpt lat="45.83948" lon="1.91332">
        <ele>766.4</ele>
        <time>2026-07-07T12:05:34.000Z</time>
      </trkpt>
      <trkpt lat="45.83949" lon="1.9133">
        <ele>766.5</ele>
        <time>2026-07-07T12:05:35.000Z</time>
      </trkpt>
      <trkpt lat="45.83949" lon="1.91327">
        <ele>766.7</ele>
        <time>2026-07-07T12:05:36.000Z</time>
      </trkpt>
      <trkpt lat="45.8395" lon="1.91325">
        <ele>766.7</ele>
        <time>2026-07-07T12:05:37.000Z</time>
      </trkpt>
      <trkpt lat="45.8395" lon="1.91323">
        <ele>766.8</ele>
        <time>2026-07-07T12:05:38.000Z</time>
      </trkpt>
      <trkpt lat="45.8395" lon="1.91321">
        <ele>766.2</ele>
        <time>2026-07-07T12:05:39.000Z</time>
      </trkpt>
      <trkpt lat="45.83951" lon="1.91319">
        <ele>766</ele>
        <time>2026-07-07T12:05:40.000Z</time>
      </trkpt>
      <trkpt lat="45.83952" lon="1.91317">
        <ele>766.4</ele>
        <time>2026-07-07T12:05:41.000Z</time>
      </trkpt>
      <trkpt lat="45.83952" lon="1.91315">
        <ele>766.7</ele>
        <time>2026-07-07T12:05:42.000Z</time>
      </trkpt>
      <trkpt lat="45.83953" lon="1.91312">
        <ele>766.9</ele>
        <time>2026-07-07T12:05:43.000Z</time>
      </trkpt>
      <trkpt lat="45.83953" lon="1.9131">
        <ele>767</ele>
        <time>2026-07-07T12:05:44.000Z</time>
      </trkpt>
      <trkpt lat="45.83954" lon="1.91308">
        <ele>766.6</ele>
        <time>2026-07-07T12:05:45.000Z</time>
      </trkpt>
      <trkpt lat="45.83955" lon="1.91306">
        <ele>766.7</ele>
        <time>2026-07-07T12:05:46.000Z</time>
      </trkpt>
      <trkpt lat="45.83956" lon="1.91305">
        <ele>766.5</ele>
        <time>2026-07-07T12:05:47.000Z</time>
      </trkpt>
      <trkpt lat="45.83956" lon="1.91303">
        <ele>766.5</ele>
        <time>2026-07-07T12:05:48.000Z</time>
      </trkpt>
      <trkpt lat="45.83957" lon="1.91301">
        <ele>766.8</ele>
        <time>2026-07-07T12:05:49.000Z</time>
      </trkpt>
      <trkpt lat="45.83958" lon="1.91299">
        <ele>766.8</ele>
        <time>2026-07-07T12:05:50.000Z</time>
      </trkpt>
      <trkpt lat="45.83959" lon="1.91298">
        <ele>767.4</ele>
        <time>2026-07-07T12:05:51.000Z</time>
      </trkpt>
      <trkpt lat="45.8396" lon="1.91296">
        <ele>767.7</ele>
        <time>2026-07-07T12:05:52.000Z</time>
      </trkpt>
      <trkpt lat="45.83962" lon="1.91295">
        <ele>767.9</ele>
        <time>2026-07-07T12:05:53.000Z</time>
      </trkpt>
      <trkpt lat="45.83963" lon="1.91293">
        <ele>768.7</ele>
        <time>2026-07-07T12:05:54.000Z</time>
      </trkpt>
      <trkpt lat="45.83964" lon="1.91291">
        <ele>769.3</ele>
        <time>2026-07-07T12:05:55.000Z</time>
      </trkpt>
      <trkpt lat="45.83965" lon="1.91289">
        <ele>769.7</ele>
        <time>2026-07-07T12:05:56.000Z</time>
      </trkpt>
      <trkpt lat="45.83965" lon="1.91287">
        <ele>769.4</ele>
        <time>2026-07-07T12:05:57.000Z</time>
      </trkpt>
      <trkpt lat="45.83966" lon="1.91285">
        <ele>768.7</ele>
        <time>2026-07-07T12:05:58.000Z</time>
      </trkpt>
      <trkpt lat="45.83967" lon="1.91283">
        <ele>768.9</ele>
        <time>2026-07-07T12:05:59.000Z</time>
      </trkpt>
      <trkpt lat="45.83969" lon="1.91281">
        <ele>769.8</ele>
        <time>2026-07-07T12:06:00.000Z</time>
      </trkpt>
      <trkpt lat="45.8397" lon="1.9128">
        <ele>770.2</ele>
        <time>2026-07-07T12:06:01.000Z</time>
      </trkpt>
      <trkpt lat="45.83971" lon="1.91278">
        <ele>770.2</ele>
        <time>2026-07-07T12:06:02.000Z</time>
      </trkpt>
      <trkpt lat="45.83972" lon="1.91277">
        <ele>771</ele>
        <time>2026-07-07T12:06:03.000Z</time>
      </trkpt>
      <trkpt lat="45.83973" lon="1.91275">
        <ele>771</ele>
        <time>2026-07-07T12:06:04.000Z</time>
      </trkpt>
      <trkpt lat="45.83974" lon="1.91273">
        <ele>770.4</ele>
        <time>2026-07-07T12:06:05.000Z</time>
      </trkpt>
      <trkpt lat="45.83974" lon="1.91271">
        <ele>769.5</ele>
        <time>2026-07-07T12:06:06.000Z</time>
      </trkpt>
      <trkpt lat="45.83975" lon="1.91269">
        <ele>769.1</ele>
        <time>2026-07-07T12:06:07.000Z</time>
      </trkpt>
      <trkpt lat="45.83976" lon="1.91266">
        <ele>769.1</ele>
        <time>2026-07-07T12:06:08.000Z</time>
      </trkpt>
      <trkpt lat="45.83976" lon="1.91264">
        <ele>769.3</ele>
        <time>2026-07-07T12:06:09.000Z</time>
      </trkpt>
      <trkpt lat="45.83976" lon="1.91261">
        <ele>770</ele>
        <time>2026-07-07T12:06:10.000Z</time>
      </trkpt>
      <trkpt lat="45.83976" lon="1.91259">
        <ele>770.5</ele>
        <time>2026-07-07T12:06:11.000Z</time>
      </trkpt>
      <trkpt lat="45.83976" lon="1.91257">
        <ele>770.7</ele>
        <time>2026-07-07T12:06:12.000Z</time>
      </trkpt>
      <trkpt lat="45.83977" lon="1.91255">
        <ele>770.7</ele>
        <time>2026-07-07T12:06:13.000Z</time>
      </trkpt>
      <trkpt lat="45.83977" lon="1.91253">
        <ele>771.2</ele>
        <time>2026-07-07T12:06:14.000Z</time>
      </trkpt>
      <trkpt lat="45.83978" lon="1.91251">
        <ele>771.2</ele>
        <time>2026-07-07T12:06:15.000Z</time>
      </trkpt>
      <trkpt lat="45.83978" lon="1.91248">
        <ele>771.5</ele>
        <time>2026-07-07T12:06:16.000Z</time>
      </trkpt>
      <trkpt lat="45.83978" lon="1.91246">
        <ele>771.7</ele>
        <time>2026-07-07T12:06:17.000Z</time>
      </trkpt>
      <trkpt lat="45.83978" lon="1.91243">
        <ele>771.7</ele>
        <time>2026-07-07T12:06:18.000Z</time>
      </trkpt>
      <trkpt lat="45.83978" lon="1.91241">
        <ele>771.3</ele>
        <time>2026-07-07T12:06:19.000Z</time>
      </trkpt>
      <trkpt lat="45.83978" lon="1.91239">
        <ele>770.5</ele>
        <time>2026-07-07T12:06:20.000Z</time>
      </trkpt>
      <trkpt lat="45.83979" lon="1.91236">
        <ele>770.3</ele>
        <time>2026-07-07T12:06:21.000Z</time>
      </trkpt>
      <trkpt lat="45.83979" lon="1.91234">
        <ele>770.9</ele>
        <time>2026-07-07T12:06:22.000Z</time>
      </trkpt>
      <trkpt lat="45.83979" lon="1.91232">
        <ele>771.3</ele>
        <time>2026-07-07T12:06:23.000Z</time>
      </trkpt>
      <trkpt lat="45.83979" lon="1.9123">
        <ele>772.2</ele>
        <time>2026-07-07T12:06:24.000Z</time>
      </trkpt>
      <trkpt lat="45.8398" lon="1.91228">
        <ele>772.8</ele>
        <time>2026-07-07T12:06:25.000Z</time>
      </trkpt>
      <trkpt lat="45.8398" lon="1.91226">
        <ele>773.4</ele>
        <time>2026-07-07T12:06:26.000Z</time>
      </trkpt>
      <trkpt lat="45.8398" lon="1.91223">
        <ele>774.2</ele>
        <time>2026-07-07T12:06:27.000Z</time>
      </trkpt>
      <trkpt lat="45.83981" lon="1.91221">
        <ele>774.7</ele>
        <time>2026-07-07T12:06:28.000Z</time>
      </trkpt>
      <trkpt lat="45.83981" lon="1.91219">
        <ele>775.2</ele>
        <time>2026-07-07T12:06:29.000Z</time>
      </trkpt>
      <trkpt lat="45.83982" lon="1.91217">
        <ele>775.7</ele>
        <time>2026-07-07T12:06:30.000Z</time>
      </trkpt>
      <trkpt lat="45.83982" lon="1.91215">
        <ele>776.3</ele>
        <time>2026-07-07T12:06:31.000Z</time>
      </trkpt>
      <trkpt lat="45.83982" lon="1.91213">
        <ele>776.8</ele>
        <time>2026-07-07T12:06:32.000Z</time>
      </trkpt>
      <trkpt lat="45.83982" lon="1.91211">
        <ele>777.6</ele>
        <time>2026-07-07T12:06:33.000Z</time>
      </trkpt>
      <trkpt lat="45.83983" lon="1.91209">
        <ele>778.7</ele>
        <time>2026-07-07T12:06:34.000Z</time>
      </trkpt>
      <trkpt lat="45.83983" lon="1.91208">
        <ele>779.3</ele>
        <time>2026-07-07T12:06:35.000Z</time>
      </trkpt>
      <trkpt lat="45.83984" lon="1.91206">
        <ele>779.4</ele>
        <time>2026-07-07T12:06:36.000Z</time>
      </trkpt>
      <trkpt lat="45.83984" lon="1.91204">
        <ele>779.3</ele>
        <time>2026-07-07T12:06:37.000Z</time>
      </trkpt>
      <trkpt lat="45.83985" lon="1.91202">
        <ele>779.9</ele>
        <time>2026-07-07T12:06:38.000Z</time>
      </trkpt>
      <trkpt lat="45.83986" lon="1.91199">
        <ele>780.1</ele>
        <time>2026-07-07T12:06:39.000Z</time>
      </trkpt>
      <trkpt lat="45.83986" lon="1.91197">
        <ele>780.7</ele>
        <time>2026-07-07T12:06:40.000Z</time>
      </trkpt>
      <trkpt lat="45.83987" lon="1.91195">
        <ele>780.7</ele>
        <time>2026-07-07T12:06:41.000Z</time>
      </trkpt>
      <trkpt lat="45.83987" lon="1.91193">
        <ele>780.8</ele>
        <time>2026-07-07T12:06:42.000Z</time>
      </trkpt>
      <trkpt lat="45.83988" lon="1.91191">
        <ele>781.1</ele>
        <time>2026-07-07T12:06:43.000Z</time>
      </trkpt>
      <trkpt lat="45.83988" lon="1.91189">
        <ele>781.3</ele>
        <time>2026-07-07T12:06:44.000Z</time>
      </trkpt>
      <trkpt lat="45.83988" lon="1.91186">
        <ele>781.4</ele>
        <time>2026-07-07T12:06:45.000Z</time>
      </trkpt>
      <trkpt lat="45.83989" lon="1.91185">
        <ele>781.6</ele>
        <time>2026-07-07T12:06:46.000Z</time>
      </trkpt>
      <trkpt lat="45.83989" lon="1.91183">
        <ele>781.4</ele>
        <time>2026-07-07T12:06:47.000Z</time>
      </trkpt>
      <trkpt lat="45.8399" lon="1.91181">
        <ele>781.3</ele>
        <time>2026-07-07T12:06:48.000Z</time>
      </trkpt>
      <trkpt lat="45.83991" lon="1.9118">
        <ele>781.5</ele>
        <time>2026-07-07T12:06:49.000Z</time>
      </trkpt>
      <trkpt lat="45.83992" lon="1.91178">
        <ele>781.3</ele>
        <time>2026-07-07T12:06:50.000Z</time>
      </trkpt>
      <trkpt lat="45.83992" lon="1.91176">
        <ele>781.4</ele>
        <time>2026-07-07T12:06:51.000Z</time>
      </trkpt>
      <trkpt lat="45.83992" lon="1.91173">
        <ele>781.3</ele>
        <time>2026-07-07T12:06:52.000Z</time>
      </trkpt>
      <trkpt lat="45.83992" lon="1.91171">
        <ele>781.1</ele>
        <time>2026-07-07T12:06:53.000Z</time>
      </trkpt>
      <trkpt lat="45.83992" lon="1.91169">
        <ele>781.1</ele>
        <time>2026-07-07T12:06:54.000Z</time>
      </trkpt>
      <trkpt lat="45.83992" lon="1.91167">
        <ele>781</ele>
        <time>2026-07-07T12:06:55.000Z</time>
      </trkpt>
      <trkpt lat="45.83993" lon="1.91166">
        <ele>780.7</ele>
        <time>2026-07-07T12:06:56.000Z</time>
      </trkpt>
      <trkpt lat="45.83994" lon="1.91164">
        <ele>780.7</ele>
        <time>2026-07-07T12:06:57.000Z</time>
      </trkpt>
      <trkpt lat="45.83995" lon="1.91162">
        <ele>780.6</ele>
        <time>2026-07-07T12:06:58.000Z</time>
      </trkpt>
      <trkpt lat="45.83996" lon="1.9116">
        <ele>780.4</ele>
        <time>2026-07-07T12:06:59.000Z</time>
      </trkpt>
      <trkpt lat="45.83997" lon="1.91158">
        <ele>780.6</ele>
        <time>2026-07-07T12:07:00.000Z</time>
      </trkpt>
      <trkpt lat="45.83998" lon="1.91156">
        <ele>780.6</ele>
        <time>2026-07-07T12:07:01.000Z</time>
      </trkpt>
      <trkpt lat="45.83999" lon="1.91155">
        <ele>780.2</ele>
        <time>2026-07-07T12:07:02.000Z</time>
      </trkpt>
      <trkpt lat="45.84" lon="1.91153">
        <ele>780.1</ele>
        <time>2026-07-07T12:07:03.000Z</time>
      </trkpt>
      <trkpt lat="45.84001" lon="1.91151">
        <ele>779.7</ele>
        <time>2026-07-07T12:07:04.000Z</time>
      </trkpt>
      <trkpt lat="45.84001" lon="1.9115">
        <ele>779.5</ele>
        <time>2026-07-07T12:07:05.000Z</time>
      </trkpt>
      <trkpt lat="45.84003" lon="1.91148">
        <ele>779.1</ele>
        <time>2026-07-07T12:07:06.000Z</time>
      </trkpt>
      <trkpt lat="45.84004" lon="1.91147">
        <ele>779</ele>
        <time>2026-07-07T12:07:07.000Z</time>
      </trkpt>
      <trkpt lat="45.84005" lon="1.91146">
        <ele>778.8</ele>
        <time>2026-07-07T12:07:08.000Z</time>
      </trkpt>
      <trkpt lat="45.84006" lon="1.91145">
        <ele>778.3</ele>
        <time>2026-07-07T12:07:09.000Z</time>
      </trkpt>
      <trkpt lat="45.84007" lon="1.91145">
        <ele>777.8</ele>
        <time>2026-07-07T12:07:10.000Z</time>
      </trkpt>
      <trkpt lat="45.84008" lon="1.91144">
        <ele>777.7</ele>
        <time>2026-07-07T12:07:11.000Z</time>
      </trkpt>
      <trkpt lat="45.84009" lon="1.91143">
        <ele>777.5</ele>
        <time>2026-07-07T12:07:12.000Z</time>
      </trkpt>
      <trkpt lat="45.8401" lon="1.91142">
        <ele>777.4</ele>
        <time>2026-07-07T12:07:13.000Z</time>
      </trkpt>
      <trkpt lat="45.84011" lon="1.91142">
        <ele>777.1</ele>
        <time>2026-07-07T12:07:14.000Z</time>
      </trkpt>
      <trkpt lat="45.84012" lon="1.91142">
        <ele>777.1</ele>
        <time>2026-07-07T12:07:15.000Z</time>
      </trkpt>
      <trkpt lat="45.84013" lon="1.91141">
        <ele>777</ele>
        <time>2026-07-07T12:07:16.000Z</time>
      </trkpt>
      <trkpt lat="45.84013" lon="1.9114">
        <ele>776.8</ele>
        <time>2026-07-07T12:07:17.000Z</time>
      </trkpt>
      <trkpt lat="45.84014" lon="1.91139">
        <ele>776.4</ele>
        <time>2026-07-07T12:07:18.000Z</time>
      </trkpt>
      <trkpt lat="45.84014" lon="1.91138">
        <ele>776.6</ele>
        <time>2026-07-07T12:07:19.000Z</time>
      </trkpt>
      <trkpt lat="45.84014" lon="1.91138">
        <ele>776.5</ele>
        <time>2026-07-07T12:07:20.000Z</time>
      </trkpt>
      <trkpt lat="45.84014" lon="1.91138">
        <ele>776.5</ele>
        <time>2026-07-07T12:07:21.000Z</time>
      </trkpt>
      <trkpt lat="45.84014" lon="1.91136">
        <ele>776.3</ele>
        <time>2026-07-07T12:07:22.000Z</time>
      </trkpt>
      <trkpt lat="45.84013" lon="1.91134">
        <ele>776</ele>
        <time>2026-07-07T12:07:23.000Z</time>
      </trkpt>
      <trkpt lat="45.84011" lon="1.91133">
        <ele>775.4</ele>
        <time>2026-07-07T12:07:24.000Z</time>
      </trkpt>
      <trkpt lat="45.8401" lon="1.91131">
        <ele>775.3</ele>
        <time>2026-07-07T12:07:25.000Z</time>
      </trkpt>
      <trkpt lat="45.84008" lon="1.9113">
        <ele>775.3</ele>
        <time>2026-07-07T12:07:26.000Z</time>
      </trkpt>
      <trkpt lat="45.84007" lon="1.91129">
        <ele>774.8</ele>
        <time>2026-07-07T12:07:27.000Z</time>
      </trkpt>
      <trkpt lat="45.84005" lon="1.91129">
        <ele>774.4</ele>
        <time>2026-07-07T12:07:28.000Z</time>
      </trkpt>
      <trkpt lat="45.84004" lon="1.91128">
        <ele>774.4</ele>
        <time>2026-07-07T12:07:29.000Z</time>
      </trkpt>
      <trkpt lat="45.84003" lon="1.91127">
        <ele>774.4</ele>
        <time>2026-07-07T12:07:30.000Z</time>
      </trkpt>
      <trkpt lat="45.84002" lon="1.91126">
        <ele>774.4</ele>
        <time>2026-07-07T12:07:31.000Z</time>
      </trkpt>
      <trkpt lat="45.84" lon="1.91125">
        <ele>774.9</ele>
        <time>2026-07-07T12:07:32.000Z</time>
      </trkpt>
      <trkpt lat="45.83999" lon="1.91124">
        <ele>775</ele>
        <time>2026-07-07T12:07:33.000Z</time>
      </trkpt>
      <trkpt lat="45.83998" lon="1.91123">
        <ele>774.7</ele>
        <time>2026-07-07T12:07:34.000Z</time>
      </trkpt>
      <trkpt lat="45.83997" lon="1.91122">
        <ele>774.4</ele>
        <time>2026-07-07T12:07:35.000Z</time>
      </trkpt>
      <trkpt lat="45.83995" lon="1.91121">
        <ele>774</ele>
        <time>2026-07-07T12:07:36.000Z</time>
      </trkpt>
      <trkpt lat="45.83994" lon="1.9112">
        <ele>773.6</ele>
        <time>2026-07-07T12:07:37.000Z</time>
      </trkpt>
      <trkpt lat="45.83992" lon="1.91119">
        <ele>773.7</ele>
        <time>2026-07-07T12:07:38.000Z</time>
      </trkpt>
      <trkpt lat="45.83992" lon="1.91118">
        <ele>774</ele>
        <time>2026-07-07T12:07:39.000Z</time>
      </trkpt>
      <trkpt lat="45.83991" lon="1.91117">
        <ele>773.7</ele>
        <time>2026-07-07T12:07:40.000Z</time>
      </trkpt>
      <trkpt lat="45.83991" lon="1.91115">
        <ele>773.6</ele>
        <time>2026-07-07T12:07:41.000Z</time>
      </trkpt>
      <trkpt lat="45.8399" lon="1.91114">
        <ele>773.5</ele>
        <time>2026-07-07T12:07:42.000Z</time>
      </trkpt>
      <trkpt lat="45.8399" lon="1.91114">
        <ele>773.3</ele>
        <time>2026-07-07T12:07:43.000Z</time>
      </trkpt>
      <trkpt lat="45.83989" lon="1.91113">
        <ele>773.5</ele>
        <time>2026-07-07T12:07:44.000Z</time>
      </trkpt>
      <trkpt lat="45.83988" lon="1.91113">
        <ele>773.6</ele>
        <time>2026-07-07T12:07:45.000Z</time>
      </trkpt>
      <trkpt lat="45.83986" lon="1.91112">
        <ele>773.6</ele>
        <time>2026-07-07T12:07:46.000Z</time>
      </trkpt>
      <trkpt lat="45.83985" lon="1.91112">
        <ele>773.9</ele>
        <time>2026-07-07T12:07:47.000Z</time>
      </trkpt>
      <trkpt lat="45.83983" lon="1.9111">
        <ele>774.1</ele>
        <time>2026-07-07T12:07:48.000Z</time>
      </trkpt>
      <trkpt lat="45.83983" lon="1.91106">
        <ele>774.1</ele>
        <time>2026-07-07T12:07:49.000Z</time>
      </trkpt>
      <trkpt lat="45.83982" lon="1.91113">
        <ele>773.8</ele>
        <time>2026-07-07T12:07:50.000Z</time>
      </trkpt>
      <trkpt lat="45.8398" lon="1.91112">
        <ele>773.8</ele>
        <time>2026-07-07T12:07:51.000Z</time>
      </trkpt>
      <trkpt lat="45.83979" lon="1.91111">
        <ele>773.3</ele>
        <time>2026-07-07T12:07:52.000Z</time>
      </trkpt>
      <trkpt lat="45.83977" lon="1.9111">
        <ele>773.4</ele>
        <time>2026-07-07T12:07:53.000Z</time>
      </trkpt>
      <trkpt lat="45.83975" lon="1.91109">
        <ele>773.4</ele>
        <time>2026-07-07T12:07:54.000Z</time>
      </trkpt>
      <trkpt lat="45.83974" lon="1.91109">
        <ele>772.9</ele>
        <time>2026-07-07T12:07:55.000Z</time>
      </trkpt>
      <trkpt lat="45.83973" lon="1.91108">
        <ele>772.6</ele>
        <time>2026-07-07T12:07:56.000Z</time>
      </trkpt>
      <trkpt lat="45.83971" lon="1.91106">
        <ele>772.5</ele>
        <time>2026-07-07T12:07:57.000Z</time>
      </trkpt>
      <trkpt lat="45.8397" lon="1.91105">
        <ele>772.5</ele>
        <time>2026-07-07T12:07:58.000Z</time>
      </trkpt>
      <trkpt lat="45.83968" lon="1.91104">
        <ele>772.6</ele>
        <time>2026-07-07T12:07:59.000Z</time>
      </trkpt>
      <trkpt lat="45.83967" lon="1.91102">
        <ele>772.5</ele>
        <time>2026-07-07T12:08:00.000Z</time>
      </trkpt>
      <trkpt lat="45.83965" lon="1.91101">
        <ele>772.5</ele>
        <time>2026-07-07T12:08:01.000Z</time>
      </trkpt>
      <trkpt lat="45.83964" lon="1.911">
        <ele>773</ele>
        <time>2026-07-07T12:08:02.000Z</time>
      </trkpt>
      <trkpt lat="45.83963" lon="1.911">
        <ele>773.8</ele>
        <time>2026-07-07T12:08:03.000Z</time>
      </trkpt>
      <trkpt lat="45.83961" lon="1.91099">
        <ele>773.7</ele>
        <time>2026-07-07T12:08:04.000Z</time>
      </trkpt>
      <trkpt lat="45.8396" lon="1.91097">
        <ele>773.4</ele>
        <time>2026-07-07T12:08:05.000Z</time>
      </trkpt>
      <trkpt lat="45.83958" lon="1.91097">
        <ele>773.4</ele>
        <time>2026-07-07T12:08:06.000Z</time>
      </trkpt>
      <trkpt lat="45.83956" lon="1.91096">
        <ele>773</ele>
        <time>2026-07-07T12:08:07.000Z</time>
      </trkpt>
      <trkpt lat="45.83955" lon="1.91095">
        <ele>773.2</ele>
        <time>2026-07-07T12:08:08.000Z</time>
      </trkpt>
      <trkpt lat="45.83953" lon="1.91095">
        <ele>773</ele>
        <time>2026-07-07T12:08:09.000Z</time>
      </trkpt>
      <trkpt lat="45.83952" lon="1.91094">
        <ele>772.9</ele>
        <time>2026-07-07T12:08:10.000Z</time>
      </trkpt>
      <trkpt lat="45.83951" lon="1.91093">
        <ele>772.6</ele>
        <time>2026-07-07T12:08:11.000Z</time>
      </trkpt>
      <trkpt lat="45.83949" lon="1.91092">
        <ele>772.5</ele>
        <time>2026-07-07T12:08:12.000Z</time>
      </trkpt>
      <trkpt lat="45.83947" lon="1.91091">
        <ele>772.7</ele>
        <time>2026-07-07T12:08:13.000Z</time>
      </trkpt>
      <trkpt lat="45.83946" lon="1.91091">
        <ele>772.5</ele>
        <time>2026-07-07T12:08:14.000Z</time>
      </trkpt>
      <trkpt lat="45.83944" lon="1.9109">
        <ele>772.5</ele>
        <time>2026-07-07T12:08:15.000Z</time>
      </trkpt>
      <trkpt lat="45.83943" lon="1.91089">
        <ele>771.7</ele>
        <time>2026-07-07T12:08:16.000Z</time>
      </trkpt>
      <trkpt lat="45.83941" lon="1.91089">
        <ele>771.7</ele>
        <time>2026-07-07T12:08:17.000Z</time>
      </trkpt>
      <trkpt lat="45.8394" lon="1.91088">
        <ele>771.2</ele>
        <time>2026-07-07T12:08:18.000Z</time>
      </trkpt>
      <trkpt lat="45.83939" lon="1.91088">
        <ele>770.5</ele>
        <time>2026-07-07T12:08:19.000Z</time>
      </trkpt>
      <trkpt lat="45.83938" lon="1.91087">
        <ele>770.3</ele>
        <time>2026-07-07T12:08:20.000Z</time>
      </trkpt>
      <trkpt lat="45.83937" lon="1.91086">
        <ele>770.6</ele>
        <time>2026-07-07T12:08:21.000Z</time>
      </trkpt>
      <trkpt lat="45.83936" lon="1.91086">
        <ele>769.5</ele>
        <time>2026-07-07T12:08:22.000Z</time>
      </trkpt>
      <trkpt lat="45.83934" lon="1.91086">
        <ele>769.5</ele>
        <time>2026-07-07T12:08:23.000Z</time>
      </trkpt>
      <trkpt lat="45.83933" lon="1.91084">
        <ele>769.4</ele>
        <time>2026-07-07T12:08:24.000Z</time>
      </trkpt>
      <trkpt lat="45.83931" lon="1.91083">
        <ele>769.2</ele>
        <time>2026-07-07T12:08:25.000Z</time>
      </trkpt>
      <trkpt lat="45.83929" lon="1.91082">
        <ele>769.2</ele>
        <time>2026-07-07T12:08:26.000Z</time>
      </trkpt>
      <trkpt lat="45.83928" lon="1.9108">
        <ele>769.1</ele>
        <time>2026-07-07T12:08:27.000Z</time>
      </trkpt>
      <trkpt lat="45.83927" lon="1.91079">
        <ele>769.4</ele>
        <time>2026-07-07T12:08:28.000Z</time>
      </trkpt>
      <trkpt lat="45.83925" lon="1.91077">
        <ele>769.1</ele>
        <time>2026-07-07T12:08:29.000Z</time>
      </trkpt>
      <trkpt lat="45.83924" lon="1.91076">
        <ele>768.5</ele>
        <time>2026-07-07T12:08:30.000Z</time>
      </trkpt>
      <trkpt lat="45.83922" lon="1.91075">
        <ele>768.6</ele>
        <time>2026-07-07T12:08:31.000Z</time>
      </trkpt>
      <trkpt lat="45.8392" lon="1.91074">
        <ele>768.4</ele>
        <time>2026-07-07T12:08:32.000Z</time>
      </trkpt>
      <trkpt lat="45.83918" lon="1.91074">
        <ele>767.9</ele>
        <time>2026-07-07T12:08:33.000Z</time>
      </trkpt>
      <trkpt lat="45.83917" lon="1.91073">
        <ele>768</ele>
        <time>2026-07-07T12:08:34.000Z</time>
      </trkpt>
      <trkpt lat="45.83915" lon="1.91073">
        <ele>767.8</ele>
        <time>2026-07-07T12:08:35.000Z</time>
      </trkpt>
      <trkpt lat="45.83913" lon="1.91073">
        <ele>767.2</ele>
        <time>2026-07-07T12:08:36.000Z</time>
      </trkpt>
      <trkpt lat="45.83912" lon="1.91072">
        <ele>767.1</ele>
        <time>2026-07-07T12:08:37.000Z</time>
      </trkpt>
      <trkpt lat="45.8391" lon="1.91072">
        <ele>767.3</ele>
        <time>2026-07-07T12:08:38.000Z</time>
      </trkpt>
      <trkpt lat="45.83909" lon="1.91072">
        <ele>767.2</ele>
        <time>2026-07-07T12:08:39.000Z</time>
      </trkpt>
      <trkpt lat="45.83907" lon="1.91072">
        <ele>766.3</ele>
        <time>2026-07-07T12:08:40.000Z</time>
      </trkpt>
      <trkpt lat="45.83906" lon="1.91072">
        <ele>766.1</ele>
        <time>2026-07-07T12:08:41.000Z</time>
      </trkpt>
      <trkpt lat="45.83904" lon="1.91072">
        <ele>765.9</ele>
        <time>2026-07-07T12:08:42.000Z</time>
      </trkpt>
      <trkpt lat="45.83902" lon="1.91073">
        <ele>765.6</ele>
        <time>2026-07-07T12:08:43.000Z</time>
      </trkpt>
      <trkpt lat="45.83901" lon="1.91073">
        <ele>765.4</ele>
        <time>2026-07-07T12:08:44.000Z</time>
      </trkpt>
      <trkpt lat="45.83899" lon="1.91073">
        <ele>765.3</ele>
        <time>2026-07-07T12:08:45.000Z</time>
      </trkpt>
      <trkpt lat="45.83897" lon="1.91073">
        <ele>765.3</ele>
        <time>2026-07-07T12:08:46.000Z</time>
      </trkpt>
      <trkpt lat="45.83896" lon="1.91074">
        <ele>764.6</ele>
        <time>2026-07-07T12:08:47.000Z</time>
      </trkpt>
      <trkpt lat="45.83894" lon="1.91074">
        <ele>764.8</ele>
        <time>2026-07-07T12:08:48.000Z</time>
      </trkpt>
      <trkpt lat="45.83892" lon="1.91074">
        <ele>764.7</ele>
        <time>2026-07-07T12:08:49.000Z</time>
      </trkpt>
      <trkpt lat="45.83891" lon="1.91075">
        <ele>764.6</ele>
        <time>2026-07-07T12:08:50.000Z</time>
      </trkpt>
      <trkpt lat="45.83889" lon="1.91075">
        <ele>764.7</ele>
        <time>2026-07-07T12:08:51.000Z</time>
      </trkpt>
      <trkpt lat="45.83887" lon="1.91076">
        <ele>764.7</ele>
        <time>2026-07-07T12:08:52.000Z</time>
      </trkpt>
      <trkpt lat="45.83886" lon="1.91077">
        <ele>764.4</ele>
        <time>2026-07-07T12:08:53.000Z</time>
      </trkpt>
      <trkpt lat="45.83884" lon="1.91078">
        <ele>763.6</ele>
        <time>2026-07-07T12:08:54.000Z</time>
      </trkpt>
      <trkpt lat="45.83882" lon="1.91078">
        <ele>762.9</ele>
        <time>2026-07-07T12:08:55.000Z</time>
      </trkpt>
      <trkpt lat="45.83881" lon="1.91079">
        <ele>763</ele>
        <time>2026-07-07T12:08:56.000Z</time>
      </trkpt>
      <trkpt lat="45.83879" lon="1.91079">
        <ele>762.6</ele>
        <time>2026-07-07T12:08:57.000Z</time>
      </trkpt>
      <trkpt lat="45.83877" lon="1.9108">
        <ele>763</ele>
        <time>2026-07-07T12:08:58.000Z</time>
      </trkpt>
      <trkpt lat="45.83875" lon="1.9108">
        <ele>762.7</ele>
        <time>2026-07-07T12:08:59.000Z</time>
      </trkpt>
      <trkpt lat="45.83873" lon="1.91081">
        <ele>762.7</ele>
        <time>2026-07-07T12:09:00.000Z</time>
      </trkpt>
      <trkpt lat="45.83871" lon="1.91081">
        <ele>762.5</ele>
        <time>2026-07-07T12:09:01.000Z</time>
      </trkpt>
      <trkpt lat="45.8387" lon="1.91082">
        <ele>762.8</ele>
        <time>2026-07-07T12:09:02.000Z</time>
      </trkpt>
      <trkpt lat="45.83868" lon="1.91082">
        <ele>762.3</ele>
        <time>2026-07-07T12:09:03.000Z</time>
      </trkpt>
      <trkpt lat="45.83866" lon="1.91083">
        <ele>761.9</ele>
        <time>2026-07-07T12:09:04.000Z</time>
      </trkpt>
      <trkpt lat="45.83865" lon="1.91083">
        <ele>762.1</ele>
        <time>2026-07-07T12:09:05.000Z</time>
      </trkpt>
      <trkpt lat="45.83863" lon="1.91083">
        <ele>762.4</ele>
        <time>2026-07-07T12:09:06.000Z</time>
      </trkpt>
      <trkpt lat="45.83861" lon="1.91083">
        <ele>762.8</ele>
        <time>2026-07-07T12:09:07.000Z</time>
      </trkpt>
      <trkpt lat="45.83859" lon="1.91083">
        <ele>762.7</ele>
        <time>2026-07-07T12:09:08.000Z</time>
      </trkpt>
      <trkpt lat="45.83857" lon="1.91083">
        <ele>762.7</ele>
        <time>2026-07-07T12:09:09.000Z</time>
      </trkpt>
      <trkpt lat="45.83855" lon="1.91083">
        <ele>762.7</ele>
        <time>2026-07-07T12:09:10.000Z</time>
      </trkpt>
      <trkpt lat="45.83853" lon="1.91083">
        <ele>762.5</ele>
        <time>2026-07-07T12:09:11.000Z</time>
      </trkpt>
      <trkpt lat="45.83851" lon="1.91082">
        <ele>762.3</ele>
        <time>2026-07-07T12:09:12.000Z</time>
      </trkpt>
      <trkpt lat="45.83849" lon="1.91082">
        <ele>762.3</ele>
        <time>2026-07-07T12:09:13.000Z</time>
      </trkpt>
      <trkpt lat="45.83847" lon="1.91081">
        <ele>762.1</ele>
        <time>2026-07-07T12:09:14.000Z</time>
      </trkpt>
      <trkpt lat="45.83845" lon="1.9108">
        <ele>762.2</ele>
        <time>2026-07-07T12:09:15.000Z</time>
      </trkpt>
      <trkpt lat="45.83843" lon="1.9108">
        <ele>762</ele>
        <time>2026-07-07T12:09:16.000Z</time>
      </trkpt>
      <trkpt lat="45.83841" lon="1.91079">
        <ele>761.9</ele>
        <time>2026-07-07T12:09:17.000Z</time>
      </trkpt>
      <trkpt lat="45.83839" lon="1.91078">
        <ele>761.9</ele>
        <time>2026-07-07T12:09:18.000Z</time>
      </trkpt>
      <trkpt lat="45.83837" lon="1.91077">
        <ele>761.7</ele>
        <time>2026-07-07T12:09:19.000Z</time>
      </trkpt>
      <trkpt lat="45.83836" lon="1.91075">
        <ele>761.4</ele>
        <time>2026-07-07T12:09:20.000Z</time>
      </trkpt>
      <trkpt lat="45.83834" lon="1.91074">
        <ele>761.4</ele>
        <time>2026-07-07T12:09:21.000Z</time>
      </trkpt>
      <trkpt lat="45.83832" lon="1.91073">
        <ele>761.2</ele>
        <time>2026-07-07T12:09:22.000Z</time>
      </trkpt>
      <trkpt lat="45.8383" lon="1.91071">
        <ele>761.2</ele>
        <time>2026-07-07T12:09:23.000Z</time>
      </trkpt>
      <trkpt lat="45.83828" lon="1.91069">
        <ele>761.4</ele>
        <time>2026-07-07T12:09:24.000Z</time>
      </trkpt>
      <trkpt lat="45.83825" lon="1.91068">
        <ele>761.4</ele>
        <time>2026-07-07T12:09:25.000Z</time>
      </trkpt>
      <trkpt lat="45.83823" lon="1.91066">
        <ele>761.3</ele>
        <time>2026-07-07T12:09:26.000Z</time>
      </trkpt>
      <trkpt lat="45.83821" lon="1.91065">
        <ele>761.4</ele>
        <time>2026-07-07T12:09:27.000Z</time>
      </trkpt>
      <trkpt lat="45.83819" lon="1.91064">
        <ele>761.4</ele>
        <time>2026-07-07T12:09:28.000Z</time>
      </trkpt>
      <trkpt lat="45.83816" lon="1.91062">
        <ele>761.3</ele>
        <time>2026-07-07T12:09:29.000Z</time>
      </trkpt>
      <trkpt lat="45.83814" lon="1.91061">
        <ele>761.3</ele>
        <time>2026-07-07T12:09:30.000Z</time>
      </trkpt>
      <trkpt lat="45.83811" lon="1.9106">
        <ele>761.1</ele>
        <time>2026-07-07T12:09:31.000Z</time>
      </trkpt>
      <trkpt lat="45.83808" lon="1.91058">
        <ele>761</ele>
        <time>2026-07-07T12:09:32.000Z</time>
      </trkpt>
      <trkpt lat="45.83804" lon="1.91057">
        <ele>761.2</ele>
        <time>2026-07-07T12:09:33.000Z</time>
      </trkpt>
      <trkpt lat="45.83801" lon="1.91056">
        <ele>761</ele>
        <time>2026-07-07T12:09:34.000Z</time>
      </trkpt>
      <trkpt lat="45.83798" lon="1.91055">
        <ele>761.1</ele>
        <time>2026-07-07T12:09:35.000Z</time>
      </trkpt>
      <trkpt lat="45.83794" lon="1.91054">
        <ele>761.2</ele>
        <time>2026-07-07T12:09:36.000Z</time>
      </trkpt>
      <trkpt lat="45.83791" lon="1.91053">
        <ele>761.4</ele>
        <time>2026-07-07T12:09:37.000Z</time>
      </trkpt>
      <trkpt lat="45.83787" lon="1.91053">
        <ele>762.2</ele>
        <time>2026-07-07T12:09:38.000Z</time>
      </trkpt>
      <trkpt lat="45.83784" lon="1.91051">
        <ele>762.9</ele>
        <time>2026-07-07T12:09:39.000Z</time>
      </trkpt>
      <trkpt lat="45.8378" lon="1.9105">
        <ele>763.2</ele>
        <time>2026-07-07T12:09:40.000Z</time>
      </trkpt>
      <trkpt lat="45.83777" lon="1.91049">
        <ele>763.7</ele>
        <time>2026-07-07T12:09:41.000Z</time>
      </trkpt>
      <trkpt lat="45.83773" lon="1.91047">
        <ele>763.1</ele>
        <time>2026-07-07T12:09:42.000Z</time>
      </trkpt>
      <trkpt lat="45.8377" lon="1.91045">
        <ele>763.8</ele>
        <time>2026-07-07T12:09:43.000Z</time>
      </trkpt>
      <trkpt lat="45.83767" lon="1.91044">
        <ele>764.8</ele>
        <time>2026-07-07T12:09:44.000Z</time>
      </trkpt>
      <trkpt lat="45.83763" lon="1.91043">
        <ele>765.8</ele>
        <time>2026-07-07T12:09:45.000Z</time>
      </trkpt>
      <trkpt lat="45.83759" lon="1.91043">
        <ele>766.3</ele>
        <time>2026-07-07T12:09:46.000Z</time>
      </trkpt>
      <trkpt lat="45.83755" lon="1.91042">
        <ele>766.7</ele>
        <time>2026-07-07T12:09:47.000Z</time>
      </trkpt>
      <trkpt lat="45.83752" lon="1.91041">
        <ele>766.8</ele>
        <time>2026-07-07T12:09:48.000Z</time>
      </trkpt>
      <trkpt lat="45.83748" lon="1.9104">
        <ele>767</ele>
        <time>2026-07-07T12:09:49.000Z</time>
      </trkpt>
      <trkpt lat="45.83745" lon="1.9104">
        <ele>767</ele>
        <time>2026-07-07T12:09:50.000Z</time>
      </trkpt>
      <trkpt lat="45.83742" lon="1.9104">
        <ele>767.6</ele>
        <time>2026-07-07T12:09:51.000Z</time>
      </trkpt>
      <trkpt lat="45.83738" lon="1.91041">
        <ele>769.2</ele>
        <time>2026-07-07T12:09:52.000Z</time>
      </trkpt>
      <trkpt lat="45.83735" lon="1.91043">
        <ele>770.1</ele>
        <time>2026-07-07T12:09:53.000Z</time>
      </trkpt>
      <trkpt lat="45.83733" lon="1.91044">
        <ele>772.3</ele>
        <time>2026-07-07T12:09:54.000Z</time>
      </trkpt>
      <trkpt lat="45.8373" lon="1.91045">
        <ele>773.3</ele>
        <time>2026-07-07T12:09:55.000Z</time>
      </trkpt>
      <trkpt lat="45.83728" lon="1.91046">
        <ele>774.3</ele>
        <time>2026-07-07T12:09:56.000Z</time>
      </trkpt>
      <trkpt lat="45.83727" lon="1.91046">
        <ele>773.6</ele>
        <time>2026-07-07T12:09:57.000Z</time>
      </trkpt>
      <trkpt lat="45.83733" lon="1.91038">
        <ele>760.9</ele>
        <time>2026-07-07T12:09:58.000Z</time>
      </trkpt>
      <trkpt lat="45.83732" lon="1.91039">
        <ele>760</ele>
        <time>2026-07-07T12:09:59.000Z</time>
      </trkpt>
      <trkpt lat="45.8373" lon="1.91039">
        <ele>760</ele>
        <time>2026-07-07T12:10:00.000Z</time>
      </trkpt>
      <trkpt lat="45.83728" lon="1.91039">
        <ele>758.7</ele>
        <time>2026-07-07T12:10:01.000Z</time>
      </trkpt>
      <trkpt lat="45.83726" lon="1.91038">
        <ele>758.4</ele>
        <time>2026-07-07T12:10:02.000Z</time>
      </trkpt>
      <trkpt lat="45.83724" lon="1.91038">
        <ele>759.5</ele>
        <time>2026-07-07T12:10:03.000Z</time>
      </trkpt>
      <trkpt lat="45.83722" lon="1.91039">
        <ele>760.3</ele>
        <time>2026-07-07T12:10:04.000Z</time>
      </trkpt>
      <trkpt lat="45.83721" lon="1.91039">
        <ele>760.5</ele>
        <time>2026-07-07T12:10:05.000Z</time>
      </trkpt>
      <trkpt lat="45.83719" lon="1.91039">
        <ele>761.1</ele>
        <time>2026-07-07T12:10:06.000Z</time>
      </trkpt>
      <trkpt lat="45.83717" lon="1.91039">
        <ele>761.8</ele>
        <time>2026-07-07T12:10:07.000Z</time>
      </trkpt>
      <trkpt lat="45.83715" lon="1.91039">
        <ele>761.9</ele>
        <time>2026-07-07T12:10:08.000Z</time>
      </trkpt>
      <trkpt lat="45.83713" lon="1.91039">
        <ele>762.2</ele>
        <time>2026-07-07T12:10:09.000Z</time>
      </trkpt>
      <trkpt lat="45.83711" lon="1.91039">
        <ele>762.4</ele>
        <time>2026-07-07T12:10:10.000Z</time>
      </trkpt>
      <trkpt lat="45.83709" lon="1.91038">
        <ele>762.4</ele>
        <time>2026-07-07T12:10:11.000Z</time>
      </trkpt>
      <trkpt lat="45.83707" lon="1.91038">
        <ele>762.4</ele>
        <time>2026-07-07T12:10:12.000Z</time>
      </trkpt>
      <trkpt lat="45.83704" lon="1.91042">
        <ele>762.7</ele>
        <time>2026-07-07T12:10:13.000Z</time>
      </trkpt>
      <trkpt lat="45.83702" lon="1.91045">
        <ele>763.7</ele>
        <time>2026-07-07T12:10:14.000Z</time>
      </trkpt>
      <trkpt lat="45.837" lon="1.91045">
        <ele>763.3</ele>
        <time>2026-07-07T12:10:15.000Z</time>
      </trkpt>
      <trkpt lat="45.83698" lon="1.91045">
        <ele>763.4</ele>
        <time>2026-07-07T12:10:16.000Z</time>
      </trkpt>
      <trkpt lat="45.83696" lon="1.91045">
        <ele>763.4</ele>
        <time>2026-07-07T12:10:17.000Z</time>
      </trkpt>
      <trkpt lat="45.83695" lon="1.91046">
        <ele>763.3</ele>
        <time>2026-07-07T12:10:18.000Z</time>
      </trkpt>
      <trkpt lat="45.83693" lon="1.91046">
        <ele>763.2</ele>
        <time>2026-07-07T12:10:19.000Z</time>
      </trkpt>
      <trkpt lat="45.83692" lon="1.9105">
        <ele>764.8</ele>
        <time>2026-07-07T12:10:20.000Z</time>
      </trkpt>
      <trkpt lat="45.83691" lon="1.91041">
        <ele>761.6</ele>
        <time>2026-07-07T12:10:21.000Z</time>
      </trkpt>
      <trkpt lat="45.83689" lon="1.91041">
        <ele>761.7</ele>
        <time>2026-07-07T12:10:22.000Z</time>
      </trkpt>
      <trkpt lat="45.83688" lon="1.91042">
        <ele>761.9</ele>
        <time>2026-07-07T12:10:23.000Z</time>
      </trkpt>
      <trkpt lat="45.83686" lon="1.91043">
        <ele>762</ele>
        <time>2026-07-07T12:10:24.000Z</time>
      </trkpt>
      <trkpt lat="45.83684" lon="1.91044">
        <ele>762</ele>
        <time>2026-07-07T12:10:25.000Z</time>
      </trkpt>
      <trkpt lat="45.83683" lon="1.91045">
        <ele>762</ele>
        <time>2026-07-07T12:10:26.000Z</time>
      </trkpt>
      <trkpt lat="45.83681" lon="1.91046">
        <ele>762.3</ele>
        <time>2026-07-07T12:10:27.000Z</time>
      </trkpt>
      <trkpt lat="45.83679" lon="1.91048">
        <ele>762.1</ele>
        <time>2026-07-07T12:10:28.000Z</time>
      </trkpt>
      <trkpt lat="45.83678" lon="1.91049">
        <ele>762.2</ele>
        <time>2026-07-07T12:10:29.000Z</time>
      </trkpt>
      <trkpt lat="45.83676" lon="1.91051">
        <ele>762.2</ele>
        <time>2026-07-07T12:10:30.000Z</time>
      </trkpt>
      <trkpt lat="45.83675" lon="1.91052">
        <ele>762</ele>
        <time>2026-07-07T12:10:31.000Z</time>
      </trkpt>
      <trkpt lat="45.83673" lon="1.91054">
        <ele>761.5</ele>
        <time>2026-07-07T12:10:32.000Z</time>
      </trkpt>
      <trkpt lat="45.83672" lon="1.91055">
        <ele>761.3</ele>
        <time>2026-07-07T12:10:33.000Z</time>
      </trkpt>
      <trkpt lat="45.8367" lon="1.91057">
        <ele>760.7</ele>
        <time>2026-07-07T12:10:34.000Z</time>
      </trkpt>
      <trkpt lat="45.83669" lon="1.91058">
        <ele>760.7</ele>
        <time>2026-07-07T12:10:35.000Z</time>
      </trkpt>
      <trkpt lat="45.83668" lon="1.91059">
        <ele>760.7</ele>
        <time>2026-07-07T12:10:36.000Z</time>
      </trkpt>
      <trkpt lat="45.83666" lon="1.91059">
        <ele>760.5</ele>
        <time>2026-07-07T12:10:37.000Z</time>
      </trkpt>
      <trkpt lat="45.83664" lon="1.9106">
        <ele>761.8</ele>
        <time>2026-07-07T12:10:38.000Z</time>
      </trkpt>
      <trkpt lat="45.83663" lon="1.91061">
        <ele>762.9</ele>
        <time>2026-07-07T12:10:39.000Z</time>
      </trkpt>
      <trkpt lat="45.83661" lon="1.91062">
        <ele>762.9</ele>
        <time>2026-07-07T12:10:40.000Z</time>
      </trkpt>
      <trkpt lat="45.83659" lon="1.91062">
        <ele>762.4</ele>
        <time>2026-07-07T12:10:41.000Z</time>
      </trkpt>
      <trkpt lat="45.83658" lon="1.91062">
        <ele>762.6</ele>
        <time>2026-07-07T12:10:42.000Z</time>
      </trkpt>
      <trkpt lat="45.83656" lon="1.91062">
        <ele>762.7</ele>
        <time>2026-07-07T12:10:43.000Z</time>
      </trkpt>
      <trkpt lat="45.83655" lon="1.91062">
        <ele>762.9</ele>
        <time>2026-07-07T12:10:44.000Z</time>
      </trkpt>
      <trkpt lat="45.83653" lon="1.91062">
        <ele>761.9</ele>
        <time>2026-07-07T12:10:45.000Z</time>
      </trkpt>
      <trkpt lat="45.83652" lon="1.91062">
        <ele>761.6</ele>
        <time>2026-07-07T12:10:46.000Z</time>
      </trkpt>
      <trkpt lat="45.8365" lon="1.91062">
        <ele>761</ele>
        <time>2026-07-07T12:10:47.000Z</time>
      </trkpt>
      <trkpt lat="45.83649" lon="1.91061">
        <ele>761</ele>
        <time>2026-07-07T12:10:48.000Z</time>
      </trkpt>
      <trkpt lat="45.83648" lon="1.9106">
        <ele>761.1</ele>
        <time>2026-07-07T12:10:49.000Z</time>
      </trkpt>
      <trkpt lat="45.83646" lon="1.91059">
        <ele>761</ele>
        <time>2026-07-07T12:10:50.000Z</time>
      </trkpt>
      <trkpt lat="45.83645" lon="1.91058">
        <ele>760.7</ele>
        <time>2026-07-07T12:10:51.000Z</time>
      </trkpt>
      <trkpt lat="45.83643" lon="1.91057">
        <ele>760.7</ele>
        <time>2026-07-07T12:10:52.000Z</time>
      </trkpt>
      <trkpt lat="45.83641" lon="1.91056">
        <ele>759.6</ele>
        <time>2026-07-07T12:10:53.000Z</time>
      </trkpt>
      <trkpt lat="45.83639" lon="1.91055">
        <ele>759.9</ele>
        <time>2026-07-07T12:10:54.000Z</time>
      </trkpt>
      <trkpt lat="45.83637" lon="1.91054">
        <ele>760.3</ele>
        <time>2026-07-07T12:10:55.000Z</time>
      </trkpt>
      <trkpt lat="45.83634" lon="1.91054">
        <ele>760.9</ele>
        <time>2026-07-07T12:10:56.000Z</time>
      </trkpt>
      <trkpt lat="45.83631" lon="1.91053">
        <ele>761.7</ele>
        <time>2026-07-07T12:10:57.000Z</time>
      </trkpt>
      <trkpt lat="45.83628" lon="1.91052">
        <ele>762.5</ele>
        <time>2026-07-07T12:10:58.000Z</time>
      </trkpt>
      <trkpt lat="45.83625" lon="1.91051">
        <ele>763.1</ele>
        <time>2026-07-07T12:10:59.000Z</time>
      </trkpt>
      <trkpt lat="45.83623" lon="1.9105">
        <ele>763.9</ele>
        <time>2026-07-07T12:11:00.000Z</time>
      </trkpt>
      <trkpt lat="45.8362" lon="1.9105">
        <ele>764.2</ele>
        <time>2026-07-07T12:11:01.000Z</time>
      </trkpt>
      <trkpt lat="45.83618" lon="1.91049">
        <ele>764.6</ele>
        <time>2026-07-07T12:11:02.000Z</time>
      </trkpt>
      <trkpt lat="45.83616" lon="1.91048">
        <ele>763.9</ele>
        <time>2026-07-07T12:11:03.000Z</time>
      </trkpt>
      <trkpt lat="45.83615" lon="1.91047">
        <ele>763.7</ele>
        <time>2026-07-07T12:11:04.000Z</time>
      </trkpt>
      <trkpt lat="45.83614" lon="1.91045">
        <ele>763.1</ele>
        <time>2026-07-07T12:11:05.000Z</time>
      </trkpt>
      <trkpt lat="45.83612" lon="1.91044">
        <ele>763</ele>
        <time>2026-07-07T12:11:06.000Z</time>
      </trkpt>
      <trkpt lat="45.83611" lon="1.91043">
        <ele>762.5</ele>
        <time>2026-07-07T12:11:07.000Z</time>
      </trkpt>
      <trkpt lat="45.8361" lon="1.91042">
        <ele>762.1</ele>
        <time>2026-07-07T12:11:08.000Z</time>
      </trkpt>
      <trkpt lat="45.83609" lon="1.91041">
        <ele>762.1</ele>
        <time>2026-07-07T12:11:09.000Z</time>
      </trkpt>
      <trkpt lat="45.83607" lon="1.9104">
        <ele>761.9</ele>
        <time>2026-07-07T12:11:10.000Z</time>
      </trkpt>
      <trkpt lat="45.83606" lon="1.91039">
        <ele>762</ele>
        <time>2026-07-07T12:11:11.000Z</time>
      </trkpt>
      <trkpt lat="45.83604" lon="1.91038">
        <ele>761.8</ele>
        <time>2026-07-07T12:11:12.000Z</time>
      </trkpt>
      <trkpt lat="45.83603" lon="1.91037">
        <ele>761.8</ele>
        <time>2026-07-07T12:11:13.000Z</time>
      </trkpt>
      <trkpt lat="45.83602" lon="1.91036">
        <ele>761.8</ele>
        <time>2026-07-07T12:11:14.000Z</time>
      </trkpt>
      <trkpt lat="45.836" lon="1.91035">
        <ele>761.6</ele>
        <time>2026-07-07T12:11:15.000Z</time>
      </trkpt>
      <trkpt lat="45.83599" lon="1.91035">
        <ele>761.6</ele>
        <time>2026-07-07T12:11:16.000Z</time>
      </trkpt>
      <trkpt lat="45.83597" lon="1.91034">
        <ele>761.6</ele>
        <time>2026-07-07T12:11:17.000Z</time>
      </trkpt>
      <trkpt lat="45.83596" lon="1.91033">
        <ele>761.6</ele>
        <time>2026-07-07T12:11:18.000Z</time>
      </trkpt>
      <trkpt lat="45.83595" lon="1.91033">
        <ele>761.8</ele>
        <time>2026-07-07T12:11:19.000Z</time>
      </trkpt>
      <trkpt lat="45.83593" lon="1.91032">
        <ele>761.1</ele>
        <time>2026-07-07T12:11:20.000Z</time>
      </trkpt>
      <trkpt lat="45.83592" lon="1.91031">
        <ele>760.9</ele>
        <time>2026-07-07T12:11:21.000Z</time>
      </trkpt>
      <trkpt lat="45.8359" lon="1.9103">
        <ele>760.1</ele>
        <time>2026-07-07T12:11:22.000Z</time>
      </trkpt>
      <trkpt lat="45.83589" lon="1.91028">
        <ele>760.2</ele>
        <time>2026-07-07T12:11:23.000Z</time>
      </trkpt>
      <trkpt lat="45.83587" lon="1.91027">
        <ele>759.7</ele>
        <time>2026-07-07T12:11:24.000Z</time>
      </trkpt>
      <trkpt lat="45.83586" lon="1.91026">
        <ele>759.7</ele>
        <time>2026-07-07T12:11:25.000Z</time>
      </trkpt>
      <trkpt lat="45.83585" lon="1.91025">
        <ele>759.3</ele>
        <time>2026-07-07T12:11:26.000Z</time>
      </trkpt>
      <trkpt lat="45.83583" lon="1.91024">
        <ele>759.4</ele>
        <time>2026-07-07T12:11:27.000Z</time>
      </trkpt>
      <trkpt lat="45.83582" lon="1.91023">
        <ele>759.6</ele>
        <time>2026-07-07T12:11:28.000Z</time>
      </trkpt>
      <trkpt lat="45.83581" lon="1.91022">
        <ele>759.6</ele>
        <time>2026-07-07T12:11:29.000Z</time>
      </trkpt>
      <trkpt lat="45.8358" lon="1.91021">
        <ele>760.2</ele>
        <time>2026-07-07T12:11:30.000Z</time>
      </trkpt>
      <trkpt lat="45.83579" lon="1.91019">
        <ele>760.3</ele>
        <time>2026-07-07T12:11:31.000Z</time>
      </trkpt>
      <trkpt lat="45.83577" lon="1.91017">
        <ele>760.1</ele>
        <time>2026-07-07T12:11:32.000Z</time>
      </trkpt>
      <trkpt lat="45.83576" lon="1.91016">
        <ele>760.5</ele>
        <time>2026-07-07T12:11:33.000Z</time>
      </trkpt>
      <trkpt lat="45.83575" lon="1.91015">
        <ele>760.4</ele>
        <time>2026-07-07T12:11:34.000Z</time>
      </trkpt>
      <trkpt lat="45.83573" lon="1.91014">
        <ele>760.3</ele>
        <time>2026-07-07T12:11:35.000Z</time>
      </trkpt>
      <trkpt lat="45.83572" lon="1.91013">
        <ele>760.1</ele>
        <time>2026-07-07T12:11:36.000Z</time>
      </trkpt>
      <trkpt lat="45.83571" lon="1.91011">
        <ele>759.9</ele>
        <time>2026-07-07T12:11:37.000Z</time>
      </trkpt>
      <trkpt lat="45.8357" lon="1.91009">
        <ele>759.8</ele>
        <time>2026-07-07T12:11:38.000Z</time>
      </trkpt>
      <trkpt lat="45.83568" lon="1.91008">
        <ele>759.5</ele>
        <time>2026-07-07T12:11:39.000Z</time>
      </trkpt>
      <trkpt lat="45.83567" lon="1.91007">
        <ele>759.8</ele>
        <time>2026-07-07T12:11:40.000Z</time>
      </trkpt>
      <trkpt lat="45.83567" lon="1.91003">
        <ele>759.6</ele>
        <time>2026-07-07T12:11:41.000Z</time>
      </trkpt>
      <trkpt lat="45.83563" lon="1.91003">
        <ele>759.7</ele>
        <time>2026-07-07T12:11:42.000Z</time>
      </trkpt>
      <trkpt lat="45.83562" lon="1.91">
        <ele>759.6</ele>
        <time>2026-07-07T12:11:43.000Z</time>
      </trkpt>
      <trkpt lat="45.83561" lon="1.91002">
        <ele>759.7</ele>
        <time>2026-07-07T12:11:44.000Z</time>
      </trkpt>
      <trkpt lat="45.83559" lon="1.90999">
        <ele>759.2</ele>
        <time>2026-07-07T12:11:45.000Z</time>
      </trkpt>
      <trkpt lat="45.83556" lon="1.90998">
        <ele>759.6</ele>
        <time>2026-07-07T12:11:46.000Z</time>
      </trkpt>
      <trkpt lat="45.83554" lon="1.90997">
        <ele>758.9</ele>
        <time>2026-07-07T12:11:47.000Z</time>
      </trkpt>
      <trkpt lat="45.83551" lon="1.90996">
        <ele>759</ele>
        <time>2026-07-07T12:11:48.000Z</time>
      </trkpt>
      <trkpt lat="45.83548" lon="1.90995">
        <ele>758.7</ele>
        <time>2026-07-07T12:11:49.000Z</time>
      </trkpt>
      <trkpt lat="45.83544" lon="1.90993">
        <ele>758.4</ele>
        <time>2026-07-07T12:11:50.000Z</time>
      </trkpt>
      <trkpt lat="45.8354" lon="1.90992">
        <ele>758.8</ele>
        <time>2026-07-07T12:11:51.000Z</time>
      </trkpt>
      <trkpt lat="45.83536" lon="1.90991">
        <ele>759.8</ele>
        <time>2026-07-07T12:11:52.000Z</time>
      </trkpt>
      <trkpt lat="45.83532" lon="1.9099">
        <ele>760.3</ele>
        <time>2026-07-07T12:11:53.000Z</time>
      </trkpt>
      <trkpt lat="45.83529" lon="1.90989">
        <ele>760.8</ele>
        <time>2026-07-07T12:11:54.000Z</time>
      </trkpt>
      <trkpt lat="45.83526" lon="1.90987">
        <ele>761</ele>
        <time>2026-07-07T12:11:55.000Z</time>
      </trkpt>
      <trkpt lat="45.83523" lon="1.90986">
        <ele>761.2</ele>
        <time>2026-07-07T12:11:56.000Z</time>
      </trkpt>
      <trkpt lat="45.83522" lon="1.90985">
        <ele>759.9</ele>
        <time>2026-07-07T12:11:57.000Z</time>
      </trkpt>
      <trkpt lat="45.8352" lon="1.90984">
        <ele>759.6</ele>
        <time>2026-07-07T12:11:58.000Z</time>
      </trkpt>
      <trkpt lat="45.83518" lon="1.90982">
        <ele>759.4</ele>
        <time>2026-07-07T12:11:59.000Z</time>
      </trkpt>
      <trkpt lat="45.83516" lon="1.90981">
        <ele>759.3</ele>
        <time>2026-07-07T12:12:00.000Z</time>
      </trkpt>
      <trkpt lat="45.83513" lon="1.9098">
        <ele>758.9</ele>
        <time>2026-07-07T12:12:01.000Z</time>
      </trkpt>
      <trkpt lat="45.8351" lon="1.90978">
        <ele>759.1</ele>
        <time>2026-07-07T12:12:02.000Z</time>
      </trkpt>
      <trkpt lat="45.83507" lon="1.90976">
        <ele>759</ele>
        <time>2026-07-07T12:12:03.000Z</time>
      </trkpt>
      <trkpt lat="45.83504" lon="1.90974">
        <ele>759.3</ele>
        <time>2026-07-07T12:12:04.000Z</time>
      </trkpt>
      <trkpt lat="45.83501" lon="1.90971">
        <ele>759.4</ele>
        <time>2026-07-07T12:12:05.000Z</time>
      </trkpt>
      <trkpt lat="45.83499" lon="1.90968">
        <ele>759</ele>
        <time>2026-07-07T12:12:06.000Z</time>
      </trkpt>
      <trkpt lat="45.83496" lon="1.90966">
        <ele>758.8</ele>
        <time>2026-07-07T12:12:07.000Z</time>
      </trkpt>
      <trkpt lat="45.83493" lon="1.90963">
        <ele>758.3</ele>
        <time>2026-07-07T12:12:08.000Z</time>
      </trkpt>
      <trkpt lat="45.8349" lon="1.9096">
        <ele>759.6</ele>
        <time>2026-07-07T12:12:09.000Z</time>
      </trkpt>
      <trkpt lat="45.83487" lon="1.90958">
        <ele>759.9</ele>
        <time>2026-07-07T12:12:10.000Z</time>
      </trkpt>
      <trkpt lat="45.83486" lon="1.90957">
        <ele>759.7</ele>
        <time>2026-07-07T12:12:11.000Z</time>
      </trkpt>
      <trkpt lat="45.83485" lon="1.90954">
        <ele>760.5</ele>
        <time>2026-07-07T12:12:12.000Z</time>
      </trkpt>
      <trkpt lat="45.83484" lon="1.90953">
        <ele>759.4</ele>
        <time>2026-07-07T12:12:13.000Z</time>
      </trkpt>
      <trkpt lat="45.83483" lon="1.90951">
        <ele>759.8</ele>
        <time>2026-07-07T12:12:14.000Z</time>
      </trkpt>
      <trkpt lat="45.8348" lon="1.90949">
        <ele>758.2</ele>
        <time>2026-07-07T12:12:15.000Z</time>
      </trkpt>
      <trkpt lat="45.83477" lon="1.90946">
        <ele>757.5</ele>
        <time>2026-07-07T12:12:16.000Z</time>
      </trkpt>
      <trkpt lat="45.83475" lon="1.90944">
        <ele>756.4</ele>
        <time>2026-07-07T12:12:17.000Z</time>
      </trkpt>
      <trkpt lat="45.83472" lon="1.90942">
        <ele>754.2</ele>
        <time>2026-07-07T12:12:18.000Z</time>
      </trkpt>
      <trkpt lat="45.83469" lon="1.90941">
        <ele>753.7</ele>
        <time>2026-07-07T12:12:19.000Z</time>
      </trkpt>
      <trkpt lat="45.83466" lon="1.90939">
        <ele>752.9</ele>
        <time>2026-07-07T12:12:20.000Z</time>
      </trkpt>
      <trkpt lat="45.83462" lon="1.90938">
        <ele>753.5</ele>
        <time>2026-07-07T12:12:21.000Z</time>
      </trkpt>
      <trkpt lat="45.83458" lon="1.90937">
        <ele>753.4</ele>
        <time>2026-07-07T12:12:22.000Z</time>
      </trkpt>
      <trkpt lat="45.83453" lon="1.90937">
        <ele>752.7</ele>
        <time>2026-07-07T12:12:23.000Z</time>
      </trkpt>
      <trkpt lat="45.83448" lon="1.90935">
        <ele>752.3</ele>
        <time>2026-07-07T12:12:24.000Z</time>
      </trkpt>
      <trkpt lat="45.83445" lon="1.90933">
        <ele>750.6</ele>
        <time>2026-07-07T12:12:25.000Z</time>
      </trkpt>
      <trkpt lat="45.83441" lon="1.90931">
        <ele>749.6</ele>
        <time>2026-07-07T12:12:26.000Z</time>
      </trkpt>
      <trkpt lat="45.83438" lon="1.90929">
        <ele>749.7</ele>
        <time>2026-07-07T12:12:27.000Z</time>
      </trkpt>
      <trkpt lat="45.83436" lon="1.90926">
        <ele>749.6</ele>
        <time>2026-07-07T12:12:28.000Z</time>
      </trkpt>
      <trkpt lat="45.83433" lon="1.90923">
        <ele>750</ele>
        <time>2026-07-07T12:12:29.000Z</time>
      </trkpt>
      <trkpt lat="45.83429" lon="1.90923">
        <ele>750.4</ele>
        <time>2026-07-07T12:12:30.000Z</time>
      </trkpt>
      <trkpt lat="45.83426" lon="1.90922">
        <ele>752</ele>
        <time>2026-07-07T12:12:31.000Z</time>
      </trkpt>
      <trkpt lat="45.83423" lon="1.9092">
        <ele>753.4</ele>
        <time>2026-07-07T12:12:32.000Z</time>
      </trkpt>
      <trkpt lat="45.83419" lon="1.90918">
        <ele>755.9</ele>
        <time>2026-07-07T12:12:33.000Z</time>
      </trkpt>
      <trkpt lat="45.83417" lon="1.90918">
        <ele>757.3</ele>
        <time>2026-07-07T12:12:34.000Z</time>
      </trkpt>
      <trkpt lat="45.83415" lon="1.90917">
        <ele>757.1</ele>
        <time>2026-07-07T12:12:35.000Z</time>
      </trkpt>
      <trkpt lat="45.83413" lon="1.90918">
        <ele>757.1</ele>
        <time>2026-07-07T12:12:36.000Z</time>
      </trkpt>
      <trkpt lat="45.8341" lon="1.90919">
        <ele>754.9</ele>
        <time>2026-07-07T12:12:37.000Z</time>
      </trkpt>
      <trkpt lat="45.83407" lon="1.9092">
        <ele>754</ele>
        <time>2026-07-07T12:12:38.000Z</time>
      </trkpt>
      <trkpt lat="45.83405" lon="1.9092">
        <ele>753.5</ele>
        <time>2026-07-07T12:12:39.000Z</time>
      </trkpt>
      <trkpt lat="45.83403" lon="1.9092">
        <ele>753.1</ele>
        <time>2026-07-07T12:12:40.000Z</time>
      </trkpt>
      <trkpt lat="45.834" lon="1.9092">
        <ele>752.7</ele>
        <time>2026-07-07T12:12:41.000Z</time>
      </trkpt>
      <trkpt lat="45.83394" lon="1.90916">
        <ele>753.2</ele>
        <time>2026-07-07T12:12:42.000Z</time>
      </trkpt>
      <trkpt lat="45.83389" lon="1.90912">
        <ele>752.9</ele>
        <time>2026-07-07T12:12:43.000Z</time>
      </trkpt>
      <trkpt lat="45.83384" lon="1.90909">
        <ele>752.8</ele>
        <time>2026-07-07T12:12:44.000Z</time>
      </trkpt>
      <trkpt lat="45.8338" lon="1.90905">
        <ele>752.7</ele>
        <time>2026-07-07T12:12:45.000Z</time>
      </trkpt>
      <trkpt lat="45.83377" lon="1.90901">
        <ele>752.4</ele>
        <time>2026-07-07T12:12:46.000Z</time>
      </trkpt>
      <trkpt lat="45.83374" lon="1.90896">
        <ele>753.4</ele>
        <time>2026-07-07T12:12:47.000Z</time>
      </trkpt>
      <trkpt lat="45.83371" lon="1.90892">
        <ele>753.3</ele>
        <time>2026-07-07T12:12:48.000Z</time>
      </trkpt>
      <trkpt lat="45.83368" lon="1.90889">
        <ele>753.4</ele>
        <time>2026-07-07T12:12:49.000Z</time>
      </trkpt>
      <trkpt lat="45.83364" lon="1.90885">
        <ele>754</ele>
        <time>2026-07-07T12:12:50.000Z</time>
      </trkpt>
      <trkpt lat="45.83362" lon="1.90884">
        <ele>752</ele>
        <time>2026-07-07T12:12:51.000Z</time>
      </trkpt>
      <trkpt lat="45.83359" lon="1.90883">
        <ele>750</ele>
        <time>2026-07-07T12:12:52.000Z</time>
      </trkpt>
      <trkpt lat="45.83356" lon="1.9088">
        <ele>752.1</ele>
        <time>2026-07-07T12:12:53.000Z</time>
      </trkpt>
      <trkpt lat="45.83353" lon="1.90876">
        <ele>752</ele>
        <time>2026-07-07T12:12:54.000Z</time>
      </trkpt>
      <trkpt lat="45.83349" lon="1.90873">
        <ele>752.6</ele>
        <time>2026-07-07T12:12:55.000Z</time>
      </trkpt>
      <trkpt lat="45.83345" lon="1.90871">
        <ele>752.1</ele>
        <time>2026-07-07T12:12:56.000Z</time>
      </trkpt>
      <trkpt lat="45.83341" lon="1.9087">
        <ele>751.9</ele>
        <time>2026-07-07T12:12:57.000Z</time>
      </trkpt>
      <trkpt lat="45.83336" lon="1.90869">
        <ele>751.3</ele>
        <time>2026-07-07T12:12:58.000Z</time>
      </trkpt>
      <trkpt lat="45.83331" lon="1.90867">
        <ele>750.6</ele>
        <time>2026-07-07T12:12:59.000Z</time>
      </trkpt>
      <trkpt lat="45.83326" lon="1.90866">
        <ele>750.5</ele>
        <time>2026-07-07T12:13:00.000Z</time>
      </trkpt>
      <trkpt lat="45.83323" lon="1.90866">
        <ele>750.4</ele>
        <time>2026-07-07T12:13:01.000Z</time>
      </trkpt>
      <trkpt lat="45.8332" lon="1.90866">
        <ele>750.2</ele>
        <time>2026-07-07T12:13:02.000Z</time>
      </trkpt>
      <trkpt lat="45.83316" lon="1.90867">
        <ele>750.5</ele>
        <time>2026-07-07T12:13:03.000Z</time>
      </trkpt>
      <trkpt lat="45.83312" lon="1.90868">
        <ele>748.9</ele>
        <time>2026-07-07T12:13:04.000Z</time>
      </trkpt>
      <trkpt lat="45.83307" lon="1.9087">
        <ele>748.8</ele>
        <time>2026-07-07T12:13:05.000Z</time>
      </trkpt>
      <trkpt lat="45.83305" lon="1.90871">
        <ele>750.3</ele>
        <time>2026-07-07T12:13:06.000Z</time>
      </trkpt>
      <trkpt lat="45.83301" lon="1.90872">
        <ele>750.5</ele>
        <time>2026-07-07T12:13:07.000Z</time>
      </trkpt>
      <trkpt lat="45.83298" lon="1.90874">
        <ele>750.8</ele>
        <time>2026-07-07T12:13:08.000Z</time>
      </trkpt>
      <trkpt lat="45.83293" lon="1.90876">
        <ele>751.6</ele>
        <time>2026-07-07T12:13:09.000Z</time>
      </trkpt>
      <trkpt lat="45.83288" lon="1.90876">
        <ele>751.8</ele>
        <time>2026-07-07T12:13:10.000Z</time>
      </trkpt>
      <trkpt lat="45.83283" lon="1.90877">
        <ele>753.7</ele>
        <time>2026-07-07T12:13:11.000Z</time>
      </trkpt>
      <trkpt lat="45.83278" lon="1.90879">
        <ele>754.3</ele>
        <time>2026-07-07T12:13:12.000Z</time>
      </trkpt>
      <trkpt lat="45.83275" lon="1.90881">
        <ele>756.2</ele>
        <time>2026-07-07T12:13:13.000Z</time>
      </trkpt>
      <trkpt lat="45.83271" lon="1.90884">
        <ele>756.9</ele>
        <time>2026-07-07T12:13:14.000Z</time>
      </trkpt>
      <trkpt lat="45.83266" lon="1.90887">
        <ele>757.3</ele>
        <time>2026-07-07T12:13:15.000Z</time>
      </trkpt>
      <trkpt lat="45.83259" lon="1.90892">
        <ele>756.1</ele>
        <time>2026-07-07T12:13:16.000Z</time>
      </trkpt>
      <trkpt lat="45.83254" lon="1.90896">
        <ele>756.4</ele>
        <time>2026-07-07T12:13:17.000Z</time>
      </trkpt>
      <trkpt lat="45.83248" lon="1.90898">
        <ele>755.8</ele>
        <time>2026-07-07T12:13:18.000Z</time>
      </trkpt>
      <trkpt lat="45.83244" lon="1.90901">
        <ele>755.9</ele>
        <time>2026-07-07T12:13:19.000Z</time>
      </trkpt>
      <trkpt lat="45.83238" lon="1.90904">
        <ele>756</ele>
        <time>2026-07-07T12:13:20.000Z</time>
      </trkpt>
      <trkpt lat="45.83232" lon="1.90908">
        <ele>752.4</ele>
        <time>2026-07-07T12:13:21.000Z</time>
      </trkpt>
      <trkpt lat="45.83227" lon="1.90911">
        <ele>752.9</ele>
        <time>2026-07-07T12:13:22.000Z</time>
      </trkpt>
      <trkpt lat="45.83221" lon="1.90914">
        <ele>751.4</ele>
        <time>2026-07-07T12:13:23.000Z</time>
      </trkpt>
      <trkpt lat="45.83216" lon="1.90917">
        <ele>752.4</ele>
        <time>2026-07-07T12:13:24.000Z</time>
      </trkpt>
      <trkpt lat="45.83212" lon="1.9092">
        <ele>753.4</ele>
        <time>2026-07-07T12:13:25.000Z</time>
      </trkpt>
      <trkpt lat="45.83209" lon="1.90922">
        <ele>753.6</ele>
        <time>2026-07-07T12:13:26.000Z</time>
      </trkpt>
      <trkpt lat="45.83206" lon="1.90923">
        <ele>752.5</ele>
        <time>2026-07-07T12:13:27.000Z</time>
      </trkpt>
      <trkpt lat="45.83203" lon="1.90925">
        <ele>752</ele>
        <time>2026-07-07T12:13:28.000Z</time>
      </trkpt>
      <trkpt lat="45.83198" lon="1.90927">
        <ele>751.5</ele>
        <time>2026-07-07T12:13:29.000Z</time>
      </trkpt>
      <trkpt lat="45.83192" lon="1.90929">
        <ele>751.8</ele>
        <time>2026-07-07T12:13:30.000Z</time>
      </trkpt>
      <trkpt lat="45.83187" lon="1.90931">
        <ele>752.5</ele>
        <time>2026-07-07T12:13:31.000Z</time>
      </trkpt>
      <trkpt lat="45.83182" lon="1.90933">
        <ele>752.4</ele>
        <time>2026-07-07T12:13:32.000Z</time>
      </trkpt>
      <trkpt lat="45.83177" lon="1.90935">
        <ele>754.7</ele>
        <time>2026-07-07T12:13:33.000Z</time>
      </trkpt>
      <trkpt lat="45.83172" lon="1.90938">
        <ele>755.5</ele>
        <time>2026-07-07T12:13:34.000Z</time>
      </trkpt>
      <trkpt lat="45.83167" lon="1.9094">
        <ele>756.5</ele>
        <time>2026-07-07T12:13:35.000Z</time>
      </trkpt>
      <trkpt lat="45.83162" lon="1.90941">
        <ele>758.5</ele>
        <time>2026-07-07T12:13:36.000Z</time>
      </trkpt>
      <trkpt lat="45.83157" lon="1.90943">
        <ele>758.5</ele>
        <time>2026-07-07T12:13:37.000Z</time>
      </trkpt>
      <trkpt lat="45.83151" lon="1.90945">
        <ele>758.1</ele>
        <time>2026-07-07T12:13:38.000Z</time>
      </trkpt>
      <trkpt lat="45.83146" lon="1.90947">
        <ele>757.5</ele>
        <time>2026-07-07T12:13:39.000Z</time>
      </trkpt>
      <trkpt lat="45.8314" lon="1.90948">
        <ele>756.1</ele>
        <time>2026-07-07T12:13:40.000Z</time>
      </trkpt>
      <trkpt lat="45.83134" lon="1.90949">
        <ele>757</ele>
        <time>2026-07-07T12:13:41.000Z</time>
      </trkpt>
      <trkpt lat="45.83127" lon="1.9095">
        <ele>758.3</ele>
        <time>2026-07-07T12:13:42.000Z</time>
      </trkpt>
      <trkpt lat="45.8312" lon="1.90951">
        <ele>758.3</ele>
        <time>2026-07-07T12:13:43.000Z</time>
      </trkpt>
      <trkpt lat="45.83114" lon="1.90952">
        <ele>758.8</ele>
        <time>2026-07-07T12:13:44.000Z</time>
      </trkpt>
      <trkpt lat="45.83108" lon="1.90952">
        <ele>759.2</ele>
        <time>2026-07-07T12:13:45.000Z</time>
      </trkpt>
      <trkpt lat="45.83101" lon="1.90952">
        <ele>759.7</ele>
        <time>2026-07-07T12:13:46.000Z</time>
      </trkpt>
      <trkpt lat="45.83094" lon="1.90952">
        <ele>760</ele>
        <time>2026-07-07T12:13:47.000Z</time>
      </trkpt>
      <trkpt lat="45.83088" lon="1.90953">
        <ele>759.2</ele>
        <time>2026-07-07T12:13:48.000Z</time>
      </trkpt>
      <trkpt lat="45.83082" lon="1.90953">
        <ele>759.7</ele>
        <time>2026-07-07T12:13:49.000Z</time>
      </trkpt>
      <trkpt lat="45.8308" lon="1.90951">
        <ele>761.5</ele>
        <time>2026-07-07T12:13:50.000Z</time>
      </trkpt>
      <trkpt lat="45.83078" lon="1.90951">
        <ele>760.5</ele>
        <time>2026-07-07T12:13:51.000Z</time>
      </trkpt>
      <trkpt lat="45.83073" lon="1.9095">
        <ele>760.5</ele>
        <time>2026-07-07T12:13:52.000Z</time>
      </trkpt>
      <trkpt lat="45.83065" lon="1.90949">
        <ele>758.4</ele>
        <time>2026-07-07T12:13:53.000Z</time>
      </trkpt>
      <trkpt lat="45.83056" lon="1.90949">
        <ele>758.8</ele>
        <time>2026-07-07T12:13:54.000Z</time>
      </trkpt>
      <trkpt lat="45.83048" lon="1.90949">
        <ele>757</ele>
        <time>2026-07-07T12:13:55.000Z</time>
      </trkpt>
      <trkpt lat="45.83041" lon="1.9095">
        <ele>756.7</ele>
        <time>2026-07-07T12:13:56.000Z</time>
      </trkpt>
      <trkpt lat="45.83032" lon="1.9095">
        <ele>755.8</ele>
        <time>2026-07-07T12:13:57.000Z</time>
      </trkpt>
      <trkpt lat="45.83022" lon="1.90951">
        <ele>756</ele>
        <time>2026-07-07T12:13:58.000Z</time>
      </trkpt>
      <trkpt lat="45.83014" lon="1.90952">
        <ele>755.2</ele>
        <time>2026-07-07T12:13:59.000Z</time>
      </trkpt>
      <trkpt lat="45.83007" lon="1.90951">
        <ele>753.8</ele>
        <time>2026-07-07T12:14:00.000Z</time>
      </trkpt>
      <trkpt lat="45.83001" lon="1.9095">
        <ele>752.9</ele>
        <time>2026-07-07T12:14:01.000Z</time>
      </trkpt>
      <trkpt lat="45.82993" lon="1.9095">
        <ele>752.2</ele>
        <time>2026-07-07T12:14:02.000Z</time>
      </trkpt>
      <trkpt lat="45.82981" lon="1.90935">
        <ele>755.2</ele>
        <time>2026-07-07T12:14:03.000Z</time>
      </trkpt>
      <trkpt lat="45.82972" lon="1.90931">
        <ele>755.4</ele>
        <time>2026-07-07T12:14:04.000Z</time>
      </trkpt>
      <trkpt lat="45.82961" lon="1.90928">
        <ele>756.1</ele>
        <time>2026-07-07T12:14:05.000Z</time>
      </trkpt>
      <trkpt lat="45.8296" lon="1.90926">
        <ele>755.3</ele>
        <time>2026-07-07T12:14:06.000Z</time>
      </trkpt>
      <trkpt lat="45.82957" lon="1.90931">
        <ele>755.7</ele>
        <time>2026-07-07T12:14:07.000Z</time>
      </trkpt>
      <trkpt lat="45.82952" lon="1.90929">
        <ele>756</ele>
        <time>2026-07-07T12:14:08.000Z</time>
      </trkpt>
      <trkpt lat="45.82947" lon="1.90923">
        <ele>756</ele>
        <time>2026-07-07T12:14:09.000Z</time>
      </trkpt>
      <trkpt lat="45.82943" lon="1.90933">
        <ele>755.3</ele>
        <time>2026-07-07T12:14:10.000Z</time>
      </trkpt>
      <trkpt lat="45.82937" lon="1.9093">
        <ele>755.3</ele>
        <time>2026-07-07T12:14:11.000Z</time>
      </trkpt>
      <trkpt lat="45.82931" lon="1.90949">
        <ele>751.9</ele>
        <time>2026-07-07T12:14:12.000Z</time>
      </trkpt>
      <trkpt lat="45.82925" lon="1.90949">
        <ele>751.1</ele>
        <time>2026-07-07T12:14:13.000Z</time>
      </trkpt>
      <trkpt lat="45.82923" lon="1.90954">
        <ele>751.5</ele>
        <time>2026-07-07T12:14:14.000Z</time>
      </trkpt>
      <trkpt lat="45.82921" lon="1.90959">
        <ele>750.9</ele>
        <time>2026-07-07T12:14:15.000Z</time>
      </trkpt>
      <trkpt lat="45.82917" lon="1.90958">
        <ele>752</ele>
        <time>2026-07-07T12:14:16.000Z</time>
      </trkpt>
      <trkpt lat="45.8291" lon="1.90959">
        <ele>753</ele>
        <time>2026-07-07T12:14:17.000Z</time>
      </trkpt>
      <trkpt lat="45.82904" lon="1.90961">
        <ele>753</ele>
        <time>2026-07-07T12:14:18.000Z</time>
      </trkpt>
      <trkpt lat="45.82896" lon="1.90961">
        <ele>754.4</ele>
        <time>2026-07-07T12:14:19.000Z</time>
      </trkpt>
      <trkpt lat="45.82892" lon="1.90963">
        <ele>753.9</ele>
        <time>2026-07-07T12:14:20.000Z</time>
      </trkpt>
      <trkpt lat="45.8289" lon="1.90961">
        <ele>753.3</ele>
        <time>2026-07-07T12:14:21.000Z</time>
      </trkpt>
      <trkpt lat="45.82891" lon="1.90958">
        <ele>754.4</ele>
        <time>2026-07-07T12:14:22.000Z</time>
      </trkpt>
      <trkpt lat="45.82887" lon="1.9096">
        <ele>753.1</ele>
        <time>2026-07-07T12:14:23.000Z</time>
      </trkpt>
      <trkpt lat="45.82884" lon="1.9096">
        <ele>752.9</ele>
        <time>2026-07-07T12:14:24.000Z</time>
      </trkpt>
      <trkpt lat="45.82883" lon="1.90961">
        <ele>752.9</ele>
        <time>2026-07-07T12:14:25.000Z</time>
      </trkpt>
      <trkpt lat="45.82881" lon="1.90961">
        <ele>754.4</ele>
        <time>2026-07-07T12:14:26.000Z</time>
      </trkpt>
      <trkpt lat="45.82877" lon="1.90962">
        <ele>753.8</ele>
        <time>2026-07-07T12:14:27.000Z</time>
      </trkpt>
      <trkpt lat="45.82874" lon="1.90962">
        <ele>753.2</ele>
        <time>2026-07-07T12:14:28.000Z</time>
      </trkpt>
      <trkpt lat="45.82871" lon="1.90962">
        <ele>752.6</ele>
        <time>2026-07-07T12:14:29.000Z</time>
      </trkpt>
      <trkpt lat="45.82868" lon="1.90962">
        <ele>751.2</ele>
        <time>2026-07-07T12:14:30.000Z</time>
      </trkpt>
      <trkpt lat="45.82864" lon="1.90962">
        <ele>750.5</ele>
        <time>2026-07-07T12:14:31.000Z</time>
      </trkpt>
      <trkpt lat="45.82859" lon="1.90961">
        <ele>750.9</ele>
        <time>2026-07-07T12:14:32.000Z</time>
      </trkpt>
      <trkpt lat="45.82854" lon="1.90961">
        <ele>750.5</ele>
        <time>2026-07-07T12:14:33.000Z</time>
      </trkpt>
      <trkpt lat="45.82848" lon="1.90959">
        <ele>749.7</ele>
        <time>2026-07-07T12:14:34.000Z</time>
      </trkpt>
      <trkpt lat="45.82843" lon="1.90957">
        <ele>749.4</ele>
        <time>2026-07-07T12:14:35.000Z</time>
      </trkpt>
      <trkpt lat="45.82838" lon="1.90956">
        <ele>748.9</ele>
        <time>2026-07-07T12:14:36.000Z</time>
      </trkpt>
      <trkpt lat="45.82831" lon="1.90951">
        <ele>749</ele>
        <time>2026-07-07T12:14:37.000Z</time>
      </trkpt>
      <trkpt lat="45.82826" lon="1.90945">
        <ele>749.4</ele>
        <time>2026-07-07T12:14:38.000Z</time>
      </trkpt>
      <trkpt lat="45.82821" lon="1.9094">
        <ele>749.3</ele>
        <time>2026-07-07T12:14:39.000Z</time>
      </trkpt>
      <trkpt lat="45.82817" lon="1.90939">
        <ele>748.6</ele>
        <time>2026-07-07T12:14:40.000Z</time>
      </trkpt>
      <trkpt lat="45.82812" lon="1.90939">
        <ele>749.1</ele>
        <time>2026-07-07T12:14:41.000Z</time>
      </trkpt>
      <trkpt lat="45.82807" lon="1.90938">
        <ele>749.2</ele>
        <time>2026-07-07T12:14:42.000Z</time>
      </trkpt>
      <trkpt lat="45.82802" lon="1.90937">
        <ele>748.8</ele>
        <time>2026-07-07T12:14:43.000Z</time>
      </trkpt>
      <trkpt lat="45.82798" lon="1.90934">
        <ele>749.9</ele>
        <time>2026-07-07T12:14:44.000Z</time>
      </trkpt>
      <trkpt lat="45.82793" lon="1.90932">
        <ele>750.1</ele>
        <time>2026-07-07T12:14:45.000Z</time>
      </trkpt>
      <trkpt lat="45.82788" lon="1.90928">
        <ele>750.6</ele>
        <time>2026-07-07T12:14:46.000Z</time>
      </trkpt>
      <trkpt lat="45.82785" lon="1.90925">
        <ele>750.8</ele>
        <time>2026-07-07T12:14:47.000Z</time>
      </trkpt>
      <trkpt lat="45.82783" lon="1.90923">
        <ele>752.1</ele>
        <time>2026-07-07T12:14:48.000Z</time>
      </trkpt>
      <trkpt lat="45.8278" lon="1.90921">
        <ele>752.3</ele>
        <time>2026-07-07T12:14:49.000Z</time>
      </trkpt>
      <trkpt lat="45.82778" lon="1.90919">
        <ele>751.1</ele>
        <time>2026-07-07T12:14:50.000Z</time>
      </trkpt>
      <trkpt lat="45.82774" lon="1.90914">
        <ele>750.2</ele>
        <time>2026-07-07T12:14:51.000Z</time>
      </trkpt>
      <trkpt lat="45.82771" lon="1.90909">
        <ele>749.6</ele>
        <time>2026-07-07T12:14:52.000Z</time>
      </trkpt>
      <trkpt lat="45.82768" lon="1.90905">
        <ele>750.1</ele>
        <time>2026-07-07T12:14:53.000Z</time>
      </trkpt>
      <trkpt lat="45.82766" lon="1.90903">
        <ele>750</ele>
        <time>2026-07-07T12:14:54.000Z</time>
      </trkpt>
      <trkpt lat="45.82763" lon="1.90902">
        <ele>749.8</ele>
        <time>2026-07-07T12:14:55.000Z</time>
      </trkpt>
      <trkpt lat="45.82761" lon="1.90901">
        <ele>749.6</ele>
        <time>2026-07-07T12:14:56.000Z</time>
      </trkpt>
      <trkpt lat="45.82759" lon="1.90902">
        <ele>749.4</ele>
        <time>2026-07-07T12:14:57.000Z</time>
      </trkpt>
      <trkpt lat="45.82757" lon="1.90904">
        <ele>749.8</ele>
        <time>2026-07-07T12:14:58.000Z</time>
      </trkpt>
      <trkpt lat="45.82755" lon="1.90906">
        <ele>749.6</ele>
        <time>2026-07-07T12:14:59.000Z</time>
      </trkpt>
      <trkpt lat="45.82753" lon="1.90906">
        <ele>749.1</ele>
        <time>2026-07-07T12:15:00.000Z</time>
      </trkpt>
      <trkpt lat="45.82751" lon="1.90908">
        <ele>749.2</ele>
        <time>2026-07-07T12:15:01.000Z</time>
      </trkpt>
      <trkpt lat="45.82749" lon="1.90909">
        <ele>749.2</ele>
        <time>2026-07-07T12:15:02.000Z</time>
      </trkpt>
      <trkpt lat="45.82748" lon="1.90911">
        <ele>750</ele>
        <time>2026-07-07T12:15:03.000Z</time>
      </trkpt>
      <trkpt lat="45.82746" lon="1.90912">
        <ele>748.9</ele>
        <time>2026-07-07T12:15:04.000Z</time>
      </trkpt>
      <trkpt lat="45.82744" lon="1.90912">
        <ele>747.7</ele>
        <time>2026-07-07T12:15:05.000Z</time>
      </trkpt>
      <trkpt lat="45.82742" lon="1.90913">
        <ele>746.6</ele>
        <time>2026-07-07T12:15:06.000Z</time>
      </trkpt>
      <trkpt lat="45.82741" lon="1.90915">
        <ele>745.7</ele>
        <time>2026-07-07T12:15:07.000Z</time>
      </trkpt>
      <trkpt lat="45.82739" lon="1.90916">
        <ele>745.4</ele>
        <time>2026-07-07T12:15:08.000Z</time>
      </trkpt>
      <trkpt lat="45.82738" lon="1.90918">
        <ele>745.9</ele>
        <time>2026-07-07T12:15:09.000Z</time>
      </trkpt>
      <trkpt lat="45.82741" lon="1.90919">
        <ele>746</ele>
        <time>2026-07-07T12:15:10.000Z</time>
      </trkpt>
      <trkpt lat="45.82742" lon="1.90919">
        <ele>746.1</ele>
        <time>2026-07-07T12:15:11.000Z</time>
      </trkpt>
      <trkpt lat="45.8274" lon="1.9092">
        <ele>746.9</ele>
        <time>2026-07-07T12:15:12.000Z</time>
      </trkpt>
      <trkpt lat="45.8274" lon="1.9092">
        <ele>746.9</ele>
        <time>2026-07-07T12:15:13.000Z</time>
      </trkpt>
      <trkpt lat="45.82739" lon="1.9092">
        <ele>746.7</ele>
        <time>2026-07-07T12:15:14.000Z</time>
      </trkpt>
      <trkpt lat="45.82737" lon="1.90921">
        <ele>746.8</ele>
        <time>2026-07-07T12:15:15.000Z</time>
      </trkpt>
      <trkpt lat="45.82735" lon="1.90922">
        <ele>746</ele>
        <time>2026-07-07T12:15:16.000Z</time>
      </trkpt>
      <trkpt lat="45.82734" lon="1.90923">
        <ele>746.3</ele>
        <time>2026-07-07T12:15:17.000Z</time>
      </trkpt>
      <trkpt lat="45.82731" lon="1.90924">
        <ele>746.9</ele>
        <time>2026-07-07T12:15:18.000Z</time>
      </trkpt>
      <trkpt lat="45.82729" lon="1.90925">
        <ele>747.1</ele>
        <time>2026-07-07T12:15:19.000Z</time>
      </trkpt>
      <trkpt lat="45.82726" lon="1.90925">
        <ele>747.5</ele>
        <time>2026-07-07T12:15:20.000Z</time>
      </trkpt>
      <trkpt lat="45.82724" lon="1.90926">
        <ele>747.5</ele>
        <time>2026-07-07T12:15:21.000Z</time>
      </trkpt>
      <trkpt lat="45.82722" lon="1.90926">
        <ele>748</ele>
        <time>2026-07-07T12:15:22.000Z</time>
      </trkpt>
      <trkpt lat="45.82721" lon="1.90926">
        <ele>748.3</ele>
        <time>2026-07-07T12:15:23.000Z</time>
      </trkpt>
      <trkpt lat="45.82719" lon="1.90925">
        <ele>748.2</ele>
        <time>2026-07-07T12:15:24.000Z</time>
      </trkpt>
      <trkpt lat="45.82718" lon="1.90923">
        <ele>748.4</ele>
        <time>2026-07-07T12:15:25.000Z</time>
      </trkpt>
      <trkpt lat="45.82716" lon="1.90921">
        <ele>748.4</ele>
        <time>2026-07-07T12:15:26.000Z</time>
      </trkpt>
      <trkpt lat="45.82715" lon="1.90919">
        <ele>749.1</ele>
        <time>2026-07-07T12:15:27.000Z</time>
      </trkpt>
      <trkpt lat="45.82713" lon="1.90917">
        <ele>749</ele>
        <time>2026-07-07T12:15:28.000Z</time>
      </trkpt>
      <trkpt lat="45.82711" lon="1.90916">
        <ele>748.9</ele>
        <time>2026-07-07T12:15:29.000Z</time>
      </trkpt>
      <trkpt lat="45.8271" lon="1.90914">
        <ele>749.2</ele>
        <time>2026-07-07T12:15:30.000Z</time>
      </trkpt>
      <trkpt lat="45.82708" lon="1.90913">
        <ele>749.6</ele>
        <time>2026-07-07T12:15:31.000Z</time>
      </trkpt>
      <trkpt lat="45.82706" lon="1.90911">
        <ele>749.8</ele>
        <time>2026-07-07T12:15:32.000Z</time>
      </trkpt>
      <trkpt lat="45.82705" lon="1.90909">
        <ele>750.5</ele>
        <time>2026-07-07T12:15:33.000Z</time>
      </trkpt>
      <trkpt lat="45.82703" lon="1.90908">
        <ele>750.8</ele>
        <time>2026-07-07T12:15:34.000Z</time>
      </trkpt>
      <trkpt lat="45.82702" lon="1.90906">
        <ele>751.1</ele>
        <time>2026-07-07T12:15:35.000Z</time>
      </trkpt>
      <trkpt lat="45.827" lon="1.90904">
        <ele>751.3</ele>
        <time>2026-07-07T12:15:36.000Z</time>
      </trkpt>
      <trkpt lat="45.82699" lon="1.90903">
        <ele>751.4</ele>
        <time>2026-07-07T12:15:37.000Z</time>
      </trkpt>
      <trkpt lat="45.82697" lon="1.90901">
        <ele>751.6</ele>
        <time>2026-07-07T12:15:38.000Z</time>
      </trkpt>
      <trkpt lat="45.82696" lon="1.90899">
        <ele>751.4</ele>
        <time>2026-07-07T12:15:39.000Z</time>
      </trkpt>
      <trkpt lat="45.82694" lon="1.90897">
        <ele>751.3</ele>
        <time>2026-07-07T12:15:40.000Z</time>
      </trkpt>
      <trkpt lat="45.82693" lon="1.90895">
        <ele>751.2</ele>
        <time>2026-07-07T12:15:41.000Z</time>
      </trkpt>
      <trkpt lat="45.82691" lon="1.90892">
        <ele>752.6</ele>
        <time>2026-07-07T12:15:42.000Z</time>
      </trkpt>
      <trkpt lat="45.8269" lon="1.9089">
        <ele>753.8</ele>
        <time>2026-07-07T12:15:43.000Z</time>
      </trkpt>
      <trkpt lat="45.82689" lon="1.90887">
        <ele>754.7</ele>
        <time>2026-07-07T12:15:44.000Z</time>
      </trkpt>
      <trkpt lat="45.82689" lon="1.90885">
        <ele>755.3</ele>
        <time>2026-07-07T12:15:45.000Z</time>
      </trkpt>
      <trkpt lat="45.82688" lon="1.90883">
        <ele>755.2</ele>
        <time>2026-07-07T12:15:46.000Z</time>
      </trkpt>
      <trkpt lat="45.82689" lon="1.90881">
        <ele>754.7</ele>
        <time>2026-07-07T12:15:47.000Z</time>
      </trkpt>
      <trkpt lat="45.82689" lon="1.90879">
        <ele>755.3</ele>
        <time>2026-07-07T12:15:48.000Z</time>
      </trkpt>
      <trkpt lat="45.82688" lon="1.90877">
        <ele>755.9</ele>
        <time>2026-07-07T12:15:49.000Z</time>
      </trkpt>
      <trkpt lat="45.82688" lon="1.90875">
        <ele>756.5</ele>
        <time>2026-07-07T12:15:50.000Z</time>
      </trkpt>
      <trkpt lat="45.82687" lon="1.90873">
        <ele>756.8</ele>
        <time>2026-07-07T12:15:51.000Z</time>
      </trkpt>
      <trkpt lat="45.82687" lon="1.90871">
        <ele>757.3</ele>
        <time>2026-07-07T12:15:52.000Z</time>
      </trkpt>
      <trkpt lat="45.82686" lon="1.90868">
        <ele>758.1</ele>
        <time>2026-07-07T12:15:53.000Z</time>
      </trkpt>
      <trkpt lat="45.82686" lon="1.90866">
        <ele>758.1</ele>
        <time>2026-07-07T12:15:54.000Z</time>
      </trkpt>
      <trkpt lat="45.82686" lon="1.90864">
        <ele>757.6</ele>
        <time>2026-07-07T12:15:55.000Z</time>
      </trkpt>
      <trkpt lat="45.82685" lon="1.90862">
        <ele>757.4</ele>
        <time>2026-07-07T12:15:56.000Z</time>
      </trkpt>
      <trkpt lat="45.82685" lon="1.9086">
        <ele>756.5</ele>
        <time>2026-07-07T12:15:57.000Z</time>
      </trkpt>
      <trkpt lat="45.82684" lon="1.90859">
        <ele>756.2</ele>
        <time>2026-07-07T12:15:58.000Z</time>
      </trkpt>
      <trkpt lat="45.82683" lon="1.90857">
        <ele>753.9</ele>
        <time>2026-07-07T12:15:59.000Z</time>
      </trkpt>
      <trkpt lat="45.82682" lon="1.90854">
        <ele>753.5</ele>
        <time>2026-07-07T12:16:00.000Z</time>
      </trkpt>
      <trkpt lat="45.82681" lon="1.90852">
        <ele>753.3</ele>
        <time>2026-07-07T12:16:01.000Z</time>
      </trkpt>
      <trkpt lat="45.8268" lon="1.9085">
        <ele>754.6</ele>
        <time>2026-07-07T12:16:02.000Z</time>
      </trkpt>
      <trkpt lat="45.82679" lon="1.90848">
        <ele>754.7</ele>
        <time>2026-07-07T12:16:03.000Z</time>
      </trkpt>
      <trkpt lat="45.82678" lon="1.90846">
        <ele>754.8</ele>
        <time>2026-07-07T12:16:04.000Z</time>
      </trkpt>
      <trkpt lat="45.82677" lon="1.90844">
        <ele>753.8</ele>
        <time>2026-07-07T12:16:05.000Z</time>
      </trkpt>
      <trkpt lat="45.82675" lon="1.90842">
        <ele>753.5</ele>
        <time>2026-07-07T12:16:06.000Z</time>
      </trkpt>
      <trkpt lat="45.82674" lon="1.9084">
        <ele>753.8</ele>
        <time>2026-07-07T12:16:07.000Z</time>
      </trkpt>
      <trkpt lat="45.82673" lon="1.90838">
        <ele>753.5</ele>
        <time>2026-07-07T12:16:08.000Z</time>
      </trkpt>
      <trkpt lat="45.82672" lon="1.90836">
        <ele>753.2</ele>
        <time>2026-07-07T12:16:09.000Z</time>
      </trkpt>
      <trkpt lat="45.8267" lon="1.90834">
        <ele>752.9</ele>
        <time>2026-07-07T12:16:10.000Z</time>
      </trkpt>
      <trkpt lat="45.82669" lon="1.90832">
        <ele>753.1</ele>
        <time>2026-07-07T12:16:11.000Z</time>
      </trkpt>
      <trkpt lat="45.82668" lon="1.9083">
        <ele>752.8</ele>
        <time>2026-07-07T12:16:12.000Z</time>
      </trkpt>
      <trkpt lat="45.82667" lon="1.90828">
        <ele>752.5</ele>
        <time>2026-07-07T12:16:13.000Z</time>
      </trkpt>
      <trkpt lat="45.82666" lon="1.90826">
        <ele>753.1</ele>
        <time>2026-07-07T12:16:14.000Z</time>
      </trkpt>
      <trkpt lat="45.82665" lon="1.90824">
        <ele>752.8</ele>
        <time>2026-07-07T12:16:15.000Z</time>
      </trkpt>
      <trkpt lat="45.82664" lon="1.90821">
        <ele>753.1</ele>
        <time>2026-07-07T12:16:16.000Z</time>
      </trkpt>
      <trkpt lat="45.82664" lon="1.90819">
        <ele>753.3</ele>
        <time>2026-07-07T12:16:17.000Z</time>
      </trkpt>
      <trkpt lat="45.82663" lon="1.90817">
        <ele>753.2</ele>
        <time>2026-07-07T12:16:18.000Z</time>
      </trkpt>
      <trkpt lat="45.82662" lon="1.90815">
        <ele>752.5</ele>
        <time>2026-07-07T12:16:19.000Z</time>
      </trkpt>
      <trkpt lat="45.82661" lon="1.90813">
        <ele>752.9</ele>
        <time>2026-07-07T12:16:20.000Z</time>
      </trkpt>
      <trkpt lat="45.82661" lon="1.9081">
        <ele>753</ele>
        <time>2026-07-07T12:16:21.000Z</time>
      </trkpt>
      <trkpt lat="45.8266" lon="1.90808">
        <ele>752.8</ele>
        <time>2026-07-07T12:16:22.000Z</time>
      </trkpt>
      <trkpt lat="45.82659" lon="1.90806">
        <ele>752.5</ele>
        <time>2026-07-07T12:16:23.000Z</time>
      </trkpt>
      <trkpt lat="45.82658" lon="1.90804">
        <ele>753</ele>
        <time>2026-07-07T12:16:24.000Z</time>
      </trkpt>
      <trkpt lat="45.82657" lon="1.90802">
        <ele>753.5</ele>
        <time>2026-07-07T12:16:25.000Z</time>
      </trkpt>
      <trkpt lat="45.82657" lon="1.908">
        <ele>754.3</ele>
        <time>2026-07-07T12:16:26.000Z</time>
      </trkpt>
      <trkpt lat="45.82656" lon="1.90798">
        <ele>754.4</ele>
        <time>2026-07-07T12:16:27.000Z</time>
      </trkpt>
      <trkpt lat="45.82655" lon="1.90796">
        <ele>754.2</ele>
        <time>2026-07-07T12:16:28.000Z</time>
      </trkpt>
      <trkpt lat="45.82655" lon="1.90794">
        <ele>755.5</ele>
        <time>2026-07-07T12:16:29.000Z</time>
      </trkpt>
      <trkpt lat="45.82654" lon="1.90793">
        <ele>756.3</ele>
        <time>2026-07-07T12:16:30.000Z</time>
      </trkpt>
      <trkpt lat="45.82653" lon="1.90791">
        <ele>756.4</ele>
        <time>2026-07-07T12:16:31.000Z</time>
      </trkpt>
      <trkpt lat="45.82652" lon="1.90789">
        <ele>756.5</ele>
        <time>2026-07-07T12:16:32.000Z</time>
      </trkpt>
      <trkpt lat="45.82651" lon="1.90788">
        <ele>756.7</ele>
        <time>2026-07-07T12:16:33.000Z</time>
      </trkpt>
      <trkpt lat="45.8265" lon="1.90786">
        <ele>755.5</ele>
        <time>2026-07-07T12:16:34.000Z</time>
      </trkpt>
      <trkpt lat="45.82649" lon="1.90784">
        <ele>754.8</ele>
        <time>2026-07-07T12:16:35.000Z</time>
      </trkpt>
      <trkpt lat="45.82648" lon="1.90782">
        <ele>754.6</ele>
        <time>2026-07-07T12:16:36.000Z</time>
      </trkpt>
      <trkpt lat="45.82647" lon="1.9078">
        <ele>755</ele>
        <time>2026-07-07T12:16:37.000Z</time>
      </trkpt>
      <trkpt lat="45.82646" lon="1.90778">
        <ele>755.2</ele>
        <time>2026-07-07T12:16:38.000Z</time>
      </trkpt>
      <trkpt lat="45.82645" lon="1.90777">
        <ele>755.4</ele>
        <time>2026-07-07T12:16:39.000Z</time>
      </trkpt>
      <trkpt lat="45.82644" lon="1.90774">
        <ele>756.8</ele>
        <time>2026-07-07T12:16:40.000Z</time>
      </trkpt>
      <trkpt lat="45.82644" lon="1.90772">
        <ele>757</ele>
        <time>2026-07-07T12:16:41.000Z</time>
      </trkpt>
      <trkpt lat="45.82643" lon="1.9077">
        <ele>756.8</ele>
        <time>2026-07-07T12:16:42.000Z</time>
      </trkpt>
      <trkpt lat="45.82642" lon="1.90768">
        <ele>757.7</ele>
        <time>2026-07-07T12:16:43.000Z</time>
      </trkpt>
      <trkpt lat="45.82642" lon="1.90765">
        <ele>757.1</ele>
        <time>2026-07-07T12:16:44.000Z</time>
      </trkpt>
      <trkpt lat="45.82641" lon="1.90763">
        <ele>757.2</ele>
        <time>2026-07-07T12:16:45.000Z</time>
      </trkpt>
      <trkpt lat="45.82643" lon="1.9076">
        <ele>758.6</ele>
        <time>2026-07-07T12:16:46.000Z</time>
      </trkpt>
      <trkpt lat="45.82644" lon="1.90758">
        <ele>759.4</ele>
        <time>2026-07-07T12:16:47.000Z</time>
      </trkpt>
      <trkpt lat="45.82643" lon="1.90756">
        <ele>758.8</ele>
        <time>2026-07-07T12:16:48.000Z</time>
      </trkpt>
      <trkpt lat="45.82642" lon="1.90753">
        <ele>758.1</ele>
        <time>2026-07-07T12:16:49.000Z</time>
      </trkpt>
      <trkpt lat="45.82641" lon="1.90751">
        <ele>757.5</ele>
        <time>2026-07-07T12:16:50.000Z</time>
      </trkpt>
      <trkpt lat="45.8264" lon="1.90749">
        <ele>756.8</ele>
        <time>2026-07-07T12:16:51.000Z</time>
      </trkpt>
      <trkpt lat="45.82639" lon="1.90747">
        <ele>756.7</ele>
        <time>2026-07-07T12:16:52.000Z</time>
      </trkpt>
      <trkpt lat="45.82638" lon="1.90745">
        <ele>756.5</ele>
        <time>2026-07-07T12:16:53.000Z</time>
      </trkpt>
      <trkpt lat="45.82637" lon="1.90743">
        <ele>756.7</ele>
        <time>2026-07-07T12:16:54.000Z</time>
      </trkpt>
      <trkpt lat="45.82637" lon="1.90741">
        <ele>756.3</ele>
        <time>2026-07-07T12:16:55.000Z</time>
      </trkpt>
      <trkpt lat="45.82636" lon="1.90739">
        <ele>755.9</ele>
        <time>2026-07-07T12:16:56.000Z</time>
      </trkpt>
      <trkpt lat="45.82635" lon="1.90737">
        <ele>755.6</ele>
        <time>2026-07-07T12:16:57.000Z</time>
      </trkpt>
      <trkpt lat="45.82634" lon="1.90735">
        <ele>756.1</ele>
        <time>2026-07-07T12:16:58.000Z</time>
      </trkpt>
      <trkpt lat="45.82634" lon="1.90733">
        <ele>756.1</ele>
        <time>2026-07-07T12:16:59.000Z</time>
      </trkpt>
      <trkpt lat="45.82633" lon="1.9073">
        <ele>757.4</ele>
        <time>2026-07-07T12:17:00.000Z</time>
      </trkpt>
      <trkpt lat="45.82632" lon="1.90727">
        <ele>757.1</ele>
        <time>2026-07-07T12:17:01.000Z</time>
      </trkpt>
      <trkpt lat="45.8263" lon="1.90725">
        <ele>756.5</ele>
        <time>2026-07-07T12:17:02.000Z</time>
      </trkpt>
      <trkpt lat="45.82629" lon="1.90721">
        <ele>758.3</ele>
        <time>2026-07-07T12:17:03.000Z</time>
      </trkpt>
      <trkpt lat="45.82627" lon="1.90717">
        <ele>759.4</ele>
        <time>2026-07-07T12:17:04.000Z</time>
      </trkpt>
      <trkpt lat="45.82626" lon="1.90713">
        <ele>761.3</ele>
        <time>2026-07-07T12:17:05.000Z</time>
      </trkpt>
      <trkpt lat="45.82624" lon="1.9071">
        <ele>761.5</ele>
        <time>2026-07-07T12:17:06.000Z</time>
      </trkpt>
      <trkpt lat="45.82623" lon="1.90707">
        <ele>759.5</ele>
        <time>2026-07-07T12:17:07.000Z</time>
      </trkpt>
      <trkpt lat="45.82622" lon="1.90704">
        <ele>758.5</ele>
        <time>2026-07-07T12:17:08.000Z</time>
      </trkpt>
      <trkpt lat="45.82621" lon="1.90702">
        <ele>758.2</ele>
        <time>2026-07-07T12:17:09.000Z</time>
      </trkpt>
      <trkpt lat="45.8262" lon="1.907">
        <ele>758.5</ele>
        <time>2026-07-07T12:17:10.000Z</time>
      </trkpt>
      <trkpt lat="45.82619" lon="1.90698">
        <ele>758.9</ele>
        <time>2026-07-07T12:17:11.000Z</time>
      </trkpt>
      <trkpt lat="45.82618" lon="1.90695">
        <ele>758.3</ele>
        <time>2026-07-07T12:17:12.000Z</time>
      </trkpt>
      <trkpt lat="45.82618" lon="1.90693">
        <ele>758.3</ele>
        <time>2026-07-07T12:17:13.000Z</time>
      </trkpt>
      <trkpt lat="45.82617" lon="1.90692">
        <ele>758.1</ele>
        <time>2026-07-07T12:17:14.000Z</time>
      </trkpt>
      <trkpt lat="45.82617" lon="1.9069">
        <ele>758</ele>
        <time>2026-07-07T12:17:15.000Z</time>
      </trkpt>
      <trkpt lat="45.82616" lon="1.90688">
        <ele>757.1</ele>
        <time>2026-07-07T12:17:16.000Z</time>
      </trkpt>
      <trkpt lat="45.82615" lon="1.90687">
        <ele>756.7</ele>
        <time>2026-07-07T12:17:17.000Z</time>
      </trkpt>
      <trkpt lat="45.82614" lon="1.90685">
        <ele>756.1</ele>
        <time>2026-07-07T12:17:18.000Z</time>
      </trkpt>
      <trkpt lat="45.82613" lon="1.90683">
        <ele>755.7</ele>
        <time>2026-07-07T12:17:19.000Z</time>
      </trkpt>
      <trkpt lat="45.82612" lon="1.90682">
        <ele>755.1</ele>
        <time>2026-07-07T12:17:20.000Z</time>
      </trkpt>
      <trkpt lat="45.82612" lon="1.9068">
        <ele>755.2</ele>
        <time>2026-07-07T12:17:21.000Z</time>
      </trkpt>
      <trkpt lat="45.82611" lon="1.90678">
        <ele>755</ele>
        <time>2026-07-07T12:17:22.000Z</time>
      </trkpt>
      <trkpt lat="45.8261" lon="1.90676">
        <ele>755.1</ele>
        <time>2026-07-07T12:17:23.000Z</time>
      </trkpt>
      <trkpt lat="45.8261" lon="1.90674">
        <ele>755.1</ele>
        <time>2026-07-07T12:17:24.000Z</time>
      </trkpt>
      <trkpt lat="45.82609" lon="1.90672">
        <ele>755.1</ele>
        <time>2026-07-07T12:17:25.000Z</time>
      </trkpt>
      <trkpt lat="45.82608" lon="1.9067">
        <ele>755.3</ele>
        <time>2026-07-07T12:17:26.000Z</time>
      </trkpt>
      <trkpt lat="45.82607" lon="1.90669">
        <ele>754.8</ele>
        <time>2026-07-07T12:17:27.000Z</time>
      </trkpt>
      <trkpt lat="45.82606" lon="1.90666">
        <ele>754.8</ele>
        <time>2026-07-07T12:17:28.000Z</time>
      </trkpt>
      <trkpt lat="45.82606" lon="1.90664">
        <ele>754.6</ele>
        <time>2026-07-07T12:17:29.000Z</time>
      </trkpt>
      <trkpt lat="45.82605" lon="1.90662">
        <ele>754.5</ele>
        <time>2026-07-07T12:17:30.000Z</time>
      </trkpt>
      <trkpt lat="45.82604" lon="1.9066">
        <ele>754.1</ele>
        <time>2026-07-07T12:17:31.000Z</time>
      </trkpt>
      <trkpt lat="45.82604" lon="1.90658">
        <ele>753.8</ele>
        <time>2026-07-07T12:17:32.000Z</time>
      </trkpt>
      <trkpt lat="45.82603" lon="1.90656">
        <ele>753.8</ele>
        <time>2026-07-07T12:17:33.000Z</time>
      </trkpt>
      <trkpt lat="45.82602" lon="1.90654">
        <ele>753.9</ele>
        <time>2026-07-07T12:17:34.000Z</time>
      </trkpt>
      <trkpt lat="45.82601" lon="1.90652">
        <ele>753.8</ele>
        <time>2026-07-07T12:17:35.000Z</time>
      </trkpt>
      <trkpt lat="45.826" lon="1.9065">
        <ele>753.8</ele>
        <time>2026-07-07T12:17:36.000Z</time>
      </trkpt>
      <trkpt lat="45.82599" lon="1.90648">
        <ele>753.9</ele>
        <time>2026-07-07T12:17:37.000Z</time>
      </trkpt>
      <trkpt lat="45.82599" lon="1.90646">
        <ele>754.1</ele>
        <time>2026-07-07T12:17:38.000Z</time>
      </trkpt>
      <trkpt lat="45.82598" lon="1.90643">
        <ele>754.4</ele>
        <time>2026-07-07T12:17:39.000Z</time>
      </trkpt>
      <trkpt lat="45.82597" lon="1.90641">
        <ele>754.9</ele>
        <time>2026-07-07T12:17:40.000Z</time>
      </trkpt>
      <trkpt lat="45.82597" lon="1.90639">
        <ele>755</ele>
        <time>2026-07-07T12:17:41.000Z</time>
      </trkpt>
      <trkpt lat="45.82596" lon="1.90637">
        <ele>755.3</ele>
        <time>2026-07-07T12:17:42.000Z</time>
      </trkpt>
      <trkpt lat="45.82595" lon="1.90635">
        <ele>755.7</ele>
        <time>2026-07-07T12:17:43.000Z</time>
      </trkpt>
      <trkpt lat="45.82595" lon="1.90633">
        <ele>756.4</ele>
        <time>2026-07-07T12:17:44.000Z</time>
      </trkpt>
      <trkpt lat="45.82594" lon="1.90632">
        <ele>756.5</ele>
        <time>2026-07-07T12:17:45.000Z</time>
      </trkpt>
      <trkpt lat="45.82593" lon="1.90629">
        <ele>756.8</ele>
        <time>2026-07-07T12:17:46.000Z</time>
      </trkpt>
      <trkpt lat="45.82592" lon="1.90627">
        <ele>757.5</ele>
        <time>2026-07-07T12:17:47.000Z</time>
      </trkpt>
      <trkpt lat="45.82591" lon="1.90625">
        <ele>758</ele>
        <time>2026-07-07T12:17:48.000Z</time>
      </trkpt>
      <trkpt lat="45.82591" lon="1.90622">
        <ele>758.3</ele>
        <time>2026-07-07T12:17:49.000Z</time>
      </trkpt>
      <trkpt lat="45.8259" lon="1.9062">
        <ele>758.5</ele>
        <time>2026-07-07T12:17:50.000Z</time>
      </trkpt>
      <trkpt lat="45.82589" lon="1.90618">
        <ele>758.6</ele>
        <time>2026-07-07T12:17:51.000Z</time>
      </trkpt>
      <trkpt lat="45.82588" lon="1.90615">
        <ele>759.4</ele>
        <time>2026-07-07T12:17:52.000Z</time>
      </trkpt>
      <trkpt lat="45.82588" lon="1.90613">
        <ele>759.5</ele>
        <time>2026-07-07T12:17:53.000Z</time>
      </trkpt>
      <trkpt lat="45.82587" lon="1.90611">
        <ele>759.9</ele>
        <time>2026-07-07T12:17:54.000Z</time>
      </trkpt>
      <trkpt lat="45.82586" lon="1.90608">
        <ele>760.6</ele>
        <time>2026-07-07T12:17:55.000Z</time>
      </trkpt>
      <trkpt lat="45.82585" lon="1.90606">
        <ele>761</ele>
        <time>2026-07-07T12:17:56.000Z</time>
      </trkpt>
      <trkpt lat="45.82584" lon="1.90603">
        <ele>761.3</ele>
        <time>2026-07-07T12:17:57.000Z</time>
      </trkpt>
      <trkpt lat="45.82583" lon="1.90601">
        <ele>761.9</ele>
        <time>2026-07-07T12:17:58.000Z</time>
      </trkpt>
      <trkpt lat="45.82582" lon="1.90599">
        <ele>762.3</ele>
        <time>2026-07-07T12:17:59.000Z</time>
      </trkpt>
      <trkpt lat="45.82581" lon="1.90597">
        <ele>762.7</ele>
        <time>2026-07-07T12:18:00.000Z</time>
      </trkpt>
      <trkpt lat="45.8258" lon="1.90595">
        <ele>763</ele>
        <time>2026-07-07T12:18:01.000Z</time>
      </trkpt>
      <trkpt lat="45.82579" lon="1.90593">
        <ele>763.3</ele>
        <time>2026-07-07T12:18:02.000Z</time>
      </trkpt>
      <trkpt lat="45.82578" lon="1.90591">
        <ele>763.6</ele>
        <time>2026-07-07T12:18:03.000Z</time>
      </trkpt>
      <trkpt lat="45.82578" lon="1.9059">
        <ele>763.9</ele>
        <time>2026-07-07T12:18:04.000Z</time>
      </trkpt>
      <trkpt lat="45.82577" lon="1.90588">
        <ele>763.8</ele>
        <time>2026-07-07T12:18:05.000Z</time>
      </trkpt>
      <trkpt lat="45.82575" lon="1.90586">
        <ele>765.8</ele>
        <time>2026-07-07T12:18:06.000Z</time>
      </trkpt>
      <trkpt lat="45.82575" lon="1.90585">
        <ele>766.2</ele>
        <time>2026-07-07T12:18:07.000Z</time>
      </trkpt>
      <trkpt lat="45.82575" lon="1.90585">
        <ele>766.3</ele>
        <time>2026-07-07T12:18:08.000Z</time>
      </trkpt>
      <trkpt lat="45.82575" lon="1.90585">
        <ele>766.5</ele>
        <time>2026-07-07T12:18:09.000Z</time>
      </trkpt>
      <trkpt lat="45.82574" lon="1.90585">
        <ele>766.6</ele>
        <time>2026-07-07T12:18:10.000Z</time>
      </trkpt>
      <trkpt lat="45.82574" lon="1.90585">
        <ele>766.5</ele>
        <time>2026-07-07T12:18:11.000Z</time>
      </trkpt>
      <trkpt lat="45.82574" lon="1.90585">
        <ele>766.4</ele>
        <time>2026-07-07T12:18:12.000Z</time>
      </trkpt>
      <trkpt lat="45.82574" lon="1.90584">
        <ele>766.3</ele>
        <time>2026-07-07T12:18:13.000Z</time>
      </trkpt>
      <trkpt lat="45.82574" lon="1.90584">
        <ele>766.2</ele>
        <time>2026-07-07T12:18:14.000Z</time>
      </trkpt>
      <trkpt lat="45.82574" lon="1.90584">
        <ele>766.2</ele>
        <time>2026-07-07T12:18:15.000Z</time>
      </trkpt>
      <trkpt lat="45.82572" lon="1.90579">
        <ele>765.5</ele>
        <time>2026-07-07T12:18:16.000Z</time>
      </trkpt>
      <trkpt lat="45.82571" lon="1.90576">
        <ele>765.1</ele>
        <time>2026-07-07T12:18:17.000Z</time>
      </trkpt>
      <trkpt lat="45.8257" lon="1.90572">
        <ele>764.6</ele>
        <time>2026-07-07T12:18:18.000Z</time>
      </trkpt>
      <trkpt lat="45.82569" lon="1.90569">
        <ele>763.6</ele>
        <time>2026-07-07T12:18:19.000Z</time>
      </trkpt>
      <trkpt lat="45.82568" lon="1.90567">
        <ele>763.5</ele>
        <time>2026-07-07T12:18:20.000Z</time>
      </trkpt>
      <trkpt lat="45.82568" lon="1.90564">
        <ele>764.5</ele>
        <time>2026-07-07T12:18:21.000Z</time>
      </trkpt>
      <trkpt lat="45.82567" lon="1.90562">
        <ele>764.6</ele>
        <time>2026-07-07T12:18:22.000Z</time>
      </trkpt>
      <trkpt lat="45.82566" lon="1.90559">
        <ele>763.5</ele>
        <time>2026-07-07T12:18:23.000Z</time>
      </trkpt>
      <trkpt lat="45.82565" lon="1.90557">
        <ele>762.5</ele>
        <time>2026-07-07T12:18:24.000Z</time>
      </trkpt>
      <trkpt lat="45.82565" lon="1.90555">
        <ele>762.1</ele>
        <time>2026-07-07T12:18:25.000Z</time>
      </trkpt>
      <trkpt lat="45.82564" lon="1.90552">
        <ele>761.3</ele>
        <time>2026-07-07T12:18:26.000Z</time>
      </trkpt>
      <trkpt lat="45.82564" lon="1.9055">
        <ele>761</ele>
        <time>2026-07-07T12:18:27.000Z</time>
      </trkpt>
      <trkpt lat="45.82563" lon="1.90548">
        <ele>762.2</ele>
        <time>2026-07-07T12:18:28.000Z</time>
      </trkpt>
      <trkpt lat="45.82563" lon="1.90545">
        <ele>762.2</ele>
        <time>2026-07-07T12:18:29.000Z</time>
      </trkpt>
      <trkpt lat="45.82562" lon="1.90543">
        <ele>762.1</ele>
        <time>2026-07-07T12:18:30.000Z</time>
      </trkpt>
      <trkpt lat="45.82561" lon="1.90541">
        <ele>762.9</ele>
        <time>2026-07-07T12:18:31.000Z</time>
      </trkpt>
      <trkpt lat="45.82561" lon="1.90539">
        <ele>763</ele>
        <time>2026-07-07T12:18:32.000Z</time>
      </trkpt>
      <trkpt lat="45.8256" lon="1.90537">
        <ele>762.9</ele>
        <time>2026-07-07T12:18:33.000Z</time>
      </trkpt>
      <trkpt lat="45.8256" lon="1.90535">
        <ele>762.7</ele>
        <time>2026-07-07T12:18:34.000Z</time>
      </trkpt>
      <trkpt lat="45.82559" lon="1.90533">
        <ele>762.9</ele>
        <time>2026-07-07T12:18:35.000Z</time>
      </trkpt>
      <trkpt lat="45.82558" lon="1.90531">
        <ele>761.8</ele>
        <time>2026-07-07T12:18:36.000Z</time>
      </trkpt>
      <trkpt lat="45.82557" lon="1.90528">
        <ele>762.9</ele>
        <time>2026-07-07T12:18:37.000Z</time>
      </trkpt>
      <trkpt lat="45.82556" lon="1.90526">
        <ele>762.7</ele>
        <time>2026-07-07T12:18:38.000Z</time>
      </trkpt>
      <trkpt lat="45.82555" lon="1.90524">
        <ele>763.6</ele>
        <time>2026-07-07T12:18:39.000Z</time>
      </trkpt>
      <trkpt lat="45.82554" lon="1.90522">
        <ele>763.3</ele>
        <time>2026-07-07T12:18:40.000Z</time>
      </trkpt>
      <trkpt lat="45.82553" lon="1.9052">
        <ele>762.8</ele>
        <time>2026-07-07T12:18:41.000Z</time>
      </trkpt>
      <trkpt lat="45.82552" lon="1.90518">
        <ele>763.2</ele>
        <time>2026-07-07T12:18:42.000Z</time>
      </trkpt>
      <trkpt lat="45.82551" lon="1.90515">
        <ele>761.8</ele>
        <time>2026-07-07T12:18:43.000Z</time>
      </trkpt>
      <trkpt lat="45.8255" lon="1.90512">
        <ele>762.3</ele>
        <time>2026-07-07T12:18:44.000Z</time>
      </trkpt>
      <trkpt lat="45.82548" lon="1.90509">
        <ele>762.1</ele>
        <time>2026-07-07T12:18:45.000Z</time>
      </trkpt>
      <trkpt lat="45.82547" lon="1.90507">
        <ele>762.5</ele>
        <time>2026-07-07T12:18:46.000Z</time>
      </trkpt>
      <trkpt lat="45.82546" lon="1.90504">
        <ele>763.2</ele>
        <time>2026-07-07T12:18:47.000Z</time>
      </trkpt>
      <trkpt lat="45.82545" lon="1.90502">
        <ele>762.9</ele>
        <time>2026-07-07T12:18:48.000Z</time>
      </trkpt>
      <trkpt lat="45.82544" lon="1.905">
        <ele>763.5</ele>
        <time>2026-07-07T12:18:49.000Z</time>
      </trkpt>
      <trkpt lat="45.82543" lon="1.90497">
        <ele>763.8</ele>
        <time>2026-07-07T12:18:50.000Z</time>
      </trkpt>
      <trkpt lat="45.82542" lon="1.90495">
        <ele>764.3</ele>
        <time>2026-07-07T12:18:51.000Z</time>
      </trkpt>
      <trkpt lat="45.82541" lon="1.90493">
        <ele>764.8</ele>
        <time>2026-07-07T12:18:52.000Z</time>
      </trkpt>
      <trkpt lat="45.82539" lon="1.90491">
        <ele>765.2</ele>
        <time>2026-07-07T12:18:53.000Z</time>
      </trkpt>
      <trkpt lat="45.82538" lon="1.90489">
        <ele>765.9</ele>
        <time>2026-07-07T12:18:54.000Z</time>
      </trkpt>
      <trkpt lat="45.82537" lon="1.90487">
        <ele>765.8</ele>
        <time>2026-07-07T12:18:55.000Z</time>
      </trkpt>
      <trkpt lat="45.82536" lon="1.90485">
        <ele>764.8</ele>
        <time>2026-07-07T12:18:56.000Z</time>
      </trkpt>
      <trkpt lat="45.82535" lon="1.90483">
        <ele>764.8</ele>
        <time>2026-07-07T12:18:57.000Z</time>
      </trkpt>
      <trkpt lat="45.82533" lon="1.90482">
        <ele>764.1</ele>
        <time>2026-07-07T12:18:58.000Z</time>
      </trkpt>
      <trkpt lat="45.82533" lon="1.90478">
        <ele>764.2</ele>
        <time>2026-07-07T12:18:59.000Z</time>
      </trkpt>
      <trkpt lat="45.82533" lon="1.90475">
        <ele>764.8</ele>
        <time>2026-07-07T12:19:00.000Z</time>
      </trkpt>
      <trkpt lat="45.82532" lon="1.90472">
        <ele>764.8</ele>
        <time>2026-07-07T12:19:01.000Z</time>
      </trkpt>
      <trkpt lat="45.82531" lon="1.90469">
        <ele>765.8</ele>
        <time>2026-07-07T12:19:02.000Z</time>
      </trkpt>
      <trkpt lat="45.8253" lon="1.90467">
        <ele>766.3</ele>
        <time>2026-07-07T12:19:03.000Z</time>
      </trkpt>
      <trkpt lat="45.82529" lon="1.90464">
        <ele>765.8</ele>
        <time>2026-07-07T12:19:04.000Z</time>
      </trkpt>
      <trkpt lat="45.82528" lon="1.90462">
        <ele>765.9</ele>
        <time>2026-07-07T12:19:05.000Z</time>
      </trkpt>
      <trkpt lat="45.82526" lon="1.9046">
        <ele>765.6</ele>
        <time>2026-07-07T12:19:06.000Z</time>
      </trkpt>
      <trkpt lat="45.82525" lon="1.90458">
        <ele>765.3</ele>
        <time>2026-07-07T12:19:07.000Z</time>
      </trkpt>
      <trkpt lat="45.82523" lon="1.90456">
        <ele>764.9</ele>
        <time>2026-07-07T12:19:08.000Z</time>
      </trkpt>
      <trkpt lat="45.82522" lon="1.90454">
        <ele>764.9</ele>
        <time>2026-07-07T12:19:09.000Z</time>
      </trkpt>
      <trkpt lat="45.8252" lon="1.90453">
        <ele>765</ele>
        <time>2026-07-07T12:19:10.000Z</time>
      </trkpt>
      <trkpt lat="45.82518" lon="1.90451">
        <ele>765.6</ele>
        <time>2026-07-07T12:19:11.000Z</time>
      </trkpt>
      <trkpt lat="45.82517" lon="1.90449">
        <ele>765.4</ele>
        <time>2026-07-07T12:19:12.000Z</time>
      </trkpt>
      <trkpt lat="45.82516" lon="1.90448">
        <ele>764.6</ele>
        <time>2026-07-07T12:19:13.000Z</time>
      </trkpt>
      <trkpt lat="45.82514" lon="1.90447">
        <ele>764.6</ele>
        <time>2026-07-07T12:19:14.000Z</time>
      </trkpt>
      <trkpt lat="45.82512" lon="1.90446">
        <ele>765.5</ele>
        <time>2026-07-07T12:19:15.000Z</time>
      </trkpt>
      <trkpt lat="45.8251" lon="1.90443">
        <ele>765.9</ele>
        <time>2026-07-07T12:19:16.000Z</time>
      </trkpt>
      <trkpt lat="45.82508" lon="1.9044">
        <ele>766</ele>
        <time>2026-07-07T12:19:17.000Z</time>
      </trkpt>
      <trkpt lat="45.82507" lon="1.90438">
        <ele>765.5</ele>
        <time>2026-07-07T12:19:18.000Z</time>
      </trkpt>
      <trkpt lat="45.82505" lon="1.90435">
        <ele>765.1</ele>
        <time>2026-07-07T12:19:19.000Z</time>
      </trkpt>
      <trkpt lat="45.82503" lon="1.90433">
        <ele>764.7</ele>
        <time>2026-07-07T12:19:20.000Z</time>
      </trkpt>
      <trkpt lat="45.82501" lon="1.90431">
        <ele>764.1</ele>
        <time>2026-07-07T12:19:21.000Z</time>
      </trkpt>
      <trkpt lat="45.825" lon="1.90428">
        <ele>763.9</ele>
        <time>2026-07-07T12:19:22.000Z</time>
      </trkpt>
      <trkpt lat="45.82498" lon="1.90426">
        <ele>764.7</ele>
        <time>2026-07-07T12:19:23.000Z</time>
      </trkpt>
      <trkpt lat="45.82497" lon="1.90423">
        <ele>764</ele>
        <time>2026-07-07T12:19:24.000Z</time>
      </trkpt>
      <trkpt lat="45.82495" lon="1.90421">
        <ele>766.2</ele>
        <time>2026-07-07T12:19:25.000Z</time>
      </trkpt>
      <trkpt lat="45.82496" lon="1.90415">
        <ele>768.5</ele>
        <time>2026-07-07T12:19:26.000Z</time>
      </trkpt>
      <trkpt lat="45.82495" lon="1.90411">
        <ele>771.3</ele>
        <time>2026-07-07T12:19:27.000Z</time>
      </trkpt>
      <trkpt lat="45.82493" lon="1.90409">
        <ele>770.9</ele>
        <time>2026-07-07T12:19:28.000Z</time>
      </trkpt>
      <trkpt lat="45.82492" lon="1.90408">
        <ele>770.3</ele>
        <time>2026-07-07T12:19:29.000Z</time>
      </trkpt>
      <trkpt lat="45.8249" lon="1.90407">
        <ele>770.3</ele>
        <time>2026-07-07T12:19:30.000Z</time>
      </trkpt>
      <trkpt lat="45.82489" lon="1.90407">
        <ele>770.5</ele>
        <time>2026-07-07T12:19:31.000Z</time>
      </trkpt>
      <trkpt lat="45.82487" lon="1.90406">
        <ele>770.3</ele>
        <time>2026-07-07T12:19:32.000Z</time>
      </trkpt>
      <trkpt lat="45.82486" lon="1.90405">
        <ele>769.8</ele>
        <time>2026-07-07T12:19:33.000Z</time>
      </trkpt>
      <trkpt lat="45.82485" lon="1.90404">
        <ele>769.7</ele>
        <time>2026-07-07T12:19:34.000Z</time>
      </trkpt>
      <trkpt lat="45.82484" lon="1.90403">
        <ele>769.8</ele>
        <time>2026-07-07T12:19:35.000Z</time>
      </trkpt>
      <trkpt lat="45.82483" lon="1.90402">
        <ele>769.5</ele>
        <time>2026-07-07T12:19:36.000Z</time>
      </trkpt>
      <trkpt lat="45.82481" lon="1.90401">
        <ele>769</ele>
        <time>2026-07-07T12:19:37.000Z</time>
      </trkpt>
      <trkpt lat="45.82481" lon="1.90399">
        <ele>769.1</ele>
        <time>2026-07-07T12:19:38.000Z</time>
      </trkpt>
      <trkpt lat="45.82479" lon="1.90398">
        <ele>769.2</ele>
        <time>2026-07-07T12:19:39.000Z</time>
      </trkpt>
      <trkpt lat="45.82478" lon="1.90396">
        <ele>768.9</ele>
        <time>2026-07-07T12:19:40.000Z</time>
      </trkpt>
      <trkpt lat="45.82477" lon="1.90395">
        <ele>768.8</ele>
        <time>2026-07-07T12:19:41.000Z</time>
      </trkpt>
      <trkpt lat="45.82476" lon="1.90393">
        <ele>768.6</ele>
        <time>2026-07-07T12:19:42.000Z</time>
      </trkpt>
      <trkpt lat="45.82475" lon="1.90392">
        <ele>768.5</ele>
        <time>2026-07-07T12:19:43.000Z</time>
      </trkpt>
      <trkpt lat="45.82474" lon="1.9039">
        <ele>768.6</ele>
        <time>2026-07-07T12:19:44.000Z</time>
      </trkpt>
      <trkpt lat="45.82473" lon="1.90388">
        <ele>768.2</ele>
        <time>2026-07-07T12:19:45.000Z</time>
      </trkpt>
      <trkpt lat="45.82472" lon="1.90386">
        <ele>768.2</ele>
        <time>2026-07-07T12:19:46.000Z</time>
      </trkpt>
      <trkpt lat="45.82471" lon="1.90385">
        <ele>767.9</ele>
        <time>2026-07-07T12:19:47.000Z</time>
      </trkpt>
      <trkpt lat="45.8247" lon="1.90383">
        <ele>767.3</ele>
        <time>2026-07-07T12:19:48.000Z</time>
      </trkpt>
      <trkpt lat="45.82468" lon="1.90382">
        <ele>767.6</ele>
        <time>2026-07-07T12:19:49.000Z</time>
      </trkpt>
      <trkpt lat="45.82467" lon="1.9038">
        <ele>767.8</ele>
        <time>2026-07-07T12:19:50.000Z</time>
      </trkpt>
      <trkpt lat="45.82466" lon="1.90379">
        <ele>767.1</ele>
        <time>2026-07-07T12:19:51.000Z</time>
      </trkpt>
      <trkpt lat="45.82465" lon="1.90376">
        <ele>767.6</ele>
        <time>2026-07-07T12:19:52.000Z</time>
      </trkpt>
      <trkpt lat="45.82464" lon="1.90374">
        <ele>767.8</ele>
        <time>2026-07-07T12:19:53.000Z</time>
      </trkpt>
      <trkpt lat="45.82463" lon="1.90373">
        <ele>767.9</ele>
        <time>2026-07-07T12:19:54.000Z</time>
      </trkpt>
      <trkpt lat="45.82462" lon="1.90371">
        <ele>768</ele>
        <time>2026-07-07T12:19:55.000Z</time>
      </trkpt>
      <trkpt lat="45.82461" lon="1.90369">
        <ele>768.2</ele>
        <time>2026-07-07T12:19:56.000Z</time>
      </trkpt>
      <trkpt lat="45.8246" lon="1.90367">
        <ele>767.9</ele>
        <time>2026-07-07T12:19:57.000Z</time>
      </trkpt>
      <trkpt lat="45.82459" lon="1.90365">
        <ele>767.6</ele>
        <time>2026-07-07T12:19:58.000Z</time>
      </trkpt>
      <trkpt lat="45.82458" lon="1.90363">
        <ele>768</ele>
        <time>2026-07-07T12:19:59.000Z</time>
      </trkpt>
      <trkpt lat="45.82457" lon="1.90361">
        <ele>767.8</ele>
        <time>2026-07-07T12:20:00.000Z</time>
      </trkpt>
      <trkpt lat="45.82455" lon="1.9036">
        <ele>767.6</ele>
        <time>2026-07-07T12:20:01.000Z</time>
      </trkpt>
      <trkpt lat="45.82454" lon="1.90358">
        <ele>767.3</ele>
        <time>2026-07-07T12:20:02.000Z</time>
      </trkpt>
      <trkpt lat="45.82453" lon="1.90356">
        <ele>767.3</ele>
        <time>2026-07-07T12:20:03.000Z</time>
      </trkpt>
      <trkpt lat="45.82452" lon="1.90355">
        <ele>767.8</ele>
        <time>2026-07-07T12:20:04.000Z</time>
      </trkpt>
      <trkpt lat="45.82451" lon="1.90353">
        <ele>767.9</ele>
        <time>2026-07-07T12:20:05.000Z</time>
      </trkpt>
      <trkpt lat="45.82449" lon="1.90351">
        <ele>767.7</ele>
        <time>2026-07-07T12:20:06.000Z</time>
      </trkpt>
      <trkpt lat="45.82449" lon="1.90348">
        <ele>767.5</ele>
        <time>2026-07-07T12:20:07.000Z</time>
      </trkpt>
      <trkpt lat="45.82448" lon="1.90346">
        <ele>767.2</ele>
        <time>2026-07-07T12:20:08.000Z</time>
      </trkpt>
      <trkpt lat="45.82448" lon="1.90343">
        <ele>766.8</ele>
        <time>2026-07-07T12:20:09.000Z</time>
      </trkpt>
      <trkpt lat="45.82447" lon="1.90341">
        <ele>766.5</ele>
        <time>2026-07-07T12:20:10.000Z</time>
      </trkpt>
      <trkpt lat="45.82446" lon="1.90339">
        <ele>766.4</ele>
        <time>2026-07-07T12:20:11.000Z</time>
      </trkpt>
      <trkpt lat="45.82445" lon="1.90337">
        <ele>766</ele>
        <time>2026-07-07T12:20:12.000Z</time>
      </trkpt>
      <trkpt lat="45.82444" lon="1.90335">
        <ele>766.3</ele>
        <time>2026-07-07T12:20:13.000Z</time>
      </trkpt>
      <trkpt lat="45.82443" lon="1.90334">
        <ele>766.6</ele>
        <time>2026-07-07T12:20:14.000Z</time>
      </trkpt>
      <trkpt lat="45.82443" lon="1.90331">
        <ele>767.3</ele>
        <time>2026-07-07T12:20:15.000Z</time>
      </trkpt>
      <trkpt lat="45.82443" lon="1.9033">
        <ele>767.8</ele>
        <time>2026-07-07T12:20:16.000Z</time>
      </trkpt>
      <trkpt lat="45.82442" lon="1.90328">
        <ele>767.7</ele>
        <time>2026-07-07T12:20:17.000Z</time>
      </trkpt>
      <trkpt lat="45.82441" lon="1.90326">
        <ele>768.2</ele>
        <time>2026-07-07T12:20:18.000Z</time>
      </trkpt>
      <trkpt lat="45.82441" lon="1.90324">
        <ele>768</ele>
        <time>2026-07-07T12:20:19.000Z</time>
      </trkpt>
      <trkpt lat="45.8244" lon="1.90323">
        <ele>767.4</ele>
        <time>2026-07-07T12:20:20.000Z</time>
      </trkpt>
      <trkpt lat="45.8244" lon="1.9032">
        <ele>766.5</ele>
        <time>2026-07-07T12:20:21.000Z</time>
      </trkpt>
      <trkpt lat="45.8244" lon="1.90317">
        <ele>766</ele>
        <time>2026-07-07T12:20:22.000Z</time>
      </trkpt>
      <trkpt lat="45.82439" lon="1.90314">
        <ele>766</ele>
        <time>2026-07-07T12:20:23.000Z</time>
      </trkpt>
      <trkpt lat="45.82439" lon="1.90311">
        <ele>765.7</ele>
        <time>2026-07-07T12:20:24.000Z</time>
      </trkpt>
      <trkpt lat="45.82438" lon="1.90307">
        <ele>765</ele>
        <time>2026-07-07T12:20:25.000Z</time>
      </trkpt>
      <trkpt lat="45.82438" lon="1.90304">
        <ele>763.5</ele>
        <time>2026-07-07T12:20:26.000Z</time>
      </trkpt>
      <trkpt lat="45.82437" lon="1.90301">
        <ele>762.9</ele>
        <time>2026-07-07T12:20:27.000Z</time>
      </trkpt>
      <trkpt lat="45.82437" lon="1.90298">
        <ele>763.4</ele>
        <time>2026-07-07T12:20:28.000Z</time>
      </trkpt>
      <trkpt lat="45.82437" lon="1.90295">
        <ele>763.5</ele>
        <time>2026-07-07T12:20:29.000Z</time>
      </trkpt>
      <trkpt lat="45.82437" lon="1.90292">
        <ele>764.8</ele>
        <time>2026-07-07T12:20:30.000Z</time>
      </trkpt>
      <trkpt lat="45.82437" lon="1.90289">
        <ele>764.6</ele>
        <time>2026-07-07T12:20:31.000Z</time>
      </trkpt>
      <trkpt lat="45.82438" lon="1.90287">
        <ele>764.4</ele>
        <time>2026-07-07T12:20:32.000Z</time>
      </trkpt>
      <trkpt lat="45.82437" lon="1.90285">
        <ele>764.1</ele>
        <time>2026-07-07T12:20:33.000Z</time>
      </trkpt>
      <trkpt lat="45.82437" lon="1.90282">
        <ele>764.3</ele>
        <time>2026-07-07T12:20:34.000Z</time>
      </trkpt>
      <trkpt lat="45.82436" lon="1.9028">
        <ele>764.1</ele>
        <time>2026-07-07T12:20:35.000Z</time>
      </trkpt>
      <trkpt lat="45.82436" lon="1.90278">
        <ele>765.1</ele>
        <time>2026-07-07T12:20:36.000Z</time>
      </trkpt>
      <trkpt lat="45.82435" lon="1.90276">
        <ele>765.6</ele>
        <time>2026-07-07T12:20:37.000Z</time>
      </trkpt>
      <trkpt lat="45.82434" lon="1.90274">
        <ele>765.3</ele>
        <time>2026-07-07T12:20:38.000Z</time>
      </trkpt>
      <trkpt lat="45.82434" lon="1.90271">
        <ele>764.8</ele>
        <time>2026-07-07T12:20:39.000Z</time>
      </trkpt>
      <trkpt lat="45.82434" lon="1.9027">
        <ele>764.6</ele>
        <time>2026-07-07T12:20:40.000Z</time>
      </trkpt>
      <trkpt lat="45.82433" lon="1.90268">
        <ele>765.3</ele>
        <time>2026-07-07T12:20:41.000Z</time>
      </trkpt>
      <trkpt lat="45.82432" lon="1.90267">
        <ele>765.7</ele>
        <time>2026-07-07T12:20:42.000Z</time>
      </trkpt>
      <trkpt lat="45.82431" lon="1.90265">
        <ele>765.2</ele>
        <time>2026-07-07T12:20:43.000Z</time>
      </trkpt>
      <trkpt lat="45.82431" lon="1.90264">
        <ele>764.4</ele>
        <time>2026-07-07T12:20:44.000Z</time>
      </trkpt>
      <trkpt lat="45.8243" lon="1.90262">
        <ele>764.6</ele>
        <time>2026-07-07T12:20:45.000Z</time>
      </trkpt>
      <trkpt lat="45.82429" lon="1.9026">
        <ele>764.6</ele>
        <time>2026-07-07T12:20:46.000Z</time>
      </trkpt>
      <trkpt lat="45.82428" lon="1.90259">
        <ele>764.3</ele>
        <time>2026-07-07T12:20:47.000Z</time>
      </trkpt>
      <trkpt lat="45.82427" lon="1.90257">
        <ele>763.1</ele>
        <time>2026-07-07T12:20:48.000Z</time>
      </trkpt>
      <trkpt lat="45.82427" lon="1.90253">
        <ele>761.8</ele>
        <time>2026-07-07T12:20:49.000Z</time>
      </trkpt>
      <trkpt lat="45.82426" lon="1.9025">
        <ele>762</ele>
        <time>2026-07-07T12:20:50.000Z</time>
      </trkpt>
      <trkpt lat="45.82425" lon="1.90247">
        <ele>761.5</ele>
        <time>2026-07-07T12:20:51.000Z</time>
      </trkpt>
      <trkpt lat="45.82424" lon="1.90244">
        <ele>761.9</ele>
        <time>2026-07-07T12:20:52.000Z</time>
      </trkpt>
      <trkpt lat="45.82423" lon="1.90241">
        <ele>762.6</ele>
        <time>2026-07-07T12:20:53.000Z</time>
      </trkpt>
      <trkpt lat="45.82422" lon="1.90239">
        <ele>762.6</ele>
        <time>2026-07-07T12:20:54.000Z</time>
      </trkpt>
      <trkpt lat="45.82421" lon="1.90236">
        <ele>762.2</ele>
        <time>2026-07-07T12:20:55.000Z</time>
      </trkpt>
      <trkpt lat="45.8242" lon="1.90233">
        <ele>762.1</ele>
        <time>2026-07-07T12:20:56.000Z</time>
      </trkpt>
      <trkpt lat="45.8242" lon="1.90229">
        <ele>761.1</ele>
        <time>2026-07-07T12:20:57.000Z</time>
      </trkpt>
      <trkpt lat="45.82419" lon="1.90226">
        <ele>761.3</ele>
        <time>2026-07-07T12:20:58.000Z</time>
      </trkpt>
      <trkpt lat="45.82419" lon="1.90223">
        <ele>761.8</ele>
        <time>2026-07-07T12:20:59.000Z</time>
      </trkpt>
      <trkpt lat="45.82418" lon="1.90221">
        <ele>762.1</ele>
        <time>2026-07-07T12:21:00.000Z</time>
      </trkpt>
      <trkpt lat="45.82418" lon="1.90218">
        <ele>762.2</ele>
        <time>2026-07-07T12:21:01.000Z</time>
      </trkpt>
      <trkpt lat="45.82417" lon="1.90215">
        <ele>763.9</ele>
        <time>2026-07-07T12:21:02.000Z</time>
      </trkpt>
      <trkpt lat="45.82416" lon="1.90213">
        <ele>765.2</ele>
        <time>2026-07-07T12:21:03.000Z</time>
      </trkpt>
      <trkpt lat="45.82415" lon="1.9021">
        <ele>765.9</ele>
        <time>2026-07-07T12:21:04.000Z</time>
      </trkpt>
      <trkpt lat="45.82416" lon="1.90207">
        <ele>766.8</ele>
        <time>2026-07-07T12:21:05.000Z</time>
      </trkpt>
      <trkpt lat="45.82416" lon="1.90204">
        <ele>767.1</ele>
        <time>2026-07-07T12:21:06.000Z</time>
      </trkpt>
      <trkpt lat="45.82415" lon="1.90201">
        <ele>767.2</ele>
        <time>2026-07-07T12:21:07.000Z</time>
      </trkpt>
      <trkpt lat="45.82415" lon="1.90199">
        <ele>765.4</ele>
        <time>2026-07-07T12:21:08.000Z</time>
      </trkpt>
      <trkpt lat="45.82414" lon="1.90197">
        <ele>766.8</ele>
        <time>2026-07-07T12:21:09.000Z</time>
      </trkpt>
      <trkpt lat="45.82412" lon="1.90195">
        <ele>768</ele>
        <time>2026-07-07T12:21:10.000Z</time>
      </trkpt>
      <trkpt lat="45.82412" lon="1.90193">
        <ele>767.7</ele>
        <time>2026-07-07T12:21:11.000Z</time>
      </trkpt>
      <trkpt lat="45.82412" lon="1.90191">
        <ele>768</ele>
        <time>2026-07-07T12:21:12.000Z</time>
      </trkpt>
      <trkpt lat="45.82411" lon="1.90188">
        <ele>769</ele>
        <time>2026-07-07T12:21:13.000Z</time>
      </trkpt>
      <trkpt lat="45.82411" lon="1.90187">
        <ele>768.4</ele>
        <time>2026-07-07T12:21:14.000Z</time>
      </trkpt>
      <trkpt lat="45.82412" lon="1.90185">
        <ele>767.2</ele>
        <time>2026-07-07T12:21:15.000Z</time>
      </trkpt>
      <trkpt lat="45.82412" lon="1.90183">
        <ele>767.3</ele>
        <time>2026-07-07T12:21:16.000Z</time>
      </trkpt>
      <trkpt lat="45.82412" lon="1.90181">
        <ele>767.1</ele>
        <time>2026-07-07T12:21:17.000Z</time>
      </trkpt>
      <trkpt lat="45.82412" lon="1.9018">
        <ele>763.4</ele>
        <time>2026-07-07T12:21:18.000Z</time>
      </trkpt>
      <trkpt lat="45.82412" lon="1.90179">
        <ele>760.2</ele>
        <time>2026-07-07T12:21:19.000Z</time>
      </trkpt>
      <trkpt lat="45.82412" lon="1.90177">
        <ele>758.9</ele>
        <time>2026-07-07T12:21:20.000Z</time>
      </trkpt>
      <trkpt lat="45.82413" lon="1.90175">
        <ele>757.7</ele>
        <time>2026-07-07T12:21:21.000Z</time>
      </trkpt>
      <trkpt lat="45.82412" lon="1.90174">
        <ele>758</ele>
        <time>2026-07-07T12:21:22.000Z</time>
      </trkpt>
      <trkpt lat="45.82412" lon="1.90172">
        <ele>757.7</ele>
        <time>2026-07-07T12:21:23.000Z</time>
      </trkpt>
      <trkpt lat="45.82412" lon="1.9017">
        <ele>757.2</ele>
        <time>2026-07-07T12:21:24.000Z</time>
      </trkpt>
      <trkpt lat="45.82412" lon="1.90168">
        <ele>757.7</ele>
        <time>2026-07-07T12:21:25.000Z</time>
      </trkpt>
      <trkpt lat="45.82411" lon="1.90166">
        <ele>757.1</ele>
        <time>2026-07-07T12:21:26.000Z</time>
      </trkpt>
      <trkpt lat="45.82411" lon="1.90164">
        <ele>757.1</ele>
        <time>2026-07-07T12:21:27.000Z</time>
      </trkpt>
      <trkpt lat="45.8241" lon="1.90163">
        <ele>756.7</ele>
        <time>2026-07-07T12:21:28.000Z</time>
      </trkpt>
      <trkpt lat="45.8241" lon="1.90161">
        <ele>756.8</ele>
        <time>2026-07-07T12:21:29.000Z</time>
      </trkpt>
      <trkpt lat="45.82409" lon="1.90159">
        <ele>756.3</ele>
        <time>2026-07-07T12:21:30.000Z</time>
      </trkpt>
      <trkpt lat="45.82409" lon="1.90156">
        <ele>756.3</ele>
        <time>2026-07-07T12:21:31.000Z</time>
      </trkpt>
      <trkpt lat="45.82408" lon="1.90154">
        <ele>756.7</ele>
        <time>2026-07-07T12:21:32.000Z</time>
      </trkpt>
      <trkpt lat="45.82407" lon="1.90152">
        <ele>755.9</ele>
        <time>2026-07-07T12:21:33.000Z</time>
      </trkpt>
      <trkpt lat="45.82406" lon="1.9015">
        <ele>754.5</ele>
        <time>2026-07-07T12:21:34.000Z</time>
      </trkpt>
      <trkpt lat="45.82404" lon="1.90148">
        <ele>754.2</ele>
        <time>2026-07-07T12:21:35.000Z</time>
      </trkpt>
      <trkpt lat="45.82403" lon="1.90145">
        <ele>753.8</ele>
        <time>2026-07-07T12:21:36.000Z</time>
      </trkpt>
      <trkpt lat="45.82402" lon="1.90144">
        <ele>753.9</ele>
        <time>2026-07-07T12:21:37.000Z</time>
      </trkpt>
      <trkpt lat="45.82401" lon="1.90142">
        <ele>753.6</ele>
        <time>2026-07-07T12:21:38.000Z</time>
      </trkpt>
      <trkpt lat="45.824" lon="1.9014">
        <ele>753.9</ele>
        <time>2026-07-07T12:21:39.000Z</time>
      </trkpt>
      <trkpt lat="45.82399" lon="1.90138">
        <ele>753.8</ele>
        <time>2026-07-07T12:21:40.000Z</time>
      </trkpt>
      <trkpt lat="45.82398" lon="1.90136">
        <ele>753.4</ele>
        <time>2026-07-07T12:21:41.000Z</time>
      </trkpt>
      <trkpt lat="45.82397" lon="1.90134">
        <ele>753.9</ele>
        <time>2026-07-07T12:21:42.000Z</time>
      </trkpt>
      <trkpt lat="45.82396" lon="1.90132">
        <ele>754.5</ele>
        <time>2026-07-07T12:21:43.000Z</time>
      </trkpt>
      <trkpt lat="45.82395" lon="1.90131">
        <ele>754.7</ele>
        <time>2026-07-07T12:21:44.000Z</time>
      </trkpt>
      <trkpt lat="45.82394" lon="1.90129">
        <ele>753.9</ele>
        <time>2026-07-07T12:21:45.000Z</time>
      </trkpt>
      <trkpt lat="45.82392" lon="1.90128">
        <ele>754.1</ele>
        <time>2026-07-07T12:21:46.000Z</time>
      </trkpt>
      <trkpt lat="45.82391" lon="1.90126">
        <ele>753.3</ele>
        <time>2026-07-07T12:21:47.000Z</time>
      </trkpt>
      <trkpt lat="45.82389" lon="1.90125">
        <ele>754.1</ele>
        <time>2026-07-07T12:21:48.000Z</time>
      </trkpt>
      <trkpt lat="45.82388" lon="1.90123">
        <ele>754.5</ele>
        <time>2026-07-07T12:21:49.000Z</time>
      </trkpt>
      <trkpt lat="45.82388" lon="1.90121">
        <ele>754.1</ele>
        <time>2026-07-07T12:21:50.000Z</time>
      </trkpt>
      <trkpt lat="45.82387" lon="1.9012">
        <ele>753.9</ele>
        <time>2026-07-07T12:21:51.000Z</time>
      </trkpt>
      <trkpt lat="45.82386" lon="1.90118">
        <ele>753.4</ele>
        <time>2026-07-07T12:21:52.000Z</time>
      </trkpt>
      <trkpt lat="45.82385" lon="1.90117">
        <ele>752.4</ele>
        <time>2026-07-07T12:21:53.000Z</time>
      </trkpt>
      <trkpt lat="45.82384" lon="1.90116">
        <ele>751.6</ele>
        <time>2026-07-07T12:21:54.000Z</time>
      </trkpt>
      <trkpt lat="45.82383" lon="1.90114">
        <ele>750.9</ele>
        <time>2026-07-07T12:21:55.000Z</time>
      </trkpt>
      <trkpt lat="45.82382" lon="1.90112">
        <ele>750.2</ele>
        <time>2026-07-07T12:21:56.000Z</time>
      </trkpt>
      <trkpt lat="45.82381" lon="1.90111">
        <ele>750.4</ele>
        <time>2026-07-07T12:21:57.000Z</time>
      </trkpt>
      <trkpt lat="45.82379" lon="1.9011">
        <ele>751.4</ele>
        <time>2026-07-07T12:21:58.000Z</time>
      </trkpt>
      <trkpt lat="45.82379" lon="1.90109">
        <ele>751.8</ele>
        <time>2026-07-07T12:21:59.000Z</time>
      </trkpt>
      <trkpt lat="45.82377" lon="1.90107">
        <ele>753.1</ele>
        <time>2026-07-07T12:22:00.000Z</time>
      </trkpt>
      <trkpt lat="45.82376" lon="1.90105">
        <ele>755.3</ele>
        <time>2026-07-07T12:22:01.000Z</time>
      </trkpt>
      <trkpt lat="45.82374" lon="1.90103">
        <ele>755.8</ele>
        <time>2026-07-07T12:22:02.000Z</time>
      </trkpt>
      <trkpt lat="45.82372" lon="1.90101">
        <ele>756.3</ele>
        <time>2026-07-07T12:22:03.000Z</time>
      </trkpt>
      <trkpt lat="45.82371" lon="1.901">
        <ele>756.4</ele>
        <time>2026-07-07T12:22:04.000Z</time>
      </trkpt>
      <trkpt lat="45.8237" lon="1.90099">
        <ele>756.8</ele>
        <time>2026-07-07T12:22:05.000Z</time>
      </trkpt>
      <trkpt lat="45.82368" lon="1.90098">
        <ele>757.3</ele>
        <time>2026-07-07T12:22:06.000Z</time>
      </trkpt>
      <trkpt lat="45.82368" lon="1.90097">
        <ele>758</ele>
        <time>2026-07-07T12:22:07.000Z</time>
      </trkpt>
      <trkpt lat="45.82367" lon="1.90097">
        <ele>757.4</ele>
        <time>2026-07-07T12:22:08.000Z</time>
      </trkpt>
      <trkpt lat="45.82367" lon="1.90096">
        <ele>756.7</ele>
        <time>2026-07-07T12:22:09.000Z</time>
      </trkpt>
      <trkpt lat="45.82364" lon="1.90092">
        <ele>756.8</ele>
        <time>2026-07-07T12:22:10.000Z</time>
      </trkpt>
      <trkpt lat="45.82363" lon="1.90089">
        <ele>754.8</ele>
        <time>2026-07-07T12:22:11.000Z</time>
      </trkpt>
      <trkpt lat="45.82361" lon="1.90086">
        <ele>753.7</ele>
        <time>2026-07-07T12:22:12.000Z</time>
      </trkpt>
      <trkpt lat="45.82359" lon="1.90083">
        <ele>753.9</ele>
        <time>2026-07-07T12:22:13.000Z</time>
      </trkpt>
      <trkpt lat="45.82358" lon="1.9008">
        <ele>753.8</ele>
        <time>2026-07-07T12:22:14.000Z</time>
      </trkpt>
      <trkpt lat="45.82356" lon="1.90078">
        <ele>754.5</ele>
        <time>2026-07-07T12:22:15.000Z</time>
      </trkpt>
      <trkpt lat="45.82355" lon="1.90076">
        <ele>754.2</ele>
        <time>2026-07-07T12:22:16.000Z</time>
      </trkpt>
      <trkpt lat="45.82354" lon="1.90073">
        <ele>752.2</ele>
        <time>2026-07-07T12:22:17.000Z</time>
      </trkpt>
      <trkpt lat="45.82353" lon="1.90072">
        <ele>751.6</ele>
        <time>2026-07-07T12:22:18.000Z</time>
      </trkpt>
      <trkpt lat="45.82351" lon="1.9007">
        <ele>751.9</ele>
        <time>2026-07-07T12:22:19.000Z</time>
      </trkpt>
      <trkpt lat="45.8235" lon="1.90068">
        <ele>752.8</ele>
        <time>2026-07-07T12:22:20.000Z</time>
      </trkpt>
      <trkpt lat="45.82349" lon="1.90067">
        <ele>752.7</ele>
        <time>2026-07-07T12:22:21.000Z</time>
      </trkpt>
      <trkpt lat="45.82348" lon="1.90066">
        <ele>753.1</ele>
        <time>2026-07-07T12:22:22.000Z</time>
      </trkpt>
      <trkpt lat="45.82347" lon="1.90065">
        <ele>753.3</ele>
        <time>2026-07-07T12:22:23.000Z</time>
      </trkpt>
      <trkpt lat="45.82347" lon="1.90063">
        <ele>754.4</ele>
        <time>2026-07-07T12:22:24.000Z</time>
      </trkpt>
      <trkpt lat="45.82346" lon="1.90061">
        <ele>755.5</ele>
        <time>2026-07-07T12:22:25.000Z</time>
      </trkpt>
      <trkpt lat="45.82346" lon="1.9006">
        <ele>756.4</ele>
        <time>2026-07-07T12:22:26.000Z</time>
      </trkpt>
      <trkpt lat="45.82345" lon="1.90059">
        <ele>756.4</ele>
        <time>2026-07-07T12:22:27.000Z</time>
      </trkpt>
      <trkpt lat="45.82345" lon="1.90057">
        <ele>756.6</ele>
        <time>2026-07-07T12:22:28.000Z</time>
      </trkpt>
      <trkpt lat="45.82344" lon="1.90055">
        <ele>756.6</ele>
        <time>2026-07-07T12:22:29.000Z</time>
      </trkpt>
      <trkpt lat="45.82344" lon="1.90053">
        <ele>756.4</ele>
        <time>2026-07-07T12:22:30.000Z</time>
      </trkpt>
      <trkpt lat="45.82344" lon="1.90051">
        <ele>756.4</ele>
        <time>2026-07-07T12:22:31.000Z</time>
      </trkpt>
      <trkpt lat="45.82343" lon="1.90049">
        <ele>756.9</ele>
        <time>2026-07-07T12:22:32.000Z</time>
      </trkpt>
      <trkpt lat="45.82341" lon="1.90046">
        <ele>755.6</ele>
        <time>2026-07-07T12:22:33.000Z</time>
      </trkpt>
      <trkpt lat="45.82341" lon="1.90045">
        <ele>754.5</ele>
        <time>2026-07-07T12:22:34.000Z</time>
      </trkpt>
      <trkpt lat="45.8234" lon="1.90043">
        <ele>754.1</ele>
        <time>2026-07-07T12:22:35.000Z</time>
      </trkpt>
      <trkpt lat="45.82339" lon="1.90041">
        <ele>753.4</ele>
        <time>2026-07-07T12:22:36.000Z</time>
      </trkpt>
      <trkpt lat="45.82338" lon="1.90038">
        <ele>753.7</ele>
        <time>2026-07-07T12:22:37.000Z</time>
      </trkpt>
      <trkpt lat="45.82337" lon="1.90035">
        <ele>753.5</ele>
        <time>2026-07-07T12:22:38.000Z</time>
      </trkpt>
      <trkpt lat="45.82337" lon="1.90032">
        <ele>754.3</ele>
        <time>2026-07-07T12:22:39.000Z</time>
      </trkpt>
      <trkpt lat="45.82337" lon="1.90029">
        <ele>754.4</ele>
        <time>2026-07-07T12:22:40.000Z</time>
      </trkpt>
      <trkpt lat="45.82337" lon="1.90026">
        <ele>754</ele>
        <time>2026-07-07T12:22:41.000Z</time>
      </trkpt>
      <trkpt lat="45.82336" lon="1.90023">
        <ele>753</ele>
        <time>2026-07-07T12:22:42.000Z</time>
      </trkpt>
      <trkpt lat="45.82336" lon="1.9002">
        <ele>752.5</ele>
        <time>2026-07-07T12:22:43.000Z</time>
      </trkpt>
      <trkpt lat="45.82336" lon="1.90017">
        <ele>752.3</ele>
        <time>2026-07-07T12:22:44.000Z</time>
      </trkpt>
      <trkpt lat="45.82335" lon="1.90015">
        <ele>751.9</ele>
        <time>2026-07-07T12:22:45.000Z</time>
      </trkpt>
      <trkpt lat="45.82334" lon="1.90013">
        <ele>751.4</ele>
        <time>2026-07-07T12:22:46.000Z</time>
      </trkpt>
      <trkpt lat="45.82333" lon="1.90011">
        <ele>751.3</ele>
        <time>2026-07-07T12:22:47.000Z</time>
      </trkpt>
      <trkpt lat="45.82333" lon="1.90009">
        <ele>750.2</ele>
        <time>2026-07-07T12:22:48.000Z</time>
      </trkpt>
      <trkpt lat="45.82333" lon="1.90007">
        <ele>749.9</ele>
        <time>2026-07-07T12:22:49.000Z</time>
      </trkpt>
      <trkpt lat="45.82333" lon="1.90004">
        <ele>749.6</ele>
        <time>2026-07-07T12:22:50.000Z</time>
      </trkpt>
      <trkpt lat="45.82333" lon="1.90002">
        <ele>751.3</ele>
        <time>2026-07-07T12:22:51.000Z</time>
      </trkpt>
      <trkpt lat="45.82332" lon="1.9">
        <ele>749</ele>
        <time>2026-07-07T12:22:52.000Z</time>
      </trkpt>
      <trkpt lat="45.82332" lon="1.89998">
        <ele>748.1</ele>
        <time>2026-07-07T12:22:53.000Z</time>
      </trkpt>
      <trkpt lat="45.82332" lon="1.89996">
        <ele>747.8</ele>
        <time>2026-07-07T12:22:54.000Z</time>
      </trkpt>
      <trkpt lat="45.82331" lon="1.89994">
        <ele>747.9</ele>
        <time>2026-07-07T12:22:55.000Z</time>
      </trkpt>
      <trkpt lat="45.8233" lon="1.89993">
        <ele>747.8</ele>
        <time>2026-07-07T12:22:56.000Z</time>
      </trkpt>
      <trkpt lat="45.82329" lon="1.89991">
        <ele>749.3</ele>
        <time>2026-07-07T12:22:57.000Z</time>
      </trkpt>
      <trkpt lat="45.82328" lon="1.89989">
        <ele>749.6</ele>
        <time>2026-07-07T12:22:58.000Z</time>
      </trkpt>
      <trkpt lat="45.82328" lon="1.89988">
        <ele>750.8</ele>
        <time>2026-07-07T12:22:59.000Z</time>
      </trkpt>
      <trkpt lat="45.82327" lon="1.89986">
        <ele>750.9</ele>
        <time>2026-07-07T12:23:00.000Z</time>
      </trkpt>
      <trkpt lat="45.82326" lon="1.89985">
        <ele>751.4</ele>
        <time>2026-07-07T12:23:01.000Z</time>
      </trkpt>
      <trkpt lat="45.82325" lon="1.89983">
        <ele>751.3</ele>
        <time>2026-07-07T12:23:02.000Z</time>
      </trkpt>
      <trkpt lat="45.82324" lon="1.89982">
        <ele>752.7</ele>
        <time>2026-07-07T12:23:03.000Z</time>
      </trkpt>
      <trkpt lat="45.82323" lon="1.89981">
        <ele>752.5</ele>
        <time>2026-07-07T12:23:04.000Z</time>
      </trkpt>
      <trkpt lat="45.82322" lon="1.89979">
        <ele>752</ele>
        <time>2026-07-07T12:23:05.000Z</time>
      </trkpt>
      <trkpt lat="45.82321" lon="1.89976">
        <ele>752.6</ele>
        <time>2026-07-07T12:23:06.000Z</time>
      </trkpt>
      <trkpt lat="45.82319" lon="1.89974">
        <ele>752.7</ele>
        <time>2026-07-07T12:23:07.000Z</time>
      </trkpt>
      <trkpt lat="45.82318" lon="1.89971">
        <ele>752.7</ele>
        <time>2026-07-07T12:23:08.000Z</time>
      </trkpt>
      <trkpt lat="45.82317" lon="1.89968">
        <ele>753</ele>
        <time>2026-07-07T12:23:09.000Z</time>
      </trkpt>
      <trkpt lat="45.82316" lon="1.89965">
        <ele>752.9</ele>
        <time>2026-07-07T12:23:10.000Z</time>
      </trkpt>
      <trkpt lat="45.82314" lon="1.89963">
        <ele>752.8</ele>
        <time>2026-07-07T12:23:11.000Z</time>
      </trkpt>
      <trkpt lat="45.82313" lon="1.89961">
        <ele>752.8</ele>
        <time>2026-07-07T12:23:12.000Z</time>
      </trkpt>
      <trkpt lat="45.82312" lon="1.89959">
        <ele>752</ele>
        <time>2026-07-07T12:23:13.000Z</time>
      </trkpt>
      <trkpt lat="45.82311" lon="1.89957">
        <ele>751.4</ele>
        <time>2026-07-07T12:23:14.000Z</time>
      </trkpt>
      <trkpt lat="45.8231" lon="1.89954">
        <ele>750.1</ele>
        <time>2026-07-07T12:23:15.000Z</time>
      </trkpt>
      <trkpt lat="45.82309" lon="1.89952">
        <ele>749.5</ele>
        <time>2026-07-07T12:23:16.000Z</time>
      </trkpt>
      <trkpt lat="45.82308" lon="1.89949">
        <ele>748.7</ele>
        <time>2026-07-07T12:23:17.000Z</time>
      </trkpt>
      <trkpt lat="45.82307" lon="1.89947">
        <ele>747.8</ele>
        <time>2026-07-07T12:23:18.000Z</time>
      </trkpt>
      <trkpt lat="45.82306" lon="1.89944">
        <ele>747.3</ele>
        <time>2026-07-07T12:23:19.000Z</time>
      </trkpt>
      <trkpt lat="45.82305" lon="1.89942">
        <ele>747.2</ele>
        <time>2026-07-07T12:23:20.000Z</time>
      </trkpt>
      <trkpt lat="45.82304" lon="1.8994">
        <ele>747</ele>
        <time>2026-07-07T12:23:21.000Z</time>
      </trkpt>
      <trkpt lat="45.82304" lon="1.89938">
        <ele>745.7</ele>
        <time>2026-07-07T12:23:22.000Z</time>
      </trkpt>
      <trkpt lat="45.82303" lon="1.89936">
        <ele>744.8</ele>
        <time>2026-07-07T12:23:23.000Z</time>
      </trkpt>
      <trkpt lat="45.82302" lon="1.89933">
        <ele>743.6</ele>
        <time>2026-07-07T12:23:24.000Z</time>
      </trkpt>
      <trkpt lat="45.82301" lon="1.89931">
        <ele>743.4</ele>
        <time>2026-07-07T12:23:25.000Z</time>
      </trkpt>
      <trkpt lat="45.823" lon="1.89928">
        <ele>743.9</ele>
        <time>2026-07-07T12:23:26.000Z</time>
      </trkpt>
      <trkpt lat="45.82299" lon="1.89925">
        <ele>743.8</ele>
        <time>2026-07-07T12:23:27.000Z</time>
      </trkpt>
      <trkpt lat="45.82298" lon="1.89923">
        <ele>744.2</ele>
        <time>2026-07-07T12:23:28.000Z</time>
      </trkpt>
      <trkpt lat="45.82297" lon="1.8992">
        <ele>744.6</ele>
        <time>2026-07-07T12:23:29.000Z</time>
      </trkpt>
      <trkpt lat="45.82296" lon="1.89917">
        <ele>744.9</ele>
        <time>2026-07-07T12:23:30.000Z</time>
      </trkpt>
      <trkpt lat="45.82295" lon="1.89915">
        <ele>744.8</ele>
        <time>2026-07-07T12:23:31.000Z</time>
      </trkpt>
      <trkpt lat="45.82293" lon="1.89911">
        <ele>744.1</ele>
        <time>2026-07-07T12:23:32.000Z</time>
      </trkpt>
      <trkpt lat="45.82292" lon="1.89908">
        <ele>744.1</ele>
        <time>2026-07-07T12:23:33.000Z</time>
      </trkpt>
      <trkpt lat="45.8229" lon="1.89904">
        <ele>743.6</ele>
        <time>2026-07-07T12:23:34.000Z</time>
      </trkpt>
      <trkpt lat="45.82289" lon="1.899">
        <ele>743.2</ele>
        <time>2026-07-07T12:23:35.000Z</time>
      </trkpt>
      <trkpt lat="45.82287" lon="1.89896">
        <ele>743.3</ele>
        <time>2026-07-07T12:23:36.000Z</time>
      </trkpt>
      <trkpt lat="45.82285" lon="1.89891">
        <ele>743.2</ele>
        <time>2026-07-07T12:23:37.000Z</time>
      </trkpt>
      <trkpt lat="45.82282" lon="1.89886">
        <ele>744.7</ele>
        <time>2026-07-07T12:23:38.000Z</time>
      </trkpt>
      <trkpt lat="45.8228" lon="1.89881">
        <ele>746.2</ele>
        <time>2026-07-07T12:23:39.000Z</time>
      </trkpt>
      <trkpt lat="45.82277" lon="1.89875">
        <ele>747.7</ele>
        <time>2026-07-07T12:23:40.000Z</time>
      </trkpt>
      <trkpt lat="45.82275" lon="1.8987">
        <ele>749.4</ele>
        <time>2026-07-07T12:23:41.000Z</time>
      </trkpt>
      <trkpt lat="45.82273" lon="1.89865">
        <ele>749.4</ele>
        <time>2026-07-07T12:23:42.000Z</time>
      </trkpt>
      <trkpt lat="45.8227" lon="1.8986">
        <ele>749.1</ele>
        <time>2026-07-07T12:23:43.000Z</time>
      </trkpt>
      <trkpt lat="45.82269" lon="1.89855">
        <ele>748.4</ele>
        <time>2026-07-07T12:23:44.000Z</time>
      </trkpt>
      <trkpt lat="45.82268" lon="1.8985">
        <ele>747.2</ele>
        <time>2026-07-07T12:23:45.000Z</time>
      </trkpt>
      <trkpt lat="45.82267" lon="1.89845">
        <ele>747.1</ele>
        <time>2026-07-07T12:23:46.000Z</time>
      </trkpt>
      <trkpt lat="45.82265" lon="1.89841">
        <ele>747</ele>
        <time>2026-07-07T12:23:47.000Z</time>
      </trkpt>
      <trkpt lat="45.82264" lon="1.89836">
        <ele>746.5</ele>
        <time>2026-07-07T12:23:48.000Z</time>
      </trkpt>
      <trkpt lat="45.82262" lon="1.89832">
        <ele>746.2</ele>
        <time>2026-07-07T12:23:49.000Z</time>
      </trkpt>
      <trkpt lat="45.82262" lon="1.89826">
        <ele>746</ele>
        <time>2026-07-07T12:23:50.000Z</time>
      </trkpt>
      <trkpt lat="45.82262" lon="1.89821">
        <ele>745.9</ele>
        <time>2026-07-07T12:23:51.000Z</time>
      </trkpt>
      <trkpt lat="45.82261" lon="1.89817">
        <ele>745.9</ele>
        <time>2026-07-07T12:23:52.000Z</time>
      </trkpt>
      <trkpt lat="45.8226" lon="1.89813">
        <ele>745.8</ele>
        <time>2026-07-07T12:23:53.000Z</time>
      </trkpt>
      <trkpt lat="45.82259" lon="1.89809">
        <ele>745</ele>
        <time>2026-07-07T12:23:54.000Z</time>
      </trkpt>
      <trkpt lat="45.82258" lon="1.89805">
        <ele>745</ele>
        <time>2026-07-07T12:23:55.000Z</time>
      </trkpt>
      <trkpt lat="45.82257" lon="1.89801">
        <ele>745.1</ele>
        <time>2026-07-07T12:23:56.000Z</time>
      </trkpt>
      <trkpt lat="45.82257" lon="1.89797">
        <ele>744.8</ele>
        <time>2026-07-07T12:23:57.000Z</time>
      </trkpt>
      <trkpt lat="45.82256" lon="1.89793">
        <ele>744.7</ele>
        <time>2026-07-07T12:23:58.000Z</time>
      </trkpt>
      <trkpt lat="45.82256" lon="1.89788">
        <ele>746.4</ele>
        <time>2026-07-07T12:23:59.000Z</time>
      </trkpt>
      <trkpt lat="45.82255" lon="1.89783">
        <ele>746</ele>
        <time>2026-07-07T12:24:00.000Z</time>
      </trkpt>
      <trkpt lat="45.82253" lon="1.89781">
        <ele>746</ele>
        <time>2026-07-07T12:24:01.000Z</time>
      </trkpt>
      <trkpt lat="45.8225" lon="1.89777">
        <ele>747.9</ele>
        <time>2026-07-07T12:24:02.000Z</time>
      </trkpt>
      <trkpt lat="45.82247" lon="1.89775">
        <ele>747.2</ele>
        <time>2026-07-07T12:24:03.000Z</time>
      </trkpt>
      <trkpt lat="45.82244" lon="1.89773">
        <ele>745.2</ele>
        <time>2026-07-07T12:24:04.000Z</time>
      </trkpt>
      <trkpt lat="45.8224" lon="1.8977">
        <ele>745.9</ele>
        <time>2026-07-07T12:24:05.000Z</time>
      </trkpt>
      <trkpt lat="45.82235" lon="1.89766">
        <ele>745.5</ele>
        <time>2026-07-07T12:24:06.000Z</time>
      </trkpt>
      <trkpt lat="45.8223" lon="1.89763">
        <ele>745.5</ele>
        <time>2026-07-07T12:24:07.000Z</time>
      </trkpt>
      <trkpt lat="45.82225" lon="1.89761">
        <ele>745</ele>
        <time>2026-07-07T12:24:08.000Z</time>
      </trkpt>
      <trkpt lat="45.8222" lon="1.89759">
        <ele>745.7</ele>
        <time>2026-07-07T12:24:09.000Z</time>
      </trkpt>
      <trkpt lat="45.82215" lon="1.89757">
        <ele>745.3</ele>
        <time>2026-07-07T12:24:10.000Z</time>
      </trkpt>
      <trkpt lat="45.82211" lon="1.89755">
        <ele>744.6</ele>
        <time>2026-07-07T12:24:11.000Z</time>
      </trkpt>
      <trkpt lat="45.82205" lon="1.89754">
        <ele>743.4</ele>
        <time>2026-07-07T12:24:12.000Z</time>
      </trkpt>
      <trkpt lat="45.82199" lon="1.89754">
        <ele>743.1</ele>
        <time>2026-07-07T12:24:13.000Z</time>
      </trkpt>
      <trkpt lat="45.82193" lon="1.89753">
        <ele>742.5</ele>
        <time>2026-07-07T12:24:14.000Z</time>
      </trkpt>
      <trkpt lat="45.82187" lon="1.89749">
        <ele>741.6</ele>
        <time>2026-07-07T12:24:15.000Z</time>
      </trkpt>
      <trkpt lat="45.8218" lon="1.89745">
        <ele>741.1</ele>
        <time>2026-07-07T12:24:16.000Z</time>
      </trkpt>
      <trkpt lat="45.82174" lon="1.89743">
        <ele>740.9</ele>
        <time>2026-07-07T12:24:17.000Z</time>
      </trkpt>
      <trkpt lat="45.8217" lon="1.89743">
        <ele>740.4</ele>
        <time>2026-07-07T12:24:18.000Z</time>
      </trkpt>
      <trkpt lat="45.82169" lon="1.89743">
        <ele>739.6</ele>
        <time>2026-07-07T12:24:19.000Z</time>
      </trkpt>
      <trkpt lat="45.82169" lon="1.89744">
        <ele>739.4</ele>
        <time>2026-07-07T12:24:20.000Z</time>
      </trkpt>
      <trkpt lat="45.82168" lon="1.89743">
        <ele>738.9</ele>
        <time>2026-07-07T12:24:21.000Z</time>
      </trkpt>
      <trkpt lat="45.82167" lon="1.89742">
        <ele>738.8</ele>
        <time>2026-07-07T12:24:22.000Z</time>
      </trkpt>
      <trkpt lat="45.82164" lon="1.89738">
        <ele>741.3</ele>
        <time>2026-07-07T12:24:23.000Z</time>
      </trkpt>
      <trkpt lat="45.82161" lon="1.89735">
        <ele>741.8</ele>
        <time>2026-07-07T12:24:24.000Z</time>
      </trkpt>
      <trkpt lat="45.82159" lon="1.89732">
        <ele>742.1</ele>
        <time>2026-07-07T12:24:25.000Z</time>
      </trkpt>
      <trkpt lat="45.82156" lon="1.8973">
        <ele>742.2</ele>
        <time>2026-07-07T12:24:26.000Z</time>
      </trkpt>
      <trkpt lat="45.82153" lon="1.89727">
        <ele>742</ele>
        <time>2026-07-07T12:24:27.000Z</time>
      </trkpt>
      <trkpt lat="45.82149" lon="1.8972">
        <ele>741.3</ele>
        <time>2026-07-07T12:24:28.000Z</time>
      </trkpt>
      <trkpt lat="45.82146" lon="1.89713">
        <ele>741.1</ele>
        <time>2026-07-07T12:24:29.000Z</time>
      </trkpt>
      <trkpt lat="45.82143" lon="1.89705">
        <ele>741.8</ele>
        <time>2026-07-07T12:24:30.000Z</time>
      </trkpt>
      <trkpt lat="45.82141" lon="1.897">
        <ele>741.4</ele>
        <time>2026-07-07T12:24:31.000Z</time>
      </trkpt>
      <trkpt lat="45.82138" lon="1.89695">
        <ele>743.2</ele>
        <time>2026-07-07T12:24:32.000Z</time>
      </trkpt>
      <trkpt lat="45.82135" lon="1.89688">
        <ele>744.5</ele>
        <time>2026-07-07T12:24:33.000Z</time>
      </trkpt>
      <trkpt lat="45.82132" lon="1.89681">
        <ele>743.8</ele>
        <time>2026-07-07T12:24:34.000Z</time>
      </trkpt>
      <trkpt lat="45.82128" lon="1.89674">
        <ele>742.1</ele>
        <time>2026-07-07T12:24:35.000Z</time>
      </trkpt>
      <trkpt lat="45.82124" lon="1.89668">
        <ele>741.5</ele>
        <time>2026-07-07T12:24:36.000Z</time>
      </trkpt>
      <trkpt lat="45.82121" lon="1.89663">
        <ele>740.2</ele>
        <time>2026-07-07T12:24:37.000Z</time>
      </trkpt>
      <trkpt lat="45.82117" lon="1.89657">
        <ele>740.8</ele>
        <time>2026-07-07T12:24:38.000Z</time>
      </trkpt>
      <trkpt lat="45.82113" lon="1.89652">
        <ele>741.6</ele>
        <time>2026-07-07T12:24:39.000Z</time>
      </trkpt>
      <trkpt lat="45.8211" lon="1.89647">
        <ele>742.3</ele>
        <time>2026-07-07T12:24:40.000Z</time>
      </trkpt>
      <trkpt lat="45.82106" lon="1.89643">
        <ele>741.3</ele>
        <time>2026-07-07T12:24:41.000Z</time>
      </trkpt>
      <trkpt lat="45.82102" lon="1.89639">
        <ele>741.4</ele>
        <time>2026-07-07T12:24:42.000Z</time>
      </trkpt>
      <trkpt lat="45.82098" lon="1.89636">
        <ele>742.5</ele>
        <time>2026-07-07T12:24:43.000Z</time>
      </trkpt>
      <trkpt lat="45.82094" lon="1.89634">
        <ele>741.9</ele>
        <time>2026-07-07T12:24:44.000Z</time>
      </trkpt>
      <trkpt lat="45.8209" lon="1.89633">
        <ele>743</ele>
        <time>2026-07-07T12:24:45.000Z</time>
      </trkpt>
      <trkpt lat="45.82087" lon="1.89631">
        <ele>743.4</ele>
        <time>2026-07-07T12:24:46.000Z</time>
      </trkpt>
      <trkpt lat="45.82082" lon="1.89628">
        <ele>745.6</ele>
        <time>2026-07-07T12:24:47.000Z</time>
      </trkpt>
      <trkpt lat="45.82076" lon="1.89625">
        <ele>745.4</ele>
        <time>2026-07-07T12:24:48.000Z</time>
      </trkpt>
      <trkpt lat="45.8207" lon="1.89623">
        <ele>745.7</ele>
        <time>2026-07-07T12:24:49.000Z</time>
      </trkpt>
      <trkpt lat="45.82063" lon="1.8962">
        <ele>747</ele>
        <time>2026-07-07T12:24:50.000Z</time>
      </trkpt>
      <trkpt lat="45.82057" lon="1.89616">
        <ele>747.2</ele>
        <time>2026-07-07T12:24:51.000Z</time>
      </trkpt>
      <trkpt lat="45.82052" lon="1.89613">
        <ele>747.1</ele>
        <time>2026-07-07T12:24:52.000Z</time>
      </trkpt>
      <trkpt lat="45.82045" lon="1.8961">
        <ele>746.1</ele>
        <time>2026-07-07T12:24:53.000Z</time>
      </trkpt>
      <trkpt lat="45.82038" lon="1.89607">
        <ele>745.9</ele>
        <time>2026-07-07T12:24:54.000Z</time>
      </trkpt>
      <trkpt lat="45.82032" lon="1.89604">
        <ele>745.3</ele>
        <time>2026-07-07T12:24:55.000Z</time>
      </trkpt>
      <trkpt lat="45.82026" lon="1.89601">
        <ele>746.1</ele>
        <time>2026-07-07T12:24:56.000Z</time>
      </trkpt>
      <trkpt lat="45.82019" lon="1.896">
        <ele>747.8</ele>
        <time>2026-07-07T12:24:57.000Z</time>
      </trkpt>
      <trkpt lat="45.82014" lon="1.896">
        <ele>747.9</ele>
        <time>2026-07-07T12:24:58.000Z</time>
      </trkpt>
      <trkpt lat="45.82008" lon="1.89598">
        <ele>748.5</ele>
        <time>2026-07-07T12:24:59.000Z</time>
      </trkpt>
      <trkpt lat="45.82004" lon="1.89597">
        <ele>747.7</ele>
        <time>2026-07-07T12:25:00.000Z</time>
      </trkpt>
      <trkpt lat="45.82" lon="1.89595">
        <ele>748.8</ele>
        <time>2026-07-07T12:25:01.000Z</time>
      </trkpt>
      <trkpt lat="45.81996" lon="1.89593">
        <ele>748.7</ele>
        <time>2026-07-07T12:25:02.000Z</time>
      </trkpt>
      <trkpt lat="45.81992" lon="1.89592">
        <ele>749.5</ele>
        <time>2026-07-07T12:25:03.000Z</time>
      </trkpt>
      <trkpt lat="45.81989" lon="1.89592">
        <ele>749.4</ele>
        <time>2026-07-07T12:25:04.000Z</time>
      </trkpt>
      <trkpt lat="45.81985" lon="1.89593">
        <ele>750.2</ele>
        <time>2026-07-07T12:25:05.000Z</time>
      </trkpt>
      <trkpt lat="45.81981" lon="1.89594">
        <ele>750.1</ele>
        <time>2026-07-07T12:25:06.000Z</time>
      </trkpt>
      <trkpt lat="45.81977" lon="1.89597">
        <ele>749.7</ele>
        <time>2026-07-07T12:25:07.000Z</time>
      </trkpt>
      <trkpt lat="45.81973" lon="1.89598">
        <ele>748</ele>
        <time>2026-07-07T12:25:08.000Z</time>
      </trkpt>
      <trkpt lat="45.8197" lon="1.89599">
        <ele>748.4</ele>
        <time>2026-07-07T12:25:09.000Z</time>
      </trkpt>
      <trkpt lat="45.81967" lon="1.89599">
        <ele>748.2</ele>
        <time>2026-07-07T12:25:10.000Z</time>
      </trkpt>
      <trkpt lat="45.81964" lon="1.89599">
        <ele>748.5</ele>
        <time>2026-07-07T12:25:11.000Z</time>
      </trkpt>
      <trkpt lat="45.81963" lon="1.89598">
        <ele>749.1</ele>
        <time>2026-07-07T12:25:12.000Z</time>
      </trkpt>
      <trkpt lat="45.81962" lon="1.89596">
        <ele>749.7</ele>
        <time>2026-07-07T12:25:13.000Z</time>
      </trkpt>
      <trkpt lat="45.8196" lon="1.89595">
        <ele>750.1</ele>
        <time>2026-07-07T12:25:14.000Z</time>
      </trkpt>
      <trkpt lat="45.81959" lon="1.89595">
        <ele>749.1</ele>
        <time>2026-07-07T12:25:15.000Z</time>
      </trkpt>
      <trkpt lat="45.81957" lon="1.89596">
        <ele>748.6</ele>
        <time>2026-07-07T12:25:16.000Z</time>
      </trkpt>
      <trkpt lat="45.81955" lon="1.89596">
        <ele>747.2</ele>
        <time>2026-07-07T12:25:17.000Z</time>
      </trkpt>
      <trkpt lat="45.81952" lon="1.89597">
        <ele>747.5</ele>
        <time>2026-07-07T12:25:18.000Z</time>
      </trkpt>
      <trkpt lat="45.8195" lon="1.89597">
        <ele>746.6</ele>
        <time>2026-07-07T12:25:19.000Z</time>
      </trkpt>
      <trkpt lat="45.81947" lon="1.89597">
        <ele>747.9</ele>
        <time>2026-07-07T12:25:20.000Z</time>
      </trkpt>
      <trkpt lat="45.81945" lon="1.89597">
        <ele>748.2</ele>
        <time>2026-07-07T12:25:21.000Z</time>
      </trkpt>
      <trkpt lat="45.81944" lon="1.89597">
        <ele>748.1</ele>
        <time>2026-07-07T12:25:22.000Z</time>
      </trkpt>
      <trkpt lat="45.81942" lon="1.89596">
        <ele>748.6</ele>
        <time>2026-07-07T12:25:23.000Z</time>
      </trkpt>
      <trkpt lat="45.8194" lon="1.89593">
        <ele>750.6</ele>
        <time>2026-07-07T12:25:24.000Z</time>
      </trkpt>
      <trkpt lat="45.81938" lon="1.89591">
        <ele>751.3</ele>
        <time>2026-07-07T12:25:25.000Z</time>
      </trkpt>
      <trkpt lat="45.81936" lon="1.8959">
        <ele>752.3</ele>
        <time>2026-07-07T12:25:26.000Z</time>
      </trkpt>
      <trkpt lat="45.81934" lon="1.8959">
        <ele>753.1</ele>
        <time>2026-07-07T12:25:27.000Z</time>
      </trkpt>
      <trkpt lat="45.81932" lon="1.89592">
        <ele>754.1</ele>
        <time>2026-07-07T12:25:28.000Z</time>
      </trkpt>
      <trkpt lat="45.8193" lon="1.89593">
        <ele>753.7</ele>
        <time>2026-07-07T12:25:29.000Z</time>
      </trkpt>
      <trkpt lat="45.81928" lon="1.89595">
        <ele>754.4</ele>
        <time>2026-07-07T12:25:30.000Z</time>
      </trkpt>
      <trkpt lat="45.81926" lon="1.89598">
        <ele>755</ele>
        <time>2026-07-07T12:25:31.000Z</time>
      </trkpt>
      <trkpt lat="45.81925" lon="1.89601">
        <ele>755.8</ele>
        <time>2026-07-07T12:25:32.000Z</time>
      </trkpt>
      <trkpt lat="45.81924" lon="1.89604">
        <ele>756.6</ele>
        <time>2026-07-07T12:25:33.000Z</time>
      </trkpt>
      <trkpt lat="45.81924" lon="1.89606">
        <ele>756.8</ele>
        <time>2026-07-07T12:25:34.000Z</time>
      </trkpt>
      <trkpt lat="45.81924" lon="1.89608">
        <ele>755.2</ele>
        <time>2026-07-07T12:25:35.000Z</time>
      </trkpt>
      <trkpt lat="45.81925" lon="1.89608">
        <ele>755.1</ele>
        <time>2026-07-07T12:25:36.000Z</time>
      </trkpt>
      <trkpt lat="45.81925" lon="1.89608">
        <ele>755.6</ele>
        <time>2026-07-07T12:25:37.000Z</time>
      </trkpt>
      <trkpt lat="45.81924" lon="1.8961">
        <ele>756.8</ele>
        <time>2026-07-07T12:25:38.000Z</time>
      </trkpt>
      <trkpt lat="45.81924" lon="1.8961">
        <ele>756.5</ele>
        <time>2026-07-07T12:25:39.000Z</time>
      </trkpt>
      <trkpt lat="45.81922" lon="1.89611">
        <ele>757.1</ele>
        <time>2026-07-07T12:25:40.000Z</time>
      </trkpt>
      <trkpt lat="45.81921" lon="1.89613">
        <ele>756.5</ele>
        <time>2026-07-07T12:25:41.000Z</time>
      </trkpt>
      <trkpt lat="45.8192" lon="1.89613">
        <ele>754.2</ele>
        <time>2026-07-07T12:25:42.000Z</time>
      </trkpt>
      <trkpt lat="45.81918" lon="1.89613">
        <ele>753</ele>
        <time>2026-07-07T12:25:43.000Z</time>
      </trkpt>
      <trkpt lat="45.81919" lon="1.89617">
        <ele>752.5</ele>
        <time>2026-07-07T12:25:44.000Z</time>
      </trkpt>
      <trkpt lat="45.81923" lon="1.89617">
        <ele>752.1</ele>
        <time>2026-07-07T12:25:45.000Z</time>
      </trkpt>
      <trkpt lat="45.81926" lon="1.89614">
        <ele>754.4</ele>
        <time>2026-07-07T12:25:46.000Z</time>
      </trkpt>
      <trkpt lat="45.81928" lon="1.89613">
        <ele>755.2</ele>
        <time>2026-07-07T12:25:47.000Z</time>
      </trkpt>
      <trkpt lat="45.81929" lon="1.89612">
        <ele>755.2</ele>
        <time>2026-07-07T12:25:48.000Z</time>
      </trkpt>
      <trkpt lat="45.81931" lon="1.8961">
        <ele>754.5</ele>
        <time>2026-07-07T12:25:49.000Z</time>
      </trkpt>
      <trkpt lat="45.81934" lon="1.89608">
        <ele>754.6</ele>
        <time>2026-07-07T12:25:50.000Z</time>
      </trkpt>
      <trkpt lat="45.81936" lon="1.89607">
        <ele>753.6</ele>
        <time>2026-07-07T12:25:51.000Z</time>
      </trkpt>
      <trkpt lat="45.81938" lon="1.89607">
        <ele>754</ele>
        <time>2026-07-07T12:25:52.000Z</time>
      </trkpt>
      <trkpt lat="45.8194" lon="1.8961">
        <ele>754.1</ele>
        <time>2026-07-07T12:25:53.000Z</time>
      </trkpt>
      <trkpt lat="45.8195" lon="1.89596">
        <ele>755.9</ele>
        <time>2026-07-07T12:25:54.000Z</time>
      </trkpt>
      <trkpt lat="45.81951" lon="1.89597">
        <ele>756.1</ele>
        <time>2026-07-07T12:25:55.000Z</time>
      </trkpt>
      <trkpt lat="45.81951" lon="1.89596">
        <ele>756.9</ele>
        <time>2026-07-07T12:25:56.000Z</time>
      </trkpt>
      <trkpt lat="45.81952" lon="1.89596">
        <ele>755.7</ele>
        <time>2026-07-07T12:25:57.000Z</time>
      </trkpt>
      <trkpt lat="45.81953" lon="1.89596">
        <ele>755.8</ele>
        <time>2026-07-07T12:25:58.000Z</time>
      </trkpt>
      <trkpt lat="45.81953" lon="1.89596">
        <ele>755.6</ele>
        <time>2026-07-07T12:25:59.000Z</time>
      </trkpt>
      <trkpt lat="45.81953" lon="1.89597">
        <ele>754.3</ele>
        <time>2026-07-07T12:26:00.000Z</time>
      </trkpt>
      <trkpt lat="45.81954" lon="1.89597">
        <ele>754.4</ele>
        <time>2026-07-07T12:26:01.000Z</time>
      </trkpt>
      <trkpt lat="45.81954" lon="1.89597">
        <ele>754.2</ele>
        <time>2026-07-07T12:26:02.000Z</time>
      </trkpt>
      <trkpt lat="45.81955" lon="1.89597">
        <ele>753.8</ele>
        <time>2026-07-07T12:26:03.000Z</time>
      </trkpt>
      <trkpt lat="45.81955" lon="1.89597">
        <ele>753.9</ele>
        <time>2026-07-07T12:26:04.000Z</time>
      </trkpt>
      <trkpt lat="45.81955" lon="1.89597">
        <ele>754</ele>
        <time>2026-07-07T12:26:05.000Z</time>
      </trkpt>
      <trkpt lat="45.81957" lon="1.89597">
        <ele>753.9</ele>
        <time>2026-07-07T12:26:06.000Z</time>
      </trkpt>
      <trkpt lat="45.81958" lon="1.89597">
        <ele>754.7</ele>
        <time>2026-07-07T12:26:07.000Z</time>
      </trkpt>
      <trkpt lat="45.81961" lon="1.89596">
        <ele>754.9</ele>
        <time>2026-07-07T12:26:08.000Z</time>
      </trkpt>
      <trkpt lat="45.81963" lon="1.89597">
        <ele>754.1</ele>
        <time>2026-07-07T12:26:09.000Z</time>
      </trkpt>
      <trkpt lat="45.81965" lon="1.89598">
        <ele>754.2</ele>
        <time>2026-07-07T12:26:10.000Z</time>
      </trkpt>
      <trkpt lat="45.81969" lon="1.89596">
        <ele>753.4</ele>
        <time>2026-07-07T12:26:11.000Z</time>
      </trkpt>
      <trkpt lat="45.81971" lon="1.89596">
        <ele>753.4</ele>
        <time>2026-07-07T12:26:12.000Z</time>
      </trkpt>
      <trkpt lat="45.81973" lon="1.89596">
        <ele>752.2</ele>
        <time>2026-07-07T12:26:13.000Z</time>
      </trkpt>
      <trkpt lat="45.81974" lon="1.89596">
        <ele>752.3</ele>
        <time>2026-07-07T12:26:14.000Z</time>
      </trkpt>
      <trkpt lat="45.81976" lon="1.89597">
        <ele>752.3</ele>
        <time>2026-07-07T12:26:15.000Z</time>
      </trkpt>
      <trkpt lat="45.81977" lon="1.89597">
        <ele>752.2</ele>
        <time>2026-07-07T12:26:16.000Z</time>
      </trkpt>
      <trkpt lat="45.81978" lon="1.89595">
        <ele>752</ele>
        <time>2026-07-07T12:26:17.000Z</time>
      </trkpt>
      <trkpt lat="45.81978" lon="1.89593">
        <ele>752.1</ele>
        <time>2026-07-07T12:26:18.000Z</time>
      </trkpt>
      <trkpt lat="45.81978" lon="1.89592">
        <ele>751.8</ele>
        <time>2026-07-07T12:26:19.000Z</time>
      </trkpt>
      <trkpt lat="45.81979" lon="1.89592">
        <ele>751.9</ele>
        <time>2026-07-07T12:26:20.000Z</time>
      </trkpt>
      <trkpt lat="45.81979" lon="1.89592">
        <ele>751.9</ele>
        <time>2026-07-07T12:26:21.000Z</time>
      </trkpt>
      <trkpt lat="45.81979" lon="1.89592">
        <ele>752</ele>
        <time>2026-07-07T12:26:22.000Z</time>
      </trkpt>
      <trkpt lat="45.81979" lon="1.89591">
        <ele>751.9</ele>
        <time>2026-07-07T12:26:23.000Z</time>
      </trkpt>
      <trkpt lat="45.81979" lon="1.89589">
        <ele>751.8</ele>
        <time>2026-07-07T12:26:24.000Z</time>
      </trkpt>
      <trkpt lat="45.81979" lon="1.89587">
        <ele>751.9</ele>
        <time>2026-07-07T12:26:25.000Z</time>
      </trkpt>
      <trkpt lat="45.81979" lon="1.89585">
        <ele>751.3</ele>
        <time>2026-07-07T12:26:26.000Z</time>
      </trkpt>
      <trkpt lat="45.81979" lon="1.89584">
        <ele>750.9</ele>
        <time>2026-07-07T12:26:27.000Z</time>
      </trkpt>
      <trkpt lat="45.81978" lon="1.89582">
        <ele>750.8</ele>
        <time>2026-07-07T12:26:28.000Z</time>
      </trkpt>
      <trkpt lat="45.81977" lon="1.8958">
        <ele>750.2</ele>
        <time>2026-07-07T12:26:29.000Z</time>
      </trkpt>
      <trkpt lat="45.81977" lon="1.89578">
        <ele>750</ele>
        <time>2026-07-07T12:26:30.000Z</time>
      </trkpt>
      <trkpt lat="45.81977" lon="1.89577">
        <ele>749.7</ele>
        <time>2026-07-07T12:26:31.000Z</time>
      </trkpt>
      <trkpt lat="45.81977" lon="1.89574">
        <ele>748.7</ele>
        <time>2026-07-07T12:26:32.000Z</time>
      </trkpt>
      <trkpt lat="45.81976" lon="1.89572">
        <ele>747.9</ele>
        <time>2026-07-07T12:26:33.000Z</time>
      </trkpt>
      <trkpt lat="45.81975" lon="1.8957">
        <ele>748</ele>
        <time>2026-07-07T12:26:34.000Z</time>
      </trkpt>
      <trkpt lat="45.81975" lon="1.89568">
        <ele>747.8</ele>
        <time>2026-07-07T12:26:35.000Z</time>
      </trkpt>
      <trkpt lat="45.81975" lon="1.89566">
        <ele>748</ele>
        <time>2026-07-07T12:26:36.000Z</time>
      </trkpt>
      <trkpt lat="45.81975" lon="1.89564">
        <ele>748.4</ele>
        <time>2026-07-07T12:26:37.000Z</time>
      </trkpt>
      <trkpt lat="45.81975" lon="1.89561">
        <ele>747.7</ele>
        <time>2026-07-07T12:26:38.000Z</time>
      </trkpt>
      <trkpt lat="45.81974" lon="1.89559">
        <ele>747.3</ele>
        <time>2026-07-07T12:26:39.000Z</time>
      </trkpt>
      <trkpt lat="45.81974" lon="1.89557">
        <ele>747</ele>
        <time>2026-07-07T12:26:40.000Z</time>
      </trkpt>
      <trkpt lat="45.81973" lon="1.89556">
        <ele>746.4</ele>
        <time>2026-07-07T12:26:41.000Z</time>
      </trkpt>
      <trkpt lat="45.81973" lon="1.89554">
        <ele>745.9</ele>
        <time>2026-07-07T12:26:42.000Z</time>
      </trkpt>
      <trkpt lat="45.81972" lon="1.89552">
        <ele>747.1</ele>
        <time>2026-07-07T12:26:43.000Z</time>
      </trkpt>
      <trkpt lat="45.81972" lon="1.8955">
        <ele>747</ele>
        <time>2026-07-07T12:26:44.000Z</time>
      </trkpt>
      <trkpt lat="45.81971" lon="1.89549">
        <ele>745.9</ele>
        <time>2026-07-07T12:26:45.000Z</time>
      </trkpt>
      <trkpt lat="45.81971" lon="1.89547">
        <ele>745.2</ele>
        <time>2026-07-07T12:26:46.000Z</time>
      </trkpt>
      <trkpt lat="45.8197" lon="1.89545">
        <ele>744.4</ele>
        <time>2026-07-07T12:26:47.000Z</time>
      </trkpt>
      <trkpt lat="45.8197" lon="1.89543">
        <ele>742.9</ele>
        <time>2026-07-07T12:26:48.000Z</time>
      </trkpt>
      <trkpt lat="45.81969" lon="1.89541">
        <ele>742.2</ele>
        <time>2026-07-07T12:26:49.000Z</time>
      </trkpt>
      <trkpt lat="45.81968" lon="1.89538">
        <ele>741.7</ele>
        <time>2026-07-07T12:26:50.000Z</time>
      </trkpt>
      <trkpt lat="45.81968" lon="1.89536">
        <ele>740.9</ele>
        <time>2026-07-07T12:26:51.000Z</time>
      </trkpt>
      <trkpt lat="45.81967" lon="1.89533">
        <ele>739.6</ele>
        <time>2026-07-07T12:26:52.000Z</time>
      </trkpt>
      <trkpt lat="45.81966" lon="1.89531">
        <ele>738.9</ele>
        <time>2026-07-07T12:26:53.000Z</time>
      </trkpt>
      <trkpt lat="45.81966" lon="1.89528">
        <ele>738</ele>
        <time>2026-07-07T12:26:54.000Z</time>
      </trkpt>
      <trkpt lat="45.81965" lon="1.89526">
        <ele>737.7</ele>
        <time>2026-07-07T12:26:55.000Z</time>
      </trkpt>
      <trkpt lat="45.81964" lon="1.89523">
        <ele>737.7</ele>
        <time>2026-07-07T12:26:56.000Z</time>
      </trkpt>
      <trkpt lat="45.81963" lon="1.8952">
        <ele>737.4</ele>
        <time>2026-07-07T12:26:57.000Z</time>
      </trkpt>
      <trkpt lat="45.81962" lon="1.89517">
        <ele>736.9</ele>
        <time>2026-07-07T12:26:58.000Z</time>
      </trkpt>
      <trkpt lat="45.81961" lon="1.89515">
        <ele>736.4</ele>
        <time>2026-07-07T12:26:59.000Z</time>
      </trkpt>
      <trkpt lat="45.8196" lon="1.89512">
        <ele>736.1</ele>
        <time>2026-07-07T12:27:00.000Z</time>
      </trkpt>
      <trkpt lat="45.81959" lon="1.8951">
        <ele>736.2</ele>
        <time>2026-07-07T12:27:01.000Z</time>
      </trkpt>
      <trkpt lat="45.81958" lon="1.89507">
        <ele>736.4</ele>
        <time>2026-07-07T12:27:02.000Z</time>
      </trkpt>
      <trkpt lat="45.81956" lon="1.89505">
        <ele>736.9</ele>
        <time>2026-07-07T12:27:03.000Z</time>
      </trkpt>
      <trkpt lat="45.81955" lon="1.89502">
        <ele>737.2</ele>
        <time>2026-07-07T12:27:04.000Z</time>
      </trkpt>
      <trkpt lat="45.81953" lon="1.89501">
        <ele>737.4</ele>
        <time>2026-07-07T12:27:05.000Z</time>
      </trkpt>
      <trkpt lat="45.81952" lon="1.89499">
        <ele>737.8</ele>
        <time>2026-07-07T12:27:06.000Z</time>
      </trkpt>
      <trkpt lat="45.81951" lon="1.89497">
        <ele>738.5</ele>
        <time>2026-07-07T12:27:07.000Z</time>
      </trkpt>
      <trkpt lat="45.8195" lon="1.89495">
        <ele>739</ele>
        <time>2026-07-07T12:27:08.000Z</time>
      </trkpt>
      <trkpt lat="45.81949" lon="1.89494">
        <ele>739.3</ele>
        <time>2026-07-07T12:27:09.000Z</time>
      </trkpt>
      <trkpt lat="45.81948" lon="1.89492">
        <ele>739.5</ele>
        <time>2026-07-07T12:27:10.000Z</time>
      </trkpt>
      <trkpt lat="45.81947" lon="1.8949">
        <ele>738.6</ele>
        <time>2026-07-07T12:27:11.000Z</time>
      </trkpt>
      <trkpt lat="45.81945" lon="1.89487">
        <ele>738.8</ele>
        <time>2026-07-07T12:27:12.000Z</time>
      </trkpt>
      <trkpt lat="45.81944" lon="1.89485">
        <ele>738.1</ele>
        <time>2026-07-07T12:27:13.000Z</time>
      </trkpt>
      <trkpt lat="45.81942" lon="1.89484">
        <ele>737.6</ele>
        <time>2026-07-07T12:27:14.000Z</time>
      </trkpt>
      <trkpt lat="45.8194" lon="1.89482">
        <ele>737.4</ele>
        <time>2026-07-07T12:27:15.000Z</time>
      </trkpt>
      <trkpt lat="45.81937" lon="1.8948">
        <ele>737.9</ele>
        <time>2026-07-07T12:27:16.000Z</time>
      </trkpt>
      <trkpt lat="45.81936" lon="1.89478">
        <ele>736.5</ele>
        <time>2026-07-07T12:27:17.000Z</time>
      </trkpt>
      <trkpt lat="45.81934" lon="1.89475">
        <ele>735.9</ele>
        <time>2026-07-07T12:27:18.000Z</time>
      </trkpt>
      <trkpt lat="45.81931" lon="1.89473">
        <ele>736</ele>
        <time>2026-07-07T12:27:19.000Z</time>
      </trkpt>
      <trkpt lat="45.8193" lon="1.89472">
        <ele>736.2</ele>
        <time>2026-07-07T12:27:20.000Z</time>
      </trkpt>
      <trkpt lat="45.81928" lon="1.8947">
        <ele>736.4</ele>
        <time>2026-07-07T12:27:21.000Z</time>
      </trkpt>
      <trkpt lat="45.81927" lon="1.89468">
        <ele>737.1</ele>
        <time>2026-07-07T12:27:22.000Z</time>
      </trkpt>
      <trkpt lat="45.81925" lon="1.89467">
        <ele>737.6</ele>
        <time>2026-07-07T12:27:23.000Z</time>
      </trkpt>
      <trkpt lat="45.81924" lon="1.89465">
        <ele>738.2</ele>
        <time>2026-07-07T12:27:24.000Z</time>
      </trkpt>
      <trkpt lat="45.81923" lon="1.89464">
        <ele>739</ele>
        <time>2026-07-07T12:27:25.000Z</time>
      </trkpt>
      <trkpt lat="45.81921" lon="1.89462">
        <ele>738.8</ele>
        <time>2026-07-07T12:27:26.000Z</time>
      </trkpt>
      <trkpt lat="45.8192" lon="1.89461">
        <ele>738.2</ele>
        <time>2026-07-07T12:27:27.000Z</time>
      </trkpt>
      <trkpt lat="45.81919" lon="1.8946">
        <ele>737.8</ele>
        <time>2026-07-07T12:27:28.000Z</time>
      </trkpt>
      <trkpt lat="45.81918" lon="1.89459">
        <ele>738</ele>
        <time>2026-07-07T12:27:29.000Z</time>
      </trkpt>
      <trkpt lat="45.81917" lon="1.89457">
        <ele>739</ele>
        <time>2026-07-07T12:27:30.000Z</time>
      </trkpt>
      <trkpt lat="45.81915" lon="1.89455">
        <ele>739.2</ele>
        <time>2026-07-07T12:27:31.000Z</time>
      </trkpt>
      <trkpt lat="45.81915" lon="1.89454">
        <ele>738.8</ele>
        <time>2026-07-07T12:27:32.000Z</time>
      </trkpt>
      <trkpt lat="45.81915" lon="1.89452">
        <ele>737.4</ele>
        <time>2026-07-07T12:27:33.000Z</time>
      </trkpt>
      <trkpt lat="45.81914" lon="1.89451">
        <ele>738.7</ele>
        <time>2026-07-07T12:27:34.000Z</time>
      </trkpt>
      <trkpt lat="45.81912" lon="1.89449">
        <ele>738.8</ele>
        <time>2026-07-07T12:27:35.000Z</time>
      </trkpt>
      <trkpt lat="45.81912" lon="1.89447">
        <ele>737.6</ele>
        <time>2026-07-07T12:27:36.000Z</time>
      </trkpt>
      <trkpt lat="45.81911" lon="1.89446">
        <ele>737.8</ele>
        <time>2026-07-07T12:27:37.000Z</time>
      </trkpt>
      <trkpt lat="45.8191" lon="1.89444">
        <ele>738.9</ele>
        <time>2026-07-07T12:27:38.000Z</time>
      </trkpt>
      <trkpt lat="45.8191" lon="1.89443">
        <ele>738.7</ele>
        <time>2026-07-07T12:27:39.000Z</time>
      </trkpt>
      <trkpt lat="45.81909" lon="1.89441">
        <ele>739.3</ele>
        <time>2026-07-07T12:27:40.000Z</time>
      </trkpt>
      <trkpt lat="45.81909" lon="1.89439">
        <ele>738.7</ele>
        <time>2026-07-07T12:27:41.000Z</time>
      </trkpt>
      <trkpt lat="45.81907" lon="1.89437">
        <ele>737.8</ele>
        <time>2026-07-07T12:27:42.000Z</time>
      </trkpt>
      <trkpt lat="45.81906" lon="1.89435">
        <ele>736.2</ele>
        <time>2026-07-07T12:27:43.000Z</time>
      </trkpt>
      <trkpt lat="45.81906" lon="1.89432">
        <ele>735.1</ele>
        <time>2026-07-07T12:27:44.000Z</time>
      </trkpt>
      <trkpt lat="45.81906" lon="1.8943">
        <ele>734.3</ele>
        <time>2026-07-07T12:27:45.000Z</time>
      </trkpt>
      <trkpt lat="45.81907" lon="1.89427">
        <ele>735</ele>
        <time>2026-07-07T12:27:46.000Z</time>
      </trkpt>
      <trkpt lat="45.81909" lon="1.89425">
        <ele>734.6</ele>
        <time>2026-07-07T12:27:47.000Z</time>
      </trkpt>
      <trkpt lat="45.8191" lon="1.89422">
        <ele>734.2</ele>
        <time>2026-07-07T12:27:48.000Z</time>
      </trkpt>
      <trkpt lat="45.8191" lon="1.8942">
        <ele>733.9</ele>
        <time>2026-07-07T12:27:49.000Z</time>
      </trkpt>
      <trkpt lat="45.8191" lon="1.89416">
        <ele>731.7</ele>
        <time>2026-07-07T12:27:50.000Z</time>
      </trkpt>
      <trkpt lat="45.81911" lon="1.89411">
        <ele>732.1</ele>
        <time>2026-07-07T12:27:51.000Z</time>
      </trkpt>
      <trkpt lat="45.81911" lon="1.89408">
        <ele>732.1</ele>
        <time>2026-07-07T12:27:52.000Z</time>
      </trkpt>
      <trkpt lat="45.81911" lon="1.89404">
        <ele>732.7</ele>
        <time>2026-07-07T12:27:53.000Z</time>
      </trkpt>
      <trkpt lat="45.81911" lon="1.89401">
        <ele>732.6</ele>
        <time>2026-07-07T12:27:54.000Z</time>
      </trkpt>
      <trkpt lat="45.81911" lon="1.89397">
        <ele>734.8</ele>
        <time>2026-07-07T12:27:55.000Z</time>
      </trkpt>
      <trkpt lat="45.81912" lon="1.89394">
        <ele>734.5</ele>
        <time>2026-07-07T12:27:56.000Z</time>
      </trkpt>
      <trkpt lat="45.81912" lon="1.89391">
        <ele>734.3</ele>
        <time>2026-07-07T12:27:57.000Z</time>
      </trkpt>
      <trkpt lat="45.81912" lon="1.89389">
        <ele>734.1</ele>
        <time>2026-07-07T12:27:58.000Z</time>
      </trkpt>
      <trkpt lat="45.81912" lon="1.89386">
        <ele>737.5</ele>
        <time>2026-07-07T12:27:59.000Z</time>
      </trkpt>
      <trkpt lat="45.81912" lon="1.89383">
        <ele>739.7</ele>
        <time>2026-07-07T12:28:00.000Z</time>
      </trkpt>
      <trkpt lat="45.81912" lon="1.8938">
        <ele>741.4</ele>
        <time>2026-07-07T12:28:01.000Z</time>
      </trkpt>
      <trkpt lat="45.81912" lon="1.89377">
        <ele>742.6</ele>
        <time>2026-07-07T12:28:02.000Z</time>
      </trkpt>
      <trkpt lat="45.81913" lon="1.89374">
        <ele>744.4</ele>
        <time>2026-07-07T12:28:03.000Z</time>
      </trkpt>
      <trkpt lat="45.81914" lon="1.8937">
        <ele>746</ele>
        <time>2026-07-07T12:28:04.000Z</time>
      </trkpt>
      <trkpt lat="45.81914" lon="1.89367">
        <ele>746.4</ele>
        <time>2026-07-07T12:28:05.000Z</time>
      </trkpt>
      <trkpt lat="45.81915" lon="1.89365">
        <ele>746.9</ele>
        <time>2026-07-07T12:28:06.000Z</time>
      </trkpt>
      <trkpt lat="45.81915" lon="1.89362">
        <ele>747.3</ele>
        <time>2026-07-07T12:28:07.000Z</time>
      </trkpt>
      <trkpt lat="45.81916" lon="1.89359">
        <ele>746.4</ele>
        <time>2026-07-07T12:28:08.000Z</time>
      </trkpt>
      <trkpt lat="45.81916" lon="1.89357">
        <ele>747.9</ele>
        <time>2026-07-07T12:28:09.000Z</time>
      </trkpt>
      <trkpt lat="45.81915" lon="1.89354">
        <ele>747.8</ele>
        <time>2026-07-07T12:28:10.000Z</time>
      </trkpt>
      <trkpt lat="45.81915" lon="1.89351">
        <ele>747.6</ele>
        <time>2026-07-07T12:28:11.000Z</time>
      </trkpt>
      <trkpt lat="45.81915" lon="1.89349">
        <ele>747.6</ele>
        <time>2026-07-07T12:28:12.000Z</time>
      </trkpt>
      <trkpt lat="45.81915" lon="1.89346">
        <ele>747.2</ele>
        <time>2026-07-07T12:28:13.000Z</time>
      </trkpt>
      <trkpt lat="45.81915" lon="1.89343">
        <ele>746.7</ele>
        <time>2026-07-07T12:28:14.000Z</time>
      </trkpt>
      <trkpt lat="45.81915" lon="1.8934">
        <ele>747.2</ele>
        <time>2026-07-07T12:28:15.000Z</time>
      </trkpt>
      <trkpt lat="45.81916" lon="1.89338">
        <ele>747.1</ele>
        <time>2026-07-07T12:28:16.000Z</time>
      </trkpt>
      <trkpt lat="45.81916" lon="1.89335">
        <ele>748</ele>
        <time>2026-07-07T12:28:17.000Z</time>
      </trkpt>
      <trkpt lat="45.81916" lon="1.89333">
        <ele>748.3</ele>
        <time>2026-07-07T12:28:18.000Z</time>
      </trkpt>
      <trkpt lat="45.81916" lon="1.89331">
        <ele>748.6</ele>
        <time>2026-07-07T12:28:19.000Z</time>
      </trkpt>
      <trkpt lat="45.81917" lon="1.89329">
        <ele>748.5</ele>
        <time>2026-07-07T12:28:20.000Z</time>
      </trkpt>
      <trkpt lat="45.81918" lon="1.89327">
        <ele>748.3</ele>
        <time>2026-07-07T12:28:21.000Z</time>
      </trkpt>
      <trkpt lat="45.81919" lon="1.89325">
        <ele>748.7</ele>
        <time>2026-07-07T12:28:22.000Z</time>
      </trkpt>
      <trkpt lat="45.81919" lon="1.89323">
        <ele>748.9</ele>
        <time>2026-07-07T12:28:23.000Z</time>
      </trkpt>
      <trkpt lat="45.8192" lon="1.89322">
        <ele>748.7</ele>
        <time>2026-07-07T12:28:24.000Z</time>
      </trkpt>
      <trkpt lat="45.81922" lon="1.8932">
        <ele>748.1</ele>
        <time>2026-07-07T12:28:25.000Z</time>
      </trkpt>
      <trkpt lat="45.81922" lon="1.89318">
        <ele>748.5</ele>
        <time>2026-07-07T12:28:26.000Z</time>
      </trkpt>
      <trkpt lat="45.81923" lon="1.89317">
        <ele>748.8</ele>
        <time>2026-07-07T12:28:27.000Z</time>
      </trkpt>
      <trkpt lat="45.81923" lon="1.89315">
        <ele>748.8</ele>
        <time>2026-07-07T12:28:28.000Z</time>
      </trkpt>
      <trkpt lat="45.81924" lon="1.89313">
        <ele>748.3</ele>
        <time>2026-07-07T12:28:29.000Z</time>
      </trkpt>
      <trkpt lat="45.81926" lon="1.89313">
        <ele>747.2</ele>
        <time>2026-07-07T12:28:30.000Z</time>
      </trkpt>
      <trkpt lat="45.81926" lon="1.8931">
        <ele>747</ele>
        <time>2026-07-07T12:28:31.000Z</time>
      </trkpt>
      <trkpt lat="45.81926" lon="1.89308">
        <ele>748.2</ele>
        <time>2026-07-07T12:28:32.000Z</time>
      </trkpt>
      <trkpt lat="45.81927" lon="1.89305">
        <ele>747</ele>
        <time>2026-07-07T12:28:33.000Z</time>
      </trkpt>
      <trkpt lat="45.81927" lon="1.89303">
        <ele>747.1</ele>
        <time>2026-07-07T12:28:34.000Z</time>
      </trkpt>
      <trkpt lat="45.81928" lon="1.893">
        <ele>748.2</ele>
        <time>2026-07-07T12:28:35.000Z</time>
      </trkpt>
      <trkpt lat="45.81928" lon="1.89298">
        <ele>749.8</ele>
        <time>2026-07-07T12:28:36.000Z</time>
      </trkpt>
      <trkpt lat="45.8193" lon="1.89296">
        <ele>749.8</ele>
        <time>2026-07-07T12:28:37.000Z</time>
      </trkpt>
      <trkpt lat="45.81931" lon="1.89294">
        <ele>748.2</ele>
        <time>2026-07-07T12:28:38.000Z</time>
      </trkpt>
      <trkpt lat="45.81931" lon="1.89292">
        <ele>746.9</ele>
        <time>2026-07-07T12:28:39.000Z</time>
      </trkpt>
      <trkpt lat="45.81932" lon="1.89289">
        <ele>745.7</ele>
        <time>2026-07-07T12:28:40.000Z</time>
      </trkpt>
      <trkpt lat="45.81933" lon="1.89287">
        <ele>745.6</ele>
        <time>2026-07-07T12:28:41.000Z</time>
      </trkpt>
      <trkpt lat="45.81933" lon="1.89285">
        <ele>744.7</ele>
        <time>2026-07-07T12:28:42.000Z</time>
      </trkpt>
      <trkpt lat="45.81934" lon="1.89282">
        <ele>744.6</ele>
        <time>2026-07-07T12:28:43.000Z</time>
      </trkpt>
      <trkpt lat="45.81935" lon="1.89279">
        <ele>743.6</ele>
        <time>2026-07-07T12:28:44.000Z</time>
      </trkpt>
      <trkpt lat="45.81935" lon="1.89276">
        <ele>743.6</ele>
        <time>2026-07-07T12:28:45.000Z</time>
      </trkpt>
      <trkpt lat="45.81936" lon="1.89274">
        <ele>742</ele>
        <time>2026-07-07T12:28:46.000Z</time>
      </trkpt>
      <trkpt lat="45.81936" lon="1.89271">
        <ele>741.7</ele>
        <time>2026-07-07T12:28:47.000Z</time>
      </trkpt>
      <trkpt lat="45.81937" lon="1.89268">
        <ele>741.5</ele>
        <time>2026-07-07T12:28:48.000Z</time>
      </trkpt>
      <trkpt lat="45.81937" lon="1.89266">
        <ele>740.9</ele>
        <time>2026-07-07T12:28:49.000Z</time>
      </trkpt>
      <trkpt lat="45.81937" lon="1.89263">
        <ele>740.7</ele>
        <time>2026-07-07T12:28:50.000Z</time>
      </trkpt>
      <trkpt lat="45.81938" lon="1.8926">
        <ele>742.6</ele>
        <time>2026-07-07T12:28:51.000Z</time>
      </trkpt>
      <trkpt lat="45.81933" lon="1.89261">
        <ele>741.6</ele>
        <time>2026-07-07T12:28:52.000Z</time>
      </trkpt>
      <trkpt lat="45.81933" lon="1.89258">
        <ele>742.1</ele>
        <time>2026-07-07T12:28:53.000Z</time>
      </trkpt>
      <trkpt lat="45.81932" lon="1.89256">
        <ele>742</ele>
        <time>2026-07-07T12:28:54.000Z</time>
      </trkpt>
      <trkpt lat="45.81933" lon="1.89252">
        <ele>741.1</ele>
        <time>2026-07-07T12:28:55.000Z</time>
      </trkpt>
      <trkpt lat="45.81933" lon="1.89249">
        <ele>742.1</ele>
        <time>2026-07-07T12:28:56.000Z</time>
      </trkpt>
      <trkpt lat="45.81932" lon="1.89247">
        <ele>741.2</ele>
        <time>2026-07-07T12:28:57.000Z</time>
      </trkpt>
      <trkpt lat="45.81932" lon="1.89245">
        <ele>740.6</ele>
        <time>2026-07-07T12:28:58.000Z</time>
      </trkpt>
      <trkpt lat="45.81932" lon="1.89242">
        <ele>740.6</ele>
        <time>2026-07-07T12:28:59.000Z</time>
      </trkpt>
      <trkpt lat="45.81932" lon="1.89239">
        <ele>740.3</ele>
        <time>2026-07-07T12:29:00.000Z</time>
      </trkpt>
      <trkpt lat="45.81933" lon="1.89236">
        <ele>740.2</ele>
        <time>2026-07-07T12:29:01.000Z</time>
      </trkpt>
      <trkpt lat="45.81933" lon="1.89234">
        <ele>740.1</ele>
        <time>2026-07-07T12:29:02.000Z</time>
      </trkpt>
      <trkpt lat="45.81933" lon="1.89231">
        <ele>740.2</ele>
        <time>2026-07-07T12:29:03.000Z</time>
      </trkpt>
      <trkpt lat="45.81933" lon="1.89229">
        <ele>740</ele>
        <time>2026-07-07T12:29:04.000Z</time>
      </trkpt>
      <trkpt lat="45.81933" lon="1.89226">
        <ele>741</ele>
        <time>2026-07-07T12:29:05.000Z</time>
      </trkpt>
      <trkpt lat="45.81933" lon="1.89223">
        <ele>741.2</ele>
        <time>2026-07-07T12:29:06.000Z</time>
      </trkpt>
      <trkpt lat="45.81933" lon="1.89223">
        <ele>742.6</ele>
        <time>2026-07-07T12:29:07.000Z</time>
      </trkpt>
      <trkpt lat="45.81933" lon="1.89223">
        <ele>742.8</ele>
        <time>2026-07-07T12:29:08.000Z</time>
      </trkpt>
      <trkpt lat="45.81933" lon="1.89223">
        <ele>742.8</ele>
        <time>2026-07-07T12:29:09.000Z</time>
      </trkpt>
      <trkpt lat="45.81933" lon="1.89223">
        <ele>741.3</ele>
        <time>2026-07-07T12:29:10.000Z</time>
      </trkpt>
      <trkpt lat="45.81933" lon="1.89223">
        <ele>741.3</ele>
        <time>2026-07-07T12:29:11.000Z</time>
      </trkpt>
      <trkpt lat="45.81933" lon="1.89223">
        <ele>741.3</ele>
        <time>2026-07-07T12:29:12.000Z</time>
      </trkpt>
      <trkpt lat="45.81933" lon="1.89223">
        <ele>741.3</ele>
        <time>2026-07-07T12:29:13.000Z</time>
      </trkpt>
      <trkpt lat="45.81933" lon="1.89223">
        <ele>741.3</ele>
        <time>2026-07-07T12:29:14.000Z</time>
      </trkpt>
      <trkpt lat="45.81933" lon="1.89223">
        <ele>741.3</ele>
        <time>2026-07-07T12:29:15.000Z</time>
      </trkpt>
      <trkpt lat="45.81933" lon="1.89223">
        <ele>741.3</ele>
        <time>2026-07-07T12:29:16.000Z</time>
      </trkpt>
      <trkpt lat="45.81933" lon="1.89223">
        <ele>741.1</ele>
        <time>2026-07-07T12:29:17.000Z</time>
      </trkpt>
      <trkpt lat="45.81933" lon="1.89222">
        <ele>741.1</ele>
        <time>2026-07-07T12:29:18.000Z</time>
      </trkpt>
      <trkpt lat="45.81933" lon="1.89222">
        <ele>741.1</ele>
        <time>2026-07-07T12:29:19.000Z</time>
      </trkpt>
      <trkpt lat="45.81933" lon="1.89221">
        <ele>741.3</ele>
        <time>2026-07-07T12:29:20.000Z</time>
      </trkpt>
      <trkpt lat="45.81933" lon="1.89221">
        <ele>740.9</ele>
        <time>2026-07-07T12:29:21.000Z</time>
      </trkpt>
      <trkpt lat="45.81932" lon="1.89221">
        <ele>740.7</ele>
        <time>2026-07-07T12:29:22.000Z</time>
      </trkpt>
      <trkpt lat="45.81933" lon="1.8922">
        <ele>740.4</ele>
        <time>2026-07-07T12:29:23.000Z</time>
      </trkpt>
      <trkpt lat="45.81933" lon="1.89221">
        <ele>740.4</ele>
        <time>2026-07-07T12:29:24.000Z</time>
      </trkpt>
      <trkpt lat="45.81933" lon="1.89221">
        <ele>740.4</ele>
        <time>2026-07-07T12:29:25.000Z</time>
      </trkpt>
      <trkpt lat="45.81933" lon="1.89222">
        <ele>740.3</ele>
        <time>2026-07-07T12:29:26.000Z</time>
      </trkpt>
      <trkpt lat="45.81934" lon="1.89222">
        <ele>740.4</ele>
        <time>2026-07-07T12:29:27.000Z</time>
      </trkpt>
      <trkpt lat="45.81934" lon="1.89222">
        <ele>740.4</ele>
        <time>2026-07-07T12:29:28.000Z</time>
      </trkpt>
      <trkpt lat="45.81934" lon="1.89222">
        <ele>740.4</ele>
        <time>2026-07-07T12:29:29.000Z</time>
      </trkpt>
      <trkpt lat="45.81934" lon="1.89222">
        <ele>740.1</ele>
        <time>2026-07-07T12:29:30.000Z</time>
      </trkpt>
      <trkpt lat="45.81934" lon="1.8922">
        <ele>739.7</ele>
        <time>2026-07-07T12:29:31.000Z</time>
      </trkpt>
      <trkpt lat="45.81934" lon="1.89218">
        <ele>739.1</ele>
        <time>2026-07-07T12:29:32.000Z</time>
      </trkpt>
      <trkpt lat="45.81934" lon="1.89216">
        <ele>737.6</ele>
        <time>2026-07-07T12:29:33.000Z</time>
      </trkpt>
      <trkpt lat="45.81934" lon="1.89213">
        <ele>737.3</ele>
        <time>2026-07-07T12:29:34.000Z</time>
      </trkpt>
      <trkpt lat="45.81934" lon="1.8921">
        <ele>737.6</ele>
        <time>2026-07-07T12:29:35.000Z</time>
      </trkpt>
      <trkpt lat="45.81934" lon="1.89207">
        <ele>738.8</ele>
        <time>2026-07-07T12:29:36.000Z</time>
      </trkpt>
      <trkpt lat="45.81934" lon="1.89205">
        <ele>738.3</ele>
        <time>2026-07-07T12:29:37.000Z</time>
      </trkpt>
      <trkpt lat="45.81933" lon="1.89203">
        <ele>737.6</ele>
        <time>2026-07-07T12:29:38.000Z</time>
      </trkpt>
      <trkpt lat="45.81933" lon="1.892">
        <ele>737.4</ele>
        <time>2026-07-07T12:29:39.000Z</time>
      </trkpt>
      <trkpt lat="45.81933" lon="1.89198">
        <ele>736.7</ele>
        <time>2026-07-07T12:29:40.000Z</time>
      </trkpt>
      <trkpt lat="45.81933" lon="1.89196">
        <ele>735.9</ele>
        <time>2026-07-07T12:29:41.000Z</time>
      </trkpt>
      <trkpt lat="45.81933" lon="1.89193">
        <ele>735.6</ele>
        <time>2026-07-07T12:29:42.000Z</time>
      </trkpt>
      <trkpt lat="45.81933" lon="1.89191">
        <ele>734.9</ele>
        <time>2026-07-07T12:29:43.000Z</time>
      </trkpt>
      <trkpt lat="45.81933" lon="1.89187">
        <ele>735.2</ele>
        <time>2026-07-07T12:29:44.000Z</time>
      </trkpt>
      <trkpt lat="45.81933" lon="1.89184">
        <ele>735.4</ele>
        <time>2026-07-07T12:29:45.000Z</time>
      </trkpt>
      <trkpt lat="45.81934" lon="1.8918">
        <ele>736.1</ele>
        <time>2026-07-07T12:29:46.000Z</time>
      </trkpt>
      <trkpt lat="45.81934" lon="1.89176">
        <ele>735.8</ele>
        <time>2026-07-07T12:29:47.000Z</time>
      </trkpt>
      <trkpt lat="45.81936" lon="1.89175">
        <ele>733.8</ele>
        <time>2026-07-07T12:29:48.000Z</time>
      </trkpt>
      <trkpt lat="45.81937" lon="1.89174">
        <ele>734.1</ele>
        <time>2026-07-07T12:29:49.000Z</time>
      </trkpt>
      <trkpt lat="45.81937" lon="1.89172">
        <ele>734.4</ele>
        <time>2026-07-07T12:29:50.000Z</time>
      </trkpt>
      <trkpt lat="45.81938" lon="1.8917">
        <ele>734.7</ele>
        <time>2026-07-07T12:29:51.000Z</time>
      </trkpt>
      <trkpt lat="45.81939" lon="1.89169">
        <ele>733.5</ele>
        <time>2026-07-07T12:29:52.000Z</time>
      </trkpt>
      <trkpt lat="45.81941" lon="1.89167">
        <ele>733</ele>
        <time>2026-07-07T12:29:53.000Z</time>
      </trkpt>
      <trkpt lat="45.81942" lon="1.89164">
        <ele>733.1</ele>
        <time>2026-07-07T12:29:54.000Z</time>
      </trkpt>
      <trkpt lat="45.81943" lon="1.89161">
        <ele>733.2</ele>
        <time>2026-07-07T12:29:55.000Z</time>
      </trkpt>
      <trkpt lat="45.81944" lon="1.89159">
        <ele>733</ele>
        <time>2026-07-07T12:29:56.000Z</time>
      </trkpt>
      <trkpt lat="45.81945" lon="1.89156">
        <ele>733.1</ele>
        <time>2026-07-07T12:29:57.000Z</time>
      </trkpt>
      <trkpt lat="45.81945" lon="1.89154">
        <ele>733.4</ele>
        <time>2026-07-07T12:29:58.000Z</time>
      </trkpt>
      <trkpt lat="45.81946" lon="1.89152">
        <ele>733</ele>
        <time>2026-07-07T12:29:59.000Z</time>
      </trkpt>
      <trkpt lat="45.81947" lon="1.8915">
        <ele>732.2</ele>
        <time>2026-07-07T12:30:00.000Z</time>
      </trkpt>
      <trkpt lat="45.81948" lon="1.89148">
        <ele>732</ele>
        <time>2026-07-07T12:30:01.000Z</time>
      </trkpt>
      <trkpt lat="45.8195" lon="1.89146">
        <ele>731.6</ele>
        <time>2026-07-07T12:30:02.000Z</time>
      </trkpt>
      <trkpt lat="45.81951" lon="1.89144">
        <ele>732</ele>
        <time>2026-07-07T12:30:03.000Z</time>
      </trkpt>
      <trkpt lat="45.81952" lon="1.89143">
        <ele>731.5</ele>
        <time>2026-07-07T12:30:04.000Z</time>
      </trkpt>
      <trkpt lat="45.81954" lon="1.89142">
        <ele>732.1</ele>
        <time>2026-07-07T12:30:05.000Z</time>
      </trkpt>
      <trkpt lat="45.81956" lon="1.8914">
        <ele>732.6</ele>
        <time>2026-07-07T12:30:06.000Z</time>
      </trkpt>
      <trkpt lat="45.81957" lon="1.8914">
        <ele>733.7</ele>
        <time>2026-07-07T12:30:07.000Z</time>
      </trkpt>
      <trkpt lat="45.8196" lon="1.89139">
        <ele>734.7</ele>
        <time>2026-07-07T12:30:08.000Z</time>
      </trkpt>
      <trkpt lat="45.81962" lon="1.89138">
        <ele>736</ele>
        <time>2026-07-07T12:30:09.000Z</time>
      </trkpt>
      <trkpt lat="45.81964" lon="1.89136">
        <ele>736</ele>
        <time>2026-07-07T12:30:10.000Z</time>
      </trkpt>
      <trkpt lat="45.81965" lon="1.89135">
        <ele>736.4</ele>
        <time>2026-07-07T12:30:11.000Z</time>
      </trkpt>
      <trkpt lat="45.81966" lon="1.89134">
        <ele>736</ele>
        <time>2026-07-07T12:30:12.000Z</time>
      </trkpt>
      <trkpt lat="45.81967" lon="1.89133">
        <ele>736.9</ele>
        <time>2026-07-07T12:30:13.000Z</time>
      </trkpt>
      <trkpt lat="45.81969" lon="1.89131">
        <ele>737</ele>
        <time>2026-07-07T12:30:14.000Z</time>
      </trkpt>
      <trkpt lat="45.8197" lon="1.8913">
        <ele>737.7</ele>
        <time>2026-07-07T12:30:15.000Z</time>
      </trkpt>
      <trkpt lat="45.81971" lon="1.89128">
        <ele>737.5</ele>
        <time>2026-07-07T12:30:16.000Z</time>
      </trkpt>
      <trkpt lat="45.81972" lon="1.89126">
        <ele>737.3</ele>
        <time>2026-07-07T12:30:17.000Z</time>
      </trkpt>
      <trkpt lat="45.81972" lon="1.89124">
        <ele>737.5</ele>
        <time>2026-07-07T12:30:18.000Z</time>
      </trkpt>
      <trkpt lat="45.81972" lon="1.89122">
        <ele>737.3</ele>
        <time>2026-07-07T12:30:19.000Z</time>
      </trkpt>
      <trkpt lat="45.81971" lon="1.8912">
        <ele>737</ele>
        <time>2026-07-07T12:30:20.000Z</time>
      </trkpt>
      <trkpt lat="45.81971" lon="1.89118">
        <ele>736.8</ele>
        <time>2026-07-07T12:30:21.000Z</time>
      </trkpt>
      <trkpt lat="45.8197" lon="1.89115">
        <ele>738.1</ele>
        <time>2026-07-07T12:30:22.000Z</time>
      </trkpt>
      <trkpt lat="45.81969" lon="1.89113">
        <ele>738</ele>
        <time>2026-07-07T12:30:23.000Z</time>
      </trkpt>
      <trkpt lat="45.81967" lon="1.8911">
        <ele>737.3</ele>
        <time>2026-07-07T12:30:24.000Z</time>
      </trkpt>
      <trkpt lat="45.81965" lon="1.89108">
        <ele>736.7</ele>
        <time>2026-07-07T12:30:25.000Z</time>
      </trkpt>
      <trkpt lat="45.81964" lon="1.89105">
        <ele>736.6</ele>
        <time>2026-07-07T12:30:26.000Z</time>
      </trkpt>
      <trkpt lat="45.81964" lon="1.89103">
        <ele>736.2</ele>
        <time>2026-07-07T12:30:27.000Z</time>
      </trkpt>
      <trkpt lat="45.81962" lon="1.89101">
        <ele>735.8</ele>
        <time>2026-07-07T12:30:28.000Z</time>
      </trkpt>
      <trkpt lat="45.81961" lon="1.89099">
        <ele>735.6</ele>
        <time>2026-07-07T12:30:29.000Z</time>
      </trkpt>
      <trkpt lat="45.81961" lon="1.89097">
        <ele>734.9</ele>
        <time>2026-07-07T12:30:30.000Z</time>
      </trkpt>
      <trkpt lat="45.8196" lon="1.89095">
        <ele>734.3</ele>
        <time>2026-07-07T12:30:31.000Z</time>
      </trkpt>
      <trkpt lat="45.81959" lon="1.89093">
        <ele>734</ele>
        <time>2026-07-07T12:30:32.000Z</time>
      </trkpt>
      <trkpt lat="45.81959" lon="1.89091">
        <ele>734.1</ele>
        <time>2026-07-07T12:30:33.000Z</time>
      </trkpt>
      <trkpt lat="45.81959" lon="1.89089">
        <ele>734.7</ele>
        <time>2026-07-07T12:30:34.000Z</time>
      </trkpt>
      <trkpt lat="45.81958" lon="1.89087">
        <ele>735</ele>
        <time>2026-07-07T12:30:35.000Z</time>
      </trkpt>
      <trkpt lat="45.81958" lon="1.89085">
        <ele>735.2</ele>
        <time>2026-07-07T12:30:36.000Z</time>
      </trkpt>
      <trkpt lat="45.81958" lon="1.89083">
        <ele>735.8</ele>
        <time>2026-07-07T12:30:37.000Z</time>
      </trkpt>
      <trkpt lat="45.81959" lon="1.89081">
        <ele>736.3</ele>
        <time>2026-07-07T12:30:38.000Z</time>
      </trkpt>
      <trkpt lat="45.81959" lon="1.89078">
        <ele>736.8</ele>
        <time>2026-07-07T12:30:39.000Z</time>
      </trkpt>
      <trkpt lat="45.81958" lon="1.89076">
        <ele>737.1</ele>
        <time>2026-07-07T12:30:40.000Z</time>
      </trkpt>
      <trkpt lat="45.81958" lon="1.89074">
        <ele>738.4</ele>
        <time>2026-07-07T12:30:41.000Z</time>
      </trkpt>
      <trkpt lat="45.81958" lon="1.89072">
        <ele>739.8</ele>
        <time>2026-07-07T12:30:42.000Z</time>
      </trkpt>
      <trkpt lat="45.81957" lon="1.89069">
        <ele>741</ele>
        <time>2026-07-07T12:30:43.000Z</time>
      </trkpt>
      <trkpt lat="45.81957" lon="1.89067">
        <ele>741.4</ele>
        <time>2026-07-07T12:30:44.000Z</time>
      </trkpt>
      <trkpt lat="45.81956" lon="1.89065">
        <ele>741.2</ele>
        <time>2026-07-07T12:30:45.000Z</time>
      </trkpt>
      <trkpt lat="45.81956" lon="1.89063">
        <ele>741.2</ele>
        <time>2026-07-07T12:30:46.000Z</time>
      </trkpt>
      <trkpt lat="45.81955" lon="1.89061">
        <ele>740.7</ele>
        <time>2026-07-07T12:30:47.000Z</time>
      </trkpt>
      <trkpt lat="45.81955" lon="1.89059">
        <ele>741.2</ele>
        <time>2026-07-07T12:30:48.000Z</time>
      </trkpt>
      <trkpt lat="45.81954" lon="1.89057">
        <ele>741.4</ele>
        <time>2026-07-07T12:30:49.000Z</time>
      </trkpt>
      <trkpt lat="45.81954" lon="1.89055">
        <ele>741.6</ele>
        <time>2026-07-07T12:30:50.000Z</time>
      </trkpt>
      <trkpt lat="45.81953" lon="1.89053">
        <ele>742.2</ele>
        <time>2026-07-07T12:30:51.000Z</time>
      </trkpt>
      <trkpt lat="45.81952" lon="1.89051">
        <ele>741.7</ele>
        <time>2026-07-07T12:30:52.000Z</time>
      </trkpt>
      <trkpt lat="45.81952" lon="1.89049">
        <ele>742.2</ele>
        <time>2026-07-07T12:30:53.000Z</time>
      </trkpt>
      <trkpt lat="45.81952" lon="1.89047">
        <ele>742.5</ele>
        <time>2026-07-07T12:30:54.000Z</time>
      </trkpt>
      <trkpt lat="45.81951" lon="1.89044">
        <ele>742.7</ele>
        <time>2026-07-07T12:30:55.000Z</time>
      </trkpt>
      <trkpt lat="45.81951" lon="1.89042">
        <ele>743.2</ele>
        <time>2026-07-07T12:30:56.000Z</time>
      </trkpt>
      <trkpt lat="45.81951" lon="1.8904">
        <ele>743.3</ele>
        <time>2026-07-07T12:30:57.000Z</time>
      </trkpt>
      <trkpt lat="45.81951" lon="1.89038">
        <ele>743.7</ele>
        <time>2026-07-07T12:30:58.000Z</time>
      </trkpt>
      <trkpt lat="45.81951" lon="1.89036">
        <ele>743.9</ele>
        <time>2026-07-07T12:30:59.000Z</time>
      </trkpt>
      <trkpt lat="45.81951" lon="1.89033">
        <ele>744.1</ele>
        <time>2026-07-07T12:31:00.000Z</time>
      </trkpt>
      <trkpt lat="45.81951" lon="1.89031">
        <ele>743.9</ele>
        <time>2026-07-07T12:31:01.000Z</time>
      </trkpt>
      <trkpt lat="45.8195" lon="1.89029">
        <ele>743</ele>
        <time>2026-07-07T12:31:02.000Z</time>
      </trkpt>
      <trkpt lat="45.8195" lon="1.89026">
        <ele>742.8</ele>
        <time>2026-07-07T12:31:03.000Z</time>
      </trkpt>
      <trkpt lat="45.8195" lon="1.89024">
        <ele>742.7</ele>
        <time>2026-07-07T12:31:04.000Z</time>
      </trkpt>
      <trkpt lat="45.81949" lon="1.89022">
        <ele>743.4</ele>
        <time>2026-07-07T12:31:05.000Z</time>
      </trkpt>
      <trkpt lat="45.81949" lon="1.89019">
        <ele>741.9</ele>
        <time>2026-07-07T12:31:06.000Z</time>
      </trkpt>
      <trkpt lat="45.81948" lon="1.89017">
        <ele>740.4</ele>
        <time>2026-07-07T12:31:07.000Z</time>
      </trkpt>
      <trkpt lat="45.81947" lon="1.89015">
        <ele>740</ele>
        <time>2026-07-07T12:31:08.000Z</time>
      </trkpt>
      <trkpt lat="45.81946" lon="1.89013">
        <ele>740.1</ele>
        <time>2026-07-07T12:31:09.000Z</time>
      </trkpt>
      <trkpt lat="45.81946" lon="1.89011">
        <ele>740.4</ele>
        <time>2026-07-07T12:31:10.000Z</time>
      </trkpt>
      <trkpt lat="45.81945" lon="1.8901">
        <ele>741.1</ele>
        <time>2026-07-07T12:31:11.000Z</time>
      </trkpt>
      <trkpt lat="45.81945" lon="1.89007">
        <ele>741.8</ele>
        <time>2026-07-07T12:31:12.000Z</time>
      </trkpt>
      <trkpt lat="45.81944" lon="1.89005">
        <ele>741.6</ele>
        <time>2026-07-07T12:31:13.000Z</time>
      </trkpt>
      <trkpt lat="45.81943" lon="1.89003">
        <ele>741.5</ele>
        <time>2026-07-07T12:31:14.000Z</time>
      </trkpt>
      <trkpt lat="45.81943" lon="1.89001">
        <ele>740.9</ele>
        <time>2026-07-07T12:31:15.000Z</time>
      </trkpt>
      <trkpt lat="45.81942" lon="1.88998">
        <ele>741.1</ele>
        <time>2026-07-07T12:31:16.000Z</time>
      </trkpt>
      <trkpt lat="45.81941" lon="1.88994">
        <ele>741</ele>
        <time>2026-07-07T12:31:17.000Z</time>
      </trkpt>
      <trkpt lat="45.81941" lon="1.88992">
        <ele>739.6</ele>
        <time>2026-07-07T12:31:18.000Z</time>
      </trkpt>
      <trkpt lat="45.8194" lon="1.8899">
        <ele>739.3</ele>
        <time>2026-07-07T12:31:19.000Z</time>
      </trkpt>
      <trkpt lat="45.8194" lon="1.88987">
        <ele>738.8</ele>
        <time>2026-07-07T12:31:20.000Z</time>
      </trkpt>
      <trkpt lat="45.8194" lon="1.88985">
        <ele>738.7</ele>
        <time>2026-07-07T12:31:21.000Z</time>
      </trkpt>
      <trkpt lat="45.81939" lon="1.88983">
        <ele>739.4</ele>
        <time>2026-07-07T12:31:22.000Z</time>
      </trkpt>
      <trkpt lat="45.81938" lon="1.8898">
        <ele>739.8</ele>
        <time>2026-07-07T12:31:23.000Z</time>
      </trkpt>
      <trkpt lat="45.81938" lon="1.88978">
        <ele>739.7</ele>
        <time>2026-07-07T12:31:24.000Z</time>
      </trkpt>
      <trkpt lat="45.81937" lon="1.88976">
        <ele>739.3</ele>
        <time>2026-07-07T12:31:25.000Z</time>
      </trkpt>
      <trkpt lat="45.81936" lon="1.88974">
        <ele>738.6</ele>
        <time>2026-07-07T12:31:26.000Z</time>
      </trkpt>
      <trkpt lat="45.81936" lon="1.88971">
        <ele>738.8</ele>
        <time>2026-07-07T12:31:27.000Z</time>
      </trkpt>
      <trkpt lat="45.81935" lon="1.88969">
        <ele>738.9</ele>
        <time>2026-07-07T12:31:28.000Z</time>
      </trkpt>
      <trkpt lat="45.81935" lon="1.88967">
        <ele>738.7</ele>
        <time>2026-07-07T12:31:29.000Z</time>
      </trkpt>
      <trkpt lat="45.81934" lon="1.88965">
        <ele>739.5</ele>
        <time>2026-07-07T12:31:30.000Z</time>
      </trkpt>
      <trkpt lat="45.81934" lon="1.88963">
        <ele>739.3</ele>
        <time>2026-07-07T12:31:31.000Z</time>
      </trkpt>
      <trkpt lat="45.81934" lon="1.8896">
        <ele>739.7</ele>
        <time>2026-07-07T12:31:32.000Z</time>
      </trkpt>
      <trkpt lat="45.81934" lon="1.88957">
        <ele>738.6</ele>
        <time>2026-07-07T12:31:33.000Z</time>
      </trkpt>
      <trkpt lat="45.81934" lon="1.88955">
        <ele>737.4</ele>
        <time>2026-07-07T12:31:34.000Z</time>
      </trkpt>
      <trkpt lat="45.81933" lon="1.88953">
        <ele>737.2</ele>
        <time>2026-07-07T12:31:35.000Z</time>
      </trkpt>
      <trkpt lat="45.81932" lon="1.88951">
        <ele>737.2</ele>
        <time>2026-07-07T12:31:36.000Z</time>
      </trkpt>
      <trkpt lat="45.81931" lon="1.88949">
        <ele>737.2</ele>
        <time>2026-07-07T12:31:37.000Z</time>
      </trkpt>
      <trkpt lat="45.8193" lon="1.88947">
        <ele>737.2</ele>
        <time>2026-07-07T12:31:38.000Z</time>
      </trkpt>
      <trkpt lat="45.8193" lon="1.88945">
        <ele>736.8</ele>
        <time>2026-07-07T12:31:39.000Z</time>
      </trkpt>
      <trkpt lat="45.81929" lon="1.88942">
        <ele>738.3</ele>
        <time>2026-07-07T12:31:40.000Z</time>
      </trkpt>
      <trkpt lat="45.81928" lon="1.88941">
        <ele>738.4</ele>
        <time>2026-07-07T12:31:41.000Z</time>
      </trkpt>
      <trkpt lat="45.81927" lon="1.88939">
        <ele>737.3</ele>
        <time>2026-07-07T12:31:42.000Z</time>
      </trkpt>
      <trkpt lat="45.81926" lon="1.88937">
        <ele>738.2</ele>
        <time>2026-07-07T12:31:43.000Z</time>
      </trkpt>
      <trkpt lat="45.81924" lon="1.88936">
        <ele>738.2</ele>
        <time>2026-07-07T12:31:44.000Z</time>
      </trkpt>
      <trkpt lat="45.81923" lon="1.88935">
        <ele>738.5</ele>
        <time>2026-07-07T12:31:45.000Z</time>
      </trkpt>
      <trkpt lat="45.81922" lon="1.88933">
        <ele>738.5</ele>
        <time>2026-07-07T12:31:46.000Z</time>
      </trkpt>
      <trkpt lat="45.81921" lon="1.88932">
        <ele>739.1</ele>
        <time>2026-07-07T12:31:47.000Z</time>
      </trkpt>
      <trkpt lat="45.81919" lon="1.88931">
        <ele>739.7</ele>
        <time>2026-07-07T12:31:48.000Z</time>
      </trkpt>
      <trkpt lat="45.81918" lon="1.8893">
        <ele>740</ele>
        <time>2026-07-07T12:31:49.000Z</time>
      </trkpt>
      <trkpt lat="45.81916" lon="1.88928">
        <ele>740.1</ele>
        <time>2026-07-07T12:31:50.000Z</time>
      </trkpt>
      <trkpt lat="45.81914" lon="1.88927">
        <ele>740.2</ele>
        <time>2026-07-07T12:31:51.000Z</time>
      </trkpt>
      <trkpt lat="45.81912" lon="1.88925">
        <ele>740</ele>
        <time>2026-07-07T12:31:52.000Z</time>
      </trkpt>
      <trkpt lat="45.81911" lon="1.88924">
        <ele>739.4</ele>
        <time>2026-07-07T12:31:53.000Z</time>
      </trkpt>
      <trkpt lat="45.81909" lon="1.88924">
        <ele>740.3</ele>
        <time>2026-07-07T12:31:54.000Z</time>
      </trkpt>
      <trkpt lat="45.81907" lon="1.88923">
        <ele>739.3</ele>
        <time>2026-07-07T12:31:55.000Z</time>
      </trkpt>
      <trkpt lat="45.81906" lon="1.88923">
        <ele>739.4</ele>
        <time>2026-07-07T12:31:56.000Z</time>
      </trkpt>
      <trkpt lat="45.81906" lon="1.88923">
        <ele>738.8</ele>
        <time>2026-07-07T12:31:57.000Z</time>
      </trkpt>
      <trkpt lat="45.81905" lon="1.88922">
        <ele>738.3</ele>
        <time>2026-07-07T12:31:58.000Z</time>
      </trkpt>
      <trkpt lat="45.81904" lon="1.88922">
        <ele>738.4</ele>
        <time>2026-07-07T12:31:59.000Z</time>
      </trkpt>
      <trkpt lat="45.81904" lon="1.88921">
        <ele>739.7</ele>
        <time>2026-07-07T12:32:00.000Z</time>
      </trkpt>
      <trkpt lat="45.81902" lon="1.88921">
        <ele>740.3</ele>
        <time>2026-07-07T12:32:01.000Z</time>
      </trkpt>
      <trkpt lat="45.81901" lon="1.8892">
        <ele>740</ele>
        <time>2026-07-07T12:32:02.000Z</time>
      </trkpt>
      <trkpt lat="45.819" lon="1.88919">
        <ele>740.8</ele>
        <time>2026-07-07T12:32:03.000Z</time>
      </trkpt>
      <trkpt lat="45.81899" lon="1.88917">
        <ele>740</ele>
        <time>2026-07-07T12:32:04.000Z</time>
      </trkpt>
      <trkpt lat="45.81897" lon="1.88915">
        <ele>740</ele>
        <time>2026-07-07T12:32:05.000Z</time>
      </trkpt>
      <trkpt lat="45.81896" lon="1.88913">
        <ele>740.2</ele>
        <time>2026-07-07T12:32:06.000Z</time>
      </trkpt>
      <trkpt lat="45.81895" lon="1.88911">
        <ele>740</ele>
        <time>2026-07-07T12:32:07.000Z</time>
      </trkpt>
      <trkpt lat="45.81895" lon="1.88909">
        <ele>739.2</ele>
        <time>2026-07-07T12:32:08.000Z</time>
      </trkpt>
      <trkpt lat="45.81896" lon="1.88906">
        <ele>739.4</ele>
        <time>2026-07-07T12:32:09.000Z</time>
      </trkpt>
      <trkpt lat="45.81896" lon="1.88903">
        <ele>739.5</ele>
        <time>2026-07-07T12:32:10.000Z</time>
      </trkpt>
      <trkpt lat="45.81897" lon="1.889">
        <ele>739.5</ele>
        <time>2026-07-07T12:32:11.000Z</time>
      </trkpt>
      <trkpt lat="45.81898" lon="1.88898">
        <ele>739.5</ele>
        <time>2026-07-07T12:32:12.000Z</time>
      </trkpt>
      <trkpt lat="45.81899" lon="1.88897">
        <ele>739.7</ele>
        <time>2026-07-07T12:32:13.000Z</time>
      </trkpt>
      <trkpt lat="45.819" lon="1.88895">
        <ele>739.3</ele>
        <time>2026-07-07T12:32:14.000Z</time>
      </trkpt>
      <trkpt lat="45.81901" lon="1.88893">
        <ele>738.5</ele>
        <time>2026-07-07T12:32:15.000Z</time>
      </trkpt>
      <trkpt lat="45.81902" lon="1.88891">
        <ele>738.4</ele>
        <time>2026-07-07T12:32:16.000Z</time>
      </trkpt>
      <trkpt lat="45.81903" lon="1.8889">
        <ele>738.4</ele>
        <time>2026-07-07T12:32:17.000Z</time>
      </trkpt>
      <trkpt lat="45.81904" lon="1.88888">
        <ele>738.1</ele>
        <time>2026-07-07T12:32:18.000Z</time>
      </trkpt>
      <trkpt lat="45.81904" lon="1.88886">
        <ele>737.7</ele>
        <time>2026-07-07T12:32:19.000Z</time>
      </trkpt>
      <trkpt lat="45.81905" lon="1.88884">
        <ele>738</ele>
        <time>2026-07-07T12:32:20.000Z</time>
      </trkpt>
      <trkpt lat="45.81907" lon="1.88881">
        <ele>737.5</ele>
        <time>2026-07-07T12:32:21.000Z</time>
      </trkpt>
      <trkpt lat="45.81908" lon="1.88878">
        <ele>736.9</ele>
        <time>2026-07-07T12:32:22.000Z</time>
      </trkpt>
      <trkpt lat="45.81909" lon="1.88876">
        <ele>736.7</ele>
        <time>2026-07-07T12:32:23.000Z</time>
      </trkpt>
      <trkpt lat="45.8191" lon="1.88874">
        <ele>736.2</ele>
        <time>2026-07-07T12:32:24.000Z</time>
      </trkpt>
      <trkpt lat="45.81911" lon="1.88872">
        <ele>736</ele>
        <time>2026-07-07T12:32:25.000Z</time>
      </trkpt>
      <trkpt lat="45.81912" lon="1.8887">
        <ele>735.6</ele>
        <time>2026-07-07T12:32:26.000Z</time>
      </trkpt>
      <trkpt lat="45.81913" lon="1.88868">
        <ele>735.2</ele>
        <time>2026-07-07T12:32:27.000Z</time>
      </trkpt>
      <trkpt lat="45.81913" lon="1.88866">
        <ele>734.8</ele>
        <time>2026-07-07T12:32:28.000Z</time>
      </trkpt>
      <trkpt lat="45.81914" lon="1.88863">
        <ele>733.7</ele>
        <time>2026-07-07T12:32:29.000Z</time>
      </trkpt>
      <trkpt lat="45.81914" lon="1.88861">
        <ele>733.8</ele>
        <time>2026-07-07T12:32:30.000Z</time>
      </trkpt>
      <trkpt lat="45.81915" lon="1.88859">
        <ele>733.7</ele>
        <time>2026-07-07T12:32:31.000Z</time>
      </trkpt>
      <trkpt lat="45.81915" lon="1.88857">
        <ele>731.6</ele>
        <time>2026-07-07T12:32:32.000Z</time>
      </trkpt>
      <trkpt lat="45.81917" lon="1.88855">
        <ele>730.3</ele>
        <time>2026-07-07T12:32:33.000Z</time>
      </trkpt>
      <trkpt lat="45.81919" lon="1.88854">
        <ele>732.1</ele>
        <time>2026-07-07T12:32:34.000Z</time>
      </trkpt>
      <trkpt lat="45.81921" lon="1.88853">
        <ele>733.7</ele>
        <time>2026-07-07T12:32:35.000Z</time>
      </trkpt>
      <trkpt lat="45.81922" lon="1.88851">
        <ele>734.6</ele>
        <time>2026-07-07T12:32:36.000Z</time>
      </trkpt>
      <trkpt lat="45.81924" lon="1.88849">
        <ele>734.5</ele>
        <time>2026-07-07T12:32:37.000Z</time>
      </trkpt>
      <trkpt lat="45.81925" lon="1.88847">
        <ele>734.7</ele>
        <time>2026-07-07T12:32:38.000Z</time>
      </trkpt>
      <trkpt lat="45.81926" lon="1.88845">
        <ele>734.9</ele>
        <time>2026-07-07T12:32:39.000Z</time>
      </trkpt>
      <trkpt lat="45.81928" lon="1.88843">
        <ele>734.7</ele>
        <time>2026-07-07T12:32:40.000Z</time>
      </trkpt>
      <trkpt lat="45.81929" lon="1.88841">
        <ele>734.1</ele>
        <time>2026-07-07T12:32:41.000Z</time>
      </trkpt>
      <trkpt lat="45.81931" lon="1.8884">
        <ele>732.4</ele>
        <time>2026-07-07T12:32:42.000Z</time>
      </trkpt>
      <trkpt lat="45.81932" lon="1.88839">
        <ele>732.1</ele>
        <time>2026-07-07T12:32:43.000Z</time>
      </trkpt>
      <trkpt lat="45.81933" lon="1.88837">
        <ele>732.2</ele>
        <time>2026-07-07T12:32:44.000Z</time>
      </trkpt>
      <trkpt lat="45.81934" lon="1.88835">
        <ele>731.8</ele>
        <time>2026-07-07T12:32:45.000Z</time>
      </trkpt>
      <trkpt lat="45.81936" lon="1.88834">
        <ele>731.2</ele>
        <time>2026-07-07T12:32:46.000Z</time>
      </trkpt>
      <trkpt lat="45.81937" lon="1.88833">
        <ele>732.6</ele>
        <time>2026-07-07T12:32:47.000Z</time>
      </trkpt>
      <trkpt lat="45.81938" lon="1.88832">
        <ele>734.3</ele>
        <time>2026-07-07T12:32:48.000Z</time>
      </trkpt>
      <trkpt lat="45.8194" lon="1.88832">
        <ele>734.4</ele>
        <time>2026-07-07T12:32:49.000Z</time>
      </trkpt>
      <trkpt lat="45.81941" lon="1.88831">
        <ele>733.9</ele>
        <time>2026-07-07T12:32:50.000Z</time>
      </trkpt>
      <trkpt lat="45.81942" lon="1.8883">
        <ele>734.2</ele>
        <time>2026-07-07T12:32:51.000Z</time>
      </trkpt>
      <trkpt lat="45.81943" lon="1.88829">
        <ele>735.1</ele>
        <time>2026-07-07T12:32:52.000Z</time>
      </trkpt>
      <trkpt lat="45.81944" lon="1.88829">
        <ele>736.5</ele>
        <time>2026-07-07T12:32:53.000Z</time>
      </trkpt>
      <trkpt lat="45.81946" lon="1.88829">
        <ele>736.1</ele>
        <time>2026-07-07T12:32:54.000Z</time>
      </trkpt>
      <trkpt lat="45.81947" lon="1.88828">
        <ele>735.7</ele>
        <time>2026-07-07T12:32:55.000Z</time>
      </trkpt>
      <trkpt lat="45.81948" lon="1.88828">
        <ele>736.1</ele>
        <time>2026-07-07T12:32:56.000Z</time>
      </trkpt>
      <trkpt lat="45.81949" lon="1.88828">
        <ele>735.5</ele>
        <time>2026-07-07T12:32:57.000Z</time>
      </trkpt>
      <trkpt lat="45.81951" lon="1.88827">
        <ele>736.4</ele>
        <time>2026-07-07T12:32:58.000Z</time>
      </trkpt>
      <trkpt lat="45.81952" lon="1.88826">
        <ele>736.5</ele>
        <time>2026-07-07T12:32:59.000Z</time>
      </trkpt>
      <trkpt lat="45.81953" lon="1.88826">
        <ele>736.6</ele>
        <time>2026-07-07T12:33:00.000Z</time>
      </trkpt>
      <trkpt lat="45.81955" lon="1.88827">
        <ele>736.5</ele>
        <time>2026-07-07T12:33:01.000Z</time>
      </trkpt>
      <trkpt lat="45.81956" lon="1.88827">
        <ele>736.7</ele>
        <time>2026-07-07T12:33:02.000Z</time>
      </trkpt>
      <trkpt lat="45.81957" lon="1.88827">
        <ele>736.3</ele>
        <time>2026-07-07T12:33:03.000Z</time>
      </trkpt>
      <trkpt lat="45.81959" lon="1.88827">
        <ele>737.2</ele>
        <time>2026-07-07T12:33:04.000Z</time>
      </trkpt>
      <trkpt lat="45.8196" lon="1.88827">
        <ele>738.1</ele>
        <time>2026-07-07T12:33:05.000Z</time>
      </trkpt>
      <trkpt lat="45.81961" lon="1.88827">
        <ele>738.5</ele>
        <time>2026-07-07T12:33:06.000Z</time>
      </trkpt>
      <trkpt lat="45.81962" lon="1.88826">
        <ele>740.3</ele>
        <time>2026-07-07T12:33:07.000Z</time>
      </trkpt>
      <trkpt lat="45.81964" lon="1.88826">
        <ele>740</ele>
        <time>2026-07-07T12:33:08.000Z</time>
      </trkpt>
      <trkpt lat="45.81965" lon="1.88826">
        <ele>739.3</ele>
        <time>2026-07-07T12:33:09.000Z</time>
      </trkpt>
      <trkpt lat="45.81967" lon="1.88826">
        <ele>739</ele>
        <time>2026-07-07T12:33:10.000Z</time>
      </trkpt>
      <trkpt lat="45.81968" lon="1.88825">
        <ele>738.6</ele>
        <time>2026-07-07T12:33:11.000Z</time>
      </trkpt>
      <trkpt lat="45.81969" lon="1.88823">
        <ele>739.3</ele>
        <time>2026-07-07T12:33:12.000Z</time>
      </trkpt>
      <trkpt lat="45.81971" lon="1.88823">
        <ele>739.2</ele>
        <time>2026-07-07T12:33:13.000Z</time>
      </trkpt>
      <trkpt lat="45.81972" lon="1.8882">
        <ele>739.5</ele>
        <time>2026-07-07T12:33:14.000Z</time>
      </trkpt>
      <trkpt lat="45.81974" lon="1.88819">
        <ele>741.6</ele>
        <time>2026-07-07T12:33:15.000Z</time>
      </trkpt>
      <trkpt lat="45.81976" lon="1.8882">
        <ele>742.1</ele>
        <time>2026-07-07T12:33:16.000Z</time>
      </trkpt>
      <trkpt lat="45.81977" lon="1.88821">
        <ele>742</ele>
        <time>2026-07-07T12:33:17.000Z</time>
      </trkpt>
      <trkpt lat="45.81979" lon="1.8882">
        <ele>740.7</ele>
        <time>2026-07-07T12:33:18.000Z</time>
      </trkpt>
      <trkpt lat="45.81981" lon="1.88818">
        <ele>741</ele>
        <time>2026-07-07T12:33:19.000Z</time>
      </trkpt>
      <trkpt lat="45.81981" lon="1.88815">
        <ele>740.4</ele>
        <time>2026-07-07T12:33:20.000Z</time>
      </trkpt>
      <trkpt lat="45.81981" lon="1.88813">
        <ele>739.7</ele>
        <time>2026-07-07T12:33:21.000Z</time>
      </trkpt>
      <trkpt lat="45.81981" lon="1.88811">
        <ele>739.8</ele>
        <time>2026-07-07T12:33:22.000Z</time>
      </trkpt>
      <trkpt lat="45.81981" lon="1.88809">
        <ele>739.4</ele>
        <time>2026-07-07T12:33:23.000Z</time>
      </trkpt>
      <trkpt lat="45.81981" lon="1.88807">
        <ele>739</ele>
        <time>2026-07-07T12:33:24.000Z</time>
      </trkpt>
      <trkpt lat="45.81981" lon="1.88805">
        <ele>738.5</ele>
        <time>2026-07-07T12:33:25.000Z</time>
      </trkpt>
      <trkpt lat="45.81981" lon="1.88802">
        <ele>738.4</ele>
        <time>2026-07-07T12:33:26.000Z</time>
      </trkpt>
      <trkpt lat="45.8198" lon="1.88798">
        <ele>738</ele>
        <time>2026-07-07T12:33:27.000Z</time>
      </trkpt>
      <trkpt lat="45.8198" lon="1.88795">
        <ele>738.1</ele>
        <time>2026-07-07T12:33:28.000Z</time>
      </trkpt>
      <trkpt lat="45.81979" lon="1.88792">
        <ele>738.3</ele>
        <time>2026-07-07T12:33:29.000Z</time>
      </trkpt>
      <trkpt lat="45.81979" lon="1.8879">
        <ele>738</ele>
        <time>2026-07-07T12:33:30.000Z</time>
      </trkpt>
      <trkpt lat="45.81978" lon="1.88788">
        <ele>737.8</ele>
        <time>2026-07-07T12:33:31.000Z</time>
      </trkpt>
      <trkpt lat="45.81978" lon="1.88785">
        <ele>737.9</ele>
        <time>2026-07-07T12:33:32.000Z</time>
      </trkpt>
      <trkpt lat="45.81978" lon="1.88783">
        <ele>738.3</ele>
        <time>2026-07-07T12:33:33.000Z</time>
      </trkpt>
      <trkpt lat="45.81977" lon="1.8878">
        <ele>738.5</ele>
        <time>2026-07-07T12:33:34.000Z</time>
      </trkpt>
      <trkpt lat="45.81976" lon="1.88778">
        <ele>738</ele>
        <time>2026-07-07T12:33:35.000Z</time>
      </trkpt>
      <trkpt lat="45.81975" lon="1.88775">
        <ele>738</ele>
        <time>2026-07-07T12:33:36.000Z</time>
      </trkpt>
      <trkpt lat="45.81975" lon="1.88771">
        <ele>738</ele>
        <time>2026-07-07T12:33:37.000Z</time>
      </trkpt>
      <trkpt lat="45.81974" lon="1.88768">
        <ele>738.2</ele>
        <time>2026-07-07T12:33:38.000Z</time>
      </trkpt>
      <trkpt lat="45.81973" lon="1.88765">
        <ele>738.2</ele>
        <time>2026-07-07T12:33:39.000Z</time>
      </trkpt>
      <trkpt lat="45.81972" lon="1.88762">
        <ele>738.2</ele>
        <time>2026-07-07T12:33:40.000Z</time>
      </trkpt>
      <trkpt lat="45.81972" lon="1.88759">
        <ele>738.5</ele>
        <time>2026-07-07T12:33:41.000Z</time>
      </trkpt>
      <trkpt lat="45.81971" lon="1.88756">
        <ele>738.7</ele>
        <time>2026-07-07T12:33:42.000Z</time>
      </trkpt>
      <trkpt lat="45.8197" lon="1.88753">
        <ele>738.6</ele>
        <time>2026-07-07T12:33:43.000Z</time>
      </trkpt>
      <trkpt lat="45.81969" lon="1.8875">
        <ele>738.6</ele>
        <time>2026-07-07T12:33:44.000Z</time>
      </trkpt>
      <trkpt lat="45.81968" lon="1.88747">
        <ele>738</ele>
        <time>2026-07-07T12:33:45.000Z</time>
      </trkpt>
      <trkpt lat="45.81968" lon="1.88744">
        <ele>737.7</ele>
        <time>2026-07-07T12:33:46.000Z</time>
      </trkpt>
      <trkpt lat="45.81967" lon="1.88741">
        <ele>737.3</ele>
        <time>2026-07-07T12:33:47.000Z</time>
      </trkpt>
      <trkpt lat="45.81967" lon="1.88739">
        <ele>737</ele>
        <time>2026-07-07T12:33:48.000Z</time>
      </trkpt>
      <trkpt lat="45.81967" lon="1.88736">
        <ele>736.2</ele>
        <time>2026-07-07T12:33:49.000Z</time>
      </trkpt>
      <trkpt lat="45.81967" lon="1.88733">
        <ele>735.4</ele>
        <time>2026-07-07T12:33:50.000Z</time>
      </trkpt>
      <trkpt lat="45.81966" lon="1.8873">
        <ele>735.6</ele>
        <time>2026-07-07T12:33:51.000Z</time>
      </trkpt>
      <trkpt lat="45.81965" lon="1.88728">
        <ele>735.9</ele>
        <time>2026-07-07T12:33:52.000Z</time>
      </trkpt>
      <trkpt lat="45.81965" lon="1.88726">
        <ele>736.4</ele>
        <time>2026-07-07T12:33:53.000Z</time>
      </trkpt>
      <trkpt lat="45.81964" lon="1.88723">
        <ele>736.4</ele>
        <time>2026-07-07T12:33:54.000Z</time>
      </trkpt>
      <trkpt lat="45.81963" lon="1.88721">
        <ele>736.6</ele>
        <time>2026-07-07T12:33:55.000Z</time>
      </trkpt>
      <trkpt lat="45.81963" lon="1.88719">
        <ele>736.4</ele>
        <time>2026-07-07T12:33:56.000Z</time>
      </trkpt>
      <trkpt lat="45.81962" lon="1.88717">
        <ele>736.7</ele>
        <time>2026-07-07T12:33:57.000Z</time>
      </trkpt>
      <trkpt lat="45.81962" lon="1.88714">
        <ele>736.8</ele>
        <time>2026-07-07T12:33:58.000Z</time>
      </trkpt>
      <trkpt lat="45.81961" lon="1.88712">
        <ele>736.8</ele>
        <time>2026-07-07T12:33:59.000Z</time>
      </trkpt>
      <trkpt lat="45.8196" lon="1.88709">
        <ele>736.8</ele>
        <time>2026-07-07T12:34:00.000Z</time>
      </trkpt>
      <trkpt lat="45.8196" lon="1.88707">
        <ele>737</ele>
        <time>2026-07-07T12:34:01.000Z</time>
      </trkpt>
      <trkpt lat="45.81959" lon="1.88704">
        <ele>736.7</ele>
        <time>2026-07-07T12:34:02.000Z</time>
      </trkpt>
      <trkpt lat="45.81959" lon="1.88703">
        <ele>736.6</ele>
        <time>2026-07-07T12:34:03.000Z</time>
      </trkpt>
      <trkpt lat="45.81958" lon="1.88701">
        <ele>736.3</ele>
        <time>2026-07-07T12:34:04.000Z</time>
      </trkpt>
      <trkpt lat="45.8196" lon="1.88697">
        <ele>736.6</ele>
        <time>2026-07-07T12:34:05.000Z</time>
      </trkpt>
      <trkpt lat="45.8196" lon="1.88695">
        <ele>736.6</ele>
        <time>2026-07-07T12:34:06.000Z</time>
      </trkpt>
      <trkpt lat="45.81959" lon="1.88693">
        <ele>736.6</ele>
        <time>2026-07-07T12:34:07.000Z</time>
      </trkpt>
      <trkpt lat="45.81958" lon="1.8869">
        <ele>736.3</ele>
        <time>2026-07-07T12:34:08.000Z</time>
      </trkpt>
      <trkpt lat="45.81958" lon="1.88688">
        <ele>736.3</ele>
        <time>2026-07-07T12:34:09.000Z</time>
      </trkpt>
      <trkpt lat="45.81957" lon="1.88686">
        <ele>736</ele>
        <time>2026-07-07T12:34:10.000Z</time>
      </trkpt>
      <trkpt lat="45.81956" lon="1.88684">
        <ele>736.2</ele>
        <time>2026-07-07T12:34:11.000Z</time>
      </trkpt>
      <trkpt lat="45.81955" lon="1.88681">
        <ele>736.1</ele>
        <time>2026-07-07T12:34:12.000Z</time>
      </trkpt>
      <trkpt lat="45.81954" lon="1.88679">
        <ele>736.1</ele>
        <time>2026-07-07T12:34:13.000Z</time>
      </trkpt>
      <trkpt lat="45.81953" lon="1.88677">
        <ele>736.3</ele>
        <time>2026-07-07T12:34:14.000Z</time>
      </trkpt>
      <trkpt lat="45.81952" lon="1.88675">
        <ele>736.4</ele>
        <time>2026-07-07T12:34:15.000Z</time>
      </trkpt>
      <trkpt lat="45.81951" lon="1.88672">
        <ele>736.4</ele>
        <time>2026-07-07T12:34:16.000Z</time>
      </trkpt>
      <trkpt lat="45.8195" lon="1.8867">
        <ele>735.5</ele>
        <time>2026-07-07T12:34:17.000Z</time>
      </trkpt>
      <trkpt lat="45.8195" lon="1.88666">
        <ele>735.1</ele>
        <time>2026-07-07T12:34:18.000Z</time>
      </trkpt>
      <trkpt lat="45.81951" lon="1.88663">
        <ele>734.4</ele>
        <time>2026-07-07T12:34:19.000Z</time>
      </trkpt>
      <trkpt lat="45.8195" lon="1.8866">
        <ele>734</ele>
        <time>2026-07-07T12:34:20.000Z</time>
      </trkpt>
      <trkpt lat="45.81952" lon="1.88656">
        <ele>734.7</ele>
        <time>2026-07-07T12:34:21.000Z</time>
      </trkpt>
      <trkpt lat="45.81953" lon="1.88653">
        <ele>735</ele>
        <time>2026-07-07T12:34:22.000Z</time>
      </trkpt>
      <trkpt lat="45.81951" lon="1.8865">
        <ele>737.2</ele>
        <time>2026-07-07T12:34:23.000Z</time>
      </trkpt>
      <trkpt lat="45.81949" lon="1.88648">
        <ele>736.9</ele>
        <time>2026-07-07T12:34:24.000Z</time>
      </trkpt>
      <trkpt lat="45.81949" lon="1.88644">
        <ele>737.3</ele>
        <time>2026-07-07T12:34:25.000Z</time>
      </trkpt>
      <trkpt lat="45.81949" lon="1.88641">
        <ele>737.9</ele>
        <time>2026-07-07T12:34:26.000Z</time>
      </trkpt>
      <trkpt lat="45.81948" lon="1.88639">
        <ele>737.6</ele>
        <time>2026-07-07T12:34:27.000Z</time>
      </trkpt>
      <trkpt lat="45.81947" lon="1.88636">
        <ele>737.3</ele>
        <time>2026-07-07T12:34:28.000Z</time>
      </trkpt>
      <trkpt lat="45.81945" lon="1.88634">
        <ele>737.4</ele>
        <time>2026-07-07T12:34:29.000Z</time>
      </trkpt>
      <trkpt lat="45.81943" lon="1.88633">
        <ele>737</ele>
        <time>2026-07-07T12:34:30.000Z</time>
      </trkpt>
      <trkpt lat="45.81941" lon="1.88632">
        <ele>737.6</ele>
        <time>2026-07-07T12:34:31.000Z</time>
      </trkpt>
      <trkpt lat="45.8194" lon="1.88628">
        <ele>737.9</ele>
        <time>2026-07-07T12:34:32.000Z</time>
      </trkpt>
      <trkpt lat="45.81938" lon="1.88627">
        <ele>735.9</ele>
        <time>2026-07-07T12:34:33.000Z</time>
      </trkpt>
      <trkpt lat="45.81935" lon="1.88626">
        <ele>735.4</ele>
        <time>2026-07-07T12:34:34.000Z</time>
      </trkpt>
      <trkpt lat="45.81932" lon="1.88626">
        <ele>734.9</ele>
        <time>2026-07-07T12:34:35.000Z</time>
      </trkpt>
      <trkpt lat="45.81929" lon="1.88626">
        <ele>736.3</ele>
        <time>2026-07-07T12:34:36.000Z</time>
      </trkpt>
      <trkpt lat="45.81919" lon="1.88639">
        <ele>740.7</ele>
        <time>2026-07-07T12:34:37.000Z</time>
      </trkpt>
      <trkpt lat="45.81916" lon="1.88638">
        <ele>740.3</ele>
        <time>2026-07-07T12:34:38.000Z</time>
      </trkpt>
      <trkpt lat="45.81913" lon="1.88638">
        <ele>739.8</ele>
        <time>2026-07-07T12:34:39.000Z</time>
      </trkpt>
      <trkpt lat="45.81911" lon="1.88637">
        <ele>739.6</ele>
        <time>2026-07-07T12:34:40.000Z</time>
      </trkpt>
      <trkpt lat="45.81907" lon="1.88636">
        <ele>739.2</ele>
        <time>2026-07-07T12:34:41.000Z</time>
      </trkpt>
      <trkpt lat="45.81906" lon="1.88634">
        <ele>739.8</ele>
        <time>2026-07-07T12:34:42.000Z</time>
      </trkpt>
      <trkpt lat="45.81904" lon="1.88633">
        <ele>741.3</ele>
        <time>2026-07-07T12:34:43.000Z</time>
      </trkpt>
      <trkpt lat="45.81903" lon="1.88632">
        <ele>742.5</ele>
        <time>2026-07-07T12:34:44.000Z</time>
      </trkpt>
      <trkpt lat="45.819" lon="1.88631">
        <ele>742.1</ele>
        <time>2026-07-07T12:34:45.000Z</time>
      </trkpt>
      <trkpt lat="45.81897" lon="1.8863">
        <ele>742</ele>
        <time>2026-07-07T12:34:46.000Z</time>
      </trkpt>
      <trkpt lat="45.81895" lon="1.88628">
        <ele>741.8</ele>
        <time>2026-07-07T12:34:47.000Z</time>
      </trkpt>
      <trkpt lat="45.81892" lon="1.88626">
        <ele>741.6</ele>
        <time>2026-07-07T12:34:48.000Z</time>
      </trkpt>
      <trkpt lat="45.81889" lon="1.88624">
        <ele>741.2</ele>
        <time>2026-07-07T12:34:49.000Z</time>
      </trkpt>
      <trkpt lat="45.81886" lon="1.88622">
        <ele>741.7</ele>
        <time>2026-07-07T12:34:50.000Z</time>
      </trkpt>
      <trkpt lat="45.81883" lon="1.88619">
        <ele>740.9</ele>
        <time>2026-07-07T12:34:51.000Z</time>
      </trkpt>
      <trkpt lat="45.8188" lon="1.88617">
        <ele>740.2</ele>
        <time>2026-07-07T12:34:52.000Z</time>
      </trkpt>
      <trkpt lat="45.81877" lon="1.88616">
        <ele>738.9</ele>
        <time>2026-07-07T12:34:53.000Z</time>
      </trkpt>
      <trkpt lat="45.81873" lon="1.88615">
        <ele>738.9</ele>
        <time>2026-07-07T12:34:54.000Z</time>
      </trkpt>
      <trkpt lat="45.8187" lon="1.88614">
        <ele>739</ele>
        <time>2026-07-07T12:34:55.000Z</time>
      </trkpt>
      <trkpt lat="45.81867" lon="1.88614">
        <ele>739.5</ele>
        <time>2026-07-07T12:34:56.000Z</time>
      </trkpt>
      <trkpt lat="45.81864" lon="1.88613">
        <ele>738.8</ele>
        <time>2026-07-07T12:34:57.000Z</time>
      </trkpt>
      <trkpt lat="45.81862" lon="1.88612">
        <ele>739.1</ele>
        <time>2026-07-07T12:34:58.000Z</time>
      </trkpt>
      <trkpt lat="45.81859" lon="1.88611">
        <ele>739.2</ele>
        <time>2026-07-07T12:34:59.000Z</time>
      </trkpt>
      <trkpt lat="45.81857" lon="1.8861">
        <ele>738.8</ele>
        <time>2026-07-07T12:35:00.000Z</time>
      </trkpt>
      <trkpt lat="45.81855" lon="1.88609">
        <ele>736.8</ele>
        <time>2026-07-07T12:35:01.000Z</time>
      </trkpt>
      <trkpt lat="45.81852" lon="1.88608">
        <ele>736.3</ele>
        <time>2026-07-07T12:35:02.000Z</time>
      </trkpt>
      <trkpt lat="45.81849" lon="1.88608">
        <ele>736</ele>
        <time>2026-07-07T12:35:03.000Z</time>
      </trkpt>
      <trkpt lat="45.81847" lon="1.88607">
        <ele>736.1</ele>
        <time>2026-07-07T12:35:04.000Z</time>
      </trkpt>
      <trkpt lat="45.81844" lon="1.88606">
        <ele>735.1</ele>
        <time>2026-07-07T12:35:05.000Z</time>
      </trkpt>
      <trkpt lat="45.81842" lon="1.88605">
        <ele>734.8</ele>
        <time>2026-07-07T12:35:06.000Z</time>
      </trkpt>
      <trkpt lat="45.81839" lon="1.88604">
        <ele>735.1</ele>
        <time>2026-07-07T12:35:07.000Z</time>
      </trkpt>
      <trkpt lat="45.81836" lon="1.88603">
        <ele>735.4</ele>
        <time>2026-07-07T12:35:08.000Z</time>
      </trkpt>
      <trkpt lat="45.81833" lon="1.88603">
        <ele>735.2</ele>
        <time>2026-07-07T12:35:09.000Z</time>
      </trkpt>
      <trkpt lat="45.8183" lon="1.88602">
        <ele>734.8</ele>
        <time>2026-07-07T12:35:10.000Z</time>
      </trkpt>
      <trkpt lat="45.81827" lon="1.88602">
        <ele>734</ele>
        <time>2026-07-07T12:35:11.000Z</time>
      </trkpt>
      <trkpt lat="45.81824" lon="1.88602">
        <ele>734.3</ele>
        <time>2026-07-07T12:35:12.000Z</time>
      </trkpt>
      <trkpt lat="45.81821" lon="1.88602">
        <ele>734</ele>
        <time>2026-07-07T12:35:13.000Z</time>
      </trkpt>
      <trkpt lat="45.81817" lon="1.88602">
        <ele>734.2</ele>
        <time>2026-07-07T12:35:14.000Z</time>
      </trkpt>
      <trkpt lat="45.81814" lon="1.88603">
        <ele>734.4</ele>
        <time>2026-07-07T12:35:15.000Z</time>
      </trkpt>
      <trkpt lat="45.81811" lon="1.88603">
        <ele>734.6</ele>
        <time>2026-07-07T12:35:16.000Z</time>
      </trkpt>
      <trkpt lat="45.81808" lon="1.88604">
        <ele>734.8</ele>
        <time>2026-07-07T12:35:17.000Z</time>
      </trkpt>
      <trkpt lat="45.81805" lon="1.88605">
        <ele>734.4</ele>
        <time>2026-07-07T12:35:18.000Z</time>
      </trkpt>
      <trkpt lat="45.81802" lon="1.88606">
        <ele>734.2</ele>
        <time>2026-07-07T12:35:19.000Z</time>
      </trkpt>
      <trkpt lat="45.81799" lon="1.88606">
        <ele>734.2</ele>
        <time>2026-07-07T12:35:20.000Z</time>
      </trkpt>
      <trkpt lat="45.81795" lon="1.88606">
        <ele>733.4</ele>
        <time>2026-07-07T12:35:21.000Z</time>
      </trkpt>
      <trkpt lat="45.81792" lon="1.88607">
        <ele>732.6</ele>
        <time>2026-07-07T12:35:22.000Z</time>
      </trkpt>
      <trkpt lat="45.81789" lon="1.88608">
        <ele>731.3</ele>
        <time>2026-07-07T12:35:23.000Z</time>
      </trkpt>
      <trkpt lat="45.81786" lon="1.88609">
        <ele>731.8</ele>
        <time>2026-07-07T12:35:24.000Z</time>
      </trkpt>
      <trkpt lat="45.81783" lon="1.88609">
        <ele>731.6</ele>
        <time>2026-07-07T12:35:25.000Z</time>
      </trkpt>
      <trkpt lat="45.81779" lon="1.88609">
        <ele>731.8</ele>
        <time>2026-07-07T12:35:26.000Z</time>
      </trkpt>
      <trkpt lat="45.81776" lon="1.8861">
        <ele>731.2</ele>
        <time>2026-07-07T12:35:27.000Z</time>
      </trkpt>
      <trkpt lat="45.81773" lon="1.88611">
        <ele>731.3</ele>
        <time>2026-07-07T12:35:28.000Z</time>
      </trkpt>
      <trkpt lat="45.8177" lon="1.88611">
        <ele>731.5</ele>
        <time>2026-07-07T12:35:29.000Z</time>
      </trkpt>
      <trkpt lat="45.81768" lon="1.88612">
        <ele>732.5</ele>
        <time>2026-07-07T12:35:30.000Z</time>
      </trkpt>
      <trkpt lat="45.81766" lon="1.88613">
        <ele>732</ele>
        <time>2026-07-07T12:35:31.000Z</time>
      </trkpt>
      <trkpt lat="45.81765" lon="1.88614">
        <ele>731.9</ele>
        <time>2026-07-07T12:35:32.000Z</time>
      </trkpt>
      <trkpt lat="45.81763" lon="1.88615">
        <ele>730.8</ele>
        <time>2026-07-07T12:35:33.000Z</time>
      </trkpt>
      <trkpt lat="45.81761" lon="1.88617">
        <ele>731</ele>
        <time>2026-07-07T12:35:34.000Z</time>
      </trkpt>
      <trkpt lat="45.8176" lon="1.88618">
        <ele>730.5</ele>
        <time>2026-07-07T12:35:35.000Z</time>
      </trkpt>
      <trkpt lat="45.81758" lon="1.88619">
        <ele>731.7</ele>
        <time>2026-07-07T12:35:36.000Z</time>
      </trkpt>
      <trkpt lat="45.81756" lon="1.88619">
        <ele>731.6</ele>
        <time>2026-07-07T12:35:37.000Z</time>
      </trkpt>
      <trkpt lat="45.81755" lon="1.8862">
        <ele>731.2</ele>
        <time>2026-07-07T12:35:38.000Z</time>
      </trkpt>
      <trkpt lat="45.81753" lon="1.88621">
        <ele>730.6</ele>
        <time>2026-07-07T12:35:39.000Z</time>
      </trkpt>
      <trkpt lat="45.81751" lon="1.88621">
        <ele>730.9</ele>
        <time>2026-07-07T12:35:40.000Z</time>
      </trkpt>
      <trkpt lat="45.8175" lon="1.88621">
        <ele>731.3</ele>
        <time>2026-07-07T12:35:41.000Z</time>
      </trkpt>
      <trkpt lat="45.81748" lon="1.88621">
        <ele>731.3</ele>
        <time>2026-07-07T12:35:42.000Z</time>
      </trkpt>
      <trkpt lat="45.81746" lon="1.88623">
        <ele>731.1</ele>
        <time>2026-07-07T12:35:43.000Z</time>
      </trkpt>
      <trkpt lat="45.81745" lon="1.88624">
        <ele>730.9</ele>
        <time>2026-07-07T12:35:44.000Z</time>
      </trkpt>
      <trkpt lat="45.81743" lon="1.88625">
        <ele>730.5</ele>
        <time>2026-07-07T12:35:45.000Z</time>
      </trkpt>
      <trkpt lat="45.81741" lon="1.88626">
        <ele>730</ele>
        <time>2026-07-07T12:35:46.000Z</time>
      </trkpt>
      <trkpt lat="45.8174" lon="1.88626">
        <ele>729.7</ele>
        <time>2026-07-07T12:35:47.000Z</time>
      </trkpt>
      <trkpt lat="45.81738" lon="1.88627">
        <ele>729.1</ele>
        <time>2026-07-07T12:35:48.000Z</time>
      </trkpt>
      <trkpt lat="45.81737" lon="1.88626">
        <ele>729.3</ele>
        <time>2026-07-07T12:35:49.000Z</time>
      </trkpt>
      <trkpt lat="45.81736" lon="1.88625">
        <ele>728.9</ele>
        <time>2026-07-07T12:35:50.000Z</time>
      </trkpt>
      <trkpt lat="45.81734" lon="1.88625">
        <ele>728.7</ele>
        <time>2026-07-07T12:35:51.000Z</time>
      </trkpt>
      <trkpt lat="45.81732" lon="1.88624">
        <ele>728.4</ele>
        <time>2026-07-07T12:35:52.000Z</time>
      </trkpt>
      <trkpt lat="45.81731" lon="1.88624">
        <ele>728.1</ele>
        <time>2026-07-07T12:35:53.000Z</time>
      </trkpt>
      <trkpt lat="45.81729" lon="1.88623">
        <ele>727.5</ele>
        <time>2026-07-07T12:35:54.000Z</time>
      </trkpt>
      <trkpt lat="45.81728" lon="1.88622">
        <ele>727.6</ele>
        <time>2026-07-07T12:35:55.000Z</time>
      </trkpt>
      <trkpt lat="45.81726" lon="1.88621">
        <ele>727.6</ele>
        <time>2026-07-07T12:35:56.000Z</time>
      </trkpt>
      <trkpt lat="45.81724" lon="1.88621">
        <ele>727.4</ele>
        <time>2026-07-07T12:35:57.000Z</time>
      </trkpt>
      <trkpt lat="45.81723" lon="1.8862">
        <ele>727.4</ele>
        <time>2026-07-07T12:35:58.000Z</time>
      </trkpt>
      <trkpt lat="45.81721" lon="1.8862">
        <ele>727.3</ele>
        <time>2026-07-07T12:35:59.000Z</time>
      </trkpt>
      <trkpt lat="45.8172" lon="1.88619">
        <ele>726.8</ele>
        <time>2026-07-07T12:36:00.000Z</time>
      </trkpt>
      <trkpt lat="45.81718" lon="1.88618">
        <ele>726.6</ele>
        <time>2026-07-07T12:36:01.000Z</time>
      </trkpt>
      <trkpt lat="45.81717" lon="1.88617">
        <ele>726.4</ele>
        <time>2026-07-07T12:36:02.000Z</time>
      </trkpt>
      <trkpt lat="45.81716" lon="1.88615">
        <ele>726.2</ele>
        <time>2026-07-07T12:36:03.000Z</time>
      </trkpt>
      <trkpt lat="45.81714" lon="1.88613">
        <ele>725.9</ele>
        <time>2026-07-07T12:36:04.000Z</time>
      </trkpt>
      <trkpt lat="45.81713" lon="1.88611">
        <ele>725.8</ele>
        <time>2026-07-07T12:36:05.000Z</time>
      </trkpt>
      <trkpt lat="45.81712" lon="1.8861">
        <ele>725.5</ele>
        <time>2026-07-07T12:36:06.000Z</time>
      </trkpt>
      <trkpt lat="45.8171" lon="1.88608">
        <ele>725.3</ele>
        <time>2026-07-07T12:36:07.000Z</time>
      </trkpt>
      <trkpt lat="45.81709" lon="1.88606">
        <ele>725.1</ele>
        <time>2026-07-07T12:36:08.000Z</time>
      </trkpt>
      <trkpt lat="45.81708" lon="1.88605">
        <ele>724.9</ele>
        <time>2026-07-07T12:36:09.000Z</time>
      </trkpt>
      <trkpt lat="45.81706" lon="1.88603">
        <ele>724.5</ele>
        <time>2026-07-07T12:36:10.000Z</time>
      </trkpt>
      <trkpt lat="45.81705" lon="1.88601">
        <ele>724.1</ele>
        <time>2026-07-07T12:36:11.000Z</time>
      </trkpt>
      <trkpt lat="45.81705" lon="1.88599">
        <ele>723.6</ele>
        <time>2026-07-07T12:36:12.000Z</time>
      </trkpt>
      <trkpt lat="45.81704" lon="1.88597">
        <ele>723.3</ele>
        <time>2026-07-07T12:36:13.000Z</time>
      </trkpt>
      <trkpt lat="45.81703" lon="1.88594">
        <ele>722.9</ele>
        <time>2026-07-07T12:36:14.000Z</time>
      </trkpt>
      <trkpt lat="45.81702" lon="1.88592">
        <ele>722.3</ele>
        <time>2026-07-07T12:36:15.000Z</time>
      </trkpt>
      <trkpt lat="45.81701" lon="1.8859">
        <ele>722.1</ele>
        <time>2026-07-07T12:36:16.000Z</time>
      </trkpt>
      <trkpt lat="45.817" lon="1.88587">
        <ele>721.9</ele>
        <time>2026-07-07T12:36:17.000Z</time>
      </trkpt>
      <trkpt lat="45.81698" lon="1.88585">
        <ele>721.4</ele>
        <time>2026-07-07T12:36:18.000Z</time>
      </trkpt>
      <trkpt lat="45.81697" lon="1.88583">
        <ele>721.2</ele>
        <time>2026-07-07T12:36:19.000Z</time>
      </trkpt>
      <trkpt lat="45.81696" lon="1.88582">
        <ele>720.9</ele>
        <time>2026-07-07T12:36:20.000Z</time>
      </trkpt>
      <trkpt lat="45.81695" lon="1.8858">
        <ele>720.4</ele>
        <time>2026-07-07T12:36:21.000Z</time>
      </trkpt>
      <trkpt lat="45.81694" lon="1.88578">
        <ele>720.2</ele>
        <time>2026-07-07T12:36:22.000Z</time>
      </trkpt>
      <trkpt lat="45.81693" lon="1.88576">
        <ele>720</ele>
        <time>2026-07-07T12:36:23.000Z</time>
      </trkpt>
      <trkpt lat="45.81693" lon="1.88576">
        <ele>720.1</ele>
        <time>2026-07-07T12:36:24.000Z</time>
      </trkpt>
      <trkpt lat="45.81692" lon="1.88574">
        <ele>719.9</ele>
        <time>2026-07-07T12:36:25.000Z</time>
      </trkpt>
      <trkpt lat="45.81691" lon="1.88572">
        <ele>720</ele>
        <time>2026-07-07T12:36:26.000Z</time>
      </trkpt>
      <trkpt lat="45.81691" lon="1.8857">
        <ele>719.9</ele>
        <time>2026-07-07T12:36:27.000Z</time>
      </trkpt>
      <trkpt lat="45.8169" lon="1.88568">
        <ele>719.7</ele>
        <time>2026-07-07T12:36:28.000Z</time>
      </trkpt>
      <trkpt lat="45.8169" lon="1.88565">
        <ele>719.6</ele>
        <time>2026-07-07T12:36:29.000Z</time>
      </trkpt>
      <trkpt lat="45.8169" lon="1.88563">
        <ele>719.5</ele>
        <time>2026-07-07T12:36:30.000Z</time>
      </trkpt>
      <trkpt lat="45.8169" lon="1.88562">
        <ele>719.1</ele>
        <time>2026-07-07T12:36:31.000Z</time>
      </trkpt>
      <trkpt lat="45.8169" lon="1.88559">
        <ele>719</ele>
        <time>2026-07-07T12:36:32.000Z</time>
      </trkpt>
      <trkpt lat="45.8169" lon="1.88556">
        <ele>719.2</ele>
        <time>2026-07-07T12:36:33.000Z</time>
      </trkpt>
      <trkpt lat="45.81691" lon="1.88554">
        <ele>719.5</ele>
        <time>2026-07-07T12:36:34.000Z</time>
      </trkpt>
      <trkpt lat="45.81691" lon="1.88551">
        <ele>720</ele>
        <time>2026-07-07T12:36:35.000Z</time>
      </trkpt>
      <trkpt lat="45.81692" lon="1.88548">
        <ele>719.8</ele>
        <time>2026-07-07T12:36:36.000Z</time>
      </trkpt>
      <trkpt lat="45.8169" lon="1.88545">
        <ele>720.7</ele>
        <time>2026-07-07T12:36:37.000Z</time>
      </trkpt>
      <trkpt lat="45.81692" lon="1.88543">
        <ele>719.6</ele>
        <time>2026-07-07T12:36:38.000Z</time>
      </trkpt>
      <trkpt lat="45.81693" lon="1.88541">
        <ele>719.7</ele>
        <time>2026-07-07T12:36:39.000Z</time>
      </trkpt>
      <trkpt lat="45.81694" lon="1.88539">
        <ele>719.3</ele>
        <time>2026-07-07T12:36:40.000Z</time>
      </trkpt>
      <trkpt lat="45.81695" lon="1.88537">
        <ele>719.7</ele>
        <time>2026-07-07T12:36:41.000Z</time>
      </trkpt>
      <trkpt lat="45.81695" lon="1.88534">
        <ele>718.9</ele>
        <time>2026-07-07T12:36:42.000Z</time>
      </trkpt>
      <trkpt lat="45.81696" lon="1.88532">
        <ele>718.7</ele>
        <time>2026-07-07T12:36:43.000Z</time>
      </trkpt>
      <trkpt lat="45.81697" lon="1.88529">
        <ele>718.6</ele>
        <time>2026-07-07T12:36:44.000Z</time>
      </trkpt>
      <trkpt lat="45.81697" lon="1.88527">
        <ele>718.3</ele>
        <time>2026-07-07T12:36:45.000Z</time>
      </trkpt>
      <trkpt lat="45.81698" lon="1.88524">
        <ele>718.3</ele>
        <time>2026-07-07T12:36:46.000Z</time>
      </trkpt>
      <trkpt lat="45.81698" lon="1.88522">
        <ele>718</ele>
        <time>2026-07-07T12:36:47.000Z</time>
      </trkpt>
      <trkpt lat="45.81698" lon="1.88519">
        <ele>717.7</ele>
        <time>2026-07-07T12:36:48.000Z</time>
      </trkpt>
      <trkpt lat="45.81697" lon="1.88516">
        <ele>717.4</ele>
        <time>2026-07-07T12:36:49.000Z</time>
      </trkpt>
      <trkpt lat="45.81697" lon="1.88514">
        <ele>717.2</ele>
        <time>2026-07-07T12:36:50.000Z</time>
      </trkpt>
      <trkpt lat="45.81697" lon="1.88511">
        <ele>716.9</ele>
        <time>2026-07-07T12:36:51.000Z</time>
      </trkpt>
      <trkpt lat="45.81696" lon="1.88509">
        <ele>716.6</ele>
        <time>2026-07-07T12:36:52.000Z</time>
      </trkpt>
      <trkpt lat="45.81697" lon="1.88506">
        <ele>716.1</ele>
        <time>2026-07-07T12:36:53.000Z</time>
      </trkpt>
      <trkpt lat="45.81697" lon="1.88504">
        <ele>715.9</ele>
        <time>2026-07-07T12:36:54.000Z</time>
      </trkpt>
      <trkpt lat="45.81696" lon="1.88502">
        <ele>715.6</ele>
        <time>2026-07-07T12:36:55.000Z</time>
      </trkpt>
      <trkpt lat="45.81696" lon="1.885">
        <ele>715.1</ele>
        <time>2026-07-07T12:36:56.000Z</time>
      </trkpt>
      <trkpt lat="45.81696" lon="1.88498">
        <ele>715</ele>
        <time>2026-07-07T12:36:57.000Z</time>
      </trkpt>
      <trkpt lat="45.81696" lon="1.88495">
        <ele>714.6</ele>
        <time>2026-07-07T12:36:58.000Z</time>
      </trkpt>
      <trkpt lat="45.81697" lon="1.88494">
        <ele>714.4</ele>
        <time>2026-07-07T12:36:59.000Z</time>
      </trkpt>
      <trkpt lat="45.81698" lon="1.88493">
        <ele>714.4</ele>
        <time>2026-07-07T12:37:00.000Z</time>
      </trkpt>
      <trkpt lat="45.81698" lon="1.88493">
        <ele>714.4</ele>
        <time>2026-07-07T12:37:01.000Z</time>
      </trkpt>
      <trkpt lat="45.81698" lon="1.88493">
        <ele>714.5</ele>
        <time>2026-07-07T12:37:02.000Z</time>
      </trkpt>
      <trkpt lat="45.81698" lon="1.88493">
        <ele>714.5</ele>
        <time>2026-07-07T12:37:03.000Z</time>
      </trkpt>
      <trkpt lat="45.81698" lon="1.88493">
        <ele>714.5</ele>
        <time>2026-07-07T12:37:04.000Z</time>
      </trkpt>
      <trkpt lat="45.81698" lon="1.88493">
        <ele>714.2</ele>
        <time>2026-07-07T12:37:05.000Z</time>
      </trkpt>
      <trkpt lat="45.81698" lon="1.88493">
        <ele>714.1</ele>
        <time>2026-07-07T12:37:06.000Z</time>
      </trkpt>
      <trkpt lat="45.81698" lon="1.88491">
        <ele>712.6</ele>
        <time>2026-07-07T12:37:07.000Z</time>
      </trkpt>
      <trkpt lat="45.81698" lon="1.88491">
        <ele>712.9</ele>
        <time>2026-07-07T12:37:08.000Z</time>
      </trkpt>
      <trkpt lat="45.81698" lon="1.8849">
        <ele>712.9</ele>
        <time>2026-07-07T12:37:09.000Z</time>
      </trkpt>
      <trkpt lat="45.81698" lon="1.8849">
        <ele>712.8</ele>
        <time>2026-07-07T12:37:10.000Z</time>
      </trkpt>
      <trkpt lat="45.81698" lon="1.8849">
        <ele>712.8</ele>
        <time>2026-07-07T12:37:11.000Z</time>
      </trkpt>
      <trkpt lat="45.81699" lon="1.88491">
        <ele>712.9</ele>
        <time>2026-07-07T12:37:12.000Z</time>
      </trkpt>
      <trkpt lat="45.81699" lon="1.88492">
        <ele>713.1</ele>
        <time>2026-07-07T12:37:13.000Z</time>
      </trkpt>
      <trkpt lat="45.81699" lon="1.88493">
        <ele>712.6</ele>
        <time>2026-07-07T12:37:14.000Z</time>
      </trkpt>
      <trkpt lat="45.81699" lon="1.88495">
        <ele>712.4</ele>
        <time>2026-07-07T12:37:15.000Z</time>
      </trkpt>
      <trkpt lat="45.81699" lon="1.88496">
        <ele>711.6</ele>
        <time>2026-07-07T12:37:16.000Z</time>
      </trkpt>
      <trkpt lat="45.81699" lon="1.88496">
        <ele>711.7</ele>
        <time>2026-07-07T12:37:17.000Z</time>
      </trkpt>
      <trkpt lat="45.81699" lon="1.88496">
        <ele>711.7</ele>
        <time>2026-07-07T12:37:18.000Z</time>
      </trkpt>
      <trkpt lat="45.81699" lon="1.88496">
        <ele>711.7</ele>
        <time>2026-07-07T12:37:19.000Z</time>
      </trkpt>
      <trkpt lat="45.81699" lon="1.88496">
        <ele>711.7</ele>
        <time>2026-07-07T12:37:20.000Z</time>
      </trkpt>
      <trkpt lat="45.81699" lon="1.88496">
        <ele>711.7</ele>
        <time>2026-07-07T12:37:21.000Z</time>
      </trkpt>
      <trkpt lat="45.81699" lon="1.88496">
        <ele>711.7</ele>
        <time>2026-07-07T12:37:22.000Z</time>
      </trkpt>
      <trkpt lat="45.81699" lon="1.88496">
        <ele>711.7</ele>
        <time>2026-07-07T12:37:23.000Z</time>
      </trkpt>
      <trkpt lat="45.81699" lon="1.88496">
        <ele>711.7</ele>
        <time>2026-07-07T12:37:24.000Z</time>
      </trkpt>
      <trkpt lat="45.81699" lon="1.88496">
        <ele>711.7</ele>
        <time>2026-07-07T12:37:25.000Z</time>
      </trkpt>
      <trkpt lat="45.81699" lon="1.88496">
        <ele>711.7</ele>
        <time>2026-07-07T12:37:26.000Z</time>
      </trkpt>
      <trkpt lat="45.81699" lon="1.88496">
        <ele>711.7</ele>
        <time>2026-07-07T12:37:27.000Z</time>
      </trkpt>
      <trkpt lat="45.81699" lon="1.88496">
        <ele>711.7</ele>
        <time>2026-07-07T12:37:28.000Z</time>
      </trkpt>
      <trkpt lat="45.81699" lon="1.88496">
        <ele>711.7</ele>
        <time>2026-07-07T12:37:29.000Z</time>
      </trkpt>
      <trkpt lat="45.81699" lon="1.88496">
        <ele>711.7</ele>
        <time>2026-07-07T12:37:30.000Z</time>
      </trkpt>
      <trkpt lat="45.81699" lon="1.88496">
        <ele>711.7</ele>
        <time>2026-07-07T12:37:31.000Z</time>
      </trkpt>
      <trkpt lat="45.81699" lon="1.88496">
        <ele>711.7</ele>
        <time>2026-07-07T12:37:32.000Z</time>
      </trkpt>
      <trkpt lat="45.81699" lon="1.88496">
        <ele>711.7</ele>
        <time>2026-07-07T12:37:33.000Z</time>
      </trkpt>
      <trkpt lat="45.81699" lon="1.88496">
        <ele>711.7</ele>
        <time>2026-07-07T12:37:34.000Z</time>
      </trkpt>
      <trkpt lat="45.81699" lon="1.88496">
        <ele>711.7</ele>
        <time>2026-07-07T12:37:35.000Z</time>
      </trkpt>
      <trkpt lat="45.81699" lon="1.88495">
        <ele>711.7</ele>
        <time>2026-07-07T12:37:36.000Z</time>
      </trkpt>
      <trkpt lat="45.81699" lon="1.88495">
        <ele>711.6</ele>
        <time>2026-07-07T12:37:37.000Z</time>
      </trkpt>
      <trkpt lat="45.81699" lon="1.88494">
        <ele>711.7</ele>
        <time>2026-07-07T12:37:38.000Z</time>
      </trkpt>
      <trkpt lat="45.817" lon="1.88493">
        <ele>711.7</ele>
        <time>2026-07-07T12:37:39.000Z</time>
      </trkpt>
      <trkpt lat="45.817" lon="1.88492">
        <ele>711.5</ele>
        <time>2026-07-07T12:37:40.000Z</time>
      </trkpt>
      <trkpt lat="45.817" lon="1.88491">
        <ele>712.9</ele>
        <time>2026-07-07T12:37:41.000Z</time>
      </trkpt>
      <trkpt lat="45.817" lon="1.8849">
        <ele>712.4</ele>
        <time>2026-07-07T12:37:42.000Z</time>
      </trkpt>
      <trkpt lat="45.817" lon="1.88488">
        <ele>712.1</ele>
        <time>2026-07-07T12:37:43.000Z</time>
      </trkpt>
      <trkpt lat="45.81699" lon="1.88488">
        <ele>711.8</ele>
        <time>2026-07-07T12:37:44.000Z</time>
      </trkpt>
      <trkpt lat="45.81699" lon="1.88489">
        <ele>711.7</ele>
        <time>2026-07-07T12:37:45.000Z</time>
      </trkpt>
      <trkpt lat="45.817" lon="1.88489">
        <ele>712.4</ele>
        <time>2026-07-07T12:37:46.000Z</time>
      </trkpt>
      <trkpt lat="45.817" lon="1.88489">
        <ele>712.7</ele>
        <time>2026-07-07T12:37:47.000Z</time>
      </trkpt>
      <trkpt lat="45.817" lon="1.8849">
        <ele>712.7</ele>
        <time>2026-07-07T12:37:48.000Z</time>
      </trkpt>
      <trkpt lat="45.817" lon="1.8849">
        <ele>712.7</ele>
        <time>2026-07-07T12:37:49.000Z</time>
      </trkpt>
      <trkpt lat="45.817" lon="1.8849">
        <ele>712.7</ele>
        <time>2026-07-07T12:37:50.000Z</time>
      </trkpt>
      <trkpt lat="45.817" lon="1.8849">
        <ele>712.7</ele>
        <time>2026-07-07T12:37:51.000Z</time>
      </trkpt>
      <trkpt lat="45.817" lon="1.8849">
        <ele>712.7</ele>
        <time>2026-07-07T12:37:52.000Z</time>
      </trkpt>
      <trkpt lat="45.817" lon="1.8849">
        <ele>712.7</ele>
        <time>2026-07-07T12:37:53.000Z</time>
      </trkpt>
      <trkpt lat="45.817" lon="1.8849">
        <ele>712.7</ele>
        <time>2026-07-07T12:37:54.000Z</time>
      </trkpt>
      <trkpt lat="45.817" lon="1.8849">
        <ele>712.9</ele>
        <time>2026-07-07T12:37:55.000Z</time>
      </trkpt>
      <trkpt lat="45.817" lon="1.8849">
        <ele>712.9</ele>
        <time>2026-07-07T12:37:56.000Z</time>
      </trkpt>
      <trkpt lat="45.817" lon="1.8849">
        <ele>712.9</ele>
        <time>2026-07-07T12:37:57.000Z</time>
      </trkpt>
      <trkpt lat="45.817" lon="1.8849">
        <ele>712.9</ele>
        <time>2026-07-07T12:37:58.000Z</time>
      </trkpt>
      <trkpt lat="45.817" lon="1.8849">
        <ele>713.1</ele>
        <time>2026-07-07T12:37:59.000Z</time>
      </trkpt>
      <trkpt lat="45.817" lon="1.8849">
        <ele>713.1</ele>
        <time>2026-07-07T12:38:00.000Z</time>
      </trkpt>
      <trkpt lat="45.81701" lon="1.88489">
        <ele>713</ele>
        <time>2026-07-07T12:38:01.000Z</time>
      </trkpt>
      <trkpt lat="45.81701" lon="1.88489">
        <ele>712.6</ele>
        <time>2026-07-07T12:38:02.000Z</time>
      </trkpt>
      <trkpt lat="45.81701" lon="1.88489">
        <ele>712.6</ele>
        <time>2026-07-07T12:38:03.000Z</time>
      </trkpt>
      <trkpt lat="45.81701" lon="1.8849">
        <ele>712.6</ele>
        <time>2026-07-07T12:38:04.000Z</time>
      </trkpt>
      <trkpt lat="45.81701" lon="1.8849">
        <ele>712.6</ele>
        <time>2026-07-07T12:38:05.000Z</time>
      </trkpt>
      <trkpt lat="45.81701" lon="1.8849">
        <ele>712.6</ele>
        <time>2026-07-07T12:38:06.000Z</time>
      </trkpt>
      <trkpt lat="45.81701" lon="1.8849">
        <ele>712.6</ele>
        <time>2026-07-07T12:38:07.000Z</time>
      </trkpt>
      <trkpt lat="45.81701" lon="1.8849">
        <ele>712.6</ele>
        <time>2026-07-07T12:38:08.000Z</time>
      </trkpt>
      <trkpt lat="45.81701" lon="1.8849">
        <ele>712.6</ele>
        <time>2026-07-07T12:38:09.000Z</time>
      </trkpt>
      <trkpt lat="45.81701" lon="1.8849">
        <ele>712.6</ele>
        <time>2026-07-07T12:38:10.000Z</time>
      </trkpt>
      <trkpt lat="45.81701" lon="1.8849">
        <ele>712.6</ele>
        <time>2026-07-07T12:38:11.000Z</time>
      </trkpt>
      <trkpt lat="45.81701" lon="1.8849">
        <ele>712.6</ele>
        <time>2026-07-07T12:38:12.000Z</time>
      </trkpt>
      <trkpt lat="45.81701" lon="1.8849">
        <ele>712.6</ele>
        <time>2026-07-07T12:38:13.000Z</time>
      </trkpt>
      <trkpt lat="45.81701" lon="1.8849">
        <ele>712.6</ele>
        <time>2026-07-07T12:38:14.000Z</time>
      </trkpt>
      <trkpt lat="45.81701" lon="1.8849">
        <ele>712.6</ele>
        <time>2026-07-07T12:38:15.000Z</time>
      </trkpt>
      <trkpt lat="45.81701" lon="1.8849">
        <ele>712.6</ele>
        <time>2026-07-07T12:38:16.000Z</time>
      </trkpt>
      <trkpt lat="45.81701" lon="1.8849">
        <ele>712.6</ele>
        <time>2026-07-07T12:38:17.000Z</time>
      </trkpt>
      <trkpt lat="45.81701" lon="1.8849">
        <ele>712.6</ele>
        <time>2026-07-07T12:38:18.000Z</time>
      </trkpt>
      <trkpt lat="45.81701" lon="1.8849">
        <ele>712.6</ele>
        <time>2026-07-07T12:38:19.000Z</time>
      </trkpt>
      <trkpt lat="45.81701" lon="1.8849">
        <ele>712.6</ele>
        <time>2026-07-07T12:38:20.000Z</time>
      </trkpt>
      <trkpt lat="45.81701" lon="1.8849">
        <ele>712.6</ele>
        <time>2026-07-07T12:38:21.000Z</time>
      </trkpt>
      <trkpt lat="45.81701" lon="1.8849">
        <ele>712.6</ele>
        <time>2026-07-07T12:38:22.000Z</time>
      </trkpt>
      <trkpt lat="45.81701" lon="1.8849">
        <ele>712.6</ele>
        <time>2026-07-07T12:38:23.000Z</time>
      </trkpt>
      <trkpt lat="45.81701" lon="1.8849">
        <ele>712.5</ele>
        <time>2026-07-07T12:38:24.000Z</time>
      </trkpt>
      <trkpt lat="45.81701" lon="1.8849">
        <ele>712.5</ele>
        <time>2026-07-07T12:38:25.000Z</time>
      </trkpt>
      <trkpt lat="45.81701" lon="1.8849">
        <ele>712.5</ele>
        <time>2026-07-07T12:38:26.000Z</time>
      </trkpt>
      <trkpt lat="45.81701" lon="1.8849">
        <ele>712.5</ele>
        <time>2026-07-07T12:38:27.000Z</time>
      </trkpt>
      <trkpt lat="45.81701" lon="1.8849">
        <ele>712.5</ele>
        <time>2026-07-07T12:38:28.000Z</time>
      </trkpt>
      <trkpt lat="45.81701" lon="1.8849">
        <ele>712.5</ele>
        <time>2026-07-07T12:38:29.000Z</time>
      </trkpt>
      <trkpt lat="45.81701" lon="1.8849">
        <ele>712.2</ele>
        <time>2026-07-07T12:38:30.000Z</time>
      </trkpt>
      <trkpt lat="45.817" lon="1.8849">
        <ele>712.2</ele>
        <time>2026-07-07T12:38:31.000Z</time>
      </trkpt>
      <trkpt lat="45.817" lon="1.8849">
        <ele>712.2</ele>
        <time>2026-07-07T12:38:32.000Z</time>
      </trkpt>
      <trkpt lat="45.817" lon="1.8849">
        <ele>712.2</ele>
        <time>2026-07-07T12:38:33.000Z</time>
      </trkpt>
      <trkpt lat="45.817" lon="1.8849">
        <ele>712.2</ele>
        <time>2026-07-07T12:38:34.000Z</time>
      </trkpt>
      <trkpt lat="45.817" lon="1.8849">
        <ele>712.2</ele>
        <time>2026-07-07T12:38:35.000Z</time>
      </trkpt>
      <trkpt lat="45.817" lon="1.8849">
        <ele>712.2</ele>
        <time>2026-07-07T12:38:36.000Z</time>
      </trkpt>
      <trkpt lat="45.817" lon="1.8849">
        <ele>712.2</ele>
        <time>2026-07-07T12:38:37.000Z</time>
      </trkpt>
      <trkpt lat="45.817" lon="1.8849">
        <ele>712.2</ele>
        <time>2026-07-07T12:38:38.000Z</time>
      </trkpt>
      <trkpt lat="45.817" lon="1.8849">
        <ele>712.2</ele>
        <time>2026-07-07T12:38:39.000Z</time>
      </trkpt>
      <trkpt lat="45.817" lon="1.8849">
        <ele>712.2</ele>
        <time>2026-07-07T12:38:40.000Z</time>
      </trkpt>
      <trkpt lat="45.817" lon="1.8849">
        <ele>712.2</ele>
        <time>2026-07-07T12:38:41.000Z</time>
      </trkpt>
      <trkpt lat="45.817" lon="1.8849">
        <ele>712.2</ele>
        <time>2026-07-07T12:38:42.000Z</time>
      </trkpt>
      <trkpt lat="45.817" lon="1.8849">
        <ele>712.2</ele>
        <time>2026-07-07T12:38:43.000Z</time>
      </trkpt>
      <trkpt lat="45.817" lon="1.8849">
        <ele>712.2</ele>
        <time>2026-07-07T12:38:44.000Z</time>
      </trkpt>
      <trkpt lat="45.817" lon="1.8849">
        <ele>712.2</ele>
        <time>2026-07-07T12:38:45.000Z</time>
      </trkpt>
      <trkpt lat="45.81699" lon="1.88491">
        <ele>712.1</ele>
        <time>2026-07-07T12:38:46.000Z</time>
      </trkpt>
      <trkpt lat="45.81699" lon="1.88493">
        <ele>712.3</ele>
        <time>2026-07-07T12:38:47.000Z</time>
      </trkpt>
      <trkpt lat="45.81699" lon="1.88493">
        <ele>712.5</ele>
        <time>2026-07-07T12:38:48.000Z</time>
      </trkpt>
      <trkpt lat="45.817" lon="1.88493">
        <ele>712.3</ele>
        <time>2026-07-07T12:38:49.000Z</time>
      </trkpt>
      <trkpt lat="45.81701" lon="1.88493">
        <ele>712.9</ele>
        <time>2026-07-07T12:38:50.000Z</time>
      </trkpt>
      <trkpt lat="45.81701" lon="1.88492">
        <ele>712.9</ele>
        <time>2026-07-07T12:38:51.000Z</time>
      </trkpt>
      <trkpt lat="45.81701" lon="1.88492">
        <ele>712.9</ele>
        <time>2026-07-07T12:38:52.000Z</time>
      </trkpt>
      <trkpt lat="45.81701" lon="1.88492">
        <ele>712.9</ele>
        <time>2026-07-07T12:38:53.000Z</time>
      </trkpt>
      <trkpt lat="45.81701" lon="1.88492">
        <ele>712.9</ele>
        <time>2026-07-07T12:38:54.000Z</time>
      </trkpt>
      <trkpt lat="45.81701" lon="1.88492">
        <ele>712.9</ele>
        <time>2026-07-07T12:38:55.000Z</time>
      </trkpt>
      <trkpt lat="45.81701" lon="1.88492">
        <ele>712.9</ele>
        <time>2026-07-07T12:38:56.000Z</time>
      </trkpt>
      <trkpt lat="45.81701" lon="1.88492">
        <ele>712.9</ele>
        <time>2026-07-07T12:38:57.000Z</time>
      </trkpt>
      <trkpt lat="45.81701" lon="1.88492">
        <ele>712.9</ele>
        <time>2026-07-07T12:38:58.000Z</time>
      </trkpt>
      <trkpt lat="45.81701" lon="1.88492">
        <ele>712.9</ele>
        <time>2026-07-07T12:38:59.000Z</time>
      </trkpt>
      <trkpt lat="45.81701" lon="1.88492">
        <ele>712.9</ele>
        <time>2026-07-07T12:39:00.000Z</time>
      </trkpt>
      <trkpt lat="45.81701" lon="1.88492">
        <ele>712.9</ele>
        <time>2026-07-07T12:39:01.000Z</time>
      </trkpt>
      <trkpt lat="45.81701" lon="1.88492">
        <ele>712.9</ele>
        <time>2026-07-07T12:39:02.000Z</time>
      </trkpt>
      <trkpt lat="45.81701" lon="1.88491">
        <ele>712.8</ele>
        <time>2026-07-07T12:39:03.000Z</time>
      </trkpt>
      <trkpt lat="45.817" lon="1.88491">
        <ele>712.6</ele>
        <time>2026-07-07T12:39:04.000Z</time>
      </trkpt>
      <trkpt lat="45.81698" lon="1.88492">
        <ele>713</ele>
        <time>2026-07-07T12:39:05.000Z</time>
      </trkpt>
      <trkpt lat="45.81697" lon="1.88491">
        <ele>712.6</ele>
        <time>2026-07-07T12:39:06.000Z</time>
      </trkpt>
      <trkpt lat="45.81695" lon="1.88489">
        <ele>713</ele>
        <time>2026-07-07T12:39:07.000Z</time>
      </trkpt>
      <trkpt lat="45.81695" lon="1.88487">
        <ele>714.4</ele>
        <time>2026-07-07T12:39:08.000Z</time>
      </trkpt>
      <trkpt lat="45.81695" lon="1.88485">
        <ele>714.6</ele>
        <time>2026-07-07T12:39:09.000Z</time>
      </trkpt>
      <trkpt lat="45.81697" lon="1.88485">
        <ele>714.7</ele>
        <time>2026-07-07T12:39:10.000Z</time>
      </trkpt>
      <trkpt lat="45.81698" lon="1.88485">
        <ele>714.7</ele>
        <time>2026-07-07T12:39:11.000Z</time>
      </trkpt>
      <trkpt lat="45.81699" lon="1.88485">
        <ele>715.6</ele>
        <time>2026-07-07T12:39:12.000Z</time>
      </trkpt>
      <trkpt lat="45.81699" lon="1.88485">
        <ele>715.7</ele>
        <time>2026-07-07T12:39:13.000Z</time>
      </trkpt>
      <trkpt lat="45.81698" lon="1.88486">
        <ele>715.7</ele>
        <time>2026-07-07T12:39:14.000Z</time>
      </trkpt>
      <trkpt lat="45.81698" lon="1.88486">
        <ele>715.7</ele>
        <time>2026-07-07T12:39:15.000Z</time>
      </trkpt>
      <trkpt lat="45.81698" lon="1.88486">
        <ele>715.7</ele>
        <time>2026-07-07T12:39:16.000Z</time>
      </trkpt>
      <trkpt lat="45.81698" lon="1.88486">
        <ele>715.7</ele>
        <time>2026-07-07T12:39:17.000Z</time>
      </trkpt>
      <trkpt lat="45.81698" lon="1.88486">
        <ele>715.7</ele>
        <time>2026-07-07T12:39:18.000Z</time>
      </trkpt>
      <trkpt lat="45.81698" lon="1.88486">
        <ele>715.7</ele>
        <time>2026-07-07T12:39:19.000Z</time>
      </trkpt>
      <trkpt lat="45.81698" lon="1.88486">
        <ele>715.7</ele>
        <time>2026-07-07T12:39:20.000Z</time>
      </trkpt>
      <trkpt lat="45.81698" lon="1.88486">
        <ele>715.7</ele>
        <time>2026-07-07T12:39:21.000Z</time>
      </trkpt>
      <trkpt lat="45.81698" lon="1.88486">
        <ele>715.5</ele>
        <time>2026-07-07T12:39:22.000Z</time>
      </trkpt>
      <trkpt lat="45.81698" lon="1.88486">
        <ele>715.5</ele>
        <time>2026-07-07T12:39:23.000Z</time>
      </trkpt>
      <trkpt lat="45.81698" lon="1.88486">
        <ele>715.5</ele>
        <time>2026-07-07T12:39:24.000Z</time>
      </trkpt>
      <trkpt lat="45.81698" lon="1.88486">
        <ele>715.5</ele>
        <time>2026-07-07T12:39:25.000Z</time>
      </trkpt>
      <trkpt lat="45.81698" lon="1.88486">
        <ele>715.5</ele>
        <time>2026-07-07T12:39:26.000Z</time>
      </trkpt>
      <trkpt lat="45.81698" lon="1.88486">
        <ele>715.5</ele>
        <time>2026-07-07T12:39:27.000Z</time>
      </trkpt>
      <trkpt lat="45.81698" lon="1.88486">
        <ele>715.5</ele>
        <time>2026-07-07T12:39:28.000Z</time>
      </trkpt>
      <trkpt lat="45.81698" lon="1.88486">
        <ele>715.5</ele>
        <time>2026-07-07T12:39:29.000Z</time>
      </trkpt>
      <trkpt lat="45.81698" lon="1.88486">
        <ele>715.1</ele>
        <time>2026-07-07T12:39:30.000Z</time>
      </trkpt>
      <trkpt lat="45.81698" lon="1.88486">
        <ele>715.1</ele>
        <time>2026-07-07T12:39:31.000Z</time>
      </trkpt>
      <trkpt lat="45.81698" lon="1.88486">
        <ele>715.1</ele>
        <time>2026-07-07T12:39:32.000Z</time>
      </trkpt>
      <trkpt lat="45.81698" lon="1.88486">
        <ele>715.1</ele>
        <time>2026-07-07T12:39:33.000Z</time>
      </trkpt>
      <trkpt lat="45.81698" lon="1.88487">
        <ele>715.5</ele>
        <time>2026-07-07T12:39:34.000Z</time>
      </trkpt>
      <trkpt lat="45.81698" lon="1.88488">
        <ele>715.7</ele>
        <time>2026-07-07T12:39:35.000Z</time>
      </trkpt>
      <trkpt lat="45.81698" lon="1.88488">
        <ele>716</ele>
        <time>2026-07-07T12:39:36.000Z</time>
      </trkpt>
      <trkpt lat="45.81698" lon="1.88489">
        <ele>713</ele>
        <time>2026-07-07T12:39:37.000Z</time>
      </trkpt>
      <trkpt lat="45.81699" lon="1.88489">
        <ele>712.2</ele>
        <time>2026-07-07T12:39:38.000Z</time>
      </trkpt>
      <trkpt lat="45.81699" lon="1.8849">
        <ele>711.6</ele>
        <time>2026-07-07T12:39:39.000Z</time>
      </trkpt>
      <trkpt lat="45.81698" lon="1.8849">
        <ele>711.7</ele>
        <time>2026-07-07T12:39:40.000Z</time>
      </trkpt>
      <trkpt lat="45.81698" lon="1.8849">
        <ele>711.7</ele>
        <time>2026-07-07T12:39:41.000Z</time>
      </trkpt>
      <trkpt lat="45.81698" lon="1.8849">
        <ele>711.7</ele>
        <time>2026-07-07T12:39:42.000Z</time>
      </trkpt>
      <trkpt lat="45.81698" lon="1.8849">
        <ele>711.8</ele>
        <time>2026-07-07T12:39:43.000Z</time>
      </trkpt>
      <trkpt lat="45.81698" lon="1.8849">
        <ele>711.8</ele>
        <time>2026-07-07T12:39:44.000Z</time>
      </trkpt>
      <trkpt lat="45.81698" lon="1.8849">
        <ele>711.8</ele>
        <time>2026-07-07T12:39:45.000Z</time>
      </trkpt>
      <trkpt lat="45.81697" lon="1.88491">
        <ele>712.1</ele>
        <time>2026-07-07T12:39:46.000Z</time>
      </trkpt>
      <trkpt lat="45.81697" lon="1.88492">
        <ele>712.7</ele>
        <time>2026-07-07T12:39:47.000Z</time>
      </trkpt>
      <trkpt lat="45.81697" lon="1.88493">
        <ele>713.3</ele>
        <time>2026-07-07T12:39:48.000Z</time>
      </trkpt>
      <trkpt lat="45.81697" lon="1.88493">
        <ele>713.1</ele>
        <time>2026-07-07T12:39:49.000Z</time>
      </trkpt>
      <trkpt lat="45.81696" lon="1.88494">
        <ele>712.6</ele>
        <time>2026-07-07T12:39:50.000Z</time>
      </trkpt>
      <trkpt lat="45.81695" lon="1.88495">
        <ele>712.1</ele>
        <time>2026-07-07T12:39:51.000Z</time>
      </trkpt>
      <trkpt lat="45.81694" lon="1.88495">
        <ele>712.5</ele>
        <time>2026-07-07T12:39:52.000Z</time>
      </trkpt>
      <trkpt lat="45.81693" lon="1.88497">
        <ele>712.1</ele>
        <time>2026-07-07T12:39:53.000Z</time>
      </trkpt>
      <trkpt lat="45.81693" lon="1.88498">
        <ele>711.7</ele>
        <time>2026-07-07T12:39:54.000Z</time>
      </trkpt>
      <trkpt lat="45.81695" lon="1.88499">
        <ele>711.8</ele>
        <time>2026-07-07T12:39:55.000Z</time>
      </trkpt>
      <trkpt lat="45.81697" lon="1.88499">
        <ele>711.3</ele>
        <time>2026-07-07T12:39:56.000Z</time>
      </trkpt>
      <trkpt lat="45.81698" lon="1.88497">
        <ele>711.7</ele>
        <time>2026-07-07T12:39:57.000Z</time>
      </trkpt>
      <trkpt lat="45.81698" lon="1.88496">
        <ele>711.6</ele>
        <time>2026-07-07T12:39:58.000Z</time>
      </trkpt>
      <trkpt lat="45.81699" lon="1.88496">
        <ele>711.6</ele>
        <time>2026-07-07T12:39:59.000Z</time>
      </trkpt>
      <trkpt lat="45.81699" lon="1.88496">
        <ele>711.6</ele>
        <time>2026-07-07T12:40:00.000Z</time>
      </trkpt>
      <trkpt lat="45.81699" lon="1.88496">
        <ele>711.6</ele>
        <time>2026-07-07T12:40:01.000Z</time>
      </trkpt>
      <trkpt lat="45.81699" lon="1.88496">
        <ele>711.6</ele>
        <time>2026-07-07T12:40:02.000Z</time>
      </trkpt>
      <trkpt lat="45.81699" lon="1.88496">
        <ele>711.6</ele>
        <time>2026-07-07T12:40:03.000Z</time>
      </trkpt>
      <trkpt lat="45.81699" lon="1.88496">
        <ele>711.6</ele>
        <time>2026-07-07T12:40:04.000Z</time>
      </trkpt>
      <trkpt lat="45.81699" lon="1.88496">
        <ele>711.6</ele>
        <time>2026-07-07T12:40:05.000Z</time>
      </trkpt>
      <trkpt lat="45.81699" lon="1.88496">
        <ele>711.6</ele>
        <time>2026-07-07T12:40:06.000Z</time>
      </trkpt>
      <trkpt lat="45.81699" lon="1.88496">
        <ele>711.6</ele>
        <time>2026-07-07T12:40:07.000Z</time>
      </trkpt>
      <trkpt lat="45.81699" lon="1.88496">
        <ele>711.6</ele>
        <time>2026-07-07T12:40:08.000Z</time>
      </trkpt>
      <trkpt lat="45.81699" lon="1.88496">
        <ele>711.6</ele>
        <time>2026-07-07T12:40:09.000Z</time>
      </trkpt>
      <trkpt lat="45.81699" lon="1.88496">
        <ele>711.6</ele>
        <time>2026-07-07T12:40:10.000Z</time>
      </trkpt>
      <trkpt lat="45.81699" lon="1.88496">
        <ele>711.6</ele>
        <time>2026-07-07T12:40:11.000Z</time>
      </trkpt>
      <trkpt lat="45.81699" lon="1.88496">
        <ele>711.6</ele>
        <time>2026-07-07T12:40:12.000Z</time>
      </trkpt>
      <trkpt lat="45.81699" lon="1.88496">
        <ele>711.6</ele>
        <time>2026-07-07T12:40:13.000Z</time>
      </trkpt>
      <trkpt lat="45.81699" lon="1.88496">
        <ele>711.6</ele>
        <time>2026-07-07T12:40:14.000Z</time>
      </trkpt>
      <trkpt lat="45.81699" lon="1.88496">
        <ele>711.6</ele>
        <time>2026-07-07T12:40:15.000Z</time>
      </trkpt>
      <trkpt lat="45.81699" lon="1.88496">
        <ele>711.6</ele>
        <time>2026-07-07T12:40:16.000Z</time>
      </trkpt>
      <trkpt lat="45.81699" lon="1.88496">
        <ele>711.5</ele>
        <time>2026-07-07T12:40:17.000Z</time>
      </trkpt>
      <trkpt lat="45.81699" lon="1.88496">
        <ele>711.5</ele>
        <time>2026-07-07T12:40:18.000Z</time>
      </trkpt>
      <trkpt lat="45.81699" lon="1.88496">
        <ele>711.5</ele>
        <time>2026-07-07T12:40:19.000Z</time>
      </trkpt>
      <trkpt lat="45.81699" lon="1.88496">
        <ele>711.6</ele>
        <time>2026-07-07T12:40:20.000Z</time>
      </trkpt>
      <trkpt lat="45.81699" lon="1.88496">
        <ele>711.6</ele>
        <time>2026-07-07T12:40:21.000Z</time>
      </trkpt>
      <trkpt lat="45.81698" lon="1.88496">
        <ele>710.3</ele>
        <time>2026-07-07T12:40:22.000Z</time>
      </trkpt>
      <trkpt lat="45.81697" lon="1.88495">
        <ele>710.7</ele>
        <time>2026-07-07T12:40:23.000Z</time>
      </trkpt>
      <trkpt lat="45.81696" lon="1.88494">
        <ele>710.8</ele>
        <time>2026-07-07T12:40:24.000Z</time>
      </trkpt>
      <trkpt lat="45.81697" lon="1.88492">
        <ele>710.2</ele>
        <time>2026-07-07T12:40:25.000Z</time>
      </trkpt>
      <trkpt lat="45.81698" lon="1.88492">
        <ele>709.9</ele>
        <time>2026-07-07T12:40:26.000Z</time>
      </trkpt>
      <trkpt lat="45.81699" lon="1.88492">
        <ele>711</ele>
        <time>2026-07-07T12:40:27.000Z</time>
      </trkpt>
      <trkpt lat="45.81699" lon="1.88492">
        <ele>710.4</ele>
        <time>2026-07-07T12:40:28.000Z</time>
      </trkpt>
      <trkpt lat="45.81702" lon="1.88492">
        <ele>711.1</ele>
        <time>2026-07-07T12:40:29.000Z</time>
      </trkpt>
      <trkpt lat="45.81703" lon="1.88492">
        <ele>710.9</ele>
        <time>2026-07-07T12:40:30.000Z</time>
      </trkpt>
      <trkpt lat="45.81702" lon="1.88497">
        <ele>709.6</ele>
        <time>2026-07-07T12:40:31.000Z</time>
      </trkpt>
      <trkpt lat="45.817" lon="1.88497">
        <ele>709.4</ele>
        <time>2026-07-07T12:40:32.000Z</time>
      </trkpt>
      <trkpt lat="45.81699" lon="1.88496">
        <ele>709.5</ele>
        <time>2026-07-07T12:40:33.000Z</time>
      </trkpt>
      <trkpt lat="45.81698" lon="1.88496">
        <ele>709.3</ele>
        <time>2026-07-07T12:40:34.000Z</time>
      </trkpt>
      <trkpt lat="45.81698" lon="1.88496">
        <ele>709.3</ele>
        <time>2026-07-07T12:40:35.000Z</time>
      </trkpt>
      <trkpt lat="45.81698" lon="1.88496">
        <ele>709.3</ele>
        <time>2026-07-07T12:40:36.000Z</time>
      </trkpt>
      <trkpt lat="45.81698" lon="1.88495">
        <ele>708.8</ele>
        <time>2026-07-07T12:40:37.000Z</time>
      </trkpt>
      <trkpt lat="45.81697" lon="1.88494">
        <ele>708.7</ele>
        <time>2026-07-07T12:40:38.000Z</time>
      </trkpt>
      <trkpt lat="45.81697" lon="1.88493">
        <ele>709.3</ele>
        <time>2026-07-07T12:40:39.000Z</time>
      </trkpt>
      <trkpt lat="45.81696" lon="1.88493">
        <ele>709.5</ele>
        <time>2026-07-07T12:40:40.000Z</time>
      </trkpt>
      <trkpt lat="45.81697" lon="1.88494">
        <ele>710.3</ele>
        <time>2026-07-07T12:40:41.000Z</time>
      </trkpt>
      <trkpt lat="45.81697" lon="1.88493">
        <ele>710.6</ele>
        <time>2026-07-07T12:40:42.000Z</time>
      </trkpt>
      <trkpt lat="45.81697" lon="1.88493">
        <ele>710.6</ele>
        <time>2026-07-07T12:40:43.000Z</time>
      </trkpt>
      <trkpt lat="45.81697" lon="1.88493">
        <ele>710.6</ele>
        <time>2026-07-07T12:40:44.000Z</time>
      </trkpt>
      <trkpt lat="45.81697" lon="1.88493">
        <ele>710.6</ele>
        <time>2026-07-07T12:40:45.000Z</time>
      </trkpt>
      <trkpt lat="45.81697" lon="1.88493">
        <ele>710.6</ele>
        <time>2026-07-07T12:40:46.000Z</time>
      </trkpt>
      <trkpt lat="45.81697" lon="1.88493">
        <ele>711.2</ele>
        <time>2026-07-07T12:40:47.000Z</time>
      </trkpt>
      <trkpt lat="45.81697" lon="1.88492">
        <ele>710.7</ele>
        <time>2026-07-07T12:40:48.000Z</time>
      </trkpt>
      <trkpt lat="45.81698" lon="1.88492">
        <ele>710.8</ele>
        <time>2026-07-07T12:40:49.000Z</time>
      </trkpt>
      <trkpt lat="45.81698" lon="1.88492">
        <ele>710.8</ele>
        <time>2026-07-07T12:40:50.000Z</time>
      </trkpt>
      <trkpt lat="45.81697" lon="1.88492">
        <ele>710.8</ele>
        <time>2026-07-07T12:40:51.000Z</time>
      </trkpt>
      <trkpt lat="45.81697" lon="1.88492">
        <ele>711</ele>
        <time>2026-07-07T12:40:52.000Z</time>
      </trkpt>
      <trkpt lat="45.81697" lon="1.88492">
        <ele>711</ele>
        <time>2026-07-07T12:40:53.000Z</time>
      </trkpt>
      <trkpt lat="45.81698" lon="1.88493">
        <ele>710.6</ele>
        <time>2026-07-07T12:40:54.000Z</time>
      </trkpt>
      <trkpt lat="45.81699" lon="1.88494">
        <ele>709.5</ele>
        <time>2026-07-07T12:40:55.000Z</time>
      </trkpt>
      <trkpt lat="45.817" lon="1.88495">
        <ele>709.3</ele>
        <time>2026-07-07T12:40:56.000Z</time>
      </trkpt>
      <trkpt lat="45.817" lon="1.88497">
        <ele>710</ele>
        <time>2026-07-07T12:40:57.000Z</time>
      </trkpt>
      <trkpt lat="45.81699" lon="1.88498">
        <ele>709.9</ele>
        <time>2026-07-07T12:40:58.000Z</time>
      </trkpt>
      <trkpt lat="45.817" lon="1.88497">
        <ele>709.6</ele>
        <time>2026-07-07T12:40:59.000Z</time>
      </trkpt>
      <trkpt lat="45.817" lon="1.88496">
        <ele>709.6</ele>
        <time>2026-07-07T12:41:00.000Z</time>
      </trkpt>
      <trkpt lat="45.817" lon="1.88495">
        <ele>709.6</ele>
        <time>2026-07-07T12:41:01.000Z</time>
      </trkpt>
      <trkpt lat="45.817" lon="1.88495">
        <ele>709.6</ele>
        <time>2026-07-07T12:41:02.000Z</time>
      </trkpt>
      <trkpt lat="45.817" lon="1.88495">
        <ele>709.6</ele>
        <time>2026-07-07T12:41:03.000Z</time>
      </trkpt>
      <trkpt lat="45.817" lon="1.88495">
        <ele>709.6</ele>
        <time>2026-07-07T12:41:04.000Z</time>
      </trkpt>
      <trkpt lat="45.817" lon="1.88495">
        <ele>709.6</ele>
        <time>2026-07-07T12:41:05.000Z</time>
      </trkpt>
      <trkpt lat="45.817" lon="1.88495">
        <ele>709.6</ele>
        <time>2026-07-07T12:41:06.000Z</time>
      </trkpt>
      <trkpt lat="45.817" lon="1.88495">
        <ele>709.6</ele>
        <time>2026-07-07T12:41:07.000Z</time>
      </trkpt>
      <trkpt lat="45.817" lon="1.88495">
        <ele>709.6</ele>
        <time>2026-07-07T12:41:08.000Z</time>
      </trkpt>
      <trkpt lat="45.817" lon="1.88495">
        <ele>709.6</ele>
        <time>2026-07-07T12:41:09.000Z</time>
      </trkpt>
      <trkpt lat="45.817" lon="1.88495">
        <ele>709.6</ele>
        <time>2026-07-07T12:41:10.000Z</time>
      </trkpt>
      <trkpt lat="45.817" lon="1.88495">
        <ele>709.7</ele>
        <time>2026-07-07T12:41:11.000Z</time>
      </trkpt>
      <trkpt lat="45.817" lon="1.88495">
        <ele>709.7</ele>
        <time>2026-07-07T12:41:12.000Z</time>
      </trkpt>
      <trkpt lat="45.817" lon="1.88495">
        <ele>709.7</ele>
        <time>2026-07-07T12:41:13.000Z</time>
      </trkpt>
      <trkpt lat="45.817" lon="1.88495">
        <ele>709.7</ele>
        <time>2026-07-07T12:41:14.000Z</time>
      </trkpt>
      <trkpt lat="45.817" lon="1.88495">
        <ele>709.6</ele>
        <time>2026-07-07T12:41:15.000Z</time>
      </trkpt>
      <trkpt lat="45.817" lon="1.88494">
        <ele>710.4</ele>
        <time>2026-07-07T12:41:16.000Z</time>
      </trkpt>
      <trkpt lat="45.81699" lon="1.88493">
        <ele>710.6</ele>
        <time>2026-07-07T12:41:17.000Z</time>
      </trkpt>
      <trkpt lat="45.81699" lon="1.88492">
        <ele>710.5</ele>
        <time>2026-07-07T12:41:18.000Z</time>
      </trkpt>
      <trkpt lat="45.81698" lon="1.88491">
        <ele>711</ele>
        <time>2026-07-07T12:41:19.000Z</time>
      </trkpt>
      <trkpt lat="45.81698" lon="1.8849">
        <ele>710.6</ele>
        <time>2026-07-07T12:41:20.000Z</time>
      </trkpt>
      <trkpt lat="45.81698" lon="1.88491">
        <ele>710.5</ele>
        <time>2026-07-07T12:41:21.000Z</time>
      </trkpt>
      <trkpt lat="45.81698" lon="1.8849">
        <ele>710.3</ele>
        <time>2026-07-07T12:41:22.000Z</time>
      </trkpt>
      <trkpt lat="45.81697" lon="1.88489">
        <ele>711.1</ele>
        <time>2026-07-07T12:41:23.000Z</time>
      </trkpt>
      <trkpt lat="45.81697" lon="1.88487">
        <ele>711.4</ele>
        <time>2026-07-07T12:41:24.000Z</time>
      </trkpt>
      <trkpt lat="45.81696" lon="1.88486">
        <ele>712.3</ele>
        <time>2026-07-07T12:41:25.000Z</time>
      </trkpt>
      <trkpt lat="45.81695" lon="1.88485">
        <ele>712.4</ele>
        <time>2026-07-07T12:41:26.000Z</time>
      </trkpt>
      <trkpt lat="45.81694" lon="1.88484">
        <ele>712.5</ele>
        <time>2026-07-07T12:41:27.000Z</time>
      </trkpt>
      <trkpt lat="45.81694" lon="1.88485">
        <ele>710.7</ele>
        <time>2026-07-07T12:41:28.000Z</time>
      </trkpt>
      <trkpt lat="45.81694" lon="1.88486">
        <ele>711.4</ele>
        <time>2026-07-07T12:41:29.000Z</time>
      </trkpt>
      <trkpt lat="45.81694" lon="1.88487">
        <ele>712.5</ele>
        <time>2026-07-07T12:41:30.000Z</time>
      </trkpt>
      <trkpt lat="45.81694" lon="1.88489">
        <ele>713.3</ele>
        <time>2026-07-07T12:41:31.000Z</time>
      </trkpt>
      <trkpt lat="45.81694" lon="1.88491">
        <ele>713.9</ele>
        <time>2026-07-07T12:41:32.000Z</time>
      </trkpt>
      <trkpt lat="45.81695" lon="1.88493">
        <ele>713.7</ele>
        <time>2026-07-07T12:41:33.000Z</time>
      </trkpt>
      <trkpt lat="45.81695" lon="1.88495">
        <ele>713.6</ele>
        <time>2026-07-07T12:41:34.000Z</time>
      </trkpt>
      <trkpt lat="45.81697" lon="1.88497">
        <ele>713.2</ele>
        <time>2026-07-07T12:41:35.000Z</time>
      </trkpt>
      <trkpt lat="45.81698" lon="1.88496">
        <ele>711.8</ele>
        <time>2026-07-07T12:41:36.000Z</time>
      </trkpt>
      <trkpt lat="45.81699" lon="1.88497">
        <ele>711.3</ele>
        <time>2026-07-07T12:41:37.000Z</time>
      </trkpt>
      <trkpt lat="45.81699" lon="1.88493">
        <ele>716.5</ele>
        <time>2026-07-07T12:41:38.000Z</time>
      </trkpt>
      <trkpt lat="45.81699" lon="1.88492">
        <ele>716.5</ele>
        <time>2026-07-07T12:41:39.000Z</time>
      </trkpt>
      <trkpt lat="45.81699" lon="1.88492">
        <ele>716.5</ele>
        <time>2026-07-07T12:41:40.000Z</time>
      </trkpt>
      <trkpt lat="45.81699" lon="1.88492">
        <ele>716.5</ele>
        <time>2026-07-07T12:41:41.000Z</time>
      </trkpt>
      <trkpt lat="45.81699" lon="1.88492">
        <ele>716.5</ele>
        <time>2026-07-07T12:41:42.000Z</time>
      </trkpt>
      <trkpt lat="45.81699" lon="1.88492">
        <ele>716.5</ele>
        <time>2026-07-07T12:41:43.000Z</time>
      </trkpt>
      <trkpt lat="45.81699" lon="1.88492">
        <ele>716.5</ele>
        <time>2026-07-07T12:41:44.000Z</time>
      </trkpt>
      <trkpt lat="45.81699" lon="1.88492">
        <ele>716.5</ele>
        <time>2026-07-07T12:41:45.000Z</time>
      </trkpt>
      <trkpt lat="45.81699" lon="1.88492">
        <ele>716.5</ele>
        <time>2026-07-07T12:41:46.000Z</time>
      </trkpt>
      <trkpt lat="45.81699" lon="1.88492">
        <ele>716.5</ele>
        <time>2026-07-07T12:41:47.000Z</time>
      </trkpt>
      <trkpt lat="45.81699" lon="1.88492">
        <ele>716.4</ele>
        <time>2026-07-07T12:41:48.000Z</time>
      </trkpt>
      <trkpt lat="45.81699" lon="1.88492">
        <ele>716.4</ele>
        <time>2026-07-07T12:41:49.000Z</time>
      </trkpt>
      <trkpt lat="45.81699" lon="1.88492">
        <ele>716.4</ele>
        <time>2026-07-07T12:41:50.000Z</time>
      </trkpt>
      <trkpt lat="45.81699" lon="1.88492">
        <ele>716.4</ele>
        <time>2026-07-07T12:41:51.000Z</time>
      </trkpt>
      <trkpt lat="45.81699" lon="1.88492">
        <ele>716.4</ele>
        <time>2026-07-07T12:41:52.000Z</time>
      </trkpt>
      <trkpt lat="45.81699" lon="1.88492">
        <ele>716.4</ele>
        <time>2026-07-07T12:41:53.000Z</time>
      </trkpt>
      <trkpt lat="45.81699" lon="1.88492">
        <ele>716</ele>
        <time>2026-07-07T12:41:54.000Z</time>
      </trkpt>
      <trkpt lat="45.81699" lon="1.88492">
        <ele>715.5</ele>
        <time>2026-07-07T12:41:55.000Z</time>
      </trkpt>
      <trkpt lat="45.81699" lon="1.8849">
        <ele>714.9</ele>
        <time>2026-07-07T12:41:56.000Z</time>
      </trkpt>
      <trkpt lat="45.81699" lon="1.88489">
        <ele>714.4</ele>
        <time>2026-07-07T12:41:57.000Z</time>
      </trkpt>
      <trkpt lat="45.81699" lon="1.88487">
        <ele>714.3</ele>
        <time>2026-07-07T12:41:58.000Z</time>
      </trkpt>
      <trkpt lat="45.81699" lon="1.88486">
        <ele>714</ele>
        <time>2026-07-07T12:41:59.000Z</time>
      </trkpt>
      <trkpt lat="45.81699" lon="1.88485">
        <ele>713.6</ele>
        <time>2026-07-07T12:42:00.000Z</time>
      </trkpt>
      <trkpt lat="45.81699" lon="1.88485">
        <ele>713.6</ele>
        <time>2026-07-07T12:42:01.000Z</time>
      </trkpt>
      <trkpt lat="45.81699" lon="1.88486">
        <ele>713.6</ele>
        <time>2026-07-07T12:42:02.000Z</time>
      </trkpt>
      <trkpt lat="45.81699" lon="1.88486">
        <ele>713.6</ele>
        <time>2026-07-07T12:42:03.000Z</time>
      </trkpt>
      <trkpt lat="45.81699" lon="1.88486">
        <ele>713.1</ele>
        <time>2026-07-07T12:42:04.000Z</time>
      </trkpt>
      <trkpt lat="45.817" lon="1.88485">
        <ele>713</ele>
        <time>2026-07-07T12:42:05.000Z</time>
      </trkpt>
      <trkpt lat="45.817" lon="1.88485">
        <ele>712.5</ele>
        <time>2026-07-07T12:42:06.000Z</time>
      </trkpt>
      <trkpt lat="45.817" lon="1.88485">
        <ele>712.6</ele>
        <time>2026-07-07T12:42:07.000Z</time>
      </trkpt>
      <trkpt lat="45.817" lon="1.88485">
        <ele>712.6</ele>
        <time>2026-07-07T12:42:08.000Z</time>
      </trkpt>
      <trkpt lat="45.817" lon="1.88485">
        <ele>712.6</ele>
        <time>2026-07-07T12:42:09.000Z</time>
      </trkpt>
      <trkpt lat="45.817" lon="1.88485">
        <ele>712.6</ele>
        <time>2026-07-07T12:42:10.000Z</time>
      </trkpt>
      <trkpt lat="45.817" lon="1.88485">
        <ele>712.6</ele>
        <time>2026-07-07T12:42:11.000Z</time>
      </trkpt>
      <trkpt lat="45.817" lon="1.88485">
        <ele>712.6</ele>
        <time>2026-07-07T12:42:12.000Z</time>
      </trkpt>
      <trkpt lat="45.817" lon="1.88485">
        <ele>712.6</ele>
        <time>2026-07-07T12:42:13.000Z</time>
      </trkpt>
      <trkpt lat="45.817" lon="1.88485">
        <ele>712.6</ele>
        <time>2026-07-07T12:42:14.000Z</time>
      </trkpt>
      <trkpt lat="45.817" lon="1.88485">
        <ele>712.6</ele>
        <time>2026-07-07T12:42:15.000Z</time>
      </trkpt>
      <trkpt lat="45.817" lon="1.88485">
        <ele>712.8</ele>
        <time>2026-07-07T12:42:16.000Z</time>
      </trkpt>
      <trkpt lat="45.81701" lon="1.88485">
        <ele>712.9</ele>
        <time>2026-07-07T12:42:17.000Z</time>
      </trkpt>
      <trkpt lat="45.817" lon="1.88485">
        <ele>712.9</ele>
        <time>2026-07-07T12:42:18.000Z</time>
      </trkpt>
      <trkpt lat="45.817" lon="1.88486">
        <ele>712.5</ele>
        <time>2026-07-07T12:42:19.000Z</time>
      </trkpt>
      <trkpt lat="45.817" lon="1.88486">
        <ele>712.6</ele>
        <time>2026-07-07T12:42:20.000Z</time>
      </trkpt>
      <trkpt lat="45.817" lon="1.88486">
        <ele>712.6</ele>
        <time>2026-07-07T12:42:21.000Z</time>
      </trkpt>
      <trkpt lat="45.81701" lon="1.88486">
        <ele>712.8</ele>
        <time>2026-07-07T12:42:22.000Z</time>
      </trkpt>
      <trkpt lat="45.81701" lon="1.88486">
        <ele>712.8</ele>
        <time>2026-07-07T12:42:23.000Z</time>
      </trkpt>
      <trkpt lat="45.81701" lon="1.88486">
        <ele>712.8</ele>
        <time>2026-07-07T12:42:24.000Z</time>
      </trkpt>
      <trkpt lat="45.817" lon="1.88487">
        <ele>712.7</ele>
        <time>2026-07-07T12:42:25.000Z</time>
      </trkpt>
      <trkpt lat="45.81699" lon="1.88488">
        <ele>712.8</ele>
        <time>2026-07-07T12:42:26.000Z</time>
      </trkpt>
      <trkpt lat="45.817" lon="1.88488">
        <ele>712.4</ele>
        <time>2026-07-07T12:42:27.000Z</time>
      </trkpt>
      <trkpt lat="45.817" lon="1.88487">
        <ele>712.7</ele>
        <time>2026-07-07T12:42:28.000Z</time>
      </trkpt>
      <trkpt lat="45.817" lon="1.88486">
        <ele>712.9</ele>
        <time>2026-07-07T12:42:29.000Z</time>
      </trkpt>
      <trkpt lat="45.817" lon="1.88487">
        <ele>712.9</ele>
        <time>2026-07-07T12:42:30.000Z</time>
      </trkpt>
      <trkpt lat="45.817" lon="1.88487">
        <ele>713.2</ele>
        <time>2026-07-07T12:42:31.000Z</time>
      </trkpt>
      <trkpt lat="45.817" lon="1.88488">
        <ele>713.2</ele>
        <time>2026-07-07T12:42:32.000Z</time>
      </trkpt>
      <trkpt lat="45.817" lon="1.88488">
        <ele>713.4</ele>
        <time>2026-07-07T12:42:33.000Z</time>
      </trkpt>
      <trkpt lat="45.817" lon="1.88488">
        <ele>713.4</ele>
        <time>2026-07-07T12:42:34.000Z</time>
      </trkpt>
      <trkpt lat="45.817" lon="1.88488">
        <ele>713.4</ele>
        <time>2026-07-07T12:42:35.000Z</time>
      </trkpt>
      <trkpt lat="45.817" lon="1.88488">
        <ele>713.4</ele>
        <time>2026-07-07T12:42:36.000Z</time>
      </trkpt>
      <trkpt lat="45.817" lon="1.88488">
        <ele>713.4</ele>
        <time>2026-07-07T12:42:37.000Z</time>
      </trkpt>
      <trkpt lat="45.817" lon="1.88488">
        <ele>713.4</ele>
        <time>2026-07-07T12:42:38.000Z</time>
      </trkpt>
      <trkpt lat="45.817" lon="1.88488">
        <ele>713.4</ele>
        <time>2026-07-07T12:42:39.000Z</time>
      </trkpt>
      <trkpt lat="45.817" lon="1.88488">
        <ele>713.4</ele>
        <time>2026-07-07T12:42:40.000Z</time>
      </trkpt>
      <trkpt lat="45.817" lon="1.88489">
        <ele>713</ele>
        <time>2026-07-07T12:42:41.000Z</time>
      </trkpt>
      <trkpt lat="45.81699" lon="1.88489">
        <ele>712.5</ele>
        <time>2026-07-07T12:42:42.000Z</time>
      </trkpt>
      <trkpt lat="45.81699" lon="1.88489">
        <ele>713</ele>
        <time>2026-07-07T12:42:43.000Z</time>
      </trkpt>
      <trkpt lat="45.81699" lon="1.8849">
        <ele>713</ele>
        <time>2026-07-07T12:42:44.000Z</time>
      </trkpt>
      <trkpt lat="45.81698" lon="1.88491">
        <ele>712.7</ele>
        <time>2026-07-07T12:42:45.000Z</time>
      </trkpt>
      <trkpt lat="45.81698" lon="1.88493">
        <ele>712.9</ele>
        <time>2026-07-07T12:42:46.000Z</time>
      </trkpt>
      <trkpt lat="45.81698" lon="1.88494">
        <ele>712.8</ele>
        <time>2026-07-07T12:42:47.000Z</time>
      </trkpt>
      <trkpt lat="45.81698" lon="1.88496">
        <ele>712.9</ele>
        <time>2026-07-07T12:42:48.000Z</time>
      </trkpt>
      <trkpt lat="45.81698" lon="1.88497">
        <ele>713.1</ele>
        <time>2026-07-07T12:42:49.000Z</time>
      </trkpt>
      <trkpt lat="45.81698" lon="1.88498">
        <ele>712.6</ele>
        <time>2026-07-07T12:42:50.000Z</time>
      </trkpt>
      <trkpt lat="45.81697" lon="1.88498">
        <ele>712.7</ele>
        <time>2026-07-07T12:42:51.000Z</time>
      </trkpt>
      <trkpt lat="45.81697" lon="1.88499">
        <ele>712.6</ele>
        <time>2026-07-07T12:42:52.000Z</time>
      </trkpt>
      <trkpt lat="45.81697" lon="1.88499">
        <ele>712.6</ele>
        <time>2026-07-07T12:42:53.000Z</time>
      </trkpt>
      <trkpt lat="45.81697" lon="1.88499">
        <ele>712.5</ele>
        <time>2026-07-07T12:42:54.000Z</time>
      </trkpt>
      <trkpt lat="45.81697" lon="1.88499">
        <ele>712.5</ele>
        <time>2026-07-07T12:42:55.000Z</time>
      </trkpt>
      <trkpt lat="45.81697" lon="1.88499">
        <ele>712.5</ele>
        <time>2026-07-07T12:42:56.000Z</time>
      </trkpt>
      <trkpt lat="45.81697" lon="1.88499">
        <ele>712.5</ele>
        <time>2026-07-07T12:42:57.000Z</time>
      </trkpt>
      <trkpt lat="45.81697" lon="1.88499">
        <ele>712.5</ele>
        <time>2026-07-07T12:42:58.000Z</time>
      </trkpt>
      <trkpt lat="45.81697" lon="1.88499">
        <ele>712.5</ele>
        <time>2026-07-07T12:42:59.000Z</time>
      </trkpt>
      <trkpt lat="45.81697" lon="1.88499">
        <ele>712.5</ele>
        <time>2026-07-07T12:43:00.000Z</time>
      </trkpt>
      <trkpt lat="45.81697" lon="1.88499">
        <ele>712.5</ele>
        <time>2026-07-07T12:43:01.000Z</time>
      </trkpt>
      <trkpt lat="45.81697" lon="1.88499">
        <ele>712.5</ele>
        <time>2026-07-07T12:43:02.000Z</time>
      </trkpt>
      <trkpt lat="45.81697" lon="1.88499">
        <ele>712.5</ele>
        <time>2026-07-07T12:43:03.000Z</time>
      </trkpt>
      <trkpt lat="45.81697" lon="1.88499">
        <ele>712.5</ele>
        <time>2026-07-07T12:43:04.000Z</time>
      </trkpt>
      <trkpt lat="45.81697" lon="1.88499">
        <ele>712.5</ele>
        <time>2026-07-07T12:43:05.000Z</time>
      </trkpt>
      <trkpt lat="45.81697" lon="1.88499">
        <ele>712.5</ele>
        <time>2026-07-07T12:43:06.000Z</time>
      </trkpt>
      <trkpt lat="45.81697" lon="1.88498">
        <ele>712.1</ele>
        <time>2026-07-07T12:43:07.000Z</time>
      </trkpt>
      <trkpt lat="45.81697" lon="1.88498">
        <ele>711.8</ele>
        <time>2026-07-07T12:43:08.000Z</time>
      </trkpt>
      <trkpt lat="45.81697" lon="1.88497">
        <ele>711.9</ele>
        <time>2026-07-07T12:43:09.000Z</time>
      </trkpt>
      <trkpt lat="45.81697" lon="1.88496">
        <ele>711.4</ele>
        <time>2026-07-07T12:43:10.000Z</time>
      </trkpt>
      <trkpt lat="45.81697" lon="1.88494">
        <ele>711.8</ele>
        <time>2026-07-07T12:43:11.000Z</time>
      </trkpt>
      <trkpt lat="45.81698" lon="1.88493">
        <ele>711.9</ele>
        <time>2026-07-07T12:43:12.000Z</time>
      </trkpt>
      <trkpt lat="45.817" lon="1.88493">
        <ele>712.1</ele>
        <time>2026-07-07T12:43:13.000Z</time>
      </trkpt>
      <trkpt lat="45.81701" lon="1.88493">
        <ele>712.3</ele>
        <time>2026-07-07T12:43:14.000Z</time>
      </trkpt>
      <trkpt lat="45.817" lon="1.88493">
        <ele>712.1</ele>
        <time>2026-07-07T12:43:15.000Z</time>
      </trkpt>
      <trkpt lat="45.81699" lon="1.88493">
        <ele>712</ele>
        <time>2026-07-07T12:43:16.000Z</time>
      </trkpt>
      <trkpt lat="45.81699" lon="1.88493">
        <ele>712</ele>
        <time>2026-07-07T12:43:17.000Z</time>
      </trkpt>
      <trkpt lat="45.81699" lon="1.88493">
        <ele>712</ele>
        <time>2026-07-07T12:43:18.000Z</time>
      </trkpt>
      <trkpt lat="45.81699" lon="1.88493">
        <ele>712</ele>
        <time>2026-07-07T12:43:19.000Z</time>
      </trkpt>
      <trkpt lat="45.81699" lon="1.88493">
        <ele>711.7</ele>
        <time>2026-07-07T12:43:20.000Z</time>
      </trkpt>
      <trkpt lat="45.81699" lon="1.88493">
        <ele>711.7</ele>
        <time>2026-07-07T12:43:21.000Z</time>
      </trkpt>
      <trkpt lat="45.81698" lon="1.88493">
        <ele>711.9</ele>
        <time>2026-07-07T12:43:22.000Z</time>
      </trkpt>
      <trkpt lat="45.81697" lon="1.88494">
        <ele>712.6</ele>
        <time>2026-07-07T12:43:23.000Z</time>
      </trkpt>
      <trkpt lat="45.81696" lon="1.88494">
        <ele>712.7</ele>
        <time>2026-07-07T12:43:24.000Z</time>
      </trkpt>
      <trkpt lat="45.81695" lon="1.88494">
        <ele>712.8</ele>
        <time>2026-07-07T12:43:25.000Z</time>
      </trkpt>
      <trkpt lat="45.81695" lon="1.88493">
        <ele>713.3</ele>
        <time>2026-07-07T12:43:26.000Z</time>
      </trkpt>
      <trkpt lat="45.81696" lon="1.88491">
        <ele>714.2</ele>
        <time>2026-07-07T12:43:27.000Z</time>
      </trkpt>
      <trkpt lat="45.81699" lon="1.8849">
        <ele>713.9</ele>
        <time>2026-07-07T12:43:28.000Z</time>
      </trkpt>
      <trkpt lat="45.81701" lon="1.88489">
        <ele>714.2</ele>
        <time>2026-07-07T12:43:29.000Z</time>
      </trkpt>
      <trkpt lat="45.81703" lon="1.88488">
        <ele>714.2</ele>
        <time>2026-07-07T12:43:30.000Z</time>
      </trkpt>
      <trkpt lat="45.81705" lon="1.88488">
        <ele>714.4</ele>
        <time>2026-07-07T12:43:31.000Z</time>
      </trkpt>
      <trkpt lat="45.81707" lon="1.88488">
        <ele>714.8</ele>
        <time>2026-07-07T12:43:32.000Z</time>
      </trkpt>
      <trkpt lat="45.81709" lon="1.88487">
        <ele>714.9</ele>
        <time>2026-07-07T12:43:33.000Z</time>
      </trkpt>
      <trkpt lat="45.81711" lon="1.88486">
        <ele>714.7</ele>
        <time>2026-07-07T12:43:34.000Z</time>
      </trkpt>
      <trkpt lat="45.81713" lon="1.88485">
        <ele>714.3</ele>
        <time>2026-07-07T12:43:35.000Z</time>
      </trkpt>
      <trkpt lat="45.81715" lon="1.88484">
        <ele>714.3</ele>
        <time>2026-07-07T12:43:36.000Z</time>
      </trkpt>
      <trkpt lat="45.81716" lon="1.88482">
        <ele>712.9</ele>
        <time>2026-07-07T12:43:37.000Z</time>
      </trkpt>
      <trkpt lat="45.81716" lon="1.88479">
        <ele>713.1</ele>
        <time>2026-07-07T12:43:38.000Z</time>
      </trkpt>
      <trkpt lat="45.81715" lon="1.88477">
        <ele>713.2</ele>
        <time>2026-07-07T12:43:39.000Z</time>
      </trkpt>
      <trkpt lat="45.81714" lon="1.88475">
        <ele>713</ele>
        <time>2026-07-07T12:43:40.000Z</time>
      </trkpt>
      <trkpt lat="45.81717" lon="1.88474">
        <ele>713.6</ele>
        <time>2026-07-07T12:43:41.000Z</time>
      </trkpt>
      <trkpt lat="45.81719" lon="1.88473">
        <ele>713.9</ele>
        <time>2026-07-07T12:43:42.000Z</time>
      </trkpt>
      <trkpt lat="45.8172" lon="1.88471">
        <ele>714.5</ele>
        <time>2026-07-07T12:43:43.000Z</time>
      </trkpt>
      <trkpt lat="45.81722" lon="1.88469">
        <ele>714.3</ele>
        <time>2026-07-07T12:43:44.000Z</time>
      </trkpt>
      <trkpt lat="45.81724" lon="1.88467">
        <ele>714.7</ele>
        <time>2026-07-07T12:43:45.000Z</time>
      </trkpt>
      <trkpt lat="45.81726" lon="1.88465">
        <ele>714.4</ele>
        <time>2026-07-07T12:43:46.000Z</time>
      </trkpt>
      <trkpt lat="45.81727" lon="1.88464">
        <ele>714.1</ele>
        <time>2026-07-07T12:43:47.000Z</time>
      </trkpt>
      <trkpt lat="45.81729" lon="1.88462">
        <ele>714</ele>
        <time>2026-07-07T12:43:48.000Z</time>
      </trkpt>
      <trkpt lat="45.81731" lon="1.8846">
        <ele>713.9</ele>
        <time>2026-07-07T12:43:49.000Z</time>
      </trkpt>
      <trkpt lat="45.81732" lon="1.88458">
        <ele>713.7</ele>
        <time>2026-07-07T12:43:50.000Z</time>
      </trkpt>
      <trkpt lat="45.81734" lon="1.88456">
        <ele>713.6</ele>
        <time>2026-07-07T12:43:51.000Z</time>
      </trkpt>
      <trkpt lat="45.81735" lon="1.88455">
        <ele>713.7</ele>
        <time>2026-07-07T12:43:52.000Z</time>
      </trkpt>
      <trkpt lat="45.81736" lon="1.88453">
        <ele>714</ele>
        <time>2026-07-07T12:43:53.000Z</time>
      </trkpt>
      <trkpt lat="45.81738" lon="1.88452">
        <ele>713.8</ele>
        <time>2026-07-07T12:43:54.000Z</time>
      </trkpt>
      <trkpt lat="45.81739" lon="1.8845">
        <ele>713.8</ele>
        <time>2026-07-07T12:43:55.000Z</time>
      </trkpt>
      <trkpt lat="45.8174" lon="1.88449">
        <ele>713.8</ele>
        <time>2026-07-07T12:43:56.000Z</time>
      </trkpt>
      <trkpt lat="45.81742" lon="1.88447">
        <ele>713.7</ele>
        <time>2026-07-07T12:43:57.000Z</time>
      </trkpt>
      <trkpt lat="45.81743" lon="1.88445">
        <ele>713.7</ele>
        <time>2026-07-07T12:43:58.000Z</time>
      </trkpt>
      <trkpt lat="45.81744" lon="1.88443">
        <ele>713.9</ele>
        <time>2026-07-07T12:43:59.000Z</time>
      </trkpt>
      <trkpt lat="45.81745" lon="1.88441">
        <ele>713.9</ele>
        <time>2026-07-07T12:44:00.000Z</time>
      </trkpt>
      <trkpt lat="45.81746" lon="1.88439">
        <ele>713.8</ele>
        <time>2026-07-07T12:44:01.000Z</time>
      </trkpt>
      <trkpt lat="45.81747" lon="1.88437">
        <ele>713.8</ele>
        <time>2026-07-07T12:44:02.000Z</time>
      </trkpt>
      <trkpt lat="45.81749" lon="1.88435">
        <ele>713.8</ele>
        <time>2026-07-07T12:44:03.000Z</time>
      </trkpt>
      <trkpt lat="45.8175" lon="1.88433">
        <ele>713.7</ele>
        <time>2026-07-07T12:44:04.000Z</time>
      </trkpt>
      <trkpt lat="45.81751" lon="1.88431">
        <ele>713.8</ele>
        <time>2026-07-07T12:44:05.000Z</time>
      </trkpt>
      <trkpt lat="45.81752" lon="1.88429">
        <ele>713.6</ele>
        <time>2026-07-07T12:44:06.000Z</time>
      </trkpt>
      <trkpt lat="45.81753" lon="1.88427">
        <ele>713.6</ele>
        <time>2026-07-07T12:44:07.000Z</time>
      </trkpt>
      <trkpt lat="45.81755" lon="1.88425">
        <ele>713.7</ele>
        <time>2026-07-07T12:44:08.000Z</time>
      </trkpt>
      <trkpt lat="45.81756" lon="1.88422">
        <ele>713.8</ele>
        <time>2026-07-07T12:44:09.000Z</time>
      </trkpt>
      <trkpt lat="45.81758" lon="1.8842">
        <ele>713.5</ele>
        <time>2026-07-07T12:44:10.000Z</time>
      </trkpt>
      <trkpt lat="45.81757" lon="1.88414">
        <ele>713.7</ele>
        <time>2026-07-07T12:44:11.000Z</time>
      </trkpt>
      <trkpt lat="45.81757" lon="1.88408">
        <ele>714.2</ele>
        <time>2026-07-07T12:44:12.000Z</time>
      </trkpt>
      <trkpt lat="45.81763" lon="1.8841">
        <ele>713.5</ele>
        <time>2026-07-07T12:44:13.000Z</time>
      </trkpt>
      <trkpt lat="45.81765" lon="1.88408">
        <ele>713.2</ele>
        <time>2026-07-07T12:44:14.000Z</time>
      </trkpt>
      <trkpt lat="45.81766" lon="1.88406">
        <ele>713.4</ele>
        <time>2026-07-07T12:44:15.000Z</time>
      </trkpt>
      <trkpt lat="45.81768" lon="1.88404">
        <ele>713.6</ele>
        <time>2026-07-07T12:44:16.000Z</time>
      </trkpt>
      <trkpt lat="45.81769" lon="1.88402">
        <ele>713.4</ele>
        <time>2026-07-07T12:44:17.000Z</time>
      </trkpt>
      <trkpt lat="45.8177" lon="1.884">
        <ele>713.6</ele>
        <time>2026-07-07T12:44:18.000Z</time>
      </trkpt>
      <trkpt lat="45.81771" lon="1.88398">
        <ele>714.5</ele>
        <time>2026-07-07T12:44:19.000Z</time>
      </trkpt>
      <trkpt lat="45.81772" lon="1.88395">
        <ele>715.6</ele>
        <time>2026-07-07T12:44:20.000Z</time>
      </trkpt>
      <trkpt lat="45.81773" lon="1.88392">
        <ele>715.8</ele>
        <time>2026-07-07T12:44:21.000Z</time>
      </trkpt>
      <trkpt lat="45.81774" lon="1.8839">
        <ele>715.5</ele>
        <time>2026-07-07T12:44:22.000Z</time>
      </trkpt>
      <trkpt lat="45.81775" lon="1.88387">
        <ele>715.4</ele>
        <time>2026-07-07T12:44:23.000Z</time>
      </trkpt>
      <trkpt lat="45.81776" lon="1.88385">
        <ele>716.1</ele>
        <time>2026-07-07T12:44:24.000Z</time>
      </trkpt>
      <trkpt lat="45.81777" lon="1.88383">
        <ele>716</ele>
        <time>2026-07-07T12:44:25.000Z</time>
      </trkpt>
      <trkpt lat="45.81778" lon="1.88381">
        <ele>716</ele>
        <time>2026-07-07T12:44:26.000Z</time>
      </trkpt>
      <trkpt lat="45.81779" lon="1.88378">
        <ele>716</ele>
        <time>2026-07-07T12:44:27.000Z</time>
      </trkpt>
      <trkpt lat="45.8178" lon="1.88376">
        <ele>716.1</ele>
        <time>2026-07-07T12:44:28.000Z</time>
      </trkpt>
      <trkpt lat="45.81781" lon="1.88374">
        <ele>716.4</ele>
        <time>2026-07-07T12:44:29.000Z</time>
      </trkpt>
      <trkpt lat="45.81782" lon="1.88372">
        <ele>716.1</ele>
        <time>2026-07-07T12:44:30.000Z</time>
      </trkpt>
      <trkpt lat="45.81783" lon="1.8837">
        <ele>716.3</ele>
        <time>2026-07-07T12:44:31.000Z</time>
      </trkpt>
      <trkpt lat="45.81784" lon="1.88368">
        <ele>716.8</ele>
        <time>2026-07-07T12:44:32.000Z</time>
      </trkpt>
      <trkpt lat="45.81785" lon="1.88367">
        <ele>717.1</ele>
        <time>2026-07-07T12:44:33.000Z</time>
      </trkpt>
      <trkpt lat="45.81786" lon="1.88365">
        <ele>717.5</ele>
        <time>2026-07-07T12:44:34.000Z</time>
      </trkpt>
      <trkpt lat="45.81787" lon="1.88363">
        <ele>717.7</ele>
        <time>2026-07-07T12:44:35.000Z</time>
      </trkpt>
      <trkpt lat="45.81788" lon="1.88361">
        <ele>717.8</ele>
        <time>2026-07-07T12:44:36.000Z</time>
      </trkpt>
      <trkpt lat="45.81789" lon="1.88359">
        <ele>717.6</ele>
        <time>2026-07-07T12:44:37.000Z</time>
      </trkpt>
      <trkpt lat="45.8179" lon="1.88357">
        <ele>717.5</ele>
        <time>2026-07-07T12:44:38.000Z</time>
      </trkpt>
      <trkpt lat="45.81791" lon="1.88356">
        <ele>716.7</ele>
        <time>2026-07-07T12:44:39.000Z</time>
      </trkpt>
      <trkpt lat="45.81792" lon="1.88354">
        <ele>716.2</ele>
        <time>2026-07-07T12:44:40.000Z</time>
      </trkpt>
      <trkpt lat="45.81794" lon="1.88352">
        <ele>715.5</ele>
        <time>2026-07-07T12:44:41.000Z</time>
      </trkpt>
      <trkpt lat="45.81795" lon="1.8835">
        <ele>715.2</ele>
        <time>2026-07-07T12:44:42.000Z</time>
      </trkpt>
      <trkpt lat="45.81795" lon="1.88348">
        <ele>714.9</ele>
        <time>2026-07-07T12:44:43.000Z</time>
      </trkpt>
      <trkpt lat="45.81796" lon="1.88346">
        <ele>714.2</ele>
        <time>2026-07-07T12:44:44.000Z</time>
      </trkpt>
      <trkpt lat="45.81796" lon="1.88343">
        <ele>714</ele>
        <time>2026-07-07T12:44:45.000Z</time>
      </trkpt>
      <trkpt lat="45.81798" lon="1.88341">
        <ele>714.1</ele>
        <time>2026-07-07T12:44:46.000Z</time>
      </trkpt>
      <trkpt lat="45.81799" lon="1.88339">
        <ele>714.4</ele>
        <time>2026-07-07T12:44:47.000Z</time>
      </trkpt>
      <trkpt lat="45.818" lon="1.88337">
        <ele>715</ele>
        <time>2026-07-07T12:44:48.000Z</time>
      </trkpt>
      <trkpt lat="45.818" lon="1.88335">
        <ele>714.5</ele>
        <time>2026-07-07T12:44:49.000Z</time>
      </trkpt>
      <trkpt lat="45.81801" lon="1.88333">
        <ele>714.5</ele>
        <time>2026-07-07T12:44:50.000Z</time>
      </trkpt>
      <trkpt lat="45.81802" lon="1.88331">
        <ele>714.8</ele>
        <time>2026-07-07T12:44:51.000Z</time>
      </trkpt>
      <trkpt lat="45.81803" lon="1.88329">
        <ele>715.1</ele>
        <time>2026-07-07T12:44:52.000Z</time>
      </trkpt>
      <trkpt lat="45.81804" lon="1.88327">
        <ele>715.3</ele>
        <time>2026-07-07T12:44:53.000Z</time>
      </trkpt>
      <trkpt lat="45.81805" lon="1.88325">
        <ele>715.4</ele>
        <time>2026-07-07T12:44:54.000Z</time>
      </trkpt>
      <trkpt lat="45.81806" lon="1.88323">
        <ele>715.4</ele>
        <time>2026-07-07T12:44:55.000Z</time>
      </trkpt>
      <trkpt lat="45.81807" lon="1.88321">
        <ele>714.9</ele>
        <time>2026-07-07T12:44:56.000Z</time>
      </trkpt>
      <trkpt lat="45.81808" lon="1.88319">
        <ele>715.1</ele>
        <time>2026-07-07T12:44:57.000Z</time>
      </trkpt>
      <trkpt lat="45.81809" lon="1.88317">
        <ele>715.4</ele>
        <time>2026-07-07T12:44:58.000Z</time>
      </trkpt>
      <trkpt lat="45.8181" lon="1.88315">
        <ele>715.4</ele>
        <time>2026-07-07T12:44:59.000Z</time>
      </trkpt>
      <trkpt lat="45.81811" lon="1.88313">
        <ele>715.4</ele>
        <time>2026-07-07T12:45:00.000Z</time>
      </trkpt>
      <trkpt lat="45.81812" lon="1.88311">
        <ele>715.6</ele>
        <time>2026-07-07T12:45:01.000Z</time>
      </trkpt>
      <trkpt lat="45.81812" lon="1.88308">
        <ele>716</ele>
        <time>2026-07-07T12:45:02.000Z</time>
      </trkpt>
      <trkpt lat="45.81812" lon="1.88305">
        <ele>716</ele>
        <time>2026-07-07T12:45:03.000Z</time>
      </trkpt>
      <trkpt lat="45.81813" lon="1.88303">
        <ele>716</ele>
        <time>2026-07-07T12:45:04.000Z</time>
      </trkpt>
      <trkpt lat="45.81814" lon="1.88301">
        <ele>716</ele>
        <time>2026-07-07T12:45:05.000Z</time>
      </trkpt>
      <trkpt lat="45.81816" lon="1.88299">
        <ele>715.8</ele>
        <time>2026-07-07T12:45:06.000Z</time>
      </trkpt>
      <trkpt lat="45.81817" lon="1.88298">
        <ele>715.8</ele>
        <time>2026-07-07T12:45:07.000Z</time>
      </trkpt>
      <trkpt lat="45.81818" lon="1.88296">
        <ele>715.9</ele>
        <time>2026-07-07T12:45:08.000Z</time>
      </trkpt>
      <trkpt lat="45.8182" lon="1.88295">
        <ele>716.5</ele>
        <time>2026-07-07T12:45:09.000Z</time>
      </trkpt>
      <trkpt lat="45.81822" lon="1.88294">
        <ele>716.5</ele>
        <time>2026-07-07T12:45:10.000Z</time>
      </trkpt>
      <trkpt lat="45.81823" lon="1.88292">
        <ele>716.4</ele>
        <time>2026-07-07T12:45:11.000Z</time>
      </trkpt>
      <trkpt lat="45.81824" lon="1.8829">
        <ele>717</ele>
        <time>2026-07-07T12:45:12.000Z</time>
      </trkpt>
      <trkpt lat="45.81825" lon="1.88288">
        <ele>717.8</ele>
        <time>2026-07-07T12:45:13.000Z</time>
      </trkpt>
      <trkpt lat="45.81827" lon="1.88286">
        <ele>716.9</ele>
        <time>2026-07-07T12:45:14.000Z</time>
      </trkpt>
      <trkpt lat="45.81829" lon="1.88284">
        <ele>717.7</ele>
        <time>2026-07-07T12:45:15.000Z</time>
      </trkpt>
      <trkpt lat="45.81831" lon="1.88281">
        <ele>718</ele>
        <time>2026-07-07T12:45:16.000Z</time>
      </trkpt>
      <trkpt lat="45.81833" lon="1.8828">
        <ele>718.3</ele>
        <time>2026-07-07T12:45:17.000Z</time>
      </trkpt>
      <trkpt lat="45.81835" lon="1.88278">
        <ele>719.6</ele>
        <time>2026-07-07T12:45:18.000Z</time>
      </trkpt>
      <trkpt lat="45.81837" lon="1.88277">
        <ele>720.2</ele>
        <time>2026-07-07T12:45:19.000Z</time>
      </trkpt>
      <trkpt lat="45.8184" lon="1.88276">
        <ele>720.3</ele>
        <time>2026-07-07T12:45:20.000Z</time>
      </trkpt>
      <trkpt lat="45.81842" lon="1.88274">
        <ele>719.5</ele>
        <time>2026-07-07T12:45:21.000Z</time>
      </trkpt>
      <trkpt lat="45.81843" lon="1.88273">
        <ele>719</ele>
        <time>2026-07-07T12:45:22.000Z</time>
      </trkpt>
      <trkpt lat="45.81844" lon="1.88272">
        <ele>718.8</ele>
        <time>2026-07-07T12:45:23.000Z</time>
      </trkpt>
      <trkpt lat="45.81845" lon="1.88272">
        <ele>718</ele>
        <time>2026-07-07T12:45:24.000Z</time>
      </trkpt>
      <trkpt lat="45.81846" lon="1.88271">
        <ele>716.8</ele>
        <time>2026-07-07T12:45:25.000Z</time>
      </trkpt>
      <trkpt lat="45.81847" lon="1.88269">
        <ele>716.6</ele>
        <time>2026-07-07T12:45:26.000Z</time>
      </trkpt>
      <trkpt lat="45.81846" lon="1.88267">
        <ele>715.8</ele>
        <time>2026-07-07T12:45:27.000Z</time>
      </trkpt>
      <trkpt lat="45.81846" lon="1.88265">
        <ele>715</ele>
        <time>2026-07-07T12:45:28.000Z</time>
      </trkpt>
      <trkpt lat="45.81846" lon="1.88263">
        <ele>715.7</ele>
        <time>2026-07-07T12:45:29.000Z</time>
      </trkpt>
      <trkpt lat="45.81846" lon="1.88262">
        <ele>714</ele>
        <time>2026-07-07T12:45:30.000Z</time>
      </trkpt>
      <trkpt lat="45.81844" lon="1.8826">
        <ele>713.6</ele>
        <time>2026-07-07T12:45:31.000Z</time>
      </trkpt>
      <trkpt lat="45.81841" lon="1.88264">
        <ele>716.1</ele>
        <time>2026-07-07T12:45:32.000Z</time>
      </trkpt>
      <trkpt lat="45.81839" lon="1.88267">
        <ele>717.4</ele>
        <time>2026-07-07T12:45:33.000Z</time>
      </trkpt>
      <trkpt lat="45.81837" lon="1.88269">
        <ele>718</ele>
        <time>2026-07-07T12:45:34.000Z</time>
      </trkpt>
      <trkpt lat="45.81835" lon="1.88271">
        <ele>719.2</ele>
        <time>2026-07-07T12:45:35.000Z</time>
      </trkpt>
      <trkpt lat="45.81833" lon="1.88273">
        <ele>718.1</ele>
        <time>2026-07-07T12:45:36.000Z</time>
      </trkpt>
      <trkpt lat="45.8183" lon="1.88274">
        <ele>718</ele>
        <time>2026-07-07T12:45:37.000Z</time>
      </trkpt>
      <trkpt lat="45.81828" lon="1.88275">
        <ele>718.6</ele>
        <time>2026-07-07T12:45:38.000Z</time>
      </trkpt>
      <trkpt lat="45.81827" lon="1.88275">
        <ele>720.3</ele>
        <time>2026-07-07T12:45:39.000Z</time>
      </trkpt>
      <trkpt lat="45.81826" lon="1.88273">
        <ele>723.6</ele>
        <time>2026-07-07T12:45:40.000Z</time>
      </trkpt>
      <trkpt lat="45.81826" lon="1.88272">
        <ele>725.3</ele>
        <time>2026-07-07T12:45:41.000Z</time>
      </trkpt>
      <trkpt lat="45.81826" lon="1.88271">
        <ele>726.2</ele>
        <time>2026-07-07T12:45:42.000Z</time>
      </trkpt>
      <trkpt lat="45.81826" lon="1.8827">
        <ele>726.3</ele>
        <time>2026-07-07T12:45:43.000Z</time>
      </trkpt>
      <trkpt lat="45.81826" lon="1.88269">
        <ele>726</ele>
        <time>2026-07-07T12:45:44.000Z</time>
      </trkpt>
      <trkpt lat="45.81827" lon="1.88268">
        <ele>723.9</ele>
        <time>2026-07-07T12:45:45.000Z</time>
      </trkpt>
      <trkpt lat="45.81827" lon="1.88267">
        <ele>725.3</ele>
        <time>2026-07-07T12:45:46.000Z</time>
      </trkpt>
      <trkpt lat="45.81827" lon="1.88266">
        <ele>725.5</ele>
        <time>2026-07-07T12:45:47.000Z</time>
      </trkpt>
      <trkpt lat="45.81828" lon="1.88265">
        <ele>724.9</ele>
        <time>2026-07-07T12:45:48.000Z</time>
      </trkpt>
      <trkpt lat="45.81829" lon="1.88264">
        <ele>724.9</ele>
        <time>2026-07-07T12:45:49.000Z</time>
      </trkpt>
      <trkpt lat="45.81829" lon="1.88262">
        <ele>725.4</ele>
        <time>2026-07-07T12:45:50.000Z</time>
      </trkpt>
      <trkpt lat="45.8183" lon="1.88261">
        <ele>724.8</ele>
        <time>2026-07-07T12:45:51.000Z</time>
      </trkpt>
      <trkpt lat="45.8183" lon="1.8826">
        <ele>724.1</ele>
        <time>2026-07-07T12:45:52.000Z</time>
      </trkpt>
      <trkpt lat="45.8183" lon="1.88258">
        <ele>722.9</ele>
        <time>2026-07-07T12:45:53.000Z</time>
      </trkpt>
      <trkpt lat="45.8183" lon="1.88256">
        <ele>722.8</ele>
        <time>2026-07-07T12:45:54.000Z</time>
      </trkpt>
      <trkpt lat="45.8183" lon="1.88255">
        <ele>720.7</ele>
        <time>2026-07-07T12:45:55.000Z</time>
      </trkpt>
      <trkpt lat="45.8183" lon="1.88253">
        <ele>719</ele>
        <time>2026-07-07T12:45:56.000Z</time>
      </trkpt>
      <trkpt lat="45.81831" lon="1.88251">
        <ele>719.1</ele>
        <time>2026-07-07T12:45:57.000Z</time>
      </trkpt>
      <trkpt lat="45.81831" lon="1.88249">
        <ele>719</ele>
        <time>2026-07-07T12:45:58.000Z</time>
      </trkpt>
      <trkpt lat="45.81831" lon="1.88247">
        <ele>718.9</ele>
        <time>2026-07-07T12:45:59.000Z</time>
      </trkpt>
      <trkpt lat="45.81831" lon="1.88245">
        <ele>718.7</ele>
        <time>2026-07-07T12:46:00.000Z</time>
      </trkpt>
      <trkpt lat="45.81832" lon="1.88243">
        <ele>718.7</ele>
        <time>2026-07-07T12:46:01.000Z</time>
      </trkpt>
      <trkpt lat="45.81832" lon="1.88241">
        <ele>718.3</ele>
        <time>2026-07-07T12:46:02.000Z</time>
      </trkpt>
      <trkpt lat="45.81833" lon="1.8824">
        <ele>718</ele>
        <time>2026-07-07T12:46:03.000Z</time>
      </trkpt>
      <trkpt lat="45.81834" lon="1.88239">
        <ele>717.4</ele>
        <time>2026-07-07T12:46:04.000Z</time>
      </trkpt>
      <trkpt lat="45.81835" lon="1.88237">
        <ele>717</ele>
        <time>2026-07-07T12:46:05.000Z</time>
      </trkpt>
      <trkpt lat="45.81836" lon="1.88235">
        <ele>716.6</ele>
        <time>2026-07-07T12:46:06.000Z</time>
      </trkpt>
      <trkpt lat="45.81836" lon="1.88233">
        <ele>714.3</ele>
        <time>2026-07-07T12:46:07.000Z</time>
      </trkpt>
      <trkpt lat="45.81836" lon="1.88231">
        <ele>713.6</ele>
        <time>2026-07-07T12:46:08.000Z</time>
      </trkpt>
      <trkpt lat="45.81835" lon="1.88229">
        <ele>713.1</ele>
        <time>2026-07-07T12:46:09.000Z</time>
      </trkpt>
      <trkpt lat="45.81835" lon="1.88227">
        <ele>711.8</ele>
        <time>2026-07-07T12:46:10.000Z</time>
      </trkpt>
      <trkpt lat="45.81834" lon="1.88225">
        <ele>711.1</ele>
        <time>2026-07-07T12:46:11.000Z</time>
      </trkpt>
      <trkpt lat="45.81833" lon="1.88222">
        <ele>709.8</ele>
        <time>2026-07-07T12:46:12.000Z</time>
      </trkpt>
      <trkpt lat="45.81833" lon="1.8822">
        <ele>709.6</ele>
        <time>2026-07-07T12:46:13.000Z</time>
      </trkpt>
      <trkpt lat="45.81834" lon="1.88218">
        <ele>710.2</ele>
        <time>2026-07-07T12:46:14.000Z</time>
      </trkpt>
      <trkpt lat="45.81834" lon="1.88216">
        <ele>709.2</ele>
        <time>2026-07-07T12:46:15.000Z</time>
      </trkpt>
      <trkpt lat="45.81835" lon="1.88213">
        <ele>707.6</ele>
        <time>2026-07-07T12:46:16.000Z</time>
      </trkpt>
      <trkpt lat="45.81835" lon="1.88211">
        <ele>706.7</ele>
        <time>2026-07-07T12:46:17.000Z</time>
      </trkpt>
      <trkpt lat="45.81835" lon="1.88208">
        <ele>706.8</ele>
        <time>2026-07-07T12:46:18.000Z</time>
      </trkpt>
      <trkpt lat="45.81835" lon="1.88206">
        <ele>707</ele>
        <time>2026-07-07T12:46:19.000Z</time>
      </trkpt>
      <trkpt lat="45.81835" lon="1.88203">
        <ele>706.6</ele>
        <time>2026-07-07T12:46:20.000Z</time>
      </trkpt>
      <trkpt lat="45.81835" lon="1.88201">
        <ele>705.4</ele>
        <time>2026-07-07T12:46:21.000Z</time>
      </trkpt>
      <trkpt lat="45.81835" lon="1.88199">
        <ele>704.2</ele>
        <time>2026-07-07T12:46:22.000Z</time>
      </trkpt>
      <trkpt lat="45.81835" lon="1.88197">
        <ele>704.3</ele>
        <time>2026-07-07T12:46:23.000Z</time>
      </trkpt>
      <trkpt lat="45.81836" lon="1.88195">
        <ele>703.2</ele>
        <time>2026-07-07T12:46:24.000Z</time>
      </trkpt>
      <trkpt lat="45.81836" lon="1.88193">
        <ele>702.8</ele>
        <time>2026-07-07T12:46:25.000Z</time>
      </trkpt>
      <trkpt lat="45.81836" lon="1.88191">
        <ele>702.3</ele>
        <time>2026-07-07T12:46:26.000Z</time>
      </trkpt>
      <trkpt lat="45.81835" lon="1.88189">
        <ele>701.6</ele>
        <time>2026-07-07T12:46:27.000Z</time>
      </trkpt>
      <trkpt lat="45.81836" lon="1.88186">
        <ele>701.2</ele>
        <time>2026-07-07T12:46:28.000Z</time>
      </trkpt>
      <trkpt lat="45.81836" lon="1.88184">
        <ele>701.1</ele>
        <time>2026-07-07T12:46:29.000Z</time>
      </trkpt>
      <trkpt lat="45.81835" lon="1.88181">
        <ele>700.8</ele>
        <time>2026-07-07T12:46:30.000Z</time>
      </trkpt>
      <trkpt lat="45.81835" lon="1.88179">
        <ele>700.6</ele>
        <time>2026-07-07T12:46:31.000Z</time>
      </trkpt>
      <trkpt lat="45.81835" lon="1.88176">
        <ele>700.1</ele>
        <time>2026-07-07T12:46:32.000Z</time>
      </trkpt>
      <trkpt lat="45.81835" lon="1.88174">
        <ele>700.3</ele>
        <time>2026-07-07T12:46:33.000Z</time>
      </trkpt>
      <trkpt lat="45.81835" lon="1.88172">
        <ele>700.2</ele>
        <time>2026-07-07T12:46:34.000Z</time>
      </trkpt>
      <trkpt lat="45.81834" lon="1.88171">
        <ele>700.5</ele>
        <time>2026-07-07T12:46:35.000Z</time>
      </trkpt>
      <trkpt lat="45.81834" lon="1.88169">
        <ele>700.1</ele>
        <time>2026-07-07T12:46:36.000Z</time>
      </trkpt>
      <trkpt lat="45.81834" lon="1.88168">
        <ele>699.8</ele>
        <time>2026-07-07T12:46:37.000Z</time>
      </trkpt>
      <trkpt lat="45.81834" lon="1.88166">
        <ele>699.5</ele>
        <time>2026-07-07T12:46:38.000Z</time>
      </trkpt>
      <trkpt lat="45.81833" lon="1.88165">
        <ele>699.4</ele>
        <time>2026-07-07T12:46:39.000Z</time>
      </trkpt>
      <trkpt lat="45.81833" lon="1.88164">
        <ele>698.9</ele>
        <time>2026-07-07T12:46:40.000Z</time>
      </trkpt>
      <trkpt lat="45.81833" lon="1.88162">
        <ele>698.5</ele>
        <time>2026-07-07T12:46:41.000Z</time>
      </trkpt>
      <trkpt lat="45.81833" lon="1.8816">
        <ele>698.4</ele>
        <time>2026-07-07T12:46:42.000Z</time>
      </trkpt>
      <trkpt lat="45.81833" lon="1.88158">
        <ele>698.1</ele>
        <time>2026-07-07T12:46:43.000Z</time>
      </trkpt>
      <trkpt lat="45.81833" lon="1.88156">
        <ele>697.8</ele>
        <time>2026-07-07T12:46:44.000Z</time>
      </trkpt>
      <trkpt lat="45.81833" lon="1.88154">
        <ele>697.4</ele>
        <time>2026-07-07T12:46:45.000Z</time>
      </trkpt>
      <trkpt lat="45.81833" lon="1.88152">
        <ele>697.1</ele>
        <time>2026-07-07T12:46:46.000Z</time>
      </trkpt>
      <trkpt lat="45.81833" lon="1.8815">
        <ele>696.6</ele>
        <time>2026-07-07T12:46:47.000Z</time>
      </trkpt>
      <trkpt lat="45.81833" lon="1.88147">
        <ele>695.6</ele>
        <time>2026-07-07T12:46:48.000Z</time>
      </trkpt>
      <trkpt lat="45.81833" lon="1.88146">
        <ele>696.4</ele>
        <time>2026-07-07T12:46:49.000Z</time>
      </trkpt>
      <trkpt lat="45.81833" lon="1.88144">
        <ele>696.4</ele>
        <time>2026-07-07T12:46:50.000Z</time>
      </trkpt>
      <trkpt lat="45.81832" lon="1.88142">
        <ele>696.6</ele>
        <time>2026-07-07T12:46:51.000Z</time>
      </trkpt>
      <trkpt lat="45.81832" lon="1.8814">
        <ele>696.5</ele>
        <time>2026-07-07T12:46:52.000Z</time>
      </trkpt>
      <trkpt lat="45.81832" lon="1.88138">
        <ele>696.8</ele>
        <time>2026-07-07T12:46:53.000Z</time>
      </trkpt>
      <trkpt lat="45.81833" lon="1.88136">
        <ele>698</ele>
        <time>2026-07-07T12:46:54.000Z</time>
      </trkpt>
      <trkpt lat="45.81833" lon="1.88134">
        <ele>698.2</ele>
        <time>2026-07-07T12:46:55.000Z</time>
      </trkpt>
      <trkpt lat="45.81833" lon="1.88131">
        <ele>697.4</ele>
        <time>2026-07-07T12:46:56.000Z</time>
      </trkpt>
      <trkpt lat="45.81833" lon="1.88129">
        <ele>695.4</ele>
        <time>2026-07-07T12:46:57.000Z</time>
      </trkpt>
      <trkpt lat="45.81833" lon="1.88126">
        <ele>695.8</ele>
        <time>2026-07-07T12:46:58.000Z</time>
      </trkpt>
      <trkpt lat="45.81834" lon="1.88124">
        <ele>695.7</ele>
        <time>2026-07-07T12:46:59.000Z</time>
      </trkpt>
      <trkpt lat="45.81834" lon="1.88122">
        <ele>695.4</ele>
        <time>2026-07-07T12:47:00.000Z</time>
      </trkpt>
      <trkpt lat="45.81834" lon="1.8812">
        <ele>694.6</ele>
        <time>2026-07-07T12:47:01.000Z</time>
      </trkpt>
      <trkpt lat="45.81834" lon="1.88119">
        <ele>694.1</ele>
        <time>2026-07-07T12:47:02.000Z</time>
      </trkpt>
      <trkpt lat="45.81834" lon="1.88117">
        <ele>693.2</ele>
        <time>2026-07-07T12:47:03.000Z</time>
      </trkpt>
      <trkpt lat="45.81834" lon="1.88115">
        <ele>693.2</ele>
        <time>2026-07-07T12:47:04.000Z</time>
      </trkpt>
      <trkpt lat="45.81833" lon="1.88113">
        <ele>692.4</ele>
        <time>2026-07-07T12:47:05.000Z</time>
      </trkpt>
      <trkpt lat="45.81832" lon="1.8811">
        <ele>693.1</ele>
        <time>2026-07-07T12:47:06.000Z</time>
      </trkpt>
      <trkpt lat="45.81832" lon="1.88108">
        <ele>691.9</ele>
        <time>2026-07-07T12:47:07.000Z</time>
      </trkpt>
      <trkpt lat="45.81832" lon="1.88105">
        <ele>692</ele>
        <time>2026-07-07T12:47:08.000Z</time>
      </trkpt>
      <trkpt lat="45.81833" lon="1.88102">
        <ele>692.2</ele>
        <time>2026-07-07T12:47:09.000Z</time>
      </trkpt>
      <trkpt lat="45.81833" lon="1.881">
        <ele>692.5</ele>
        <time>2026-07-07T12:47:10.000Z</time>
      </trkpt>
      <trkpt lat="45.81833" lon="1.88098">
        <ele>692.5</ele>
        <time>2026-07-07T12:47:11.000Z</time>
      </trkpt>
      <trkpt lat="45.81833" lon="1.88095">
        <ele>691.7</ele>
        <time>2026-07-07T12:47:12.000Z</time>
      </trkpt>
      <trkpt lat="45.81834" lon="1.88092">
        <ele>692</ele>
        <time>2026-07-07T12:47:13.000Z</time>
      </trkpt>
      <trkpt lat="45.81834" lon="1.88089">
        <ele>692.3</ele>
        <time>2026-07-07T12:47:14.000Z</time>
      </trkpt>
      <trkpt lat="45.81835" lon="1.88086">
        <ele>692.7</ele>
        <time>2026-07-07T12:47:15.000Z</time>
      </trkpt>
      <trkpt lat="45.81836" lon="1.88083">
        <ele>693.4</ele>
        <time>2026-07-07T12:47:16.000Z</time>
      </trkpt>
      <trkpt lat="45.81836" lon="1.8808">
        <ele>693.6</ele>
        <time>2026-07-07T12:47:17.000Z</time>
      </trkpt>
      <trkpt lat="45.81837" lon="1.88078">
        <ele>693.6</ele>
        <time>2026-07-07T12:47:18.000Z</time>
      </trkpt>
      <trkpt lat="45.81838" lon="1.88075">
        <ele>694.1</ele>
        <time>2026-07-07T12:47:19.000Z</time>
      </trkpt>
      <trkpt lat="45.81839" lon="1.88072">
        <ele>693.6</ele>
        <time>2026-07-07T12:47:20.000Z</time>
      </trkpt>
      <trkpt lat="45.8184" lon="1.8807">
        <ele>693.7</ele>
        <time>2026-07-07T12:47:21.000Z</time>
      </trkpt>
      <trkpt lat="45.8184" lon="1.88067">
        <ele>693.2</ele>
        <time>2026-07-07T12:47:22.000Z</time>
      </trkpt>
      <trkpt lat="45.8184" lon="1.88065">
        <ele>692.9</ele>
        <time>2026-07-07T12:47:23.000Z</time>
      </trkpt>
      <trkpt lat="45.8184" lon="1.88062">
        <ele>693.5</ele>
        <time>2026-07-07T12:47:24.000Z</time>
      </trkpt>
      <trkpt lat="45.8184" lon="1.8806">
        <ele>692.7</ele>
        <time>2026-07-07T12:47:25.000Z</time>
      </trkpt>
      <trkpt lat="45.81839" lon="1.88058">
        <ele>692.4</ele>
        <time>2026-07-07T12:47:26.000Z</time>
      </trkpt>
      <trkpt lat="45.8184" lon="1.88055">
        <ele>692.7</ele>
        <time>2026-07-07T12:47:27.000Z</time>
      </trkpt>
      <trkpt lat="45.8184" lon="1.88054">
        <ele>693.7</ele>
        <time>2026-07-07T12:47:28.000Z</time>
      </trkpt>
      <trkpt lat="45.8184" lon="1.88051">
        <ele>693.5</ele>
        <time>2026-07-07T12:47:29.000Z</time>
      </trkpt>
      <trkpt lat="45.8184" lon="1.8805">
        <ele>693.3</ele>
        <time>2026-07-07T12:47:30.000Z</time>
      </trkpt>
      <trkpt lat="45.8184" lon="1.88048">
        <ele>692.7</ele>
        <time>2026-07-07T12:47:31.000Z</time>
      </trkpt>
      <trkpt lat="45.8184" lon="1.88045">
        <ele>692.5</ele>
        <time>2026-07-07T12:47:32.000Z</time>
      </trkpt>
      <trkpt lat="45.8184" lon="1.88043">
        <ele>693</ele>
        <time>2026-07-07T12:47:33.000Z</time>
      </trkpt>
      <trkpt lat="45.8184" lon="1.88041">
        <ele>692.7</ele>
        <time>2026-07-07T12:47:34.000Z</time>
      </trkpt>
      <trkpt lat="45.8184" lon="1.88039">
        <ele>692.7</ele>
        <time>2026-07-07T12:47:35.000Z</time>
      </trkpt>
      <trkpt lat="45.8184" lon="1.88036">
        <ele>692.2</ele>
        <time>2026-07-07T12:47:36.000Z</time>
      </trkpt>
      <trkpt lat="45.81841" lon="1.88035">
        <ele>692.7</ele>
        <time>2026-07-07T12:47:37.000Z</time>
      </trkpt>
      <trkpt lat="45.81841" lon="1.88033">
        <ele>692</ele>
        <time>2026-07-07T12:47:38.000Z</time>
      </trkpt>
      <trkpt lat="45.81842" lon="1.8803">
        <ele>692.2</ele>
        <time>2026-07-07T12:47:39.000Z</time>
      </trkpt>
      <trkpt lat="45.81842" lon="1.88029">
        <ele>691.1</ele>
        <time>2026-07-07T12:47:40.000Z</time>
      </trkpt>
      <trkpt lat="45.81842" lon="1.88026">
        <ele>691</ele>
        <time>2026-07-07T12:47:41.000Z</time>
      </trkpt>
      <trkpt lat="45.81842" lon="1.88024">
        <ele>691.1</ele>
        <time>2026-07-07T12:47:42.000Z</time>
      </trkpt>
      <trkpt lat="45.81842" lon="1.88022">
        <ele>691.2</ele>
        <time>2026-07-07T12:47:43.000Z</time>
      </trkpt>
      <trkpt lat="45.81842" lon="1.8802">
        <ele>691.1</ele>
        <time>2026-07-07T12:47:44.000Z</time>
      </trkpt>
      <trkpt lat="45.81842" lon="1.88018">
        <ele>692.4</ele>
        <time>2026-07-07T12:47:45.000Z</time>
      </trkpt>
      <trkpt lat="45.81842" lon="1.88016">
        <ele>692.4</ele>
        <time>2026-07-07T12:47:46.000Z</time>
      </trkpt>
      <trkpt lat="45.81843" lon="1.88014">
        <ele>692.6</ele>
        <time>2026-07-07T12:47:47.000Z</time>
      </trkpt>
      <trkpt lat="45.81843" lon="1.88012">
        <ele>692.9</ele>
        <time>2026-07-07T12:47:48.000Z</time>
      </trkpt>
      <trkpt lat="45.81844" lon="1.8801">
        <ele>693.2</ele>
        <time>2026-07-07T12:47:49.000Z</time>
      </trkpt>
      <trkpt lat="45.81844" lon="1.88008">
        <ele>693.4</ele>
        <time>2026-07-07T12:47:50.000Z</time>
      </trkpt>
      <trkpt lat="45.81845" lon="1.88006">
        <ele>693.1</ele>
        <time>2026-07-07T12:47:51.000Z</time>
      </trkpt>
      <trkpt lat="45.81846" lon="1.88004">
        <ele>692.2</ele>
        <time>2026-07-07T12:47:52.000Z</time>
      </trkpt>
      <trkpt lat="45.81847" lon="1.88002">
        <ele>692.6</ele>
        <time>2026-07-07T12:47:53.000Z</time>
      </trkpt>
      <trkpt lat="45.81848" lon="1.88001">
        <ele>693.3</ele>
        <time>2026-07-07T12:47:54.000Z</time>
      </trkpt>
      <trkpt lat="45.81849" lon="1.88001">
        <ele>691.7</ele>
        <time>2026-07-07T12:47:55.000Z</time>
      </trkpt>
      <trkpt lat="45.8185" lon="1.88">
        <ele>693.1</ele>
        <time>2026-07-07T12:47:56.000Z</time>
      </trkpt>
      <trkpt lat="45.81852" lon="1.87999">
        <ele>693.6</ele>
        <time>2026-07-07T12:47:57.000Z</time>
      </trkpt>
      <trkpt lat="45.81853" lon="1.87997">
        <ele>694.1</ele>
        <time>2026-07-07T12:47:58.000Z</time>
      </trkpt>
      <trkpt lat="45.81854" lon="1.87995">
        <ele>693.9</ele>
        <time>2026-07-07T12:47:59.000Z</time>
      </trkpt>
      <trkpt lat="45.81855" lon="1.87994">
        <ele>693.3</ele>
        <time>2026-07-07T12:48:00.000Z</time>
      </trkpt>
      <trkpt lat="45.81856" lon="1.87991">
        <ele>693.5</ele>
        <time>2026-07-07T12:48:01.000Z</time>
      </trkpt>
      <trkpt lat="45.81856" lon="1.87989">
        <ele>692.8</ele>
        <time>2026-07-07T12:48:02.000Z</time>
      </trkpt>
      <trkpt lat="45.81856" lon="1.87987">
        <ele>692.5</ele>
        <time>2026-07-07T12:48:03.000Z</time>
      </trkpt>
      <trkpt lat="45.81857" lon="1.87985">
        <ele>692.4</ele>
        <time>2026-07-07T12:48:04.000Z</time>
      </trkpt>
      <trkpt lat="45.81857" lon="1.87983">
        <ele>692.1</ele>
        <time>2026-07-07T12:48:05.000Z</time>
      </trkpt>
      <trkpt lat="45.81859" lon="1.87981">
        <ele>692.7</ele>
        <time>2026-07-07T12:48:06.000Z</time>
      </trkpt>
      <trkpt lat="45.81859" lon="1.8798">
        <ele>693.2</ele>
        <time>2026-07-07T12:48:07.000Z</time>
      </trkpt>
      <trkpt lat="45.8186" lon="1.87978">
        <ele>693.6</ele>
        <time>2026-07-07T12:48:08.000Z</time>
      </trkpt>
      <trkpt lat="45.8186" lon="1.87975">
        <ele>693.3</ele>
        <time>2026-07-07T12:48:09.000Z</time>
      </trkpt>
      <trkpt lat="45.81861" lon="1.87973">
        <ele>693</ele>
        <time>2026-07-07T12:48:10.000Z</time>
      </trkpt>
      <trkpt lat="45.81861" lon="1.87971">
        <ele>692.4</ele>
        <time>2026-07-07T12:48:11.000Z</time>
      </trkpt>
      <trkpt lat="45.81861" lon="1.87969">
        <ele>691.3</ele>
        <time>2026-07-07T12:48:12.000Z</time>
      </trkpt>
      <trkpt lat="45.81861" lon="1.87967">
        <ele>691.4</ele>
        <time>2026-07-07T12:48:13.000Z</time>
      </trkpt>
      <trkpt lat="45.81861" lon="1.87964">
        <ele>691.2</ele>
        <time>2026-07-07T12:48:14.000Z</time>
      </trkpt>
      <trkpt lat="45.8186" lon="1.87962">
        <ele>690.4</ele>
        <time>2026-07-07T12:48:15.000Z</time>
      </trkpt>
      <trkpt lat="45.8186" lon="1.87959">
        <ele>691.1</ele>
        <time>2026-07-07T12:48:16.000Z</time>
      </trkpt>
      <trkpt lat="45.8186" lon="1.87957">
        <ele>689.9</ele>
        <time>2026-07-07T12:48:17.000Z</time>
      </trkpt>
      <trkpt lat="45.8186" lon="1.87954">
        <ele>690.5</ele>
        <time>2026-07-07T12:48:18.000Z</time>
      </trkpt>
      <trkpt lat="45.81859" lon="1.87952">
        <ele>690.1</ele>
        <time>2026-07-07T12:48:19.000Z</time>
      </trkpt>
      <trkpt lat="45.81859" lon="1.8795">
        <ele>689.7</ele>
        <time>2026-07-07T12:48:20.000Z</time>
      </trkpt>
      <trkpt lat="45.81859" lon="1.87947">
        <ele>690.3</ele>
        <time>2026-07-07T12:48:21.000Z</time>
      </trkpt>
      <trkpt lat="45.81859" lon="1.87945">
        <ele>690.4</ele>
        <time>2026-07-07T12:48:22.000Z</time>
      </trkpt>
      <trkpt lat="45.8186" lon="1.87943">
        <ele>691.2</ele>
        <time>2026-07-07T12:48:23.000Z</time>
      </trkpt>
      <trkpt lat="45.8186" lon="1.8794">
        <ele>692.1</ele>
        <time>2026-07-07T12:48:24.000Z</time>
      </trkpt>
      <trkpt lat="45.8186" lon="1.87938">
        <ele>692.1</ele>
        <time>2026-07-07T12:48:25.000Z</time>
      </trkpt>
      <trkpt lat="45.8186" lon="1.87935">
        <ele>691.2</ele>
        <time>2026-07-07T12:48:26.000Z</time>
      </trkpt>
      <trkpt lat="45.8186" lon="1.87933">
        <ele>691.3</ele>
        <time>2026-07-07T12:48:27.000Z</time>
      </trkpt>
      <trkpt lat="45.8186" lon="1.87931">
        <ele>691.2</ele>
        <time>2026-07-07T12:48:28.000Z</time>
      </trkpt>
      <trkpt lat="45.8186" lon="1.87929">
        <ele>691.2</ele>
        <time>2026-07-07T12:48:29.000Z</time>
      </trkpt>
      <trkpt lat="45.81861" lon="1.87927">
        <ele>691.2</ele>
        <time>2026-07-07T12:48:30.000Z</time>
      </trkpt>
      <trkpt lat="45.81861" lon="1.87925">
        <ele>691.6</ele>
        <time>2026-07-07T12:48:31.000Z</time>
      </trkpt>
      <trkpt lat="45.81861" lon="1.87923">
        <ele>691.6</ele>
        <time>2026-07-07T12:48:32.000Z</time>
      </trkpt>
      <trkpt lat="45.81862" lon="1.8792">
        <ele>691.4</ele>
        <time>2026-07-07T12:48:33.000Z</time>
      </trkpt>
      <trkpt lat="45.81862" lon="1.87918">
        <ele>691.7</ele>
        <time>2026-07-07T12:48:34.000Z</time>
      </trkpt>
      <trkpt lat="45.81863" lon="1.87916">
        <ele>691.7</ele>
        <time>2026-07-07T12:48:35.000Z</time>
      </trkpt>
      <trkpt lat="45.81863" lon="1.87914">
        <ele>691.5</ele>
        <time>2026-07-07T12:48:36.000Z</time>
      </trkpt>
      <trkpt lat="45.81863" lon="1.87912">
        <ele>691.6</ele>
        <time>2026-07-07T12:48:37.000Z</time>
      </trkpt>
      <trkpt lat="45.81864" lon="1.8791">
        <ele>691.1</ele>
        <time>2026-07-07T12:48:38.000Z</time>
      </trkpt>
      <trkpt lat="45.81865" lon="1.87908">
        <ele>690.2</ele>
        <time>2026-07-07T12:48:39.000Z</time>
      </trkpt>
      <trkpt lat="45.81866" lon="1.87906">
        <ele>689.5</ele>
        <time>2026-07-07T12:48:40.000Z</time>
      </trkpt>
      <trkpt lat="45.81866" lon="1.87904">
        <ele>688.3</ele>
        <time>2026-07-07T12:48:41.000Z</time>
      </trkpt>
      <trkpt lat="45.81867" lon="1.87903">
        <ele>688.2</ele>
        <time>2026-07-07T12:48:42.000Z</time>
      </trkpt>
      <trkpt lat="45.81868" lon="1.87901">
        <ele>688.8</ele>
        <time>2026-07-07T12:48:43.000Z</time>
      </trkpt>
      <trkpt lat="45.81869" lon="1.87899">
        <ele>689.5</ele>
        <time>2026-07-07T12:48:44.000Z</time>
      </trkpt>
      <trkpt lat="45.81871" lon="1.87897">
        <ele>690.3</ele>
        <time>2026-07-07T12:48:45.000Z</time>
      </trkpt>
      <trkpt lat="45.81871" lon="1.87895">
        <ele>690.4</ele>
        <time>2026-07-07T12:48:46.000Z</time>
      </trkpt>
      <trkpt lat="45.81872" lon="1.87893">
        <ele>691.7</ele>
        <time>2026-07-07T12:48:47.000Z</time>
      </trkpt>
      <trkpt lat="45.81873" lon="1.87891">
        <ele>691.7</ele>
        <time>2026-07-07T12:48:48.000Z</time>
      </trkpt>
      <trkpt lat="45.81875" lon="1.87889">
        <ele>695.3</ele>
        <time>2026-07-07T12:48:49.000Z</time>
      </trkpt>
      <trkpt lat="45.81876" lon="1.87887">
        <ele>695.8</ele>
        <time>2026-07-07T12:48:50.000Z</time>
      </trkpt>
      <trkpt lat="45.81877" lon="1.87885">
        <ele>695.7</ele>
        <time>2026-07-07T12:48:51.000Z</time>
      </trkpt>
      <trkpt lat="45.81878" lon="1.87883">
        <ele>697</ele>
        <time>2026-07-07T12:48:52.000Z</time>
      </trkpt>
      <trkpt lat="45.8188" lon="1.8788">
        <ele>698.3</ele>
        <time>2026-07-07T12:48:53.000Z</time>
      </trkpt>
      <trkpt lat="45.81881" lon="1.87878">
        <ele>698.4</ele>
        <time>2026-07-07T12:48:54.000Z</time>
      </trkpt>
      <trkpt lat="45.81882" lon="1.87876">
        <ele>698.4</ele>
        <time>2026-07-07T12:48:55.000Z</time>
      </trkpt>
      <trkpt lat="45.81883" lon="1.87874">
        <ele>698.9</ele>
        <time>2026-07-07T12:48:56.000Z</time>
      </trkpt>
      <trkpt lat="45.81883" lon="1.87873">
        <ele>700</ele>
        <time>2026-07-07T12:48:57.000Z</time>
      </trkpt>
      <trkpt lat="45.81882" lon="1.87876">
        <ele>698.8</ele>
        <time>2026-07-07T12:48:58.000Z</time>
      </trkpt>
      <trkpt lat="45.81881" lon="1.87876">
        <ele>698.8</ele>
        <time>2026-07-07T12:48:59.000Z</time>
      </trkpt>
      <trkpt lat="45.81881" lon="1.87877">
        <ele>698.7</ele>
        <time>2026-07-07T12:49:00.000Z</time>
      </trkpt>
      <trkpt lat="45.81881" lon="1.87877">
        <ele>698.7</ele>
        <time>2026-07-07T12:49:01.000Z</time>
      </trkpt>
      <trkpt lat="45.81881" lon="1.87877">
        <ele>698.8</ele>
        <time>2026-07-07T12:49:02.000Z</time>
      </trkpt>
      <trkpt lat="45.81881" lon="1.87876">
        <ele>699.6</ele>
        <time>2026-07-07T12:49:03.000Z</time>
      </trkpt>
      <trkpt lat="45.8188" lon="1.87877">
        <ele>699.2</ele>
        <time>2026-07-07T12:49:04.000Z</time>
      </trkpt>
      <trkpt lat="45.81879" lon="1.87877">
        <ele>699.6</ele>
        <time>2026-07-07T12:49:05.000Z</time>
      </trkpt>
      <trkpt lat="45.81878" lon="1.87878">
        <ele>700.1</ele>
        <time>2026-07-07T12:49:06.000Z</time>
      </trkpt>
      <trkpt lat="45.81877" lon="1.87878">
        <ele>701.4</ele>
        <time>2026-07-07T12:49:07.000Z</time>
      </trkpt>
      <trkpt lat="45.81878" lon="1.87878">
        <ele>702.5</ele>
        <time>2026-07-07T12:49:08.000Z</time>
      </trkpt>
      <trkpt lat="45.81878" lon="1.87877">
        <ele>702.5</ele>
        <time>2026-07-07T12:49:09.000Z</time>
      </trkpt>
      <trkpt lat="45.81878" lon="1.87877">
        <ele>701.9</ele>
        <time>2026-07-07T12:49:10.000Z</time>
      </trkpt>
      <trkpt lat="45.81878" lon="1.87876">
        <ele>701.5</ele>
        <time>2026-07-07T12:49:11.000Z</time>
      </trkpt>
      <trkpt lat="45.81878" lon="1.87876">
        <ele>701.4</ele>
        <time>2026-07-07T12:49:12.000Z</time>
      </trkpt>
      <trkpt lat="45.81878" lon="1.87876">
        <ele>701.5</ele>
        <time>2026-07-07T12:49:13.000Z</time>
      </trkpt>
      <trkpt lat="45.81878" lon="1.87876">
        <ele>701.4</ele>
        <time>2026-07-07T12:49:14.000Z</time>
      </trkpt>
      <trkpt lat="45.81877" lon="1.87876">
        <ele>701.4</ele>
        <time>2026-07-07T12:49:15.000Z</time>
      </trkpt>
      <trkpt lat="45.81876" lon="1.87876">
        <ele>702.2</ele>
        <time>2026-07-07T12:49:16.000Z</time>
      </trkpt>
      <trkpt lat="45.81875" lon="1.87876">
        <ele>702.2</ele>
        <time>2026-07-07T12:49:17.000Z</time>
      </trkpt>
      <trkpt lat="45.81875" lon="1.87876">
        <ele>702.2</ele>
        <time>2026-07-07T12:49:18.000Z</time>
      </trkpt>
      <trkpt lat="45.81874" lon="1.87876">
        <ele>702.2</ele>
        <time>2026-07-07T12:49:19.000Z</time>
      </trkpt>
      <trkpt lat="45.81873" lon="1.87876">
        <ele>702.3</ele>
        <time>2026-07-07T12:49:20.000Z</time>
      </trkpt>
      <trkpt lat="45.81873" lon="1.87877">
        <ele>703.3</ele>
        <time>2026-07-07T12:49:21.000Z</time>
      </trkpt>
      <trkpt lat="45.81873" lon="1.87877">
        <ele>703.9</ele>
        <time>2026-07-07T12:49:22.000Z</time>
      </trkpt>
      <trkpt lat="45.81873" lon="1.87879">
        <ele>703.1</ele>
        <time>2026-07-07T12:49:23.000Z</time>
      </trkpt>
      <trkpt lat="45.81873" lon="1.87879">
        <ele>702.8</ele>
        <time>2026-07-07T12:49:24.000Z</time>
      </trkpt>
      <trkpt lat="45.81874" lon="1.87879">
        <ele>702.9</ele>
        <time>2026-07-07T12:49:25.000Z</time>
      </trkpt>
      <trkpt lat="45.81874" lon="1.87879">
        <ele>702.9</ele>
        <time>2026-07-07T12:49:26.000Z</time>
      </trkpt>
      <trkpt lat="45.81874" lon="1.87879">
        <ele>702.9</ele>
        <time>2026-07-07T12:49:27.000Z</time>
      </trkpt>
      <trkpt lat="45.81874" lon="1.87879">
        <ele>702.8</ele>
        <time>2026-07-07T12:49:28.000Z</time>
      </trkpt>
      <trkpt lat="45.81874" lon="1.87879">
        <ele>702.8</ele>
        <time>2026-07-07T12:49:29.000Z</time>
      </trkpt>
      <trkpt lat="45.81873" lon="1.87879">
        <ele>702.1</ele>
        <time>2026-07-07T12:49:30.000Z</time>
      </trkpt>
      <trkpt lat="45.81873" lon="1.87879">
        <ele>702.4</ele>
        <time>2026-07-07T12:49:31.000Z</time>
      </trkpt>
      <trkpt lat="45.81872" lon="1.8788">
        <ele>702.2</ele>
        <time>2026-07-07T12:49:32.000Z</time>
      </trkpt>
      <trkpt lat="45.81872" lon="1.8788">
        <ele>702.4</ele>
        <time>2026-07-07T12:49:33.000Z</time>
      </trkpt>
      <trkpt lat="45.81872" lon="1.8788">
        <ele>702.7</ele>
        <time>2026-07-07T12:49:34.000Z</time>
      </trkpt>
      <trkpt lat="45.81872" lon="1.8788">
        <ele>702.7</ele>
        <time>2026-07-07T12:49:35.000Z</time>
      </trkpt>
      <trkpt lat="45.81871" lon="1.87881">
        <ele>702.8</ele>
        <time>2026-07-07T12:49:36.000Z</time>
      </trkpt>
      <trkpt lat="45.8187" lon="1.87882">
        <ele>701.9</ele>
        <time>2026-07-07T12:49:37.000Z</time>
      </trkpt>
      <trkpt lat="45.81869" lon="1.87883">
        <ele>702</ele>
        <time>2026-07-07T12:49:38.000Z</time>
      </trkpt>
      <trkpt lat="45.81868" lon="1.87885">
        <ele>701.9</ele>
        <time>2026-07-07T12:49:39.000Z</time>
      </trkpt>
      <trkpt lat="45.81868" lon="1.87887">
        <ele>701.9</ele>
        <time>2026-07-07T12:49:40.000Z</time>
      </trkpt>
      <trkpt lat="45.81868" lon="1.8789">
        <ele>701.9</ele>
        <time>2026-07-07T12:49:41.000Z</time>
      </trkpt>
      <trkpt lat="45.81868" lon="1.87892">
        <ele>701.9</ele>
        <time>2026-07-07T12:49:42.000Z</time>
      </trkpt>
      <trkpt lat="45.81867" lon="1.87893">
        <ele>701.7</ele>
        <time>2026-07-07T12:49:43.000Z</time>
      </trkpt>
      <trkpt lat="45.81867" lon="1.87895">
        <ele>701.8</ele>
        <time>2026-07-07T12:49:44.000Z</time>
      </trkpt>
      <trkpt lat="45.81867" lon="1.87897">
        <ele>701.8</ele>
        <time>2026-07-07T12:49:45.000Z</time>
      </trkpt>
      <trkpt lat="45.81866" lon="1.87899">
        <ele>702.1</ele>
        <time>2026-07-07T12:49:46.000Z</time>
      </trkpt>
      <trkpt lat="45.81866" lon="1.87901">
        <ele>703.5</ele>
        <time>2026-07-07T12:49:47.000Z</time>
      </trkpt>
      <trkpt lat="45.81865" lon="1.87902">
        <ele>703.6</ele>
        <time>2026-07-07T12:49:48.000Z</time>
      </trkpt>
      <trkpt lat="45.81864" lon="1.87904">
        <ele>703.3</ele>
        <time>2026-07-07T12:49:49.000Z</time>
      </trkpt>
      <trkpt lat="45.81864" lon="1.87905">
        <ele>703.6</ele>
        <time>2026-07-07T12:49:50.000Z</time>
      </trkpt>
      <trkpt lat="45.81863" lon="1.87907">
        <ele>704.9</ele>
        <time>2026-07-07T12:49:51.000Z</time>
      </trkpt>
      <trkpt lat="45.81861" lon="1.87909">
        <ele>705.2</ele>
        <time>2026-07-07T12:49:52.000Z</time>
      </trkpt>
      <trkpt lat="45.8186" lon="1.87911">
        <ele>704.9</ele>
        <time>2026-07-07T12:49:53.000Z</time>
      </trkpt>
      <trkpt lat="45.81858" lon="1.87913">
        <ele>706.1</ele>
        <time>2026-07-07T12:49:54.000Z</time>
      </trkpt>
      <trkpt lat="45.81857" lon="1.87915">
        <ele>705.4</ele>
        <time>2026-07-07T12:49:55.000Z</time>
      </trkpt>
      <trkpt lat="45.81856" lon="1.87918">
        <ele>704.3</ele>
        <time>2026-07-07T12:49:56.000Z</time>
      </trkpt>
      <trkpt lat="45.81854" lon="1.87921">
        <ele>704.3</ele>
        <time>2026-07-07T12:49:57.000Z</time>
      </trkpt>
      <trkpt lat="45.81853" lon="1.87924">
        <ele>705.3</ele>
        <time>2026-07-07T12:49:58.000Z</time>
      </trkpt>
      <trkpt lat="45.81853" lon="1.87928">
        <ele>703.1</ele>
        <time>2026-07-07T12:49:59.000Z</time>
      </trkpt>
      <trkpt lat="45.81853" lon="1.87933">
        <ele>701.8</ele>
        <time>2026-07-07T12:50:00.000Z</time>
      </trkpt>
      <trkpt lat="45.81851" lon="1.87938">
        <ele>702.9</ele>
        <time>2026-07-07T12:50:01.000Z</time>
      </trkpt>
      <trkpt lat="45.81849" lon="1.87942">
        <ele>703.5</ele>
        <time>2026-07-07T12:50:02.000Z</time>
      </trkpt>
      <trkpt lat="45.81847" lon="1.87946">
        <ele>703.2</ele>
        <time>2026-07-07T12:50:03.000Z</time>
      </trkpt>
      <trkpt lat="45.81845" lon="1.87949">
        <ele>703.4</ele>
        <time>2026-07-07T12:50:04.000Z</time>
      </trkpt>
      <trkpt lat="45.81843" lon="1.87954">
        <ele>702.8</ele>
        <time>2026-07-07T12:50:05.000Z</time>
      </trkpt>
      <trkpt lat="45.81841" lon="1.87957">
        <ele>702.3</ele>
        <time>2026-07-07T12:50:06.000Z</time>
      </trkpt>
      <trkpt lat="45.81839" lon="1.87961">
        <ele>702.7</ele>
        <time>2026-07-07T12:50:07.000Z</time>
      </trkpt>
      <trkpt lat="45.81836" lon="1.87964">
        <ele>704.6</ele>
        <time>2026-07-07T12:50:08.000Z</time>
      </trkpt>
      <trkpt lat="45.81833" lon="1.87966">
        <ele>705.1</ele>
        <time>2026-07-07T12:50:09.000Z</time>
      </trkpt>
      <trkpt lat="45.8183" lon="1.87967">
        <ele>705.2</ele>
        <time>2026-07-07T12:50:10.000Z</time>
      </trkpt>
      <trkpt lat="45.81827" lon="1.87967">
        <ele>705.9</ele>
        <time>2026-07-07T12:50:11.000Z</time>
      </trkpt>
      <trkpt lat="45.81824" lon="1.87966">
        <ele>706.1</ele>
        <time>2026-07-07T12:50:12.000Z</time>
      </trkpt>
      <trkpt lat="45.81822" lon="1.87963">
        <ele>706.3</ele>
        <time>2026-07-07T12:50:13.000Z</time>
      </trkpt>
      <trkpt lat="45.81819" lon="1.8796">
        <ele>706.3</ele>
        <time>2026-07-07T12:50:14.000Z</time>
      </trkpt>
      <trkpt lat="45.81817" lon="1.87959">
        <ele>706.3</ele>
        <time>2026-07-07T12:50:15.000Z</time>
      </trkpt>
      <trkpt lat="45.81814" lon="1.87958">
        <ele>707</ele>
        <time>2026-07-07T12:50:16.000Z</time>
      </trkpt>
      <trkpt lat="45.81812" lon="1.87957">
        <ele>707</ele>
        <time>2026-07-07T12:50:17.000Z</time>
      </trkpt>
      <trkpt lat="45.81811" lon="1.87956">
        <ele>708.1</ele>
        <time>2026-07-07T12:50:18.000Z</time>
      </trkpt>
      <trkpt lat="45.81811" lon="1.87956">
        <ele>709.2</ele>
        <time>2026-07-07T12:50:19.000Z</time>
      </trkpt>
      <trkpt lat="45.81812" lon="1.87955">
        <ele>710.3</ele>
        <time>2026-07-07T12:50:20.000Z</time>
      </trkpt>
      <trkpt lat="45.81813" lon="1.87954">
        <ele>710.8</ele>
        <time>2026-07-07T12:50:21.000Z</time>
      </trkpt>
      <trkpt lat="45.81812" lon="1.87954">
        <ele>710.8</ele>
        <time>2026-07-07T12:50:22.000Z</time>
      </trkpt>
      <trkpt lat="45.81813" lon="1.87953">
        <ele>711.4</ele>
        <time>2026-07-07T12:50:23.000Z</time>
      </trkpt>
      <trkpt lat="45.81813" lon="1.87953">
        <ele>711.4</ele>
        <time>2026-07-07T12:50:24.000Z</time>
      </trkpt>
      <trkpt lat="45.81813" lon="1.87953">
        <ele>711.4</ele>
        <time>2026-07-07T12:50:25.000Z</time>
      </trkpt>
      <trkpt lat="45.81815" lon="1.87953">
        <ele>710.3</ele>
        <time>2026-07-07T12:50:26.000Z</time>
      </trkpt>
      <trkpt lat="45.81815" lon="1.87953">
        <ele>711.8</ele>
        <time>2026-07-07T12:50:27.000Z</time>
      </trkpt>
      <trkpt lat="45.81815" lon="1.87955">
        <ele>712.1</ele>
        <time>2026-07-07T12:50:28.000Z</time>
      </trkpt>
      <trkpt lat="45.81814" lon="1.87955">
        <ele>712.2</ele>
        <time>2026-07-07T12:50:29.000Z</time>
      </trkpt>
      <trkpt lat="45.81814" lon="1.87955">
        <ele>712.2</ele>
        <time>2026-07-07T12:50:30.000Z</time>
      </trkpt>
      <trkpt lat="45.81814" lon="1.87956">
        <ele>713.1</ele>
        <time>2026-07-07T12:50:31.000Z</time>
      </trkpt>
      <trkpt lat="45.81815" lon="1.87957">
        <ele>712.7</ele>
        <time>2026-07-07T12:50:32.000Z</time>
      </trkpt>
      <trkpt lat="45.81815" lon="1.87957">
        <ele>712.8</ele>
        <time>2026-07-07T12:50:33.000Z</time>
      </trkpt>
      <trkpt lat="45.81815" lon="1.87957">
        <ele>712</ele>
        <time>2026-07-07T12:50:34.000Z</time>
      </trkpt>
      <trkpt lat="45.81815" lon="1.87957">
        <ele>711.9</ele>
        <time>2026-07-07T12:50:35.000Z</time>
      </trkpt>
      <trkpt lat="45.81815" lon="1.87957">
        <ele>711.9</ele>
        <time>2026-07-07T12:50:36.000Z</time>
      </trkpt>
      <trkpt lat="45.81815" lon="1.87957">
        <ele>711.9</ele>
        <time>2026-07-07T12:50:37.000Z</time>
      </trkpt>
      <trkpt lat="45.81815" lon="1.87957">
        <ele>711.9</ele>
        <time>2026-07-07T12:50:38.000Z</time>
      </trkpt>
      <trkpt lat="45.81815" lon="1.87957">
        <ele>711.9</ele>
        <time>2026-07-07T12:50:39.000Z</time>
      </trkpt>
      <trkpt lat="45.81815" lon="1.87957">
        <ele>711.9</ele>
        <time>2026-07-07T12:50:40.000Z</time>
      </trkpt>
      <trkpt lat="45.81815" lon="1.87958">
        <ele>711.5</ele>
        <time>2026-07-07T12:50:41.000Z</time>
      </trkpt>
      <trkpt lat="45.81814" lon="1.87958">
        <ele>710.7</ele>
        <time>2026-07-07T12:50:42.000Z</time>
      </trkpt>
      <trkpt lat="45.81814" lon="1.87958">
        <ele>709.8</ele>
        <time>2026-07-07T12:50:43.000Z</time>
      </trkpt>
      <trkpt lat="45.81813" lon="1.87958">
        <ele>709.3</ele>
        <time>2026-07-07T12:50:44.000Z</time>
      </trkpt>
      <trkpt lat="45.81812" lon="1.87958">
        <ele>709.2</ele>
        <time>2026-07-07T12:50:45.000Z</time>
      </trkpt>
      <trkpt lat="45.81811" lon="1.8796">
        <ele>710.1</ele>
        <time>2026-07-07T12:50:46.000Z</time>
      </trkpt>
      <trkpt lat="45.8181" lon="1.87961">
        <ele>710.1</ele>
        <time>2026-07-07T12:50:47.000Z</time>
      </trkpt>
      <trkpt lat="45.81808" lon="1.87962">
        <ele>708.6</ele>
        <time>2026-07-07T12:50:48.000Z</time>
      </trkpt>
      <trkpt lat="45.81807" lon="1.87963">
        <ele>708.2</ele>
        <time>2026-07-07T12:50:49.000Z</time>
      </trkpt>
      <trkpt lat="45.81805" lon="1.87964">
        <ele>709</ele>
        <time>2026-07-07T12:50:50.000Z</time>
      </trkpt>
      <trkpt lat="45.81803" lon="1.87966">
        <ele>710.2</ele>
        <time>2026-07-07T12:50:51.000Z</time>
      </trkpt>
      <trkpt lat="45.818" lon="1.87968">
        <ele>710.1</ele>
        <time>2026-07-07T12:50:52.000Z</time>
      </trkpt>
      <trkpt lat="45.81798" lon="1.8797">
        <ele>710.6</ele>
        <time>2026-07-07T12:50:53.000Z</time>
      </trkpt>
      <trkpt lat="45.81797" lon="1.87972">
        <ele>709.7</ele>
        <time>2026-07-07T12:50:54.000Z</time>
      </trkpt>
      <trkpt lat="45.81796" lon="1.87973">
        <ele>710.4</ele>
        <time>2026-07-07T12:50:55.000Z</time>
      </trkpt>
      <trkpt lat="45.81796" lon="1.87975">
        <ele>710</ele>
        <time>2026-07-07T12:50:56.000Z</time>
      </trkpt>
      <trkpt lat="45.81795" lon="1.87976">
        <ele>711.5</ele>
        <time>2026-07-07T12:50:57.000Z</time>
      </trkpt>
      <trkpt lat="45.81795" lon="1.87978">
        <ele>712.1</ele>
        <time>2026-07-07T12:50:58.000Z</time>
      </trkpt>
      <trkpt lat="45.81794" lon="1.8798">
        <ele>712.1</ele>
        <time>2026-07-07T12:50:59.000Z</time>
      </trkpt>
      <trkpt lat="45.81792" lon="1.87981">
        <ele>712.1</ele>
        <time>2026-07-07T12:51:00.000Z</time>
      </trkpt>
      <trkpt lat="45.81791" lon="1.87981">
        <ele>711.9</ele>
        <time>2026-07-07T12:51:01.000Z</time>
      </trkpt>
      <trkpt lat="45.81789" lon="1.87982">
        <ele>711.2</ele>
        <time>2026-07-07T12:51:02.000Z</time>
      </trkpt>
      <trkpt lat="45.81788" lon="1.87983">
        <ele>712.2</ele>
        <time>2026-07-07T12:51:03.000Z</time>
      </trkpt>
      <trkpt lat="45.81787" lon="1.87985">
        <ele>711.2</ele>
        <time>2026-07-07T12:51:04.000Z</time>
      </trkpt>
      <trkpt lat="45.81786" lon="1.87986">
        <ele>712.1</ele>
        <time>2026-07-07T12:51:05.000Z</time>
      </trkpt>
      <trkpt lat="45.81785" lon="1.87988">
        <ele>711.4</ele>
        <time>2026-07-07T12:51:06.000Z</time>
      </trkpt>
      <trkpt lat="45.81783" lon="1.87989">
        <ele>710.9</ele>
        <time>2026-07-07T12:51:07.000Z</time>
      </trkpt>
      <trkpt lat="45.81781" lon="1.87989">
        <ele>710.8</ele>
        <time>2026-07-07T12:51:08.000Z</time>
      </trkpt>
      <trkpt lat="45.8178" lon="1.87989">
        <ele>710</ele>
        <time>2026-07-07T12:51:09.000Z</time>
      </trkpt>
      <trkpt lat="45.81778" lon="1.87989">
        <ele>709.9</ele>
        <time>2026-07-07T12:51:10.000Z</time>
      </trkpt>
      <trkpt lat="45.81776" lon="1.87989">
        <ele>708.8</ele>
        <time>2026-07-07T12:51:11.000Z</time>
      </trkpt>
      <trkpt lat="45.81774" lon="1.8799">
        <ele>709.1</ele>
        <time>2026-07-07T12:51:12.000Z</time>
      </trkpt>
      <trkpt lat="45.81772" lon="1.8799">
        <ele>708.7</ele>
        <time>2026-07-07T12:51:13.000Z</time>
      </trkpt>
      <trkpt lat="45.81768" lon="1.87992">
        <ele>709.5</ele>
        <time>2026-07-07T12:51:14.000Z</time>
      </trkpt>
      <trkpt lat="45.81766" lon="1.87993">
        <ele>710</ele>
        <time>2026-07-07T12:51:15.000Z</time>
      </trkpt>
      <trkpt lat="45.81764" lon="1.87992">
        <ele>711.5</ele>
        <time>2026-07-07T12:51:16.000Z</time>
      </trkpt>
      <trkpt lat="45.81763" lon="1.87993">
        <ele>711.6</ele>
        <time>2026-07-07T12:51:17.000Z</time>
      </trkpt>
      <trkpt lat="45.81762" lon="1.87992">
        <ele>711.4</ele>
        <time>2026-07-07T12:51:18.000Z</time>
      </trkpt>
      <trkpt lat="45.8176" lon="1.87992">
        <ele>711.9</ele>
        <time>2026-07-07T12:51:19.000Z</time>
      </trkpt>
      <trkpt lat="45.81757" lon="1.87992">
        <ele>711.9</ele>
        <time>2026-07-07T12:51:20.000Z</time>
      </trkpt>
      <trkpt lat="45.81754" lon="1.87992">
        <ele>711.8</ele>
        <time>2026-07-07T12:51:21.000Z</time>
      </trkpt>
      <trkpt lat="45.81751" lon="1.87994">
        <ele>711.9</ele>
        <time>2026-07-07T12:51:22.000Z</time>
      </trkpt>
      <trkpt lat="45.81748" lon="1.87996">
        <ele>712.2</ele>
        <time>2026-07-07T12:51:23.000Z</time>
      </trkpt>
      <trkpt lat="45.81744" lon="1.88">
        <ele>712.4</ele>
        <time>2026-07-07T12:51:24.000Z</time>
      </trkpt>
      <trkpt lat="45.81741" lon="1.88005">
        <ele>712.8</ele>
        <time>2026-07-07T12:51:25.000Z</time>
      </trkpt>
      <trkpt lat="45.81737" lon="1.88004">
        <ele>715.3</ele>
        <time>2026-07-07T12:51:26.000Z</time>
      </trkpt>
      <trkpt lat="45.81734" lon="1.88005">
        <ele>714.3</ele>
        <time>2026-07-07T12:51:27.000Z</time>
      </trkpt>
      <trkpt lat="45.8173" lon="1.88005">
        <ele>714.6</ele>
        <time>2026-07-07T12:51:28.000Z</time>
      </trkpt>
      <trkpt lat="45.81728" lon="1.88005">
        <ele>715.6</ele>
        <time>2026-07-07T12:51:29.000Z</time>
      </trkpt>
      <trkpt lat="45.81726" lon="1.88007">
        <ele>715.8</ele>
        <time>2026-07-07T12:51:30.000Z</time>
      </trkpt>
      <trkpt lat="45.81723" lon="1.88009">
        <ele>715.2</ele>
        <time>2026-07-07T12:51:31.000Z</time>
      </trkpt>
      <trkpt lat="45.8172" lon="1.88011">
        <ele>714.3</ele>
        <time>2026-07-07T12:51:32.000Z</time>
      </trkpt>
      <trkpt lat="45.81717" lon="1.88014">
        <ele>713.9</ele>
        <time>2026-07-07T12:51:33.000Z</time>
      </trkpt>
      <trkpt lat="45.81715" lon="1.88017">
        <ele>713.3</ele>
        <time>2026-07-07T12:51:34.000Z</time>
      </trkpt>
      <trkpt lat="45.81712" lon="1.88018">
        <ele>712.9</ele>
        <time>2026-07-07T12:51:35.000Z</time>
      </trkpt>
      <trkpt lat="45.8171" lon="1.88021">
        <ele>713</ele>
        <time>2026-07-07T12:51:36.000Z</time>
      </trkpt>
      <trkpt lat="45.81707" lon="1.88023">
        <ele>712.8</ele>
        <time>2026-07-07T12:51:37.000Z</time>
      </trkpt>
      <trkpt lat="45.81705" lon="1.88026">
        <ele>712.9</ele>
        <time>2026-07-07T12:51:38.000Z</time>
      </trkpt>
      <trkpt lat="45.81703" lon="1.88027">
        <ele>712.6</ele>
        <time>2026-07-07T12:51:39.000Z</time>
      </trkpt>
      <trkpt lat="45.817" lon="1.88027">
        <ele>712</ele>
        <time>2026-07-07T12:51:40.000Z</time>
      </trkpt>
      <trkpt lat="45.81699" lon="1.88026">
        <ele>711.4</ele>
        <time>2026-07-07T12:51:41.000Z</time>
      </trkpt>
      <trkpt lat="45.81696" lon="1.88026">
        <ele>711</ele>
        <time>2026-07-07T12:51:42.000Z</time>
      </trkpt>
      <trkpt lat="45.81693" lon="1.88026">
        <ele>710.8</ele>
        <time>2026-07-07T12:51:43.000Z</time>
      </trkpt>
      <trkpt lat="45.8169" lon="1.88026">
        <ele>710.8</ele>
        <time>2026-07-07T12:51:44.000Z</time>
      </trkpt>
      <trkpt lat="45.81687" lon="1.88027">
        <ele>711.7</ele>
        <time>2026-07-07T12:51:45.000Z</time>
      </trkpt>
      <trkpt lat="45.81683" lon="1.88028">
        <ele>712.3</ele>
        <time>2026-07-07T12:51:46.000Z</time>
      </trkpt>
      <trkpt lat="45.8168" lon="1.88031">
        <ele>712.6</ele>
        <time>2026-07-07T12:51:47.000Z</time>
      </trkpt>
      <trkpt lat="45.81677" lon="1.88032">
        <ele>712.4</ele>
        <time>2026-07-07T12:51:48.000Z</time>
      </trkpt>
      <trkpt lat="45.81675" lon="1.88035">
        <ele>712.3</ele>
        <time>2026-07-07T12:51:49.000Z</time>
      </trkpt>
      <trkpt lat="45.81671" lon="1.88039">
        <ele>712.6</ele>
        <time>2026-07-07T12:51:50.000Z</time>
      </trkpt>
      <trkpt lat="45.81667" lon="1.88044">
        <ele>711.5</ele>
        <time>2026-07-07T12:51:51.000Z</time>
      </trkpt>
      <trkpt lat="45.81665" lon="1.88047">
        <ele>711.8</ele>
        <time>2026-07-07T12:51:52.000Z</time>
      </trkpt>
      <trkpt lat="45.81664" lon="1.88051">
        <ele>711.7</ele>
        <time>2026-07-07T12:51:53.000Z</time>
      </trkpt>
      <trkpt lat="45.81662" lon="1.88056">
        <ele>710.1</ele>
        <time>2026-07-07T12:51:54.000Z</time>
      </trkpt>
      <trkpt lat="45.81659" lon="1.8806">
        <ele>709.9</ele>
        <time>2026-07-07T12:51:55.000Z</time>
      </trkpt>
      <trkpt lat="45.81657" lon="1.88064">
        <ele>708.9</ele>
        <time>2026-07-07T12:51:56.000Z</time>
      </trkpt>
      <trkpt lat="45.81654" lon="1.88068">
        <ele>708.1</ele>
        <time>2026-07-07T12:51:57.000Z</time>
      </trkpt>
      <trkpt lat="45.81651" lon="1.88073">
        <ele>708.8</ele>
        <time>2026-07-07T12:51:58.000Z</time>
      </trkpt>
      <trkpt lat="45.81648" lon="1.88077">
        <ele>709</ele>
        <time>2026-07-07T12:51:59.000Z</time>
      </trkpt>
      <trkpt lat="45.81647" lon="1.88083">
        <ele>707.7</ele>
        <time>2026-07-07T12:52:00.000Z</time>
      </trkpt>
      <trkpt lat="45.81645" lon="1.88087">
        <ele>706.4</ele>
        <time>2026-07-07T12:52:01.000Z</time>
      </trkpt>
      <trkpt lat="45.81647" lon="1.8809">
        <ele>705.3</ele>
        <time>2026-07-07T12:52:02.000Z</time>
      </trkpt>
      <trkpt lat="45.81646" lon="1.88093">
        <ele>704.3</ele>
        <time>2026-07-07T12:52:03.000Z</time>
      </trkpt>
      <trkpt lat="45.81644" lon="1.88096">
        <ele>704</ele>
        <time>2026-07-07T12:52:04.000Z</time>
      </trkpt>
      <trkpt lat="45.81642" lon="1.88099">
        <ele>704.2</ele>
        <time>2026-07-07T12:52:05.000Z</time>
      </trkpt>
      <trkpt lat="45.8164" lon="1.88102">
        <ele>704.2</ele>
        <time>2026-07-07T12:52:06.000Z</time>
      </trkpt>
      <trkpt lat="45.81637" lon="1.88105">
        <ele>703.8</ele>
        <time>2026-07-07T12:52:07.000Z</time>
      </trkpt>
      <trkpt lat="45.81634" lon="1.88108">
        <ele>704.4</ele>
        <time>2026-07-07T12:52:08.000Z</time>
      </trkpt>
      <trkpt lat="45.8163" lon="1.88113">
        <ele>704.7</ele>
        <time>2026-07-07T12:52:09.000Z</time>
      </trkpt>
      <trkpt lat="45.81625" lon="1.88116">
        <ele>703.9</ele>
        <time>2026-07-07T12:52:10.000Z</time>
      </trkpt>
      <trkpt lat="45.81623" lon="1.88125">
        <ele>704.5</ele>
        <time>2026-07-07T12:52:11.000Z</time>
      </trkpt>
      <trkpt lat="45.81621" lon="1.88132">
        <ele>705.1</ele>
        <time>2026-07-07T12:52:12.000Z</time>
      </trkpt>
      <trkpt lat="45.81619" lon="1.88135">
        <ele>706.7</ele>
        <time>2026-07-07T12:52:13.000Z</time>
      </trkpt>
      <trkpt lat="45.81618" lon="1.8814">
        <ele>706.3</ele>
        <time>2026-07-07T12:52:14.000Z</time>
      </trkpt>
      <trkpt lat="45.81616" lon="1.88143">
        <ele>705.2</ele>
        <time>2026-07-07T12:52:15.000Z</time>
      </trkpt>
      <trkpt lat="45.81614" lon="1.88148">
        <ele>705.4</ele>
        <time>2026-07-07T12:52:16.000Z</time>
      </trkpt>
      <trkpt lat="45.8161" lon="1.88154">
        <ele>705.6</ele>
        <time>2026-07-07T12:52:17.000Z</time>
      </trkpt>
      <trkpt lat="45.81606" lon="1.88159">
        <ele>706.2</ele>
        <time>2026-07-07T12:52:18.000Z</time>
      </trkpt>
      <trkpt lat="45.81603" lon="1.88163">
        <ele>705.3</ele>
        <time>2026-07-07T12:52:19.000Z</time>
      </trkpt>
      <trkpt lat="45.816" lon="1.88165">
        <ele>705</ele>
        <time>2026-07-07T12:52:20.000Z</time>
      </trkpt>
      <trkpt lat="45.81597" lon="1.88167">
        <ele>704.9</ele>
        <time>2026-07-07T12:52:21.000Z</time>
      </trkpt>
      <trkpt lat="45.81594" lon="1.88168">
        <ele>703.9</ele>
        <time>2026-07-07T12:52:22.000Z</time>
      </trkpt>
      <trkpt lat="45.81592" lon="1.8817">
        <ele>704.4</ele>
        <time>2026-07-07T12:52:23.000Z</time>
      </trkpt>
      <trkpt lat="45.8159" lon="1.88172">
        <ele>703.6</ele>
        <time>2026-07-07T12:52:24.000Z</time>
      </trkpt>
      <trkpt lat="45.81589" lon="1.88174">
        <ele>702.9</ele>
        <time>2026-07-07T12:52:25.000Z</time>
      </trkpt>
      <trkpt lat="45.81586" lon="1.88175">
        <ele>704.5</ele>
        <time>2026-07-07T12:52:26.000Z</time>
      </trkpt>
      <trkpt lat="45.81584" lon="1.88176">
        <ele>704.7</ele>
        <time>2026-07-07T12:52:27.000Z</time>
      </trkpt>
      <trkpt lat="45.81582" lon="1.88178">
        <ele>704.8</ele>
        <time>2026-07-07T12:52:28.000Z</time>
      </trkpt>
      <trkpt lat="45.8158" lon="1.88179">
        <ele>705.1</ele>
        <time>2026-07-07T12:52:29.000Z</time>
      </trkpt>
      <trkpt lat="45.81577" lon="1.88179">
        <ele>706</ele>
        <time>2026-07-07T12:52:30.000Z</time>
      </trkpt>
      <trkpt lat="45.81573" lon="1.88179">
        <ele>706.2</ele>
        <time>2026-07-07T12:52:31.000Z</time>
      </trkpt>
      <trkpt lat="45.81567" lon="1.88179">
        <ele>705.8</ele>
        <time>2026-07-07T12:52:32.000Z</time>
      </trkpt>
      <trkpt lat="45.81562" lon="1.88182">
        <ele>705.4</ele>
        <time>2026-07-07T12:52:33.000Z</time>
      </trkpt>
      <trkpt lat="45.81557" lon="1.88184">
        <ele>705.9</ele>
        <time>2026-07-07T12:52:34.000Z</time>
      </trkpt>
      <trkpt lat="45.81553" lon="1.88188">
        <ele>705.5</ele>
        <time>2026-07-07T12:52:35.000Z</time>
      </trkpt>
      <trkpt lat="45.81549" lon="1.88191">
        <ele>705.7</ele>
        <time>2026-07-07T12:52:36.000Z</time>
      </trkpt>
      <trkpt lat="45.81545" lon="1.88192">
        <ele>704.8</ele>
        <time>2026-07-07T12:52:37.000Z</time>
      </trkpt>
      <trkpt lat="45.81542" lon="1.88194">
        <ele>702.9</ele>
        <time>2026-07-07T12:52:38.000Z</time>
      </trkpt>
      <trkpt lat="45.81537" lon="1.88196">
        <ele>703.5</ele>
        <time>2026-07-07T12:52:39.000Z</time>
      </trkpt>
      <trkpt lat="45.81532" lon="1.88197">
        <ele>702.8</ele>
        <time>2026-07-07T12:52:40.000Z</time>
      </trkpt>
      <trkpt lat="45.81528" lon="1.882">
        <ele>702.8</ele>
        <time>2026-07-07T12:52:41.000Z</time>
      </trkpt>
      <trkpt lat="45.81525" lon="1.88204">
        <ele>701.2</ele>
        <time>2026-07-07T12:52:42.000Z</time>
      </trkpt>
      <trkpt lat="45.81521" lon="1.88206">
        <ele>700.8</ele>
        <time>2026-07-07T12:52:43.000Z</time>
      </trkpt>
      <trkpt lat="45.8152" lon="1.88208">
        <ele>698.8</ele>
        <time>2026-07-07T12:52:44.000Z</time>
      </trkpt>
      <trkpt lat="45.81518" lon="1.8821">
        <ele>699.4</ele>
        <time>2026-07-07T12:52:45.000Z</time>
      </trkpt>
      <trkpt lat="45.81516" lon="1.88213">
        <ele>700.7</ele>
        <time>2026-07-07T12:52:46.000Z</time>
      </trkpt>
      <trkpt lat="45.81516" lon="1.88216">
        <ele>701.9</ele>
        <time>2026-07-07T12:52:47.000Z</time>
      </trkpt>
      <trkpt lat="45.81517" lon="1.8822">
        <ele>702</ele>
        <time>2026-07-07T12:52:48.000Z</time>
      </trkpt>
      <trkpt lat="45.81515" lon="1.88226">
        <ele>700.9</ele>
        <time>2026-07-07T12:52:49.000Z</time>
      </trkpt>
      <trkpt lat="45.81513" lon="1.88232">
        <ele>699.8</ele>
        <time>2026-07-07T12:52:50.000Z</time>
      </trkpt>
      <trkpt lat="45.81512" lon="1.88237">
        <ele>698.5</ele>
        <time>2026-07-07T12:52:51.000Z</time>
      </trkpt>
      <trkpt lat="45.81509" lon="1.88243">
        <ele>698.6</ele>
        <time>2026-07-07T12:52:52.000Z</time>
      </trkpt>
      <trkpt lat="45.81506" lon="1.88251">
        <ele>698.2</ele>
        <time>2026-07-07T12:52:53.000Z</time>
      </trkpt>
      <trkpt lat="45.81502" lon="1.88257">
        <ele>697.3</ele>
        <time>2026-07-07T12:52:54.000Z</time>
      </trkpt>
      <trkpt lat="45.81499" lon="1.88264">
        <ele>697.8</ele>
        <time>2026-07-07T12:52:55.000Z</time>
      </trkpt>
      <trkpt lat="45.81495" lon="1.88269">
        <ele>699.8</ele>
        <time>2026-07-07T12:52:56.000Z</time>
      </trkpt>
      <trkpt lat="45.81491" lon="1.88273">
        <ele>699.7</ele>
        <time>2026-07-07T12:52:57.000Z</time>
      </trkpt>
      <trkpt lat="45.81487" lon="1.88277">
        <ele>700.1</ele>
        <time>2026-07-07T12:52:58.000Z</time>
      </trkpt>
      <trkpt lat="45.81484" lon="1.88282">
        <ele>699.9</ele>
        <time>2026-07-07T12:52:59.000Z</time>
      </trkpt>
      <trkpt lat="45.81481" lon="1.88288">
        <ele>700.4</ele>
        <time>2026-07-07T12:53:00.000Z</time>
      </trkpt>
      <trkpt lat="45.81479" lon="1.88293">
        <ele>701.2</ele>
        <time>2026-07-07T12:53:01.000Z</time>
      </trkpt>
      <trkpt lat="45.81476" lon="1.88298">
        <ele>701.7</ele>
        <time>2026-07-07T12:53:02.000Z</time>
      </trkpt>
      <trkpt lat="45.81473" lon="1.88302">
        <ele>702.4</ele>
        <time>2026-07-07T12:53:03.000Z</time>
      </trkpt>
      <trkpt lat="45.8147" lon="1.88304">
        <ele>701.9</ele>
        <time>2026-07-07T12:53:04.000Z</time>
      </trkpt>
      <trkpt lat="45.81468" lon="1.88305">
        <ele>702</ele>
        <time>2026-07-07T12:53:05.000Z</time>
      </trkpt>
      <trkpt lat="45.81466" lon="1.88306">
        <ele>704.5</ele>
        <time>2026-07-07T12:53:06.000Z</time>
      </trkpt>
      <trkpt lat="45.81463" lon="1.88307">
        <ele>706</ele>
        <time>2026-07-07T12:53:07.000Z</time>
      </trkpt>
      <trkpt lat="45.81459" lon="1.88309">
        <ele>705.9</ele>
        <time>2026-07-07T12:53:08.000Z</time>
      </trkpt>
      <trkpt lat="45.81456" lon="1.8831">
        <ele>707.4</ele>
        <time>2026-07-07T12:53:09.000Z</time>
      </trkpt>
      <trkpt lat="45.81454" lon="1.88311">
        <ele>707.3</ele>
        <time>2026-07-07T12:53:10.000Z</time>
      </trkpt>
      <trkpt lat="45.81452" lon="1.88313">
        <ele>706.7</ele>
        <time>2026-07-07T12:53:11.000Z</time>
      </trkpt>
      <trkpt lat="45.81451" lon="1.88315">
        <ele>706.7</ele>
        <time>2026-07-07T12:53:12.000Z</time>
      </trkpt>
      <trkpt lat="45.8145" lon="1.88318">
        <ele>706.4</ele>
        <time>2026-07-07T12:53:13.000Z</time>
      </trkpt>
      <trkpt lat="45.81449" lon="1.8832">
        <ele>706.3</ele>
        <time>2026-07-07T12:53:14.000Z</time>
      </trkpt>
      <trkpt lat="45.81447" lon="1.88322">
        <ele>706.7</ele>
        <time>2026-07-07T12:53:15.000Z</time>
      </trkpt>
      <trkpt lat="45.81446" lon="1.88325">
        <ele>707.6</ele>
        <time>2026-07-07T12:53:16.000Z</time>
      </trkpt>
      <trkpt lat="45.81445" lon="1.88328">
        <ele>707</ele>
        <time>2026-07-07T12:53:17.000Z</time>
      </trkpt>
      <trkpt lat="45.81443" lon="1.8833">
        <ele>706.8</ele>
        <time>2026-07-07T12:53:18.000Z</time>
      </trkpt>
      <trkpt lat="45.81442" lon="1.88333">
        <ele>707</ele>
        <time>2026-07-07T12:53:19.000Z</time>
      </trkpt>
      <trkpt lat="45.81441" lon="1.88335">
        <ele>706.3</ele>
        <time>2026-07-07T12:53:20.000Z</time>
      </trkpt>
      <trkpt lat="45.81439" lon="1.88338">
        <ele>706.3</ele>
        <time>2026-07-07T12:53:21.000Z</time>
      </trkpt>
      <trkpt lat="45.81438" lon="1.88341">
        <ele>706.4</ele>
        <time>2026-07-07T12:53:22.000Z</time>
      </trkpt>
      <trkpt lat="45.81436" lon="1.88342">
        <ele>706.5</ele>
        <time>2026-07-07T12:53:23.000Z</time>
      </trkpt>
      <trkpt lat="45.81435" lon="1.88344">
        <ele>706.2</ele>
        <time>2026-07-07T12:53:24.000Z</time>
      </trkpt>
      <trkpt lat="45.81433" lon="1.88346">
        <ele>706</ele>
        <time>2026-07-07T12:53:25.000Z</time>
      </trkpt>
      <trkpt lat="45.81432" lon="1.88347">
        <ele>706.2</ele>
        <time>2026-07-07T12:53:26.000Z</time>
      </trkpt>
      <trkpt lat="45.8143" lon="1.88349">
        <ele>706.4</ele>
        <time>2026-07-07T12:53:27.000Z</time>
      </trkpt>
      <trkpt lat="45.81427" lon="1.88352">
        <ele>706.5</ele>
        <time>2026-07-07T12:53:28.000Z</time>
      </trkpt>
      <trkpt lat="45.81425" lon="1.88354">
        <ele>706.5</ele>
        <time>2026-07-07T12:53:29.000Z</time>
      </trkpt>
      <trkpt lat="45.81423" lon="1.88356">
        <ele>706.7</ele>
        <time>2026-07-07T12:53:30.000Z</time>
      </trkpt>
      <trkpt lat="45.81422" lon="1.88357">
        <ele>707.1</ele>
        <time>2026-07-07T12:53:31.000Z</time>
      </trkpt>
      <trkpt lat="45.81421" lon="1.88359">
        <ele>707.6</ele>
        <time>2026-07-07T12:53:32.000Z</time>
      </trkpt>
      <trkpt lat="45.8142" lon="1.88359">
        <ele>708.4</ele>
        <time>2026-07-07T12:53:33.000Z</time>
      </trkpt>
      <trkpt lat="45.8142" lon="1.8836">
        <ele>708.9</ele>
        <time>2026-07-07T12:53:34.000Z</time>
      </trkpt>
      <trkpt lat="45.8142" lon="1.88359">
        <ele>708.9</ele>
        <time>2026-07-07T12:53:35.000Z</time>
      </trkpt>
      <trkpt lat="45.8142" lon="1.88359">
        <ele>708.9</ele>
        <time>2026-07-07T12:53:36.000Z</time>
      </trkpt>
      <trkpt lat="45.8142" lon="1.88359">
        <ele>709.2</ele>
        <time>2026-07-07T12:53:37.000Z</time>
      </trkpt>
      <trkpt lat="45.81421" lon="1.88361">
        <ele>709.5</ele>
        <time>2026-07-07T12:53:38.000Z</time>
      </trkpt>
      <trkpt lat="45.81421" lon="1.88363">
        <ele>710.2</ele>
        <time>2026-07-07T12:53:39.000Z</time>
      </trkpt>
      <trkpt lat="45.81421" lon="1.88363">
        <ele>710.6</ele>
        <time>2026-07-07T12:53:40.000Z</time>
      </trkpt>
      <trkpt lat="45.81421" lon="1.88363">
        <ele>711.1</ele>
        <time>2026-07-07T12:53:41.000Z</time>
      </trkpt>
      <trkpt lat="45.81422" lon="1.88364">
        <ele>710.4</ele>
        <time>2026-07-07T12:53:42.000Z</time>
      </trkpt>
      <trkpt lat="45.81423" lon="1.88366">
        <ele>710</ele>
        <time>2026-07-07T12:53:43.000Z</time>
      </trkpt>
      <trkpt lat="45.81423" lon="1.88368">
        <ele>709.7</ele>
        <time>2026-07-07T12:53:44.000Z</time>
      </trkpt>
      <trkpt lat="45.81424" lon="1.8837">
        <ele>709.8</ele>
        <time>2026-07-07T12:53:45.000Z</time>
      </trkpt>
      <trkpt lat="45.81423" lon="1.88372">
        <ele>708.4</ele>
        <time>2026-07-07T12:53:46.000Z</time>
      </trkpt>
      <trkpt lat="45.8142" lon="1.88372">
        <ele>707.9</ele>
        <time>2026-07-07T12:53:47.000Z</time>
      </trkpt>
      <trkpt lat="45.81418" lon="1.88371">
        <ele>707.9</ele>
        <time>2026-07-07T12:53:48.000Z</time>
      </trkpt>
      <trkpt lat="45.81417" lon="1.8837">
        <ele>706.7</ele>
        <time>2026-07-07T12:53:49.000Z</time>
      </trkpt>
      <trkpt lat="45.81416" lon="1.88369">
        <ele>707.3</ele>
        <time>2026-07-07T12:53:50.000Z</time>
      </trkpt>
      <trkpt lat="45.81416" lon="1.88366">
        <ele>707.7</ele>
        <time>2026-07-07T12:53:51.000Z</time>
      </trkpt>
      <trkpt lat="45.81415" lon="1.88364">
        <ele>708.1</ele>
        <time>2026-07-07T12:53:52.000Z</time>
      </trkpt>
      <trkpt lat="45.81414" lon="1.88362">
        <ele>708.3</ele>
        <time>2026-07-07T12:53:53.000Z</time>
      </trkpt>
      <trkpt lat="45.81414" lon="1.8836">
        <ele>708.4</ele>
        <time>2026-07-07T12:53:54.000Z</time>
      </trkpt>
      <trkpt lat="45.81413" lon="1.88359">
        <ele>707.8</ele>
        <time>2026-07-07T12:53:55.000Z</time>
      </trkpt>
      <trkpt lat="45.81412" lon="1.88358">
        <ele>708.1</ele>
        <time>2026-07-07T12:53:56.000Z</time>
      </trkpt>
      <trkpt lat="45.81411" lon="1.88356">
        <ele>708.4</ele>
        <time>2026-07-07T12:53:57.000Z</time>
      </trkpt>
      <trkpt lat="45.81411" lon="1.88354">
        <ele>708</ele>
        <time>2026-07-07T12:53:58.000Z</time>
      </trkpt>
      <trkpt lat="45.8141" lon="1.88353">
        <ele>708.6</ele>
        <time>2026-07-07T12:53:59.000Z</time>
      </trkpt>
      <trkpt lat="45.8141" lon="1.88351">
        <ele>708.8</ele>
        <time>2026-07-07T12:54:00.000Z</time>
      </trkpt>
      <trkpt lat="45.81409" lon="1.88349">
        <ele>708.7</ele>
        <time>2026-07-07T12:54:01.000Z</time>
      </trkpt>
      <trkpt lat="45.81409" lon="1.88348">
        <ele>708.1</ele>
        <time>2026-07-07T12:54:02.000Z</time>
      </trkpt>
      <trkpt lat="45.81408" lon="1.88346">
        <ele>707.4</ele>
        <time>2026-07-07T12:54:03.000Z</time>
      </trkpt>
      <trkpt lat="45.81407" lon="1.88344">
        <ele>707.1</ele>
        <time>2026-07-07T12:54:04.000Z</time>
      </trkpt>
      <trkpt lat="45.81407" lon="1.88342">
        <ele>706.9</ele>
        <time>2026-07-07T12:54:05.000Z</time>
      </trkpt>
      <trkpt lat="45.81407" lon="1.88339">
        <ele>706.2</ele>
        <time>2026-07-07T12:54:06.000Z</time>
      </trkpt>
      <trkpt lat="45.81407" lon="1.88336">
        <ele>706.4</ele>
        <time>2026-07-07T12:54:07.000Z</time>
      </trkpt>
      <trkpt lat="45.81406" lon="1.88333">
        <ele>706.8</ele>
        <time>2026-07-07T12:54:08.000Z</time>
      </trkpt>
      <trkpt lat="45.81405" lon="1.88331">
        <ele>707.4</ele>
        <time>2026-07-07T12:54:09.000Z</time>
      </trkpt>
      <trkpt lat="45.81404" lon="1.8833">
        <ele>707.1</ele>
        <time>2026-07-07T12:54:10.000Z</time>
      </trkpt>
      <trkpt lat="45.81403" lon="1.88328">
        <ele>707.9</ele>
        <time>2026-07-07T12:54:11.000Z</time>
      </trkpt>
      <trkpt lat="45.81401" lon="1.88327">
        <ele>708.3</ele>
        <time>2026-07-07T12:54:12.000Z</time>
      </trkpt>
      <trkpt lat="45.814" lon="1.88325">
        <ele>708.3</ele>
        <time>2026-07-07T12:54:13.000Z</time>
      </trkpt>
      <trkpt lat="45.81398" lon="1.88324">
        <ele>708.3</ele>
        <time>2026-07-07T12:54:14.000Z</time>
      </trkpt>
      <trkpt lat="45.81397" lon="1.88322">
        <ele>709.5</ele>
        <time>2026-07-07T12:54:15.000Z</time>
      </trkpt>
      <trkpt lat="45.81396" lon="1.88321">
        <ele>710.3</ele>
        <time>2026-07-07T12:54:16.000Z</time>
      </trkpt>
      <trkpt lat="45.81395" lon="1.88319">
        <ele>711.6</ele>
        <time>2026-07-07T12:54:17.000Z</time>
      </trkpt>
      <trkpt lat="45.81395" lon="1.88317">
        <ele>711.9</ele>
        <time>2026-07-07T12:54:18.000Z</time>
      </trkpt>
      <trkpt lat="45.81394" lon="1.88315">
        <ele>712</ele>
        <time>2026-07-07T12:54:19.000Z</time>
      </trkpt>
      <trkpt lat="45.81393" lon="1.88312">
        <ele>713.3</ele>
        <time>2026-07-07T12:54:20.000Z</time>
      </trkpt>
      <trkpt lat="45.81393" lon="1.8831">
        <ele>713.3</ele>
        <time>2026-07-07T12:54:21.000Z</time>
      </trkpt>
      <trkpt lat="45.81392" lon="1.88308">
        <ele>714</ele>
        <time>2026-07-07T12:54:22.000Z</time>
      </trkpt>
      <trkpt lat="45.8139" lon="1.88307">
        <ele>714.2</ele>
        <time>2026-07-07T12:54:23.000Z</time>
      </trkpt>
      <trkpt lat="45.81389" lon="1.88305">
        <ele>713.6</ele>
        <time>2026-07-07T12:54:24.000Z</time>
      </trkpt>
      <trkpt lat="45.81387" lon="1.88303">
        <ele>714.1</ele>
        <time>2026-07-07T12:54:25.000Z</time>
      </trkpt>
      <trkpt lat="45.81385" lon="1.88301">
        <ele>714</ele>
        <time>2026-07-07T12:54:26.000Z</time>
      </trkpt>
      <trkpt lat="45.81384" lon="1.88298">
        <ele>713.6</ele>
        <time>2026-07-07T12:54:27.000Z</time>
      </trkpt>
      <trkpt lat="45.81382" lon="1.88296">
        <ele>713.5</ele>
        <time>2026-07-07T12:54:28.000Z</time>
      </trkpt>
      <trkpt lat="45.81381" lon="1.88293">
        <ele>713.9</ele>
        <time>2026-07-07T12:54:29.000Z</time>
      </trkpt>
      <trkpt lat="45.81379" lon="1.8829">
        <ele>714.1</ele>
        <time>2026-07-07T12:54:30.000Z</time>
      </trkpt>
      <trkpt lat="45.81377" lon="1.88287">
        <ele>714.7</ele>
        <time>2026-07-07T12:54:31.000Z</time>
      </trkpt>
      <trkpt lat="45.81375" lon="1.88285">
        <ele>715</ele>
        <time>2026-07-07T12:54:32.000Z</time>
      </trkpt>
      <trkpt lat="45.81374" lon="1.88283">
        <ele>714.9</ele>
        <time>2026-07-07T12:54:33.000Z</time>
      </trkpt>
      <trkpt lat="45.81373" lon="1.8828">
        <ele>715.1</ele>
        <time>2026-07-07T12:54:34.000Z</time>
      </trkpt>
      <trkpt lat="45.81372" lon="1.88279">
        <ele>715.2</ele>
        <time>2026-07-07T12:54:35.000Z</time>
      </trkpt>
      <trkpt lat="45.81371" lon="1.88277">
        <ele>715.6</ele>
        <time>2026-07-07T12:54:36.000Z</time>
      </trkpt>
      <trkpt lat="45.81369" lon="1.88275">
        <ele>716.1</ele>
        <time>2026-07-07T12:54:37.000Z</time>
      </trkpt>
      <trkpt lat="45.81368" lon="1.88273">
        <ele>716.5</ele>
        <time>2026-07-07T12:54:38.000Z</time>
      </trkpt>
      <trkpt lat="45.81367" lon="1.88271">
        <ele>716.5</ele>
        <time>2026-07-07T12:54:39.000Z</time>
      </trkpt>
      <trkpt lat="45.81366" lon="1.88271">
        <ele>716.1</ele>
        <time>2026-07-07T12:54:40.000Z</time>
      </trkpt>
      <trkpt lat="45.81365" lon="1.88269">
        <ele>716.9</ele>
        <time>2026-07-07T12:54:41.000Z</time>
      </trkpt>
      <trkpt lat="45.81364" lon="1.88268">
        <ele>717.4</ele>
        <time>2026-07-07T12:54:42.000Z</time>
      </trkpt>
      <trkpt lat="45.81363" lon="1.88266">
        <ele>717.6</ele>
        <time>2026-07-07T12:54:43.000Z</time>
      </trkpt>
      <trkpt lat="45.81362" lon="1.88265">
        <ele>717.3</ele>
        <time>2026-07-07T12:54:44.000Z</time>
      </trkpt>
      <trkpt lat="45.81361" lon="1.88264">
        <ele>716.7</ele>
        <time>2026-07-07T12:54:45.000Z</time>
      </trkpt>
      <trkpt lat="45.8136" lon="1.88263">
        <ele>717.1</ele>
        <time>2026-07-07T12:54:46.000Z</time>
      </trkpt>
      <trkpt lat="45.81359" lon="1.88261">
        <ele>717.5</ele>
        <time>2026-07-07T12:54:47.000Z</time>
      </trkpt>
      <trkpt lat="45.81358" lon="1.8826">
        <ele>718</ele>
        <time>2026-07-07T12:54:48.000Z</time>
      </trkpt>
      <trkpt lat="45.81357" lon="1.8826">
        <ele>717.6</ele>
        <time>2026-07-07T12:54:49.000Z</time>
      </trkpt>
      <trkpt lat="45.81359" lon="1.88261">
        <ele>717.2</ele>
        <time>2026-07-07T12:54:50.000Z</time>
      </trkpt>
      <trkpt lat="45.81358" lon="1.88259">
        <ele>718.1</ele>
        <time>2026-07-07T12:54:51.000Z</time>
      </trkpt>
      <trkpt lat="45.81357" lon="1.88258">
        <ele>718.5</ele>
        <time>2026-07-07T12:54:52.000Z</time>
      </trkpt>
      <trkpt lat="45.81355" lon="1.88257">
        <ele>718.8</ele>
        <time>2026-07-07T12:54:53.000Z</time>
      </trkpt>
      <trkpt lat="45.81355" lon="1.88256">
        <ele>719.7</ele>
        <time>2026-07-07T12:54:54.000Z</time>
      </trkpt>
      <trkpt lat="45.81354" lon="1.88254">
        <ele>719.6</ele>
        <time>2026-07-07T12:54:55.000Z</time>
      </trkpt>
      <trkpt lat="45.81353" lon="1.88253">
        <ele>719.3</ele>
        <time>2026-07-07T12:54:56.000Z</time>
      </trkpt>
      <trkpt lat="45.81352" lon="1.88251">
        <ele>719.6</ele>
        <time>2026-07-07T12:54:57.000Z</time>
      </trkpt>
      <trkpt lat="45.8135" lon="1.88249">
        <ele>720.6</ele>
        <time>2026-07-07T12:54:58.000Z</time>
      </trkpt>
      <trkpt lat="45.81348" lon="1.88249">
        <ele>721</ele>
        <time>2026-07-07T12:54:59.000Z</time>
      </trkpt>
      <trkpt lat="45.81346" lon="1.88247">
        <ele>721.6</ele>
        <time>2026-07-07T12:55:00.000Z</time>
      </trkpt>
      <trkpt lat="45.81345" lon="1.88246">
        <ele>721.2</ele>
        <time>2026-07-07T12:55:01.000Z</time>
      </trkpt>
      <trkpt lat="45.81344" lon="1.88245">
        <ele>720.7</ele>
        <time>2026-07-07T12:55:02.000Z</time>
      </trkpt>
      <trkpt lat="45.81343" lon="1.88243">
        <ele>721.4</ele>
        <time>2026-07-07T12:55:03.000Z</time>
      </trkpt>
      <trkpt lat="45.81343" lon="1.88241">
        <ele>722.9</ele>
        <time>2026-07-07T12:55:04.000Z</time>
      </trkpt>
      <trkpt lat="45.81342" lon="1.88239">
        <ele>723.3</ele>
        <time>2026-07-07T12:55:05.000Z</time>
      </trkpt>
      <trkpt lat="45.81342" lon="1.88238">
        <ele>723.1</ele>
        <time>2026-07-07T12:55:06.000Z</time>
      </trkpt>
      <trkpt lat="45.81341" lon="1.88236">
        <ele>723.7</ele>
        <time>2026-07-07T12:55:07.000Z</time>
      </trkpt>
      <trkpt lat="45.81341" lon="1.88235">
        <ele>725</ele>
        <time>2026-07-07T12:55:08.000Z</time>
      </trkpt>
      <trkpt lat="45.81341" lon="1.88233">
        <ele>725.5</ele>
        <time>2026-07-07T12:55:09.000Z</time>
      </trkpt>
      <trkpt lat="45.81341" lon="1.88234">
        <ele>725.5</ele>
        <time>2026-07-07T12:55:10.000Z</time>
      </trkpt>
      <trkpt lat="45.81342" lon="1.88235">
        <ele>725.5</ele>
        <time>2026-07-07T12:55:11.000Z</time>
      </trkpt>
      <trkpt lat="45.81343" lon="1.88235">
        <ele>725.4</ele>
        <time>2026-07-07T12:55:12.000Z</time>
      </trkpt>
      <trkpt lat="45.81343" lon="1.88234">
        <ele>725.7</ele>
        <time>2026-07-07T12:55:13.000Z</time>
      </trkpt>
      <trkpt lat="45.81343" lon="1.88233">
        <ele>725.5</ele>
        <time>2026-07-07T12:55:14.000Z</time>
      </trkpt>
      <trkpt lat="45.81343" lon="1.88231">
        <ele>725.8</ele>
        <time>2026-07-07T12:55:15.000Z</time>
      </trkpt>
      <trkpt lat="45.81342" lon="1.88229">
        <ele>726.1</ele>
        <time>2026-07-07T12:55:16.000Z</time>
      </trkpt>
      <trkpt lat="45.81342" lon="1.88227">
        <ele>726.4</ele>
        <time>2026-07-07T12:55:17.000Z</time>
      </trkpt>
      <trkpt lat="45.81341" lon="1.88225">
        <ele>726.8</ele>
        <time>2026-07-07T12:55:18.000Z</time>
      </trkpt>
      <trkpt lat="45.81341" lon="1.88224">
        <ele>726.7</ele>
        <time>2026-07-07T12:55:19.000Z</time>
      </trkpt>
      <trkpt lat="45.81339" lon="1.88223">
        <ele>727.3</ele>
        <time>2026-07-07T12:55:20.000Z</time>
      </trkpt>
      <trkpt lat="45.81336" lon="1.88225">
        <ele>727.4</ele>
        <time>2026-07-07T12:55:21.000Z</time>
      </trkpt>
      <trkpt lat="45.81337" lon="1.88226">
        <ele>727.6</ele>
        <time>2026-07-07T12:55:22.000Z</time>
      </trkpt>
      <trkpt lat="45.81337" lon="1.88226">
        <ele>727.6</ele>
        <time>2026-07-07T12:55:23.000Z</time>
      </trkpt>
      <trkpt lat="45.81337" lon="1.88226">
        <ele>727.6</ele>
        <time>2026-07-07T12:55:24.000Z</time>
      </trkpt>
      <trkpt lat="45.81337" lon="1.88226">
        <ele>727.6</ele>
        <time>2026-07-07T12:55:25.000Z</time>
      </trkpt>
      <trkpt lat="45.81337" lon="1.88226">
        <ele>727.7</ele>
        <time>2026-07-07T12:55:26.000Z</time>
      </trkpt>
      <trkpt lat="45.81337" lon="1.88226">
        <ele>727.9</ele>
        <time>2026-07-07T12:55:27.000Z</time>
      </trkpt>
      <trkpt lat="45.81338" lon="1.88227">
        <ele>728.5</ele>
        <time>2026-07-07T12:55:28.000Z</time>
      </trkpt>
      <trkpt lat="45.81337" lon="1.88227">
        <ele>728.7</ele>
        <time>2026-07-07T12:55:29.000Z</time>
      </trkpt>
      <trkpt lat="45.81337" lon="1.88227">
        <ele>728.6</ele>
        <time>2026-07-07T12:55:30.000Z</time>
      </trkpt>
      <trkpt lat="45.81338" lon="1.88227">
        <ele>728.6</ele>
        <time>2026-07-07T12:55:31.000Z</time>
      </trkpt>
      <trkpt lat="45.81338" lon="1.88227">
        <ele>728.6</ele>
        <time>2026-07-07T12:55:32.000Z</time>
      </trkpt>
      <trkpt lat="45.81338" lon="1.88227">
        <ele>728.6</ele>
        <time>2026-07-07T12:55:33.000Z</time>
      </trkpt>
      <trkpt lat="45.81338" lon="1.88227">
        <ele>728.6</ele>
        <time>2026-07-07T12:55:34.000Z</time>
      </trkpt>
      <trkpt lat="45.81338" lon="1.88227">
        <ele>728.6</ele>
        <time>2026-07-07T12:55:35.000Z</time>
      </trkpt>
      <trkpt lat="45.81338" lon="1.88227">
        <ele>728.6</ele>
        <time>2026-07-07T12:55:36.000Z</time>
      </trkpt>
      <trkpt lat="45.81338" lon="1.88227">
        <ele>728.6</ele>
        <time>2026-07-07T12:55:37.000Z</time>
      </trkpt>
      <trkpt lat="45.81338" lon="1.88227">
        <ele>728.6</ele>
        <time>2026-07-07T12:55:38.000Z</time>
      </trkpt>
      <trkpt lat="45.81338" lon="1.88227">
        <ele>728.6</ele>
        <time>2026-07-07T12:55:39.000Z</time>
      </trkpt>
      <trkpt lat="45.81338" lon="1.88227">
        <ele>728.7</ele>
        <time>2026-07-07T12:55:40.000Z</time>
      </trkpt>
      <trkpt lat="45.81338" lon="1.88228">
        <ele>728.6</ele>
        <time>2026-07-07T12:55:41.000Z</time>
      </trkpt>
      <trkpt lat="45.81335" lon="1.8823">
        <ele>728.4</ele>
        <time>2026-07-07T12:55:42.000Z</time>
      </trkpt>
      <trkpt lat="45.81335" lon="1.88232">
        <ele>728.7</ele>
        <time>2026-07-07T12:55:43.000Z</time>
      </trkpt>
      <trkpt lat="45.81333" lon="1.88233">
        <ele>727.8</ele>
        <time>2026-07-07T12:55:44.000Z</time>
      </trkpt>
      <trkpt lat="45.81333" lon="1.88236">
        <ele>727.7</ele>
        <time>2026-07-07T12:55:45.000Z</time>
      </trkpt>
      <trkpt lat="45.81335" lon="1.88238">
        <ele>725.9</ele>
        <time>2026-07-07T12:55:46.000Z</time>
      </trkpt>
      <trkpt lat="45.81336" lon="1.88239">
        <ele>725.6</ele>
        <time>2026-07-07T12:55:47.000Z</time>
      </trkpt>
      <trkpt lat="45.81337" lon="1.8824">
        <ele>725.8</ele>
        <time>2026-07-07T12:55:48.000Z</time>
      </trkpt>
      <trkpt lat="45.81338" lon="1.88242">
        <ele>725.7</ele>
        <time>2026-07-07T12:55:49.000Z</time>
      </trkpt>
      <trkpt lat="45.81338" lon="1.88244">
        <ele>726.2</ele>
        <time>2026-07-07T12:55:50.000Z</time>
      </trkpt>
      <trkpt lat="45.81338" lon="1.88247">
        <ele>725.7</ele>
        <time>2026-07-07T12:55:51.000Z</time>
      </trkpt>
      <trkpt lat="45.81337" lon="1.8825">
        <ele>726</ele>
        <time>2026-07-07T12:55:52.000Z</time>
      </trkpt>
      <trkpt lat="45.81337" lon="1.88253">
        <ele>725.8</ele>
        <time>2026-07-07T12:55:53.000Z</time>
      </trkpt>
      <trkpt lat="45.81337" lon="1.88255">
        <ele>725.7</ele>
        <time>2026-07-07T12:55:54.000Z</time>
      </trkpt>
      <trkpt lat="45.81337" lon="1.88258">
        <ele>724.7</ele>
        <time>2026-07-07T12:55:55.000Z</time>
      </trkpt>
      <trkpt lat="45.81337" lon="1.88259">
        <ele>724.3</ele>
        <time>2026-07-07T12:55:56.000Z</time>
      </trkpt>
      <trkpt lat="45.81336" lon="1.88262">
        <ele>724.2</ele>
        <time>2026-07-07T12:55:57.000Z</time>
      </trkpt>
      <trkpt lat="45.81335" lon="1.88264">
        <ele>724.3</ele>
        <time>2026-07-07T12:55:58.000Z</time>
      </trkpt>
      <trkpt lat="45.81334" lon="1.88266">
        <ele>724.1</ele>
        <time>2026-07-07T12:55:59.000Z</time>
      </trkpt>
      <trkpt lat="45.81333" lon="1.88268">
        <ele>723.9</ele>
        <time>2026-07-07T12:56:00.000Z</time>
      </trkpt>
      <trkpt lat="45.81333" lon="1.8827">
        <ele>723.4</ele>
        <time>2026-07-07T12:56:01.000Z</time>
      </trkpt>
      <trkpt lat="45.81332" lon="1.88272">
        <ele>722.4</ele>
        <time>2026-07-07T12:56:02.000Z</time>
      </trkpt>
      <trkpt lat="45.81331" lon="1.88274">
        <ele>722.4</ele>
        <time>2026-07-07T12:56:03.000Z</time>
      </trkpt>
      <trkpt lat="45.8133" lon="1.88276">
        <ele>722.7</ele>
        <time>2026-07-07T12:56:04.000Z</time>
      </trkpt>
      <trkpt lat="45.8133" lon="1.88279">
        <ele>721.5</ele>
        <time>2026-07-07T12:56:05.000Z</time>
      </trkpt>
      <trkpt lat="45.81329" lon="1.88281">
        <ele>721.5</ele>
        <time>2026-07-07T12:56:06.000Z</time>
      </trkpt>
      <trkpt lat="45.81328" lon="1.88282">
        <ele>721.6</ele>
        <time>2026-07-07T12:56:07.000Z</time>
      </trkpt>
      <trkpt lat="45.81326" lon="1.88283">
        <ele>721.7</ele>
        <time>2026-07-07T12:56:08.000Z</time>
      </trkpt>
      <trkpt lat="45.81325" lon="1.88285">
        <ele>722</ele>
        <time>2026-07-07T12:56:09.000Z</time>
      </trkpt>
      <trkpt lat="45.81324" lon="1.88286">
        <ele>722.4</ele>
        <time>2026-07-07T12:56:10.000Z</time>
      </trkpt>
      <trkpt lat="45.81322" lon="1.88287">
        <ele>722.3</ele>
        <time>2026-07-07T12:56:11.000Z</time>
      </trkpt>
      <trkpt lat="45.81321" lon="1.88289">
        <ele>722.3</ele>
        <time>2026-07-07T12:56:12.000Z</time>
      </trkpt>
      <trkpt lat="45.8132" lon="1.88291">
        <ele>722.6</ele>
        <time>2026-07-07T12:56:13.000Z</time>
      </trkpt>
      <trkpt lat="45.81319" lon="1.88293">
        <ele>722.4</ele>
        <time>2026-07-07T12:56:14.000Z</time>
      </trkpt>
      <trkpt lat="45.81317" lon="1.88294">
        <ele>723.5</ele>
        <time>2026-07-07T12:56:15.000Z</time>
      </trkpt>
      <trkpt lat="45.81316" lon="1.88296">
        <ele>723</ele>
        <time>2026-07-07T12:56:16.000Z</time>
      </trkpt>
      <trkpt lat="45.81315" lon="1.88298">
        <ele>722.9</ele>
        <time>2026-07-07T12:56:17.000Z</time>
      </trkpt>
      <trkpt lat="45.81314" lon="1.88299">
        <ele>722.7</ele>
        <time>2026-07-07T12:56:18.000Z</time>
      </trkpt>
      <trkpt lat="45.81312" lon="1.88301">
        <ele>722.8</ele>
        <time>2026-07-07T12:56:19.000Z</time>
      </trkpt>
      <trkpt lat="45.81311" lon="1.88302">
        <ele>722.6</ele>
        <time>2026-07-07T12:56:20.000Z</time>
      </trkpt>
      <trkpt lat="45.8131" lon="1.88304">
        <ele>722.5</ele>
        <time>2026-07-07T12:56:21.000Z</time>
      </trkpt>
      <trkpt lat="45.81309" lon="1.88306">
        <ele>722.3</ele>
        <time>2026-07-07T12:56:22.000Z</time>
      </trkpt>
      <trkpt lat="45.81307" lon="1.88307">
        <ele>721.6</ele>
        <time>2026-07-07T12:56:23.000Z</time>
      </trkpt>
      <trkpt lat="45.81306" lon="1.88309">
        <ele>721.9</ele>
        <time>2026-07-07T12:56:24.000Z</time>
      </trkpt>
      <trkpt lat="45.81305" lon="1.8831">
        <ele>721.8</ele>
        <time>2026-07-07T12:56:25.000Z</time>
      </trkpt>
      <trkpt lat="45.81304" lon="1.88311">
        <ele>721.3</ele>
        <time>2026-07-07T12:56:26.000Z</time>
      </trkpt>
      <trkpt lat="45.81303" lon="1.88313">
        <ele>721.5</ele>
        <time>2026-07-07T12:56:27.000Z</time>
      </trkpt>
      <trkpt lat="45.81302" lon="1.88314">
        <ele>721.6</ele>
        <time>2026-07-07T12:56:28.000Z</time>
      </trkpt>
      <trkpt lat="45.813" lon="1.88314">
        <ele>722.4</ele>
        <time>2026-07-07T12:56:29.000Z</time>
      </trkpt>
      <trkpt lat="45.81298" lon="1.88315">
        <ele>722.9</ele>
        <time>2026-07-07T12:56:30.000Z</time>
      </trkpt>
      <trkpt lat="45.81298" lon="1.88318">
        <ele>722.5</ele>
        <time>2026-07-07T12:56:31.000Z</time>
      </trkpt>
      <trkpt lat="45.81297" lon="1.8832">
        <ele>723</ele>
        <time>2026-07-07T12:56:32.000Z</time>
      </trkpt>
      <trkpt lat="45.81296" lon="1.88322">
        <ele>723.1</ele>
        <time>2026-07-07T12:56:33.000Z</time>
      </trkpt>
      <trkpt lat="45.81295" lon="1.88323">
        <ele>723.4</ele>
        <time>2026-07-07T12:56:34.000Z</time>
      </trkpt>
      <trkpt lat="45.81294" lon="1.88325">
        <ele>723.6</ele>
        <time>2026-07-07T12:56:35.000Z</time>
      </trkpt>
      <trkpt lat="45.81293" lon="1.88327">
        <ele>723.5</ele>
        <time>2026-07-07T12:56:36.000Z</time>
      </trkpt>
      <trkpt lat="45.81292" lon="1.88328">
        <ele>723.4</ele>
        <time>2026-07-07T12:56:37.000Z</time>
      </trkpt>
      <trkpt lat="45.81291" lon="1.8833">
        <ele>723.4</ele>
        <time>2026-07-07T12:56:38.000Z</time>
      </trkpt>
      <trkpt lat="45.81289" lon="1.88332">
        <ele>723.7</ele>
        <time>2026-07-07T12:56:39.000Z</time>
      </trkpt>
      <trkpt lat="45.81288" lon="1.88334">
        <ele>723.9</ele>
        <time>2026-07-07T12:56:40.000Z</time>
      </trkpt>
      <trkpt lat="45.81287" lon="1.88336">
        <ele>724</ele>
        <time>2026-07-07T12:56:41.000Z</time>
      </trkpt>
      <trkpt lat="45.81286" lon="1.88337">
        <ele>723.9</ele>
        <time>2026-07-07T12:56:42.000Z</time>
      </trkpt>
      <trkpt lat="45.81285" lon="1.8834">
        <ele>723.8</ele>
        <time>2026-07-07T12:56:43.000Z</time>
      </trkpt>
      <trkpt lat="45.81285" lon="1.88341">
        <ele>723.7</ele>
        <time>2026-07-07T12:56:44.000Z</time>
      </trkpt>
      <trkpt lat="45.81283" lon="1.88343">
        <ele>723.5</ele>
        <time>2026-07-07T12:56:45.000Z</time>
      </trkpt>
      <trkpt lat="45.81282" lon="1.88345">
        <ele>723.4</ele>
        <time>2026-07-07T12:56:46.000Z</time>
      </trkpt>
      <trkpt lat="45.81281" lon="1.88347">
        <ele>723.3</ele>
        <time>2026-07-07T12:56:47.000Z</time>
      </trkpt>
      <trkpt lat="45.8128" lon="1.88348">
        <ele>723.1</ele>
        <time>2026-07-07T12:56:48.000Z</time>
      </trkpt>
      <trkpt lat="45.81279" lon="1.8835">
        <ele>722.9</ele>
        <time>2026-07-07T12:56:49.000Z</time>
      </trkpt>
      <trkpt lat="45.81278" lon="1.88352">
        <ele>722.7</ele>
        <time>2026-07-07T12:56:50.000Z</time>
      </trkpt>
      <trkpt lat="45.81277" lon="1.88355">
        <ele>722.7</ele>
        <time>2026-07-07T12:56:51.000Z</time>
      </trkpt>
      <trkpt lat="45.81276" lon="1.88357">
        <ele>722.6</ele>
        <time>2026-07-07T12:56:52.000Z</time>
      </trkpt>
      <trkpt lat="45.81276" lon="1.88359">
        <ele>722.4</ele>
        <time>2026-07-07T12:56:53.000Z</time>
      </trkpt>
      <trkpt lat="45.81275" lon="1.88361">
        <ele>722.2</ele>
        <time>2026-07-07T12:56:54.000Z</time>
      </trkpt>
      <trkpt lat="45.81274" lon="1.88364">
        <ele>722.2</ele>
        <time>2026-07-07T12:56:55.000Z</time>
      </trkpt>
      <trkpt lat="45.81273" lon="1.88366">
        <ele>722.4</ele>
        <time>2026-07-07T12:56:56.000Z</time>
      </trkpt>
      <trkpt lat="45.81272" lon="1.88368">
        <ele>722.5</ele>
        <time>2026-07-07T12:56:57.000Z</time>
      </trkpt>
      <trkpt lat="45.81272" lon="1.8837">
        <ele>722.4</ele>
        <time>2026-07-07T12:56:58.000Z</time>
      </trkpt>
      <trkpt lat="45.81271" lon="1.88372">
        <ele>722.4</ele>
        <time>2026-07-07T12:56:59.000Z</time>
      </trkpt>
      <trkpt lat="45.8127" lon="1.88375">
        <ele>722.6</ele>
        <time>2026-07-07T12:57:00.000Z</time>
      </trkpt>
      <trkpt lat="45.8127" lon="1.88377">
        <ele>722.3</ele>
        <time>2026-07-07T12:57:01.000Z</time>
      </trkpt>
      <trkpt lat="45.81269" lon="1.88379">
        <ele>722.4</ele>
        <time>2026-07-07T12:57:02.000Z</time>
      </trkpt>
      <trkpt lat="45.81268" lon="1.88381">
        <ele>722.5</ele>
        <time>2026-07-07T12:57:03.000Z</time>
      </trkpt>
      <trkpt lat="45.81267" lon="1.88383">
        <ele>722.4</ele>
        <time>2026-07-07T12:57:04.000Z</time>
      </trkpt>
      <trkpt lat="45.81266" lon="1.88385">
        <ele>722.3</ele>
        <time>2026-07-07T12:57:05.000Z</time>
      </trkpt>
      <trkpt lat="45.81266" lon="1.88387">
        <ele>722.2</ele>
        <time>2026-07-07T12:57:06.000Z</time>
      </trkpt>
      <trkpt lat="45.81265" lon="1.88389">
        <ele>722.1</ele>
        <time>2026-07-07T12:57:07.000Z</time>
      </trkpt>
      <trkpt lat="45.81264" lon="1.88391">
        <ele>722.1</ele>
        <time>2026-07-07T12:57:08.000Z</time>
      </trkpt>
      <trkpt lat="45.81264" lon="1.88393">
        <ele>722</ele>
        <time>2026-07-07T12:57:09.000Z</time>
      </trkpt>
      <trkpt lat="45.81263" lon="1.88395">
        <ele>722.1</ele>
        <time>2026-07-07T12:57:10.000Z</time>
      </trkpt>
      <trkpt lat="45.81262" lon="1.88397">
        <ele>722</ele>
        <time>2026-07-07T12:57:11.000Z</time>
      </trkpt>
      <trkpt lat="45.81261" lon="1.884">
        <ele>722.2</ele>
        <time>2026-07-07T12:57:12.000Z</time>
      </trkpt>
      <trkpt lat="45.8126" lon="1.88402">
        <ele>722.1</ele>
        <time>2026-07-07T12:57:13.000Z</time>
      </trkpt>
      <trkpt lat="45.8126" lon="1.88404">
        <ele>722.1</ele>
        <time>2026-07-07T12:57:14.000Z</time>
      </trkpt>
      <trkpt lat="45.81259" lon="1.88406">
        <ele>722</ele>
        <time>2026-07-07T12:57:15.000Z</time>
      </trkpt>
      <trkpt lat="45.81261" lon="1.8841">
        <ele>722.8</ele>
        <time>2026-07-07T12:57:16.000Z</time>
      </trkpt>
      <trkpt lat="45.81261" lon="1.88412">
        <ele>722.8</ele>
        <time>2026-07-07T12:57:17.000Z</time>
      </trkpt>
      <trkpt lat="45.81259" lon="1.88414">
        <ele>722.1</ele>
        <time>2026-07-07T12:57:18.000Z</time>
      </trkpt>
      <trkpt lat="45.81258" lon="1.88416">
        <ele>722.1</ele>
        <time>2026-07-07T12:57:19.000Z</time>
      </trkpt>
      <trkpt lat="45.81257" lon="1.88418">
        <ele>722.1</ele>
        <time>2026-07-07T12:57:20.000Z</time>
      </trkpt>
      <trkpt lat="45.81257" lon="1.8842">
        <ele>722</ele>
        <time>2026-07-07T12:57:21.000Z</time>
      </trkpt>
      <trkpt lat="45.81256" lon="1.88423">
        <ele>721.8</ele>
        <time>2026-07-07T12:57:22.000Z</time>
      </trkpt>
      <trkpt lat="45.81256" lon="1.88425">
        <ele>721.9</ele>
        <time>2026-07-07T12:57:23.000Z</time>
      </trkpt>
      <trkpt lat="45.81255" lon="1.88427">
        <ele>721.7</ele>
        <time>2026-07-07T12:57:24.000Z</time>
      </trkpt>
      <trkpt lat="45.81255" lon="1.88429">
        <ele>721.6</ele>
        <time>2026-07-07T12:57:25.000Z</time>
      </trkpt>
      <trkpt lat="45.81254" lon="1.88432">
        <ele>721.3</ele>
        <time>2026-07-07T12:57:26.000Z</time>
      </trkpt>
      <trkpt lat="45.81254" lon="1.88434">
        <ele>721.1</ele>
        <time>2026-07-07T12:57:27.000Z</time>
      </trkpt>
      <trkpt lat="45.81253" lon="1.88437">
        <ele>720.9</ele>
        <time>2026-07-07T12:57:28.000Z</time>
      </trkpt>
      <trkpt lat="45.81253" lon="1.88439">
        <ele>720.7</ele>
        <time>2026-07-07T12:57:29.000Z</time>
      </trkpt>
      <trkpt lat="45.81253" lon="1.88442">
        <ele>720.4</ele>
        <time>2026-07-07T12:57:30.000Z</time>
      </trkpt>
      <trkpt lat="45.81252" lon="1.88445">
        <ele>720.3</ele>
        <time>2026-07-07T12:57:31.000Z</time>
      </trkpt>
      <trkpt lat="45.81252" lon="1.88447">
        <ele>720.3</ele>
        <time>2026-07-07T12:57:32.000Z</time>
      </trkpt>
      <trkpt lat="45.81252" lon="1.8845">
        <ele>720.4</ele>
        <time>2026-07-07T12:57:33.000Z</time>
      </trkpt>
      <trkpt lat="45.81252" lon="1.88452">
        <ele>720.5</ele>
        <time>2026-07-07T12:57:34.000Z</time>
      </trkpt>
      <trkpt lat="45.81252" lon="1.88454">
        <ele>720.5</ele>
        <time>2026-07-07T12:57:35.000Z</time>
      </trkpt>
      <trkpt lat="45.81252" lon="1.88457">
        <ele>720.6</ele>
        <time>2026-07-07T12:57:36.000Z</time>
      </trkpt>
      <trkpt lat="45.81251" lon="1.8846">
        <ele>720.7</ele>
        <time>2026-07-07T12:57:37.000Z</time>
      </trkpt>
      <trkpt lat="45.81251" lon="1.88462">
        <ele>721</ele>
        <time>2026-07-07T12:57:38.000Z</time>
      </trkpt>
      <trkpt lat="45.8125" lon="1.88463">
        <ele>721.1</ele>
        <time>2026-07-07T12:57:39.000Z</time>
      </trkpt>
      <trkpt lat="45.81247" lon="1.88464">
        <ele>721.4</ele>
        <time>2026-07-07T12:57:40.000Z</time>
      </trkpt>
      <trkpt lat="45.81245" lon="1.88464">
        <ele>721.5</ele>
        <time>2026-07-07T12:57:41.000Z</time>
      </trkpt>
      <trkpt lat="45.81243" lon="1.88465">
        <ele>721.6</ele>
        <time>2026-07-07T12:57:42.000Z</time>
      </trkpt>
      <trkpt lat="45.81243" lon="1.88469">
        <ele>720.7</ele>
        <time>2026-07-07T12:57:43.000Z</time>
      </trkpt>
      <trkpt lat="45.81243" lon="1.88473">
        <ele>720.1</ele>
        <time>2026-07-07T12:57:44.000Z</time>
      </trkpt>
      <trkpt lat="45.81243" lon="1.88476">
        <ele>719.5</ele>
        <time>2026-07-07T12:57:45.000Z</time>
      </trkpt>
      <trkpt lat="45.81243" lon="1.88479">
        <ele>719.2</ele>
        <time>2026-07-07T12:57:46.000Z</time>
      </trkpt>
      <trkpt lat="45.81245" lon="1.88483">
        <ele>719.2</ele>
        <time>2026-07-07T12:57:47.000Z</time>
      </trkpt>
      <trkpt lat="45.81246" lon="1.88486">
        <ele>720.1</ele>
        <time>2026-07-07T12:57:48.000Z</time>
      </trkpt>
      <trkpt lat="45.81247" lon="1.8849">
        <ele>720.4</ele>
        <time>2026-07-07T12:57:49.000Z</time>
      </trkpt>
      <trkpt lat="45.81247" lon="1.88494">
        <ele>720.9</ele>
        <time>2026-07-07T12:57:50.000Z</time>
      </trkpt>
      <trkpt lat="45.81248" lon="1.88497">
        <ele>721.7</ele>
        <time>2026-07-07T12:57:51.000Z</time>
      </trkpt>
      <trkpt lat="45.81248" lon="1.88501">
        <ele>723.1</ele>
        <time>2026-07-07T12:57:52.000Z</time>
      </trkpt>
      <trkpt lat="45.81248" lon="1.88505">
        <ele>723.4</ele>
        <time>2026-07-07T12:57:53.000Z</time>
      </trkpt>
      <trkpt lat="45.81249" lon="1.88508">
        <ele>722.3</ele>
        <time>2026-07-07T12:57:54.000Z</time>
      </trkpt>
      <trkpt lat="45.8125" lon="1.88512">
        <ele>721.8</ele>
        <time>2026-07-07T12:57:55.000Z</time>
      </trkpt>
      <trkpt lat="45.8125" lon="1.88516">
        <ele>721.4</ele>
        <time>2026-07-07T12:57:56.000Z</time>
      </trkpt>
      <trkpt lat="45.81251" lon="1.88519">
        <ele>721.1</ele>
        <time>2026-07-07T12:57:57.000Z</time>
      </trkpt>
      <trkpt lat="45.81252" lon="1.88523">
        <ele>722.1</ele>
        <time>2026-07-07T12:57:58.000Z</time>
      </trkpt>
      <trkpt lat="45.81254" lon="1.88524">
        <ele>721</ele>
        <time>2026-07-07T12:57:59.000Z</time>
      </trkpt>
      <trkpt lat="45.81255" lon="1.88525">
        <ele>721.3</ele>
        <time>2026-07-07T12:58:00.000Z</time>
      </trkpt>
      <trkpt lat="45.81257" lon="1.88528">
        <ele>721.7</ele>
        <time>2026-07-07T12:58:01.000Z</time>
      </trkpt>
      <trkpt lat="45.81259" lon="1.8853">
        <ele>722.1</ele>
        <time>2026-07-07T12:58:02.000Z</time>
      </trkpt>
      <trkpt lat="45.8126" lon="1.88533">
        <ele>723.2</ele>
        <time>2026-07-07T12:58:03.000Z</time>
      </trkpt>
      <trkpt lat="45.81262" lon="1.88536">
        <ele>723.1</ele>
        <time>2026-07-07T12:58:04.000Z</time>
      </trkpt>
      <trkpt lat="45.81263" lon="1.88538">
        <ele>723.7</ele>
        <time>2026-07-07T12:58:05.000Z</time>
      </trkpt>
      <trkpt lat="45.81264" lon="1.88539">
        <ele>723.8</ele>
        <time>2026-07-07T12:58:06.000Z</time>
      </trkpt>
      <trkpt lat="45.81265" lon="1.8854">
        <ele>724.1</ele>
        <time>2026-07-07T12:58:07.000Z</time>
      </trkpt>
      <trkpt lat="45.81266" lon="1.88542">
        <ele>723.9</ele>
        <time>2026-07-07T12:58:08.000Z</time>
      </trkpt>
      <trkpt lat="45.81267" lon="1.88543">
        <ele>721.9</ele>
        <time>2026-07-07T12:58:09.000Z</time>
      </trkpt>
      <trkpt lat="45.81268" lon="1.88544">
        <ele>721.8</ele>
        <time>2026-07-07T12:58:10.000Z</time>
      </trkpt>
      <trkpt lat="45.81269" lon="1.88545">
        <ele>722</ele>
        <time>2026-07-07T12:58:11.000Z</time>
      </trkpt>
      <trkpt lat="45.8127" lon="1.88546">
        <ele>721.7</ele>
        <time>2026-07-07T12:58:12.000Z</time>
      </trkpt>
      <trkpt lat="45.81271" lon="1.88548">
        <ele>721.8</ele>
        <time>2026-07-07T12:58:13.000Z</time>
      </trkpt>
      <trkpt lat="45.81271" lon="1.8855">
        <ele>721.6</ele>
        <time>2026-07-07T12:58:14.000Z</time>
      </trkpt>
      <trkpt lat="45.81272" lon="1.88552">
        <ele>721.8</ele>
        <time>2026-07-07T12:58:15.000Z</time>
      </trkpt>
      <trkpt lat="45.81273" lon="1.88555">
        <ele>721.2</ele>
        <time>2026-07-07T12:58:16.000Z</time>
      </trkpt>
      <trkpt lat="45.81274" lon="1.88557">
        <ele>721.2</ele>
        <time>2026-07-07T12:58:17.000Z</time>
      </trkpt>
      <trkpt lat="45.81275" lon="1.88558">
        <ele>721.1</ele>
        <time>2026-07-07T12:58:18.000Z</time>
      </trkpt>
      <trkpt lat="45.81276" lon="1.8856">
        <ele>721.4</ele>
        <time>2026-07-07T12:58:19.000Z</time>
      </trkpt>
      <trkpt lat="45.81278" lon="1.88559">
        <ele>716.8</ele>
        <time>2026-07-07T12:58:20.000Z</time>
      </trkpt>
      <trkpt lat="45.8128" lon="1.88559">
        <ele>716.3</ele>
        <time>2026-07-07T12:58:21.000Z</time>
      </trkpt>
      <trkpt lat="45.81282" lon="1.88559">
        <ele>714.6</ele>
        <time>2026-07-07T12:58:22.000Z</time>
      </trkpt>
      <trkpt lat="45.81284" lon="1.88559">
        <ele>713.1</ele>
        <time>2026-07-07T12:58:23.000Z</time>
      </trkpt>
      <trkpt lat="45.81286" lon="1.8856">
        <ele>712.7</ele>
        <time>2026-07-07T12:58:24.000Z</time>
      </trkpt>
      <trkpt lat="45.81288" lon="1.8856">
        <ele>711.8</ele>
        <time>2026-07-07T12:58:25.000Z</time>
      </trkpt>
      <trkpt lat="45.8129" lon="1.8856">
        <ele>711.4</ele>
        <time>2026-07-07T12:58:26.000Z</time>
      </trkpt>
      <trkpt lat="45.81291" lon="1.88561">
        <ele>711.5</ele>
        <time>2026-07-07T12:58:27.000Z</time>
      </trkpt>
      <trkpt lat="45.81293" lon="1.88562">
        <ele>711</ele>
        <time>2026-07-07T12:58:28.000Z</time>
      </trkpt>
      <trkpt lat="45.81294" lon="1.88563">
        <ele>710.8</ele>
        <time>2026-07-07T12:58:29.000Z</time>
      </trkpt>
      <trkpt lat="45.81296" lon="1.88564">
        <ele>710.5</ele>
        <time>2026-07-07T12:58:30.000Z</time>
      </trkpt>
      <trkpt lat="45.81297" lon="1.88564">
        <ele>710.6</ele>
        <time>2026-07-07T12:58:31.000Z</time>
      </trkpt>
      <trkpt lat="45.81299" lon="1.88565">
        <ele>712.3</ele>
        <time>2026-07-07T12:58:32.000Z</time>
      </trkpt>
      <trkpt lat="45.81301" lon="1.88566">
        <ele>713.5</ele>
        <time>2026-07-07T12:58:33.000Z</time>
      </trkpt>
      <trkpt lat="45.81302" lon="1.88566">
        <ele>713.6</ele>
        <time>2026-07-07T12:58:34.000Z</time>
      </trkpt>
      <trkpt lat="45.81304" lon="1.88567">
        <ele>713.1</ele>
        <time>2026-07-07T12:58:35.000Z</time>
      </trkpt>
      <trkpt lat="45.81306" lon="1.88568">
        <ele>712.4</ele>
        <time>2026-07-07T12:58:36.000Z</time>
      </trkpt>
      <trkpt lat="45.81307" lon="1.88568">
        <ele>712.4</ele>
        <time>2026-07-07T12:58:37.000Z</time>
      </trkpt>
      <trkpt lat="45.81309" lon="1.8857">
        <ele>712.6</ele>
        <time>2026-07-07T12:58:38.000Z</time>
      </trkpt>
      <trkpt lat="45.81311" lon="1.88571">
        <ele>713.1</ele>
        <time>2026-07-07T12:58:39.000Z</time>
      </trkpt>
      <trkpt lat="45.81313" lon="1.88572">
        <ele>713.9</ele>
        <time>2026-07-07T12:58:40.000Z</time>
      </trkpt>
      <trkpt lat="45.81314" lon="1.88571">
        <ele>713.5</ele>
        <time>2026-07-07T12:58:41.000Z</time>
      </trkpt>
      <trkpt lat="45.81316" lon="1.88571">
        <ele>713.6</ele>
        <time>2026-07-07T12:58:42.000Z</time>
      </trkpt>
      <trkpt lat="45.81317" lon="1.8857">
        <ele>713.7</ele>
        <time>2026-07-07T12:58:43.000Z</time>
      </trkpt>
      <trkpt lat="45.81318" lon="1.8857">
        <ele>713.1</ele>
        <time>2026-07-07T12:58:44.000Z</time>
      </trkpt>
      <trkpt lat="45.8132" lon="1.8857">
        <ele>712.8</ele>
        <time>2026-07-07T12:58:45.000Z</time>
      </trkpt>
      <trkpt lat="45.81321" lon="1.88571">
        <ele>713.4</ele>
        <time>2026-07-07T12:58:46.000Z</time>
      </trkpt>
      <trkpt lat="45.81321" lon="1.88572">
        <ele>713.5</ele>
        <time>2026-07-07T12:58:47.000Z</time>
      </trkpt>
      <trkpt lat="45.81321" lon="1.88574">
        <ele>713.7</ele>
        <time>2026-07-07T12:58:48.000Z</time>
      </trkpt>
      <trkpt lat="45.81321" lon="1.88576">
        <ele>713.3</ele>
        <time>2026-07-07T12:58:49.000Z</time>
      </trkpt>
      <trkpt lat="45.81319" lon="1.88578">
        <ele>713.5</ele>
        <time>2026-07-07T12:58:50.000Z</time>
      </trkpt>
      <trkpt lat="45.81318" lon="1.8858">
        <ele>713.2</ele>
        <time>2026-07-07T12:58:51.000Z</time>
      </trkpt>
      <trkpt lat="45.81317" lon="1.88582">
        <ele>713.3</ele>
        <time>2026-07-07T12:58:52.000Z</time>
      </trkpt>
      <trkpt lat="45.81315" lon="1.88584">
        <ele>713.4</ele>
        <time>2026-07-07T12:58:53.000Z</time>
      </trkpt>
      <trkpt lat="45.81314" lon="1.88586">
        <ele>713.3</ele>
        <time>2026-07-07T12:58:54.000Z</time>
      </trkpt>
      <trkpt lat="45.81312" lon="1.88588">
        <ele>713</ele>
        <time>2026-07-07T12:58:55.000Z</time>
      </trkpt>
      <trkpt lat="45.81311" lon="1.88589">
        <ele>712.8</ele>
        <time>2026-07-07T12:58:56.000Z</time>
      </trkpt>
      <trkpt lat="45.8131" lon="1.88591">
        <ele>712.7</ele>
        <time>2026-07-07T12:58:57.000Z</time>
      </trkpt>
      <trkpt lat="45.81308" lon="1.88592">
        <ele>712.6</ele>
        <time>2026-07-07T12:58:58.000Z</time>
      </trkpt>
      <trkpt lat="45.81306" lon="1.88594">
        <ele>712.9</ele>
        <time>2026-07-07T12:58:59.000Z</time>
      </trkpt>
      <trkpt lat="45.81305" lon="1.88594">
        <ele>712.9</ele>
        <time>2026-07-07T12:59:00.000Z</time>
      </trkpt>
      <trkpt lat="45.81303" lon="1.88595">
        <ele>713.2</ele>
        <time>2026-07-07T12:59:01.000Z</time>
      </trkpt>
      <trkpt lat="45.81301" lon="1.88596">
        <ele>712.9</ele>
        <time>2026-07-07T12:59:02.000Z</time>
      </trkpt>
      <trkpt lat="45.813" lon="1.88597">
        <ele>712.8</ele>
        <time>2026-07-07T12:59:03.000Z</time>
      </trkpt>
      <trkpt lat="45.81298" lon="1.88598">
        <ele>712.8</ele>
        <time>2026-07-07T12:59:04.000Z</time>
      </trkpt>
      <trkpt lat="45.81296" lon="1.88598">
        <ele>712.9</ele>
        <time>2026-07-07T12:59:05.000Z</time>
      </trkpt>
      <trkpt lat="45.81295" lon="1.88599">
        <ele>712.7</ele>
        <time>2026-07-07T12:59:06.000Z</time>
      </trkpt>
      <trkpt lat="45.81293" lon="1.886">
        <ele>712.6</ele>
        <time>2026-07-07T12:59:07.000Z</time>
      </trkpt>
      <trkpt lat="45.81291" lon="1.886">
        <ele>713.6</ele>
        <time>2026-07-07T12:59:08.000Z</time>
      </trkpt>
      <trkpt lat="45.81289" lon="1.886">
        <ele>713.2</ele>
        <time>2026-07-07T12:59:09.000Z</time>
      </trkpt>
      <trkpt lat="45.81287" lon="1.886">
        <ele>714.1</ele>
        <time>2026-07-07T12:59:10.000Z</time>
      </trkpt>
      <trkpt lat="45.81285" lon="1.88601">
        <ele>714.3</ele>
        <time>2026-07-07T12:59:11.000Z</time>
      </trkpt>
      <trkpt lat="45.81283" lon="1.88602">
        <ele>715.4</ele>
        <time>2026-07-07T12:59:12.000Z</time>
      </trkpt>
      <trkpt lat="45.81281" lon="1.88602">
        <ele>716.3</ele>
        <time>2026-07-07T12:59:13.000Z</time>
      </trkpt>
      <trkpt lat="45.81279" lon="1.88603">
        <ele>717.2</ele>
        <time>2026-07-07T12:59:14.000Z</time>
      </trkpt>
      <trkpt lat="45.81277" lon="1.88604">
        <ele>717.6</ele>
        <time>2026-07-07T12:59:15.000Z</time>
      </trkpt>
      <trkpt lat="45.81275" lon="1.88606">
        <ele>717.6</ele>
        <time>2026-07-07T12:59:16.000Z</time>
      </trkpt>
      <trkpt lat="45.81274" lon="1.88609">
        <ele>717.5</ele>
        <time>2026-07-07T12:59:17.000Z</time>
      </trkpt>
      <trkpt lat="45.81272" lon="1.88611">
        <ele>717.5</ele>
        <time>2026-07-07T12:59:18.000Z</time>
      </trkpt>
      <trkpt lat="45.8127" lon="1.88613">
        <ele>717.7</ele>
        <time>2026-07-07T12:59:19.000Z</time>
      </trkpt>
      <trkpt lat="45.81268" lon="1.88615">
        <ele>717.4</ele>
        <time>2026-07-07T12:59:20.000Z</time>
      </trkpt>
      <trkpt lat="45.81267" lon="1.88617">
        <ele>717.7</ele>
        <time>2026-07-07T12:59:21.000Z</time>
      </trkpt>
      <trkpt lat="45.81266" lon="1.8862">
        <ele>717.5</ele>
        <time>2026-07-07T12:59:22.000Z</time>
      </trkpt>
      <trkpt lat="45.81265" lon="1.88622">
        <ele>717.3</ele>
        <time>2026-07-07T12:59:23.000Z</time>
      </trkpt>
      <trkpt lat="45.81264" lon="1.88623">
        <ele>718.6</ele>
        <time>2026-07-07T12:59:24.000Z</time>
      </trkpt>
      <trkpt lat="45.81262" lon="1.88624">
        <ele>720.2</ele>
        <time>2026-07-07T12:59:25.000Z</time>
      </trkpt>
      <trkpt lat="45.8126" lon="1.88624">
        <ele>721.7</ele>
        <time>2026-07-07T12:59:26.000Z</time>
      </trkpt>
      <trkpt lat="45.81261" lon="1.88624">
        <ele>720.9</ele>
        <time>2026-07-07T12:59:27.000Z</time>
      </trkpt>
      <trkpt lat="45.81261" lon="1.88624">
        <ele>721</ele>
        <time>2026-07-07T12:59:28.000Z</time>
      </trkpt>
      <trkpt lat="45.81261" lon="1.88625">
        <ele>721.5</ele>
        <time>2026-07-07T12:59:29.000Z</time>
      </trkpt>
      <trkpt lat="45.81259" lon="1.88627">
        <ele>722.1</ele>
        <time>2026-07-07T12:59:30.000Z</time>
      </trkpt>
      <trkpt lat="45.81257" lon="1.88629">
        <ele>722.7</ele>
        <time>2026-07-07T12:59:31.000Z</time>
      </trkpt>
      <trkpt lat="45.81257" lon="1.88632">
        <ele>720.1</ele>
        <time>2026-07-07T12:59:32.000Z</time>
      </trkpt>
      <trkpt lat="45.81256" lon="1.88633">
        <ele>720.2</ele>
        <time>2026-07-07T12:59:33.000Z</time>
      </trkpt>
      <trkpt lat="45.81255" lon="1.88635">
        <ele>720.7</ele>
        <time>2026-07-07T12:59:34.000Z</time>
      </trkpt>
      <trkpt lat="45.81254" lon="1.88637">
        <ele>720.7</ele>
        <time>2026-07-07T12:59:35.000Z</time>
      </trkpt>
      <trkpt lat="45.81253" lon="1.88639">
        <ele>721.3</ele>
        <time>2026-07-07T12:59:36.000Z</time>
      </trkpt>
      <trkpt lat="45.81252" lon="1.88641">
        <ele>721.4</ele>
        <time>2026-07-07T12:59:37.000Z</time>
      </trkpt>
      <trkpt lat="45.81251" lon="1.88642">
        <ele>721.7</ele>
        <time>2026-07-07T12:59:38.000Z</time>
      </trkpt>
      <trkpt lat="45.81249" lon="1.88643">
        <ele>721.6</ele>
        <time>2026-07-07T12:59:39.000Z</time>
      </trkpt>
      <trkpt lat="45.81248" lon="1.88644">
        <ele>721.9</ele>
        <time>2026-07-07T12:59:40.000Z</time>
      </trkpt>
      <trkpt lat="45.81247" lon="1.88646">
        <ele>721.6</ele>
        <time>2026-07-07T12:59:41.000Z</time>
      </trkpt>
      <trkpt lat="45.81246" lon="1.88648">
        <ele>722.3</ele>
        <time>2026-07-07T12:59:42.000Z</time>
      </trkpt>
      <trkpt lat="45.81245" lon="1.88649">
        <ele>722.2</ele>
        <time>2026-07-07T12:59:43.000Z</time>
      </trkpt>
      <trkpt lat="45.81244" lon="1.8865">
        <ele>721.7</ele>
        <time>2026-07-07T12:59:44.000Z</time>
      </trkpt>
      <trkpt lat="45.81243" lon="1.88652">
        <ele>721.8</ele>
        <time>2026-07-07T12:59:45.000Z</time>
      </trkpt>
      <trkpt lat="45.81242" lon="1.88653">
        <ele>721.8</ele>
        <time>2026-07-07T12:59:46.000Z</time>
      </trkpt>
      <trkpt lat="45.81241" lon="1.88655">
        <ele>721.3</ele>
        <time>2026-07-07T12:59:47.000Z</time>
      </trkpt>
      <trkpt lat="45.8124" lon="1.88656">
        <ele>721</ele>
        <time>2026-07-07T12:59:48.000Z</time>
      </trkpt>
      <trkpt lat="45.81239" lon="1.88657">
        <ele>721.1</ele>
        <time>2026-07-07T12:59:49.000Z</time>
      </trkpt>
      <trkpt lat="45.81238" lon="1.88657">
        <ele>722.9</ele>
        <time>2026-07-07T12:59:50.000Z</time>
      </trkpt>
      <trkpt lat="45.81237" lon="1.88655">
        <ele>725.1</ele>
        <time>2026-07-07T12:59:51.000Z</time>
      </trkpt>
      <trkpt lat="45.81235" lon="1.88655">
        <ele>726.9</ele>
        <time>2026-07-07T12:59:52.000Z</time>
      </trkpt>
      <trkpt lat="45.81234" lon="1.88656">
        <ele>727.7</ele>
        <time>2026-07-07T12:59:53.000Z</time>
      </trkpt>
      <trkpt lat="45.81232" lon="1.88657">
        <ele>728</ele>
        <time>2026-07-07T12:59:54.000Z</time>
      </trkpt>
      <trkpt lat="45.81231" lon="1.88658">
        <ele>728.5</ele>
        <time>2026-07-07T12:59:55.000Z</time>
      </trkpt>
      <trkpt lat="45.8123" lon="1.88658">
        <ele>729.4</ele>
        <time>2026-07-07T12:59:56.000Z</time>
      </trkpt>
      <trkpt lat="45.81228" lon="1.88659">
        <ele>729.5</ele>
        <time>2026-07-07T12:59:57.000Z</time>
      </trkpt>
      <trkpt lat="45.81227" lon="1.88659">
        <ele>729.4</ele>
        <time>2026-07-07T12:59:58.000Z</time>
      </trkpt>
      <trkpt lat="45.81226" lon="1.8866">
        <ele>728.8</ele>
        <time>2026-07-07T12:59:59.000Z</time>
      </trkpt>
      <trkpt lat="45.81225" lon="1.88663">
        <ele>726.7</ele>
        <time>2026-07-07T13:00:00.000Z</time>
      </trkpt>
      <trkpt lat="45.81224" lon="1.88664">
        <ele>727</ele>
        <time>2026-07-07T13:00:01.000Z</time>
      </trkpt>
      <trkpt lat="45.81224" lon="1.88666">
        <ele>725.6</ele>
        <time>2026-07-07T13:00:02.000Z</time>
      </trkpt>
      <trkpt lat="45.81223" lon="1.88668">
        <ele>724.4</ele>
        <time>2026-07-07T13:00:03.000Z</time>
      </trkpt>
      <trkpt lat="45.81222" lon="1.88668">
        <ele>723.9</ele>
        <time>2026-07-07T13:00:04.000Z</time>
      </trkpt>
      <trkpt lat="45.81221" lon="1.88669">
        <ele>723.6</ele>
        <time>2026-07-07T13:00:05.000Z</time>
      </trkpt>
      <trkpt lat="45.8122" lon="1.88669">
        <ele>722.9</ele>
        <time>2026-07-07T13:00:06.000Z</time>
      </trkpt>
      <trkpt lat="45.81219" lon="1.88669">
        <ele>723.3</ele>
        <time>2026-07-07T13:00:07.000Z</time>
      </trkpt>
      <trkpt lat="45.81218" lon="1.88669">
        <ele>723.6</ele>
        <time>2026-07-07T13:00:08.000Z</time>
      </trkpt>
      <trkpt lat="45.81217" lon="1.8867">
        <ele>723.8</ele>
        <time>2026-07-07T13:00:09.000Z</time>
      </trkpt>
      <trkpt lat="45.81216" lon="1.88671">
        <ele>723.5</ele>
        <time>2026-07-07T13:00:10.000Z</time>
      </trkpt>
      <trkpt lat="45.81215" lon="1.88671">
        <ele>723.1</ele>
        <time>2026-07-07T13:00:11.000Z</time>
      </trkpt>
      <trkpt lat="45.81213" lon="1.88672">
        <ele>723.7</ele>
        <time>2026-07-07T13:00:12.000Z</time>
      </trkpt>
      <trkpt lat="45.81212" lon="1.88672">
        <ele>723.6</ele>
        <time>2026-07-07T13:00:13.000Z</time>
      </trkpt>
      <trkpt lat="45.8121" lon="1.88672">
        <ele>724</ele>
        <time>2026-07-07T13:00:14.000Z</time>
      </trkpt>
      <trkpt lat="45.81209" lon="1.88672">
        <ele>724</ele>
        <time>2026-07-07T13:00:15.000Z</time>
      </trkpt>
      <trkpt lat="45.81208" lon="1.88673">
        <ele>723.4</ele>
        <time>2026-07-07T13:00:16.000Z</time>
      </trkpt>
      <trkpt lat="45.81206" lon="1.88673">
        <ele>724</ele>
        <time>2026-07-07T13:00:17.000Z</time>
      </trkpt>
      <trkpt lat="45.81205" lon="1.88673">
        <ele>724.2</ele>
        <time>2026-07-07T13:00:18.000Z</time>
      </trkpt>
      <trkpt lat="45.81204" lon="1.88673">
        <ele>724</ele>
        <time>2026-07-07T13:00:19.000Z</time>
      </trkpt>
      <trkpt lat="45.81202" lon="1.88674">
        <ele>723.6</ele>
        <time>2026-07-07T13:00:20.000Z</time>
      </trkpt>
      <trkpt lat="45.81201" lon="1.88674">
        <ele>723.4</ele>
        <time>2026-07-07T13:00:21.000Z</time>
      </trkpt>
      <trkpt lat="45.812" lon="1.88673">
        <ele>723.6</ele>
        <time>2026-07-07T13:00:22.000Z</time>
      </trkpt>
      <trkpt lat="45.81198" lon="1.88673">
        <ele>723.5</ele>
        <time>2026-07-07T13:00:23.000Z</time>
      </trkpt>
      <trkpt lat="45.81197" lon="1.88673">
        <ele>723.1</ele>
        <time>2026-07-07T13:00:24.000Z</time>
      </trkpt>
      <trkpt lat="45.81195" lon="1.88672">
        <ele>723.1</ele>
        <time>2026-07-07T13:00:25.000Z</time>
      </trkpt>
      <trkpt lat="45.81194" lon="1.88671">
        <ele>722.4</ele>
        <time>2026-07-07T13:00:26.000Z</time>
      </trkpt>
      <trkpt lat="45.81192" lon="1.88671">
        <ele>722.6</ele>
        <time>2026-07-07T13:00:27.000Z</time>
      </trkpt>
      <trkpt lat="45.81191" lon="1.88671">
        <ele>722.2</ele>
        <time>2026-07-07T13:00:28.000Z</time>
      </trkpt>
      <trkpt lat="45.8119" lon="1.88671">
        <ele>722.6</ele>
        <time>2026-07-07T13:00:29.000Z</time>
      </trkpt>
      <trkpt lat="45.81189" lon="1.8867">
        <ele>722.3</ele>
        <time>2026-07-07T13:00:30.000Z</time>
      </trkpt>
      <trkpt lat="45.81187" lon="1.88669">
        <ele>722.2</ele>
        <time>2026-07-07T13:00:31.000Z</time>
      </trkpt>
      <trkpt lat="45.81186" lon="1.88669">
        <ele>722.1</ele>
        <time>2026-07-07T13:00:32.000Z</time>
      </trkpt>
      <trkpt lat="45.81185" lon="1.88669">
        <ele>721.9</ele>
        <time>2026-07-07T13:00:33.000Z</time>
      </trkpt>
      <trkpt lat="45.81183" lon="1.88669">
        <ele>721.8</ele>
        <time>2026-07-07T13:00:34.000Z</time>
      </trkpt>
      <trkpt lat="45.81182" lon="1.88669">
        <ele>722.7</ele>
        <time>2026-07-07T13:00:35.000Z</time>
      </trkpt>
      <trkpt lat="45.8118" lon="1.88669">
        <ele>722.8</ele>
        <time>2026-07-07T13:00:36.000Z</time>
      </trkpt>
      <trkpt lat="45.81179" lon="1.88669">
        <ele>723.4</ele>
        <time>2026-07-07T13:00:37.000Z</time>
      </trkpt>
      <trkpt lat="45.81177" lon="1.8867">
        <ele>723.7</ele>
        <time>2026-07-07T13:00:38.000Z</time>
      </trkpt>
      <trkpt lat="45.81176" lon="1.88671">
        <ele>723.8</ele>
        <time>2026-07-07T13:00:39.000Z</time>
      </trkpt>
      <trkpt lat="45.81175" lon="1.88674">
        <ele>725</ele>
        <time>2026-07-07T13:00:40.000Z</time>
      </trkpt>
      <trkpt lat="45.81174" lon="1.88675">
        <ele>725.9</ele>
        <time>2026-07-07T13:00:41.000Z</time>
      </trkpt>
      <trkpt lat="45.81173" lon="1.88675">
        <ele>725.7</ele>
        <time>2026-07-07T13:00:42.000Z</time>
      </trkpt>
      <trkpt lat="45.81172" lon="1.88675">
        <ele>725.6</ele>
        <time>2026-07-07T13:00:43.000Z</time>
      </trkpt>
      <trkpt lat="45.81172" lon="1.88675">
        <ele>725.2</ele>
        <time>2026-07-07T13:00:44.000Z</time>
      </trkpt>
      <trkpt lat="45.81172" lon="1.88675">
        <ele>725.3</ele>
        <time>2026-07-07T13:00:45.000Z</time>
      </trkpt>
      <trkpt lat="45.81172" lon="1.88674">
        <ele>725.4</ele>
        <time>2026-07-07T13:00:46.000Z</time>
      </trkpt>
      <trkpt lat="45.81172" lon="1.88674">
        <ele>725.4</ele>
        <time>2026-07-07T13:00:47.000Z</time>
      </trkpt>
      <trkpt lat="45.81171" lon="1.88674">
        <ele>725.2</ele>
        <time>2026-07-07T13:00:48.000Z</time>
      </trkpt>
      <trkpt lat="45.81171" lon="1.88674">
        <ele>725.2</ele>
        <time>2026-07-07T13:00:49.000Z</time>
      </trkpt>
      <trkpt lat="45.81171" lon="1.88674">
        <ele>725.2</ele>
        <time>2026-07-07T13:00:50.000Z</time>
      </trkpt>
      <trkpt lat="45.81171" lon="1.88674">
        <ele>725.2</ele>
        <time>2026-07-07T13:00:51.000Z</time>
      </trkpt>
      <trkpt lat="45.81171" lon="1.88674">
        <ele>725.7</ele>
        <time>2026-07-07T13:00:52.000Z</time>
      </trkpt>
      <trkpt lat="45.81171" lon="1.88674">
        <ele>725.4</ele>
        <time>2026-07-07T13:00:53.000Z</time>
      </trkpt>
      <trkpt lat="45.8117" lon="1.88675">
        <ele>725.8</ele>
        <time>2026-07-07T13:00:54.000Z</time>
      </trkpt>
      <trkpt lat="45.8117" lon="1.88676">
        <ele>726</ele>
        <time>2026-07-07T13:00:55.000Z</time>
      </trkpt>
      <trkpt lat="45.81169" lon="1.88677">
        <ele>726.3</ele>
        <time>2026-07-07T13:00:56.000Z</time>
      </trkpt>
      <trkpt lat="45.81169" lon="1.88678">
        <ele>725.9</ele>
        <time>2026-07-07T13:00:57.000Z</time>
      </trkpt>
      <trkpt lat="45.81169" lon="1.8868">
        <ele>725.6</ele>
        <time>2026-07-07T13:00:58.000Z</time>
      </trkpt>
      <trkpt lat="45.81169" lon="1.88682">
        <ele>725.3</ele>
        <time>2026-07-07T13:00:59.000Z</time>
      </trkpt>
      <trkpt lat="45.81167" lon="1.88684">
        <ele>725.1</ele>
        <time>2026-07-07T13:01:00.000Z</time>
      </trkpt>
      <trkpt lat="45.81167" lon="1.88686">
        <ele>725.3</ele>
        <time>2026-07-07T13:01:01.000Z</time>
      </trkpt>
      <trkpt lat="45.81168" lon="1.88688">
        <ele>725.2</ele>
        <time>2026-07-07T13:01:02.000Z</time>
      </trkpt>
      <trkpt lat="45.81169" lon="1.8869">
        <ele>724.7</ele>
        <time>2026-07-07T13:01:03.000Z</time>
      </trkpt>
      <trkpt lat="45.81169" lon="1.88692">
        <ele>724.2</ele>
        <time>2026-07-07T13:01:04.000Z</time>
      </trkpt>
      <trkpt lat="45.8117" lon="1.88694">
        <ele>723.9</ele>
        <time>2026-07-07T13:01:05.000Z</time>
      </trkpt>
      <trkpt lat="45.81171" lon="1.88696">
        <ele>723.6</ele>
        <time>2026-07-07T13:01:06.000Z</time>
      </trkpt>
      <trkpt lat="45.81172" lon="1.88698">
        <ele>723.5</ele>
        <time>2026-07-07T13:01:07.000Z</time>
      </trkpt>
      <trkpt lat="45.81173" lon="1.887">
        <ele>723.3</ele>
        <time>2026-07-07T13:01:08.000Z</time>
      </trkpt>
      <trkpt lat="45.81175" lon="1.88702">
        <ele>722.6</ele>
        <time>2026-07-07T13:01:09.000Z</time>
      </trkpt>
      <trkpt lat="45.81176" lon="1.88703">
        <ele>722.5</ele>
        <time>2026-07-07T13:01:10.000Z</time>
      </trkpt>
      <trkpt lat="45.81177" lon="1.88704">
        <ele>722.3</ele>
        <time>2026-07-07T13:01:11.000Z</time>
      </trkpt>
      <trkpt lat="45.81178" lon="1.88705">
        <ele>722.2</ele>
        <time>2026-07-07T13:01:12.000Z</time>
      </trkpt>
      <trkpt lat="45.81179" lon="1.88706">
        <ele>722.3</ele>
        <time>2026-07-07T13:01:13.000Z</time>
      </trkpt>
      <trkpt lat="45.8118" lon="1.88709">
        <ele>723.2</ele>
        <time>2026-07-07T13:01:14.000Z</time>
      </trkpt>
      <trkpt lat="45.81181" lon="1.88712">
        <ele>723.1</ele>
        <time>2026-07-07T13:01:15.000Z</time>
      </trkpt>
      <trkpt lat="45.81183" lon="1.88713">
        <ele>722.5</ele>
        <time>2026-07-07T13:01:16.000Z</time>
      </trkpt>
      <trkpt lat="45.81184" lon="1.88715">
        <ele>722.5</ele>
        <time>2026-07-07T13:01:17.000Z</time>
      </trkpt>
      <trkpt lat="45.81185" lon="1.88717">
        <ele>722</ele>
        <time>2026-07-07T13:01:18.000Z</time>
      </trkpt>
      <trkpt lat="45.81186" lon="1.88719">
        <ele>722.3</ele>
        <time>2026-07-07T13:01:19.000Z</time>
      </trkpt>
      <trkpt lat="45.81188" lon="1.88721">
        <ele>722.6</ele>
        <time>2026-07-07T13:01:20.000Z</time>
      </trkpt>
      <trkpt lat="45.81189" lon="1.88724">
        <ele>723</ele>
        <time>2026-07-07T13:01:21.000Z</time>
      </trkpt>
      <trkpt lat="45.8119" lon="1.88726">
        <ele>723</ele>
        <time>2026-07-07T13:01:22.000Z</time>
      </trkpt>
      <trkpt lat="45.81191" lon="1.88729">
        <ele>723.7</ele>
        <time>2026-07-07T13:01:23.000Z</time>
      </trkpt>
      <trkpt lat="45.81191" lon="1.88732">
        <ele>723.8</ele>
        <time>2026-07-07T13:01:24.000Z</time>
      </trkpt>
      <trkpt lat="45.81192" lon="1.88734">
        <ele>723.8</ele>
        <time>2026-07-07T13:01:25.000Z</time>
      </trkpt>
      <trkpt lat="45.81193" lon="1.88737">
        <ele>723.9</ele>
        <time>2026-07-07T13:01:26.000Z</time>
      </trkpt>
      <trkpt lat="45.81194" lon="1.88739">
        <ele>724.2</ele>
        <time>2026-07-07T13:01:27.000Z</time>
      </trkpt>
      <trkpt lat="45.81194" lon="1.88742">
        <ele>724.2</ele>
        <time>2026-07-07T13:01:28.000Z</time>
      </trkpt>
      <trkpt lat="45.81195" lon="1.88743">
        <ele>724.3</ele>
        <time>2026-07-07T13:01:29.000Z</time>
      </trkpt>
      <trkpt lat="45.81192" lon="1.88746">
        <ele>724.3</ele>
        <time>2026-07-07T13:01:30.000Z</time>
      </trkpt>
      <trkpt lat="45.81191" lon="1.88745">
        <ele>724.4</ele>
        <time>2026-07-07T13:01:31.000Z</time>
      </trkpt>
      <trkpt lat="45.8119" lon="1.88744">
        <ele>724.4</ele>
        <time>2026-07-07T13:01:32.000Z</time>
      </trkpt>
      <trkpt lat="45.81189" lon="1.88743">
        <ele>724.7</ele>
        <time>2026-07-07T13:01:33.000Z</time>
      </trkpt>
      <trkpt lat="45.81188" lon="1.88742">
        <ele>724.8</ele>
        <time>2026-07-07T13:01:34.000Z</time>
      </trkpt>
      <trkpt lat="45.81187" lon="1.88743">
        <ele>724.5</ele>
        <time>2026-07-07T13:01:35.000Z</time>
      </trkpt>
      <trkpt lat="45.81186" lon="1.88744">
        <ele>724.5</ele>
        <time>2026-07-07T13:01:36.000Z</time>
      </trkpt>
      <trkpt lat="45.81187" lon="1.88746">
        <ele>724.4</ele>
        <time>2026-07-07T13:01:37.000Z</time>
      </trkpt>
      <trkpt lat="45.81188" lon="1.88748">
        <ele>724.3</ele>
        <time>2026-07-07T13:01:38.000Z</time>
      </trkpt>
      <trkpt lat="45.81189" lon="1.8875">
        <ele>724.4</ele>
        <time>2026-07-07T13:01:39.000Z</time>
      </trkpt>
      <trkpt lat="45.8119" lon="1.88752">
        <ele>724.4</ele>
        <time>2026-07-07T13:01:40.000Z</time>
      </trkpt>
      <trkpt lat="45.81191" lon="1.88753">
        <ele>724.5</ele>
        <time>2026-07-07T13:01:41.000Z</time>
      </trkpt>
      <trkpt lat="45.81191" lon="1.88753">
        <ele>724.3</ele>
        <time>2026-07-07T13:01:42.000Z</time>
      </trkpt>
      <trkpt lat="45.81192" lon="1.88754">
        <ele>723.9</ele>
        <time>2026-07-07T13:01:43.000Z</time>
      </trkpt>
      <trkpt lat="45.81193" lon="1.88756">
        <ele>723.9</ele>
        <time>2026-07-07T13:01:44.000Z</time>
      </trkpt>
      <trkpt lat="45.81194" lon="1.88757">
        <ele>723.7</ele>
        <time>2026-07-07T13:01:45.000Z</time>
      </trkpt>
      <trkpt lat="45.81197" lon="1.88757">
        <ele>723.1</ele>
        <time>2026-07-07T13:01:46.000Z</time>
      </trkpt>
      <trkpt lat="45.81198" lon="1.88758">
        <ele>723.4</ele>
        <time>2026-07-07T13:01:47.000Z</time>
      </trkpt>
      <trkpt lat="45.81199" lon="1.8876">
        <ele>723.4</ele>
        <time>2026-07-07T13:01:48.000Z</time>
      </trkpt>
      <trkpt lat="45.812" lon="1.88762">
        <ele>722.7</ele>
        <time>2026-07-07T13:01:49.000Z</time>
      </trkpt>
      <trkpt lat="45.81201" lon="1.88764">
        <ele>722.8</ele>
        <time>2026-07-07T13:01:50.000Z</time>
      </trkpt>
      <trkpt lat="45.81202" lon="1.88766">
        <ele>722.9</ele>
        <time>2026-07-07T13:01:51.000Z</time>
      </trkpt>
      <trkpt lat="45.81202" lon="1.88768">
        <ele>722.9</ele>
        <time>2026-07-07T13:01:52.000Z</time>
      </trkpt>
      <trkpt lat="45.81203" lon="1.8877">
        <ele>722.9</ele>
        <time>2026-07-07T13:01:53.000Z</time>
      </trkpt>
      <trkpt lat="45.81204" lon="1.88773">
        <ele>723.1</ele>
        <time>2026-07-07T13:01:54.000Z</time>
      </trkpt>
      <trkpt lat="45.81204" lon="1.88775">
        <ele>723</ele>
        <time>2026-07-07T13:01:55.000Z</time>
      </trkpt>
      <trkpt lat="45.81205" lon="1.88777">
        <ele>723.1</ele>
        <time>2026-07-07T13:01:56.000Z</time>
      </trkpt>
      <trkpt lat="45.81205" lon="1.88779">
        <ele>723</ele>
        <time>2026-07-07T13:01:57.000Z</time>
      </trkpt>
      <trkpt lat="45.81206" lon="1.88781">
        <ele>723</ele>
        <time>2026-07-07T13:01:58.000Z</time>
      </trkpt>
      <trkpt lat="45.81207" lon="1.88783">
        <ele>722.9</ele>
        <time>2026-07-07T13:01:59.000Z</time>
      </trkpt>
      <trkpt lat="45.81207" lon="1.88785">
        <ele>723</ele>
        <time>2026-07-07T13:02:00.000Z</time>
      </trkpt>
      <trkpt lat="45.81208" lon="1.88787">
        <ele>723</ele>
        <time>2026-07-07T13:02:01.000Z</time>
      </trkpt>
      <trkpt lat="45.81209" lon="1.88789">
        <ele>723.1</ele>
        <time>2026-07-07T13:02:02.000Z</time>
      </trkpt>
      <trkpt lat="45.8121" lon="1.88791">
        <ele>723.1</ele>
        <time>2026-07-07T13:02:03.000Z</time>
      </trkpt>
      <trkpt lat="45.81211" lon="1.88793">
        <ele>723</ele>
        <time>2026-07-07T13:02:04.000Z</time>
      </trkpt>
      <trkpt lat="45.81212" lon="1.88794">
        <ele>722.9</ele>
        <time>2026-07-07T13:02:05.000Z</time>
      </trkpt>
      <trkpt lat="45.81213" lon="1.88796">
        <ele>722.7</ele>
        <time>2026-07-07T13:02:06.000Z</time>
      </trkpt>
      <trkpt lat="45.81213" lon="1.88798">
        <ele>722.6</ele>
        <time>2026-07-07T13:02:07.000Z</time>
      </trkpt>
      <trkpt lat="45.81214" lon="1.88799">
        <ele>722.4</ele>
        <time>2026-07-07T13:02:08.000Z</time>
      </trkpt>
      <trkpt lat="45.81215" lon="1.88801">
        <ele>722.2</ele>
        <time>2026-07-07T13:02:09.000Z</time>
      </trkpt>
      <trkpt lat="45.81216" lon="1.88803">
        <ele>722.3</ele>
        <time>2026-07-07T13:02:10.000Z</time>
      </trkpt>
      <trkpt lat="45.81217" lon="1.88805">
        <ele>722.4</ele>
        <time>2026-07-07T13:02:11.000Z</time>
      </trkpt>
      <trkpt lat="45.81218" lon="1.88806">
        <ele>722.5</ele>
        <time>2026-07-07T13:02:12.000Z</time>
      </trkpt>
      <trkpt lat="45.81219" lon="1.88808">
        <ele>722.6</ele>
        <time>2026-07-07T13:02:13.000Z</time>
      </trkpt>
      <trkpt lat="45.81221" lon="1.88808">
        <ele>722.4</ele>
        <time>2026-07-07T13:02:14.000Z</time>
      </trkpt>
      <trkpt lat="45.81222" lon="1.8881">
        <ele>722.5</ele>
        <time>2026-07-07T13:02:15.000Z</time>
      </trkpt>
      <trkpt lat="45.81222" lon="1.88813">
        <ele>723.2</ele>
        <time>2026-07-07T13:02:16.000Z</time>
      </trkpt>
      <trkpt lat="45.81223" lon="1.88815">
        <ele>723.2</ele>
        <time>2026-07-07T13:02:17.000Z</time>
      </trkpt>
      <trkpt lat="45.81224" lon="1.88816">
        <ele>723.2</ele>
        <time>2026-07-07T13:02:18.000Z</time>
      </trkpt>
      <trkpt lat="45.81225" lon="1.88818">
        <ele>722.7</ele>
        <time>2026-07-07T13:02:19.000Z</time>
      </trkpt>
      <trkpt lat="45.81225" lon="1.8882">
        <ele>723</ele>
        <time>2026-07-07T13:02:20.000Z</time>
      </trkpt>
      <trkpt lat="45.81226" lon="1.88822">
        <ele>722.9</ele>
        <time>2026-07-07T13:02:21.000Z</time>
      </trkpt>
      <trkpt lat="45.81227" lon="1.88824">
        <ele>723.4</ele>
        <time>2026-07-07T13:02:22.000Z</time>
      </trkpt>
      <trkpt lat="45.81228" lon="1.88826">
        <ele>723.4</ele>
        <time>2026-07-07T13:02:23.000Z</time>
      </trkpt>
      <trkpt lat="45.81229" lon="1.88828">
        <ele>723.6</ele>
        <time>2026-07-07T13:02:24.000Z</time>
      </trkpt>
      <trkpt lat="45.8123" lon="1.88829">
        <ele>723.5</ele>
        <time>2026-07-07T13:02:25.000Z</time>
      </trkpt>
      <trkpt lat="45.8123" lon="1.8883">
        <ele>723.4</ele>
        <time>2026-07-07T13:02:26.000Z</time>
      </trkpt>
      <trkpt lat="45.81231" lon="1.88831">
        <ele>723.6</ele>
        <time>2026-07-07T13:02:27.000Z</time>
      </trkpt>
      <trkpt lat="45.81232" lon="1.88833">
        <ele>723.9</ele>
        <time>2026-07-07T13:02:28.000Z</time>
      </trkpt>
      <trkpt lat="45.81232" lon="1.88835">
        <ele>724.4</ele>
        <time>2026-07-07T13:02:29.000Z</time>
      </trkpt>
      <trkpt lat="45.81233" lon="1.88837">
        <ele>724.9</ele>
        <time>2026-07-07T13:02:30.000Z</time>
      </trkpt>
      <trkpt lat="45.81234" lon="1.88838">
        <ele>725.2</ele>
        <time>2026-07-07T13:02:31.000Z</time>
      </trkpt>
      <trkpt lat="45.81234" lon="1.8884">
        <ele>725.4</ele>
        <time>2026-07-07T13:02:32.000Z</time>
      </trkpt>
      <trkpt lat="45.81234" lon="1.88842">
        <ele>725.5</ele>
        <time>2026-07-07T13:02:33.000Z</time>
      </trkpt>
      <trkpt lat="45.81234" lon="1.88844">
        <ele>725.7</ele>
        <time>2026-07-07T13:02:34.000Z</time>
      </trkpt>
      <trkpt lat="45.81234" lon="1.88846">
        <ele>726.2</ele>
        <time>2026-07-07T13:02:35.000Z</time>
      </trkpt>
      <trkpt lat="45.81234" lon="1.88849">
        <ele>726.1</ele>
        <time>2026-07-07T13:02:36.000Z</time>
      </trkpt>
      <trkpt lat="45.81233" lon="1.88851">
        <ele>726.1</ele>
        <time>2026-07-07T13:02:37.000Z</time>
      </trkpt>
      <trkpt lat="45.81232" lon="1.88852">
        <ele>725.9</ele>
        <time>2026-07-07T13:02:38.000Z</time>
      </trkpt>
      <trkpt lat="45.81231" lon="1.88854">
        <ele>725.6</ele>
        <time>2026-07-07T13:02:39.000Z</time>
      </trkpt>
      <trkpt lat="45.81229" lon="1.88855">
        <ele>725.4</ele>
        <time>2026-07-07T13:02:40.000Z</time>
      </trkpt>
      <trkpt lat="45.81228" lon="1.88856">
        <ele>724.9</ele>
        <time>2026-07-07T13:02:41.000Z</time>
      </trkpt>
      <trkpt lat="45.81227" lon="1.88857">
        <ele>724.9</ele>
        <time>2026-07-07T13:02:42.000Z</time>
      </trkpt>
      <trkpt lat="45.81225" lon="1.88858">
        <ele>724.3</ele>
        <time>2026-07-07T13:02:43.000Z</time>
      </trkpt>
      <trkpt lat="45.81224" lon="1.88858">
        <ele>724.3</ele>
        <time>2026-07-07T13:02:44.000Z</time>
      </trkpt>
      <trkpt lat="45.81223" lon="1.8886">
        <ele>723.9</ele>
        <time>2026-07-07T13:02:45.000Z</time>
      </trkpt>
      <trkpt lat="45.81222" lon="1.88861">
        <ele>723.6</ele>
        <time>2026-07-07T13:02:46.000Z</time>
      </trkpt>
      <trkpt lat="45.81221" lon="1.88863">
        <ele>723.9</ele>
        <time>2026-07-07T13:02:47.000Z</time>
      </trkpt>
      <trkpt lat="45.8122" lon="1.88865">
        <ele>723.8</ele>
        <time>2026-07-07T13:02:48.000Z</time>
      </trkpt>
      <trkpt lat="45.8122" lon="1.88867">
        <ele>724.1</ele>
        <time>2026-07-07T13:02:49.000Z</time>
      </trkpt>
      <trkpt lat="45.8122" lon="1.88869">
        <ele>724.3</ele>
        <time>2026-07-07T13:02:50.000Z</time>
      </trkpt>
      <trkpt lat="45.8122" lon="1.88871">
        <ele>724.3</ele>
        <time>2026-07-07T13:02:51.000Z</time>
      </trkpt>
      <trkpt lat="45.81221" lon="1.88873">
        <ele>724.5</ele>
        <time>2026-07-07T13:02:52.000Z</time>
      </trkpt>
      <trkpt lat="45.81221" lon="1.88875">
        <ele>724</ele>
        <time>2026-07-07T13:02:53.000Z</time>
      </trkpt>
      <trkpt lat="45.81222" lon="1.88877">
        <ele>724.3</ele>
        <time>2026-07-07T13:02:54.000Z</time>
      </trkpt>
      <trkpt lat="45.81223" lon="1.88878">
        <ele>723.9</ele>
        <time>2026-07-07T13:02:55.000Z</time>
      </trkpt>
      <trkpt lat="45.81224" lon="1.88879">
        <ele>723.7</ele>
        <time>2026-07-07T13:02:56.000Z</time>
      </trkpt>
      <trkpt lat="45.81225" lon="1.88881">
        <ele>723.7</ele>
        <time>2026-07-07T13:02:57.000Z</time>
      </trkpt>
      <trkpt lat="45.81227" lon="1.88882">
        <ele>724</ele>
        <time>2026-07-07T13:02:58.000Z</time>
      </trkpt>
      <trkpt lat="45.81228" lon="1.88884">
        <ele>723.9</ele>
        <time>2026-07-07T13:02:59.000Z</time>
      </trkpt>
      <trkpt lat="45.81229" lon="1.88885">
        <ele>723.8</ele>
        <time>2026-07-07T13:03:00.000Z</time>
      </trkpt>
      <trkpt lat="45.8123" lon="1.88887">
        <ele>723.9</ele>
        <time>2026-07-07T13:03:01.000Z</time>
      </trkpt>
      <trkpt lat="45.8123" lon="1.88889">
        <ele>723.8</ele>
        <time>2026-07-07T13:03:02.000Z</time>
      </trkpt>
      <trkpt lat="45.81231" lon="1.88891">
        <ele>723.8</ele>
        <time>2026-07-07T13:03:03.000Z</time>
      </trkpt>
      <trkpt lat="45.81231" lon="1.88894">
        <ele>723.9</ele>
        <time>2026-07-07T13:03:04.000Z</time>
      </trkpt>
      <trkpt lat="45.81231" lon="1.88896">
        <ele>723.3</ele>
        <time>2026-07-07T13:03:05.000Z</time>
      </trkpt>
      <trkpt lat="45.81231" lon="1.88898">
        <ele>722.8</ele>
        <time>2026-07-07T13:03:06.000Z</time>
      </trkpt>
      <trkpt lat="45.81231" lon="1.889">
        <ele>722.4</ele>
        <time>2026-07-07T13:03:07.000Z</time>
      </trkpt>
      <trkpt lat="45.8123" lon="1.88902">
        <ele>721.9</ele>
        <time>2026-07-07T13:03:08.000Z</time>
      </trkpt>
      <trkpt lat="45.81229" lon="1.88904">
        <ele>721.6</ele>
        <time>2026-07-07T13:03:09.000Z</time>
      </trkpt>
      <trkpt lat="45.81228" lon="1.88906">
        <ele>722.2</ele>
        <time>2026-07-07T13:03:10.000Z</time>
      </trkpt>
      <trkpt lat="45.81228" lon="1.88908">
        <ele>723</ele>
        <time>2026-07-07T13:03:11.000Z</time>
      </trkpt>
      <trkpt lat="45.81227" lon="1.8891">
        <ele>723</ele>
        <time>2026-07-07T13:03:12.000Z</time>
      </trkpt>
      <trkpt lat="45.81226" lon="1.88912">
        <ele>723</ele>
        <time>2026-07-07T13:03:13.000Z</time>
      </trkpt>
      <trkpt lat="45.81225" lon="1.88914">
        <ele>722.6</ele>
        <time>2026-07-07T13:03:14.000Z</time>
      </trkpt>
      <trkpt lat="45.81224" lon="1.88916">
        <ele>722.6</ele>
        <time>2026-07-07T13:03:15.000Z</time>
      </trkpt>
      <trkpt lat="45.81223" lon="1.88919">
        <ele>724.3</ele>
        <time>2026-07-07T13:03:16.000Z</time>
      </trkpt>
      <trkpt lat="45.81222" lon="1.88921">
        <ele>723.6</ele>
        <time>2026-07-07T13:03:17.000Z</time>
      </trkpt>
      <trkpt lat="45.81221" lon="1.88924">
        <ele>723.1</ele>
        <time>2026-07-07T13:03:18.000Z</time>
      </trkpt>
      <trkpt lat="45.81221" lon="1.88927">
        <ele>723.3</ele>
        <time>2026-07-07T13:03:19.000Z</time>
      </trkpt>
      <trkpt lat="45.81221" lon="1.88929">
        <ele>723.2</ele>
        <time>2026-07-07T13:03:20.000Z</time>
      </trkpt>
      <trkpt lat="45.81222" lon="1.88931">
        <ele>723.6</ele>
        <time>2026-07-07T13:03:21.000Z</time>
      </trkpt>
      <trkpt lat="45.81222" lon="1.88933">
        <ele>723.5</ele>
        <time>2026-07-07T13:03:22.000Z</time>
      </trkpt>
      <trkpt lat="45.81223" lon="1.88935">
        <ele>723.7</ele>
        <time>2026-07-07T13:03:23.000Z</time>
      </trkpt>
      <trkpt lat="45.81223" lon="1.88937">
        <ele>723.8</ele>
        <time>2026-07-07T13:03:24.000Z</time>
      </trkpt>
      <trkpt lat="45.81224" lon="1.88939">
        <ele>723.4</ele>
        <time>2026-07-07T13:03:25.000Z</time>
      </trkpt>
      <trkpt lat="45.81224" lon="1.88941">
        <ele>722.9</ele>
        <time>2026-07-07T13:03:26.000Z</time>
      </trkpt>
      <trkpt lat="45.81225" lon="1.88943">
        <ele>722.9</ele>
        <time>2026-07-07T13:03:27.000Z</time>
      </trkpt>
      <trkpt lat="45.81226" lon="1.88945">
        <ele>722.5</ele>
        <time>2026-07-07T13:03:28.000Z</time>
      </trkpt>
      <trkpt lat="45.81226" lon="1.88947">
        <ele>722.4</ele>
        <time>2026-07-07T13:03:29.000Z</time>
      </trkpt>
      <trkpt lat="45.81227" lon="1.88949">
        <ele>722.1</ele>
        <time>2026-07-07T13:03:30.000Z</time>
      </trkpt>
      <trkpt lat="45.81227" lon="1.88952">
        <ele>721.7</ele>
        <time>2026-07-07T13:03:31.000Z</time>
      </trkpt>
      <trkpt lat="45.81228" lon="1.88954">
        <ele>721.5</ele>
        <time>2026-07-07T13:03:32.000Z</time>
      </trkpt>
      <trkpt lat="45.81229" lon="1.88956">
        <ele>721.3</ele>
        <time>2026-07-07T13:03:33.000Z</time>
      </trkpt>
      <trkpt lat="45.81229" lon="1.88959">
        <ele>720.7</ele>
        <time>2026-07-07T13:03:34.000Z</time>
      </trkpt>
      <trkpt lat="45.8123" lon="1.88961">
        <ele>720.3</ele>
        <time>2026-07-07T13:03:35.000Z</time>
      </trkpt>
      <trkpt lat="45.81231" lon="1.88963">
        <ele>720.4</ele>
        <time>2026-07-07T13:03:36.000Z</time>
      </trkpt>
      <trkpt lat="45.81231" lon="1.88965">
        <ele>719.9</ele>
        <time>2026-07-07T13:03:37.000Z</time>
      </trkpt>
      <trkpt lat="45.81232" lon="1.88967">
        <ele>719.6</ele>
        <time>2026-07-07T13:03:38.000Z</time>
      </trkpt>
      <trkpt lat="45.81233" lon="1.88969">
        <ele>719.7</ele>
        <time>2026-07-07T13:03:39.000Z</time>
      </trkpt>
      <trkpt lat="45.81234" lon="1.88971">
        <ele>719.5</ele>
        <time>2026-07-07T13:03:40.000Z</time>
      </trkpt>
      <trkpt lat="45.81234" lon="1.88972">
        <ele>719.5</ele>
        <time>2026-07-07T13:03:41.000Z</time>
      </trkpt>
      <trkpt lat="45.81235" lon="1.88974">
        <ele>719.4</ele>
        <time>2026-07-07T13:03:42.000Z</time>
      </trkpt>
      <trkpt lat="45.81236" lon="1.88976">
        <ele>719</ele>
        <time>2026-07-07T13:03:43.000Z</time>
      </trkpt>
      <trkpt lat="45.81237" lon="1.88977">
        <ele>718.1</ele>
        <time>2026-07-07T13:03:44.000Z</time>
      </trkpt>
      <trkpt lat="45.81239" lon="1.88979">
        <ele>717.7</ele>
        <time>2026-07-07T13:03:45.000Z</time>
      </trkpt>
      <trkpt lat="45.8124" lon="1.8898">
        <ele>717.8</ele>
        <time>2026-07-07T13:03:46.000Z</time>
      </trkpt>
      <trkpt lat="45.81241" lon="1.88983">
        <ele>717.8</ele>
        <time>2026-07-07T13:03:47.000Z</time>
      </trkpt>
      <trkpt lat="45.81242" lon="1.88985">
        <ele>717.6</ele>
        <time>2026-07-07T13:03:48.000Z</time>
      </trkpt>
      <trkpt lat="45.81242" lon="1.88987">
        <ele>717.4</ele>
        <time>2026-07-07T13:03:49.000Z</time>
      </trkpt>
      <trkpt lat="45.81244" lon="1.88988">
        <ele>716.7</ele>
        <time>2026-07-07T13:03:50.000Z</time>
      </trkpt>
      <trkpt lat="45.81245" lon="1.8899">
        <ele>716.5</ele>
        <time>2026-07-07T13:03:51.000Z</time>
      </trkpt>
      <trkpt lat="45.81246" lon="1.88992">
        <ele>716.2</ele>
        <time>2026-07-07T13:03:52.000Z</time>
      </trkpt>
      <trkpt lat="45.81247" lon="1.88993">
        <ele>715.7</ele>
        <time>2026-07-07T13:03:53.000Z</time>
      </trkpt>
      <trkpt lat="45.81248" lon="1.88995">
        <ele>715.2</ele>
        <time>2026-07-07T13:03:54.000Z</time>
      </trkpt>
      <trkpt lat="45.81249" lon="1.88997">
        <ele>715</ele>
        <time>2026-07-07T13:03:55.000Z</time>
      </trkpt>
      <trkpt lat="45.8125" lon="1.88999">
        <ele>715</ele>
        <time>2026-07-07T13:03:56.000Z</time>
      </trkpt>
      <trkpt lat="45.81251" lon="1.89001">
        <ele>715</ele>
        <time>2026-07-07T13:03:57.000Z</time>
      </trkpt>
      <trkpt lat="45.81252" lon="1.89002">
        <ele>715.7</ele>
        <time>2026-07-07T13:03:58.000Z</time>
      </trkpt>
      <trkpt lat="45.81252" lon="1.89004">
        <ele>715.9</ele>
        <time>2026-07-07T13:03:59.000Z</time>
      </trkpt>
      <trkpt lat="45.81254" lon="1.89006">
        <ele>715.8</ele>
        <time>2026-07-07T13:04:00.000Z</time>
      </trkpt>
      <trkpt lat="45.81255" lon="1.89008">
        <ele>716.1</ele>
        <time>2026-07-07T13:04:01.000Z</time>
      </trkpt>
      <trkpt lat="45.81256" lon="1.8901">
        <ele>716.5</ele>
        <time>2026-07-07T13:04:02.000Z</time>
      </trkpt>
      <trkpt lat="45.81257" lon="1.89012">
        <ele>716.5</ele>
        <time>2026-07-07T13:04:03.000Z</time>
      </trkpt>
      <trkpt lat="45.81257" lon="1.89014">
        <ele>715.5</ele>
        <time>2026-07-07T13:04:04.000Z</time>
      </trkpt>
      <trkpt lat="45.81258" lon="1.89016">
        <ele>716</ele>
        <time>2026-07-07T13:04:05.000Z</time>
      </trkpt>
      <trkpt lat="45.8126" lon="1.89017">
        <ele>715.2</ele>
        <time>2026-07-07T13:04:06.000Z</time>
      </trkpt>
      <trkpt lat="45.81261" lon="1.89019">
        <ele>714.4</ele>
        <time>2026-07-07T13:04:07.000Z</time>
      </trkpt>
      <trkpt lat="45.81262" lon="1.89021">
        <ele>714.8</ele>
        <time>2026-07-07T13:04:08.000Z</time>
      </trkpt>
      <trkpt lat="45.81263" lon="1.89023">
        <ele>714.2</ele>
        <time>2026-07-07T13:04:09.000Z</time>
      </trkpt>
      <trkpt lat="45.81264" lon="1.89025">
        <ele>714.6</ele>
        <time>2026-07-07T13:04:10.000Z</time>
      </trkpt>
      <trkpt lat="45.81265" lon="1.89026">
        <ele>714.9</ele>
        <time>2026-07-07T13:04:11.000Z</time>
      </trkpt>
      <trkpt lat="45.81265" lon="1.89029">
        <ele>715.8</ele>
        <time>2026-07-07T13:04:12.000Z</time>
      </trkpt>
      <trkpt lat="45.81266" lon="1.89031">
        <ele>715</ele>
        <time>2026-07-07T13:04:13.000Z</time>
      </trkpt>
      <trkpt lat="45.81266" lon="1.89033">
        <ele>715.1</ele>
        <time>2026-07-07T13:04:14.000Z</time>
      </trkpt>
      <trkpt lat="45.81266" lon="1.89035">
        <ele>714.5</ele>
        <time>2026-07-07T13:04:15.000Z</time>
      </trkpt>
      <trkpt lat="45.81267" lon="1.89037">
        <ele>714.7</ele>
        <time>2026-07-07T13:04:16.000Z</time>
      </trkpt>
      <trkpt lat="45.81267" lon="1.89039">
        <ele>714.9</ele>
        <time>2026-07-07T13:04:17.000Z</time>
      </trkpt>
      <trkpt lat="45.81268" lon="1.8904">
        <ele>715.6</ele>
        <time>2026-07-07T13:04:18.000Z</time>
      </trkpt>
      <trkpt lat="45.81269" lon="1.89042">
        <ele>715</ele>
        <time>2026-07-07T13:04:19.000Z</time>
      </trkpt>
      <trkpt lat="45.8127" lon="1.89044">
        <ele>714.7</ele>
        <time>2026-07-07T13:04:20.000Z</time>
      </trkpt>
      <trkpt lat="45.81271" lon="1.89045">
        <ele>716.2</ele>
        <time>2026-07-07T13:04:21.000Z</time>
      </trkpt>
      <trkpt lat="45.81271" lon="1.89047">
        <ele>715.6</ele>
        <time>2026-07-07T13:04:22.000Z</time>
      </trkpt>
      <trkpt lat="45.81272" lon="1.89049">
        <ele>715.2</ele>
        <time>2026-07-07T13:04:23.000Z</time>
      </trkpt>
      <trkpt lat="45.81273" lon="1.89051">
        <ele>714.4</ele>
        <time>2026-07-07T13:04:24.000Z</time>
      </trkpt>
      <trkpt lat="45.81273" lon="1.89053">
        <ele>714.8</ele>
        <time>2026-07-07T13:04:25.000Z</time>
      </trkpt>
      <trkpt lat="45.81274" lon="1.89055">
        <ele>715.7</ele>
        <time>2026-07-07T13:04:26.000Z</time>
      </trkpt>
      <trkpt lat="45.81275" lon="1.89057">
        <ele>716.1</ele>
        <time>2026-07-07T13:04:27.000Z</time>
      </trkpt>
      <trkpt lat="45.81276" lon="1.89059">
        <ele>715.7</ele>
        <time>2026-07-07T13:04:28.000Z</time>
      </trkpt>
      <trkpt lat="45.81276" lon="1.89061">
        <ele>716</ele>
        <time>2026-07-07T13:04:29.000Z</time>
      </trkpt>
      <trkpt lat="45.81276" lon="1.89063">
        <ele>717.3</ele>
        <time>2026-07-07T13:04:30.000Z</time>
      </trkpt>
      <trkpt lat="45.81277" lon="1.89066">
        <ele>717.6</ele>
        <time>2026-07-07T13:04:31.000Z</time>
      </trkpt>
      <trkpt lat="45.81277" lon="1.89068">
        <ele>718.4</ele>
        <time>2026-07-07T13:04:32.000Z</time>
      </trkpt>
      <trkpt lat="45.81277" lon="1.8907">
        <ele>719.2</ele>
        <time>2026-07-07T13:04:33.000Z</time>
      </trkpt>
      <trkpt lat="45.81277" lon="1.89072">
        <ele>719.9</ele>
        <time>2026-07-07T13:04:34.000Z</time>
      </trkpt>
      <trkpt lat="45.81277" lon="1.89075">
        <ele>720.1</ele>
        <time>2026-07-07T13:04:35.000Z</time>
      </trkpt>
      <trkpt lat="45.81277" lon="1.89077">
        <ele>719.8</ele>
        <time>2026-07-07T13:04:36.000Z</time>
      </trkpt>
      <trkpt lat="45.81277" lon="1.89079">
        <ele>719.9</ele>
        <time>2026-07-07T13:04:37.000Z</time>
      </trkpt>
      <trkpt lat="45.81276" lon="1.89081">
        <ele>720.8</ele>
        <time>2026-07-07T13:04:38.000Z</time>
      </trkpt>
      <trkpt lat="45.81276" lon="1.89083">
        <ele>721</ele>
        <time>2026-07-07T13:04:39.000Z</time>
      </trkpt>
      <trkpt lat="45.81275" lon="1.89085">
        <ele>721.6</ele>
        <time>2026-07-07T13:04:40.000Z</time>
      </trkpt>
      <trkpt lat="45.81275" lon="1.89088">
        <ele>722.4</ele>
        <time>2026-07-07T13:04:41.000Z</time>
      </trkpt>
      <trkpt lat="45.81275" lon="1.8909">
        <ele>722.4</ele>
        <time>2026-07-07T13:04:42.000Z</time>
      </trkpt>
      <trkpt lat="45.81274" lon="1.89093">
        <ele>723</ele>
        <time>2026-07-07T13:04:43.000Z</time>
      </trkpt>
      <trkpt lat="45.81274" lon="1.89094">
        <ele>724.9</ele>
        <time>2026-07-07T13:04:44.000Z</time>
      </trkpt>
      <trkpt lat="45.81274" lon="1.89096">
        <ele>724.9</ele>
        <time>2026-07-07T13:04:45.000Z</time>
      </trkpt>
      <trkpt lat="45.81274" lon="1.89098">
        <ele>724.2</ele>
        <time>2026-07-07T13:04:46.000Z</time>
      </trkpt>
      <trkpt lat="45.81274" lon="1.891">
        <ele>724.5</ele>
        <time>2026-07-07T13:04:47.000Z</time>
      </trkpt>
      <trkpt lat="45.81273" lon="1.89102">
        <ele>724.4</ele>
        <time>2026-07-07T13:04:48.000Z</time>
      </trkpt>
      <trkpt lat="45.81272" lon="1.89105">
        <ele>725.2</ele>
        <time>2026-07-07T13:04:49.000Z</time>
      </trkpt>
      <trkpt lat="45.81272" lon="1.89108">
        <ele>725.8</ele>
        <time>2026-07-07T13:04:50.000Z</time>
      </trkpt>
      <trkpt lat="45.81271" lon="1.8911">
        <ele>725.7</ele>
        <time>2026-07-07T13:04:51.000Z</time>
      </trkpt>
      <trkpt lat="45.8127" lon="1.89112">
        <ele>726.5</ele>
        <time>2026-07-07T13:04:52.000Z</time>
      </trkpt>
      <trkpt lat="45.81269" lon="1.89115">
        <ele>726.5</ele>
        <time>2026-07-07T13:04:53.000Z</time>
      </trkpt>
      <trkpt lat="45.81269" lon="1.89117">
        <ele>725.9</ele>
        <time>2026-07-07T13:04:54.000Z</time>
      </trkpt>
      <trkpt lat="45.81268" lon="1.89119">
        <ele>726.2</ele>
        <time>2026-07-07T13:04:55.000Z</time>
      </trkpt>
      <trkpt lat="45.81268" lon="1.89121">
        <ele>726.3</ele>
        <time>2026-07-07T13:04:56.000Z</time>
      </trkpt>
      <trkpt lat="45.81267" lon="1.89124">
        <ele>724.6</ele>
        <time>2026-07-07T13:04:57.000Z</time>
      </trkpt>
      <trkpt lat="45.81266" lon="1.89126">
        <ele>724.2</ele>
        <time>2026-07-07T13:04:58.000Z</time>
      </trkpt>
      <trkpt lat="45.81263" lon="1.89127">
        <ele>724.7</ele>
        <time>2026-07-07T13:04:59.000Z</time>
      </trkpt>
      <trkpt lat="45.81264" lon="1.89132">
        <ele>723.7</ele>
        <time>2026-07-07T13:05:00.000Z</time>
      </trkpt>
      <trkpt lat="45.81262" lon="1.89135">
        <ele>723.8</ele>
        <time>2026-07-07T13:05:01.000Z</time>
      </trkpt>
      <trkpt lat="45.81262" lon="1.89137">
        <ele>722.9</ele>
        <time>2026-07-07T13:05:02.000Z</time>
      </trkpt>
      <trkpt lat="45.81261" lon="1.89139">
        <ele>722.9</ele>
        <time>2026-07-07T13:05:03.000Z</time>
      </trkpt>
      <trkpt lat="45.8126" lon="1.8914">
        <ele>723.4</ele>
        <time>2026-07-07T13:05:04.000Z</time>
      </trkpt>
      <trkpt lat="45.81259" lon="1.89142">
        <ele>723.5</ele>
        <time>2026-07-07T13:05:05.000Z</time>
      </trkpt>
      <trkpt lat="45.81258" lon="1.89144">
        <ele>723.6</ele>
        <time>2026-07-07T13:05:06.000Z</time>
      </trkpt>
      <trkpt lat="45.81257" lon="1.89146">
        <ele>723.6</ele>
        <time>2026-07-07T13:05:07.000Z</time>
      </trkpt>
      <trkpt lat="45.81256" lon="1.89148">
        <ele>723.7</ele>
        <time>2026-07-07T13:05:08.000Z</time>
      </trkpt>
      <trkpt lat="45.81254" lon="1.8915">
        <ele>724</ele>
        <time>2026-07-07T13:05:09.000Z</time>
      </trkpt>
      <trkpt lat="45.81253" lon="1.89152">
        <ele>723.9</ele>
        <time>2026-07-07T13:05:10.000Z</time>
      </trkpt>
      <trkpt lat="45.81252" lon="1.89154">
        <ele>723.3</ele>
        <time>2026-07-07T13:05:11.000Z</time>
      </trkpt>
      <trkpt lat="45.81251" lon="1.89155">
        <ele>723.1</ele>
        <time>2026-07-07T13:05:12.000Z</time>
      </trkpt>
      <trkpt lat="45.8125" lon="1.89157">
        <ele>722.8</ele>
        <time>2026-07-07T13:05:13.000Z</time>
      </trkpt>
      <trkpt lat="45.81249" lon="1.89159">
        <ele>723.7</ele>
        <time>2026-07-07T13:05:14.000Z</time>
      </trkpt>
      <trkpt lat="45.81249" lon="1.8916">
        <ele>724</ele>
        <time>2026-07-07T13:05:15.000Z</time>
      </trkpt>
      <trkpt lat="45.81248" lon="1.89162">
        <ele>723.6</ele>
        <time>2026-07-07T13:05:16.000Z</time>
      </trkpt>
      <trkpt lat="45.81247" lon="1.89163">
        <ele>722.1</ele>
        <time>2026-07-07T13:05:17.000Z</time>
      </trkpt>
      <trkpt lat="45.81249" lon="1.89159">
        <ele>722.6</ele>
        <time>2026-07-07T13:05:18.000Z</time>
      </trkpt>
      <trkpt lat="45.81249" lon="1.89159">
        <ele>724</ele>
        <time>2026-07-07T13:05:19.000Z</time>
      </trkpt>
      <trkpt lat="45.81249" lon="1.89158">
        <ele>723.9</ele>
        <time>2026-07-07T13:05:20.000Z</time>
      </trkpt>
      <trkpt lat="45.81249" lon="1.89158">
        <ele>723.9</ele>
        <time>2026-07-07T13:05:21.000Z</time>
      </trkpt>
      <trkpt lat="45.81249" lon="1.89157">
        <ele>724.8</ele>
        <time>2026-07-07T13:05:22.000Z</time>
      </trkpt>
      <trkpt lat="45.81249" lon="1.89158">
        <ele>725.5</ele>
        <time>2026-07-07T13:05:23.000Z</time>
      </trkpt>
      <trkpt lat="45.81248" lon="1.89158">
        <ele>725.5</ele>
        <time>2026-07-07T13:05:24.000Z</time>
      </trkpt>
      <trkpt lat="45.81248" lon="1.89158">
        <ele>726.6</ele>
        <time>2026-07-07T13:05:25.000Z</time>
      </trkpt>
      <trkpt lat="45.81248" lon="1.89158">
        <ele>726.6</ele>
        <time>2026-07-07T13:05:26.000Z</time>
      </trkpt>
      <trkpt lat="45.81248" lon="1.89158">
        <ele>726.7</ele>
        <time>2026-07-07T13:05:27.000Z</time>
      </trkpt>
      <trkpt lat="45.81248" lon="1.89159">
        <ele>726.8</ele>
        <time>2026-07-07T13:05:28.000Z</time>
      </trkpt>
      <trkpt lat="45.81248" lon="1.89159">
        <ele>726.7</ele>
        <time>2026-07-07T13:05:29.000Z</time>
      </trkpt>
      <trkpt lat="45.81248" lon="1.89159">
        <ele>726.7</ele>
        <time>2026-07-07T13:05:30.000Z</time>
      </trkpt>
      <trkpt lat="45.81248" lon="1.89159">
        <ele>727.1</ele>
        <time>2026-07-07T13:05:31.000Z</time>
      </trkpt>
      <trkpt lat="45.81248" lon="1.8916">
        <ele>727</ele>
        <time>2026-07-07T13:05:32.000Z</time>
      </trkpt>
      <trkpt lat="45.81248" lon="1.8916">
        <ele>727</ele>
        <time>2026-07-07T13:05:33.000Z</time>
      </trkpt>
      <trkpt lat="45.81248" lon="1.8916">
        <ele>727</ele>
        <time>2026-07-07T13:05:34.000Z</time>
      </trkpt>
      <trkpt lat="45.81248" lon="1.8916">
        <ele>727</ele>
        <time>2026-07-07T13:05:35.000Z</time>
      </trkpt>
      <trkpt lat="45.81248" lon="1.8916">
        <ele>727</ele>
        <time>2026-07-07T13:05:36.000Z</time>
      </trkpt>
      <trkpt lat="45.81248" lon="1.8916">
        <ele>727</ele>
        <time>2026-07-07T13:05:37.000Z</time>
      </trkpt>
      <trkpt lat="45.81248" lon="1.8916">
        <ele>727.1</ele>
        <time>2026-07-07T13:05:38.000Z</time>
      </trkpt>
      <trkpt lat="45.81248" lon="1.8916">
        <ele>727.1</ele>
        <time>2026-07-07T13:05:39.000Z</time>
      </trkpt>
      <trkpt lat="45.81248" lon="1.8916">
        <ele>727.1</ele>
        <time>2026-07-07T13:05:40.000Z</time>
      </trkpt>
      <trkpt lat="45.81248" lon="1.8916">
        <ele>727.1</ele>
        <time>2026-07-07T13:05:41.000Z</time>
      </trkpt>
      <trkpt lat="45.81248" lon="1.8916">
        <ele>727.1</ele>
        <time>2026-07-07T13:05:42.000Z</time>
      </trkpt>
      <trkpt lat="45.81248" lon="1.89159">
        <ele>727.1</ele>
        <time>2026-07-07T13:05:43.000Z</time>
      </trkpt>
      <trkpt lat="45.81247" lon="1.89159">
        <ele>726.4</ele>
        <time>2026-07-07T13:05:44.000Z</time>
      </trkpt>
      <trkpt lat="45.81247" lon="1.89158">
        <ele>726.6</ele>
        <time>2026-07-07T13:05:45.000Z</time>
      </trkpt>
      <trkpt lat="45.81248" lon="1.89158">
        <ele>726.3</ele>
        <time>2026-07-07T13:05:46.000Z</time>
      </trkpt>
      <trkpt lat="45.81248" lon="1.89158">
        <ele>726.2</ele>
        <time>2026-07-07T13:05:47.000Z</time>
      </trkpt>
      <trkpt lat="45.81247" lon="1.89158">
        <ele>725.5</ele>
        <time>2026-07-07T13:05:48.000Z</time>
      </trkpt>
      <trkpt lat="45.81246" lon="1.89157">
        <ele>727.6</ele>
        <time>2026-07-07T13:05:49.000Z</time>
      </trkpt>
      <trkpt lat="45.81244" lon="1.89155">
        <ele>727.2</ele>
        <time>2026-07-07T13:05:50.000Z</time>
      </trkpt>
      <trkpt lat="45.81243" lon="1.89154">
        <ele>727.1</ele>
        <time>2026-07-07T13:05:51.000Z</time>
      </trkpt>
      <trkpt lat="45.8124" lon="1.89154">
        <ele>726</ele>
        <time>2026-07-07T13:05:52.000Z</time>
      </trkpt>
      <trkpt lat="45.81238" lon="1.89154">
        <ele>725.9</ele>
        <time>2026-07-07T13:05:53.000Z</time>
      </trkpt>
      <trkpt lat="45.81236" lon="1.89154">
        <ele>725.9</ele>
        <time>2026-07-07T13:05:54.000Z</time>
      </trkpt>
      <trkpt lat="45.81234" lon="1.89153">
        <ele>725.8</ele>
        <time>2026-07-07T13:05:55.000Z</time>
      </trkpt>
      <trkpt lat="45.81233" lon="1.89154">
        <ele>725.3</ele>
        <time>2026-07-07T13:05:56.000Z</time>
      </trkpt>
      <trkpt lat="45.81232" lon="1.89154">
        <ele>724.8</ele>
        <time>2026-07-07T13:05:57.000Z</time>
      </trkpt>
      <trkpt lat="45.8123" lon="1.89155">
        <ele>724.7</ele>
        <time>2026-07-07T13:05:58.000Z</time>
      </trkpt>
      <trkpt lat="45.81229" lon="1.89155">
        <ele>724.7</ele>
        <time>2026-07-07T13:05:59.000Z</time>
      </trkpt>
      <trkpt lat="45.81228" lon="1.89156">
        <ele>723.9</ele>
        <time>2026-07-07T13:06:00.000Z</time>
      </trkpt>
      <trkpt lat="45.81227" lon="1.89157">
        <ele>723.9</ele>
        <time>2026-07-07T13:06:01.000Z</time>
      </trkpt>
      <trkpt lat="45.81227" lon="1.89158">
        <ele>724.3</ele>
        <time>2026-07-07T13:06:02.000Z</time>
      </trkpt>
      <trkpt lat="45.81226" lon="1.89159">
        <ele>724.2</ele>
        <time>2026-07-07T13:06:03.000Z</time>
      </trkpt>
      <trkpt lat="45.81225" lon="1.8916">
        <ele>724.1</ele>
        <time>2026-07-07T13:06:04.000Z</time>
      </trkpt>
      <trkpt lat="45.81224" lon="1.8916">
        <ele>724.2</ele>
        <time>2026-07-07T13:06:05.000Z</time>
      </trkpt>
      <trkpt lat="45.81223" lon="1.89161">
        <ele>724.1</ele>
        <time>2026-07-07T13:06:06.000Z</time>
      </trkpt>
      <trkpt lat="45.81222" lon="1.89162">
        <ele>724.2</ele>
        <time>2026-07-07T13:06:07.000Z</time>
      </trkpt>
      <trkpt lat="45.81222" lon="1.89163">
        <ele>724.6</ele>
        <time>2026-07-07T13:06:08.000Z</time>
      </trkpt>
      <trkpt lat="45.8122" lon="1.89163">
        <ele>724.7</ele>
        <time>2026-07-07T13:06:09.000Z</time>
      </trkpt>
      <trkpt lat="45.81219" lon="1.89163">
        <ele>724.8</ele>
        <time>2026-07-07T13:06:10.000Z</time>
      </trkpt>
      <trkpt lat="45.81217" lon="1.89163">
        <ele>724.4</ele>
        <time>2026-07-07T13:06:11.000Z</time>
      </trkpt>
      <trkpt lat="45.81214" lon="1.89163">
        <ele>723.8</ele>
        <time>2026-07-07T13:06:12.000Z</time>
      </trkpt>
      <trkpt lat="45.81212" lon="1.89164">
        <ele>724</ele>
        <time>2026-07-07T13:06:13.000Z</time>
      </trkpt>
      <trkpt lat="45.8121" lon="1.89164">
        <ele>723.7</ele>
        <time>2026-07-07T13:06:14.000Z</time>
      </trkpt>
      <trkpt lat="45.81208" lon="1.89165">
        <ele>723.5</ele>
        <time>2026-07-07T13:06:15.000Z</time>
      </trkpt>
      <trkpt lat="45.81207" lon="1.89166">
        <ele>721.3</ele>
        <time>2026-07-07T13:06:16.000Z</time>
      </trkpt>
      <trkpt lat="45.81206" lon="1.89166">
        <ele>720.8</ele>
        <time>2026-07-07T13:06:17.000Z</time>
      </trkpt>
      <trkpt lat="45.81204" lon="1.89167">
        <ele>720.7</ele>
        <time>2026-07-07T13:06:18.000Z</time>
      </trkpt>
      <trkpt lat="45.81203" lon="1.89168">
        <ele>721.7</ele>
        <time>2026-07-07T13:06:19.000Z</time>
      </trkpt>
      <trkpt lat="45.81202" lon="1.89168">
        <ele>721.5</ele>
        <time>2026-07-07T13:06:20.000Z</time>
      </trkpt>
      <trkpt lat="45.812" lon="1.89168">
        <ele>721.3</ele>
        <time>2026-07-07T13:06:21.000Z</time>
      </trkpt>
      <trkpt lat="45.81199" lon="1.89169">
        <ele>718.3</ele>
        <time>2026-07-07T13:06:22.000Z</time>
      </trkpt>
      <trkpt lat="45.81197" lon="1.89169">
        <ele>716.4</ele>
        <time>2026-07-07T13:06:23.000Z</time>
      </trkpt>
      <trkpt lat="45.81195" lon="1.89169">
        <ele>716.8</ele>
        <time>2026-07-07T13:06:24.000Z</time>
      </trkpt>
      <trkpt lat="45.81192" lon="1.89169">
        <ele>716.7</ele>
        <time>2026-07-07T13:06:25.000Z</time>
      </trkpt>
      <trkpt lat="45.81192" lon="1.89169">
        <ele>714.7</ele>
        <time>2026-07-07T13:06:26.000Z</time>
      </trkpt>
      <trkpt lat="45.8119" lon="1.89169">
        <ele>713.9</ele>
        <time>2026-07-07T13:06:27.000Z</time>
      </trkpt>
      <trkpt lat="45.81189" lon="1.89169">
        <ele>713.4</ele>
        <time>2026-07-07T13:06:28.000Z</time>
      </trkpt>
      <trkpt lat="45.81187" lon="1.89169">
        <ele>712.5</ele>
        <time>2026-07-07T13:06:29.000Z</time>
      </trkpt>
      <trkpt lat="45.81186" lon="1.8917">
        <ele>712.6</ele>
        <time>2026-07-07T13:06:30.000Z</time>
      </trkpt>
      <trkpt lat="45.81184" lon="1.8917">
        <ele>712.7</ele>
        <time>2026-07-07T13:06:31.000Z</time>
      </trkpt>
      <trkpt lat="45.81182" lon="1.8917">
        <ele>713.8</ele>
        <time>2026-07-07T13:06:32.000Z</time>
      </trkpt>
      <trkpt lat="45.81181" lon="1.89171">
        <ele>712.7</ele>
        <time>2026-07-07T13:06:33.000Z</time>
      </trkpt>
      <trkpt lat="45.8118" lon="1.89172">
        <ele>711.8</ele>
        <time>2026-07-07T13:06:34.000Z</time>
      </trkpt>
      <trkpt lat="45.81178" lon="1.89173">
        <ele>711.6</ele>
        <time>2026-07-07T13:06:35.000Z</time>
      </trkpt>
      <trkpt lat="45.81177" lon="1.89175">
        <ele>711.5</ele>
        <time>2026-07-07T13:06:36.000Z</time>
      </trkpt>
      <trkpt lat="45.81176" lon="1.89177">
        <ele>711</ele>
        <time>2026-07-07T13:06:37.000Z</time>
      </trkpt>
      <trkpt lat="45.81175" lon="1.89179">
        <ele>711.3</ele>
        <time>2026-07-07T13:06:38.000Z</time>
      </trkpt>
      <trkpt lat="45.81173" lon="1.89181">
        <ele>711.3</ele>
        <time>2026-07-07T13:06:39.000Z</time>
      </trkpt>
      <trkpt lat="45.81173" lon="1.89183">
        <ele>711.2</ele>
        <time>2026-07-07T13:06:40.000Z</time>
      </trkpt>
      <trkpt lat="45.81171" lon="1.89185">
        <ele>711.4</ele>
        <time>2026-07-07T13:06:41.000Z</time>
      </trkpt>
      <trkpt lat="45.81171" lon="1.89187">
        <ele>710.5</ele>
        <time>2026-07-07T13:06:42.000Z</time>
      </trkpt>
      <trkpt lat="45.8117" lon="1.89189">
        <ele>710</ele>
        <time>2026-07-07T13:06:43.000Z</time>
      </trkpt>
      <trkpt lat="45.81169" lon="1.89192">
        <ele>710.4</ele>
        <time>2026-07-07T13:06:44.000Z</time>
      </trkpt>
      <trkpt lat="45.81168" lon="1.89194">
        <ele>709.8</ele>
        <time>2026-07-07T13:06:45.000Z</time>
      </trkpt>
      <trkpt lat="45.81167" lon="1.89196">
        <ele>709.5</ele>
        <time>2026-07-07T13:06:46.000Z</time>
      </trkpt>
      <trkpt lat="45.81165" lon="1.89198">
        <ele>709.5</ele>
        <time>2026-07-07T13:06:47.000Z</time>
      </trkpt>
      <trkpt lat="45.81164" lon="1.892">
        <ele>709.2</ele>
        <time>2026-07-07T13:06:48.000Z</time>
      </trkpt>
      <trkpt lat="45.81163" lon="1.89202">
        <ele>709.3</ele>
        <time>2026-07-07T13:06:49.000Z</time>
      </trkpt>
      <trkpt lat="45.81162" lon="1.89204">
        <ele>709.2</ele>
        <time>2026-07-07T13:06:50.000Z</time>
      </trkpt>
      <trkpt lat="45.81161" lon="1.89206">
        <ele>708.8</ele>
        <time>2026-07-07T13:06:51.000Z</time>
      </trkpt>
      <trkpt lat="45.8116" lon="1.89208">
        <ele>709</ele>
        <time>2026-07-07T13:06:52.000Z</time>
      </trkpt>
      <trkpt lat="45.81159" lon="1.8921">
        <ele>710.2</ele>
        <time>2026-07-07T13:06:53.000Z</time>
      </trkpt>
      <trkpt lat="45.81164" lon="1.89213">
        <ele>710.3</ele>
        <time>2026-07-07T13:06:54.000Z</time>
      </trkpt>
      <trkpt lat="45.81167" lon="1.89214">
        <ele>709.6</ele>
        <time>2026-07-07T13:06:55.000Z</time>
      </trkpt>
      <trkpt lat="45.81165" lon="1.89217">
        <ele>708.8</ele>
        <time>2026-07-07T13:06:56.000Z</time>
      </trkpt>
      <trkpt lat="45.81164" lon="1.89219">
        <ele>708.6</ele>
        <time>2026-07-07T13:06:57.000Z</time>
      </trkpt>
      <trkpt lat="45.81162" lon="1.89221">
        <ele>708.7</ele>
        <time>2026-07-07T13:06:58.000Z</time>
      </trkpt>
      <trkpt lat="45.8116" lon="1.89222">
        <ele>708.3</ele>
        <time>2026-07-07T13:06:59.000Z</time>
      </trkpt>
      <trkpt lat="45.81158" lon="1.89224">
        <ele>707.6</ele>
        <time>2026-07-07T13:07:00.000Z</time>
      </trkpt>
      <trkpt lat="45.81157" lon="1.89224">
        <ele>707.4</ele>
        <time>2026-07-07T13:07:01.000Z</time>
      </trkpt>
      <trkpt lat="45.81155" lon="1.89225">
        <ele>707.8</ele>
        <time>2026-07-07T13:07:02.000Z</time>
      </trkpt>
      <trkpt lat="45.81154" lon="1.89226">
        <ele>706</ele>
        <time>2026-07-07T13:07:03.000Z</time>
      </trkpt>
      <trkpt lat="45.81152" lon="1.89227">
        <ele>705.8</ele>
        <time>2026-07-07T13:07:04.000Z</time>
      </trkpt>
      <trkpt lat="45.81151" lon="1.89228">
        <ele>706.2</ele>
        <time>2026-07-07T13:07:05.000Z</time>
      </trkpt>
      <trkpt lat="45.8115" lon="1.8923">
        <ele>706.2</ele>
        <time>2026-07-07T13:07:06.000Z</time>
      </trkpt>
      <trkpt lat="45.81148" lon="1.89232">
        <ele>707</ele>
        <time>2026-07-07T13:07:07.000Z</time>
      </trkpt>
      <trkpt lat="45.81147" lon="1.89235">
        <ele>707.7</ele>
        <time>2026-07-07T13:07:08.000Z</time>
      </trkpt>
      <trkpt lat="45.81146" lon="1.89237">
        <ele>707.8</ele>
        <time>2026-07-07T13:07:09.000Z</time>
      </trkpt>
      <trkpt lat="45.81145" lon="1.89239">
        <ele>709.1</ele>
        <time>2026-07-07T13:07:10.000Z</time>
      </trkpt>
      <trkpt lat="45.81144" lon="1.89241">
        <ele>709.8</ele>
        <time>2026-07-07T13:07:11.000Z</time>
      </trkpt>
      <trkpt lat="45.81143" lon="1.89243">
        <ele>708.9</ele>
        <time>2026-07-07T13:07:12.000Z</time>
      </trkpt>
      <trkpt lat="45.81141" lon="1.89245">
        <ele>708.1</ele>
        <time>2026-07-07T13:07:13.000Z</time>
      </trkpt>
      <trkpt lat="45.8114" lon="1.89246">
        <ele>708.7</ele>
        <time>2026-07-07T13:07:14.000Z</time>
      </trkpt>
      <trkpt lat="45.81139" lon="1.89248">
        <ele>709.8</ele>
        <time>2026-07-07T13:07:15.000Z</time>
      </trkpt>
      <trkpt lat="45.8114" lon="1.89251">
        <ele>710.4</ele>
        <time>2026-07-07T13:07:16.000Z</time>
      </trkpt>
      <trkpt lat="45.81137" lon="1.89252">
        <ele>711.1</ele>
        <time>2026-07-07T13:07:17.000Z</time>
      </trkpt>
      <trkpt lat="45.81136" lon="1.89254">
        <ele>710.9</ele>
        <time>2026-07-07T13:07:18.000Z</time>
      </trkpt>
      <trkpt lat="45.81137" lon="1.89254">
        <ele>711.5</ele>
        <time>2026-07-07T13:07:19.000Z</time>
      </trkpt>
      <trkpt lat="45.81137" lon="1.89255">
        <ele>712</ele>
        <time>2026-07-07T13:07:20.000Z</time>
      </trkpt>
      <trkpt lat="45.81137" lon="1.89257">
        <ele>712.3</ele>
        <time>2026-07-07T13:07:21.000Z</time>
      </trkpt>
      <trkpt lat="45.81135" lon="1.89264">
        <ele>713.1</ele>
        <time>2026-07-07T13:07:22.000Z</time>
      </trkpt>
      <trkpt lat="45.81134" lon="1.89272">
        <ele>713.6</ele>
        <time>2026-07-07T13:07:23.000Z</time>
      </trkpt>
      <trkpt lat="45.81134" lon="1.8927">
        <ele>715.9</ele>
        <time>2026-07-07T13:07:24.000Z</time>
      </trkpt>
      <trkpt lat="45.81135" lon="1.89271">
        <ele>716.6</ele>
        <time>2026-07-07T13:07:25.000Z</time>
      </trkpt>
      <trkpt lat="45.81135" lon="1.89272">
        <ele>716.2</ele>
        <time>2026-07-07T13:07:26.000Z</time>
      </trkpt>
      <trkpt lat="45.81136" lon="1.89274">
        <ele>715.4</ele>
        <time>2026-07-07T13:07:27.000Z</time>
      </trkpt>
      <trkpt lat="45.81137" lon="1.89276">
        <ele>714.7</ele>
        <time>2026-07-07T13:07:28.000Z</time>
      </trkpt>
      <trkpt lat="45.81138" lon="1.89276">
        <ele>713.5</ele>
        <time>2026-07-07T13:07:29.000Z</time>
      </trkpt>
      <trkpt lat="45.81139" lon="1.89277">
        <ele>713.5</ele>
        <time>2026-07-07T13:07:30.000Z</time>
      </trkpt>
      <trkpt lat="45.8114" lon="1.89278">
        <ele>713.5</ele>
        <time>2026-07-07T13:07:31.000Z</time>
      </trkpt>
      <trkpt lat="45.81142" lon="1.89279">
        <ele>713.7</ele>
        <time>2026-07-07T13:07:32.000Z</time>
      </trkpt>
      <trkpt lat="45.81144" lon="1.89279">
        <ele>713.5</ele>
        <time>2026-07-07T13:07:33.000Z</time>
      </trkpt>
      <trkpt lat="45.81146" lon="1.8928">
        <ele>712.7</ele>
        <time>2026-07-07T13:07:34.000Z</time>
      </trkpt>
      <trkpt lat="45.81147" lon="1.89281">
        <ele>712.5</ele>
        <time>2026-07-07T13:07:35.000Z</time>
      </trkpt>
      <trkpt lat="45.81148" lon="1.89282">
        <ele>713</ele>
        <time>2026-07-07T13:07:36.000Z</time>
      </trkpt>
      <trkpt lat="45.81149" lon="1.89285">
        <ele>712.8</ele>
        <time>2026-07-07T13:07:37.000Z</time>
      </trkpt>
      <trkpt lat="45.8115" lon="1.89287">
        <ele>712.8</ele>
        <time>2026-07-07T13:07:38.000Z</time>
      </trkpt>
      <trkpt lat="45.81151" lon="1.89289">
        <ele>714.2</ele>
        <time>2026-07-07T13:07:39.000Z</time>
      </trkpt>
      <trkpt lat="45.81152" lon="1.8929">
        <ele>713.5</ele>
        <time>2026-07-07T13:07:40.000Z</time>
      </trkpt>
      <trkpt lat="45.81152" lon="1.89292">
        <ele>714</ele>
        <time>2026-07-07T13:07:41.000Z</time>
      </trkpt>
      <trkpt lat="45.81154" lon="1.89293">
        <ele>714</ele>
        <time>2026-07-07T13:07:42.000Z</time>
      </trkpt>
      <trkpt lat="45.81154" lon="1.89295">
        <ele>713.8</ele>
        <time>2026-07-07T13:07:43.000Z</time>
      </trkpt>
      <trkpt lat="45.81155" lon="1.89296">
        <ele>713.5</ele>
        <time>2026-07-07T13:07:44.000Z</time>
      </trkpt>
      <trkpt lat="45.81156" lon="1.89298">
        <ele>713.3</ele>
        <time>2026-07-07T13:07:45.000Z</time>
      </trkpt>
      <trkpt lat="45.81157" lon="1.893">
        <ele>713.6</ele>
        <time>2026-07-07T13:07:46.000Z</time>
      </trkpt>
      <trkpt lat="45.81157" lon="1.89301">
        <ele>713.2</ele>
        <time>2026-07-07T13:07:47.000Z</time>
      </trkpt>
      <trkpt lat="45.81158" lon="1.89303">
        <ele>712.9</ele>
        <time>2026-07-07T13:07:48.000Z</time>
      </trkpt>
      <trkpt lat="45.81158" lon="1.89306">
        <ele>712.2</ele>
        <time>2026-07-07T13:07:49.000Z</time>
      </trkpt>
      <trkpt lat="45.81158" lon="1.89309">
        <ele>712.4</ele>
        <time>2026-07-07T13:07:50.000Z</time>
      </trkpt>
      <trkpt lat="45.81159" lon="1.8931">
        <ele>712.6</ele>
        <time>2026-07-07T13:07:51.000Z</time>
      </trkpt>
      <trkpt lat="45.8116" lon="1.89313">
        <ele>713.7</ele>
        <time>2026-07-07T13:07:52.000Z</time>
      </trkpt>
      <trkpt lat="45.8116" lon="1.89313">
        <ele>713</ele>
        <time>2026-07-07T13:07:53.000Z</time>
      </trkpt>
      <trkpt lat="45.8116" lon="1.89313">
        <ele>713</ele>
        <time>2026-07-07T13:07:54.000Z</time>
      </trkpt>
      <trkpt lat="45.81159" lon="1.89314">
        <ele>713</ele>
        <time>2026-07-07T13:07:55.000Z</time>
      </trkpt>
      <trkpt lat="45.81158" lon="1.89317">
        <ele>711.8</ele>
        <time>2026-07-07T13:07:56.000Z</time>
      </trkpt>
      <trkpt lat="45.81158" lon="1.89319">
        <ele>712.7</ele>
        <time>2026-07-07T13:07:57.000Z</time>
      </trkpt>
      <trkpt lat="45.81158" lon="1.89321">
        <ele>712.9</ele>
        <time>2026-07-07T13:07:58.000Z</time>
      </trkpt>
      <trkpt lat="45.81158" lon="1.89322">
        <ele>712.3</ele>
        <time>2026-07-07T13:07:59.000Z</time>
      </trkpt>
      <trkpt lat="45.81157" lon="1.89323">
        <ele>710.7</ele>
        <time>2026-07-07T13:08:00.000Z</time>
      </trkpt>
      <trkpt lat="45.81157" lon="1.89324">
        <ele>710.6</ele>
        <time>2026-07-07T13:08:01.000Z</time>
      </trkpt>
      <trkpt lat="45.81156" lon="1.89324">
        <ele>709.4</ele>
        <time>2026-07-07T13:08:02.000Z</time>
      </trkpt>
      <trkpt lat="45.81154" lon="1.89324">
        <ele>708.6</ele>
        <time>2026-07-07T13:08:03.000Z</time>
      </trkpt>
      <trkpt lat="45.81153" lon="1.89323">
        <ele>707.4</ele>
        <time>2026-07-07T13:08:04.000Z</time>
      </trkpt>
      <trkpt lat="45.81152" lon="1.89322">
        <ele>707.1</ele>
        <time>2026-07-07T13:08:05.000Z</time>
      </trkpt>
      <trkpt lat="45.81152" lon="1.89322">
        <ele>707</ele>
        <time>2026-07-07T13:08:06.000Z</time>
      </trkpt>
      <trkpt lat="45.81152" lon="1.89321">
        <ele>707.2</ele>
        <time>2026-07-07T13:08:07.000Z</time>
      </trkpt>
      <trkpt lat="45.81151" lon="1.8932">
        <ele>706.7</ele>
        <time>2026-07-07T13:08:08.000Z</time>
      </trkpt>
      <trkpt lat="45.8115" lon="1.89318">
        <ele>706.1</ele>
        <time>2026-07-07T13:08:09.000Z</time>
      </trkpt>
      <trkpt lat="45.8115" lon="1.89318">
        <ele>706</ele>
        <time>2026-07-07T13:08:10.000Z</time>
      </trkpt>
      <trkpt lat="45.8115" lon="1.89317">
        <ele>707</ele>
        <time>2026-07-07T13:08:11.000Z</time>
      </trkpt>
      <trkpt lat="45.8115" lon="1.89315">
        <ele>706.9</ele>
        <time>2026-07-07T13:08:12.000Z</time>
      </trkpt>
      <trkpt lat="45.81152" lon="1.89315">
        <ele>706.9</ele>
        <time>2026-07-07T13:08:13.000Z</time>
      </trkpt>
      <trkpt lat="45.81155" lon="1.89316">
        <ele>705.5</ele>
        <time>2026-07-07T13:08:14.000Z</time>
      </trkpt>
      <trkpt lat="45.81157" lon="1.89316">
        <ele>705.7</ele>
        <time>2026-07-07T13:08:15.000Z</time>
      </trkpt>
      <trkpt lat="45.81156" lon="1.89317">
        <ele>704.9</ele>
        <time>2026-07-07T13:08:16.000Z</time>
      </trkpt>
      <trkpt lat="45.81155" lon="1.89318">
        <ele>705</ele>
        <time>2026-07-07T13:08:17.000Z</time>
      </trkpt>
      <trkpt lat="45.81155" lon="1.89318">
        <ele>705</ele>
        <time>2026-07-07T13:08:18.000Z</time>
      </trkpt>
      <trkpt lat="45.81156" lon="1.89318">
        <ele>705.1</ele>
        <time>2026-07-07T13:08:19.000Z</time>
      </trkpt>
      <trkpt lat="45.81156" lon="1.89318">
        <ele>705.2</ele>
        <time>2026-07-07T13:08:20.000Z</time>
      </trkpt>
      <trkpt lat="45.81156" lon="1.89318">
        <ele>705.2</ele>
        <time>2026-07-07T13:08:21.000Z</time>
      </trkpt>
      <trkpt lat="45.81156" lon="1.89317">
        <ele>705.3</ele>
        <time>2026-07-07T13:08:22.000Z</time>
      </trkpt>
      <trkpt lat="45.81155" lon="1.89317">
        <ele>705.1</ele>
        <time>2026-07-07T13:08:23.000Z</time>
      </trkpt>
      <trkpt lat="45.81155" lon="1.89318">
        <ele>705.2</ele>
        <time>2026-07-07T13:08:24.000Z</time>
      </trkpt>
      <trkpt lat="45.81154" lon="1.89318">
        <ele>704.4</ele>
        <time>2026-07-07T13:08:25.000Z</time>
      </trkpt>
      <trkpt lat="45.81152" lon="1.89319">
        <ele>703.9</ele>
        <time>2026-07-07T13:08:26.000Z</time>
      </trkpt>
      <trkpt lat="45.81152" lon="1.89319">
        <ele>706.5</ele>
        <time>2026-07-07T13:08:27.000Z</time>
      </trkpt>
      <trkpt lat="45.8115" lon="1.89319">
        <ele>706.9</ele>
        <time>2026-07-07T13:08:28.000Z</time>
      </trkpt>
      <trkpt lat="45.81149" lon="1.89318">
        <ele>707.3</ele>
        <time>2026-07-07T13:08:29.000Z</time>
      </trkpt>
      <trkpt lat="45.81148" lon="1.89317">
        <ele>709</ele>
        <time>2026-07-07T13:08:30.000Z</time>
      </trkpt>
      <trkpt lat="45.81148" lon="1.89317">
        <ele>709.4</ele>
        <time>2026-07-07T13:08:31.000Z</time>
      </trkpt>
      <trkpt lat="45.81146" lon="1.89317">
        <ele>709.1</ele>
        <time>2026-07-07T13:08:32.000Z</time>
      </trkpt>
      <trkpt lat="45.81146" lon="1.89316">
        <ele>711.1</ele>
        <time>2026-07-07T13:08:33.000Z</time>
      </trkpt>
      <trkpt lat="45.81145" lon="1.89314">
        <ele>711.3</ele>
        <time>2026-07-07T13:08:34.000Z</time>
      </trkpt>
      <trkpt lat="45.81143" lon="1.89313">
        <ele>712.1</ele>
        <time>2026-07-07T13:08:35.000Z</time>
      </trkpt>
      <trkpt lat="45.81142" lon="1.89312">
        <ele>712.4</ele>
        <time>2026-07-07T13:08:36.000Z</time>
      </trkpt>
      <trkpt lat="45.81141" lon="1.89311">
        <ele>712.3</ele>
        <time>2026-07-07T13:08:37.000Z</time>
      </trkpt>
      <trkpt lat="45.81139" lon="1.89311">
        <ele>712.6</ele>
        <time>2026-07-07T13:08:38.000Z</time>
      </trkpt>
      <trkpt lat="45.81137" lon="1.89312">
        <ele>712.4</ele>
        <time>2026-07-07T13:08:39.000Z</time>
      </trkpt>
      <trkpt lat="45.81136" lon="1.89312">
        <ele>711.6</ele>
        <time>2026-07-07T13:08:40.000Z</time>
      </trkpt>
      <trkpt lat="45.81134" lon="1.89314">
        <ele>711.4</ele>
        <time>2026-07-07T13:08:41.000Z</time>
      </trkpt>
      <trkpt lat="45.81133" lon="1.89315">
        <ele>711.5</ele>
        <time>2026-07-07T13:08:42.000Z</time>
      </trkpt>
      <trkpt lat="45.81131" lon="1.89317">
        <ele>711.4</ele>
        <time>2026-07-07T13:08:43.000Z</time>
      </trkpt>
      <trkpt lat="45.8113" lon="1.89319">
        <ele>710.9</ele>
        <time>2026-07-07T13:08:44.000Z</time>
      </trkpt>
      <trkpt lat="45.81129" lon="1.89322">
        <ele>709.5</ele>
        <time>2026-07-07T13:08:45.000Z</time>
      </trkpt>
      <trkpt lat="45.81127" lon="1.89324">
        <ele>709.7</ele>
        <time>2026-07-07T13:08:46.000Z</time>
      </trkpt>
      <trkpt lat="45.81126" lon="1.89326">
        <ele>710.2</ele>
        <time>2026-07-07T13:08:47.000Z</time>
      </trkpt>
      <trkpt lat="45.81124" lon="1.89327">
        <ele>710.3</ele>
        <time>2026-07-07T13:08:48.000Z</time>
      </trkpt>
      <trkpt lat="45.81124" lon="1.8933">
        <ele>710.4</ele>
        <time>2026-07-07T13:08:49.000Z</time>
      </trkpt>
      <trkpt lat="45.81124" lon="1.89332">
        <ele>709.6</ele>
        <time>2026-07-07T13:08:50.000Z</time>
      </trkpt>
      <trkpt lat="45.81122" lon="1.89334">
        <ele>711.6</ele>
        <time>2026-07-07T13:08:51.000Z</time>
      </trkpt>
      <trkpt lat="45.81122" lon="1.89336">
        <ele>711.6</ele>
        <time>2026-07-07T13:08:52.000Z</time>
      </trkpt>
      <trkpt lat="45.81122" lon="1.89339">
        <ele>710.9</ele>
        <time>2026-07-07T13:08:53.000Z</time>
      </trkpt>
      <trkpt lat="45.81123" lon="1.89341">
        <ele>710.2</ele>
        <time>2026-07-07T13:08:54.000Z</time>
      </trkpt>
      <trkpt lat="45.81123" lon="1.89344">
        <ele>709.9</ele>
        <time>2026-07-07T13:08:55.000Z</time>
      </trkpt>
      <trkpt lat="45.81124" lon="1.89347">
        <ele>709.4</ele>
        <time>2026-07-07T13:08:56.000Z</time>
      </trkpt>
      <trkpt lat="45.81124" lon="1.89349">
        <ele>709.3</ele>
        <time>2026-07-07T13:08:57.000Z</time>
      </trkpt>
      <trkpt lat="45.81123" lon="1.89352">
        <ele>709.1</ele>
        <time>2026-07-07T13:08:58.000Z</time>
      </trkpt>
      <trkpt lat="45.81123" lon="1.89354">
        <ele>708.7</ele>
        <time>2026-07-07T13:08:59.000Z</time>
      </trkpt>
      <trkpt lat="45.81122" lon="1.89356">
        <ele>709.3</ele>
        <time>2026-07-07T13:09:00.000Z</time>
      </trkpt>
      <trkpt lat="45.81121" lon="1.89358">
        <ele>709.2</ele>
        <time>2026-07-07T13:09:01.000Z</time>
      </trkpt>
      <trkpt lat="45.81121" lon="1.89361">
        <ele>708</ele>
        <time>2026-07-07T13:09:02.000Z</time>
      </trkpt>
      <trkpt lat="45.81121" lon="1.89364">
        <ele>707.4</ele>
        <time>2026-07-07T13:09:03.000Z</time>
      </trkpt>
      <trkpt lat="45.8112" lon="1.89366">
        <ele>708.2</ele>
        <time>2026-07-07T13:09:04.000Z</time>
      </trkpt>
      <trkpt lat="45.81119" lon="1.89368">
        <ele>708.3</ele>
        <time>2026-07-07T13:09:05.000Z</time>
      </trkpt>
      <trkpt lat="45.81118" lon="1.8937">
        <ele>708.9</ele>
        <time>2026-07-07T13:09:06.000Z</time>
      </trkpt>
      <trkpt lat="45.81117" lon="1.89372">
        <ele>709.5</ele>
        <time>2026-07-07T13:09:07.000Z</time>
      </trkpt>
      <trkpt lat="45.81117" lon="1.89375">
        <ele>709</ele>
        <time>2026-07-07T13:09:08.000Z</time>
      </trkpt>
      <trkpt lat="45.81117" lon="1.89378">
        <ele>708.9</ele>
        <time>2026-07-07T13:09:09.000Z</time>
      </trkpt>
      <trkpt lat="45.81118" lon="1.89381">
        <ele>706.9</ele>
        <time>2026-07-07T13:09:10.000Z</time>
      </trkpt>
      <trkpt lat="45.81117" lon="1.89384">
        <ele>706.3</ele>
        <time>2026-07-07T13:09:11.000Z</time>
      </trkpt>
      <trkpt lat="45.81116" lon="1.89386">
        <ele>708.2</ele>
        <time>2026-07-07T13:09:12.000Z</time>
      </trkpt>
      <trkpt lat="45.81115" lon="1.89387">
        <ele>708.9</ele>
        <time>2026-07-07T13:09:13.000Z</time>
      </trkpt>
      <trkpt lat="45.81114" lon="1.89388">
        <ele>709.1</ele>
        <time>2026-07-07T13:09:14.000Z</time>
      </trkpt>
      <trkpt lat="45.81112" lon="1.89389">
        <ele>708.1</ele>
        <time>2026-07-07T13:09:15.000Z</time>
      </trkpt>
      <trkpt lat="45.81111" lon="1.89391">
        <ele>708.2</ele>
        <time>2026-07-07T13:09:16.000Z</time>
      </trkpt>
      <trkpt lat="45.8111" lon="1.89393">
        <ele>707</ele>
        <time>2026-07-07T13:09:17.000Z</time>
      </trkpt>
      <trkpt lat="45.81109" lon="1.89394">
        <ele>707.6</ele>
        <time>2026-07-07T13:09:18.000Z</time>
      </trkpt>
      <trkpt lat="45.81109" lon="1.89396">
        <ele>707.7</ele>
        <time>2026-07-07T13:09:19.000Z</time>
      </trkpt>
      <trkpt lat="45.81108" lon="1.89398">
        <ele>707.4</ele>
        <time>2026-07-07T13:09:20.000Z</time>
      </trkpt>
      <trkpt lat="45.81107" lon="1.894">
        <ele>707.1</ele>
        <time>2026-07-07T13:09:21.000Z</time>
      </trkpt>
      <trkpt lat="45.81107" lon="1.89403">
        <ele>706.9</ele>
        <time>2026-07-07T13:09:22.000Z</time>
      </trkpt>
      <trkpt lat="45.81106" lon="1.89405">
        <ele>706.2</ele>
        <time>2026-07-07T13:09:23.000Z</time>
      </trkpt>
      <trkpt lat="45.81105" lon="1.89407">
        <ele>705.6</ele>
        <time>2026-07-07T13:09:24.000Z</time>
      </trkpt>
      <trkpt lat="45.81103" lon="1.89409">
        <ele>704.9</ele>
        <time>2026-07-07T13:09:25.000Z</time>
      </trkpt>
      <trkpt lat="45.81101" lon="1.89411">
        <ele>706</ele>
        <time>2026-07-07T13:09:26.000Z</time>
      </trkpt>
      <trkpt lat="45.811" lon="1.89413">
        <ele>705.9</ele>
        <time>2026-07-07T13:09:27.000Z</time>
      </trkpt>
      <trkpt lat="45.81098" lon="1.89415">
        <ele>707</ele>
        <time>2026-07-07T13:09:28.000Z</time>
      </trkpt>
      <trkpt lat="45.81096" lon="1.89417">
        <ele>706</ele>
        <time>2026-07-07T13:09:29.000Z</time>
      </trkpt>
      <trkpt lat="45.81095" lon="1.89419">
        <ele>704.9</ele>
        <time>2026-07-07T13:09:30.000Z</time>
      </trkpt>
      <trkpt lat="45.81093" lon="1.89421">
        <ele>705.5</ele>
        <time>2026-07-07T13:09:31.000Z</time>
      </trkpt>
      <trkpt lat="45.81092" lon="1.89422">
        <ele>705.2</ele>
        <time>2026-07-07T13:09:32.000Z</time>
      </trkpt>
      <trkpt lat="45.8109" lon="1.89424">
        <ele>705.5</ele>
        <time>2026-07-07T13:09:33.000Z</time>
      </trkpt>
      <trkpt lat="45.81089" lon="1.89425">
        <ele>705.9</ele>
        <time>2026-07-07T13:09:34.000Z</time>
      </trkpt>
      <trkpt lat="45.81088" lon="1.89426">
        <ele>705.5</ele>
        <time>2026-07-07T13:09:35.000Z</time>
      </trkpt>
      <trkpt lat="45.81087" lon="1.89427">
        <ele>704.2</ele>
        <time>2026-07-07T13:09:36.000Z</time>
      </trkpt>
      <trkpt lat="45.81087" lon="1.89429">
        <ele>703.7</ele>
        <time>2026-07-07T13:09:37.000Z</time>
      </trkpt>
      <trkpt lat="45.81087" lon="1.8943">
        <ele>702.6</ele>
        <time>2026-07-07T13:09:38.000Z</time>
      </trkpt>
      <trkpt lat="45.81086" lon="1.89431">
        <ele>703</ele>
        <time>2026-07-07T13:09:39.000Z</time>
      </trkpt>
      <trkpt lat="45.81085" lon="1.89433">
        <ele>703.3</ele>
        <time>2026-07-07T13:09:40.000Z</time>
      </trkpt>
      <trkpt lat="45.81085" lon="1.89436">
        <ele>702.9</ele>
        <time>2026-07-07T13:09:41.000Z</time>
      </trkpt>
      <trkpt lat="45.81085" lon="1.89438">
        <ele>703.3</ele>
        <time>2026-07-07T13:09:42.000Z</time>
      </trkpt>
      <trkpt lat="45.81083" lon="1.89439">
        <ele>703.5</ele>
        <time>2026-07-07T13:09:43.000Z</time>
      </trkpt>
      <trkpt lat="45.81083" lon="1.89441">
        <ele>702.9</ele>
        <time>2026-07-07T13:09:44.000Z</time>
      </trkpt>
      <trkpt lat="45.81081" lon="1.89443">
        <ele>704.1</ele>
        <time>2026-07-07T13:09:45.000Z</time>
      </trkpt>
      <trkpt lat="45.81081" lon="1.89444">
        <ele>704.2</ele>
        <time>2026-07-07T13:09:46.000Z</time>
      </trkpt>
      <trkpt lat="45.81079" lon="1.89445">
        <ele>705</ele>
        <time>2026-07-07T13:09:47.000Z</time>
      </trkpt>
      <trkpt lat="45.81078" lon="1.89447">
        <ele>704.5</ele>
        <time>2026-07-07T13:09:48.000Z</time>
      </trkpt>
      <trkpt lat="45.81077" lon="1.89448">
        <ele>704.5</ele>
        <time>2026-07-07T13:09:49.000Z</time>
      </trkpt>
      <trkpt lat="45.81075" lon="1.89449">
        <ele>704.8</ele>
        <time>2026-07-07T13:09:50.000Z</time>
      </trkpt>
      <trkpt lat="45.81074" lon="1.89451">
        <ele>705</ele>
        <time>2026-07-07T13:09:51.000Z</time>
      </trkpt>
      <trkpt lat="45.81072" lon="1.89453">
        <ele>705.5</ele>
        <time>2026-07-07T13:09:52.000Z</time>
      </trkpt>
      <trkpt lat="45.81071" lon="1.89455">
        <ele>705.1</ele>
        <time>2026-07-07T13:09:53.000Z</time>
      </trkpt>
      <trkpt lat="45.8107" lon="1.89457">
        <ele>704.6</ele>
        <time>2026-07-07T13:09:54.000Z</time>
      </trkpt>
      <trkpt lat="45.81069" lon="1.89458">
        <ele>704.9</ele>
        <time>2026-07-07T13:09:55.000Z</time>
      </trkpt>
      <trkpt lat="45.81068" lon="1.8946">
        <ele>704.9</ele>
        <time>2026-07-07T13:09:56.000Z</time>
      </trkpt>
      <trkpt lat="45.81066" lon="1.89462">
        <ele>704</ele>
        <time>2026-07-07T13:09:57.000Z</time>
      </trkpt>
      <trkpt lat="45.81065" lon="1.89463">
        <ele>703.4</ele>
        <time>2026-07-07T13:09:58.000Z</time>
      </trkpt>
      <trkpt lat="45.81063" lon="1.89463">
        <ele>703.2</ele>
        <time>2026-07-07T13:09:59.000Z</time>
      </trkpt>
      <trkpt lat="45.81062" lon="1.89465">
        <ele>702.4</ele>
        <time>2026-07-07T13:10:00.000Z</time>
      </trkpt>
      <trkpt lat="45.81061" lon="1.89466">
        <ele>702.6</ele>
        <time>2026-07-07T13:10:01.000Z</time>
      </trkpt>
      <trkpt lat="45.8106" lon="1.89467">
        <ele>702.1</ele>
        <time>2026-07-07T13:10:02.000Z</time>
      </trkpt>
      <trkpt lat="45.81058" lon="1.89469">
        <ele>701.9</ele>
        <time>2026-07-07T13:10:03.000Z</time>
      </trkpt>
      <trkpt lat="45.81057" lon="1.8947">
        <ele>703.8</ele>
        <time>2026-07-07T13:10:04.000Z</time>
      </trkpt>
      <trkpt lat="45.81055" lon="1.89472">
        <ele>705.8</ele>
        <time>2026-07-07T13:10:05.000Z</time>
      </trkpt>
      <trkpt lat="45.81054" lon="1.89474">
        <ele>703.7</ele>
        <time>2026-07-07T13:10:06.000Z</time>
      </trkpt>
      <trkpt lat="45.81053" lon="1.89476">
        <ele>703.8</ele>
        <time>2026-07-07T13:10:07.000Z</time>
      </trkpt>
      <trkpt lat="45.81052" lon="1.89478">
        <ele>704.3</ele>
        <time>2026-07-07T13:10:08.000Z</time>
      </trkpt>
      <trkpt lat="45.8105" lon="1.89479">
        <ele>704</ele>
        <time>2026-07-07T13:10:09.000Z</time>
      </trkpt>
      <trkpt lat="45.81049" lon="1.8948">
        <ele>703.6</ele>
        <time>2026-07-07T13:10:10.000Z</time>
      </trkpt>
      <trkpt lat="45.81048" lon="1.89482">
        <ele>702</ele>
        <time>2026-07-07T13:10:11.000Z</time>
      </trkpt>
      <trkpt lat="45.81046" lon="1.89484">
        <ele>701.5</ele>
        <time>2026-07-07T13:10:12.000Z</time>
      </trkpt>
      <trkpt lat="45.81045" lon="1.89485">
        <ele>700.9</ele>
        <time>2026-07-07T13:10:13.000Z</time>
      </trkpt>
      <trkpt lat="45.81044" lon="1.89487">
        <ele>700.1</ele>
        <time>2026-07-07T13:10:14.000Z</time>
      </trkpt>
      <trkpt lat="45.81043" lon="1.89489">
        <ele>700.6</ele>
        <time>2026-07-07T13:10:15.000Z</time>
      </trkpt>
      <trkpt lat="45.81041" lon="1.89491">
        <ele>701.7</ele>
        <time>2026-07-07T13:10:16.000Z</time>
      </trkpt>
      <trkpt lat="45.81039" lon="1.89493">
        <ele>700.9</ele>
        <time>2026-07-07T13:10:17.000Z</time>
      </trkpt>
      <trkpt lat="45.81037" lon="1.89494">
        <ele>700.4</ele>
        <time>2026-07-07T13:10:18.000Z</time>
      </trkpt>
      <trkpt lat="45.81036" lon="1.89496">
        <ele>700.5</ele>
        <time>2026-07-07T13:10:19.000Z</time>
      </trkpt>
      <trkpt lat="45.81034" lon="1.89497">
        <ele>700.1</ele>
        <time>2026-07-07T13:10:20.000Z</time>
      </trkpt>
      <trkpt lat="45.81033" lon="1.89498">
        <ele>700.1</ele>
        <time>2026-07-07T13:10:21.000Z</time>
      </trkpt>
      <trkpt lat="45.81032" lon="1.89498">
        <ele>700.4</ele>
        <time>2026-07-07T13:10:22.000Z</time>
      </trkpt>
      <trkpt lat="45.8103" lon="1.89499">
        <ele>700.6</ele>
        <time>2026-07-07T13:10:23.000Z</time>
      </trkpt>
      <trkpt lat="45.81029" lon="1.89499">
        <ele>700.8</ele>
        <time>2026-07-07T13:10:24.000Z</time>
      </trkpt>
      <trkpt lat="45.81028" lon="1.89499">
        <ele>700.6</ele>
        <time>2026-07-07T13:10:25.000Z</time>
      </trkpt>
      <trkpt lat="45.81026" lon="1.895">
        <ele>700.4</ele>
        <time>2026-07-07T13:10:26.000Z</time>
      </trkpt>
      <trkpt lat="45.81025" lon="1.895">
        <ele>700.3</ele>
        <time>2026-07-07T13:10:27.000Z</time>
      </trkpt>
      <trkpt lat="45.81024" lon="1.895">
        <ele>701</ele>
        <time>2026-07-07T13:10:28.000Z</time>
      </trkpt>
      <trkpt lat="45.81023" lon="1.895">
        <ele>701.8</ele>
        <time>2026-07-07T13:10:29.000Z</time>
      </trkpt>
      <trkpt lat="45.81022" lon="1.895">
        <ele>701.6</ele>
        <time>2026-07-07T13:10:30.000Z</time>
      </trkpt>
      <trkpt lat="45.8102" lon="1.895">
        <ele>701.6</ele>
        <time>2026-07-07T13:10:31.000Z</time>
      </trkpt>
      <trkpt lat="45.81019" lon="1.89501">
        <ele>701.4</ele>
        <time>2026-07-07T13:10:32.000Z</time>
      </trkpt>
      <trkpt lat="45.81018" lon="1.89501">
        <ele>701.1</ele>
        <time>2026-07-07T13:10:33.000Z</time>
      </trkpt>
      <trkpt lat="45.81016" lon="1.895">
        <ele>700.8</ele>
        <time>2026-07-07T13:10:34.000Z</time>
      </trkpt>
      <trkpt lat="45.81015" lon="1.895">
        <ele>700.3</ele>
        <time>2026-07-07T13:10:35.000Z</time>
      </trkpt>
      <trkpt lat="45.81014" lon="1.89499">
        <ele>700.2</ele>
        <time>2026-07-07T13:10:36.000Z</time>
      </trkpt>
      <trkpt lat="45.81012" lon="1.89498">
        <ele>700.1</ele>
        <time>2026-07-07T13:10:37.000Z</time>
      </trkpt>
      <trkpt lat="45.81011" lon="1.89498">
        <ele>700.2</ele>
        <time>2026-07-07T13:10:38.000Z</time>
      </trkpt>
      <trkpt lat="45.8101" lon="1.89498">
        <ele>699.5</ele>
        <time>2026-07-07T13:10:39.000Z</time>
      </trkpt>
      <trkpt lat="45.81008" lon="1.89498">
        <ele>699.4</ele>
        <time>2026-07-07T13:10:40.000Z</time>
      </trkpt>
      <trkpt lat="45.81007" lon="1.89498">
        <ele>699</ele>
        <time>2026-07-07T13:10:41.000Z</time>
      </trkpt>
      <trkpt lat="45.81005" lon="1.89498">
        <ele>698.9</ele>
        <time>2026-07-07T13:10:42.000Z</time>
      </trkpt>
      <trkpt lat="45.81003" lon="1.89498">
        <ele>699</ele>
        <time>2026-07-07T13:10:43.000Z</time>
      </trkpt>
      <trkpt lat="45.81002" lon="1.89498">
        <ele>698.9</ele>
        <time>2026-07-07T13:10:44.000Z</time>
      </trkpt>
      <trkpt lat="45.81" lon="1.89498">
        <ele>698.9</ele>
        <time>2026-07-07T13:10:45.000Z</time>
      </trkpt>
      <trkpt lat="45.80999" lon="1.89498">
        <ele>698.5</ele>
        <time>2026-07-07T13:10:46.000Z</time>
      </trkpt>
      <trkpt lat="45.80998" lon="1.89497">
        <ele>698.3</ele>
        <time>2026-07-07T13:10:47.000Z</time>
      </trkpt>
      <trkpt lat="45.80997" lon="1.89496">
        <ele>697.7</ele>
        <time>2026-07-07T13:10:48.000Z</time>
      </trkpt>
      <trkpt lat="45.80995" lon="1.89495">
        <ele>697.4</ele>
        <time>2026-07-07T13:10:49.000Z</time>
      </trkpt>
      <trkpt lat="45.80995" lon="1.89494">
        <ele>697</ele>
        <time>2026-07-07T13:10:50.000Z</time>
      </trkpt>
      <trkpt lat="45.80994" lon="1.89492">
        <ele>696.5</ele>
        <time>2026-07-07T13:10:51.000Z</time>
      </trkpt>
      <trkpt lat="45.80993" lon="1.89491">
        <ele>696.9</ele>
        <time>2026-07-07T13:10:52.000Z</time>
      </trkpt>
      <trkpt lat="45.80992" lon="1.89489">
        <ele>696.9</ele>
        <time>2026-07-07T13:10:53.000Z</time>
      </trkpt>
      <trkpt lat="45.8099" lon="1.89488">
        <ele>697.1</ele>
        <time>2026-07-07T13:10:54.000Z</time>
      </trkpt>
      <trkpt lat="45.80989" lon="1.89487">
        <ele>696.5</ele>
        <time>2026-07-07T13:10:55.000Z</time>
      </trkpt>
      <trkpt lat="45.80988" lon="1.89486">
        <ele>696.5</ele>
        <time>2026-07-07T13:10:56.000Z</time>
      </trkpt>
      <trkpt lat="45.80987" lon="1.89485">
        <ele>696.5</ele>
        <time>2026-07-07T13:10:57.000Z</time>
      </trkpt>
      <trkpt lat="45.80986" lon="1.89483">
        <ele>696.7</ele>
        <time>2026-07-07T13:10:58.000Z</time>
      </trkpt>
      <trkpt lat="45.80984" lon="1.89482">
        <ele>696.3</ele>
        <time>2026-07-07T13:10:59.000Z</time>
      </trkpt>
      <trkpt lat="45.80983" lon="1.89482">
        <ele>696.6</ele>
        <time>2026-07-07T13:11:00.000Z</time>
      </trkpt>
      <trkpt lat="45.80981" lon="1.89482">
        <ele>696.1</ele>
        <time>2026-07-07T13:11:01.000Z</time>
      </trkpt>
      <trkpt lat="45.8098" lon="1.89483">
        <ele>695.7</ele>
        <time>2026-07-07T13:11:02.000Z</time>
      </trkpt>
      <trkpt lat="45.80978" lon="1.89483">
        <ele>695.3</ele>
        <time>2026-07-07T13:11:03.000Z</time>
      </trkpt>
      <trkpt lat="45.80977" lon="1.89484">
        <ele>695.1</ele>
        <time>2026-07-07T13:11:04.000Z</time>
      </trkpt>
      <trkpt lat="45.80975" lon="1.89484">
        <ele>694.8</ele>
        <time>2026-07-07T13:11:05.000Z</time>
      </trkpt>
      <trkpt lat="45.80974" lon="1.89485">
        <ele>694.6</ele>
        <time>2026-07-07T13:11:06.000Z</time>
      </trkpt>
      <trkpt lat="45.80973" lon="1.89485">
        <ele>694.3</ele>
        <time>2026-07-07T13:11:07.000Z</time>
      </trkpt>
      <trkpt lat="45.80971" lon="1.89484">
        <ele>694</ele>
        <time>2026-07-07T13:11:08.000Z</time>
      </trkpt>
      <trkpt lat="45.80969" lon="1.89483">
        <ele>694.1</ele>
        <time>2026-07-07T13:11:09.000Z</time>
      </trkpt>
      <trkpt lat="45.80968" lon="1.89483">
        <ele>694</ele>
        <time>2026-07-07T13:11:10.000Z</time>
      </trkpt>
      <trkpt lat="45.80966" lon="1.89482">
        <ele>693.9</ele>
        <time>2026-07-07T13:11:11.000Z</time>
      </trkpt>
      <trkpt lat="45.80964" lon="1.89483">
        <ele>693.9</ele>
        <time>2026-07-07T13:11:12.000Z</time>
      </trkpt>
      <trkpt lat="45.80963" lon="1.89483">
        <ele>693.9</ele>
        <time>2026-07-07T13:11:13.000Z</time>
      </trkpt>
      <trkpt lat="45.80961" lon="1.89483">
        <ele>694.5</ele>
        <time>2026-07-07T13:11:14.000Z</time>
      </trkpt>
      <trkpt lat="45.80959" lon="1.89483">
        <ele>694.9</ele>
        <time>2026-07-07T13:11:15.000Z</time>
      </trkpt>
      <trkpt lat="45.80958" lon="1.89484">
        <ele>696.4</ele>
        <time>2026-07-07T13:11:16.000Z</time>
      </trkpt>
      <trkpt lat="45.80956" lon="1.89485">
        <ele>696.2</ele>
        <time>2026-07-07T13:11:17.000Z</time>
      </trkpt>
      <trkpt lat="45.80955" lon="1.89487">
        <ele>695.2</ele>
        <time>2026-07-07T13:11:18.000Z</time>
      </trkpt>
      <trkpt lat="45.80954" lon="1.89488">
        <ele>694.9</ele>
        <time>2026-07-07T13:11:19.000Z</time>
      </trkpt>
      <trkpt lat="45.80953" lon="1.89489">
        <ele>694.7</ele>
        <time>2026-07-07T13:11:20.000Z</time>
      </trkpt>
      <trkpt lat="45.80952" lon="1.89489">
        <ele>694.5</ele>
        <time>2026-07-07T13:11:21.000Z</time>
      </trkpt>
      <trkpt lat="45.80951" lon="1.89489">
        <ele>694.4</ele>
        <time>2026-07-07T13:11:22.000Z</time>
      </trkpt>
      <trkpt lat="45.8095" lon="1.89489">
        <ele>693.8</ele>
        <time>2026-07-07T13:11:23.000Z</time>
      </trkpt>
      <trkpt lat="45.80949" lon="1.89489">
        <ele>693.8</ele>
        <time>2026-07-07T13:11:24.000Z</time>
      </trkpt>
      <trkpt lat="45.80948" lon="1.8949">
        <ele>693</ele>
        <time>2026-07-07T13:11:25.000Z</time>
      </trkpt>
      <trkpt lat="45.80948" lon="1.89491">
        <ele>692.9</ele>
        <time>2026-07-07T13:11:26.000Z</time>
      </trkpt>
      <trkpt lat="45.80948" lon="1.89491">
        <ele>692.9</ele>
        <time>2026-07-07T13:11:27.000Z</time>
      </trkpt>
      <trkpt lat="45.80946" lon="1.8949">
        <ele>694.6</ele>
        <time>2026-07-07T13:11:28.000Z</time>
      </trkpt>
      <trkpt lat="45.80944" lon="1.89489">
        <ele>694.7</ele>
        <time>2026-07-07T13:11:29.000Z</time>
      </trkpt>
      <trkpt lat="45.80944" lon="1.89488">
        <ele>693.7</ele>
        <time>2026-07-07T13:11:30.000Z</time>
      </trkpt>
      <trkpt lat="45.80943" lon="1.89487">
        <ele>693.5</ele>
        <time>2026-07-07T13:11:31.000Z</time>
      </trkpt>
      <trkpt lat="45.80943" lon="1.89486">
        <ele>693.3</ele>
        <time>2026-07-07T13:11:32.000Z</time>
      </trkpt>
      <trkpt lat="45.80942" lon="1.89483">
        <ele>693.5</ele>
        <time>2026-07-07T13:11:33.000Z</time>
      </trkpt>
      <trkpt lat="45.80942" lon="1.89481">
        <ele>693.9</ele>
        <time>2026-07-07T13:11:34.000Z</time>
      </trkpt>
      <trkpt lat="45.80942" lon="1.89481">
        <ele>693.8</ele>
        <time>2026-07-07T13:11:35.000Z</time>
      </trkpt>
      <trkpt lat="45.80942" lon="1.8948">
        <ele>693.8</ele>
        <time>2026-07-07T13:11:36.000Z</time>
      </trkpt>
      <trkpt lat="45.80942" lon="1.89479">
        <ele>694.2</ele>
        <time>2026-07-07T13:11:37.000Z</time>
      </trkpt>
      <trkpt lat="45.80941" lon="1.89479">
        <ele>694.3</ele>
        <time>2026-07-07T13:11:38.000Z</time>
      </trkpt>
      <trkpt lat="45.80941" lon="1.89478">
        <ele>694</ele>
        <time>2026-07-07T13:11:39.000Z</time>
      </trkpt>
      <trkpt lat="45.8094" lon="1.89477">
        <ele>693.9</ele>
        <time>2026-07-07T13:11:40.000Z</time>
      </trkpt>
      <trkpt lat="45.8094" lon="1.89477">
        <ele>694</ele>
        <time>2026-07-07T13:11:41.000Z</time>
      </trkpt>
      <trkpt lat="45.8094" lon="1.89477">
        <ele>694</ele>
        <time>2026-07-07T13:11:42.000Z</time>
      </trkpt>
      <trkpt lat="45.8094" lon="1.89477">
        <ele>694</ele>
        <time>2026-07-07T13:11:43.000Z</time>
      </trkpt>
      <trkpt lat="45.8094" lon="1.89477">
        <ele>694</ele>
        <time>2026-07-07T13:11:44.000Z</time>
      </trkpt>
      <trkpt lat="45.8094" lon="1.89477">
        <ele>694</ele>
        <time>2026-07-07T13:11:45.000Z</time>
      </trkpt>
      <trkpt lat="45.8094" lon="1.89477">
        <ele>694</ele>
        <time>2026-07-07T13:11:46.000Z</time>
      </trkpt>
      <trkpt lat="45.8094" lon="1.89477">
        <ele>694</ele>
        <time>2026-07-07T13:11:47.000Z</time>
      </trkpt>
      <trkpt lat="45.8094" lon="1.89477">
        <ele>694</ele>
        <time>2026-07-07T13:11:48.000Z</time>
      </trkpt>
      <trkpt lat="45.8094" lon="1.89477">
        <ele>694</ele>
        <time>2026-07-07T13:11:49.000Z</time>
      </trkpt>
      <trkpt lat="45.8094" lon="1.89476">
        <ele>693.9</ele>
        <time>2026-07-07T13:11:50.000Z</time>
      </trkpt>
      <trkpt lat="45.8094" lon="1.89476">
        <ele>693.6</ele>
        <time>2026-07-07T13:11:51.000Z</time>
      </trkpt>
      <trkpt lat="45.8094" lon="1.89475">
        <ele>693.5</ele>
        <time>2026-07-07T13:11:52.000Z</time>
      </trkpt>
      <trkpt lat="45.8094" lon="1.89474">
        <ele>693.3</ele>
        <time>2026-07-07T13:11:53.000Z</time>
      </trkpt>
      <trkpt lat="45.8094" lon="1.89473">
        <ele>693.4</ele>
        <time>2026-07-07T13:11:54.000Z</time>
      </trkpt>
      <trkpt lat="45.80939" lon="1.89473">
        <ele>693.4</ele>
        <time>2026-07-07T13:11:55.000Z</time>
      </trkpt>
      <trkpt lat="45.80939" lon="1.89473">
        <ele>693.5</ele>
        <time>2026-07-07T13:11:56.000Z</time>
      </trkpt>
      <trkpt lat="45.80939" lon="1.89472">
        <ele>693.4</ele>
        <time>2026-07-07T13:11:57.000Z</time>
      </trkpt>
      <trkpt lat="45.80939" lon="1.8947">
        <ele>693.2</ele>
        <time>2026-07-07T13:11:58.000Z</time>
      </trkpt>
      <trkpt lat="45.8094" lon="1.8947">
        <ele>693</ele>
        <time>2026-07-07T13:11:59.000Z</time>
      </trkpt>
      <trkpt lat="45.8094" lon="1.89469">
        <ele>692.9</ele>
        <time>2026-07-07T13:12:00.000Z</time>
      </trkpt>
      <trkpt lat="45.80941" lon="1.89469">
        <ele>693.4</ele>
        <time>2026-07-07T13:12:01.000Z</time>
      </trkpt>
      <trkpt lat="45.80941" lon="1.89469">
        <ele>693.4</ele>
        <time>2026-07-07T13:12:02.000Z</time>
      </trkpt>
      <trkpt lat="45.80941" lon="1.89469">
        <ele>693.4</ele>
        <time>2026-07-07T13:12:03.000Z</time>
      </trkpt>
      <trkpt lat="45.80941" lon="1.89469">
        <ele>693.4</ele>
        <time>2026-07-07T13:12:04.000Z</time>
      </trkpt>
      <trkpt lat="45.80941" lon="1.89469">
        <ele>693.4</ele>
        <time>2026-07-07T13:12:05.000Z</time>
      </trkpt>
      <trkpt lat="45.80941" lon="1.89469">
        <ele>693.2</ele>
        <time>2026-07-07T13:12:06.000Z</time>
      </trkpt>
      <trkpt lat="45.8094" lon="1.89468">
        <ele>693.4</ele>
        <time>2026-07-07T13:12:07.000Z</time>
      </trkpt>
      <trkpt lat="45.80939" lon="1.89468">
        <ele>693.4</ele>
        <time>2026-07-07T13:12:08.000Z</time>
      </trkpt>
      <trkpt lat="45.80938" lon="1.89469">
        <ele>693.5</ele>
        <time>2026-07-07T13:12:09.000Z</time>
      </trkpt>
      <trkpt lat="45.80938" lon="1.89471">
        <ele>693.7</ele>
        <time>2026-07-07T13:12:10.000Z</time>
      </trkpt>
      <trkpt lat="45.80938" lon="1.89472">
        <ele>693.9</ele>
        <time>2026-07-07T13:12:11.000Z</time>
      </trkpt>
      <trkpt lat="45.80938" lon="1.89472">
        <ele>693.9</ele>
        <time>2026-07-07T13:12:12.000Z</time>
      </trkpt>
      <trkpt lat="45.80938" lon="1.89472">
        <ele>693.9</ele>
        <time>2026-07-07T13:12:13.000Z</time>
      </trkpt>
      <trkpt lat="45.80938" lon="1.89472">
        <ele>693.9</ele>
        <time>2026-07-07T13:12:14.000Z</time>
      </trkpt>
      <trkpt lat="45.80938" lon="1.89472">
        <ele>693.9</ele>
        <time>2026-07-07T13:12:15.000Z</time>
      </trkpt>
      <trkpt lat="45.80938" lon="1.89472">
        <ele>693.9</ele>
        <time>2026-07-07T13:12:16.000Z</time>
      </trkpt>
      <trkpt lat="45.80938" lon="1.89472">
        <ele>693.9</ele>
        <time>2026-07-07T13:12:17.000Z</time>
      </trkpt>
      <trkpt lat="45.80938" lon="1.89472">
        <ele>693.9</ele>
        <time>2026-07-07T13:12:18.000Z</time>
      </trkpt>
      <trkpt lat="45.80938" lon="1.89472">
        <ele>693.9</ele>
        <time>2026-07-07T13:12:19.000Z</time>
      </trkpt>
      <trkpt lat="45.80938" lon="1.89472">
        <ele>693.9</ele>
        <time>2026-07-07T13:12:20.000Z</time>
      </trkpt>
      <trkpt lat="45.80938" lon="1.89472">
        <ele>693.9</ele>
        <time>2026-07-07T13:12:21.000Z</time>
      </trkpt>
      <trkpt lat="45.80938" lon="1.89472">
        <ele>693.9</ele>
        <time>2026-07-07T13:12:22.000Z</time>
      </trkpt>
      <trkpt lat="45.80938" lon="1.89472">
        <ele>693.9</ele>
        <time>2026-07-07T13:12:23.000Z</time>
      </trkpt>
      <trkpt lat="45.80938" lon="1.89472">
        <ele>693.9</ele>
        <time>2026-07-07T13:12:24.000Z</time>
      </trkpt>
      <trkpt lat="45.80938" lon="1.89472">
        <ele>693.9</ele>
        <time>2026-07-07T13:12:25.000Z</time>
      </trkpt>
      <trkpt lat="45.80938" lon="1.89472">
        <ele>693.9</ele>
        <time>2026-07-07T13:12:26.000Z</time>
      </trkpt>
      <trkpt lat="45.80938" lon="1.89472">
        <ele>693.9</ele>
        <time>2026-07-07T13:12:27.000Z</time>
      </trkpt>
      <trkpt lat="45.80938" lon="1.89472">
        <ele>693.9</ele>
        <time>2026-07-07T13:12:28.000Z</time>
      </trkpt>
      <trkpt lat="45.80938" lon="1.89472">
        <ele>693.9</ele>
        <time>2026-07-07T13:12:29.000Z</time>
      </trkpt>
      <trkpt lat="45.80938" lon="1.89473">
        <ele>694</ele>
        <time>2026-07-07T13:12:30.000Z</time>
      </trkpt>
      <trkpt lat="45.80938" lon="1.89473">
        <ele>694.6</ele>
        <time>2026-07-07T13:12:31.000Z</time>
      </trkpt>
      <trkpt lat="45.80938" lon="1.89474">
        <ele>694.6</ele>
        <time>2026-07-07T13:12:32.000Z</time>
      </trkpt>
      <trkpt lat="45.80939" lon="1.89474">
        <ele>694.7</ele>
        <time>2026-07-07T13:12:33.000Z</time>
      </trkpt>
      <trkpt lat="45.80939" lon="1.89475">
        <ele>694.8</ele>
        <time>2026-07-07T13:12:34.000Z</time>
      </trkpt>
      <trkpt lat="45.8094" lon="1.89476">
        <ele>695</ele>
        <time>2026-07-07T13:12:35.000Z</time>
      </trkpt>
      <trkpt lat="45.80941" lon="1.89478">
        <ele>695.2</ele>
        <time>2026-07-07T13:12:36.000Z</time>
      </trkpt>
      <trkpt lat="45.80941" lon="1.8948">
        <ele>695.2</ele>
        <time>2026-07-07T13:12:37.000Z</time>
      </trkpt>
      <trkpt lat="45.80942" lon="1.89482">
        <ele>695.6</ele>
        <time>2026-07-07T13:12:38.000Z</time>
      </trkpt>
      <trkpt lat="45.80944" lon="1.89483">
        <ele>695.7</ele>
        <time>2026-07-07T13:12:39.000Z</time>
      </trkpt>
      <trkpt lat="45.80945" lon="1.89484">
        <ele>695.7</ele>
        <time>2026-07-07T13:12:40.000Z</time>
      </trkpt>
      <trkpt lat="45.80946" lon="1.89486">
        <ele>695.6</ele>
        <time>2026-07-07T13:12:41.000Z</time>
      </trkpt>
      <trkpt lat="45.80946" lon="1.89488">
        <ele>697.1</ele>
        <time>2026-07-07T13:12:42.000Z</time>
      </trkpt>
      <trkpt lat="45.80946" lon="1.89491">
        <ele>697.4</ele>
        <time>2026-07-07T13:12:43.000Z</time>
      </trkpt>
      <trkpt lat="45.80945" lon="1.89492">
        <ele>697.2</ele>
        <time>2026-07-07T13:12:44.000Z</time>
      </trkpt>
      <trkpt lat="45.80945" lon="1.89494">
        <ele>697.2</ele>
        <time>2026-07-07T13:12:45.000Z</time>
      </trkpt>
      <trkpt lat="45.80944" lon="1.89494">
        <ele>697.2</ele>
        <time>2026-07-07T13:12:46.000Z</time>
      </trkpt>
      <trkpt lat="45.80943" lon="1.89496">
        <ele>695.5</ele>
        <time>2026-07-07T13:12:47.000Z</time>
      </trkpt>
      <trkpt lat="45.80942" lon="1.89498">
        <ele>695.4</ele>
        <time>2026-07-07T13:12:48.000Z</time>
      </trkpt>
      <trkpt lat="45.80942" lon="1.89499">
        <ele>695.1</ele>
        <time>2026-07-07T13:12:49.000Z</time>
      </trkpt>
      <trkpt lat="45.8094" lon="1.895">
        <ele>695.5</ele>
        <time>2026-07-07T13:12:50.000Z</time>
      </trkpt>
      <trkpt lat="45.80939" lon="1.89501">
        <ele>696.3</ele>
        <time>2026-07-07T13:12:51.000Z</time>
      </trkpt>
      <trkpt lat="45.80938" lon="1.89503">
        <ele>696.5</ele>
        <time>2026-07-07T13:12:52.000Z</time>
      </trkpt>
      <trkpt lat="45.80937" lon="1.89505">
        <ele>697.2</ele>
        <time>2026-07-07T13:12:53.000Z</time>
      </trkpt>
      <trkpt lat="45.80935" lon="1.89507">
        <ele>697</ele>
        <time>2026-07-07T13:12:54.000Z</time>
      </trkpt>
      <trkpt lat="45.80934" lon="1.89509">
        <ele>696.4</ele>
        <time>2026-07-07T13:12:55.000Z</time>
      </trkpt>
      <trkpt lat="45.80933" lon="1.89511">
        <ele>696.6</ele>
        <time>2026-07-07T13:12:56.000Z</time>
      </trkpt>
      <trkpt lat="45.80932" lon="1.89513">
        <ele>697</ele>
        <time>2026-07-07T13:12:57.000Z</time>
      </trkpt>
      <trkpt lat="45.80931" lon="1.89515">
        <ele>696.5</ele>
        <time>2026-07-07T13:12:58.000Z</time>
      </trkpt>
      <trkpt lat="45.8093" lon="1.89517">
        <ele>696.7</ele>
        <time>2026-07-07T13:12:59.000Z</time>
      </trkpt>
      <trkpt lat="45.8093" lon="1.8952">
        <ele>696.9</ele>
        <time>2026-07-07T13:13:00.000Z</time>
      </trkpt>
      <trkpt lat="45.8093" lon="1.89522">
        <ele>696.9</ele>
        <time>2026-07-07T13:13:01.000Z</time>
      </trkpt>
      <trkpt lat="45.8093" lon="1.89524">
        <ele>697</ele>
        <time>2026-07-07T13:13:02.000Z</time>
      </trkpt>
      <trkpt lat="45.8093" lon="1.89526">
        <ele>696.6</ele>
        <time>2026-07-07T13:13:03.000Z</time>
      </trkpt>
      <trkpt lat="45.8093" lon="1.89528">
        <ele>696.9</ele>
        <time>2026-07-07T13:13:04.000Z</time>
      </trkpt>
      <trkpt lat="45.8093" lon="1.8953">
        <ele>697.2</ele>
        <time>2026-07-07T13:13:05.000Z</time>
      </trkpt>
      <trkpt lat="45.8093" lon="1.89533">
        <ele>698.5</ele>
        <time>2026-07-07T13:13:06.000Z</time>
      </trkpt>
      <trkpt lat="45.8093" lon="1.89535">
        <ele>698.6</ele>
        <time>2026-07-07T13:13:07.000Z</time>
      </trkpt>
      <trkpt lat="45.80931" lon="1.89537">
        <ele>698.4</ele>
        <time>2026-07-07T13:13:08.000Z</time>
      </trkpt>
      <trkpt lat="45.80932" lon="1.89539">
        <ele>698.3</ele>
        <time>2026-07-07T13:13:09.000Z</time>
      </trkpt>
      <trkpt lat="45.80932" lon="1.89541">
        <ele>698.9</ele>
        <time>2026-07-07T13:13:10.000Z</time>
      </trkpt>
      <trkpt lat="45.80933" lon="1.89542">
        <ele>699.6</ele>
        <time>2026-07-07T13:13:11.000Z</time>
      </trkpt>
      <trkpt lat="45.80934" lon="1.89543">
        <ele>699.1</ele>
        <time>2026-07-07T13:13:12.000Z</time>
      </trkpt>
      <trkpt lat="45.80935" lon="1.89545">
        <ele>699</ele>
        <time>2026-07-07T13:13:13.000Z</time>
      </trkpt>
      <trkpt lat="45.80936" lon="1.89546">
        <ele>699.3</ele>
        <time>2026-07-07T13:13:14.000Z</time>
      </trkpt>
      <trkpt lat="45.80936" lon="1.89548">
        <ele>699.6</ele>
        <time>2026-07-07T13:13:15.000Z</time>
      </trkpt>
      <trkpt lat="45.80937" lon="1.89549">
        <ele>699</ele>
        <time>2026-07-07T13:13:16.000Z</time>
      </trkpt>
      <trkpt lat="45.80937" lon="1.8955">
        <ele>699.5</ele>
        <time>2026-07-07T13:13:17.000Z</time>
      </trkpt>
      <trkpt lat="45.80937" lon="1.8955">
        <ele>699.8</ele>
        <time>2026-07-07T13:13:18.000Z</time>
      </trkpt>
      <trkpt lat="45.80937" lon="1.8955">
        <ele>699.8</ele>
        <time>2026-07-07T13:13:19.000Z</time>
      </trkpt>
      <trkpt lat="45.80937" lon="1.8955">
        <ele>699.8</ele>
        <time>2026-07-07T13:13:20.000Z</time>
      </trkpt>
      <trkpt lat="45.80937" lon="1.8955">
        <ele>699.7</ele>
        <time>2026-07-07T13:13:21.000Z</time>
      </trkpt>
      <trkpt lat="45.80937" lon="1.89549">
        <ele>699.8</ele>
        <time>2026-07-07T13:13:22.000Z</time>
      </trkpt>
      <trkpt lat="45.80935" lon="1.89548">
        <ele>700</ele>
        <time>2026-07-07T13:13:23.000Z</time>
      </trkpt>
      <trkpt lat="45.80939" lon="1.89553">
        <ele>699</ele>
        <time>2026-07-07T13:13:24.000Z</time>
      </trkpt>
      <trkpt lat="45.80941" lon="1.89554">
        <ele>696.7</ele>
        <time>2026-07-07T13:13:25.000Z</time>
      </trkpt>
      <trkpt lat="45.80942" lon="1.89552">
        <ele>697.3</ele>
        <time>2026-07-07T13:13:26.000Z</time>
      </trkpt>
      <trkpt lat="45.80942" lon="1.89551">
        <ele>697.3</ele>
        <time>2026-07-07T13:13:27.000Z</time>
      </trkpt>
      <trkpt lat="45.80942" lon="1.89551">
        <ele>697.2</ele>
        <time>2026-07-07T13:13:28.000Z</time>
      </trkpt>
      <trkpt lat="45.80942" lon="1.89551">
        <ele>697.2</ele>
        <time>2026-07-07T13:13:29.000Z</time>
      </trkpt>
      <trkpt lat="45.80942" lon="1.89551">
        <ele>697.2</ele>
        <time>2026-07-07T13:13:30.000Z</time>
      </trkpt>
      <trkpt lat="45.80942" lon="1.89551">
        <ele>697</ele>
        <time>2026-07-07T13:13:31.000Z</time>
      </trkpt>
      <trkpt lat="45.80942" lon="1.89551">
        <ele>696.3</ele>
        <time>2026-07-07T13:13:32.000Z</time>
      </trkpt>
      <trkpt lat="45.80941" lon="1.89551">
        <ele>696.4</ele>
        <time>2026-07-07T13:13:33.000Z</time>
      </trkpt>
      <trkpt lat="45.80941" lon="1.89551">
        <ele>696.4</ele>
        <time>2026-07-07T13:13:34.000Z</time>
      </trkpt>
      <trkpt lat="45.80941" lon="1.89551">
        <ele>696.3</ele>
        <time>2026-07-07T13:13:35.000Z</time>
      </trkpt>
      <trkpt lat="45.80941" lon="1.89551">
        <ele>696.4</ele>
        <time>2026-07-07T13:13:36.000Z</time>
      </trkpt>
      <trkpt lat="45.80941" lon="1.89551">
        <ele>696.4</ele>
        <time>2026-07-07T13:13:37.000Z</time>
      </trkpt>
      <trkpt lat="45.80941" lon="1.89551">
        <ele>696.4</ele>
        <time>2026-07-07T13:13:38.000Z</time>
      </trkpt>
      <trkpt lat="45.8094" lon="1.8955">
        <ele>696.9</ele>
        <time>2026-07-07T13:13:39.000Z</time>
      </trkpt>
      <trkpt lat="45.80939" lon="1.8955">
        <ele>696.9</ele>
        <time>2026-07-07T13:13:40.000Z</time>
      </trkpt>
      <trkpt lat="45.80939" lon="1.89551">
        <ele>697.2</ele>
        <time>2026-07-07T13:13:41.000Z</time>
      </trkpt>
      <trkpt lat="45.80939" lon="1.89552">
        <ele>697.2</ele>
        <time>2026-07-07T13:13:42.000Z</time>
      </trkpt>
      <trkpt lat="45.80939" lon="1.89553">
        <ele>697.2</ele>
        <time>2026-07-07T13:13:43.000Z</time>
      </trkpt>
    </trkseg>
  </trk>
</gpx>